<?xml version="1.0" encoding="UTF-8"?>
<gpx xmlns="http://www.topografix.com/GPX/1/1"
     creator="GpsDump 4.92"
     version="1.1"
     xmlns:xsi="http://www.w3.org/2001/XMLSchema-instance"
     xsi:schemaLocation="http://www.topografix.com/GPX/1/1 http://www.topografix.com/GPX/1/1/gpx.xsd">
  <metadata>
    <link href="http://www.gethome.no/stein.sorensen/">
      <text>GPS dump for www.flightlog.org</text>
    </link>
    <time>2019-05-20T18:46:18Z</time>
    <bounds minlat="38.718033" minlon="-6.128833" maxlat="39.214450" maxlon="-5.540067"/>
  </metadata>
  <trk>
    <name>Track 001</name>
    <trkseg>
      <trkpt lat="39.214433" lon="-6.123300">
        <ele>962.0</ele>
        <time>2019-05-04T11:21:57Z</time>
      </trkpt>
      <trkpt lat="39.214367" lon="-6.123283">
        <ele>0.0</ele>
        <time>2019-05-04T11:22:09Z</time>
      </trkpt>
      <trkpt lat="39.214350" lon="-6.123467">
        <ele>922.0</ele>
        <time>2019-05-04T11:22:13Z</time>
      </trkpt>
      <trkpt lat="39.214367" lon="-6.123683">
        <ele>886.0</ele>
        <time>2019-05-04T11:22:17Z</time>
      </trkpt>
      <trkpt lat="39.214450" lon="-6.123700">
        <ele>855.0</ele>
        <time>2019-05-04T11:22:21Z</time>
      </trkpt>
      <trkpt lat="39.214433" lon="-6.123683">
        <ele>854.0</ele>
        <time>2019-05-04T11:22:25Z</time>
      </trkpt>
      <trkpt lat="39.214450" lon="-6.123650">
        <ele>859.0</ele>
        <time>2019-05-04T11:22:29Z</time>
      </trkpt>
      <trkpt lat="39.214300" lon="-6.123067">
        <ele>864.0</ele>
        <time>2019-05-04T11:22:33Z</time>
      </trkpt>
      <trkpt lat="39.214333" lon="-6.123017">
        <ele>955.0</ele>
        <time>2019-05-04T11:22:34Z</time>
      </trkpt>
      <trkpt lat="39.214350" lon="-6.123000">
        <ele>966.0</ele>
        <time>2019-05-04T11:22:35Z</time>
      </trkpt>
      <trkpt lat="39.214350" lon="-6.122983">
        <ele>972.0</ele>
        <time>2019-05-04T11:22:36Z</time>
      </trkpt>
      <trkpt lat="39.214367" lon="-6.122983">
        <ele>976.0</ele>
        <time>2019-05-04T11:22:37Z</time>
      </trkpt>
      <trkpt lat="39.214367" lon="-6.122983">
        <ele>979.0</ele>
        <time>2019-05-04T11:22:38Z</time>
      </trkpt>
      <trkpt lat="39.214383" lon="-6.122967">
        <ele>981.0</ele>
        <time>2019-05-04T11:22:39Z</time>
      </trkpt>
      <trkpt lat="39.214383" lon="-6.122950">
        <ele>985.0</ele>
        <time>2019-05-04T11:22:40Z</time>
      </trkpt>
      <trkpt lat="39.214383" lon="-6.122950">
        <ele>986.0</ele>
        <time>2019-05-04T11:22:41Z</time>
      </trkpt>
      <trkpt lat="39.214383" lon="-6.122950">
        <ele>987.0</ele>
        <time>2019-05-04T11:22:42Z</time>
      </trkpt>
      <trkpt lat="39.214383" lon="-6.122950">
        <ele>987.0</ele>
        <time>2019-05-04T11:22:43Z</time>
      </trkpt>
      <trkpt lat="39.214383" lon="-6.122950">
        <ele>987.0</ele>
        <time>2019-05-04T11:22:44Z</time>
      </trkpt>
      <trkpt lat="39.214383" lon="-6.122950">
        <ele>987.0</ele>
        <time>2019-05-04T11:22:45Z</time>
      </trkpt>
      <trkpt lat="39.214383" lon="-6.122950">
        <ele>987.0</ele>
        <time>2019-05-04T11:22:46Z</time>
      </trkpt>
      <trkpt lat="39.214383" lon="-6.122950">
        <ele>987.0</ele>
        <time>2019-05-04T11:22:47Z</time>
      </trkpt>
      <trkpt lat="39.214383" lon="-6.122933">
        <ele>987.0</ele>
        <time>2019-05-04T11:22:48Z</time>
      </trkpt>
      <trkpt lat="39.214367" lon="-6.122933">
        <ele>987.0</ele>
        <time>2019-05-04T11:22:49Z</time>
      </trkpt>
      <trkpt lat="39.214383" lon="-6.122933">
        <ele>988.0</ele>
        <time>2019-05-04T11:22:50Z</time>
      </trkpt>
      <trkpt lat="39.214383" lon="-6.122933">
        <ele>988.0</ele>
        <time>2019-05-04T11:22:51Z</time>
      </trkpt>
      <trkpt lat="39.214383" lon="-6.122950">
        <ele>988.0</ele>
        <time>2019-05-04T11:22:52Z</time>
      </trkpt>
      <trkpt lat="39.214383" lon="-6.122950">
        <ele>989.0</ele>
        <time>2019-05-04T11:22:53Z</time>
      </trkpt>
      <trkpt lat="39.214383" lon="-6.122950">
        <ele>989.0</ele>
        <time>2019-05-04T11:22:54Z</time>
      </trkpt>
      <trkpt lat="39.214400" lon="-6.122933">
        <ele>989.0</ele>
        <time>2019-05-04T11:22:55Z</time>
      </trkpt>
      <trkpt lat="39.214417" lon="-6.122933">
        <ele>989.0</ele>
        <time>2019-05-04T11:22:56Z</time>
      </trkpt>
      <trkpt lat="39.214400" lon="-6.122950">
        <ele>989.0</ele>
        <time>2019-05-04T11:22:57Z</time>
      </trkpt>
      <trkpt lat="39.214383" lon="-6.122950">
        <ele>989.0</ele>
        <time>2019-05-04T11:22:58Z</time>
      </trkpt>
      <trkpt lat="39.214383" lon="-6.122950">
        <ele>989.0</ele>
        <time>2019-05-04T11:22:59Z</time>
      </trkpt>
      <trkpt lat="39.214383" lon="-6.122950">
        <ele>989.0</ele>
        <time>2019-05-04T11:23:00Z</time>
      </trkpt>
      <trkpt lat="39.214383" lon="-6.122950">
        <ele>989.0</ele>
        <time>2019-05-04T11:23:01Z</time>
      </trkpt>
      <trkpt lat="39.214400" lon="-6.122950">
        <ele>989.0</ele>
        <time>2019-05-04T11:23:02Z</time>
      </trkpt>
      <trkpt lat="39.214400" lon="-6.122950">
        <ele>989.0</ele>
        <time>2019-05-04T11:23:03Z</time>
      </trkpt>
      <trkpt lat="39.214383" lon="-6.122950">
        <ele>989.0</ele>
        <time>2019-05-04T11:23:04Z</time>
      </trkpt>
      <trkpt lat="39.214400" lon="-6.122933">
        <ele>989.0</ele>
        <time>2019-05-04T11:23:05Z</time>
      </trkpt>
      <trkpt lat="39.214400" lon="-6.122933">
        <ele>989.0</ele>
        <time>2019-05-04T11:23:06Z</time>
      </trkpt>
      <trkpt lat="39.214400" lon="-6.122950">
        <ele>989.0</ele>
        <time>2019-05-04T11:23:07Z</time>
      </trkpt>
      <trkpt lat="39.214400" lon="-6.122950">
        <ele>989.0</ele>
        <time>2019-05-04T11:23:08Z</time>
      </trkpt>
      <trkpt lat="39.214400" lon="-6.122950">
        <ele>989.0</ele>
        <time>2019-05-04T11:23:09Z</time>
      </trkpt>
      <trkpt lat="39.214400" lon="-6.122950">
        <ele>989.0</ele>
        <time>2019-05-04T11:23:10Z</time>
      </trkpt>
      <trkpt lat="39.214400" lon="-6.122950">
        <ele>989.0</ele>
        <time>2019-05-04T11:23:11Z</time>
      </trkpt>
      <trkpt lat="39.214400" lon="-6.122950">
        <ele>989.0</ele>
        <time>2019-05-04T11:23:12Z</time>
      </trkpt>
      <trkpt lat="39.214400" lon="-6.122950">
        <ele>990.0</ele>
        <time>2019-05-04T11:23:13Z</time>
      </trkpt>
      <trkpt lat="39.214400" lon="-6.122950">
        <ele>990.0</ele>
        <time>2019-05-04T11:23:14Z</time>
      </trkpt>
      <trkpt lat="39.214417" lon="-6.122950">
        <ele>990.0</ele>
        <time>2019-05-04T11:23:15Z</time>
      </trkpt>
      <trkpt lat="39.214400" lon="-6.122950">
        <ele>990.0</ele>
        <time>2019-05-04T11:23:16Z</time>
      </trkpt>
      <trkpt lat="39.214400" lon="-6.122950">
        <ele>990.0</ele>
        <time>2019-05-04T11:23:17Z</time>
      </trkpt>
      <trkpt lat="39.214400" lon="-6.122950">
        <ele>990.0</ele>
        <time>2019-05-04T11:23:18Z</time>
      </trkpt>
      <trkpt lat="39.214400" lon="-6.122950">
        <ele>990.0</ele>
        <time>2019-05-04T11:23:19Z</time>
      </trkpt>
      <trkpt lat="39.214400" lon="-6.122950">
        <ele>990.0</ele>
        <time>2019-05-04T11:23:20Z</time>
      </trkpt>
      <trkpt lat="39.214400" lon="-6.122950">
        <ele>990.0</ele>
        <time>2019-05-04T11:23:21Z</time>
      </trkpt>
      <trkpt lat="39.214400" lon="-6.122950">
        <ele>990.0</ele>
        <time>2019-05-04T11:23:22Z</time>
      </trkpt>
      <trkpt lat="39.214400" lon="-6.122950">
        <ele>990.0</ele>
        <time>2019-05-04T11:23:23Z</time>
      </trkpt>
      <trkpt lat="39.214400" lon="-6.122950">
        <ele>990.0</ele>
        <time>2019-05-04T11:23:24Z</time>
      </trkpt>
      <trkpt lat="39.214400" lon="-6.122950">
        <ele>990.0</ele>
        <time>2019-05-04T11:23:25Z</time>
      </trkpt>
      <trkpt lat="39.214383" lon="-6.122950">
        <ele>990.0</ele>
        <time>2019-05-04T11:23:26Z</time>
      </trkpt>
      <trkpt lat="39.214383" lon="-6.122950">
        <ele>990.0</ele>
        <time>2019-05-04T11:23:27Z</time>
      </trkpt>
      <trkpt lat="39.214400" lon="-6.122950">
        <ele>990.0</ele>
        <time>2019-05-04T11:23:28Z</time>
      </trkpt>
      <trkpt lat="39.214400" lon="-6.122950">
        <ele>990.0</ele>
        <time>2019-05-04T11:23:29Z</time>
      </trkpt>
      <trkpt lat="39.214400" lon="-6.122950">
        <ele>990.0</ele>
        <time>2019-05-04T11:23:30Z</time>
      </trkpt>
      <trkpt lat="39.214400" lon="-6.122950">
        <ele>990.0</ele>
        <time>2019-05-04T11:23:31Z</time>
      </trkpt>
      <trkpt lat="39.214400" lon="-6.122950">
        <ele>990.0</ele>
        <time>2019-05-04T11:23:32Z</time>
      </trkpt>
      <trkpt lat="39.214400" lon="-6.122950">
        <ele>991.0</ele>
        <time>2019-05-04T11:23:33Z</time>
      </trkpt>
      <trkpt lat="39.214400" lon="-6.122950">
        <ele>991.0</ele>
        <time>2019-05-04T11:23:34Z</time>
      </trkpt>
      <trkpt lat="39.214400" lon="-6.122950">
        <ele>991.0</ele>
        <time>2019-05-04T11:23:35Z</time>
      </trkpt>
      <trkpt lat="39.214400" lon="-6.122950">
        <ele>991.0</ele>
        <time>2019-05-04T11:23:36Z</time>
      </trkpt>
      <trkpt lat="39.214400" lon="-6.122950">
        <ele>991.0</ele>
        <time>2019-05-04T11:23:37Z</time>
      </trkpt>
      <trkpt lat="39.214400" lon="-6.122950">
        <ele>991.0</ele>
        <time>2019-05-04T11:23:38Z</time>
      </trkpt>
      <trkpt lat="39.214400" lon="-6.122950">
        <ele>991.0</ele>
        <time>2019-05-04T11:23:39Z</time>
      </trkpt>
      <trkpt lat="39.214400" lon="-6.122950">
        <ele>991.0</ele>
        <time>2019-05-04T11:23:40Z</time>
      </trkpt>
      <trkpt lat="39.214417" lon="-6.122950">
        <ele>991.0</ele>
        <time>2019-05-04T11:23:41Z</time>
      </trkpt>
      <trkpt lat="39.214417" lon="-6.122950">
        <ele>991.0</ele>
        <time>2019-05-04T11:23:42Z</time>
      </trkpt>
      <trkpt lat="39.214417" lon="-6.122950">
        <ele>991.0</ele>
        <time>2019-05-04T11:23:43Z</time>
      </trkpt>
      <trkpt lat="39.214417" lon="-6.122950">
        <ele>991.0</ele>
        <time>2019-05-04T11:23:44Z</time>
      </trkpt>
      <trkpt lat="39.214417" lon="-6.122950">
        <ele>991.0</ele>
        <time>2019-05-04T11:23:45Z</time>
      </trkpt>
      <trkpt lat="39.214417" lon="-6.122950">
        <ele>991.0</ele>
        <time>2019-05-04T11:23:46Z</time>
      </trkpt>
      <trkpt lat="39.214417" lon="-6.122950">
        <ele>991.0</ele>
        <time>2019-05-04T11:23:47Z</time>
      </trkpt>
      <trkpt lat="39.214417" lon="-6.122950">
        <ele>991.0</ele>
        <time>2019-05-04T11:23:48Z</time>
      </trkpt>
      <trkpt lat="39.214400" lon="-6.122950">
        <ele>991.0</ele>
        <time>2019-05-04T11:23:49Z</time>
      </trkpt>
      <trkpt lat="39.214400" lon="-6.122950">
        <ele>991.0</ele>
        <time>2019-05-04T11:23:50Z</time>
      </trkpt>
      <trkpt lat="39.214400" lon="-6.122950">
        <ele>991.0</ele>
        <time>2019-05-04T11:23:51Z</time>
      </trkpt>
      <trkpt lat="39.214400" lon="-6.122950">
        <ele>991.0</ele>
        <time>2019-05-04T11:23:52Z</time>
      </trkpt>
      <trkpt lat="39.214400" lon="-6.122950">
        <ele>991.0</ele>
        <time>2019-05-04T11:23:53Z</time>
      </trkpt>
      <trkpt lat="39.214400" lon="-6.122950">
        <ele>991.0</ele>
        <time>2019-05-04T11:23:54Z</time>
      </trkpt>
      <trkpt lat="39.214400" lon="-6.122950">
        <ele>991.0</ele>
        <time>2019-05-04T11:23:55Z</time>
      </trkpt>
      <trkpt lat="39.214400" lon="-6.122950">
        <ele>991.0</ele>
        <time>2019-05-04T11:23:56Z</time>
      </trkpt>
      <trkpt lat="39.214400" lon="-6.122933">
        <ele>991.0</ele>
        <time>2019-05-04T11:23:57Z</time>
      </trkpt>
      <trkpt lat="39.214400" lon="-6.122933">
        <ele>991.0</ele>
        <time>2019-05-04T11:23:58Z</time>
      </trkpt>
      <trkpt lat="39.214383" lon="-6.122933">
        <ele>991.0</ele>
        <time>2019-05-04T11:23:59Z</time>
      </trkpt>
      <trkpt lat="39.214383" lon="-6.122933">
        <ele>991.0</ele>
        <time>2019-05-04T11:24:00Z</time>
      </trkpt>
      <trkpt lat="39.214383" lon="-6.122933">
        <ele>991.0</ele>
        <time>2019-05-04T11:24:01Z</time>
      </trkpt>
      <trkpt lat="39.214383" lon="-6.122950">
        <ele>991.0</ele>
        <time>2019-05-04T11:24:02Z</time>
      </trkpt>
      <trkpt lat="39.214367" lon="-6.122950">
        <ele>991.0</ele>
        <time>2019-05-04T11:24:03Z</time>
      </trkpt>
      <trkpt lat="39.214367" lon="-6.122950">
        <ele>991.0</ele>
        <time>2019-05-04T11:24:04Z</time>
      </trkpt>
      <trkpt lat="39.214367" lon="-6.122950">
        <ele>991.0</ele>
        <time>2019-05-04T11:24:05Z</time>
      </trkpt>
      <trkpt lat="39.214367" lon="-6.122950">
        <ele>991.0</ele>
        <time>2019-05-04T11:24:06Z</time>
      </trkpt>
      <trkpt lat="39.214367" lon="-6.122950">
        <ele>991.0</ele>
        <time>2019-05-04T11:24:07Z</time>
      </trkpt>
      <trkpt lat="39.214367" lon="-6.122950">
        <ele>991.0</ele>
        <time>2019-05-04T11:24:08Z</time>
      </trkpt>
      <trkpt lat="39.214367" lon="-6.122950">
        <ele>991.0</ele>
        <time>2019-05-04T11:24:09Z</time>
      </trkpt>
      <trkpt lat="39.214367" lon="-6.122950">
        <ele>991.0</ele>
        <time>2019-05-04T11:24:10Z</time>
      </trkpt>
      <trkpt lat="39.214367" lon="-6.122950">
        <ele>991.0</ele>
        <time>2019-05-04T11:24:11Z</time>
      </trkpt>
      <trkpt lat="39.214367" lon="-6.122950">
        <ele>992.0</ele>
        <time>2019-05-04T11:24:12Z</time>
      </trkpt>
      <trkpt lat="39.214350" lon="-6.122950">
        <ele>992.0</ele>
        <time>2019-05-04T11:24:13Z</time>
      </trkpt>
      <trkpt lat="39.214367" lon="-6.122950">
        <ele>992.0</ele>
        <time>2019-05-04T11:24:14Z</time>
      </trkpt>
      <trkpt lat="39.214367" lon="-6.122967">
        <ele>992.0</ele>
        <time>2019-05-04T11:24:15Z</time>
      </trkpt>
      <trkpt lat="39.214367" lon="-6.122967">
        <ele>992.0</ele>
        <time>2019-05-04T11:24:16Z</time>
      </trkpt>
      <trkpt lat="39.214383" lon="-6.122983">
        <ele>992.0</ele>
        <time>2019-05-04T11:24:17Z</time>
      </trkpt>
      <trkpt lat="39.214383" lon="-6.123000">
        <ele>992.0</ele>
        <time>2019-05-04T11:24:18Z</time>
      </trkpt>
      <trkpt lat="39.214383" lon="-6.123000">
        <ele>991.0</ele>
        <time>2019-05-04T11:24:19Z</time>
      </trkpt>
      <trkpt lat="39.214383" lon="-6.123000">
        <ele>991.0</ele>
        <time>2019-05-04T11:24:20Z</time>
      </trkpt>
      <trkpt lat="39.214383" lon="-6.123017">
        <ele>991.0</ele>
        <time>2019-05-04T11:24:21Z</time>
      </trkpt>
      <trkpt lat="39.214383" lon="-6.123017">
        <ele>991.0</ele>
        <time>2019-05-04T11:24:22Z</time>
      </trkpt>
      <trkpt lat="39.214383" lon="-6.123033">
        <ele>991.0</ele>
        <time>2019-05-04T11:24:23Z</time>
      </trkpt>
      <trkpt lat="39.214383" lon="-6.123033">
        <ele>991.0</ele>
        <time>2019-05-04T11:24:24Z</time>
      </trkpt>
      <trkpt lat="39.214400" lon="-6.123017">
        <ele>991.0</ele>
        <time>2019-05-04T11:24:25Z</time>
      </trkpt>
      <trkpt lat="39.214400" lon="-6.123017">
        <ele>991.0</ele>
        <time>2019-05-04T11:24:26Z</time>
      </trkpt>
      <trkpt lat="39.214400" lon="-6.123033">
        <ele>991.0</ele>
        <time>2019-05-04T11:24:27Z</time>
      </trkpt>
      <trkpt lat="39.214400" lon="-6.123033">
        <ele>991.0</ele>
        <time>2019-05-04T11:24:28Z</time>
      </trkpt>
      <trkpt lat="39.214417" lon="-6.123033">
        <ele>991.0</ele>
        <time>2019-05-04T11:24:29Z</time>
      </trkpt>
      <trkpt lat="39.214417" lon="-6.123033">
        <ele>991.0</ele>
        <time>2019-05-04T11:24:30Z</time>
      </trkpt>
      <trkpt lat="39.214400" lon="-6.123033">
        <ele>991.0</ele>
        <time>2019-05-04T11:24:31Z</time>
      </trkpt>
      <trkpt lat="39.214400" lon="-6.123033">
        <ele>991.0</ele>
        <time>2019-05-04T11:24:32Z</time>
      </trkpt>
      <trkpt lat="39.214383" lon="-6.123033">
        <ele>991.0</ele>
        <time>2019-05-04T11:24:33Z</time>
      </trkpt>
      <trkpt lat="39.214383" lon="-6.123033">
        <ele>991.0</ele>
        <time>2019-05-04T11:24:34Z</time>
      </trkpt>
      <trkpt lat="39.214383" lon="-6.123033">
        <ele>991.0</ele>
        <time>2019-05-04T11:24:35Z</time>
      </trkpt>
      <trkpt lat="39.214383" lon="-6.123017">
        <ele>991.0</ele>
        <time>2019-05-04T11:24:36Z</time>
      </trkpt>
      <trkpt lat="39.214400" lon="-6.123017">
        <ele>991.0</ele>
        <time>2019-05-04T11:24:37Z</time>
      </trkpt>
      <trkpt lat="39.214417" lon="-6.123017">
        <ele>991.0</ele>
        <time>2019-05-04T11:24:38Z</time>
      </trkpt>
      <trkpt lat="39.214433" lon="-6.123017">
        <ele>991.0</ele>
        <time>2019-05-04T11:24:39Z</time>
      </trkpt>
      <trkpt lat="39.214433" lon="-6.123000">
        <ele>991.0</ele>
        <time>2019-05-04T11:24:40Z</time>
      </trkpt>
      <trkpt lat="39.214450" lon="-6.122983">
        <ele>991.0</ele>
        <time>2019-05-04T11:24:41Z</time>
      </trkpt>
      <trkpt lat="39.214433" lon="-6.122967">
        <ele>991.0</ele>
        <time>2019-05-04T11:24:42Z</time>
      </trkpt>
      <trkpt lat="39.214433" lon="-6.122967">
        <ele>991.0</ele>
        <time>2019-05-04T11:24:43Z</time>
      </trkpt>
      <trkpt lat="39.214417" lon="-6.122983">
        <ele>991.0</ele>
        <time>2019-05-04T11:24:44Z</time>
      </trkpt>
      <trkpt lat="39.214417" lon="-6.122983">
        <ele>991.0</ele>
        <time>2019-05-04T11:24:45Z</time>
      </trkpt>
      <trkpt lat="39.214433" lon="-6.122983">
        <ele>991.0</ele>
        <time>2019-05-04T11:24:46Z</time>
      </trkpt>
      <trkpt lat="39.214433" lon="-6.122983">
        <ele>991.0</ele>
        <time>2019-05-04T11:24:47Z</time>
      </trkpt>
      <trkpt lat="39.214433" lon="-6.122983">
        <ele>991.0</ele>
        <time>2019-05-04T11:24:48Z</time>
      </trkpt>
      <trkpt lat="39.214433" lon="-6.122983">
        <ele>991.0</ele>
        <time>2019-05-04T11:24:49Z</time>
      </trkpt>
      <trkpt lat="39.214433" lon="-6.122983">
        <ele>991.0</ele>
        <time>2019-05-04T11:24:50Z</time>
      </trkpt>
      <trkpt lat="39.214433" lon="-6.122983">
        <ele>991.0</ele>
        <time>2019-05-04T11:24:51Z</time>
      </trkpt>
      <trkpt lat="39.214433" lon="-6.122983">
        <ele>991.0</ele>
        <time>2019-05-04T11:24:52Z</time>
      </trkpt>
      <trkpt lat="39.214433" lon="-6.122983">
        <ele>991.0</ele>
        <time>2019-05-04T11:24:53Z</time>
      </trkpt>
      <trkpt lat="39.214417" lon="-6.122983">
        <ele>991.0</ele>
        <time>2019-05-04T11:24:54Z</time>
      </trkpt>
      <trkpt lat="39.214417" lon="-6.122983">
        <ele>991.0</ele>
        <time>2019-05-04T11:24:55Z</time>
      </trkpt>
      <trkpt lat="39.214417" lon="-6.122983">
        <ele>990.0</ele>
        <time>2019-05-04T11:24:56Z</time>
      </trkpt>
      <trkpt lat="39.214417" lon="-6.122983">
        <ele>990.0</ele>
        <time>2019-05-04T11:24:57Z</time>
      </trkpt>
      <trkpt lat="39.214433" lon="-6.122983">
        <ele>990.0</ele>
        <time>2019-05-04T11:24:58Z</time>
      </trkpt>
      <trkpt lat="39.214433" lon="-6.122967">
        <ele>990.0</ele>
        <time>2019-05-04T11:24:59Z</time>
      </trkpt>
      <trkpt lat="39.214433" lon="-6.122983">
        <ele>990.0</ele>
        <time>2019-05-04T11:25:00Z</time>
      </trkpt>
      <trkpt lat="39.214417" lon="-6.122983">
        <ele>990.0</ele>
        <time>2019-05-04T11:25:01Z</time>
      </trkpt>
      <trkpt lat="39.214417" lon="-6.122967">
        <ele>990.0</ele>
        <time>2019-05-04T11:25:02Z</time>
      </trkpt>
      <trkpt lat="39.214417" lon="-6.122917">
        <ele>990.0</ele>
        <time>2019-05-04T11:25:03Z</time>
      </trkpt>
      <trkpt lat="39.214417" lon="-6.122883">
        <ele>990.0</ele>
        <time>2019-05-04T11:25:04Z</time>
      </trkpt>
      <trkpt lat="39.214433" lon="-6.122800">
        <ele>990.0</ele>
        <time>2019-05-04T11:25:05Z</time>
      </trkpt>
      <trkpt lat="39.214417" lon="-6.122717">
        <ele>990.0</ele>
        <time>2019-05-04T11:25:06Z</time>
      </trkpt>
      <trkpt lat="39.214417" lon="-6.122633">
        <ele>989.0</ele>
        <time>2019-05-04T11:25:07Z</time>
      </trkpt>
      <trkpt lat="39.214400" lon="-6.122567">
        <ele>989.0</ele>
        <time>2019-05-04T11:25:08Z</time>
      </trkpt>
      <trkpt lat="39.214367" lon="-6.122500">
        <ele>989.0</ele>
        <time>2019-05-04T11:25:09Z</time>
      </trkpt>
      <trkpt lat="39.214317" lon="-6.122450">
        <ele>989.0</ele>
        <time>2019-05-04T11:25:10Z</time>
      </trkpt>
      <trkpt lat="39.214267" lon="-6.122400">
        <ele>989.0</ele>
        <time>2019-05-04T11:25:11Z</time>
      </trkpt>
      <trkpt lat="39.214217" lon="-6.122350">
        <ele>989.0</ele>
        <time>2019-05-04T11:25:12Z</time>
      </trkpt>
      <trkpt lat="39.214167" lon="-6.122300">
        <ele>989.0</ele>
        <time>2019-05-04T11:25:13Z</time>
      </trkpt>
      <trkpt lat="39.214100" lon="-6.122250">
        <ele>989.0</ele>
        <time>2019-05-04T11:25:14Z</time>
      </trkpt>
      <trkpt lat="39.214033" lon="-6.122200">
        <ele>989.0</ele>
        <time>2019-05-04T11:25:15Z</time>
      </trkpt>
      <trkpt lat="39.213950" lon="-6.122150">
        <ele>989.0</ele>
        <time>2019-05-04T11:25:16Z</time>
      </trkpt>
      <trkpt lat="39.213883" lon="-6.122133">
        <ele>989.0</ele>
        <time>2019-05-04T11:25:17Z</time>
      </trkpt>
      <trkpt lat="39.213817" lon="-6.122150">
        <ele>989.0</ele>
        <time>2019-05-04T11:25:18Z</time>
      </trkpt>
      <trkpt lat="39.213717" lon="-6.122117">
        <ele>989.0</ele>
        <time>2019-05-04T11:25:19Z</time>
      </trkpt>
      <trkpt lat="39.213633" lon="-6.122083">
        <ele>989.0</ele>
        <time>2019-05-04T11:25:20Z</time>
      </trkpt>
      <trkpt lat="39.213550" lon="-6.122033">
        <ele>989.0</ele>
        <time>2019-05-04T11:25:21Z</time>
      </trkpt>
      <trkpt lat="39.213483" lon="-6.122017">
        <ele>989.0</ele>
        <time>2019-05-04T11:25:22Z</time>
      </trkpt>
      <trkpt lat="39.213400" lon="-6.122000">
        <ele>989.0</ele>
        <time>2019-05-04T11:25:23Z</time>
      </trkpt>
      <trkpt lat="39.213333" lon="-6.121967">
        <ele>989.0</ele>
        <time>2019-05-04T11:25:24Z</time>
      </trkpt>
      <trkpt lat="39.213267" lon="-6.121950">
        <ele>989.0</ele>
        <time>2019-05-04T11:25:25Z</time>
      </trkpt>
      <trkpt lat="39.213183" lon="-6.121900">
        <ele>989.0</ele>
        <time>2019-05-04T11:25:26Z</time>
      </trkpt>
      <trkpt lat="39.213100" lon="-6.121850">
        <ele>989.0</ele>
        <time>2019-05-04T11:25:27Z</time>
      </trkpt>
      <trkpt lat="39.213017" lon="-6.121783">
        <ele>989.0</ele>
        <time>2019-05-04T11:25:28Z</time>
      </trkpt>
      <trkpt lat="39.212950" lon="-6.121733">
        <ele>989.0</ele>
        <time>2019-05-04T11:25:29Z</time>
      </trkpt>
      <trkpt lat="39.212883" lon="-6.121683">
        <ele>989.0</ele>
        <time>2019-05-04T11:25:30Z</time>
      </trkpt>
      <trkpt lat="39.212800" lon="-6.121633">
        <ele>989.0</ele>
        <time>2019-05-04T11:25:31Z</time>
      </trkpt>
      <trkpt lat="39.212717" lon="-6.121583">
        <ele>989.0</ele>
        <time>2019-05-04T11:25:32Z</time>
      </trkpt>
      <trkpt lat="39.212633" lon="-6.121533">
        <ele>989.0</ele>
        <time>2019-05-04T11:25:33Z</time>
      </trkpt>
      <trkpt lat="39.212583" lon="-6.121467">
        <ele>988.0</ele>
        <time>2019-05-04T11:25:34Z</time>
      </trkpt>
      <trkpt lat="39.212517" lon="-6.121400">
        <ele>988.0</ele>
        <time>2019-05-04T11:25:35Z</time>
      </trkpt>
      <trkpt lat="39.212450" lon="-6.121317">
        <ele>988.0</ele>
        <time>2019-05-04T11:25:36Z</time>
      </trkpt>
      <trkpt lat="39.212383" lon="-6.121233">
        <ele>988.0</ele>
        <time>2019-05-04T11:25:37Z</time>
      </trkpt>
      <trkpt lat="39.212317" lon="-6.121150">
        <ele>988.0</ele>
        <time>2019-05-04T11:25:38Z</time>
      </trkpt>
      <trkpt lat="39.212233" lon="-6.121067">
        <ele>988.0</ele>
        <time>2019-05-04T11:25:39Z</time>
      </trkpt>
      <trkpt lat="39.212150" lon="-6.121000">
        <ele>987.0</ele>
        <time>2019-05-04T11:25:40Z</time>
      </trkpt>
      <trkpt lat="39.212050" lon="-6.120900">
        <ele>987.0</ele>
        <time>2019-05-04T11:25:41Z</time>
      </trkpt>
      <trkpt lat="39.211950" lon="-6.120800">
        <ele>986.0</ele>
        <time>2019-05-04T11:25:42Z</time>
      </trkpt>
      <trkpt lat="39.211883" lon="-6.120733">
        <ele>984.0</ele>
        <time>2019-05-04T11:25:43Z</time>
      </trkpt>
      <trkpt lat="39.211817" lon="-6.120667">
        <ele>983.0</ele>
        <time>2019-05-04T11:25:44Z</time>
      </trkpt>
      <trkpt lat="39.211750" lon="-6.120617">
        <ele>982.0</ele>
        <time>2019-05-04T11:25:45Z</time>
      </trkpt>
      <trkpt lat="39.211667" lon="-6.120567">
        <ele>981.0</ele>
        <time>2019-05-04T11:25:46Z</time>
      </trkpt>
      <trkpt lat="39.211600" lon="-6.120517">
        <ele>980.0</ele>
        <time>2019-05-04T11:25:47Z</time>
      </trkpt>
      <trkpt lat="39.211517" lon="-6.120450">
        <ele>978.0</ele>
        <time>2019-05-04T11:25:48Z</time>
      </trkpt>
      <trkpt lat="39.211433" lon="-6.120400">
        <ele>975.0</ele>
        <time>2019-05-04T11:25:49Z</time>
      </trkpt>
      <trkpt lat="39.211350" lon="-6.120367">
        <ele>973.0</ele>
        <time>2019-05-04T11:25:50Z</time>
      </trkpt>
      <trkpt lat="39.211267" lon="-6.120350">
        <ele>971.0</ele>
        <time>2019-05-04T11:25:51Z</time>
      </trkpt>
      <trkpt lat="39.211200" lon="-6.120333">
        <ele>971.0</ele>
        <time>2019-05-04T11:25:52Z</time>
      </trkpt>
      <trkpt lat="39.211133" lon="-6.120317">
        <ele>971.0</ele>
        <time>2019-05-04T11:25:53Z</time>
      </trkpt>
      <trkpt lat="39.211050" lon="-6.120300">
        <ele>970.0</ele>
        <time>2019-05-04T11:25:54Z</time>
      </trkpt>
      <trkpt lat="39.210983" lon="-6.120300">
        <ele>968.0</ele>
        <time>2019-05-04T11:25:55Z</time>
      </trkpt>
      <trkpt lat="39.210900" lon="-6.120283">
        <ele>966.0</ele>
        <time>2019-05-04T11:25:56Z</time>
      </trkpt>
      <trkpt lat="39.210817" lon="-6.120267">
        <ele>963.0</ele>
        <time>2019-05-04T11:25:57Z</time>
      </trkpt>
      <trkpt lat="39.210733" lon="-6.120233">
        <ele>961.0</ele>
        <time>2019-05-04T11:25:58Z</time>
      </trkpt>
      <trkpt lat="39.210667" lon="-6.120200">
        <ele>960.0</ele>
        <time>2019-05-04T11:25:59Z</time>
      </trkpt>
      <trkpt lat="39.210600" lon="-6.120183">
        <ele>960.0</ele>
        <time>2019-05-04T11:26:00Z</time>
      </trkpt>
      <trkpt lat="39.210533" lon="-6.120167">
        <ele>960.0</ele>
        <time>2019-05-04T11:26:01Z</time>
      </trkpt>
      <trkpt lat="39.210467" lon="-6.120150">
        <ele>959.0</ele>
        <time>2019-05-04T11:26:02Z</time>
      </trkpt>
      <trkpt lat="39.210383" lon="-6.120133">
        <ele>958.0</ele>
        <time>2019-05-04T11:26:03Z</time>
      </trkpt>
      <trkpt lat="39.210317" lon="-6.120100">
        <ele>956.0</ele>
        <time>2019-05-04T11:26:04Z</time>
      </trkpt>
      <trkpt lat="39.210250" lon="-6.120083">
        <ele>954.0</ele>
        <time>2019-05-04T11:26:05Z</time>
      </trkpt>
      <trkpt lat="39.210183" lon="-6.120050">
        <ele>952.0</ele>
        <time>2019-05-04T11:26:06Z</time>
      </trkpt>
      <trkpt lat="39.210100" lon="-6.120017">
        <ele>952.0</ele>
        <time>2019-05-04T11:26:07Z</time>
      </trkpt>
      <trkpt lat="39.210033" lon="-6.120000">
        <ele>951.0</ele>
        <time>2019-05-04T11:26:08Z</time>
      </trkpt>
      <trkpt lat="39.209967" lon="-6.119983">
        <ele>952.0</ele>
        <time>2019-05-04T11:26:09Z</time>
      </trkpt>
      <trkpt lat="39.209883" lon="-6.119983">
        <ele>952.0</ele>
        <time>2019-05-04T11:26:10Z</time>
      </trkpt>
      <trkpt lat="39.209817" lon="-6.119967">
        <ele>952.0</ele>
        <time>2019-05-04T11:26:11Z</time>
      </trkpt>
      <trkpt lat="39.209767" lon="-6.119950">
        <ele>953.0</ele>
        <time>2019-05-04T11:26:12Z</time>
      </trkpt>
      <trkpt lat="39.209700" lon="-6.119967">
        <ele>955.0</ele>
        <time>2019-05-04T11:26:13Z</time>
      </trkpt>
      <trkpt lat="39.209633" lon="-6.119983">
        <ele>956.0</ele>
        <time>2019-05-04T11:26:14Z</time>
      </trkpt>
      <trkpt lat="39.209567" lon="-6.119983">
        <ele>956.0</ele>
        <time>2019-05-04T11:26:15Z</time>
      </trkpt>
      <trkpt lat="39.209500" lon="-6.119967">
        <ele>957.0</ele>
        <time>2019-05-04T11:26:16Z</time>
      </trkpt>
      <trkpt lat="39.209433" lon="-6.119933">
        <ele>959.0</ele>
        <time>2019-05-04T11:26:17Z</time>
      </trkpt>
      <trkpt lat="39.209367" lon="-6.119917">
        <ele>963.0</ele>
        <time>2019-05-04T11:26:18Z</time>
      </trkpt>
      <trkpt lat="39.209317" lon="-6.119900">
        <ele>967.0</ele>
        <time>2019-05-04T11:26:19Z</time>
      </trkpt>
      <trkpt lat="39.209267" lon="-6.119867">
        <ele>970.0</ele>
        <time>2019-05-04T11:26:20Z</time>
      </trkpt>
      <trkpt lat="39.209233" lon="-6.119817">
        <ele>971.0</ele>
        <time>2019-05-04T11:26:21Z</time>
      </trkpt>
      <trkpt lat="39.209217" lon="-6.119750">
        <ele>971.0</ele>
        <time>2019-05-04T11:26:22Z</time>
      </trkpt>
      <trkpt lat="39.209233" lon="-6.119667">
        <ele>972.0</ele>
        <time>2019-05-04T11:26:23Z</time>
      </trkpt>
      <trkpt lat="39.209283" lon="-6.119617">
        <ele>974.0</ele>
        <time>2019-05-04T11:26:24Z</time>
      </trkpt>
      <trkpt lat="39.209350" lon="-6.119600">
        <ele>975.0</ele>
        <time>2019-05-04T11:26:25Z</time>
      </trkpt>
      <trkpt lat="39.209433" lon="-6.119600">
        <ele>975.0</ele>
        <time>2019-05-04T11:26:26Z</time>
      </trkpt>
      <trkpt lat="39.209533" lon="-6.119633">
        <ele>976.0</ele>
        <time>2019-05-04T11:26:27Z</time>
      </trkpt>
      <trkpt lat="39.209617" lon="-6.119733">
        <ele>977.0</ele>
        <time>2019-05-04T11:26:28Z</time>
      </trkpt>
      <trkpt lat="39.209667" lon="-6.119867">
        <ele>980.0</ele>
        <time>2019-05-04T11:26:29Z</time>
      </trkpt>
      <trkpt lat="39.209700" lon="-6.120017">
        <ele>982.0</ele>
        <time>2019-05-04T11:26:30Z</time>
      </trkpt>
      <trkpt lat="39.209683" lon="-6.120167">
        <ele>985.0</ele>
        <time>2019-05-04T11:26:31Z</time>
      </trkpt>
      <trkpt lat="39.209650" lon="-6.120283">
        <ele>988.0</ele>
        <time>2019-05-04T11:26:32Z</time>
      </trkpt>
      <trkpt lat="39.209600" lon="-6.120400">
        <ele>991.0</ele>
        <time>2019-05-04T11:26:33Z</time>
      </trkpt>
      <trkpt lat="39.209550" lon="-6.120500">
        <ele>994.0</ele>
        <time>2019-05-04T11:26:34Z</time>
      </trkpt>
      <trkpt lat="39.209467" lon="-6.120583">
        <ele>996.0</ele>
        <time>2019-05-04T11:26:35Z</time>
      </trkpt>
      <trkpt lat="39.209400" lon="-6.120617">
        <ele>999.0</ele>
        <time>2019-05-04T11:26:36Z</time>
      </trkpt>
      <trkpt lat="39.209317" lon="-6.120633">
        <ele>1001.0</ele>
        <time>2019-05-04T11:26:37Z</time>
      </trkpt>
      <trkpt lat="39.209250" lon="-6.120617">
        <ele>1004.0</ele>
        <time>2019-05-04T11:26:38Z</time>
      </trkpt>
      <trkpt lat="39.209217" lon="-6.120600">
        <ele>1007.0</ele>
        <time>2019-05-04T11:26:39Z</time>
      </trkpt>
      <trkpt lat="39.209200" lon="-6.120567">
        <ele>1010.0</ele>
        <time>2019-05-04T11:26:40Z</time>
      </trkpt>
      <trkpt lat="39.209200" lon="-6.120517">
        <ele>1012.0</ele>
        <time>2019-05-04T11:26:41Z</time>
      </trkpt>
      <trkpt lat="39.209217" lon="-6.120467">
        <ele>1014.0</ele>
        <time>2019-05-04T11:26:42Z</time>
      </trkpt>
      <trkpt lat="39.209250" lon="-6.120417">
        <ele>1016.0</ele>
        <time>2019-05-04T11:26:43Z</time>
      </trkpt>
      <trkpt lat="39.209317" lon="-6.120383">
        <ele>1018.0</ele>
        <time>2019-05-04T11:26:44Z</time>
      </trkpt>
      <trkpt lat="39.209400" lon="-6.120367">
        <ele>1019.0</ele>
        <time>2019-05-04T11:26:45Z</time>
      </trkpt>
      <trkpt lat="39.209483" lon="-6.120400">
        <ele>1021.0</ele>
        <time>2019-05-04T11:26:46Z</time>
      </trkpt>
      <trkpt lat="39.209567" lon="-6.120483">
        <ele>1022.0</ele>
        <time>2019-05-04T11:26:47Z</time>
      </trkpt>
      <trkpt lat="39.209650" lon="-6.120583">
        <ele>1023.0</ele>
        <time>2019-05-04T11:26:48Z</time>
      </trkpt>
      <trkpt lat="39.209700" lon="-6.120700">
        <ele>1025.0</ele>
        <time>2019-05-04T11:26:49Z</time>
      </trkpt>
      <trkpt lat="39.209733" lon="-6.120833">
        <ele>1027.0</ele>
        <time>2019-05-04T11:26:50Z</time>
      </trkpt>
      <trkpt lat="39.209750" lon="-6.120967">
        <ele>1029.0</ele>
        <time>2019-05-04T11:26:51Z</time>
      </trkpt>
      <trkpt lat="39.209733" lon="-6.121083">
        <ele>1031.0</ele>
        <time>2019-05-04T11:26:52Z</time>
      </trkpt>
      <trkpt lat="39.209700" lon="-6.121217">
        <ele>1032.0</ele>
        <time>2019-05-04T11:26:53Z</time>
      </trkpt>
      <trkpt lat="39.209650" lon="-6.121333">
        <ele>1033.0</ele>
        <time>2019-05-04T11:26:54Z</time>
      </trkpt>
      <trkpt lat="39.209567" lon="-6.121400">
        <ele>1033.0</ele>
        <time>2019-05-04T11:26:55Z</time>
      </trkpt>
      <trkpt lat="39.209467" lon="-6.121450">
        <ele>1034.0</ele>
        <time>2019-05-04T11:26:56Z</time>
      </trkpt>
      <trkpt lat="39.209383" lon="-6.121467">
        <ele>1036.0</ele>
        <time>2019-05-04T11:26:57Z</time>
      </trkpt>
      <trkpt lat="39.209333" lon="-6.121483">
        <ele>1042.0</ele>
        <time>2019-05-04T11:26:58Z</time>
      </trkpt>
      <trkpt lat="39.209283" lon="-6.121500">
        <ele>1046.0</ele>
        <time>2019-05-04T11:26:59Z</time>
      </trkpt>
      <trkpt lat="39.209233" lon="-6.121533">
        <ele>1049.0</ele>
        <time>2019-05-04T11:27:00Z</time>
      </trkpt>
      <trkpt lat="39.209167" lon="-6.121533">
        <ele>1051.0</ele>
        <time>2019-05-04T11:27:01Z</time>
      </trkpt>
      <trkpt lat="39.209117" lon="-6.121500">
        <ele>1052.0</ele>
        <time>2019-05-04T11:27:02Z</time>
      </trkpt>
      <trkpt lat="39.209083" lon="-6.121450">
        <ele>1054.0</ele>
        <time>2019-05-04T11:27:03Z</time>
      </trkpt>
      <trkpt lat="39.209083" lon="-6.121383">
        <ele>1055.0</ele>
        <time>2019-05-04T11:27:04Z</time>
      </trkpt>
      <trkpt lat="39.209117" lon="-6.121333">
        <ele>1057.0</ele>
        <time>2019-05-04T11:27:05Z</time>
      </trkpt>
      <trkpt lat="39.209167" lon="-6.121300">
        <ele>1053.0</ele>
        <time>2019-05-04T11:27:06Z</time>
      </trkpt>
      <trkpt lat="39.209250" lon="-6.121300">
        <ele>1053.0</ele>
        <time>2019-05-04T11:27:07Z</time>
      </trkpt>
      <trkpt lat="39.209317" lon="-6.121333">
        <ele>1053.0</ele>
        <time>2019-05-04T11:27:08Z</time>
      </trkpt>
      <trkpt lat="39.209400" lon="-6.121417">
        <ele>1053.0</ele>
        <time>2019-05-04T11:27:09Z</time>
      </trkpt>
      <trkpt lat="39.209467" lon="-6.121517">
        <ele>1053.0</ele>
        <time>2019-05-04T11:27:10Z</time>
      </trkpt>
      <trkpt lat="39.209500" lon="-6.121633">
        <ele>1054.0</ele>
        <time>2019-05-04T11:27:11Z</time>
      </trkpt>
      <trkpt lat="39.209533" lon="-6.121767">
        <ele>1055.0</ele>
        <time>2019-05-04T11:27:12Z</time>
      </trkpt>
      <trkpt lat="39.209517" lon="-6.121900">
        <ele>1056.0</ele>
        <time>2019-05-04T11:27:13Z</time>
      </trkpt>
      <trkpt lat="39.209467" lon="-6.122033">
        <ele>1057.0</ele>
        <time>2019-05-04T11:27:14Z</time>
      </trkpt>
      <trkpt lat="39.209400" lon="-6.122133">
        <ele>1059.0</ele>
        <time>2019-05-04T11:27:15Z</time>
      </trkpt>
      <trkpt lat="39.209333" lon="-6.122200">
        <ele>1061.0</ele>
        <time>2019-05-04T11:27:16Z</time>
      </trkpt>
      <trkpt lat="39.209250" lon="-6.122267">
        <ele>1065.0</ele>
        <time>2019-05-04T11:27:17Z</time>
      </trkpt>
      <trkpt lat="39.209183" lon="-6.122317">
        <ele>1069.0</ele>
        <time>2019-05-04T11:27:18Z</time>
      </trkpt>
      <trkpt lat="39.209117" lon="-6.122350">
        <ele>1073.0</ele>
        <time>2019-05-04T11:27:19Z</time>
      </trkpt>
      <trkpt lat="39.209050" lon="-6.122383">
        <ele>1076.0</ele>
        <time>2019-05-04T11:27:20Z</time>
      </trkpt>
      <trkpt lat="39.208967" lon="-6.122400">
        <ele>1079.0</ele>
        <time>2019-05-04T11:27:21Z</time>
      </trkpt>
      <trkpt lat="39.208900" lon="-6.122383">
        <ele>1081.0</ele>
        <time>2019-05-04T11:27:22Z</time>
      </trkpt>
      <trkpt lat="39.208850" lon="-6.122333">
        <ele>1083.0</ele>
        <time>2019-05-04T11:27:23Z</time>
      </trkpt>
      <trkpt lat="39.208817" lon="-6.122267">
        <ele>1085.0</ele>
        <time>2019-05-04T11:27:24Z</time>
      </trkpt>
      <trkpt lat="39.208833" lon="-6.122200">
        <ele>1088.0</ele>
        <time>2019-05-04T11:27:25Z</time>
      </trkpt>
      <trkpt lat="39.208867" lon="-6.122150">
        <ele>1089.0</ele>
        <time>2019-05-04T11:27:26Z</time>
      </trkpt>
      <trkpt lat="39.208933" lon="-6.122117">
        <ele>1090.0</ele>
        <time>2019-05-04T11:27:27Z</time>
      </trkpt>
      <trkpt lat="39.209000" lon="-6.122100">
        <ele>1090.0</ele>
        <time>2019-05-04T11:27:28Z</time>
      </trkpt>
      <trkpt lat="39.209083" lon="-6.122150">
        <ele>1091.0</ele>
        <time>2019-05-04T11:27:29Z</time>
      </trkpt>
      <trkpt lat="39.209167" lon="-6.122217">
        <ele>1092.0</ele>
        <time>2019-05-04T11:27:30Z</time>
      </trkpt>
      <trkpt lat="39.209233" lon="-6.122333">
        <ele>1093.0</ele>
        <time>2019-05-04T11:27:31Z</time>
      </trkpt>
      <trkpt lat="39.209267" lon="-6.122483">
        <ele>1095.0</ele>
        <time>2019-05-04T11:27:32Z</time>
      </trkpt>
      <trkpt lat="39.209267" lon="-6.122617">
        <ele>1097.0</ele>
        <time>2019-05-04T11:27:33Z</time>
      </trkpt>
      <trkpt lat="39.209250" lon="-6.122750">
        <ele>1100.0</ele>
        <time>2019-05-04T11:27:34Z</time>
      </trkpt>
      <trkpt lat="39.209217" lon="-6.122867">
        <ele>1102.0</ele>
        <time>2019-05-04T11:27:35Z</time>
      </trkpt>
      <trkpt lat="39.209183" lon="-6.122983">
        <ele>1104.0</ele>
        <time>2019-05-04T11:27:36Z</time>
      </trkpt>
      <trkpt lat="39.209133" lon="-6.123100">
        <ele>1106.0</ele>
        <time>2019-05-04T11:27:37Z</time>
      </trkpt>
      <trkpt lat="39.209067" lon="-6.123200">
        <ele>1108.0</ele>
        <time>2019-05-04T11:27:38Z</time>
      </trkpt>
      <trkpt lat="39.208983" lon="-6.123283">
        <ele>1110.0</ele>
        <time>2019-05-04T11:27:39Z</time>
      </trkpt>
      <trkpt lat="39.208917" lon="-6.123333">
        <ele>1112.0</ele>
        <time>2019-05-04T11:27:40Z</time>
      </trkpt>
      <trkpt lat="39.208833" lon="-6.123367">
        <ele>1114.0</ele>
        <time>2019-05-04T11:27:41Z</time>
      </trkpt>
      <trkpt lat="39.208750" lon="-6.123383">
        <ele>1117.0</ele>
        <time>2019-05-04T11:27:42Z</time>
      </trkpt>
      <trkpt lat="39.208667" lon="-6.123400">
        <ele>1120.0</ele>
        <time>2019-05-04T11:27:43Z</time>
      </trkpt>
      <trkpt lat="39.208583" lon="-6.123400">
        <ele>1121.0</ele>
        <time>2019-05-04T11:27:44Z</time>
      </trkpt>
      <trkpt lat="39.208500" lon="-6.123383">
        <ele>1124.0</ele>
        <time>2019-05-04T11:27:45Z</time>
      </trkpt>
      <trkpt lat="39.208433" lon="-6.123333">
        <ele>1125.0</ele>
        <time>2019-05-04T11:27:46Z</time>
      </trkpt>
      <trkpt lat="39.208400" lon="-6.123233">
        <ele>1126.0</ele>
        <time>2019-05-04T11:27:47Z</time>
      </trkpt>
      <trkpt lat="39.208417" lon="-6.123133">
        <ele>1126.0</ele>
        <time>2019-05-04T11:27:48Z</time>
      </trkpt>
      <trkpt lat="39.208467" lon="-6.123050">
        <ele>1127.0</ele>
        <time>2019-05-04T11:27:49Z</time>
      </trkpt>
      <trkpt lat="39.208550" lon="-6.123033">
        <ele>1129.0</ele>
        <time>2019-05-04T11:27:50Z</time>
      </trkpt>
      <trkpt lat="39.208633" lon="-6.123050">
        <ele>1131.0</ele>
        <time>2019-05-04T11:27:51Z</time>
      </trkpt>
      <trkpt lat="39.208700" lon="-6.123100">
        <ele>1133.0</ele>
        <time>2019-05-04T11:27:52Z</time>
      </trkpt>
      <trkpt lat="39.208767" lon="-6.123183">
        <ele>1134.0</ele>
        <time>2019-05-04T11:27:53Z</time>
      </trkpt>
      <trkpt lat="39.208783" lon="-6.123300">
        <ele>1136.0</ele>
        <time>2019-05-04T11:27:54Z</time>
      </trkpt>
      <trkpt lat="39.208783" lon="-6.123433">
        <ele>1138.0</ele>
        <time>2019-05-04T11:27:55Z</time>
      </trkpt>
      <trkpt lat="39.208750" lon="-6.123550">
        <ele>1139.0</ele>
        <time>2019-05-04T11:27:56Z</time>
      </trkpt>
      <trkpt lat="39.208700" lon="-6.123667">
        <ele>1141.0</ele>
        <time>2019-05-04T11:27:57Z</time>
      </trkpt>
      <trkpt lat="39.208617" lon="-6.123750">
        <ele>1144.0</ele>
        <time>2019-05-04T11:27:58Z</time>
      </trkpt>
      <trkpt lat="39.208517" lon="-6.123817">
        <ele>1146.0</ele>
        <time>2019-05-04T11:27:59Z</time>
      </trkpt>
      <trkpt lat="39.208450" lon="-6.123867">
        <ele>1150.0</ele>
        <time>2019-05-04T11:28:00Z</time>
      </trkpt>
      <trkpt lat="39.208367" lon="-6.123917">
        <ele>1153.0</ele>
        <time>2019-05-04T11:28:01Z</time>
      </trkpt>
      <trkpt lat="39.208283" lon="-6.123950">
        <ele>1155.0</ele>
        <time>2019-05-04T11:28:02Z</time>
      </trkpt>
      <trkpt lat="39.208167" lon="-6.123950">
        <ele>1156.0</ele>
        <time>2019-05-04T11:28:03Z</time>
      </trkpt>
      <trkpt lat="39.208067" lon="-6.123917">
        <ele>1157.0</ele>
        <time>2019-05-04T11:28:04Z</time>
      </trkpt>
      <trkpt lat="39.207983" lon="-6.123833">
        <ele>1158.0</ele>
        <time>2019-05-04T11:28:05Z</time>
      </trkpt>
      <trkpt lat="39.207933" lon="-6.123750">
        <ele>1161.0</ele>
        <time>2019-05-04T11:28:06Z</time>
      </trkpt>
      <trkpt lat="39.207917" lon="-6.123667">
        <ele>1165.0</ele>
        <time>2019-05-04T11:28:07Z</time>
      </trkpt>
      <trkpt lat="39.207900" lon="-6.123600">
        <ele>1168.0</ele>
        <time>2019-05-04T11:28:08Z</time>
      </trkpt>
      <trkpt lat="39.207883" lon="-6.123517">
        <ele>1170.0</ele>
        <time>2019-05-04T11:28:09Z</time>
      </trkpt>
      <trkpt lat="39.207867" lon="-6.123433">
        <ele>1172.0</ele>
        <time>2019-05-04T11:28:10Z</time>
      </trkpt>
      <trkpt lat="39.207883" lon="-6.123317">
        <ele>1173.0</ele>
        <time>2019-05-04T11:28:11Z</time>
      </trkpt>
      <trkpt lat="39.207950" lon="-6.123233">
        <ele>1174.0</ele>
        <time>2019-05-04T11:28:12Z</time>
      </trkpt>
      <trkpt lat="39.208033" lon="-6.123183">
        <ele>1174.0</ele>
        <time>2019-05-04T11:28:13Z</time>
      </trkpt>
      <trkpt lat="39.208133" lon="-6.123200">
        <ele>1175.0</ele>
        <time>2019-05-04T11:28:14Z</time>
      </trkpt>
      <trkpt lat="39.208217" lon="-6.123267">
        <ele>1176.0</ele>
        <time>2019-05-04T11:28:15Z</time>
      </trkpt>
      <trkpt lat="39.208267" lon="-6.123367">
        <ele>1178.0</ele>
        <time>2019-05-04T11:28:16Z</time>
      </trkpt>
      <trkpt lat="39.208300" lon="-6.123467">
        <ele>1181.0</ele>
        <time>2019-05-04T11:28:17Z</time>
      </trkpt>
      <trkpt lat="39.208283" lon="-6.123583">
        <ele>1182.0</ele>
        <time>2019-05-04T11:28:18Z</time>
      </trkpt>
      <trkpt lat="39.208233" lon="-6.123683">
        <ele>1184.0</ele>
        <time>2019-05-04T11:28:19Z</time>
      </trkpt>
      <trkpt lat="39.208167" lon="-6.123783">
        <ele>1185.0</ele>
        <time>2019-05-04T11:28:20Z</time>
      </trkpt>
      <trkpt lat="39.208100" lon="-6.123833">
        <ele>1187.0</ele>
        <time>2019-05-04T11:28:21Z</time>
      </trkpt>
      <trkpt lat="39.208017" lon="-6.123867">
        <ele>1189.0</ele>
        <time>2019-05-04T11:28:22Z</time>
      </trkpt>
      <trkpt lat="39.207933" lon="-6.123850">
        <ele>1191.0</ele>
        <time>2019-05-04T11:28:23Z</time>
      </trkpt>
      <trkpt lat="39.207867" lon="-6.123817">
        <ele>1194.0</ele>
        <time>2019-05-04T11:28:24Z</time>
      </trkpt>
      <trkpt lat="39.207800" lon="-6.123800">
        <ele>1197.0</ele>
        <time>2019-05-04T11:28:25Z</time>
      </trkpt>
      <trkpt lat="39.207767" lon="-6.123783">
        <ele>1201.0</ele>
        <time>2019-05-04T11:28:26Z</time>
      </trkpt>
      <trkpt lat="39.207700" lon="-6.123750">
        <ele>1203.0</ele>
        <time>2019-05-04T11:28:27Z</time>
      </trkpt>
      <trkpt lat="39.207650" lon="-6.123717">
        <ele>1205.0</ele>
        <time>2019-05-04T11:28:28Z</time>
      </trkpt>
      <trkpt lat="39.207583" lon="-6.123667">
        <ele>1207.0</ele>
        <time>2019-05-04T11:28:29Z</time>
      </trkpt>
      <trkpt lat="39.207517" lon="-6.123617">
        <ele>1210.0</ele>
        <time>2019-05-04T11:28:30Z</time>
      </trkpt>
      <trkpt lat="39.207467" lon="-6.123600">
        <ele>1212.0</ele>
        <time>2019-05-04T11:28:31Z</time>
      </trkpt>
      <trkpt lat="39.207400" lon="-6.123550">
        <ele>1214.0</ele>
        <time>2019-05-04T11:28:32Z</time>
      </trkpt>
      <trkpt lat="39.207333" lon="-6.123500">
        <ele>1215.0</ele>
        <time>2019-05-04T11:28:33Z</time>
      </trkpt>
      <trkpt lat="39.207267" lon="-6.123417">
        <ele>1216.0</ele>
        <time>2019-05-04T11:28:34Z</time>
      </trkpt>
      <trkpt lat="39.207233" lon="-6.123333">
        <ele>1218.0</ele>
        <time>2019-05-04T11:28:35Z</time>
      </trkpt>
      <trkpt lat="39.207233" lon="-6.123233">
        <ele>1221.0</ele>
        <time>2019-05-04T11:28:36Z</time>
      </trkpt>
      <trkpt lat="39.207300" lon="-6.123167">
        <ele>1223.0</ele>
        <time>2019-05-04T11:28:37Z</time>
      </trkpt>
      <trkpt lat="39.207383" lon="-6.123150">
        <ele>1223.0</ele>
        <time>2019-05-04T11:28:38Z</time>
      </trkpt>
      <trkpt lat="39.207483" lon="-6.123200">
        <ele>1223.0</ele>
        <time>2019-05-04T11:28:39Z</time>
      </trkpt>
      <trkpt lat="39.207533" lon="-6.123317">
        <ele>1225.0</ele>
        <time>2019-05-04T11:28:40Z</time>
      </trkpt>
      <trkpt lat="39.207533" lon="-6.123450">
        <ele>1227.0</ele>
        <time>2019-05-04T11:28:41Z</time>
      </trkpt>
      <trkpt lat="39.207483" lon="-6.123550">
        <ele>1230.0</ele>
        <time>2019-05-04T11:28:42Z</time>
      </trkpt>
      <trkpt lat="39.207417" lon="-6.123633">
        <ele>1233.0</ele>
        <time>2019-05-04T11:28:43Z</time>
      </trkpt>
      <trkpt lat="39.207350" lon="-6.123683">
        <ele>1237.0</ele>
        <time>2019-05-04T11:28:44Z</time>
      </trkpt>
      <trkpt lat="39.207300" lon="-6.123717">
        <ele>1240.0</ele>
        <time>2019-05-04T11:28:45Z</time>
      </trkpt>
      <trkpt lat="39.207233" lon="-6.123733">
        <ele>1243.0</ele>
        <time>2019-05-04T11:28:46Z</time>
      </trkpt>
      <trkpt lat="39.207150" lon="-6.123733">
        <ele>1245.0</ele>
        <time>2019-05-04T11:28:47Z</time>
      </trkpt>
      <trkpt lat="39.207083" lon="-6.123683">
        <ele>1246.0</ele>
        <time>2019-05-04T11:28:48Z</time>
      </trkpt>
      <trkpt lat="39.207033" lon="-6.123600">
        <ele>1248.0</ele>
        <time>2019-05-04T11:28:49Z</time>
      </trkpt>
      <trkpt lat="39.207017" lon="-6.123517">
        <ele>1250.0</ele>
        <time>2019-05-04T11:28:50Z</time>
      </trkpt>
      <trkpt lat="39.207017" lon="-6.123417">
        <ele>1252.0</ele>
        <time>2019-05-04T11:28:51Z</time>
      </trkpt>
      <trkpt lat="39.207033" lon="-6.123333">
        <ele>1256.0</ele>
        <time>2019-05-04T11:28:52Z</time>
      </trkpt>
      <trkpt lat="39.207083" lon="-6.123267">
        <ele>1260.0</ele>
        <time>2019-05-04T11:28:53Z</time>
      </trkpt>
      <trkpt lat="39.207167" lon="-6.123217">
        <ele>1263.0</ele>
        <time>2019-05-04T11:28:54Z</time>
      </trkpt>
      <trkpt lat="39.207250" lon="-6.123217">
        <ele>1266.0</ele>
        <time>2019-05-04T11:28:55Z</time>
      </trkpt>
      <trkpt lat="39.207333" lon="-6.123233">
        <ele>1268.0</ele>
        <time>2019-05-04T11:28:56Z</time>
      </trkpt>
      <trkpt lat="39.207383" lon="-6.123300">
        <ele>1270.0</ele>
        <time>2019-05-04T11:28:57Z</time>
      </trkpt>
      <trkpt lat="39.207417" lon="-6.123400">
        <ele>1272.0</ele>
        <time>2019-05-04T11:28:58Z</time>
      </trkpt>
      <trkpt lat="39.207417" lon="-6.123517">
        <ele>1274.0</ele>
        <time>2019-05-04T11:28:59Z</time>
      </trkpt>
      <trkpt lat="39.207367" lon="-6.123617">
        <ele>1276.0</ele>
        <time>2019-05-04T11:29:00Z</time>
      </trkpt>
      <trkpt lat="39.207317" lon="-6.123700">
        <ele>1280.0</ele>
        <time>2019-05-04T11:29:01Z</time>
      </trkpt>
      <trkpt lat="39.207267" lon="-6.123750">
        <ele>1283.0</ele>
        <time>2019-05-04T11:29:02Z</time>
      </trkpt>
      <trkpt lat="39.207217" lon="-6.123817">
        <ele>1286.0</ele>
        <time>2019-05-04T11:29:03Z</time>
      </trkpt>
      <trkpt lat="39.207150" lon="-6.123867">
        <ele>1288.0</ele>
        <time>2019-05-04T11:29:04Z</time>
      </trkpt>
      <trkpt lat="39.207083" lon="-6.123900">
        <ele>1290.0</ele>
        <time>2019-05-04T11:29:05Z</time>
      </trkpt>
      <trkpt lat="39.207000" lon="-6.123900">
        <ele>1292.0</ele>
        <time>2019-05-04T11:29:06Z</time>
      </trkpt>
      <trkpt lat="39.206917" lon="-6.123850">
        <ele>1294.0</ele>
        <time>2019-05-04T11:29:07Z</time>
      </trkpt>
      <trkpt lat="39.206867" lon="-6.123783">
        <ele>1298.0</ele>
        <time>2019-05-04T11:29:08Z</time>
      </trkpt>
      <trkpt lat="39.206817" lon="-6.123700">
        <ele>1303.0</ele>
        <time>2019-05-04T11:29:09Z</time>
      </trkpt>
      <trkpt lat="39.206800" lon="-6.123633">
        <ele>1308.0</ele>
        <time>2019-05-04T11:29:10Z</time>
      </trkpt>
      <trkpt lat="39.206783" lon="-6.123567">
        <ele>1313.0</ele>
        <time>2019-05-04T11:29:11Z</time>
      </trkpt>
      <trkpt lat="39.206767" lon="-6.123483">
        <ele>1316.0</ele>
        <time>2019-05-04T11:29:12Z</time>
      </trkpt>
      <trkpt lat="39.206767" lon="-6.123400">
        <ele>1319.0</ele>
        <time>2019-05-04T11:29:13Z</time>
      </trkpt>
      <trkpt lat="39.206800" lon="-6.123317">
        <ele>1321.0</ele>
        <time>2019-05-04T11:29:14Z</time>
      </trkpt>
      <trkpt lat="39.206850" lon="-6.123267">
        <ele>1323.0</ele>
        <time>2019-05-04T11:29:15Z</time>
      </trkpt>
      <trkpt lat="39.206917" lon="-6.123233">
        <ele>1325.0</ele>
        <time>2019-05-04T11:29:16Z</time>
      </trkpt>
      <trkpt lat="39.207000" lon="-6.123250">
        <ele>1327.0</ele>
        <time>2019-05-04T11:29:17Z</time>
      </trkpt>
      <trkpt lat="39.207050" lon="-6.123300">
        <ele>1329.0</ele>
        <time>2019-05-04T11:29:18Z</time>
      </trkpt>
      <trkpt lat="39.207100" lon="-6.123383">
        <ele>1331.0</ele>
        <time>2019-05-04T11:29:19Z</time>
      </trkpt>
      <trkpt lat="39.207133" lon="-6.123500">
        <ele>1334.0</ele>
        <time>2019-05-04T11:29:20Z</time>
      </trkpt>
      <trkpt lat="39.207133" lon="-6.123617">
        <ele>1337.0</ele>
        <time>2019-05-04T11:29:21Z</time>
      </trkpt>
      <trkpt lat="39.207100" lon="-6.123717">
        <ele>1340.0</ele>
        <time>2019-05-04T11:29:22Z</time>
      </trkpt>
      <trkpt lat="39.207033" lon="-6.123817">
        <ele>1343.0</ele>
        <time>2019-05-04T11:29:23Z</time>
      </trkpt>
      <trkpt lat="39.206967" lon="-6.123867">
        <ele>1347.0</ele>
        <time>2019-05-04T11:29:24Z</time>
      </trkpt>
      <trkpt lat="39.206883" lon="-6.123917">
        <ele>1352.0</ele>
        <time>2019-05-04T11:29:25Z</time>
      </trkpt>
      <trkpt lat="39.206817" lon="-6.123933">
        <ele>1356.0</ele>
        <time>2019-05-04T11:29:26Z</time>
      </trkpt>
      <trkpt lat="39.206733" lon="-6.123950">
        <ele>1360.0</ele>
        <time>2019-05-04T11:29:27Z</time>
      </trkpt>
      <trkpt lat="39.206667" lon="-6.123917">
        <ele>1363.0</ele>
        <time>2019-05-04T11:29:28Z</time>
      </trkpt>
      <trkpt lat="39.206617" lon="-6.123867">
        <ele>1366.0</ele>
        <time>2019-05-04T11:29:29Z</time>
      </trkpt>
      <trkpt lat="39.206583" lon="-6.123767">
        <ele>1368.0</ele>
        <time>2019-05-04T11:29:30Z</time>
      </trkpt>
      <trkpt lat="39.206583" lon="-6.123683">
        <ele>1370.0</ele>
        <time>2019-05-04T11:29:31Z</time>
      </trkpt>
      <trkpt lat="39.206617" lon="-6.123600">
        <ele>1373.0</ele>
        <time>2019-05-04T11:29:32Z</time>
      </trkpt>
      <trkpt lat="39.206667" lon="-6.123550">
        <ele>1377.0</ele>
        <time>2019-05-04T11:29:33Z</time>
      </trkpt>
      <trkpt lat="39.206733" lon="-6.123533">
        <ele>1380.0</ele>
        <time>2019-05-04T11:29:34Z</time>
      </trkpt>
      <trkpt lat="39.206800" lon="-6.123550">
        <ele>1383.0</ele>
        <time>2019-05-04T11:29:35Z</time>
      </trkpt>
      <trkpt lat="39.206867" lon="-6.123583">
        <ele>1385.0</ele>
        <time>2019-05-04T11:29:36Z</time>
      </trkpt>
      <trkpt lat="39.206917" lon="-6.123650">
        <ele>1387.0</ele>
        <time>2019-05-04T11:29:37Z</time>
      </trkpt>
      <trkpt lat="39.206983" lon="-6.123750">
        <ele>1389.0</ele>
        <time>2019-05-04T11:29:38Z</time>
      </trkpt>
      <trkpt lat="39.207000" lon="-6.123883">
        <ele>1392.0</ele>
        <time>2019-05-04T11:29:39Z</time>
      </trkpt>
      <trkpt lat="39.207000" lon="-6.124033">
        <ele>1395.0</ele>
        <time>2019-05-04T11:29:40Z</time>
      </trkpt>
      <trkpt lat="39.206950" lon="-6.124133">
        <ele>1400.0</ele>
        <time>2019-05-04T11:29:41Z</time>
      </trkpt>
      <trkpt lat="39.206900" lon="-6.124200">
        <ele>1407.0</ele>
        <time>2019-05-04T11:29:42Z</time>
      </trkpt>
      <trkpt lat="39.206867" lon="-6.124267">
        <ele>1412.0</ele>
        <time>2019-05-04T11:29:43Z</time>
      </trkpt>
      <trkpt lat="39.206817" lon="-6.124333">
        <ele>1414.0</ele>
        <time>2019-05-04T11:29:44Z</time>
      </trkpt>
      <trkpt lat="39.206750" lon="-6.124400">
        <ele>1416.0</ele>
        <time>2019-05-04T11:29:45Z</time>
      </trkpt>
      <trkpt lat="39.206667" lon="-6.124450">
        <ele>1418.0</ele>
        <time>2019-05-04T11:29:46Z</time>
      </trkpt>
      <trkpt lat="39.206600" lon="-6.124467">
        <ele>1420.0</ele>
        <time>2019-05-04T11:29:47Z</time>
      </trkpt>
      <trkpt lat="39.206533" lon="-6.124450">
        <ele>1422.0</ele>
        <time>2019-05-04T11:29:48Z</time>
      </trkpt>
      <trkpt lat="39.206467" lon="-6.124400">
        <ele>1424.0</ele>
        <time>2019-05-04T11:29:49Z</time>
      </trkpt>
      <trkpt lat="39.206433" lon="-6.124317">
        <ele>1426.0</ele>
        <time>2019-05-04T11:29:50Z</time>
      </trkpt>
      <trkpt lat="39.206417" lon="-6.124217">
        <ele>1428.0</ele>
        <time>2019-05-04T11:29:51Z</time>
      </trkpt>
      <trkpt lat="39.206417" lon="-6.124133">
        <ele>1432.0</ele>
        <time>2019-05-04T11:29:52Z</time>
      </trkpt>
      <trkpt lat="39.206450" lon="-6.124083">
        <ele>1436.0</ele>
        <time>2019-05-04T11:29:53Z</time>
      </trkpt>
      <trkpt lat="39.206500" lon="-6.124050">
        <ele>1440.0</ele>
        <time>2019-05-04T11:29:54Z</time>
      </trkpt>
      <trkpt lat="39.206550" lon="-6.124050">
        <ele>1444.0</ele>
        <time>2019-05-04T11:29:55Z</time>
      </trkpt>
      <trkpt lat="39.206617" lon="-6.124050">
        <ele>1447.0</ele>
        <time>2019-05-04T11:29:56Z</time>
      </trkpt>
      <trkpt lat="39.206667" lon="-6.124067">
        <ele>1451.0</ele>
        <time>2019-05-04T11:29:57Z</time>
      </trkpt>
      <trkpt lat="39.206733" lon="-6.124117">
        <ele>1454.0</ele>
        <time>2019-05-04T11:29:58Z</time>
      </trkpt>
      <trkpt lat="39.206783" lon="-6.124217">
        <ele>1458.0</ele>
        <time>2019-05-04T11:29:59Z</time>
      </trkpt>
      <trkpt lat="39.206783" lon="-6.124333">
        <ele>1462.0</ele>
        <time>2019-05-04T11:30:00Z</time>
      </trkpt>
      <trkpt lat="39.206750" lon="-6.124433">
        <ele>1466.0</ele>
        <time>2019-05-04T11:30:01Z</time>
      </trkpt>
      <trkpt lat="39.206683" lon="-6.124517">
        <ele>1469.0</ele>
        <time>2019-05-04T11:30:02Z</time>
      </trkpt>
      <trkpt lat="39.206600" lon="-6.124567">
        <ele>1474.0</ele>
        <time>2019-05-04T11:30:03Z</time>
      </trkpt>
      <trkpt lat="39.206550" lon="-6.124583">
        <ele>1478.0</ele>
        <time>2019-05-04T11:30:04Z</time>
      </trkpt>
      <trkpt lat="39.206483" lon="-6.124600">
        <ele>1482.0</ele>
        <time>2019-05-04T11:30:05Z</time>
      </trkpt>
      <trkpt lat="39.206417" lon="-6.124600">
        <ele>1485.0</ele>
        <time>2019-05-04T11:30:06Z</time>
      </trkpt>
      <trkpt lat="39.206333" lon="-6.124600">
        <ele>1488.0</ele>
        <time>2019-05-04T11:30:07Z</time>
      </trkpt>
      <trkpt lat="39.206250" lon="-6.124567">
        <ele>1490.0</ele>
        <time>2019-05-04T11:30:08Z</time>
      </trkpt>
      <trkpt lat="39.206183" lon="-6.124483">
        <ele>1493.0</ele>
        <time>2019-05-04T11:30:09Z</time>
      </trkpt>
      <trkpt lat="39.206150" lon="-6.124400">
        <ele>1497.0</ele>
        <time>2019-05-04T11:30:10Z</time>
      </trkpt>
      <trkpt lat="39.206133" lon="-6.124317">
        <ele>1501.0</ele>
        <time>2019-05-04T11:30:11Z</time>
      </trkpt>
      <trkpt lat="39.206167" lon="-6.124233">
        <ele>1504.0</ele>
        <time>2019-05-04T11:30:12Z</time>
      </trkpt>
      <trkpt lat="39.206217" lon="-6.124183">
        <ele>1506.0</ele>
        <time>2019-05-04T11:30:13Z</time>
      </trkpt>
      <trkpt lat="39.206267" lon="-6.124150">
        <ele>1509.0</ele>
        <time>2019-05-04T11:30:14Z</time>
      </trkpt>
      <trkpt lat="39.206350" lon="-6.124150">
        <ele>1511.0</ele>
        <time>2019-05-04T11:30:15Z</time>
      </trkpt>
      <trkpt lat="39.206417" lon="-6.124200">
        <ele>1513.0</ele>
        <time>2019-05-04T11:30:16Z</time>
      </trkpt>
      <trkpt lat="39.206483" lon="-6.124283">
        <ele>1515.0</ele>
        <time>2019-05-04T11:30:17Z</time>
      </trkpt>
      <trkpt lat="39.206500" lon="-6.124400">
        <ele>1517.0</ele>
        <time>2019-05-04T11:30:18Z</time>
      </trkpt>
      <trkpt lat="39.206500" lon="-6.124533">
        <ele>1520.0</ele>
        <time>2019-05-04T11:30:19Z</time>
      </trkpt>
      <trkpt lat="39.206433" lon="-6.124650">
        <ele>1524.0</ele>
        <time>2019-05-04T11:30:20Z</time>
      </trkpt>
      <trkpt lat="39.206350" lon="-6.124733">
        <ele>1527.0</ele>
        <time>2019-05-04T11:30:21Z</time>
      </trkpt>
      <trkpt lat="39.206250" lon="-6.124783">
        <ele>1531.0</ele>
        <time>2019-05-04T11:30:22Z</time>
      </trkpt>
      <trkpt lat="39.206150" lon="-6.124800">
        <ele>1535.0</ele>
        <time>2019-05-04T11:30:23Z</time>
      </trkpt>
      <trkpt lat="39.206067" lon="-6.124800">
        <ele>1539.0</ele>
        <time>2019-05-04T11:30:24Z</time>
      </trkpt>
      <trkpt lat="39.205983" lon="-6.124783">
        <ele>1543.0</ele>
        <time>2019-05-04T11:30:25Z</time>
      </trkpt>
      <trkpt lat="39.205917" lon="-6.124750">
        <ele>1547.0</ele>
        <time>2019-05-04T11:30:26Z</time>
      </trkpt>
      <trkpt lat="39.205833" lon="-6.124700">
        <ele>1551.0</ele>
        <time>2019-05-04T11:30:27Z</time>
      </trkpt>
      <trkpt lat="39.205767" lon="-6.124650">
        <ele>1555.0</ele>
        <time>2019-05-04T11:30:28Z</time>
      </trkpt>
      <trkpt lat="39.205683" lon="-6.124583">
        <ele>1556.0</ele>
        <time>2019-05-04T11:30:29Z</time>
      </trkpt>
      <trkpt lat="39.205617" lon="-6.124500">
        <ele>1558.0</ele>
        <time>2019-05-04T11:30:30Z</time>
      </trkpt>
      <trkpt lat="39.205583" lon="-6.124400">
        <ele>1560.0</ele>
        <time>2019-05-04T11:30:31Z</time>
      </trkpt>
      <trkpt lat="39.205583" lon="-6.124300">
        <ele>1562.0</ele>
        <time>2019-05-04T11:30:32Z</time>
      </trkpt>
      <trkpt lat="39.205600" lon="-6.124200">
        <ele>1564.0</ele>
        <time>2019-05-04T11:30:33Z</time>
      </trkpt>
      <trkpt lat="39.205633" lon="-6.124133">
        <ele>1566.0</ele>
        <time>2019-05-04T11:30:34Z</time>
      </trkpt>
      <trkpt lat="39.205700" lon="-6.124117">
        <ele>1568.0</ele>
        <time>2019-05-04T11:30:35Z</time>
      </trkpt>
      <trkpt lat="39.205767" lon="-6.124117">
        <ele>1569.0</ele>
        <time>2019-05-04T11:30:36Z</time>
      </trkpt>
      <trkpt lat="39.205817" lon="-6.124167">
        <ele>1571.0</ele>
        <time>2019-05-04T11:30:37Z</time>
      </trkpt>
      <trkpt lat="39.205867" lon="-6.124250">
        <ele>1573.0</ele>
        <time>2019-05-04T11:30:38Z</time>
      </trkpt>
      <trkpt lat="39.205883" lon="-6.124367">
        <ele>1574.0</ele>
        <time>2019-05-04T11:30:39Z</time>
      </trkpt>
      <trkpt lat="39.205867" lon="-6.124500">
        <ele>1576.0</ele>
        <time>2019-05-04T11:30:40Z</time>
      </trkpt>
      <trkpt lat="39.205817" lon="-6.124617">
        <ele>1577.0</ele>
        <time>2019-05-04T11:30:41Z</time>
      </trkpt>
      <trkpt lat="39.205750" lon="-6.124700">
        <ele>1579.0</ele>
        <time>2019-05-04T11:30:42Z</time>
      </trkpt>
      <trkpt lat="39.205667" lon="-6.124767">
        <ele>1581.0</ele>
        <time>2019-05-04T11:30:43Z</time>
      </trkpt>
      <trkpt lat="39.205567" lon="-6.124800">
        <ele>1584.0</ele>
        <time>2019-05-04T11:30:44Z</time>
      </trkpt>
      <trkpt lat="39.205467" lon="-6.124817">
        <ele>1587.0</ele>
        <time>2019-05-04T11:30:45Z</time>
      </trkpt>
      <trkpt lat="39.205383" lon="-6.124833">
        <ele>1591.0</ele>
        <time>2019-05-04T11:30:46Z</time>
      </trkpt>
      <trkpt lat="39.205317" lon="-6.124833">
        <ele>1594.0</ele>
        <time>2019-05-04T11:30:47Z</time>
      </trkpt>
      <trkpt lat="39.205233" lon="-6.124817">
        <ele>1596.0</ele>
        <time>2019-05-04T11:30:48Z</time>
      </trkpt>
      <trkpt lat="39.205150" lon="-6.124783">
        <ele>1597.0</ele>
        <time>2019-05-04T11:30:49Z</time>
      </trkpt>
      <trkpt lat="39.205083" lon="-6.124733">
        <ele>1599.0</ele>
        <time>2019-05-04T11:30:50Z</time>
      </trkpt>
      <trkpt lat="39.205017" lon="-6.124650">
        <ele>1599.0</ele>
        <time>2019-05-04T11:30:51Z</time>
      </trkpt>
      <trkpt lat="39.204983" lon="-6.124550">
        <ele>1600.0</ele>
        <time>2019-05-04T11:30:52Z</time>
      </trkpt>
      <trkpt lat="39.204950" lon="-6.124433">
        <ele>1600.0</ele>
        <time>2019-05-04T11:30:53Z</time>
      </trkpt>
      <trkpt lat="39.204967" lon="-6.124317">
        <ele>1600.0</ele>
        <time>2019-05-04T11:30:54Z</time>
      </trkpt>
      <trkpt lat="39.205000" lon="-6.124233">
        <ele>1602.0</ele>
        <time>2019-05-04T11:30:55Z</time>
      </trkpt>
      <trkpt lat="39.205050" lon="-6.124167">
        <ele>1604.0</ele>
        <time>2019-05-04T11:30:56Z</time>
      </trkpt>
      <trkpt lat="39.205100" lon="-6.124117">
        <ele>1606.0</ele>
        <time>2019-05-04T11:30:57Z</time>
      </trkpt>
      <trkpt lat="39.205150" lon="-6.124100">
        <ele>1607.0</ele>
        <time>2019-05-04T11:30:58Z</time>
      </trkpt>
      <trkpt lat="39.205217" lon="-6.124100">
        <ele>1609.0</ele>
        <time>2019-05-04T11:30:59Z</time>
      </trkpt>
      <trkpt lat="39.205267" lon="-6.124133">
        <ele>1610.0</ele>
        <time>2019-05-04T11:31:00Z</time>
      </trkpt>
      <trkpt lat="39.205333" lon="-6.124183">
        <ele>1611.0</ele>
        <time>2019-05-04T11:31:01Z</time>
      </trkpt>
      <trkpt lat="39.205383" lon="-6.124250">
        <ele>1613.0</ele>
        <time>2019-05-04T11:31:02Z</time>
      </trkpt>
      <trkpt lat="39.205433" lon="-6.124333">
        <ele>1614.0</ele>
        <time>2019-05-04T11:31:03Z</time>
      </trkpt>
      <trkpt lat="39.205450" lon="-6.124450">
        <ele>1615.0</ele>
        <time>2019-05-04T11:31:04Z</time>
      </trkpt>
      <trkpt lat="39.205433" lon="-6.124567">
        <ele>1616.0</ele>
        <time>2019-05-04T11:31:05Z</time>
      </trkpt>
      <trkpt lat="39.205400" lon="-6.124700">
        <ele>1617.0</ele>
        <time>2019-05-04T11:31:06Z</time>
      </trkpt>
      <trkpt lat="39.205350" lon="-6.124833">
        <ele>1618.0</ele>
        <time>2019-05-04T11:31:07Z</time>
      </trkpt>
      <trkpt lat="39.205300" lon="-6.124933">
        <ele>1620.0</ele>
        <time>2019-05-04T11:31:08Z</time>
      </trkpt>
      <trkpt lat="39.205233" lon="-6.125033">
        <ele>1622.0</ele>
        <time>2019-05-04T11:31:09Z</time>
      </trkpt>
      <trkpt lat="39.205150" lon="-6.125117">
        <ele>1624.0</ele>
        <time>2019-05-04T11:31:10Z</time>
      </trkpt>
      <trkpt lat="39.205067" lon="-6.125183">
        <ele>1626.0</ele>
        <time>2019-05-04T11:31:11Z</time>
      </trkpt>
      <trkpt lat="39.204967" lon="-6.125233">
        <ele>1628.0</ele>
        <time>2019-05-04T11:31:12Z</time>
      </trkpt>
      <trkpt lat="39.204867" lon="-6.125250">
        <ele>1630.0</ele>
        <time>2019-05-04T11:31:13Z</time>
      </trkpt>
      <trkpt lat="39.204767" lon="-6.125250">
        <ele>1632.0</ele>
        <time>2019-05-04T11:31:14Z</time>
      </trkpt>
      <trkpt lat="39.204683" lon="-6.125233">
        <ele>1634.0</ele>
        <time>2019-05-04T11:31:15Z</time>
      </trkpt>
      <trkpt lat="39.204583" lon="-6.125183">
        <ele>1636.0</ele>
        <time>2019-05-04T11:31:16Z</time>
      </trkpt>
      <trkpt lat="39.204500" lon="-6.125117">
        <ele>1638.0</ele>
        <time>2019-05-04T11:31:17Z</time>
      </trkpt>
      <trkpt lat="39.204433" lon="-6.125033">
        <ele>1639.0</ele>
        <time>2019-05-04T11:31:18Z</time>
      </trkpt>
      <trkpt lat="39.204417" lon="-6.124933">
        <ele>1641.0</ele>
        <time>2019-05-04T11:31:19Z</time>
      </trkpt>
      <trkpt lat="39.204400" lon="-6.124833">
        <ele>1643.0</ele>
        <time>2019-05-04T11:31:20Z</time>
      </trkpt>
      <trkpt lat="39.204433" lon="-6.124750">
        <ele>1644.0</ele>
        <time>2019-05-04T11:31:21Z</time>
      </trkpt>
      <trkpt lat="39.204467" lon="-6.124700">
        <ele>1645.0</ele>
        <time>2019-05-04T11:31:22Z</time>
      </trkpt>
      <trkpt lat="39.204517" lon="-6.124650">
        <ele>1645.0</ele>
        <time>2019-05-04T11:31:23Z</time>
      </trkpt>
      <trkpt lat="39.204583" lon="-6.124633">
        <ele>1644.0</ele>
        <time>2019-05-04T11:31:24Z</time>
      </trkpt>
      <trkpt lat="39.204667" lon="-6.124650">
        <ele>1644.0</ele>
        <time>2019-05-04T11:31:25Z</time>
      </trkpt>
      <trkpt lat="39.204733" lon="-6.124700">
        <ele>1645.0</ele>
        <time>2019-05-04T11:31:26Z</time>
      </trkpt>
      <trkpt lat="39.204783" lon="-6.124783">
        <ele>1647.0</ele>
        <time>2019-05-04T11:31:27Z</time>
      </trkpt>
      <trkpt lat="39.204800" lon="-6.124883">
        <ele>1648.0</ele>
        <time>2019-05-04T11:31:28Z</time>
      </trkpt>
      <trkpt lat="39.204817" lon="-6.124967">
        <ele>1650.0</ele>
        <time>2019-05-04T11:31:29Z</time>
      </trkpt>
      <trkpt lat="39.204833" lon="-6.125083">
        <ele>1651.0</ele>
        <time>2019-05-04T11:31:30Z</time>
      </trkpt>
      <trkpt lat="39.204833" lon="-6.125183">
        <ele>1652.0</ele>
        <time>2019-05-04T11:31:31Z</time>
      </trkpt>
      <trkpt lat="39.204817" lon="-6.125300">
        <ele>1653.0</ele>
        <time>2019-05-04T11:31:32Z</time>
      </trkpt>
      <trkpt lat="39.204767" lon="-6.125433">
        <ele>1654.0</ele>
        <time>2019-05-04T11:31:33Z</time>
      </trkpt>
      <trkpt lat="39.204717" lon="-6.125550">
        <ele>1655.0</ele>
        <time>2019-05-04T11:31:34Z</time>
      </trkpt>
      <trkpt lat="39.204667" lon="-6.125650">
        <ele>1657.0</ele>
        <time>2019-05-04T11:31:35Z</time>
      </trkpt>
      <trkpt lat="39.204600" lon="-6.125717">
        <ele>1660.0</ele>
        <time>2019-05-04T11:31:36Z</time>
      </trkpt>
      <trkpt lat="39.204517" lon="-6.125750">
        <ele>1663.0</ele>
        <time>2019-05-04T11:31:37Z</time>
      </trkpt>
      <trkpt lat="39.204450" lon="-6.125783">
        <ele>1664.0</ele>
        <time>2019-05-04T11:31:38Z</time>
      </trkpt>
      <trkpt lat="39.204383" lon="-6.125817">
        <ele>1665.0</ele>
        <time>2019-05-04T11:31:39Z</time>
      </trkpt>
      <trkpt lat="39.204283" lon="-6.125833">
        <ele>1666.0</ele>
        <time>2019-05-04T11:31:40Z</time>
      </trkpt>
      <trkpt lat="39.204200" lon="-6.125833">
        <ele>1666.0</ele>
        <time>2019-05-04T11:31:41Z</time>
      </trkpt>
      <trkpt lat="39.204100" lon="-6.125817">
        <ele>1666.0</ele>
        <time>2019-05-04T11:31:42Z</time>
      </trkpt>
      <trkpt lat="39.204033" lon="-6.125783">
        <ele>1666.0</ele>
        <time>2019-05-04T11:31:43Z</time>
      </trkpt>
      <trkpt lat="39.203717" lon="-6.125333">
        <ele>0.0</ele>
        <time>2019-05-04T11:31:48Z</time>
      </trkpt>
      <trkpt lat="39.203667" lon="-6.125200">
        <ele>1666.0</ele>
        <time>2019-05-04T11:31:49Z</time>
      </trkpt>
      <trkpt lat="39.203667" lon="-6.125083">
        <ele>1667.0</ele>
        <time>2019-05-04T11:31:50Z</time>
      </trkpt>
      <trkpt lat="39.203667" lon="-6.124967">
        <ele>1669.0</ele>
        <time>2019-05-04T11:31:51Z</time>
      </trkpt>
      <trkpt lat="39.203683" lon="-6.124867">
        <ele>1670.0</ele>
        <time>2019-05-04T11:31:52Z</time>
      </trkpt>
      <trkpt lat="39.203717" lon="-6.124783">
        <ele>1672.0</ele>
        <time>2019-05-04T11:31:53Z</time>
      </trkpt>
      <trkpt lat="39.203767" lon="-6.124733">
        <ele>1674.0</ele>
        <time>2019-05-04T11:31:54Z</time>
      </trkpt>
      <trkpt lat="39.203800" lon="-6.124683">
        <ele>1676.0</ele>
        <time>2019-05-04T11:31:55Z</time>
      </trkpt>
      <trkpt lat="39.203850" lon="-6.124650">
        <ele>1677.0</ele>
        <time>2019-05-04T11:31:56Z</time>
      </trkpt>
      <trkpt lat="39.203900" lon="-6.124617">
        <ele>1678.0</ele>
        <time>2019-05-04T11:31:57Z</time>
      </trkpt>
      <trkpt lat="39.203967" lon="-6.124600">
        <ele>1679.0</ele>
        <time>2019-05-04T11:31:58Z</time>
      </trkpt>
      <trkpt lat="39.204017" lon="-6.124633">
        <ele>1680.0</ele>
        <time>2019-05-04T11:31:59Z</time>
      </trkpt>
      <trkpt lat="39.204067" lon="-6.124683">
        <ele>1681.0</ele>
        <time>2019-05-04T11:32:00Z</time>
      </trkpt>
      <trkpt lat="39.204100" lon="-6.124783">
        <ele>1683.0</ele>
        <time>2019-05-04T11:32:01Z</time>
      </trkpt>
      <trkpt lat="39.204117" lon="-6.124867">
        <ele>1684.0</ele>
        <time>2019-05-04T11:32:02Z</time>
      </trkpt>
      <trkpt lat="39.204100" lon="-6.124967">
        <ele>1685.0</ele>
        <time>2019-05-04T11:32:03Z</time>
      </trkpt>
      <trkpt lat="39.204067" lon="-6.125083">
        <ele>1686.0</ele>
        <time>2019-05-04T11:32:04Z</time>
      </trkpt>
      <trkpt lat="39.204017" lon="-6.125183">
        <ele>1687.0</ele>
        <time>2019-05-04T11:32:05Z</time>
      </trkpt>
      <trkpt lat="39.203933" lon="-6.125267">
        <ele>1687.0</ele>
        <time>2019-05-04T11:32:06Z</time>
      </trkpt>
      <trkpt lat="39.203833" lon="-6.125333">
        <ele>1688.0</ele>
        <time>2019-05-04T11:32:07Z</time>
      </trkpt>
      <trkpt lat="39.203750" lon="-6.125350">
        <ele>1689.0</ele>
        <time>2019-05-04T11:32:08Z</time>
      </trkpt>
      <trkpt lat="39.203650" lon="-6.125333">
        <ele>1689.0</ele>
        <time>2019-05-04T11:32:09Z</time>
      </trkpt>
      <trkpt lat="39.203550" lon="-6.125300">
        <ele>1690.0</ele>
        <time>2019-05-04T11:32:10Z</time>
      </trkpt>
      <trkpt lat="39.203467" lon="-6.125250">
        <ele>1690.0</ele>
        <time>2019-05-04T11:32:11Z</time>
      </trkpt>
      <trkpt lat="39.203400" lon="-6.125183">
        <ele>1691.0</ele>
        <time>2019-05-04T11:32:12Z</time>
      </trkpt>
      <trkpt lat="39.203333" lon="-6.125100">
        <ele>1691.0</ele>
        <time>2019-05-04T11:32:13Z</time>
      </trkpt>
      <trkpt lat="39.203283" lon="-6.125000">
        <ele>1691.0</ele>
        <time>2019-05-04T11:32:14Z</time>
      </trkpt>
      <trkpt lat="39.203267" lon="-6.124883">
        <ele>1691.0</ele>
        <time>2019-05-04T11:32:15Z</time>
      </trkpt>
      <trkpt lat="39.203250" lon="-6.124783">
        <ele>1691.0</ele>
        <time>2019-05-04T11:32:16Z</time>
      </trkpt>
      <trkpt lat="39.203233" lon="-6.124683">
        <ele>1691.0</ele>
        <time>2019-05-04T11:32:17Z</time>
      </trkpt>
      <trkpt lat="39.203250" lon="-6.124600">
        <ele>1692.0</ele>
        <time>2019-05-04T11:32:18Z</time>
      </trkpt>
      <trkpt lat="39.203267" lon="-6.124500">
        <ele>1692.0</ele>
        <time>2019-05-04T11:32:19Z</time>
      </trkpt>
      <trkpt lat="39.203283" lon="-6.124400">
        <ele>1692.0</ele>
        <time>2019-05-04T11:32:20Z</time>
      </trkpt>
      <trkpt lat="39.203300" lon="-6.124300">
        <ele>1692.0</ele>
        <time>2019-05-04T11:32:21Z</time>
      </trkpt>
      <trkpt lat="39.203333" lon="-6.124217">
        <ele>1693.0</ele>
        <time>2019-05-04T11:32:22Z</time>
      </trkpt>
      <trkpt lat="39.203367" lon="-6.124150">
        <ele>1693.0</ele>
        <time>2019-05-04T11:32:23Z</time>
      </trkpt>
      <trkpt lat="39.203400" lon="-6.124083">
        <ele>1694.0</ele>
        <time>2019-05-04T11:32:24Z</time>
      </trkpt>
      <trkpt lat="39.203450" lon="-6.124033">
        <ele>1695.0</ele>
        <time>2019-05-04T11:32:25Z</time>
      </trkpt>
      <trkpt lat="39.203483" lon="-6.123983">
        <ele>1695.0</ele>
        <time>2019-05-04T11:32:26Z</time>
      </trkpt>
      <trkpt lat="39.203550" lon="-6.123933">
        <ele>1695.0</ele>
        <time>2019-05-04T11:32:27Z</time>
      </trkpt>
      <trkpt lat="39.203617" lon="-6.123883">
        <ele>1696.0</ele>
        <time>2019-05-04T11:32:28Z</time>
      </trkpt>
      <trkpt lat="39.203700" lon="-6.123867">
        <ele>1696.0</ele>
        <time>2019-05-04T11:32:29Z</time>
      </trkpt>
      <trkpt lat="39.203767" lon="-6.123850">
        <ele>1698.0</ele>
        <time>2019-05-04T11:32:30Z</time>
      </trkpt>
      <trkpt lat="39.203833" lon="-6.123850">
        <ele>1701.0</ele>
        <time>2019-05-04T11:32:31Z</time>
      </trkpt>
      <trkpt lat="39.203883" lon="-6.123867">
        <ele>1703.0</ele>
        <time>2019-05-04T11:32:32Z</time>
      </trkpt>
      <trkpt lat="39.203933" lon="-6.123883">
        <ele>1705.0</ele>
        <time>2019-05-04T11:32:33Z</time>
      </trkpt>
      <trkpt lat="39.204000" lon="-6.123883">
        <ele>1707.0</ele>
        <time>2019-05-04T11:32:34Z</time>
      </trkpt>
      <trkpt lat="39.204050" lon="-6.123900">
        <ele>1708.0</ele>
        <time>2019-05-04T11:32:35Z</time>
      </trkpt>
      <trkpt lat="39.204100" lon="-6.123883">
        <ele>1709.0</ele>
        <time>2019-05-04T11:32:36Z</time>
      </trkpt>
      <trkpt lat="39.204167" lon="-6.123883">
        <ele>1710.0</ele>
        <time>2019-05-04T11:32:37Z</time>
      </trkpt>
      <trkpt lat="39.204233" lon="-6.123883">
        <ele>1712.0</ele>
        <time>2019-05-04T11:32:38Z</time>
      </trkpt>
      <trkpt lat="39.204300" lon="-6.123883">
        <ele>1715.0</ele>
        <time>2019-05-04T11:32:39Z</time>
      </trkpt>
      <trkpt lat="39.204350" lon="-6.123883">
        <ele>1718.0</ele>
        <time>2019-05-04T11:32:40Z</time>
      </trkpt>
      <trkpt lat="39.204400" lon="-6.123883">
        <ele>1722.0</ele>
        <time>2019-05-04T11:32:41Z</time>
      </trkpt>
      <trkpt lat="39.204467" lon="-6.123883">
        <ele>1725.0</ele>
        <time>2019-05-04T11:32:42Z</time>
      </trkpt>
      <trkpt lat="39.204533" lon="-6.123867">
        <ele>1728.0</ele>
        <time>2019-05-04T11:32:43Z</time>
      </trkpt>
      <trkpt lat="39.204600" lon="-6.123850">
        <ele>1730.0</ele>
        <time>2019-05-04T11:32:44Z</time>
      </trkpt>
      <trkpt lat="39.204650" lon="-6.123833">
        <ele>1734.0</ele>
        <time>2019-05-04T11:32:45Z</time>
      </trkpt>
      <trkpt lat="39.204700" lon="-6.123783">
        <ele>1738.0</ele>
        <time>2019-05-04T11:32:46Z</time>
      </trkpt>
      <trkpt lat="39.204750" lon="-6.123733">
        <ele>1741.0</ele>
        <time>2019-05-04T11:32:47Z</time>
      </trkpt>
      <trkpt lat="39.204783" lon="-6.123700">
        <ele>1745.0</ele>
        <time>2019-05-04T11:32:48Z</time>
      </trkpt>
      <trkpt lat="39.204833" lon="-6.123667">
        <ele>1747.0</ele>
        <time>2019-05-04T11:32:49Z</time>
      </trkpt>
      <trkpt lat="39.204883" lon="-6.123617">
        <ele>1750.0</ele>
        <time>2019-05-04T11:32:50Z</time>
      </trkpt>
      <trkpt lat="39.204950" lon="-6.123583">
        <ele>1752.0</ele>
        <time>2019-05-04T11:32:51Z</time>
      </trkpt>
      <trkpt lat="39.205000" lon="-6.123567">
        <ele>1754.0</ele>
        <time>2019-05-04T11:32:52Z</time>
      </trkpt>
      <trkpt lat="39.205067" lon="-6.123567">
        <ele>1757.0</ele>
        <time>2019-05-04T11:32:53Z</time>
      </trkpt>
      <trkpt lat="39.205133" lon="-6.123600">
        <ele>1759.0</ele>
        <time>2019-05-04T11:32:54Z</time>
      </trkpt>
      <trkpt lat="39.205183" lon="-6.123633">
        <ele>1761.0</ele>
        <time>2019-05-04T11:32:55Z</time>
      </trkpt>
      <trkpt lat="39.205233" lon="-6.123683">
        <ele>1764.0</ele>
        <time>2019-05-04T11:32:56Z</time>
      </trkpt>
      <trkpt lat="39.205267" lon="-6.123750">
        <ele>1766.0</ele>
        <time>2019-05-04T11:32:57Z</time>
      </trkpt>
      <trkpt lat="39.205283" lon="-6.123850">
        <ele>1767.0</ele>
        <time>2019-05-04T11:32:58Z</time>
      </trkpt>
      <trkpt lat="39.205283" lon="-6.123983">
        <ele>1767.0</ele>
        <time>2019-05-04T11:32:59Z</time>
      </trkpt>
      <trkpt lat="39.205217" lon="-6.124100">
        <ele>1769.0</ele>
        <time>2019-05-04T11:33:00Z</time>
      </trkpt>
      <trkpt lat="39.205150" lon="-6.124183">
        <ele>1771.0</ele>
        <time>2019-05-04T11:33:01Z</time>
      </trkpt>
      <trkpt lat="39.205050" lon="-6.124233">
        <ele>1776.0</ele>
        <time>2019-05-04T11:33:02Z</time>
      </trkpt>
      <trkpt lat="39.204967" lon="-6.124233">
        <ele>1780.0</ele>
        <time>2019-05-04T11:33:03Z</time>
      </trkpt>
      <trkpt lat="39.204867" lon="-6.124233">
        <ele>1785.0</ele>
        <time>2019-05-04T11:33:04Z</time>
      </trkpt>
      <trkpt lat="39.204783" lon="-6.124200">
        <ele>1788.0</ele>
        <time>2019-05-04T11:33:05Z</time>
      </trkpt>
      <trkpt lat="39.204700" lon="-6.124150">
        <ele>1790.0</ele>
        <time>2019-05-04T11:33:06Z</time>
      </trkpt>
      <trkpt lat="39.204617" lon="-6.124067">
        <ele>1792.0</ele>
        <time>2019-05-04T11:33:07Z</time>
      </trkpt>
      <trkpt lat="39.204550" lon="-6.123983">
        <ele>1795.0</ele>
        <time>2019-05-04T11:33:08Z</time>
      </trkpt>
      <trkpt lat="39.204500" lon="-6.123867">
        <ele>1797.0</ele>
        <time>2019-05-04T11:33:09Z</time>
      </trkpt>
      <trkpt lat="39.204450" lon="-6.123750">
        <ele>1799.0</ele>
        <time>2019-05-04T11:33:10Z</time>
      </trkpt>
      <trkpt lat="39.204450" lon="-6.123633">
        <ele>1802.0</ele>
        <time>2019-05-04T11:33:11Z</time>
      </trkpt>
      <trkpt lat="39.204450" lon="-6.123533">
        <ele>1805.0</ele>
        <time>2019-05-04T11:33:12Z</time>
      </trkpt>
      <trkpt lat="39.204450" lon="-6.123450">
        <ele>1807.0</ele>
        <time>2019-05-04T11:33:13Z</time>
      </trkpt>
      <trkpt lat="39.204467" lon="-6.123367">
        <ele>1810.0</ele>
        <time>2019-05-04T11:33:14Z</time>
      </trkpt>
      <trkpt lat="39.204483" lon="-6.123267">
        <ele>1812.0</ele>
        <time>2019-05-04T11:33:15Z</time>
      </trkpt>
      <trkpt lat="39.204500" lon="-6.123183">
        <ele>1813.0</ele>
        <time>2019-05-04T11:33:16Z</time>
      </trkpt>
      <trkpt lat="39.204533" lon="-6.123100">
        <ele>1813.0</ele>
        <time>2019-05-04T11:33:17Z</time>
      </trkpt>
      <trkpt lat="39.204600" lon="-6.123033">
        <ele>1814.0</ele>
        <time>2019-05-04T11:33:18Z</time>
      </trkpt>
      <trkpt lat="39.204650" lon="-6.122967">
        <ele>1815.0</ele>
        <time>2019-05-04T11:33:19Z</time>
      </trkpt>
      <trkpt lat="39.204700" lon="-6.122933">
        <ele>1818.0</ele>
        <time>2019-05-04T11:33:20Z</time>
      </trkpt>
      <trkpt lat="39.204767" lon="-6.122917">
        <ele>1820.0</ele>
        <time>2019-05-04T11:33:21Z</time>
      </trkpt>
      <trkpt lat="39.204817" lon="-6.122917">
        <ele>1822.0</ele>
        <time>2019-05-04T11:33:22Z</time>
      </trkpt>
      <trkpt lat="39.204883" lon="-6.122917">
        <ele>1824.0</ele>
        <time>2019-05-04T11:33:23Z</time>
      </trkpt>
      <trkpt lat="39.204933" lon="-6.122917">
        <ele>1826.0</ele>
        <time>2019-05-04T11:33:24Z</time>
      </trkpt>
      <trkpt lat="39.205000" lon="-6.122933">
        <ele>1827.0</ele>
        <time>2019-05-04T11:33:25Z</time>
      </trkpt>
      <trkpt lat="39.205083" lon="-6.122950">
        <ele>1828.0</ele>
        <time>2019-05-04T11:33:26Z</time>
      </trkpt>
      <trkpt lat="39.205150" lon="-6.122967">
        <ele>1829.0</ele>
        <time>2019-05-04T11:33:27Z</time>
      </trkpt>
      <trkpt lat="39.205217" lon="-6.123000">
        <ele>1831.0</ele>
        <time>2019-05-04T11:33:28Z</time>
      </trkpt>
      <trkpt lat="39.205250" lon="-6.123033">
        <ele>1834.0</ele>
        <time>2019-05-04T11:33:29Z</time>
      </trkpt>
      <trkpt lat="39.205283" lon="-6.123067">
        <ele>1837.0</ele>
        <time>2019-05-04T11:33:30Z</time>
      </trkpt>
      <trkpt lat="39.205317" lon="-6.123117">
        <ele>1838.0</ele>
        <time>2019-05-04T11:33:31Z</time>
      </trkpt>
      <trkpt lat="39.205367" lon="-6.123167">
        <ele>1839.0</ele>
        <time>2019-05-04T11:33:32Z</time>
      </trkpt>
      <trkpt lat="39.205417" lon="-6.123233">
        <ele>1839.0</ele>
        <time>2019-05-04T11:33:33Z</time>
      </trkpt>
      <trkpt lat="39.205450" lon="-6.123333">
        <ele>1839.0</ele>
        <time>2019-05-04T11:33:34Z</time>
      </trkpt>
      <trkpt lat="39.205450" lon="-6.123467">
        <ele>1840.0</ele>
        <time>2019-05-04T11:33:35Z</time>
      </trkpt>
      <trkpt lat="39.205417" lon="-6.123583">
        <ele>1841.0</ele>
        <time>2019-05-04T11:33:36Z</time>
      </trkpt>
      <trkpt lat="39.205350" lon="-6.123700">
        <ele>1843.0</ele>
        <time>2019-05-04T11:33:37Z</time>
      </trkpt>
      <trkpt lat="39.205267" lon="-6.123767">
        <ele>1846.0</ele>
        <time>2019-05-04T11:33:38Z</time>
      </trkpt>
      <trkpt lat="39.205167" lon="-6.123783">
        <ele>1849.0</ele>
        <time>2019-05-04T11:33:39Z</time>
      </trkpt>
      <trkpt lat="39.205067" lon="-6.123783">
        <ele>1852.0</ele>
        <time>2019-05-04T11:33:40Z</time>
      </trkpt>
      <trkpt lat="39.204983" lon="-6.123783">
        <ele>1855.0</ele>
        <time>2019-05-04T11:33:41Z</time>
      </trkpt>
      <trkpt lat="39.204900" lon="-6.123733">
        <ele>1860.0</ele>
        <time>2019-05-04T11:33:42Z</time>
      </trkpt>
      <trkpt lat="39.204833" lon="-6.123650">
        <ele>1863.0</ele>
        <time>2019-05-04T11:33:43Z</time>
      </trkpt>
      <trkpt lat="39.204800" lon="-6.123550">
        <ele>1866.0</ele>
        <time>2019-05-04T11:33:44Z</time>
      </trkpt>
      <trkpt lat="39.204800" lon="-6.123433">
        <ele>1867.0</ele>
        <time>2019-05-04T11:33:45Z</time>
      </trkpt>
      <trkpt lat="39.204817" lon="-6.123350">
        <ele>1870.0</ele>
        <time>2019-05-04T11:33:46Z</time>
      </trkpt>
      <trkpt lat="39.204850" lon="-6.123283">
        <ele>1872.0</ele>
        <time>2019-05-04T11:33:47Z</time>
      </trkpt>
      <trkpt lat="39.204917" lon="-6.123267">
        <ele>1874.0</ele>
        <time>2019-05-04T11:33:48Z</time>
      </trkpt>
      <trkpt lat="39.204967" lon="-6.123300">
        <ele>1875.0</ele>
        <time>2019-05-04T11:33:49Z</time>
      </trkpt>
      <trkpt lat="39.205033" lon="-6.123350">
        <ele>1876.0</ele>
        <time>2019-05-04T11:33:50Z</time>
      </trkpt>
      <trkpt lat="39.205067" lon="-6.123433">
        <ele>1878.0</ele>
        <time>2019-05-04T11:33:51Z</time>
      </trkpt>
      <trkpt lat="39.205100" lon="-6.123533">
        <ele>1880.0</ele>
        <time>2019-05-04T11:33:52Z</time>
      </trkpt>
      <trkpt lat="39.205100" lon="-6.123617">
        <ele>1882.0</ele>
        <time>2019-05-04T11:33:53Z</time>
      </trkpt>
      <trkpt lat="39.205100" lon="-6.123700">
        <ele>1884.0</ele>
        <time>2019-05-04T11:33:54Z</time>
      </trkpt>
      <trkpt lat="39.205083" lon="-6.123817">
        <ele>1887.0</ele>
        <time>2019-05-04T11:33:55Z</time>
      </trkpt>
      <trkpt lat="39.205067" lon="-6.123917">
        <ele>1889.0</ele>
        <time>2019-05-04T11:33:56Z</time>
      </trkpt>
      <trkpt lat="39.205033" lon="-6.124033">
        <ele>1892.0</ele>
        <time>2019-05-04T11:33:57Z</time>
      </trkpt>
      <trkpt lat="39.205017" lon="-6.124133">
        <ele>1895.0</ele>
        <time>2019-05-04T11:33:58Z</time>
      </trkpt>
      <trkpt lat="39.204983" lon="-6.124250">
        <ele>1898.0</ele>
        <time>2019-05-04T11:33:59Z</time>
      </trkpt>
      <trkpt lat="39.204950" lon="-6.124350">
        <ele>1900.0</ele>
        <time>2019-05-04T11:34:00Z</time>
      </trkpt>
      <trkpt lat="39.204900" lon="-6.124450">
        <ele>1902.0</ele>
        <time>2019-05-04T11:34:01Z</time>
      </trkpt>
      <trkpt lat="39.204800" lon="-6.124517">
        <ele>1904.0</ele>
        <time>2019-05-04T11:34:02Z</time>
      </trkpt>
      <trkpt lat="39.204700" lon="-6.124533">
        <ele>1905.0</ele>
        <time>2019-05-04T11:34:03Z</time>
      </trkpt>
      <trkpt lat="39.204600" lon="-6.124533">
        <ele>1906.0</ele>
        <time>2019-05-04T11:34:04Z</time>
      </trkpt>
      <trkpt lat="39.204500" lon="-6.124483">
        <ele>1908.0</ele>
        <time>2019-05-04T11:34:05Z</time>
      </trkpt>
      <trkpt lat="39.204417" lon="-6.124400">
        <ele>1909.0</ele>
        <time>2019-05-04T11:34:06Z</time>
      </trkpt>
      <trkpt lat="39.204350" lon="-6.124283">
        <ele>1910.0</ele>
        <time>2019-05-04T11:34:07Z</time>
      </trkpt>
      <trkpt lat="39.204317" lon="-6.124150">
        <ele>1911.0</ele>
        <time>2019-05-04T11:34:08Z</time>
      </trkpt>
      <trkpt lat="39.204350" lon="-6.124033">
        <ele>1911.0</ele>
        <time>2019-05-04T11:34:09Z</time>
      </trkpt>
      <trkpt lat="39.204400" lon="-6.123950">
        <ele>1913.0</ele>
        <time>2019-05-04T11:34:10Z</time>
      </trkpt>
      <trkpt lat="39.204450" lon="-6.123900">
        <ele>1917.0</ele>
        <time>2019-05-04T11:34:11Z</time>
      </trkpt>
      <trkpt lat="39.204483" lon="-6.123867">
        <ele>1921.0</ele>
        <time>2019-05-04T11:34:12Z</time>
      </trkpt>
      <trkpt lat="39.204533" lon="-6.123850">
        <ele>1925.0</ele>
        <time>2019-05-04T11:34:13Z</time>
      </trkpt>
      <trkpt lat="39.204583" lon="-6.123833">
        <ele>1928.0</ele>
        <time>2019-05-04T11:34:14Z</time>
      </trkpt>
      <trkpt lat="39.204633" lon="-6.123833">
        <ele>1929.0</ele>
        <time>2019-05-04T11:34:15Z</time>
      </trkpt>
      <trkpt lat="39.204683" lon="-6.123850">
        <ele>1931.0</ele>
        <time>2019-05-04T11:34:16Z</time>
      </trkpt>
      <trkpt lat="39.204733" lon="-6.123867">
        <ele>1933.0</ele>
        <time>2019-05-04T11:34:17Z</time>
      </trkpt>
      <trkpt lat="39.204767" lon="-6.123917">
        <ele>1936.0</ele>
        <time>2019-05-04T11:34:18Z</time>
      </trkpt>
      <trkpt lat="39.204800" lon="-6.123967">
        <ele>1939.0</ele>
        <time>2019-05-04T11:34:19Z</time>
      </trkpt>
      <trkpt lat="39.204833" lon="-6.124017">
        <ele>1941.0</ele>
        <time>2019-05-04T11:34:20Z</time>
      </trkpt>
      <trkpt lat="39.204867" lon="-6.124083">
        <ele>1942.0</ele>
        <time>2019-05-04T11:34:21Z</time>
      </trkpt>
      <trkpt lat="39.204883" lon="-6.124167">
        <ele>1942.0</ele>
        <time>2019-05-04T11:34:22Z</time>
      </trkpt>
      <trkpt lat="39.204867" lon="-6.124283">
        <ele>1943.0</ele>
        <time>2019-05-04T11:34:23Z</time>
      </trkpt>
      <trkpt lat="39.204833" lon="-6.124383">
        <ele>1944.0</ele>
        <time>2019-05-04T11:34:24Z</time>
      </trkpt>
      <trkpt lat="39.204800" lon="-6.124467">
        <ele>1946.0</ele>
        <time>2019-05-04T11:34:25Z</time>
      </trkpt>
      <trkpt lat="39.204733" lon="-6.124550">
        <ele>1949.0</ele>
        <time>2019-05-04T11:34:26Z</time>
      </trkpt>
      <trkpt lat="39.204667" lon="-6.124617">
        <ele>1951.0</ele>
        <time>2019-05-04T11:34:27Z</time>
      </trkpt>
      <trkpt lat="39.204617" lon="-6.124667">
        <ele>1953.0</ele>
        <time>2019-05-04T11:34:28Z</time>
      </trkpt>
      <trkpt lat="39.204567" lon="-6.124717">
        <ele>1955.0</ele>
        <time>2019-05-04T11:34:29Z</time>
      </trkpt>
      <trkpt lat="39.204500" lon="-6.124750">
        <ele>1957.0</ele>
        <time>2019-05-04T11:34:30Z</time>
      </trkpt>
      <trkpt lat="39.204417" lon="-6.124767">
        <ele>1957.0</ele>
        <time>2019-05-04T11:34:31Z</time>
      </trkpt>
      <trkpt lat="39.204317" lon="-6.124783">
        <ele>1958.0</ele>
        <time>2019-05-04T11:34:32Z</time>
      </trkpt>
      <trkpt lat="39.204233" lon="-6.124783">
        <ele>1959.0</ele>
        <time>2019-05-04T11:34:33Z</time>
      </trkpt>
      <trkpt lat="39.204150" lon="-6.124783">
        <ele>1960.0</ele>
        <time>2019-05-04T11:34:34Z</time>
      </trkpt>
      <trkpt lat="39.204067" lon="-6.124800">
        <ele>1961.0</ele>
        <time>2019-05-04T11:34:35Z</time>
      </trkpt>
      <trkpt lat="39.203967" lon="-6.124783">
        <ele>1963.0</ele>
        <time>2019-05-04T11:34:36Z</time>
      </trkpt>
      <trkpt lat="39.203867" lon="-6.124783">
        <ele>1963.0</ele>
        <time>2019-05-04T11:34:37Z</time>
      </trkpt>
      <trkpt lat="39.203767" lon="-6.124767">
        <ele>1964.0</ele>
        <time>2019-05-04T11:34:38Z</time>
      </trkpt>
      <trkpt lat="39.203667" lon="-6.124750">
        <ele>1964.0</ele>
        <time>2019-05-04T11:34:39Z</time>
      </trkpt>
      <trkpt lat="39.203583" lon="-6.124733">
        <ele>1965.0</ele>
        <time>2019-05-04T11:34:40Z</time>
      </trkpt>
      <trkpt lat="39.203500" lon="-6.124717">
        <ele>1965.0</ele>
        <time>2019-05-04T11:34:41Z</time>
      </trkpt>
      <trkpt lat="39.203417" lon="-6.124700">
        <ele>1966.0</ele>
        <time>2019-05-04T11:34:42Z</time>
      </trkpt>
      <trkpt lat="39.203317" lon="-6.124700">
        <ele>1966.0</ele>
        <time>2019-05-04T11:34:43Z</time>
      </trkpt>
      <trkpt lat="39.203217" lon="-6.124683">
        <ele>1965.0</ele>
        <time>2019-05-04T11:34:44Z</time>
      </trkpt>
      <trkpt lat="39.203100" lon="-6.124683">
        <ele>1964.0</ele>
        <time>2019-05-04T11:34:45Z</time>
      </trkpt>
      <trkpt lat="39.202983" lon="-6.124683">
        <ele>1962.0</ele>
        <time>2019-05-04T11:34:46Z</time>
      </trkpt>
      <trkpt lat="39.202867" lon="-6.124683">
        <ele>1962.0</ele>
        <time>2019-05-04T11:34:47Z</time>
      </trkpt>
      <trkpt lat="39.202750" lon="-6.124683">
        <ele>1962.0</ele>
        <time>2019-05-04T11:34:48Z</time>
      </trkpt>
      <trkpt lat="39.202633" lon="-6.124667">
        <ele>1963.0</ele>
        <time>2019-05-04T11:34:49Z</time>
      </trkpt>
      <trkpt lat="39.202517" lon="-6.124633">
        <ele>1965.0</ele>
        <time>2019-05-04T11:34:50Z</time>
      </trkpt>
      <trkpt lat="39.202417" lon="-6.124600">
        <ele>1966.0</ele>
        <time>2019-05-04T11:34:51Z</time>
      </trkpt>
      <trkpt lat="39.202300" lon="-6.124567">
        <ele>1967.0</ele>
        <time>2019-05-04T11:34:52Z</time>
      </trkpt>
      <trkpt lat="39.202183" lon="-6.124517">
        <ele>1969.0</ele>
        <time>2019-05-04T11:34:53Z</time>
      </trkpt>
      <trkpt lat="39.202067" lon="-6.124467">
        <ele>1973.0</ele>
        <time>2019-05-04T11:34:54Z</time>
      </trkpt>
      <trkpt lat="39.201983" lon="-6.124417">
        <ele>1976.0</ele>
        <time>2019-05-04T11:34:55Z</time>
      </trkpt>
      <trkpt lat="39.201900" lon="-6.124333">
        <ele>1978.0</ele>
        <time>2019-05-04T11:34:56Z</time>
      </trkpt>
      <trkpt lat="39.201817" lon="-6.124267">
        <ele>1980.0</ele>
        <time>2019-05-04T11:34:57Z</time>
      </trkpt>
      <trkpt lat="39.201717" lon="-6.124200">
        <ele>1981.0</ele>
        <time>2019-05-04T11:34:58Z</time>
      </trkpt>
      <trkpt lat="39.201617" lon="-6.124117">
        <ele>1979.0</ele>
        <time>2019-05-04T11:34:59Z</time>
      </trkpt>
      <trkpt lat="39.201550" lon="-6.124017">
        <ele>1978.0</ele>
        <time>2019-05-04T11:35:00Z</time>
      </trkpt>
      <trkpt lat="39.201500" lon="-6.123883">
        <ele>1976.0</ele>
        <time>2019-05-04T11:35:01Z</time>
      </trkpt>
      <trkpt lat="39.201500" lon="-6.123767">
        <ele>1974.0</ele>
        <time>2019-05-04T11:35:02Z</time>
      </trkpt>
      <trkpt lat="39.201500" lon="-6.123650">
        <ele>1973.0</ele>
        <time>2019-05-04T11:35:03Z</time>
      </trkpt>
      <trkpt lat="39.201533" lon="-6.123550">
        <ele>1973.0</ele>
        <time>2019-05-04T11:35:04Z</time>
      </trkpt>
      <trkpt lat="39.201550" lon="-6.123467">
        <ele>1973.0</ele>
        <time>2019-05-04T11:35:05Z</time>
      </trkpt>
      <trkpt lat="39.201600" lon="-6.123400">
        <ele>1972.0</ele>
        <time>2019-05-04T11:35:06Z</time>
      </trkpt>
      <trkpt lat="39.201667" lon="-6.123367">
        <ele>1970.0</ele>
        <time>2019-05-04T11:35:07Z</time>
      </trkpt>
      <trkpt lat="39.201733" lon="-6.123367">
        <ele>1968.0</ele>
        <time>2019-05-04T11:35:08Z</time>
      </trkpt>
      <trkpt lat="39.201767" lon="-6.123383">
        <ele>1968.0</ele>
        <time>2019-05-04T11:35:09Z</time>
      </trkpt>
      <trkpt lat="39.201817" lon="-6.123367">
        <ele>1967.0</ele>
        <time>2019-05-04T11:35:10Z</time>
      </trkpt>
      <trkpt lat="39.201867" lon="-6.123333">
        <ele>1967.0</ele>
        <time>2019-05-04T11:35:11Z</time>
      </trkpt>
      <trkpt lat="39.201933" lon="-6.123317">
        <ele>1966.0</ele>
        <time>2019-05-04T11:35:12Z</time>
      </trkpt>
      <trkpt lat="39.202017" lon="-6.123283">
        <ele>1964.0</ele>
        <time>2019-05-04T11:35:13Z</time>
      </trkpt>
      <trkpt lat="39.202083" lon="-6.123250">
        <ele>1964.0</ele>
        <time>2019-05-04T11:35:14Z</time>
      </trkpt>
      <trkpt lat="39.202150" lon="-6.123183">
        <ele>1964.0</ele>
        <time>2019-05-04T11:35:15Z</time>
      </trkpt>
      <trkpt lat="39.202217" lon="-6.123117">
        <ele>1965.0</ele>
        <time>2019-05-04T11:35:16Z</time>
      </trkpt>
      <trkpt lat="39.202283" lon="-6.123033">
        <ele>1965.0</ele>
        <time>2019-05-04T11:35:17Z</time>
      </trkpt>
      <trkpt lat="39.202333" lon="-6.122967">
        <ele>1965.0</ele>
        <time>2019-05-04T11:35:18Z</time>
      </trkpt>
      <trkpt lat="39.202400" lon="-6.122917">
        <ele>1964.0</ele>
        <time>2019-05-04T11:35:19Z</time>
      </trkpt>
      <trkpt lat="39.202450" lon="-6.122850">
        <ele>1964.0</ele>
        <time>2019-05-04T11:35:20Z</time>
      </trkpt>
      <trkpt lat="39.202500" lon="-6.122800">
        <ele>1964.0</ele>
        <time>2019-05-04T11:35:21Z</time>
      </trkpt>
      <trkpt lat="39.202550" lon="-6.122750">
        <ele>1963.0</ele>
        <time>2019-05-04T11:35:22Z</time>
      </trkpt>
      <trkpt lat="39.202617" lon="-6.122683">
        <ele>1962.0</ele>
        <time>2019-05-04T11:35:23Z</time>
      </trkpt>
      <trkpt lat="39.202683" lon="-6.122633">
        <ele>1961.0</ele>
        <time>2019-05-04T11:35:24Z</time>
      </trkpt>
      <trkpt lat="39.202750" lon="-6.122567">
        <ele>1960.0</ele>
        <time>2019-05-04T11:35:25Z</time>
      </trkpt>
      <trkpt lat="39.202817" lon="-6.122517">
        <ele>1960.0</ele>
        <time>2019-05-04T11:35:26Z</time>
      </trkpt>
      <trkpt lat="39.202867" lon="-6.122467">
        <ele>1960.0</ele>
        <time>2019-05-04T11:35:27Z</time>
      </trkpt>
      <trkpt lat="39.202917" lon="-6.122433">
        <ele>1959.0</ele>
        <time>2019-05-04T11:35:28Z</time>
      </trkpt>
      <trkpt lat="39.202967" lon="-6.122383">
        <ele>1959.0</ele>
        <time>2019-05-04T11:35:29Z</time>
      </trkpt>
      <trkpt lat="39.203017" lon="-6.122317">
        <ele>1957.0</ele>
        <time>2019-05-04T11:35:30Z</time>
      </trkpt>
      <trkpt lat="39.203083" lon="-6.122250">
        <ele>1955.0</ele>
        <time>2019-05-04T11:35:31Z</time>
      </trkpt>
      <trkpt lat="39.203133" lon="-6.122150">
        <ele>1953.0</ele>
        <time>2019-05-04T11:35:32Z</time>
      </trkpt>
      <trkpt lat="39.203183" lon="-6.122050">
        <ele>1951.0</ele>
        <time>2019-05-04T11:35:33Z</time>
      </trkpt>
      <trkpt lat="39.203217" lon="-6.121967">
        <ele>1951.0</ele>
        <time>2019-05-04T11:35:34Z</time>
      </trkpt>
      <trkpt lat="39.203267" lon="-6.121883">
        <ele>1951.0</ele>
        <time>2019-05-04T11:35:35Z</time>
      </trkpt>
      <trkpt lat="39.203300" lon="-6.121800">
        <ele>1950.0</ele>
        <time>2019-05-04T11:35:36Z</time>
      </trkpt>
      <trkpt lat="39.203333" lon="-6.121717">
        <ele>1949.0</ele>
        <time>2019-05-04T11:35:37Z</time>
      </trkpt>
      <trkpt lat="39.203383" lon="-6.121600">
        <ele>1948.0</ele>
        <time>2019-05-04T11:35:38Z</time>
      </trkpt>
      <trkpt lat="39.203433" lon="-6.121500">
        <ele>1946.0</ele>
        <time>2019-05-04T11:35:39Z</time>
      </trkpt>
      <trkpt lat="39.203483" lon="-6.121400">
        <ele>1944.0</ele>
        <time>2019-05-04T11:35:40Z</time>
      </trkpt>
      <trkpt lat="39.203533" lon="-6.121300">
        <ele>1943.0</ele>
        <time>2019-05-04T11:35:41Z</time>
      </trkpt>
      <trkpt lat="39.203583" lon="-6.121233">
        <ele>1942.0</ele>
        <time>2019-05-04T11:35:42Z</time>
      </trkpt>
      <trkpt lat="39.203617" lon="-6.121150">
        <ele>1942.0</ele>
        <time>2019-05-04T11:35:43Z</time>
      </trkpt>
      <trkpt lat="39.203667" lon="-6.121083">
        <ele>1941.0</ele>
        <time>2019-05-04T11:35:44Z</time>
      </trkpt>
      <trkpt lat="39.203700" lon="-6.121000">
        <ele>1940.0</ele>
        <time>2019-05-04T11:35:45Z</time>
      </trkpt>
      <trkpt lat="39.203750" lon="-6.120917">
        <ele>1938.0</ele>
        <time>2019-05-04T11:35:46Z</time>
      </trkpt>
      <trkpt lat="39.203800" lon="-6.120833">
        <ele>1936.0</ele>
        <time>2019-05-04T11:35:47Z</time>
      </trkpt>
      <trkpt lat="39.203867" lon="-6.120750">
        <ele>1934.0</ele>
        <time>2019-05-04T11:35:48Z</time>
      </trkpt>
      <trkpt lat="39.203933" lon="-6.120683">
        <ele>1932.0</ele>
        <time>2019-05-04T11:35:49Z</time>
      </trkpt>
      <trkpt lat="39.204017" lon="-6.120617">
        <ele>1931.0</ele>
        <time>2019-05-04T11:35:50Z</time>
      </trkpt>
      <trkpt lat="39.204083" lon="-6.120567">
        <ele>1929.0</ele>
        <time>2019-05-04T11:35:51Z</time>
      </trkpt>
      <trkpt lat="39.204150" lon="-6.120533">
        <ele>1928.0</ele>
        <time>2019-05-04T11:35:52Z</time>
      </trkpt>
      <trkpt lat="39.204233" lon="-6.120533">
        <ele>1927.0</ele>
        <time>2019-05-04T11:35:53Z</time>
      </trkpt>
      <trkpt lat="39.204300" lon="-6.120567">
        <ele>1925.0</ele>
        <time>2019-05-04T11:35:54Z</time>
      </trkpt>
      <trkpt lat="39.204350" lon="-6.120633">
        <ele>1923.0</ele>
        <time>2019-05-04T11:35:55Z</time>
      </trkpt>
      <trkpt lat="39.204383" lon="-6.120733">
        <ele>1922.0</ele>
        <time>2019-05-04T11:35:56Z</time>
      </trkpt>
      <trkpt lat="39.204383" lon="-6.120833">
        <ele>1920.0</ele>
        <time>2019-05-04T11:35:57Z</time>
      </trkpt>
      <trkpt lat="39.204367" lon="-6.120933">
        <ele>1919.0</ele>
        <time>2019-05-04T11:35:58Z</time>
      </trkpt>
      <trkpt lat="39.204317" lon="-6.121017">
        <ele>1918.0</ele>
        <time>2019-05-04T11:35:59Z</time>
      </trkpt>
      <trkpt lat="39.204250" lon="-6.121100">
        <ele>1917.0</ele>
        <time>2019-05-04T11:36:00Z</time>
      </trkpt>
      <trkpt lat="39.204183" lon="-6.121183">
        <ele>1916.0</ele>
        <time>2019-05-04T11:36:01Z</time>
      </trkpt>
      <trkpt lat="39.204117" lon="-6.121283">
        <ele>1915.0</ele>
        <time>2019-05-04T11:36:02Z</time>
      </trkpt>
      <trkpt lat="39.204050" lon="-6.121367">
        <ele>1914.0</ele>
        <time>2019-05-04T11:36:03Z</time>
      </trkpt>
      <trkpt lat="39.203983" lon="-6.121450">
        <ele>1913.0</ele>
        <time>2019-05-04T11:36:04Z</time>
      </trkpt>
      <trkpt lat="39.203917" lon="-6.121533">
        <ele>1912.0</ele>
        <time>2019-05-04T11:36:05Z</time>
      </trkpt>
      <trkpt lat="39.203833" lon="-6.121617">
        <ele>1911.0</ele>
        <time>2019-05-04T11:36:06Z</time>
      </trkpt>
      <trkpt lat="39.203767" lon="-6.121700">
        <ele>1911.0</ele>
        <time>2019-05-04T11:36:07Z</time>
      </trkpt>
      <trkpt lat="39.203700" lon="-6.121767">
        <ele>1911.0</ele>
        <time>2019-05-04T11:36:08Z</time>
      </trkpt>
      <trkpt lat="39.203650" lon="-6.121833">
        <ele>1911.0</ele>
        <time>2019-05-04T11:36:09Z</time>
      </trkpt>
      <trkpt lat="39.203583" lon="-6.121900">
        <ele>1910.0</ele>
        <time>2019-05-04T11:36:10Z</time>
      </trkpt>
      <trkpt lat="39.203533" lon="-6.121967">
        <ele>1909.0</ele>
        <time>2019-05-04T11:36:11Z</time>
      </trkpt>
      <trkpt lat="39.203467" lon="-6.122067">
        <ele>1907.0</ele>
        <time>2019-05-04T11:36:12Z</time>
      </trkpt>
      <trkpt lat="39.203400" lon="-6.122150">
        <ele>1905.0</ele>
        <time>2019-05-04T11:36:13Z</time>
      </trkpt>
      <trkpt lat="39.203333" lon="-6.122233">
        <ele>1903.0</ele>
        <time>2019-05-04T11:36:14Z</time>
      </trkpt>
      <trkpt lat="39.203267" lon="-6.122317">
        <ele>1902.0</ele>
        <time>2019-05-04T11:36:15Z</time>
      </trkpt>
      <trkpt lat="39.203183" lon="-6.122400">
        <ele>1901.0</ele>
        <time>2019-05-04T11:36:16Z</time>
      </trkpt>
      <trkpt lat="39.203117" lon="-6.122483">
        <ele>1899.0</ele>
        <time>2019-05-04T11:36:17Z</time>
      </trkpt>
      <trkpt lat="39.203033" lon="-6.122567">
        <ele>1898.0</ele>
        <time>2019-05-04T11:36:18Z</time>
      </trkpt>
      <trkpt lat="39.202967" lon="-6.122650">
        <ele>1897.0</ele>
        <time>2019-05-04T11:36:19Z</time>
      </trkpt>
      <trkpt lat="39.202917" lon="-6.122733">
        <ele>1895.0</ele>
        <time>2019-05-04T11:36:20Z</time>
      </trkpt>
      <trkpt lat="39.202850" lon="-6.122817">
        <ele>1893.0</ele>
        <time>2019-05-04T11:36:21Z</time>
      </trkpt>
      <trkpt lat="39.202800" lon="-6.122900">
        <ele>1891.0</ele>
        <time>2019-05-04T11:36:22Z</time>
      </trkpt>
      <trkpt lat="39.202733" lon="-6.122983">
        <ele>1889.0</ele>
        <time>2019-05-04T11:36:23Z</time>
      </trkpt>
      <trkpt lat="39.202650" lon="-6.123067">
        <ele>1887.0</ele>
        <time>2019-05-04T11:36:24Z</time>
      </trkpt>
      <trkpt lat="39.202583" lon="-6.123150">
        <ele>1886.0</ele>
        <time>2019-05-04T11:36:25Z</time>
      </trkpt>
      <trkpt lat="39.202517" lon="-6.123233">
        <ele>1884.0</ele>
        <time>2019-05-04T11:36:26Z</time>
      </trkpt>
      <trkpt lat="39.202467" lon="-6.123300">
        <ele>1883.0</ele>
        <time>2019-05-04T11:36:27Z</time>
      </trkpt>
      <trkpt lat="39.202400" lon="-6.123383">
        <ele>1882.0</ele>
        <time>2019-05-04T11:36:28Z</time>
      </trkpt>
      <trkpt lat="39.202333" lon="-6.123433">
        <ele>1881.0</ele>
        <time>2019-05-04T11:36:29Z</time>
      </trkpt>
      <trkpt lat="39.202267" lon="-6.123500">
        <ele>1880.0</ele>
        <time>2019-05-04T11:36:30Z</time>
      </trkpt>
      <trkpt lat="39.202217" lon="-6.123567">
        <ele>1879.0</ele>
        <time>2019-05-04T11:36:31Z</time>
      </trkpt>
      <trkpt lat="39.202150" lon="-6.123633">
        <ele>1878.0</ele>
        <time>2019-05-04T11:36:32Z</time>
      </trkpt>
      <trkpt lat="39.202067" lon="-6.123717">
        <ele>1877.0</ele>
        <time>2019-05-04T11:36:33Z</time>
      </trkpt>
      <trkpt lat="39.202000" lon="-6.123783">
        <ele>1876.0</ele>
        <time>2019-05-04T11:36:34Z</time>
      </trkpt>
      <trkpt lat="39.201933" lon="-6.123867">
        <ele>1875.0</ele>
        <time>2019-05-04T11:36:35Z</time>
      </trkpt>
      <trkpt lat="39.201883" lon="-6.123950">
        <ele>1874.0</ele>
        <time>2019-05-04T11:36:36Z</time>
      </trkpt>
      <trkpt lat="39.201833" lon="-6.124033">
        <ele>1874.0</ele>
        <time>2019-05-04T11:36:37Z</time>
      </trkpt>
      <trkpt lat="39.201783" lon="-6.124133">
        <ele>1873.0</ele>
        <time>2019-05-04T11:36:38Z</time>
      </trkpt>
      <trkpt lat="39.201717" lon="-6.124217">
        <ele>1871.0</ele>
        <time>2019-05-04T11:36:39Z</time>
      </trkpt>
      <trkpt lat="39.201650" lon="-6.124317">
        <ele>1869.0</ele>
        <time>2019-05-04T11:36:40Z</time>
      </trkpt>
      <trkpt lat="39.201583" lon="-6.124400">
        <ele>1869.0</ele>
        <time>2019-05-04T11:36:41Z</time>
      </trkpt>
      <trkpt lat="39.201517" lon="-6.124500">
        <ele>1868.0</ele>
        <time>2019-05-04T11:36:42Z</time>
      </trkpt>
      <trkpt lat="39.201467" lon="-6.124617">
        <ele>1867.0</ele>
        <time>2019-05-04T11:36:43Z</time>
      </trkpt>
      <trkpt lat="39.201383" lon="-6.124733">
        <ele>1867.0</ele>
        <time>2019-05-04T11:36:44Z</time>
      </trkpt>
      <trkpt lat="39.201333" lon="-6.124817">
        <ele>1867.0</ele>
        <time>2019-05-04T11:36:45Z</time>
      </trkpt>
      <trkpt lat="39.201283" lon="-6.124917">
        <ele>1868.0</ele>
        <time>2019-05-04T11:36:46Z</time>
      </trkpt>
      <trkpt lat="39.201250" lon="-6.124983">
        <ele>1871.0</ele>
        <time>2019-05-04T11:36:47Z</time>
      </trkpt>
      <trkpt lat="39.201233" lon="-6.125083">
        <ele>1872.0</ele>
        <time>2019-05-04T11:36:48Z</time>
      </trkpt>
      <trkpt lat="39.201183" lon="-6.125167">
        <ele>1874.0</ele>
        <time>2019-05-04T11:36:49Z</time>
      </trkpt>
      <trkpt lat="39.201150" lon="-6.125267">
        <ele>1874.0</ele>
        <time>2019-05-04T11:36:50Z</time>
      </trkpt>
      <trkpt lat="39.201133" lon="-6.125367">
        <ele>1874.0</ele>
        <time>2019-05-04T11:36:51Z</time>
      </trkpt>
      <trkpt lat="39.201167" lon="-6.125467">
        <ele>1874.0</ele>
        <time>2019-05-04T11:36:52Z</time>
      </trkpt>
      <trkpt lat="39.201217" lon="-6.125550">
        <ele>1873.0</ele>
        <time>2019-05-04T11:36:53Z</time>
      </trkpt>
      <trkpt lat="39.201317" lon="-6.125583">
        <ele>1872.0</ele>
        <time>2019-05-04T11:36:54Z</time>
      </trkpt>
      <trkpt lat="39.201400" lon="-6.125567">
        <ele>1874.0</ele>
        <time>2019-05-04T11:36:55Z</time>
      </trkpt>
      <trkpt lat="39.201450" lon="-6.125533">
        <ele>1881.0</ele>
        <time>2019-05-04T11:36:56Z</time>
      </trkpt>
      <trkpt lat="39.201483" lon="-6.125483">
        <ele>1884.0</ele>
        <time>2019-05-04T11:36:57Z</time>
      </trkpt>
      <trkpt lat="39.201517" lon="-6.125450">
        <ele>1885.0</ele>
        <time>2019-05-04T11:36:58Z</time>
      </trkpt>
      <trkpt lat="39.201567" lon="-6.125450">
        <ele>1885.0</ele>
        <time>2019-05-04T11:36:59Z</time>
      </trkpt>
      <trkpt lat="39.201633" lon="-6.125450">
        <ele>1882.0</ele>
        <time>2019-05-04T11:37:00Z</time>
      </trkpt>
      <trkpt lat="39.201683" lon="-6.125483">
        <ele>1880.0</ele>
        <time>2019-05-04T11:37:01Z</time>
      </trkpt>
      <trkpt lat="39.201700" lon="-6.125550">
        <ele>1879.0</ele>
        <time>2019-05-04T11:37:02Z</time>
      </trkpt>
      <trkpt lat="39.201700" lon="-6.125633">
        <ele>1879.0</ele>
        <time>2019-05-04T11:37:03Z</time>
      </trkpt>
      <trkpt lat="39.201700" lon="-6.125717">
        <ele>1880.0</ele>
        <time>2019-05-04T11:37:04Z</time>
      </trkpt>
      <trkpt lat="39.201700" lon="-6.125783">
        <ele>1882.0</ele>
        <time>2019-05-04T11:37:05Z</time>
      </trkpt>
      <trkpt lat="39.201700" lon="-6.125850">
        <ele>1883.0</ele>
        <time>2019-05-04T11:37:06Z</time>
      </trkpt>
      <trkpt lat="39.201700" lon="-6.125917">
        <ele>1885.0</ele>
        <time>2019-05-04T11:37:07Z</time>
      </trkpt>
      <trkpt lat="39.201700" lon="-6.126000">
        <ele>1886.0</ele>
        <time>2019-05-04T11:37:08Z</time>
      </trkpt>
      <trkpt lat="39.201717" lon="-6.126083">
        <ele>1887.0</ele>
        <time>2019-05-04T11:37:09Z</time>
      </trkpt>
      <trkpt lat="39.201733" lon="-6.126183">
        <ele>1888.0</ele>
        <time>2019-05-04T11:37:10Z</time>
      </trkpt>
      <trkpt lat="39.201733" lon="-6.126267">
        <ele>1891.0</ele>
        <time>2019-05-04T11:37:11Z</time>
      </trkpt>
      <trkpt lat="39.201733" lon="-6.126350">
        <ele>1894.0</ele>
        <time>2019-05-04T11:37:12Z</time>
      </trkpt>
      <trkpt lat="39.201717" lon="-6.126450">
        <ele>1897.0</ele>
        <time>2019-05-04T11:37:13Z</time>
      </trkpt>
      <trkpt lat="39.201717" lon="-6.126550">
        <ele>1899.0</ele>
        <time>2019-05-04T11:37:14Z</time>
      </trkpt>
      <trkpt lat="39.201700" lon="-6.126650">
        <ele>1902.0</ele>
        <time>2019-05-04T11:37:15Z</time>
      </trkpt>
      <trkpt lat="39.201717" lon="-6.126750">
        <ele>1905.0</ele>
        <time>2019-05-04T11:37:16Z</time>
      </trkpt>
      <trkpt lat="39.201750" lon="-6.126817">
        <ele>1907.0</ele>
        <time>2019-05-04T11:37:17Z</time>
      </trkpt>
      <trkpt lat="39.201817" lon="-6.126867">
        <ele>1908.0</ele>
        <time>2019-05-04T11:37:18Z</time>
      </trkpt>
      <trkpt lat="39.201883" lon="-6.126867">
        <ele>1905.0</ele>
        <time>2019-05-04T11:37:19Z</time>
      </trkpt>
      <trkpt lat="39.201967" lon="-6.126817">
        <ele>1904.0</ele>
        <time>2019-05-04T11:37:20Z</time>
      </trkpt>
      <trkpt lat="39.202033" lon="-6.126750">
        <ele>1904.0</ele>
        <time>2019-05-04T11:37:21Z</time>
      </trkpt>
      <trkpt lat="39.202067" lon="-6.126633">
        <ele>1905.0</ele>
        <time>2019-05-04T11:37:22Z</time>
      </trkpt>
      <trkpt lat="39.202083" lon="-6.126517">
        <ele>1905.0</ele>
        <time>2019-05-04T11:37:23Z</time>
      </trkpt>
      <trkpt lat="39.202067" lon="-6.126383">
        <ele>1904.0</ele>
        <time>2019-05-04T11:37:24Z</time>
      </trkpt>
      <trkpt lat="39.202017" lon="-6.126250">
        <ele>1903.0</ele>
        <time>2019-05-04T11:37:25Z</time>
      </trkpt>
      <trkpt lat="39.201933" lon="-6.126133">
        <ele>1903.0</ele>
        <time>2019-05-04T11:37:26Z</time>
      </trkpt>
      <trkpt lat="39.201833" lon="-6.126067">
        <ele>1902.0</ele>
        <time>2019-05-04T11:37:27Z</time>
      </trkpt>
      <trkpt lat="39.201717" lon="-6.126033">
        <ele>1902.0</ele>
        <time>2019-05-04T11:37:28Z</time>
      </trkpt>
      <trkpt lat="39.201600" lon="-6.126017">
        <ele>1902.0</ele>
        <time>2019-05-04T11:37:29Z</time>
      </trkpt>
      <trkpt lat="39.201500" lon="-6.126017">
        <ele>1903.0</ele>
        <time>2019-05-04T11:37:30Z</time>
      </trkpt>
      <trkpt lat="39.201400" lon="-6.126017">
        <ele>1904.0</ele>
        <time>2019-05-04T11:37:31Z</time>
      </trkpt>
      <trkpt lat="39.201317" lon="-6.126000">
        <ele>1905.0</ele>
        <time>2019-05-04T11:37:32Z</time>
      </trkpt>
      <trkpt lat="39.201217" lon="-6.126000">
        <ele>1907.0</ele>
        <time>2019-05-04T11:37:33Z</time>
      </trkpt>
      <trkpt lat="39.201100" lon="-6.126033">
        <ele>1908.0</ele>
        <time>2019-05-04T11:37:34Z</time>
      </trkpt>
      <trkpt lat="39.201017" lon="-6.126100">
        <ele>1909.0</ele>
        <time>2019-05-04T11:37:35Z</time>
      </trkpt>
      <trkpt lat="39.200967" lon="-6.126217">
        <ele>1910.0</ele>
        <time>2019-05-04T11:37:36Z</time>
      </trkpt>
      <trkpt lat="39.200967" lon="-6.126333">
        <ele>1911.0</ele>
        <time>2019-05-04T11:37:37Z</time>
      </trkpt>
      <trkpt lat="39.200967" lon="-6.126450">
        <ele>1912.0</ele>
        <time>2019-05-04T11:37:38Z</time>
      </trkpt>
      <trkpt lat="39.201000" lon="-6.126533">
        <ele>1913.0</ele>
        <time>2019-05-04T11:37:39Z</time>
      </trkpt>
      <trkpt lat="39.201033" lon="-6.126617">
        <ele>1914.0</ele>
        <time>2019-05-04T11:37:40Z</time>
      </trkpt>
      <trkpt lat="39.201100" lon="-6.126650">
        <ele>1914.0</ele>
        <time>2019-05-04T11:37:41Z</time>
      </trkpt>
      <trkpt lat="39.201200" lon="-6.126683">
        <ele>1914.0</ele>
        <time>2019-05-04T11:37:42Z</time>
      </trkpt>
      <trkpt lat="39.201283" lon="-6.126683">
        <ele>1917.0</ele>
        <time>2019-05-04T11:37:43Z</time>
      </trkpt>
      <trkpt lat="39.201333" lon="-6.126650">
        <ele>1921.0</ele>
        <time>2019-05-04T11:37:44Z</time>
      </trkpt>
      <trkpt lat="39.201383" lon="-6.126617">
        <ele>1924.0</ele>
        <time>2019-05-04T11:37:45Z</time>
      </trkpt>
      <trkpt lat="39.201450" lon="-6.126583">
        <ele>1924.0</ele>
        <time>2019-05-04T11:37:46Z</time>
      </trkpt>
      <trkpt lat="39.201517" lon="-6.126550">
        <ele>1924.0</ele>
        <time>2019-05-04T11:37:47Z</time>
      </trkpt>
      <trkpt lat="39.201600" lon="-6.126483">
        <ele>1922.0</ele>
        <time>2019-05-04T11:37:48Z</time>
      </trkpt>
      <trkpt lat="39.201650" lon="-6.126383">
        <ele>1920.0</ele>
        <time>2019-05-04T11:37:49Z</time>
      </trkpt>
      <trkpt lat="39.201683" lon="-6.126267">
        <ele>1920.0</ele>
        <time>2019-05-04T11:37:50Z</time>
      </trkpt>
      <trkpt lat="39.201683" lon="-6.126133">
        <ele>1919.0</ele>
        <time>2019-05-04T11:37:51Z</time>
      </trkpt>
      <trkpt lat="39.201667" lon="-6.126017">
        <ele>1919.0</ele>
        <time>2019-05-04T11:37:52Z</time>
      </trkpt>
      <trkpt lat="39.201633" lon="-6.125883">
        <ele>1918.0</ele>
        <time>2019-05-04T11:37:53Z</time>
      </trkpt>
      <trkpt lat="39.201567" lon="-6.125767">
        <ele>1918.0</ele>
        <time>2019-05-04T11:37:54Z</time>
      </trkpt>
      <trkpt lat="39.201500" lon="-6.125667">
        <ele>1917.0</ele>
        <time>2019-05-04T11:37:55Z</time>
      </trkpt>
      <trkpt lat="39.201400" lon="-6.125567">
        <ele>1917.0</ele>
        <time>2019-05-04T11:37:56Z</time>
      </trkpt>
      <trkpt lat="39.201300" lon="-6.125500">
        <ele>1917.0</ele>
        <time>2019-05-04T11:37:57Z</time>
      </trkpt>
      <trkpt lat="39.201183" lon="-6.125450">
        <ele>1917.0</ele>
        <time>2019-05-04T11:37:58Z</time>
      </trkpt>
      <trkpt lat="39.201083" lon="-6.125417">
        <ele>1918.0</ele>
        <time>2019-05-04T11:37:59Z</time>
      </trkpt>
      <trkpt lat="39.201000" lon="-6.125367">
        <ele>1920.0</ele>
        <time>2019-05-04T11:38:00Z</time>
      </trkpt>
      <trkpt lat="39.200900" lon="-6.125333">
        <ele>1921.0</ele>
        <time>2019-05-04T11:38:01Z</time>
      </trkpt>
      <trkpt lat="39.200800" lon="-6.125283">
        <ele>1921.0</ele>
        <time>2019-05-04T11:38:02Z</time>
      </trkpt>
      <trkpt lat="39.200700" lon="-6.125250">
        <ele>1922.0</ele>
        <time>2019-05-04T11:38:03Z</time>
      </trkpt>
      <trkpt lat="39.200617" lon="-6.125250">
        <ele>1922.0</ele>
        <time>2019-05-04T11:38:04Z</time>
      </trkpt>
      <trkpt lat="39.200533" lon="-6.125283">
        <ele>1921.0</ele>
        <time>2019-05-04T11:38:05Z</time>
      </trkpt>
      <trkpt lat="39.200483" lon="-6.125350">
        <ele>1920.0</ele>
        <time>2019-05-04T11:38:06Z</time>
      </trkpt>
      <trkpt lat="39.200450" lon="-6.125433">
        <ele>1918.0</ele>
        <time>2019-05-04T11:38:07Z</time>
      </trkpt>
      <trkpt lat="39.200417" lon="-6.125517">
        <ele>1917.0</ele>
        <time>2019-05-04T11:38:08Z</time>
      </trkpt>
      <trkpt lat="39.200400" lon="-6.125617">
        <ele>1914.0</ele>
        <time>2019-05-04T11:38:09Z</time>
      </trkpt>
      <trkpt lat="39.200400" lon="-6.125733">
        <ele>1912.0</ele>
        <time>2019-05-04T11:38:10Z</time>
      </trkpt>
      <trkpt lat="39.200433" lon="-6.125867">
        <ele>1909.0</ele>
        <time>2019-05-04T11:38:11Z</time>
      </trkpt>
      <trkpt lat="39.200450" lon="-6.125983">
        <ele>1908.0</ele>
        <time>2019-05-04T11:38:12Z</time>
      </trkpt>
      <trkpt lat="39.200467" lon="-6.126100">
        <ele>1907.0</ele>
        <time>2019-05-04T11:38:13Z</time>
      </trkpt>
      <trkpt lat="39.200483" lon="-6.126183">
        <ele>1906.0</ele>
        <time>2019-05-04T11:38:14Z</time>
      </trkpt>
      <trkpt lat="39.200500" lon="-6.126250">
        <ele>1905.0</ele>
        <time>2019-05-04T11:38:15Z</time>
      </trkpt>
      <trkpt lat="39.200550" lon="-6.126333">
        <ele>1902.0</ele>
        <time>2019-05-04T11:38:16Z</time>
      </trkpt>
      <trkpt lat="39.200633" lon="-6.126433">
        <ele>1899.0</ele>
        <time>2019-05-04T11:38:17Z</time>
      </trkpt>
      <trkpt lat="39.200717" lon="-6.126533">
        <ele>1894.0</ele>
        <time>2019-05-04T11:38:18Z</time>
      </trkpt>
      <trkpt lat="39.200833" lon="-6.126600">
        <ele>1891.0</ele>
        <time>2019-05-04T11:38:19Z</time>
      </trkpt>
      <trkpt lat="39.200950" lon="-6.126650">
        <ele>1891.0</ele>
        <time>2019-05-04T11:38:20Z</time>
      </trkpt>
      <trkpt lat="39.201050" lon="-6.126683">
        <ele>1890.0</ele>
        <time>2019-05-04T11:38:21Z</time>
      </trkpt>
      <trkpt lat="39.201133" lon="-6.126750">
        <ele>1890.0</ele>
        <time>2019-05-04T11:38:22Z</time>
      </trkpt>
      <trkpt lat="39.201217" lon="-6.126817">
        <ele>1891.0</ele>
        <time>2019-05-04T11:38:23Z</time>
      </trkpt>
      <trkpt lat="39.201300" lon="-6.126867">
        <ele>1890.0</ele>
        <time>2019-05-04T11:38:24Z</time>
      </trkpt>
      <trkpt lat="39.201367" lon="-6.126883">
        <ele>1889.0</ele>
        <time>2019-05-04T11:38:25Z</time>
      </trkpt>
      <trkpt lat="39.201433" lon="-6.126883">
        <ele>1887.0</ele>
        <time>2019-05-04T11:38:26Z</time>
      </trkpt>
      <trkpt lat="39.201500" lon="-6.126900">
        <ele>1886.0</ele>
        <time>2019-05-04T11:38:27Z</time>
      </trkpt>
      <trkpt lat="39.201583" lon="-6.126917">
        <ele>1884.0</ele>
        <time>2019-05-04T11:38:28Z</time>
      </trkpt>
      <trkpt lat="39.201700" lon="-6.126933">
        <ele>1882.0</ele>
        <time>2019-05-04T11:38:29Z</time>
      </trkpt>
      <trkpt lat="39.201833" lon="-6.126917">
        <ele>1881.0</ele>
        <time>2019-05-04T11:38:30Z</time>
      </trkpt>
      <trkpt lat="39.201967" lon="-6.126917">
        <ele>1883.0</ele>
        <time>2019-05-04T11:38:31Z</time>
      </trkpt>
      <trkpt lat="39.202050" lon="-6.126933">
        <ele>1889.0</ele>
        <time>2019-05-04T11:38:32Z</time>
      </trkpt>
      <trkpt lat="39.202100" lon="-6.126950">
        <ele>1894.0</ele>
        <time>2019-05-04T11:38:33Z</time>
      </trkpt>
      <trkpt lat="39.202133" lon="-6.126967">
        <ele>1898.0</ele>
        <time>2019-05-04T11:38:34Z</time>
      </trkpt>
      <trkpt lat="39.202183" lon="-6.126967">
        <ele>1901.0</ele>
        <time>2019-05-04T11:38:35Z</time>
      </trkpt>
      <trkpt lat="39.202267" lon="-6.126967">
        <ele>1902.0</ele>
        <time>2019-05-04T11:38:36Z</time>
      </trkpt>
      <trkpt lat="39.202333" lon="-6.126933">
        <ele>1901.0</ele>
        <time>2019-05-04T11:38:37Z</time>
      </trkpt>
      <trkpt lat="39.202400" lon="-6.126867">
        <ele>1900.0</ele>
        <time>2019-05-04T11:38:38Z</time>
      </trkpt>
      <trkpt lat="39.202417" lon="-6.126767">
        <ele>1900.0</ele>
        <time>2019-05-04T11:38:39Z</time>
      </trkpt>
      <trkpt lat="39.202400" lon="-6.126633">
        <ele>1898.0</ele>
        <time>2019-05-04T11:38:40Z</time>
      </trkpt>
      <trkpt lat="39.202333" lon="-6.126533">
        <ele>1897.0</ele>
        <time>2019-05-04T11:38:41Z</time>
      </trkpt>
      <trkpt lat="39.202250" lon="-6.126467">
        <ele>1896.0</ele>
        <time>2019-05-04T11:38:42Z</time>
      </trkpt>
      <trkpt lat="39.202150" lon="-6.126433">
        <ele>1896.0</ele>
        <time>2019-05-04T11:38:43Z</time>
      </trkpt>
      <trkpt lat="39.202067" lon="-6.126433">
        <ele>1896.0</ele>
        <time>2019-05-04T11:38:44Z</time>
      </trkpt>
      <trkpt lat="39.201967" lon="-6.126450">
        <ele>1898.0</ele>
        <time>2019-05-04T11:38:45Z</time>
      </trkpt>
      <trkpt lat="39.201900" lon="-6.126467">
        <ele>1900.0</ele>
        <time>2019-05-04T11:38:46Z</time>
      </trkpt>
      <trkpt lat="39.201817" lon="-6.126500">
        <ele>1902.0</ele>
        <time>2019-05-04T11:38:47Z</time>
      </trkpt>
      <trkpt lat="39.201717" lon="-6.126533">
        <ele>1905.0</ele>
        <time>2019-05-04T11:38:48Z</time>
      </trkpt>
      <trkpt lat="39.201633" lon="-6.126583">
        <ele>1907.0</ele>
        <time>2019-05-04T11:38:49Z</time>
      </trkpt>
      <trkpt lat="39.201550" lon="-6.126633">
        <ele>1909.0</ele>
        <time>2019-05-04T11:38:50Z</time>
      </trkpt>
      <trkpt lat="39.201500" lon="-6.126717">
        <ele>1911.0</ele>
        <time>2019-05-04T11:38:51Z</time>
      </trkpt>
      <trkpt lat="39.201467" lon="-6.126817">
        <ele>1913.0</ele>
        <time>2019-05-04T11:38:52Z</time>
      </trkpt>
      <trkpt lat="39.201433" lon="-6.126933">
        <ele>1913.0</ele>
        <time>2019-05-04T11:38:53Z</time>
      </trkpt>
      <trkpt lat="39.201450" lon="-6.127067">
        <ele>1914.0</ele>
        <time>2019-05-04T11:38:54Z</time>
      </trkpt>
      <trkpt lat="39.201483" lon="-6.127200">
        <ele>1915.0</ele>
        <time>2019-05-04T11:38:55Z</time>
      </trkpt>
      <trkpt lat="39.201533" lon="-6.127317">
        <ele>1916.0</ele>
        <time>2019-05-04T11:38:56Z</time>
      </trkpt>
      <trkpt lat="39.201617" lon="-6.127367">
        <ele>1918.0</ele>
        <time>2019-05-04T11:38:57Z</time>
      </trkpt>
      <trkpt lat="39.201667" lon="-6.127383">
        <ele>1922.0</ele>
        <time>2019-05-04T11:38:58Z</time>
      </trkpt>
      <trkpt lat="39.201717" lon="-6.127350">
        <ele>1925.0</ele>
        <time>2019-05-04T11:38:59Z</time>
      </trkpt>
      <trkpt lat="39.201767" lon="-6.127300">
        <ele>1927.0</ele>
        <time>2019-05-04T11:39:00Z</time>
      </trkpt>
      <trkpt lat="39.201800" lon="-6.127250">
        <ele>1927.0</ele>
        <time>2019-05-04T11:39:01Z</time>
      </trkpt>
      <trkpt lat="39.201833" lon="-6.127167">
        <ele>1926.0</ele>
        <time>2019-05-04T11:39:02Z</time>
      </trkpt>
      <trkpt lat="39.201850" lon="-6.127067">
        <ele>1926.0</ele>
        <time>2019-05-04T11:39:03Z</time>
      </trkpt>
      <trkpt lat="39.201850" lon="-6.126950">
        <ele>1926.0</ele>
        <time>2019-05-04T11:39:04Z</time>
      </trkpt>
      <trkpt lat="39.201800" lon="-6.126850">
        <ele>1927.0</ele>
        <time>2019-05-04T11:39:05Z</time>
      </trkpt>
      <trkpt lat="39.201733" lon="-6.126767">
        <ele>1928.0</ele>
        <time>2019-05-04T11:39:06Z</time>
      </trkpt>
      <trkpt lat="39.201650" lon="-6.126733">
        <ele>1930.0</ele>
        <time>2019-05-04T11:39:07Z</time>
      </trkpt>
      <trkpt lat="39.201567" lon="-6.126733">
        <ele>1932.0</ele>
        <time>2019-05-04T11:39:08Z</time>
      </trkpt>
      <trkpt lat="39.201483" lon="-6.126767">
        <ele>1934.0</ele>
        <time>2019-05-04T11:39:09Z</time>
      </trkpt>
      <trkpt lat="39.201400" lon="-6.126833">
        <ele>1936.0</ele>
        <time>2019-05-04T11:39:10Z</time>
      </trkpt>
      <trkpt lat="39.201350" lon="-6.126933">
        <ele>1938.0</ele>
        <time>2019-05-04T11:39:11Z</time>
      </trkpt>
      <trkpt lat="39.201333" lon="-6.127033">
        <ele>1941.0</ele>
        <time>2019-05-04T11:39:12Z</time>
      </trkpt>
      <trkpt lat="39.201350" lon="-6.127100">
        <ele>1943.0</ele>
        <time>2019-05-04T11:39:13Z</time>
      </trkpt>
      <trkpt lat="39.201383" lon="-6.127150">
        <ele>1945.0</ele>
        <time>2019-05-04T11:39:14Z</time>
      </trkpt>
      <trkpt lat="39.201433" lon="-6.127167">
        <ele>1946.0</ele>
        <time>2019-05-04T11:39:15Z</time>
      </trkpt>
      <trkpt lat="39.201483" lon="-6.127167">
        <ele>1948.0</ele>
        <time>2019-05-04T11:39:16Z</time>
      </trkpt>
      <trkpt lat="39.201533" lon="-6.127150">
        <ele>1950.0</ele>
        <time>2019-05-04T11:39:17Z</time>
      </trkpt>
      <trkpt lat="39.201583" lon="-6.127117">
        <ele>1950.0</ele>
        <time>2019-05-04T11:39:18Z</time>
      </trkpt>
      <trkpt lat="39.201633" lon="-6.127033">
        <ele>1951.0</ele>
        <time>2019-05-04T11:39:19Z</time>
      </trkpt>
      <trkpt lat="39.201667" lon="-6.126933">
        <ele>1952.0</ele>
        <time>2019-05-04T11:39:20Z</time>
      </trkpt>
      <trkpt lat="39.201667" lon="-6.126817">
        <ele>1952.0</ele>
        <time>2019-05-04T11:39:21Z</time>
      </trkpt>
      <trkpt lat="39.201617" lon="-6.126700">
        <ele>1953.0</ele>
        <time>2019-05-04T11:39:22Z</time>
      </trkpt>
      <trkpt lat="39.201567" lon="-6.126600">
        <ele>1955.0</ele>
        <time>2019-05-04T11:39:23Z</time>
      </trkpt>
      <trkpt lat="39.201467" lon="-6.126517">
        <ele>1956.0</ele>
        <time>2019-05-04T11:39:24Z</time>
      </trkpt>
      <trkpt lat="39.201367" lon="-6.126467">
        <ele>1959.0</ele>
        <time>2019-05-04T11:39:25Z</time>
      </trkpt>
      <trkpt lat="39.201267" lon="-6.126467">
        <ele>1961.0</ele>
        <time>2019-05-04T11:39:26Z</time>
      </trkpt>
      <trkpt lat="39.201167" lon="-6.126483">
        <ele>1963.0</ele>
        <time>2019-05-04T11:39:27Z</time>
      </trkpt>
      <trkpt lat="39.201083" lon="-6.126533">
        <ele>1963.0</ele>
        <time>2019-05-04T11:39:28Z</time>
      </trkpt>
      <trkpt lat="39.201000" lon="-6.126600">
        <ele>1963.0</ele>
        <time>2019-05-04T11:39:29Z</time>
      </trkpt>
      <trkpt lat="39.200933" lon="-6.126683">
        <ele>1963.0</ele>
        <time>2019-05-04T11:39:30Z</time>
      </trkpt>
      <trkpt lat="39.200900" lon="-6.126767">
        <ele>1964.0</ele>
        <time>2019-05-04T11:39:31Z</time>
      </trkpt>
      <trkpt lat="39.200883" lon="-6.126833">
        <ele>1964.0</ele>
        <time>2019-05-04T11:39:32Z</time>
      </trkpt>
      <trkpt lat="39.200900" lon="-6.126900">
        <ele>1964.0</ele>
        <time>2019-05-04T11:39:33Z</time>
      </trkpt>
      <trkpt lat="39.200933" lon="-6.126950">
        <ele>1963.0</ele>
        <time>2019-05-04T11:39:34Z</time>
      </trkpt>
      <trkpt lat="39.200950" lon="-6.126967">
        <ele>1962.0</ele>
        <time>2019-05-04T11:39:35Z</time>
      </trkpt>
      <trkpt lat="39.201000" lon="-6.126967">
        <ele>1961.0</ele>
        <time>2019-05-04T11:39:36Z</time>
      </trkpt>
      <trkpt lat="39.201050" lon="-6.126967">
        <ele>1960.0</ele>
        <time>2019-05-04T11:39:37Z</time>
      </trkpt>
      <trkpt lat="39.201117" lon="-6.126950">
        <ele>1960.0</ele>
        <time>2019-05-04T11:39:38Z</time>
      </trkpt>
      <trkpt lat="39.201183" lon="-6.126917">
        <ele>1962.0</ele>
        <time>2019-05-04T11:39:39Z</time>
      </trkpt>
      <trkpt lat="39.201233" lon="-6.126850">
        <ele>1965.0</ele>
        <time>2019-05-04T11:39:40Z</time>
      </trkpt>
      <trkpt lat="39.201267" lon="-6.126767">
        <ele>1966.0</ele>
        <time>2019-05-04T11:39:41Z</time>
      </trkpt>
      <trkpt lat="39.201300" lon="-6.126683">
        <ele>1968.0</ele>
        <time>2019-05-04T11:39:42Z</time>
      </trkpt>
      <trkpt lat="39.201333" lon="-6.126600">
        <ele>1970.0</ele>
        <time>2019-05-04T11:39:43Z</time>
      </trkpt>
      <trkpt lat="39.201383" lon="-6.126517">
        <ele>1971.0</ele>
        <time>2019-05-04T11:39:44Z</time>
      </trkpt>
      <trkpt lat="39.201433" lon="-6.126417">
        <ele>1972.0</ele>
        <time>2019-05-04T11:39:45Z</time>
      </trkpt>
      <trkpt lat="39.201467" lon="-6.126300">
        <ele>1974.0</ele>
        <time>2019-05-04T11:39:46Z</time>
      </trkpt>
      <trkpt lat="39.201467" lon="-6.126167">
        <ele>1975.0</ele>
        <time>2019-05-04T11:39:47Z</time>
      </trkpt>
      <trkpt lat="39.201467" lon="-6.126033">
        <ele>1977.0</ele>
        <time>2019-05-04T11:39:48Z</time>
      </trkpt>
      <trkpt lat="39.201433" lon="-6.125917">
        <ele>1979.0</ele>
        <time>2019-05-04T11:39:49Z</time>
      </trkpt>
      <trkpt lat="39.201383" lon="-6.125817">
        <ele>1981.0</ele>
        <time>2019-05-04T11:39:50Z</time>
      </trkpt>
      <trkpt lat="39.201300" lon="-6.125733">
        <ele>1983.0</ele>
        <time>2019-05-04T11:39:51Z</time>
      </trkpt>
      <trkpt lat="39.201200" lon="-6.125683">
        <ele>1984.0</ele>
        <time>2019-05-04T11:39:52Z</time>
      </trkpt>
      <trkpt lat="39.201083" lon="-6.125683">
        <ele>1984.0</ele>
        <time>2019-05-04T11:39:53Z</time>
      </trkpt>
      <trkpt lat="39.201000" lon="-6.125733">
        <ele>1984.0</ele>
        <time>2019-05-04T11:39:54Z</time>
      </trkpt>
      <trkpt lat="39.200933" lon="-6.125800">
        <ele>1983.0</ele>
        <time>2019-05-04T11:39:55Z</time>
      </trkpt>
      <trkpt lat="39.200900" lon="-6.125900">
        <ele>1982.0</ele>
        <time>2019-05-04T11:39:56Z</time>
      </trkpt>
      <trkpt lat="39.200900" lon="-6.126017">
        <ele>1980.0</ele>
        <time>2019-05-04T11:39:57Z</time>
      </trkpt>
      <trkpt lat="39.200933" lon="-6.126117">
        <ele>1979.0</ele>
        <time>2019-05-04T11:39:58Z</time>
      </trkpt>
      <trkpt lat="39.200967" lon="-6.126217">
        <ele>1977.0</ele>
        <time>2019-05-04T11:39:59Z</time>
      </trkpt>
      <trkpt lat="39.200983" lon="-6.126300">
        <ele>1976.0</ele>
        <time>2019-05-04T11:40:00Z</time>
      </trkpt>
      <trkpt lat="39.201000" lon="-6.126367">
        <ele>1977.0</ele>
        <time>2019-05-04T11:40:01Z</time>
      </trkpt>
      <trkpt lat="39.201000" lon="-6.126433">
        <ele>1977.0</ele>
        <time>2019-05-04T11:40:02Z</time>
      </trkpt>
      <trkpt lat="39.201017" lon="-6.126500">
        <ele>1980.0</ele>
        <time>2019-05-04T11:40:03Z</time>
      </trkpt>
      <trkpt lat="39.201050" lon="-6.126550">
        <ele>1981.0</ele>
        <time>2019-05-04T11:40:04Z</time>
      </trkpt>
      <trkpt lat="39.201067" lon="-6.126600">
        <ele>1982.0</ele>
        <time>2019-05-04T11:40:05Z</time>
      </trkpt>
      <trkpt lat="39.201100" lon="-6.126650">
        <ele>1983.0</ele>
        <time>2019-05-04T11:40:06Z</time>
      </trkpt>
      <trkpt lat="39.201117" lon="-6.126700">
        <ele>1983.0</ele>
        <time>2019-05-04T11:40:07Z</time>
      </trkpt>
      <trkpt lat="39.201167" lon="-6.126750">
        <ele>1983.0</ele>
        <time>2019-05-04T11:40:08Z</time>
      </trkpt>
      <trkpt lat="39.201217" lon="-6.126783">
        <ele>1981.0</ele>
        <time>2019-05-04T11:40:09Z</time>
      </trkpt>
      <trkpt lat="39.201267" lon="-6.126800">
        <ele>1980.0</ele>
        <time>2019-05-04T11:40:10Z</time>
      </trkpt>
      <trkpt lat="39.201333" lon="-6.126783">
        <ele>1979.0</ele>
        <time>2019-05-04T11:40:11Z</time>
      </trkpt>
      <trkpt lat="39.201400" lon="-6.126750">
        <ele>1977.0</ele>
        <time>2019-05-04T11:40:12Z</time>
      </trkpt>
      <trkpt lat="39.201450" lon="-6.126683">
        <ele>1976.0</ele>
        <time>2019-05-04T11:40:13Z</time>
      </trkpt>
      <trkpt lat="39.201500" lon="-6.126600">
        <ele>1974.0</ele>
        <time>2019-05-04T11:40:14Z</time>
      </trkpt>
      <trkpt lat="39.201533" lon="-6.126483">
        <ele>1971.0</ele>
        <time>2019-05-04T11:40:15Z</time>
      </trkpt>
      <trkpt lat="39.201550" lon="-6.126383">
        <ele>1969.0</ele>
        <time>2019-05-04T11:40:16Z</time>
      </trkpt>
      <trkpt lat="39.201550" lon="-6.126267">
        <ele>1967.0</ele>
        <time>2019-05-04T11:40:17Z</time>
      </trkpt>
      <trkpt lat="39.201533" lon="-6.126150">
        <ele>1965.0</ele>
        <time>2019-05-04T11:40:18Z</time>
      </trkpt>
      <trkpt lat="39.201500" lon="-6.126017">
        <ele>1964.0</ele>
        <time>2019-05-04T11:40:19Z</time>
      </trkpt>
      <trkpt lat="39.201433" lon="-6.125900">
        <ele>1962.0</ele>
        <time>2019-05-04T11:40:20Z</time>
      </trkpt>
      <trkpt lat="39.201350" lon="-6.125800">
        <ele>1961.0</ele>
        <time>2019-05-04T11:40:21Z</time>
      </trkpt>
      <trkpt lat="39.201283" lon="-6.125700">
        <ele>1962.0</ele>
        <time>2019-05-04T11:40:22Z</time>
      </trkpt>
      <trkpt lat="39.201217" lon="-6.125617">
        <ele>1964.0</ele>
        <time>2019-05-04T11:40:23Z</time>
      </trkpt>
      <trkpt lat="39.201167" lon="-6.125533">
        <ele>1967.0</ele>
        <time>2019-05-04T11:40:24Z</time>
      </trkpt>
      <trkpt lat="39.201100" lon="-6.125450">
        <ele>1969.0</ele>
        <time>2019-05-04T11:40:25Z</time>
      </trkpt>
      <trkpt lat="39.201033" lon="-6.125383">
        <ele>1970.0</ele>
        <time>2019-05-04T11:40:26Z</time>
      </trkpt>
      <trkpt lat="39.200967" lon="-6.125333">
        <ele>1970.0</ele>
        <time>2019-05-04T11:40:27Z</time>
      </trkpt>
      <trkpt lat="39.200883" lon="-6.125317">
        <ele>1969.0</ele>
        <time>2019-05-04T11:40:28Z</time>
      </trkpt>
      <trkpt lat="39.200800" lon="-6.125350">
        <ele>1968.0</ele>
        <time>2019-05-04T11:40:29Z</time>
      </trkpt>
      <trkpt lat="39.200733" lon="-6.125433">
        <ele>1966.0</ele>
        <time>2019-05-04T11:40:30Z</time>
      </trkpt>
      <trkpt lat="39.200683" lon="-6.125517">
        <ele>1964.0</ele>
        <time>2019-05-04T11:40:31Z</time>
      </trkpt>
      <trkpt lat="39.200683" lon="-6.125617">
        <ele>1963.0</ele>
        <time>2019-05-04T11:40:32Z</time>
      </trkpt>
      <trkpt lat="39.200700" lon="-6.125700">
        <ele>1961.0</ele>
        <time>2019-05-04T11:40:33Z</time>
      </trkpt>
      <trkpt lat="39.200783" lon="-6.125783">
        <ele>1958.0</ele>
        <time>2019-05-04T11:40:34Z</time>
      </trkpt>
      <trkpt lat="39.200883" lon="-6.125850">
        <ele>1955.0</ele>
        <time>2019-05-04T11:40:35Z</time>
      </trkpt>
      <trkpt lat="39.200983" lon="-6.125867">
        <ele>1954.0</ele>
        <time>2019-05-04T11:40:36Z</time>
      </trkpt>
      <trkpt lat="39.201083" lon="-6.125883">
        <ele>1959.0</ele>
        <time>2019-05-04T11:40:37Z</time>
      </trkpt>
      <trkpt lat="39.201150" lon="-6.125867">
        <ele>1962.0</ele>
        <time>2019-05-04T11:40:38Z</time>
      </trkpt>
      <trkpt lat="39.201217" lon="-6.125833">
        <ele>1962.0</ele>
        <time>2019-05-04T11:40:39Z</time>
      </trkpt>
      <trkpt lat="39.201300" lon="-6.125817">
        <ele>1961.0</ele>
        <time>2019-05-04T11:40:40Z</time>
      </trkpt>
      <trkpt lat="39.201367" lon="-6.125767">
        <ele>1961.0</ele>
        <time>2019-05-04T11:40:41Z</time>
      </trkpt>
      <trkpt lat="39.201433" lon="-6.125700">
        <ele>1961.0</ele>
        <time>2019-05-04T11:40:42Z</time>
      </trkpt>
      <trkpt lat="39.201483" lon="-6.125600">
        <ele>1961.0</ele>
        <time>2019-05-04T11:40:43Z</time>
      </trkpt>
      <trkpt lat="39.201533" lon="-6.125500">
        <ele>1960.0</ele>
        <time>2019-05-04T11:40:44Z</time>
      </trkpt>
      <trkpt lat="39.201567" lon="-6.125400">
        <ele>1960.0</ele>
        <time>2019-05-04T11:40:45Z</time>
      </trkpt>
      <trkpt lat="39.201583" lon="-6.125283">
        <ele>1960.0</ele>
        <time>2019-05-04T11:40:46Z</time>
      </trkpt>
      <trkpt lat="39.201583" lon="-6.125150">
        <ele>1959.0</ele>
        <time>2019-05-04T11:40:47Z</time>
      </trkpt>
      <trkpt lat="39.201550" lon="-6.125017">
        <ele>1957.0</ele>
        <time>2019-05-04T11:40:48Z</time>
      </trkpt>
      <trkpt lat="39.201500" lon="-6.124900">
        <ele>1955.0</ele>
        <time>2019-05-04T11:40:49Z</time>
      </trkpt>
      <trkpt lat="39.201417" lon="-6.124767">
        <ele>1953.0</ele>
        <time>2019-05-04T11:40:50Z</time>
      </trkpt>
      <trkpt lat="39.201333" lon="-6.124700">
        <ele>1953.0</ele>
        <time>2019-05-04T11:40:51Z</time>
      </trkpt>
      <trkpt lat="39.201233" lon="-6.124683">
        <ele>1952.0</ele>
        <time>2019-05-04T11:40:52Z</time>
      </trkpt>
      <trkpt lat="39.201167" lon="-6.124700">
        <ele>1952.0</ele>
        <time>2019-05-04T11:40:53Z</time>
      </trkpt>
      <trkpt lat="39.201100" lon="-6.124767">
        <ele>1952.0</ele>
        <time>2019-05-04T11:40:54Z</time>
      </trkpt>
      <trkpt lat="39.201067" lon="-6.124833">
        <ele>1953.0</ele>
        <time>2019-05-04T11:40:55Z</time>
      </trkpt>
      <trkpt lat="39.201050" lon="-6.124900">
        <ele>1952.0</ele>
        <time>2019-05-04T11:40:56Z</time>
      </trkpt>
      <trkpt lat="39.201033" lon="-6.125000">
        <ele>1952.0</ele>
        <time>2019-05-04T11:40:57Z</time>
      </trkpt>
      <trkpt lat="39.201050" lon="-6.125100">
        <ele>1951.0</ele>
        <time>2019-05-04T11:40:58Z</time>
      </trkpt>
      <trkpt lat="39.201067" lon="-6.125200">
        <ele>1950.0</ele>
        <time>2019-05-04T11:40:59Z</time>
      </trkpt>
      <trkpt lat="39.201133" lon="-6.125267">
        <ele>1950.0</ele>
        <time>2019-05-04T11:41:00Z</time>
      </trkpt>
      <trkpt lat="39.201200" lon="-6.125300">
        <ele>1950.0</ele>
        <time>2019-05-04T11:41:01Z</time>
      </trkpt>
      <trkpt lat="39.201283" lon="-6.125300">
        <ele>1951.0</ele>
        <time>2019-05-04T11:41:02Z</time>
      </trkpt>
      <trkpt lat="39.201367" lon="-6.125283">
        <ele>1951.0</ele>
        <time>2019-05-04T11:41:03Z</time>
      </trkpt>
      <trkpt lat="39.201450" lon="-6.125267">
        <ele>1951.0</ele>
        <time>2019-05-04T11:41:04Z</time>
      </trkpt>
      <trkpt lat="39.201533" lon="-6.125217">
        <ele>1951.0</ele>
        <time>2019-05-04T11:41:05Z</time>
      </trkpt>
      <trkpt lat="39.201617" lon="-6.125133">
        <ele>1950.0</ele>
        <time>2019-05-04T11:41:06Z</time>
      </trkpt>
      <trkpt lat="39.201683" lon="-6.125050">
        <ele>1949.0</ele>
        <time>2019-05-04T11:41:07Z</time>
      </trkpt>
      <trkpt lat="39.201750" lon="-6.124967">
        <ele>1949.0</ele>
        <time>2019-05-04T11:41:08Z</time>
      </trkpt>
      <trkpt lat="39.201800" lon="-6.124917">
        <ele>1948.0</ele>
        <time>2019-05-04T11:41:09Z</time>
      </trkpt>
      <trkpt lat="39.201850" lon="-6.124867">
        <ele>1946.0</ele>
        <time>2019-05-04T11:41:10Z</time>
      </trkpt>
      <trkpt lat="39.201917" lon="-6.124800">
        <ele>1944.0</ele>
        <time>2019-05-04T11:41:11Z</time>
      </trkpt>
      <trkpt lat="39.201983" lon="-6.124750">
        <ele>1941.0</ele>
        <time>2019-05-04T11:41:12Z</time>
      </trkpt>
      <trkpt lat="39.202067" lon="-6.124717">
        <ele>1937.0</ele>
        <time>2019-05-04T11:41:13Z</time>
      </trkpt>
      <trkpt lat="39.202133" lon="-6.124733">
        <ele>1934.0</ele>
        <time>2019-05-04T11:41:14Z</time>
      </trkpt>
      <trkpt lat="39.202200" lon="-6.124767">
        <ele>1931.0</ele>
        <time>2019-05-04T11:41:15Z</time>
      </trkpt>
      <trkpt lat="39.202233" lon="-6.124833">
        <ele>1928.0</ele>
        <time>2019-05-04T11:41:16Z</time>
      </trkpt>
      <trkpt lat="39.202267" lon="-6.124900">
        <ele>1924.0</ele>
        <time>2019-05-04T11:41:17Z</time>
      </trkpt>
      <trkpt lat="39.202283" lon="-6.124983">
        <ele>1921.0</ele>
        <time>2019-05-04T11:41:18Z</time>
      </trkpt>
      <trkpt lat="39.202283" lon="-6.125067">
        <ele>1919.0</ele>
        <time>2019-05-04T11:41:19Z</time>
      </trkpt>
      <trkpt lat="39.202267" lon="-6.125150">
        <ele>1917.0</ele>
        <time>2019-05-04T11:41:20Z</time>
      </trkpt>
      <trkpt lat="39.202250" lon="-6.125217">
        <ele>1915.0</ele>
        <time>2019-05-04T11:41:21Z</time>
      </trkpt>
      <trkpt lat="39.202233" lon="-6.125300">
        <ele>1912.0</ele>
        <time>2019-05-04T11:41:22Z</time>
      </trkpt>
      <trkpt lat="39.202217" lon="-6.125400">
        <ele>1910.0</ele>
        <time>2019-05-04T11:41:23Z</time>
      </trkpt>
      <trkpt lat="39.202217" lon="-6.125500">
        <ele>1907.0</ele>
        <time>2019-05-04T11:41:24Z</time>
      </trkpt>
      <trkpt lat="39.202217" lon="-6.125583">
        <ele>1905.0</ele>
        <time>2019-05-04T11:41:25Z</time>
      </trkpt>
      <trkpt lat="39.202217" lon="-6.125683">
        <ele>1903.0</ele>
        <time>2019-05-04T11:41:26Z</time>
      </trkpt>
      <trkpt lat="39.202217" lon="-6.125767">
        <ele>1901.0</ele>
        <time>2019-05-04T11:41:27Z</time>
      </trkpt>
      <trkpt lat="39.202183" lon="-6.125867">
        <ele>1899.0</ele>
        <time>2019-05-04T11:41:28Z</time>
      </trkpt>
      <trkpt lat="39.202133" lon="-6.125967">
        <ele>1897.0</ele>
        <time>2019-05-04T11:41:29Z</time>
      </trkpt>
      <trkpt lat="39.202083" lon="-6.126067">
        <ele>1894.0</ele>
        <time>2019-05-04T11:41:30Z</time>
      </trkpt>
      <trkpt lat="39.202017" lon="-6.126150">
        <ele>1893.0</ele>
        <time>2019-05-04T11:41:31Z</time>
      </trkpt>
      <trkpt lat="39.201967" lon="-6.126233">
        <ele>1893.0</ele>
        <time>2019-05-04T11:41:32Z</time>
      </trkpt>
      <trkpt lat="39.201950" lon="-6.126300">
        <ele>1893.0</ele>
        <time>2019-05-04T11:41:33Z</time>
      </trkpt>
      <trkpt lat="39.201933" lon="-6.126383">
        <ele>1892.0</ele>
        <time>2019-05-04T11:41:34Z</time>
      </trkpt>
      <trkpt lat="39.201933" lon="-6.126467">
        <ele>1890.0</ele>
        <time>2019-05-04T11:41:35Z</time>
      </trkpt>
      <trkpt lat="39.201933" lon="-6.126583">
        <ele>1888.0</ele>
        <time>2019-05-04T11:41:36Z</time>
      </trkpt>
      <trkpt lat="39.201917" lon="-6.126717">
        <ele>1887.0</ele>
        <time>2019-05-04T11:41:37Z</time>
      </trkpt>
      <trkpt lat="39.201900" lon="-6.126850">
        <ele>1886.0</ele>
        <time>2019-05-04T11:41:38Z</time>
      </trkpt>
      <trkpt lat="39.201900" lon="-6.126983">
        <ele>1887.0</ele>
        <time>2019-05-04T11:41:39Z</time>
      </trkpt>
      <trkpt lat="39.201917" lon="-6.127117">
        <ele>1889.0</ele>
        <time>2019-05-04T11:41:40Z</time>
      </trkpt>
      <trkpt lat="39.201917" lon="-6.127233">
        <ele>1891.0</ele>
        <time>2019-05-04T11:41:41Z</time>
      </trkpt>
      <trkpt lat="39.201917" lon="-6.127350">
        <ele>1892.0</ele>
        <time>2019-05-04T11:41:42Z</time>
      </trkpt>
      <trkpt lat="39.201917" lon="-6.127467">
        <ele>1892.0</ele>
        <time>2019-05-04T11:41:43Z</time>
      </trkpt>
      <trkpt lat="39.201933" lon="-6.127583">
        <ele>1892.0</ele>
        <time>2019-05-04T11:41:44Z</time>
      </trkpt>
      <trkpt lat="39.202000" lon="-6.127667">
        <ele>1892.0</ele>
        <time>2019-05-04T11:41:45Z</time>
      </trkpt>
      <trkpt lat="39.202083" lon="-6.127750">
        <ele>1891.0</ele>
        <time>2019-05-04T11:41:46Z</time>
      </trkpt>
      <trkpt lat="39.202200" lon="-6.127800">
        <ele>1892.0</ele>
        <time>2019-05-04T11:41:47Z</time>
      </trkpt>
      <trkpt lat="39.202300" lon="-6.127817">
        <ele>1898.0</ele>
        <time>2019-05-04T11:41:48Z</time>
      </trkpt>
      <trkpt lat="39.202400" lon="-6.127817">
        <ele>1902.0</ele>
        <time>2019-05-04T11:41:49Z</time>
      </trkpt>
      <trkpt lat="39.202483" lon="-6.127800">
        <ele>1904.0</ele>
        <time>2019-05-04T11:41:50Z</time>
      </trkpt>
      <trkpt lat="39.202550" lon="-6.127767">
        <ele>1906.0</ele>
        <time>2019-05-04T11:41:51Z</time>
      </trkpt>
      <trkpt lat="39.202633" lon="-6.127717">
        <ele>1906.0</ele>
        <time>2019-05-04T11:41:52Z</time>
      </trkpt>
      <trkpt lat="39.202683" lon="-6.127667">
        <ele>1907.0</ele>
        <time>2019-05-04T11:41:53Z</time>
      </trkpt>
      <trkpt lat="39.202750" lon="-6.127583">
        <ele>1907.0</ele>
        <time>2019-05-04T11:41:54Z</time>
      </trkpt>
      <trkpt lat="39.202767" lon="-6.127467">
        <ele>1906.0</ele>
        <time>2019-05-04T11:41:55Z</time>
      </trkpt>
      <trkpt lat="39.202733" lon="-6.127333">
        <ele>1906.0</ele>
        <time>2019-05-04T11:41:56Z</time>
      </trkpt>
      <trkpt lat="39.202667" lon="-6.127217">
        <ele>1905.0</ele>
        <time>2019-05-04T11:41:57Z</time>
      </trkpt>
      <trkpt lat="39.202583" lon="-6.127117">
        <ele>1904.0</ele>
        <time>2019-05-04T11:41:58Z</time>
      </trkpt>
      <trkpt lat="39.202483" lon="-6.127083">
        <ele>1903.0</ele>
        <time>2019-05-04T11:41:59Z</time>
      </trkpt>
      <trkpt lat="39.202383" lon="-6.127067">
        <ele>1904.0</ele>
        <time>2019-05-04T11:42:00Z</time>
      </trkpt>
      <trkpt lat="39.202300" lon="-6.127050">
        <ele>1907.0</ele>
        <time>2019-05-04T11:42:01Z</time>
      </trkpt>
      <trkpt lat="39.202250" lon="-6.127050">
        <ele>1911.0</ele>
        <time>2019-05-04T11:42:02Z</time>
      </trkpt>
      <trkpt lat="39.202183" lon="-6.127050">
        <ele>1913.0</ele>
        <time>2019-05-04T11:42:03Z</time>
      </trkpt>
      <trkpt lat="39.202133" lon="-6.127067">
        <ele>1914.0</ele>
        <time>2019-05-04T11:42:04Z</time>
      </trkpt>
      <trkpt lat="39.202083" lon="-6.127150">
        <ele>1914.0</ele>
        <time>2019-05-04T11:42:05Z</time>
      </trkpt>
      <trkpt lat="39.202050" lon="-6.127250">
        <ele>1914.0</ele>
        <time>2019-05-04T11:42:06Z</time>
      </trkpt>
      <trkpt lat="39.202050" lon="-6.127350">
        <ele>1914.0</ele>
        <time>2019-05-04T11:42:07Z</time>
      </trkpt>
      <trkpt lat="39.202083" lon="-6.127450">
        <ele>1914.0</ele>
        <time>2019-05-04T11:42:08Z</time>
      </trkpt>
      <trkpt lat="39.202150" lon="-6.127517">
        <ele>1914.0</ele>
        <time>2019-05-04T11:42:09Z</time>
      </trkpt>
      <trkpt lat="39.202233" lon="-6.127550">
        <ele>1914.0</ele>
        <time>2019-05-04T11:42:10Z</time>
      </trkpt>
      <trkpt lat="39.202317" lon="-6.127550">
        <ele>1916.0</ele>
        <time>2019-05-04T11:42:11Z</time>
      </trkpt>
      <trkpt lat="39.202383" lon="-6.127517">
        <ele>1919.0</ele>
        <time>2019-05-04T11:42:12Z</time>
      </trkpt>
      <trkpt lat="39.202433" lon="-6.127450">
        <ele>1920.0</ele>
        <time>2019-05-04T11:42:13Z</time>
      </trkpt>
      <trkpt lat="39.202483" lon="-6.127383">
        <ele>1920.0</ele>
        <time>2019-05-04T11:42:14Z</time>
      </trkpt>
      <trkpt lat="39.202517" lon="-6.127283">
        <ele>1921.0</ele>
        <time>2019-05-04T11:42:15Z</time>
      </trkpt>
      <trkpt lat="39.202533" lon="-6.127167">
        <ele>1920.0</ele>
        <time>2019-05-04T11:42:16Z</time>
      </trkpt>
      <trkpt lat="39.202550" lon="-6.127050">
        <ele>1920.0</ele>
        <time>2019-05-04T11:42:17Z</time>
      </trkpt>
      <trkpt lat="39.202550" lon="-6.126933">
        <ele>1920.0</ele>
        <time>2019-05-04T11:42:18Z</time>
      </trkpt>
      <trkpt lat="39.202550" lon="-6.126817">
        <ele>1921.0</ele>
        <time>2019-05-04T11:42:19Z</time>
      </trkpt>
      <trkpt lat="39.202550" lon="-6.126683">
        <ele>1922.0</ele>
        <time>2019-05-04T11:42:20Z</time>
      </trkpt>
      <trkpt lat="39.202533" lon="-6.126567">
        <ele>1922.0</ele>
        <time>2019-05-04T11:42:21Z</time>
      </trkpt>
      <trkpt lat="39.202533" lon="-6.126433">
        <ele>1923.0</ele>
        <time>2019-05-04T11:42:22Z</time>
      </trkpt>
      <trkpt lat="39.202533" lon="-6.126317">
        <ele>1922.0</ele>
        <time>2019-05-04T11:42:23Z</time>
      </trkpt>
      <trkpt lat="39.202533" lon="-6.126167">
        <ele>1922.0</ele>
        <time>2019-05-04T11:42:24Z</time>
      </trkpt>
      <trkpt lat="39.202517" lon="-6.126033">
        <ele>1922.0</ele>
        <time>2019-05-04T11:42:25Z</time>
      </trkpt>
      <trkpt lat="39.202500" lon="-6.125900">
        <ele>1922.0</ele>
        <time>2019-05-04T11:42:26Z</time>
      </trkpt>
      <trkpt lat="39.202483" lon="-6.125783">
        <ele>1922.0</ele>
        <time>2019-05-04T11:42:27Z</time>
      </trkpt>
      <trkpt lat="39.202450" lon="-6.125650">
        <ele>1923.0</ele>
        <time>2019-05-04T11:42:28Z</time>
      </trkpt>
      <trkpt lat="39.202450" lon="-6.125517">
        <ele>1924.0</ele>
        <time>2019-05-04T11:42:29Z</time>
      </trkpt>
      <trkpt lat="39.202450" lon="-6.125383">
        <ele>1924.0</ele>
        <time>2019-05-04T11:42:30Z</time>
      </trkpt>
      <trkpt lat="39.202467" lon="-6.125250">
        <ele>1926.0</ele>
        <time>2019-05-04T11:42:31Z</time>
      </trkpt>
      <trkpt lat="39.202450" lon="-6.125117">
        <ele>1927.0</ele>
        <time>2019-05-04T11:42:32Z</time>
      </trkpt>
      <trkpt lat="39.202433" lon="-6.124967">
        <ele>1927.0</ele>
        <time>2019-05-04T11:42:33Z</time>
      </trkpt>
      <trkpt lat="39.202417" lon="-6.124833">
        <ele>1927.0</ele>
        <time>2019-05-04T11:42:34Z</time>
      </trkpt>
      <trkpt lat="39.202367" lon="-6.124717">
        <ele>1928.0</ele>
        <time>2019-05-04T11:42:35Z</time>
      </trkpt>
      <trkpt lat="39.202300" lon="-6.124600">
        <ele>1929.0</ele>
        <time>2019-05-04T11:42:36Z</time>
      </trkpt>
      <trkpt lat="39.202217" lon="-6.124517">
        <ele>1930.0</ele>
        <time>2019-05-04T11:42:37Z</time>
      </trkpt>
      <trkpt lat="39.202133" lon="-6.124483">
        <ele>1931.0</ele>
        <time>2019-05-04T11:42:38Z</time>
      </trkpt>
      <trkpt lat="39.202050" lon="-6.124483">
        <ele>1931.0</ele>
        <time>2019-05-04T11:42:39Z</time>
      </trkpt>
      <trkpt lat="39.201967" lon="-6.124517">
        <ele>1932.0</ele>
        <time>2019-05-04T11:42:40Z</time>
      </trkpt>
      <trkpt lat="39.201917" lon="-6.124567">
        <ele>1932.0</ele>
        <time>2019-05-04T11:42:41Z</time>
      </trkpt>
      <trkpt lat="39.201883" lon="-6.124633">
        <ele>1933.0</ele>
        <time>2019-05-04T11:42:42Z</time>
      </trkpt>
      <trkpt lat="39.201850" lon="-6.124700">
        <ele>1935.0</ele>
        <time>2019-05-04T11:42:43Z</time>
      </trkpt>
      <trkpt lat="39.201833" lon="-6.124783">
        <ele>1936.0</ele>
        <time>2019-05-04T11:42:44Z</time>
      </trkpt>
      <trkpt lat="39.201833" lon="-6.124867">
        <ele>1937.0</ele>
        <time>2019-05-04T11:42:45Z</time>
      </trkpt>
      <trkpt lat="39.201817" lon="-6.124950">
        <ele>1938.0</ele>
        <time>2019-05-04T11:42:46Z</time>
      </trkpt>
      <trkpt lat="39.201833" lon="-6.125050">
        <ele>1940.0</ele>
        <time>2019-05-04T11:42:47Z</time>
      </trkpt>
      <trkpt lat="39.201850" lon="-6.125150">
        <ele>1940.0</ele>
        <time>2019-05-04T11:42:48Z</time>
      </trkpt>
      <trkpt lat="39.201917" lon="-6.125217">
        <ele>1942.0</ele>
        <time>2019-05-04T11:42:49Z</time>
      </trkpt>
      <trkpt lat="39.201983" lon="-6.125267">
        <ele>1944.0</ele>
        <time>2019-05-04T11:42:50Z</time>
      </trkpt>
      <trkpt lat="39.202067" lon="-6.125267">
        <ele>1946.0</ele>
        <time>2019-05-04T11:42:51Z</time>
      </trkpt>
      <trkpt lat="39.202150" lon="-6.125250">
        <ele>1949.0</ele>
        <time>2019-05-04T11:42:52Z</time>
      </trkpt>
      <trkpt lat="39.202233" lon="-6.125217">
        <ele>1951.0</ele>
        <time>2019-05-04T11:42:53Z</time>
      </trkpt>
      <trkpt lat="39.202300" lon="-6.125133">
        <ele>1952.0</ele>
        <time>2019-05-04T11:42:54Z</time>
      </trkpt>
      <trkpt lat="39.202350" lon="-6.125033">
        <ele>1953.0</ele>
        <time>2019-05-04T11:42:55Z</time>
      </trkpt>
      <trkpt lat="39.202383" lon="-6.124883">
        <ele>1954.0</ele>
        <time>2019-05-04T11:42:56Z</time>
      </trkpt>
      <trkpt lat="39.202400" lon="-6.124733">
        <ele>1954.0</ele>
        <time>2019-05-04T11:42:57Z</time>
      </trkpt>
      <trkpt lat="39.202367" lon="-6.124600">
        <ele>1956.0</ele>
        <time>2019-05-04T11:42:58Z</time>
      </trkpt>
      <trkpt lat="39.202317" lon="-6.124483">
        <ele>1957.0</ele>
        <time>2019-05-04T11:42:59Z</time>
      </trkpt>
      <trkpt lat="39.202267" lon="-6.124383">
        <ele>1958.0</ele>
        <time>2019-05-04T11:43:00Z</time>
      </trkpt>
      <trkpt lat="39.202183" lon="-6.124300">
        <ele>1960.0</ele>
        <time>2019-05-04T11:43:01Z</time>
      </trkpt>
      <trkpt lat="39.202100" lon="-6.124233">
        <ele>1961.0</ele>
        <time>2019-05-04T11:43:02Z</time>
      </trkpt>
      <trkpt lat="39.202000" lon="-6.124183">
        <ele>1962.0</ele>
        <time>2019-05-04T11:43:03Z</time>
      </trkpt>
      <trkpt lat="39.201900" lon="-6.124167">
        <ele>1962.0</ele>
        <time>2019-05-04T11:43:04Z</time>
      </trkpt>
      <trkpt lat="39.201817" lon="-6.124183">
        <ele>1962.0</ele>
        <time>2019-05-04T11:43:05Z</time>
      </trkpt>
      <trkpt lat="39.201733" lon="-6.124233">
        <ele>1963.0</ele>
        <time>2019-05-04T11:43:06Z</time>
      </trkpt>
      <trkpt lat="39.201700" lon="-6.124300">
        <ele>1963.0</ele>
        <time>2019-05-04T11:43:07Z</time>
      </trkpt>
      <trkpt lat="39.201650" lon="-6.124367">
        <ele>1964.0</ele>
        <time>2019-05-04T11:43:08Z</time>
      </trkpt>
      <trkpt lat="39.201633" lon="-6.124450">
        <ele>1964.0</ele>
        <time>2019-05-04T11:43:09Z</time>
      </trkpt>
      <trkpt lat="39.201617" lon="-6.124517">
        <ele>1965.0</ele>
        <time>2019-05-04T11:43:10Z</time>
      </trkpt>
      <trkpt lat="39.201633" lon="-6.124600">
        <ele>1965.0</ele>
        <time>2019-05-04T11:43:11Z</time>
      </trkpt>
      <trkpt lat="39.201650" lon="-6.124683">
        <ele>1966.0</ele>
        <time>2019-05-04T11:43:12Z</time>
      </trkpt>
      <trkpt lat="39.201683" lon="-6.124767">
        <ele>1966.0</ele>
        <time>2019-05-04T11:43:13Z</time>
      </trkpt>
      <trkpt lat="39.201700" lon="-6.124850">
        <ele>1968.0</ele>
        <time>2019-05-04T11:43:14Z</time>
      </trkpt>
      <trkpt lat="39.201717" lon="-6.124917">
        <ele>1970.0</ele>
        <time>2019-05-04T11:43:15Z</time>
      </trkpt>
      <trkpt lat="39.201750" lon="-6.124983">
        <ele>1971.0</ele>
        <time>2019-05-04T11:43:16Z</time>
      </trkpt>
      <trkpt lat="39.201800" lon="-6.125033">
        <ele>1971.0</ele>
        <time>2019-05-04T11:43:17Z</time>
      </trkpt>
      <trkpt lat="39.201867" lon="-6.125050">
        <ele>1973.0</ele>
        <time>2019-05-04T11:43:18Z</time>
      </trkpt>
      <trkpt lat="39.201933" lon="-6.125050">
        <ele>1973.0</ele>
        <time>2019-05-04T11:43:19Z</time>
      </trkpt>
      <trkpt lat="39.202017" lon="-6.125017">
        <ele>1974.0</ele>
        <time>2019-05-04T11:43:20Z</time>
      </trkpt>
      <trkpt lat="39.202067" lon="-6.124950">
        <ele>1975.0</ele>
        <time>2019-05-04T11:43:21Z</time>
      </trkpt>
      <trkpt lat="39.202133" lon="-6.124883">
        <ele>1976.0</ele>
        <time>2019-05-04T11:43:22Z</time>
      </trkpt>
      <trkpt lat="39.202183" lon="-6.124783">
        <ele>1977.0</ele>
        <time>2019-05-04T11:43:23Z</time>
      </trkpt>
      <trkpt lat="39.202233" lon="-6.124667">
        <ele>1976.0</ele>
        <time>2019-05-04T11:43:24Z</time>
      </trkpt>
      <trkpt lat="39.202250" lon="-6.124533">
        <ele>1975.0</ele>
        <time>2019-05-04T11:43:25Z</time>
      </trkpt>
      <trkpt lat="39.202267" lon="-6.124383">
        <ele>1974.0</ele>
        <time>2019-05-04T11:43:26Z</time>
      </trkpt>
      <trkpt lat="39.202250" lon="-6.124217">
        <ele>1972.0</ele>
        <time>2019-05-04T11:43:27Z</time>
      </trkpt>
      <trkpt lat="39.202200" lon="-6.124083">
        <ele>1972.0</ele>
        <time>2019-05-04T11:43:28Z</time>
      </trkpt>
      <trkpt lat="39.202133" lon="-6.123967">
        <ele>1972.0</ele>
        <time>2019-05-04T11:43:29Z</time>
      </trkpt>
      <trkpt lat="39.202067" lon="-6.123850">
        <ele>1972.0</ele>
        <time>2019-05-04T11:43:30Z</time>
      </trkpt>
      <trkpt lat="39.202000" lon="-6.123750">
        <ele>1971.0</ele>
        <time>2019-05-04T11:43:31Z</time>
      </trkpt>
      <trkpt lat="39.201917" lon="-6.123650">
        <ele>1971.0</ele>
        <time>2019-05-04T11:43:32Z</time>
      </trkpt>
      <trkpt lat="39.201817" lon="-6.123583">
        <ele>1971.0</ele>
        <time>2019-05-04T11:43:33Z</time>
      </trkpt>
      <trkpt lat="39.201717" lon="-6.123550">
        <ele>1971.0</ele>
        <time>2019-05-04T11:43:34Z</time>
      </trkpt>
      <trkpt lat="39.201617" lon="-6.123533">
        <ele>1971.0</ele>
        <time>2019-05-04T11:43:35Z</time>
      </trkpt>
      <trkpt lat="39.201517" lon="-6.123550">
        <ele>1972.0</ele>
        <time>2019-05-04T11:43:36Z</time>
      </trkpt>
      <trkpt lat="39.201450" lon="-6.123583">
        <ele>1973.0</ele>
        <time>2019-05-04T11:43:37Z</time>
      </trkpt>
      <trkpt lat="39.201400" lon="-6.123650">
        <ele>1973.0</ele>
        <time>2019-05-04T11:43:38Z</time>
      </trkpt>
      <trkpt lat="39.201350" lon="-6.123733">
        <ele>1973.0</ele>
        <time>2019-05-04T11:43:39Z</time>
      </trkpt>
      <trkpt lat="39.201317" lon="-6.123817">
        <ele>1973.0</ele>
        <time>2019-05-04T11:43:40Z</time>
      </trkpt>
      <trkpt lat="39.201283" lon="-6.123867">
        <ele>1976.0</ele>
        <time>2019-05-04T11:43:41Z</time>
      </trkpt>
      <trkpt lat="39.201250" lon="-6.123917">
        <ele>1978.0</ele>
        <time>2019-05-04T11:43:42Z</time>
      </trkpt>
      <trkpt lat="39.201233" lon="-6.123967">
        <ele>1979.0</ele>
        <time>2019-05-04T11:43:43Z</time>
      </trkpt>
      <trkpt lat="39.201217" lon="-6.124050">
        <ele>1980.0</ele>
        <time>2019-05-04T11:43:44Z</time>
      </trkpt>
      <trkpt lat="39.201233" lon="-6.124150">
        <ele>1980.0</ele>
        <time>2019-05-04T11:43:45Z</time>
      </trkpt>
      <trkpt lat="39.201283" lon="-6.124233">
        <ele>1980.0</ele>
        <time>2019-05-04T11:43:46Z</time>
      </trkpt>
      <trkpt lat="39.201367" lon="-6.124267">
        <ele>1980.0</ele>
        <time>2019-05-04T11:43:47Z</time>
      </trkpt>
      <trkpt lat="39.201450" lon="-6.124250">
        <ele>1981.0</ele>
        <time>2019-05-04T11:43:48Z</time>
      </trkpt>
      <trkpt lat="39.201517" lon="-6.124183">
        <ele>1982.0</ele>
        <time>2019-05-04T11:43:49Z</time>
      </trkpt>
      <trkpt lat="39.201567" lon="-6.124100">
        <ele>1982.0</ele>
        <time>2019-05-04T11:43:50Z</time>
      </trkpt>
      <trkpt lat="39.201600" lon="-6.123983">
        <ele>1981.0</ele>
        <time>2019-05-04T11:43:51Z</time>
      </trkpt>
      <trkpt lat="39.201633" lon="-6.123850">
        <ele>1980.0</ele>
        <time>2019-05-04T11:43:52Z</time>
      </trkpt>
      <trkpt lat="39.201650" lon="-6.123700">
        <ele>1979.0</ele>
        <time>2019-05-04T11:43:53Z</time>
      </trkpt>
      <trkpt lat="39.201633" lon="-6.123567">
        <ele>1978.0</ele>
        <time>2019-05-04T11:43:54Z</time>
      </trkpt>
      <trkpt lat="39.201583" lon="-6.123433">
        <ele>1977.0</ele>
        <time>2019-05-04T11:43:55Z</time>
      </trkpt>
      <trkpt lat="39.201500" lon="-6.123317">
        <ele>1977.0</ele>
        <time>2019-05-04T11:43:56Z</time>
      </trkpt>
      <trkpt lat="39.201400" lon="-6.123250">
        <ele>1977.0</ele>
        <time>2019-05-04T11:43:57Z</time>
      </trkpt>
      <trkpt lat="39.201300" lon="-6.123217">
        <ele>1976.0</ele>
        <time>2019-05-04T11:43:58Z</time>
      </trkpt>
      <trkpt lat="39.201200" lon="-6.123200">
        <ele>1978.0</ele>
        <time>2019-05-04T11:43:59Z</time>
      </trkpt>
      <trkpt lat="39.201133" lon="-6.123217">
        <ele>1979.0</ele>
        <time>2019-05-04T11:44:00Z</time>
      </trkpt>
      <trkpt lat="39.201067" lon="-6.123267">
        <ele>1981.0</ele>
        <time>2019-05-04T11:44:01Z</time>
      </trkpt>
      <trkpt lat="39.201033" lon="-6.123317">
        <ele>1981.0</ele>
        <time>2019-05-04T11:44:02Z</time>
      </trkpt>
      <trkpt lat="39.201000" lon="-6.123383">
        <ele>1981.0</ele>
        <time>2019-05-04T11:44:03Z</time>
      </trkpt>
      <trkpt lat="39.200983" lon="-6.123467">
        <ele>1982.0</ele>
        <time>2019-05-04T11:44:04Z</time>
      </trkpt>
      <trkpt lat="39.200983" lon="-6.123550">
        <ele>1982.0</ele>
        <time>2019-05-04T11:44:05Z</time>
      </trkpt>
      <trkpt lat="39.201017" lon="-6.123633">
        <ele>1982.0</ele>
        <time>2019-05-04T11:44:06Z</time>
      </trkpt>
      <trkpt lat="39.201067" lon="-6.123683">
        <ele>1982.0</ele>
        <time>2019-05-04T11:44:07Z</time>
      </trkpt>
      <trkpt lat="39.201117" lon="-6.123733">
        <ele>1982.0</ele>
        <time>2019-05-04T11:44:08Z</time>
      </trkpt>
      <trkpt lat="39.201200" lon="-6.123750">
        <ele>1982.0</ele>
        <time>2019-05-04T11:44:09Z</time>
      </trkpt>
      <trkpt lat="39.201283" lon="-6.123750">
        <ele>1982.0</ele>
        <time>2019-05-04T11:44:10Z</time>
      </trkpt>
      <trkpt lat="39.201367" lon="-6.123717">
        <ele>1983.0</ele>
        <time>2019-05-04T11:44:11Z</time>
      </trkpt>
      <trkpt lat="39.201433" lon="-6.123700">
        <ele>1984.0</ele>
        <time>2019-05-04T11:44:12Z</time>
      </trkpt>
      <trkpt lat="39.201500" lon="-6.123650">
        <ele>1984.0</ele>
        <time>2019-05-04T11:44:13Z</time>
      </trkpt>
      <trkpt lat="39.201567" lon="-6.123583">
        <ele>1984.0</ele>
        <time>2019-05-04T11:44:14Z</time>
      </trkpt>
      <trkpt lat="39.201633" lon="-6.123500">
        <ele>1984.0</ele>
        <time>2019-05-04T11:44:15Z</time>
      </trkpt>
      <trkpt lat="39.201683" lon="-6.123400">
        <ele>1983.0</ele>
        <time>2019-05-04T11:44:16Z</time>
      </trkpt>
      <trkpt lat="39.201717" lon="-6.123283">
        <ele>1983.0</ele>
        <time>2019-05-04T11:44:17Z</time>
      </trkpt>
      <trkpt lat="39.201750" lon="-6.123150">
        <ele>1982.0</ele>
        <time>2019-05-04T11:44:18Z</time>
      </trkpt>
      <trkpt lat="39.201750" lon="-6.123000">
        <ele>1982.0</ele>
        <time>2019-05-04T11:44:19Z</time>
      </trkpt>
      <trkpt lat="39.201733" lon="-6.122850">
        <ele>1981.0</ele>
        <time>2019-05-04T11:44:20Z</time>
      </trkpt>
      <trkpt lat="39.201683" lon="-6.122717">
        <ele>1980.0</ele>
        <time>2019-05-04T11:44:21Z</time>
      </trkpt>
      <trkpt lat="39.201633" lon="-6.122600">
        <ele>1979.0</ele>
        <time>2019-05-04T11:44:22Z</time>
      </trkpt>
      <trkpt lat="39.201550" lon="-6.122500">
        <ele>1979.0</ele>
        <time>2019-05-04T11:44:23Z</time>
      </trkpt>
      <trkpt lat="39.201467" lon="-6.122400">
        <ele>1978.0</ele>
        <time>2019-05-04T11:44:24Z</time>
      </trkpt>
      <trkpt lat="39.201367" lon="-6.122317">
        <ele>1977.0</ele>
        <time>2019-05-04T11:44:25Z</time>
      </trkpt>
      <trkpt lat="39.201250" lon="-6.122283">
        <ele>1977.0</ele>
        <time>2019-05-04T11:44:26Z</time>
      </trkpt>
      <trkpt lat="39.201150" lon="-6.122267">
        <ele>1977.0</ele>
        <time>2019-05-04T11:44:27Z</time>
      </trkpt>
      <trkpt lat="39.201067" lon="-6.122283">
        <ele>1977.0</ele>
        <time>2019-05-04T11:44:28Z</time>
      </trkpt>
      <trkpt lat="39.200983" lon="-6.122300">
        <ele>1978.0</ele>
        <time>2019-05-04T11:44:29Z</time>
      </trkpt>
      <trkpt lat="39.200900" lon="-6.122300">
        <ele>1978.0</ele>
        <time>2019-05-04T11:44:30Z</time>
      </trkpt>
      <trkpt lat="39.200833" lon="-6.122317">
        <ele>1977.0</ele>
        <time>2019-05-04T11:44:31Z</time>
      </trkpt>
      <trkpt lat="39.200767" lon="-6.122367">
        <ele>1977.0</ele>
        <time>2019-05-04T11:44:32Z</time>
      </trkpt>
      <trkpt lat="39.200733" lon="-6.122433">
        <ele>1976.0</ele>
        <time>2019-05-04T11:44:33Z</time>
      </trkpt>
      <trkpt lat="39.200717" lon="-6.122500">
        <ele>1974.0</ele>
        <time>2019-05-04T11:44:34Z</time>
      </trkpt>
      <trkpt lat="39.200700" lon="-6.122583">
        <ele>1972.0</ele>
        <time>2019-05-04T11:44:35Z</time>
      </trkpt>
      <trkpt lat="39.200700" lon="-6.122667">
        <ele>1971.0</ele>
        <time>2019-05-04T11:44:36Z</time>
      </trkpt>
      <trkpt lat="39.200700" lon="-6.122750">
        <ele>1969.0</ele>
        <time>2019-05-04T11:44:37Z</time>
      </trkpt>
      <trkpt lat="39.200700" lon="-6.122850">
        <ele>1967.0</ele>
        <time>2019-05-04T11:44:38Z</time>
      </trkpt>
      <trkpt lat="39.200717" lon="-6.122933">
        <ele>1965.0</ele>
        <time>2019-05-04T11:44:39Z</time>
      </trkpt>
      <trkpt lat="39.200733" lon="-6.123033">
        <ele>1962.0</ele>
        <time>2019-05-04T11:44:40Z</time>
      </trkpt>
      <trkpt lat="39.200750" lon="-6.123133">
        <ele>1960.0</ele>
        <time>2019-05-04T11:44:41Z</time>
      </trkpt>
      <trkpt lat="39.200767" lon="-6.123233">
        <ele>1959.0</ele>
        <time>2019-05-04T11:44:42Z</time>
      </trkpt>
      <trkpt lat="39.200800" lon="-6.123300">
        <ele>1958.0</ele>
        <time>2019-05-04T11:44:43Z</time>
      </trkpt>
      <trkpt lat="39.200833" lon="-6.123367">
        <ele>1957.0</ele>
        <time>2019-05-04T11:44:44Z</time>
      </trkpt>
      <trkpt lat="39.200867" lon="-6.123433">
        <ele>1956.0</ele>
        <time>2019-05-04T11:44:45Z</time>
      </trkpt>
      <trkpt lat="39.200900" lon="-6.123533">
        <ele>1954.0</ele>
        <time>2019-05-04T11:44:46Z</time>
      </trkpt>
      <trkpt lat="39.200950" lon="-6.123617">
        <ele>1953.0</ele>
        <time>2019-05-04T11:44:47Z</time>
      </trkpt>
      <trkpt lat="39.201000" lon="-6.123700">
        <ele>1953.0</ele>
        <time>2019-05-04T11:44:48Z</time>
      </trkpt>
      <trkpt lat="39.201050" lon="-6.123750">
        <ele>1953.0</ele>
        <time>2019-05-04T11:44:49Z</time>
      </trkpt>
      <trkpt lat="39.201100" lon="-6.123800">
        <ele>1953.0</ele>
        <time>2019-05-04T11:44:50Z</time>
      </trkpt>
      <trkpt lat="39.201133" lon="-6.123850">
        <ele>1952.0</ele>
        <time>2019-05-04T11:44:51Z</time>
      </trkpt>
      <trkpt lat="39.201183" lon="-6.123900">
        <ele>1951.0</ele>
        <time>2019-05-04T11:44:52Z</time>
      </trkpt>
      <trkpt lat="39.201250" lon="-6.123950">
        <ele>1950.0</ele>
        <time>2019-05-04T11:44:53Z</time>
      </trkpt>
      <trkpt lat="39.201300" lon="-6.123983">
        <ele>1949.0</ele>
        <time>2019-05-04T11:44:54Z</time>
      </trkpt>
      <trkpt lat="39.201350" lon="-6.124033">
        <ele>1948.0</ele>
        <time>2019-05-04T11:44:55Z</time>
      </trkpt>
      <trkpt lat="39.201400" lon="-6.124083">
        <ele>1948.0</ele>
        <time>2019-05-04T11:44:56Z</time>
      </trkpt>
      <trkpt lat="39.201450" lon="-6.124133">
        <ele>1947.0</ele>
        <time>2019-05-04T11:44:57Z</time>
      </trkpt>
      <trkpt lat="39.201500" lon="-6.124167">
        <ele>1946.0</ele>
        <time>2019-05-04T11:44:58Z</time>
      </trkpt>
      <trkpt lat="39.201550" lon="-6.124217">
        <ele>1946.0</ele>
        <time>2019-05-04T11:44:59Z</time>
      </trkpt>
      <trkpt lat="39.201617" lon="-6.124233">
        <ele>1945.0</ele>
        <time>2019-05-04T11:45:00Z</time>
      </trkpt>
      <trkpt lat="39.201683" lon="-6.124233">
        <ele>1944.0</ele>
        <time>2019-05-04T11:45:01Z</time>
      </trkpt>
      <trkpt lat="39.201767" lon="-6.124183">
        <ele>1942.0</ele>
        <time>2019-05-04T11:45:02Z</time>
      </trkpt>
      <trkpt lat="39.201850" lon="-6.124133">
        <ele>1939.0</ele>
        <time>2019-05-04T11:45:03Z</time>
      </trkpt>
      <trkpt lat="39.201933" lon="-6.124033">
        <ele>1937.0</ele>
        <time>2019-05-04T11:45:04Z</time>
      </trkpt>
      <trkpt lat="39.201983" lon="-6.123933">
        <ele>1938.0</ele>
        <time>2019-05-04T11:45:05Z</time>
      </trkpt>
      <trkpt lat="39.202017" lon="-6.123817">
        <ele>1937.0</ele>
        <time>2019-05-04T11:45:06Z</time>
      </trkpt>
      <trkpt lat="39.202033" lon="-6.123700">
        <ele>1936.0</ele>
        <time>2019-05-04T11:45:07Z</time>
      </trkpt>
      <trkpt lat="39.202033" lon="-6.123567">
        <ele>1935.0</ele>
        <time>2019-05-04T11:45:08Z</time>
      </trkpt>
      <trkpt lat="39.202033" lon="-6.123433">
        <ele>1933.0</ele>
        <time>2019-05-04T11:45:09Z</time>
      </trkpt>
      <trkpt lat="39.202000" lon="-6.123300">
        <ele>1932.0</ele>
        <time>2019-05-04T11:45:10Z</time>
      </trkpt>
      <trkpt lat="39.201983" lon="-6.123150">
        <ele>1930.0</ele>
        <time>2019-05-04T11:45:11Z</time>
      </trkpt>
      <trkpt lat="39.201950" lon="-6.123017">
        <ele>1928.0</ele>
        <time>2019-05-04T11:45:12Z</time>
      </trkpt>
      <trkpt lat="39.201900" lon="-6.122867">
        <ele>1926.0</ele>
        <time>2019-05-04T11:45:13Z</time>
      </trkpt>
      <trkpt lat="39.201850" lon="-6.122750">
        <ele>1925.0</ele>
        <time>2019-05-04T11:45:14Z</time>
      </trkpt>
      <trkpt lat="39.201800" lon="-6.122633">
        <ele>1923.0</ele>
        <time>2019-05-04T11:45:15Z</time>
      </trkpt>
      <trkpt lat="39.201733" lon="-6.122533">
        <ele>1922.0</ele>
        <time>2019-05-04T11:45:16Z</time>
      </trkpt>
      <trkpt lat="39.201667" lon="-6.122433">
        <ele>1920.0</ele>
        <time>2019-05-04T11:45:17Z</time>
      </trkpt>
      <trkpt lat="39.201600" lon="-6.122333">
        <ele>1918.0</ele>
        <time>2019-05-04T11:45:18Z</time>
      </trkpt>
      <trkpt lat="39.201517" lon="-6.122233">
        <ele>1916.0</ele>
        <time>2019-05-04T11:45:19Z</time>
      </trkpt>
      <trkpt lat="39.201417" lon="-6.122167">
        <ele>1914.0</ele>
        <time>2019-05-04T11:45:20Z</time>
      </trkpt>
      <trkpt lat="39.201317" lon="-6.122117">
        <ele>1913.0</ele>
        <time>2019-05-04T11:45:21Z</time>
      </trkpt>
      <trkpt lat="39.201233" lon="-6.122100">
        <ele>1912.0</ele>
        <time>2019-05-04T11:45:22Z</time>
      </trkpt>
      <trkpt lat="39.201150" lon="-6.122100">
        <ele>1912.0</ele>
        <time>2019-05-04T11:45:23Z</time>
      </trkpt>
      <trkpt lat="39.201067" lon="-6.122150">
        <ele>1911.0</ele>
        <time>2019-05-04T11:45:24Z</time>
      </trkpt>
      <trkpt lat="39.200983" lon="-6.122200">
        <ele>1909.0</ele>
        <time>2019-05-04T11:45:25Z</time>
      </trkpt>
      <trkpt lat="39.200917" lon="-6.122267">
        <ele>1907.0</ele>
        <time>2019-05-04T11:45:26Z</time>
      </trkpt>
      <trkpt lat="39.200883" lon="-6.122350">
        <ele>1907.0</ele>
        <time>2019-05-04T11:45:27Z</time>
      </trkpt>
      <trkpt lat="39.200867" lon="-6.122433">
        <ele>1905.0</ele>
        <time>2019-05-04T11:45:28Z</time>
      </trkpt>
      <trkpt lat="39.200883" lon="-6.122517">
        <ele>1904.0</ele>
        <time>2019-05-04T11:45:29Z</time>
      </trkpt>
      <trkpt lat="39.200883" lon="-6.122583">
        <ele>1902.0</ele>
        <time>2019-05-04T11:45:30Z</time>
      </trkpt>
      <trkpt lat="39.200900" lon="-6.122650">
        <ele>1900.0</ele>
        <time>2019-05-04T11:45:31Z</time>
      </trkpt>
      <trkpt lat="39.200917" lon="-6.122733">
        <ele>1898.0</ele>
        <time>2019-05-04T11:45:32Z</time>
      </trkpt>
      <trkpt lat="39.200967" lon="-6.122800">
        <ele>1896.0</ele>
        <time>2019-05-04T11:45:33Z</time>
      </trkpt>
      <trkpt lat="39.201017" lon="-6.122883">
        <ele>1893.0</ele>
        <time>2019-05-04T11:45:34Z</time>
      </trkpt>
      <trkpt lat="39.201067" lon="-6.122950">
        <ele>1891.0</ele>
        <time>2019-05-04T11:45:35Z</time>
      </trkpt>
      <trkpt lat="39.201117" lon="-6.123017">
        <ele>1890.0</ele>
        <time>2019-05-04T11:45:36Z</time>
      </trkpt>
      <trkpt lat="39.201167" lon="-6.123067">
        <ele>1889.0</ele>
        <time>2019-05-04T11:45:37Z</time>
      </trkpt>
      <trkpt lat="39.201217" lon="-6.123117">
        <ele>1888.0</ele>
        <time>2019-05-04T11:45:38Z</time>
      </trkpt>
      <trkpt lat="39.201267" lon="-6.123167">
        <ele>1887.0</ele>
        <time>2019-05-04T11:45:39Z</time>
      </trkpt>
      <trkpt lat="39.201350" lon="-6.123217">
        <ele>1885.0</ele>
        <time>2019-05-04T11:45:40Z</time>
      </trkpt>
      <trkpt lat="39.201417" lon="-6.123250">
        <ele>1888.0</ele>
        <time>2019-05-04T11:45:41Z</time>
      </trkpt>
      <trkpt lat="39.201567" lon="-6.123283">
        <ele>0.0</ele>
        <time>2019-05-04T11:45:43Z</time>
      </trkpt>
      <trkpt lat="39.201633" lon="-6.123333">
        <ele>1888.0</ele>
        <time>2019-05-04T11:45:44Z</time>
      </trkpt>
      <trkpt lat="39.201717" lon="-6.123383">
        <ele>1888.0</ele>
        <time>2019-05-04T11:45:45Z</time>
      </trkpt>
      <trkpt lat="39.201783" lon="-6.123433">
        <ele>1888.0</ele>
        <time>2019-05-04T11:45:46Z</time>
      </trkpt>
      <trkpt lat="39.201867" lon="-6.123483">
        <ele>1886.0</ele>
        <time>2019-05-04T11:45:47Z</time>
      </trkpt>
      <trkpt lat="39.201933" lon="-6.123500">
        <ele>1884.0</ele>
        <time>2019-05-04T11:45:48Z</time>
      </trkpt>
      <trkpt lat="39.202017" lon="-6.123500">
        <ele>1883.0</ele>
        <time>2019-05-04T11:45:49Z</time>
      </trkpt>
      <trkpt lat="39.202083" lon="-6.123500">
        <ele>1882.0</ele>
        <time>2019-05-04T11:45:50Z</time>
      </trkpt>
      <trkpt lat="39.202133" lon="-6.123500">
        <ele>1880.0</ele>
        <time>2019-05-04T11:45:51Z</time>
      </trkpt>
      <trkpt lat="39.202217" lon="-6.123517">
        <ele>1878.0</ele>
        <time>2019-05-04T11:45:52Z</time>
      </trkpt>
      <trkpt lat="39.202283" lon="-6.123517">
        <ele>1875.0</ele>
        <time>2019-05-04T11:45:53Z</time>
      </trkpt>
      <trkpt lat="39.202350" lon="-6.123483">
        <ele>1873.0</ele>
        <time>2019-05-04T11:45:54Z</time>
      </trkpt>
      <trkpt lat="39.202433" lon="-6.123450">
        <ele>1870.0</ele>
        <time>2019-05-04T11:45:55Z</time>
      </trkpt>
      <trkpt lat="39.202483" lon="-6.123417">
        <ele>1869.0</ele>
        <time>2019-05-04T11:45:56Z</time>
      </trkpt>
      <trkpt lat="39.202550" lon="-6.123383">
        <ele>1869.0</ele>
        <time>2019-05-04T11:45:57Z</time>
      </trkpt>
      <trkpt lat="39.202583" lon="-6.123367">
        <ele>1869.0</ele>
        <time>2019-05-04T11:45:58Z</time>
      </trkpt>
      <trkpt lat="39.202650" lon="-6.123350">
        <ele>1867.0</ele>
        <time>2019-05-04T11:45:59Z</time>
      </trkpt>
      <trkpt lat="39.202700" lon="-6.123333">
        <ele>1866.0</ele>
        <time>2019-05-04T11:46:00Z</time>
      </trkpt>
      <trkpt lat="39.202767" lon="-6.123333">
        <ele>1865.0</ele>
        <time>2019-05-04T11:46:01Z</time>
      </trkpt>
      <trkpt lat="39.202817" lon="-6.123317">
        <ele>1865.0</ele>
        <time>2019-05-04T11:46:02Z</time>
      </trkpt>
      <trkpt lat="39.202867" lon="-6.123300">
        <ele>1865.0</ele>
        <time>2019-05-04T11:46:03Z</time>
      </trkpt>
      <trkpt lat="39.202933" lon="-6.123283">
        <ele>1864.0</ele>
        <time>2019-05-04T11:46:04Z</time>
      </trkpt>
      <trkpt lat="39.202983" lon="-6.123250">
        <ele>1863.0</ele>
        <time>2019-05-04T11:46:05Z</time>
      </trkpt>
      <trkpt lat="39.203050" lon="-6.123233">
        <ele>1860.0</ele>
        <time>2019-05-04T11:46:06Z</time>
      </trkpt>
      <trkpt lat="39.203117" lon="-6.123217">
        <ele>1857.0</ele>
        <time>2019-05-04T11:46:07Z</time>
      </trkpt>
      <trkpt lat="39.203183" lon="-6.123217">
        <ele>1856.0</ele>
        <time>2019-05-04T11:46:08Z</time>
      </trkpt>
      <trkpt lat="39.203233" lon="-6.123200">
        <ele>1855.0</ele>
        <time>2019-05-04T11:46:09Z</time>
      </trkpt>
      <trkpt lat="39.203283" lon="-6.123183">
        <ele>1853.0</ele>
        <time>2019-05-04T11:46:10Z</time>
      </trkpt>
      <trkpt lat="39.203350" lon="-6.123183">
        <ele>1851.0</ele>
        <time>2019-05-04T11:46:11Z</time>
      </trkpt>
      <trkpt lat="39.203417" lon="-6.123183">
        <ele>1849.0</ele>
        <time>2019-05-04T11:46:12Z</time>
      </trkpt>
      <trkpt lat="39.203483" lon="-6.123200">
        <ele>1847.0</ele>
        <time>2019-05-04T11:46:13Z</time>
      </trkpt>
      <trkpt lat="39.203550" lon="-6.123200">
        <ele>1846.0</ele>
        <time>2019-05-04T11:46:14Z</time>
      </trkpt>
      <trkpt lat="39.203600" lon="-6.123183">
        <ele>1847.0</ele>
        <time>2019-05-04T11:46:15Z</time>
      </trkpt>
      <trkpt lat="39.203650" lon="-6.123183">
        <ele>1846.0</ele>
        <time>2019-05-04T11:46:16Z</time>
      </trkpt>
      <trkpt lat="39.203700" lon="-6.123183">
        <ele>1843.0</ele>
        <time>2019-05-04T11:46:17Z</time>
      </trkpt>
      <trkpt lat="39.203767" lon="-6.123167">
        <ele>1840.0</ele>
        <time>2019-05-04T11:46:18Z</time>
      </trkpt>
      <trkpt lat="39.203833" lon="-6.123150">
        <ele>1837.0</ele>
        <time>2019-05-04T11:46:19Z</time>
      </trkpt>
      <trkpt lat="39.203917" lon="-6.123133">
        <ele>1835.0</ele>
        <time>2019-05-04T11:46:20Z</time>
      </trkpt>
      <trkpt lat="39.203983" lon="-6.123083">
        <ele>1833.0</ele>
        <time>2019-05-04T11:46:21Z</time>
      </trkpt>
      <trkpt lat="39.204050" lon="-6.123033">
        <ele>1831.0</ele>
        <time>2019-05-04T11:46:22Z</time>
      </trkpt>
      <trkpt lat="39.204100" lon="-6.122967">
        <ele>1830.0</ele>
        <time>2019-05-04T11:46:23Z</time>
      </trkpt>
      <trkpt lat="39.204133" lon="-6.122900">
        <ele>1828.0</ele>
        <time>2019-05-04T11:46:24Z</time>
      </trkpt>
      <trkpt lat="39.204183" lon="-6.122833">
        <ele>1826.0</ele>
        <time>2019-05-04T11:46:25Z</time>
      </trkpt>
      <trkpt lat="39.204233" lon="-6.122767">
        <ele>1824.0</ele>
        <time>2019-05-04T11:46:26Z</time>
      </trkpt>
      <trkpt lat="39.204283" lon="-6.122733">
        <ele>1823.0</ele>
        <time>2019-05-04T11:46:27Z</time>
      </trkpt>
      <trkpt lat="39.204450" lon="-6.122617">
        <ele>0.0</ele>
        <time>2019-05-04T11:46:30Z</time>
      </trkpt>
      <trkpt lat="39.204467" lon="-6.122417">
        <ele>1825.0</ele>
        <time>2019-05-04T11:46:31Z</time>
      </trkpt>
      <trkpt lat="39.204483" lon="-6.122250">
        <ele>1825.0</ele>
        <time>2019-05-04T11:46:32Z</time>
      </trkpt>
      <trkpt lat="39.204517" lon="-6.122117">
        <ele>1824.0</ele>
        <time>2019-05-04T11:46:33Z</time>
      </trkpt>
      <trkpt lat="39.204517" lon="-6.121983">
        <ele>1824.0</ele>
        <time>2019-05-04T11:46:34Z</time>
      </trkpt>
      <trkpt lat="39.204533" lon="-6.121883">
        <ele>1824.0</ele>
        <time>2019-05-04T11:46:35Z</time>
      </trkpt>
      <trkpt lat="39.204567" lon="-6.121783">
        <ele>1824.0</ele>
        <time>2019-05-04T11:46:36Z</time>
      </trkpt>
      <trkpt lat="39.204583" lon="-6.121667">
        <ele>1823.0</ele>
        <time>2019-05-04T11:46:37Z</time>
      </trkpt>
      <trkpt lat="39.204617" lon="-6.121567">
        <ele>1820.0</ele>
        <time>2019-05-04T11:46:38Z</time>
      </trkpt>
      <trkpt lat="39.204650" lon="-6.121450">
        <ele>1819.0</ele>
        <time>2019-05-04T11:46:39Z</time>
      </trkpt>
      <trkpt lat="39.204667" lon="-6.121350">
        <ele>1817.0</ele>
        <time>2019-05-04T11:46:40Z</time>
      </trkpt>
      <trkpt lat="39.204667" lon="-6.121250">
        <ele>1816.0</ele>
        <time>2019-05-04T11:46:41Z</time>
      </trkpt>
      <trkpt lat="39.204633" lon="-6.121133">
        <ele>1815.0</ele>
        <time>2019-05-04T11:46:42Z</time>
      </trkpt>
      <trkpt lat="39.204583" lon="-6.121017">
        <ele>1813.0</ele>
        <time>2019-05-04T11:46:43Z</time>
      </trkpt>
      <trkpt lat="39.204533" lon="-6.120917">
        <ele>1812.0</ele>
        <time>2019-05-04T11:46:44Z</time>
      </trkpt>
      <trkpt lat="39.204483" lon="-6.120833">
        <ele>1810.0</ele>
        <time>2019-05-04T11:46:45Z</time>
      </trkpt>
      <trkpt lat="39.204417" lon="-6.120750">
        <ele>1808.0</ele>
        <time>2019-05-04T11:46:46Z</time>
      </trkpt>
      <trkpt lat="39.204333" lon="-6.120683">
        <ele>1805.0</ele>
        <time>2019-05-04T11:46:47Z</time>
      </trkpt>
      <trkpt lat="39.204217" lon="-6.120633">
        <ele>1802.0</ele>
        <time>2019-05-04T11:46:48Z</time>
      </trkpt>
      <trkpt lat="39.204083" lon="-6.120617">
        <ele>1800.0</ele>
        <time>2019-05-04T11:46:49Z</time>
      </trkpt>
      <trkpt lat="39.203967" lon="-6.120633">
        <ele>1798.0</ele>
        <time>2019-05-04T11:46:50Z</time>
      </trkpt>
      <trkpt lat="39.203867" lon="-6.120667">
        <ele>1796.0</ele>
        <time>2019-05-04T11:46:51Z</time>
      </trkpt>
      <trkpt lat="39.203767" lon="-6.120717">
        <ele>1794.0</ele>
        <time>2019-05-04T11:46:52Z</time>
      </trkpt>
      <trkpt lat="39.203683" lon="-6.120783">
        <ele>1791.0</ele>
        <time>2019-05-04T11:46:53Z</time>
      </trkpt>
      <trkpt lat="39.203600" lon="-6.120833">
        <ele>1789.0</ele>
        <time>2019-05-04T11:46:54Z</time>
      </trkpt>
      <trkpt lat="39.203533" lon="-6.120917">
        <ele>1787.0</ele>
        <time>2019-05-04T11:46:55Z</time>
      </trkpt>
      <trkpt lat="39.203467" lon="-6.121000">
        <ele>1785.0</ele>
        <time>2019-05-04T11:46:56Z</time>
      </trkpt>
      <trkpt lat="39.203417" lon="-6.121100">
        <ele>1783.0</ele>
        <time>2019-05-04T11:46:57Z</time>
      </trkpt>
      <trkpt lat="39.203383" lon="-6.121183">
        <ele>1780.0</ele>
        <time>2019-05-04T11:46:58Z</time>
      </trkpt>
      <trkpt lat="39.203350" lon="-6.121283">
        <ele>1778.0</ele>
        <time>2019-05-04T11:46:59Z</time>
      </trkpt>
      <trkpt lat="39.203300" lon="-6.121383">
        <ele>1775.0</ele>
        <time>2019-05-04T11:47:00Z</time>
      </trkpt>
      <trkpt lat="39.203233" lon="-6.121483">
        <ele>1773.0</ele>
        <time>2019-05-04T11:47:01Z</time>
      </trkpt>
      <trkpt lat="39.203183" lon="-6.121583">
        <ele>1771.0</ele>
        <time>2019-05-04T11:47:02Z</time>
      </trkpt>
      <trkpt lat="39.203150" lon="-6.121667">
        <ele>1770.0</ele>
        <time>2019-05-04T11:47:03Z</time>
      </trkpt>
      <trkpt lat="39.203117" lon="-6.121750">
        <ele>1769.0</ele>
        <time>2019-05-04T11:47:04Z</time>
      </trkpt>
      <trkpt lat="39.203083" lon="-6.121833">
        <ele>1768.0</ele>
        <time>2019-05-04T11:47:05Z</time>
      </trkpt>
      <trkpt lat="39.203050" lon="-6.121900">
        <ele>1768.0</ele>
        <time>2019-05-04T11:47:06Z</time>
      </trkpt>
      <trkpt lat="39.203017" lon="-6.121967">
        <ele>1767.0</ele>
        <time>2019-05-04T11:47:07Z</time>
      </trkpt>
      <trkpt lat="39.202983" lon="-6.122033">
        <ele>1766.0</ele>
        <time>2019-05-04T11:47:08Z</time>
      </trkpt>
      <trkpt lat="39.202967" lon="-6.122117">
        <ele>1765.0</ele>
        <time>2019-05-04T11:47:09Z</time>
      </trkpt>
      <trkpt lat="39.202967" lon="-6.122200">
        <ele>1763.0</ele>
        <time>2019-05-04T11:47:10Z</time>
      </trkpt>
      <trkpt lat="39.202950" lon="-6.122283">
        <ele>1761.0</ele>
        <time>2019-05-04T11:47:11Z</time>
      </trkpt>
      <trkpt lat="39.202950" lon="-6.122367">
        <ele>1759.0</ele>
        <time>2019-05-04T11:47:12Z</time>
      </trkpt>
      <trkpt lat="39.202933" lon="-6.122450">
        <ele>1757.0</ele>
        <time>2019-05-04T11:47:13Z</time>
      </trkpt>
      <trkpt lat="39.202917" lon="-6.122533">
        <ele>1755.0</ele>
        <time>2019-05-04T11:47:14Z</time>
      </trkpt>
      <trkpt lat="39.202900" lon="-6.122633">
        <ele>1753.0</ele>
        <time>2019-05-04T11:47:15Z</time>
      </trkpt>
      <trkpt lat="39.202900" lon="-6.122717">
        <ele>1751.0</ele>
        <time>2019-05-04T11:47:16Z</time>
      </trkpt>
      <trkpt lat="39.202900" lon="-6.122817">
        <ele>1749.0</ele>
        <time>2019-05-04T11:47:17Z</time>
      </trkpt>
      <trkpt lat="39.202917" lon="-6.122917">
        <ele>1747.0</ele>
        <time>2019-05-04T11:47:18Z</time>
      </trkpt>
      <trkpt lat="39.202917" lon="-6.123000">
        <ele>1748.0</ele>
        <time>2019-05-04T11:47:19Z</time>
      </trkpt>
      <trkpt lat="39.202917" lon="-6.123067">
        <ele>1748.0</ele>
        <time>2019-05-04T11:47:20Z</time>
      </trkpt>
      <trkpt lat="39.202933" lon="-6.123133">
        <ele>1746.0</ele>
        <time>2019-05-04T11:47:21Z</time>
      </trkpt>
      <trkpt lat="39.202933" lon="-6.123217">
        <ele>1744.0</ele>
        <time>2019-05-04T11:47:22Z</time>
      </trkpt>
      <trkpt lat="39.202933" lon="-6.123300">
        <ele>1742.0</ele>
        <time>2019-05-04T11:47:23Z</time>
      </trkpt>
      <trkpt lat="39.202933" lon="-6.123383">
        <ele>1740.0</ele>
        <time>2019-05-04T11:47:24Z</time>
      </trkpt>
      <trkpt lat="39.202933" lon="-6.123450">
        <ele>1738.0</ele>
        <time>2019-05-04T11:47:25Z</time>
      </trkpt>
      <trkpt lat="39.202950" lon="-6.123517">
        <ele>1736.0</ele>
        <time>2019-05-04T11:47:26Z</time>
      </trkpt>
      <trkpt lat="39.202983" lon="-6.123567">
        <ele>1734.0</ele>
        <time>2019-05-04T11:47:27Z</time>
      </trkpt>
      <trkpt lat="39.203017" lon="-6.123633">
        <ele>1733.0</ele>
        <time>2019-05-04T11:47:28Z</time>
      </trkpt>
      <trkpt lat="39.203050" lon="-6.123683">
        <ele>1731.0</ele>
        <time>2019-05-04T11:47:29Z</time>
      </trkpt>
      <trkpt lat="39.203100" lon="-6.123717">
        <ele>1730.0</ele>
        <time>2019-05-04T11:47:30Z</time>
      </trkpt>
      <trkpt lat="39.203150" lon="-6.123783">
        <ele>1729.0</ele>
        <time>2019-05-04T11:47:31Z</time>
      </trkpt>
      <trkpt lat="39.203200" lon="-6.123867">
        <ele>1730.0</ele>
        <time>2019-05-04T11:47:32Z</time>
      </trkpt>
      <trkpt lat="39.203250" lon="-6.123950">
        <ele>1731.0</ele>
        <time>2019-05-04T11:47:33Z</time>
      </trkpt>
      <trkpt lat="39.203283" lon="-6.124017">
        <ele>1736.0</ele>
        <time>2019-05-04T11:47:34Z</time>
      </trkpt>
      <trkpt lat="39.203333" lon="-6.124067">
        <ele>1738.0</ele>
        <time>2019-05-04T11:47:35Z</time>
      </trkpt>
      <trkpt lat="39.203367" lon="-6.124100">
        <ele>1738.0</ele>
        <time>2019-05-04T11:47:36Z</time>
      </trkpt>
      <trkpt lat="39.203417" lon="-6.124133">
        <ele>1738.0</ele>
        <time>2019-05-04T11:47:37Z</time>
      </trkpt>
      <trkpt lat="39.203467" lon="-6.124200">
        <ele>1738.0</ele>
        <time>2019-05-04T11:47:38Z</time>
      </trkpt>
      <trkpt lat="39.203517" lon="-6.124250">
        <ele>1736.0</ele>
        <time>2019-05-04T11:47:39Z</time>
      </trkpt>
      <trkpt lat="39.203583" lon="-6.124317">
        <ele>1735.0</ele>
        <time>2019-05-04T11:47:40Z</time>
      </trkpt>
      <trkpt lat="39.203633" lon="-6.124350">
        <ele>1734.0</ele>
        <time>2019-05-04T11:47:41Z</time>
      </trkpt>
      <trkpt lat="39.203700" lon="-6.124383">
        <ele>1734.0</ele>
        <time>2019-05-04T11:47:42Z</time>
      </trkpt>
      <trkpt lat="39.203750" lon="-6.124400">
        <ele>1734.0</ele>
        <time>2019-05-04T11:47:43Z</time>
      </trkpt>
      <trkpt lat="39.203800" lon="-6.124433">
        <ele>1733.0</ele>
        <time>2019-05-04T11:47:44Z</time>
      </trkpt>
      <trkpt lat="39.203867" lon="-6.124467">
        <ele>1731.0</ele>
        <time>2019-05-04T11:47:45Z</time>
      </trkpt>
      <trkpt lat="39.203933" lon="-6.124517">
        <ele>1729.0</ele>
        <time>2019-05-04T11:47:46Z</time>
      </trkpt>
      <trkpt lat="39.204000" lon="-6.124567">
        <ele>1728.0</ele>
        <time>2019-05-04T11:47:47Z</time>
      </trkpt>
      <trkpt lat="39.204067" lon="-6.124600">
        <ele>1728.0</ele>
        <time>2019-05-04T11:47:48Z</time>
      </trkpt>
      <trkpt lat="39.204133" lon="-6.124633">
        <ele>1728.0</ele>
        <time>2019-05-04T11:47:49Z</time>
      </trkpt>
      <trkpt lat="39.204183" lon="-6.124667">
        <ele>1729.0</ele>
        <time>2019-05-04T11:47:50Z</time>
      </trkpt>
      <trkpt lat="39.204250" lon="-6.124683">
        <ele>1728.0</ele>
        <time>2019-05-04T11:47:51Z</time>
      </trkpt>
      <trkpt lat="39.204317" lon="-6.124717">
        <ele>1727.0</ele>
        <time>2019-05-04T11:47:52Z</time>
      </trkpt>
      <trkpt lat="39.204400" lon="-6.124767">
        <ele>1725.0</ele>
        <time>2019-05-04T11:47:53Z</time>
      </trkpt>
      <trkpt lat="39.204467" lon="-6.124800">
        <ele>1724.0</ele>
        <time>2019-05-04T11:47:54Z</time>
      </trkpt>
      <trkpt lat="39.204533" lon="-6.124833">
        <ele>1724.0</ele>
        <time>2019-05-04T11:47:55Z</time>
      </trkpt>
      <trkpt lat="39.204600" lon="-6.124867">
        <ele>1723.0</ele>
        <time>2019-05-04T11:47:56Z</time>
      </trkpt>
      <trkpt lat="39.204667" lon="-6.124900">
        <ele>1722.0</ele>
        <time>2019-05-04T11:47:57Z</time>
      </trkpt>
      <trkpt lat="39.204750" lon="-6.124933">
        <ele>1721.0</ele>
        <time>2019-05-04T11:47:58Z</time>
      </trkpt>
      <trkpt lat="39.204850" lon="-6.124983">
        <ele>1720.0</ele>
        <time>2019-05-04T11:47:59Z</time>
      </trkpt>
      <trkpt lat="39.204950" lon="-6.125000">
        <ele>1721.0</ele>
        <time>2019-05-04T11:48:00Z</time>
      </trkpt>
      <trkpt lat="39.205033" lon="-6.125017">
        <ele>1726.0</ele>
        <time>2019-05-04T11:48:01Z</time>
      </trkpt>
      <trkpt lat="39.205100" lon="-6.125033">
        <ele>1730.0</ele>
        <time>2019-05-04T11:48:02Z</time>
      </trkpt>
      <trkpt lat="39.205150" lon="-6.125067">
        <ele>1732.0</ele>
        <time>2019-05-04T11:48:03Z</time>
      </trkpt>
      <trkpt lat="39.205200" lon="-6.125100">
        <ele>1734.0</ele>
        <time>2019-05-04T11:48:04Z</time>
      </trkpt>
      <trkpt lat="39.205267" lon="-6.125133">
        <ele>1736.0</ele>
        <time>2019-05-04T11:48:05Z</time>
      </trkpt>
      <trkpt lat="39.205367" lon="-6.125133">
        <ele>1736.0</ele>
        <time>2019-05-04T11:48:06Z</time>
      </trkpt>
      <trkpt lat="39.205450" lon="-6.125083">
        <ele>1736.0</ele>
        <time>2019-05-04T11:48:07Z</time>
      </trkpt>
      <trkpt lat="39.205517" lon="-6.125000">
        <ele>1737.0</ele>
        <time>2019-05-04T11:48:08Z</time>
      </trkpt>
      <trkpt lat="39.205550" lon="-6.124883">
        <ele>1737.0</ele>
        <time>2019-05-04T11:48:09Z</time>
      </trkpt>
      <trkpt lat="39.205533" lon="-6.124750">
        <ele>1738.0</ele>
        <time>2019-05-04T11:48:10Z</time>
      </trkpt>
      <trkpt lat="39.205483" lon="-6.124650">
        <ele>1739.0</ele>
        <time>2019-05-04T11:48:11Z</time>
      </trkpt>
      <trkpt lat="39.205400" lon="-6.124550">
        <ele>1739.0</ele>
        <time>2019-05-04T11:48:12Z</time>
      </trkpt>
      <trkpt lat="39.205317" lon="-6.124483">
        <ele>1741.0</ele>
        <time>2019-05-04T11:48:13Z</time>
      </trkpt>
      <trkpt lat="39.205233" lon="-6.124467">
        <ele>1743.0</ele>
        <time>2019-05-04T11:48:14Z</time>
      </trkpt>
      <trkpt lat="39.205150" lon="-6.124500">
        <ele>1746.0</ele>
        <time>2019-05-04T11:48:15Z</time>
      </trkpt>
      <trkpt lat="39.205100" lon="-6.124567">
        <ele>1748.0</ele>
        <time>2019-05-04T11:48:16Z</time>
      </trkpt>
      <trkpt lat="39.205067" lon="-6.124667">
        <ele>1750.0</ele>
        <time>2019-05-04T11:48:17Z</time>
      </trkpt>
      <trkpt lat="39.205067" lon="-6.124767">
        <ele>1751.0</ele>
        <time>2019-05-04T11:48:18Z</time>
      </trkpt>
      <trkpt lat="39.205083" lon="-6.124867">
        <ele>1753.0</ele>
        <time>2019-05-04T11:48:19Z</time>
      </trkpt>
      <trkpt lat="39.205133" lon="-6.124933">
        <ele>1755.0</ele>
        <time>2019-05-04T11:48:20Z</time>
      </trkpt>
      <trkpt lat="39.205217" lon="-6.124983">
        <ele>1757.0</ele>
        <time>2019-05-04T11:48:21Z</time>
      </trkpt>
      <trkpt lat="39.205300" lon="-6.124983">
        <ele>1758.0</ele>
        <time>2019-05-04T11:48:22Z</time>
      </trkpt>
      <trkpt lat="39.205383" lon="-6.124933">
        <ele>1759.0</ele>
        <time>2019-05-04T11:48:23Z</time>
      </trkpt>
      <trkpt lat="39.205467" lon="-6.124850">
        <ele>1760.0</ele>
        <time>2019-05-04T11:48:24Z</time>
      </trkpt>
      <trkpt lat="39.205500" lon="-6.124750">
        <ele>1761.0</ele>
        <time>2019-05-04T11:48:25Z</time>
      </trkpt>
      <trkpt lat="39.205500" lon="-6.124633">
        <ele>1762.0</ele>
        <time>2019-05-04T11:48:26Z</time>
      </trkpt>
      <trkpt lat="39.205467" lon="-6.124533">
        <ele>1762.0</ele>
        <time>2019-05-04T11:48:27Z</time>
      </trkpt>
      <trkpt lat="39.205417" lon="-6.124433">
        <ele>1762.0</ele>
        <time>2019-05-04T11:48:28Z</time>
      </trkpt>
      <trkpt lat="39.205350" lon="-6.124350">
        <ele>1763.0</ele>
        <time>2019-05-04T11:48:29Z</time>
      </trkpt>
      <trkpt lat="39.205267" lon="-6.124283">
        <ele>1764.0</ele>
        <time>2019-05-04T11:48:30Z</time>
      </trkpt>
      <trkpt lat="39.205183" lon="-6.124250">
        <ele>1765.0</ele>
        <time>2019-05-04T11:48:31Z</time>
      </trkpt>
      <trkpt lat="39.205083" lon="-6.124267">
        <ele>1766.0</ele>
        <time>2019-05-04T11:48:32Z</time>
      </trkpt>
      <trkpt lat="39.205017" lon="-6.124317">
        <ele>1769.0</ele>
        <time>2019-05-04T11:48:33Z</time>
      </trkpt>
      <trkpt lat="39.204967" lon="-6.124400">
        <ele>1771.0</ele>
        <time>2019-05-04T11:48:34Z</time>
      </trkpt>
      <trkpt lat="39.204950" lon="-6.124500">
        <ele>1773.0</ele>
        <time>2019-05-04T11:48:35Z</time>
      </trkpt>
      <trkpt lat="39.204967" lon="-6.124600">
        <ele>1775.0</ele>
        <time>2019-05-04T11:48:36Z</time>
      </trkpt>
      <trkpt lat="39.205000" lon="-6.124700">
        <ele>1776.0</ele>
        <time>2019-05-04T11:48:37Z</time>
      </trkpt>
      <trkpt lat="39.205050" lon="-6.124750">
        <ele>1779.0</ele>
        <time>2019-05-04T11:48:38Z</time>
      </trkpt>
      <trkpt lat="39.205117" lon="-6.124783">
        <ele>1783.0</ele>
        <time>2019-05-04T11:48:39Z</time>
      </trkpt>
      <trkpt lat="39.205183" lon="-6.124783">
        <ele>1786.0</ele>
        <time>2019-05-04T11:48:40Z</time>
      </trkpt>
      <trkpt lat="39.205250" lon="-6.124767">
        <ele>1788.0</ele>
        <time>2019-05-04T11:48:41Z</time>
      </trkpt>
      <trkpt lat="39.205333" lon="-6.124750">
        <ele>1788.0</ele>
        <time>2019-05-04T11:48:42Z</time>
      </trkpt>
      <trkpt lat="39.205400" lon="-6.124700">
        <ele>1788.0</ele>
        <time>2019-05-04T11:48:43Z</time>
      </trkpt>
      <trkpt lat="39.205450" lon="-6.124617">
        <ele>1787.0</ele>
        <time>2019-05-04T11:48:44Z</time>
      </trkpt>
      <trkpt lat="39.205450" lon="-6.124500">
        <ele>1786.0</ele>
        <time>2019-05-04T11:48:45Z</time>
      </trkpt>
      <trkpt lat="39.205417" lon="-6.124383">
        <ele>1785.0</ele>
        <time>2019-05-04T11:48:46Z</time>
      </trkpt>
      <trkpt lat="39.205367" lon="-6.124283">
        <ele>1784.0</ele>
        <time>2019-05-04T11:48:47Z</time>
      </trkpt>
      <trkpt lat="39.205317" lon="-6.124183">
        <ele>1783.0</ele>
        <time>2019-05-04T11:48:48Z</time>
      </trkpt>
      <trkpt lat="39.205233" lon="-6.124100">
        <ele>1783.0</ele>
        <time>2019-05-04T11:48:49Z</time>
      </trkpt>
      <trkpt lat="39.205133" lon="-6.124033">
        <ele>1783.0</ele>
        <time>2019-05-04T11:48:50Z</time>
      </trkpt>
      <trkpt lat="39.205050" lon="-6.123983">
        <ele>1785.0</ele>
        <time>2019-05-04T11:48:51Z</time>
      </trkpt>
      <trkpt lat="39.204967" lon="-6.123967">
        <ele>1789.0</ele>
        <time>2019-05-04T11:48:52Z</time>
      </trkpt>
      <trkpt lat="39.204900" lon="-6.123950">
        <ele>1793.0</ele>
        <time>2019-05-04T11:48:53Z</time>
      </trkpt>
      <trkpt lat="39.204833" lon="-6.123933">
        <ele>1796.0</ele>
        <time>2019-05-04T11:48:54Z</time>
      </trkpt>
      <trkpt lat="39.204767" lon="-6.123950">
        <ele>1797.0</ele>
        <time>2019-05-04T11:48:55Z</time>
      </trkpt>
      <trkpt lat="39.204683" lon="-6.123983">
        <ele>1798.0</ele>
        <time>2019-05-04T11:48:56Z</time>
      </trkpt>
      <trkpt lat="39.204633" lon="-6.124067">
        <ele>1799.0</ele>
        <time>2019-05-04T11:48:57Z</time>
      </trkpt>
      <trkpt lat="39.204600" lon="-6.124150">
        <ele>1801.0</ele>
        <time>2019-05-04T11:48:58Z</time>
      </trkpt>
      <trkpt lat="39.204633" lon="-6.124250">
        <ele>1803.0</ele>
        <time>2019-05-04T11:48:59Z</time>
      </trkpt>
      <trkpt lat="39.204683" lon="-6.124300">
        <ele>1804.0</ele>
        <time>2019-05-04T11:49:00Z</time>
      </trkpt>
      <trkpt lat="39.204767" lon="-6.124283">
        <ele>1806.0</ele>
        <time>2019-05-04T11:49:01Z</time>
      </trkpt>
      <trkpt lat="39.204850" lon="-6.124217">
        <ele>1809.0</ele>
        <time>2019-05-04T11:49:02Z</time>
      </trkpt>
      <trkpt lat="39.204900" lon="-6.124100">
        <ele>1811.0</ele>
        <time>2019-05-04T11:49:03Z</time>
      </trkpt>
      <trkpt lat="39.204917" lon="-6.123967">
        <ele>1813.0</ele>
        <time>2019-05-04T11:49:04Z</time>
      </trkpt>
      <trkpt lat="39.204883" lon="-6.123817">
        <ele>1815.0</ele>
        <time>2019-05-04T11:49:05Z</time>
      </trkpt>
      <trkpt lat="39.204833" lon="-6.123700">
        <ele>1818.0</ele>
        <time>2019-05-04T11:49:06Z</time>
      </trkpt>
      <trkpt lat="39.204767" lon="-6.123633">
        <ele>1821.0</ele>
        <time>2019-05-04T11:49:07Z</time>
      </trkpt>
      <trkpt lat="39.204683" lon="-6.123600">
        <ele>1824.0</ele>
        <time>2019-05-04T11:49:08Z</time>
      </trkpt>
      <trkpt lat="39.204583" lon="-6.123600">
        <ele>1826.0</ele>
        <time>2019-05-04T11:49:09Z</time>
      </trkpt>
      <trkpt lat="39.204500" lon="-6.123633">
        <ele>1828.0</ele>
        <time>2019-05-04T11:49:10Z</time>
      </trkpt>
      <trkpt lat="39.204450" lon="-6.123683">
        <ele>1830.0</ele>
        <time>2019-05-04T11:49:11Z</time>
      </trkpt>
      <trkpt lat="39.204417" lon="-6.123783">
        <ele>1832.0</ele>
        <time>2019-05-04T11:49:12Z</time>
      </trkpt>
      <trkpt lat="39.204417" lon="-6.123883">
        <ele>1833.0</ele>
        <time>2019-05-04T11:49:13Z</time>
      </trkpt>
      <trkpt lat="39.204450" lon="-6.123967">
        <ele>1835.0</ele>
        <time>2019-05-04T11:49:14Z</time>
      </trkpt>
      <trkpt lat="39.204483" lon="-6.124033">
        <ele>1837.0</ele>
        <time>2019-05-04T11:49:15Z</time>
      </trkpt>
      <trkpt lat="39.204567" lon="-6.124067">
        <ele>1840.0</ele>
        <time>2019-05-04T11:49:16Z</time>
      </trkpt>
      <trkpt lat="39.204650" lon="-6.124050">
        <ele>1842.0</ele>
        <time>2019-05-04T11:49:17Z</time>
      </trkpt>
      <trkpt lat="39.204733" lon="-6.124000">
        <ele>1844.0</ele>
        <time>2019-05-04T11:49:18Z</time>
      </trkpt>
      <trkpt lat="39.204783" lon="-6.123900">
        <ele>1847.0</ele>
        <time>2019-05-04T11:49:19Z</time>
      </trkpt>
      <trkpt lat="39.204833" lon="-6.123783">
        <ele>1849.0</ele>
        <time>2019-05-04T11:49:20Z</time>
      </trkpt>
      <trkpt lat="39.204850" lon="-6.123633">
        <ele>1850.0</ele>
        <time>2019-05-04T11:49:21Z</time>
      </trkpt>
      <trkpt lat="39.204817" lon="-6.123500">
        <ele>1852.0</ele>
        <time>2019-05-04T11:49:22Z</time>
      </trkpt>
      <trkpt lat="39.204783" lon="-6.123367">
        <ele>1854.0</ele>
        <time>2019-05-04T11:49:23Z</time>
      </trkpt>
      <trkpt lat="39.204700" lon="-6.123283">
        <ele>1856.0</ele>
        <time>2019-05-04T11:49:24Z</time>
      </trkpt>
      <trkpt lat="39.204600" lon="-6.123233">
        <ele>1858.0</ele>
        <time>2019-05-04T11:49:25Z</time>
      </trkpt>
      <trkpt lat="39.204517" lon="-6.123217">
        <ele>1860.0</ele>
        <time>2019-05-04T11:49:26Z</time>
      </trkpt>
      <trkpt lat="39.204433" lon="-6.123233">
        <ele>1863.0</ele>
        <time>2019-05-04T11:49:27Z</time>
      </trkpt>
      <trkpt lat="39.204367" lon="-6.123267">
        <ele>1865.0</ele>
        <time>2019-05-04T11:49:28Z</time>
      </trkpt>
      <trkpt lat="39.204300" lon="-6.123333">
        <ele>1867.0</ele>
        <time>2019-05-04T11:49:29Z</time>
      </trkpt>
      <trkpt lat="39.204267" lon="-6.123417">
        <ele>1868.0</ele>
        <time>2019-05-04T11:49:30Z</time>
      </trkpt>
      <trkpt lat="39.204250" lon="-6.123517">
        <ele>1870.0</ele>
        <time>2019-05-04T11:49:31Z</time>
      </trkpt>
      <trkpt lat="39.204267" lon="-6.123600">
        <ele>1871.0</ele>
        <time>2019-05-04T11:49:32Z</time>
      </trkpt>
      <trkpt lat="39.204283" lon="-6.123683">
        <ele>1873.0</ele>
        <time>2019-05-04T11:49:33Z</time>
      </trkpt>
      <trkpt lat="39.204333" lon="-6.123750">
        <ele>1876.0</ele>
        <time>2019-05-04T11:49:34Z</time>
      </trkpt>
      <trkpt lat="39.204400" lon="-6.123767">
        <ele>1878.0</ele>
        <time>2019-05-04T11:49:35Z</time>
      </trkpt>
      <trkpt lat="39.204483" lon="-6.123767">
        <ele>1880.0</ele>
        <time>2019-05-04T11:49:36Z</time>
      </trkpt>
      <trkpt lat="39.204550" lon="-6.123750">
        <ele>1882.0</ele>
        <time>2019-05-04T11:49:37Z</time>
      </trkpt>
      <trkpt lat="39.204617" lon="-6.123683">
        <ele>1884.0</ele>
        <time>2019-05-04T11:49:38Z</time>
      </trkpt>
      <trkpt lat="39.204683" lon="-6.123600">
        <ele>1886.0</ele>
        <time>2019-05-04T11:49:39Z</time>
      </trkpt>
      <trkpt lat="39.204733" lon="-6.123483">
        <ele>1886.0</ele>
        <time>2019-05-04T11:49:40Z</time>
      </trkpt>
      <trkpt lat="39.204750" lon="-6.123350">
        <ele>1885.0</ele>
        <time>2019-05-04T11:49:41Z</time>
      </trkpt>
      <trkpt lat="39.204733" lon="-6.123200">
        <ele>1885.0</ele>
        <time>2019-05-04T11:49:42Z</time>
      </trkpt>
      <trkpt lat="39.204683" lon="-6.123033">
        <ele>1884.0</ele>
        <time>2019-05-04T11:49:43Z</time>
      </trkpt>
      <trkpt lat="39.204617" lon="-6.122900">
        <ele>1884.0</ele>
        <time>2019-05-04T11:49:44Z</time>
      </trkpt>
      <trkpt lat="39.204533" lon="-6.122800">
        <ele>1886.0</ele>
        <time>2019-05-04T11:49:45Z</time>
      </trkpt>
      <trkpt lat="39.204467" lon="-6.122717">
        <ele>1888.0</ele>
        <time>2019-05-04T11:49:46Z</time>
      </trkpt>
      <trkpt lat="39.204383" lon="-6.122650">
        <ele>1891.0</ele>
        <time>2019-05-04T11:49:47Z</time>
      </trkpt>
      <trkpt lat="39.204300" lon="-6.122583">
        <ele>1892.0</ele>
        <time>2019-05-04T11:49:48Z</time>
      </trkpt>
      <trkpt lat="39.204200" lon="-6.122533">
        <ele>1894.0</ele>
        <time>2019-05-04T11:49:49Z</time>
      </trkpt>
      <trkpt lat="39.204100" lon="-6.122533">
        <ele>1894.0</ele>
        <time>2019-05-04T11:49:50Z</time>
      </trkpt>
      <trkpt lat="39.204000" lon="-6.122550">
        <ele>1895.0</ele>
        <time>2019-05-04T11:49:51Z</time>
      </trkpt>
      <trkpt lat="39.203950" lon="-6.122617">
        <ele>1896.0</ele>
        <time>2019-05-04T11:49:52Z</time>
      </trkpt>
      <trkpt lat="39.203900" lon="-6.122700">
        <ele>1897.0</ele>
        <time>2019-05-04T11:49:53Z</time>
      </trkpt>
      <trkpt lat="39.203900" lon="-6.122767">
        <ele>1898.0</ele>
        <time>2019-05-04T11:49:54Z</time>
      </trkpt>
      <trkpt lat="39.203900" lon="-6.122850">
        <ele>1899.0</ele>
        <time>2019-05-04T11:49:55Z</time>
      </trkpt>
      <trkpt lat="39.203917" lon="-6.122917">
        <ele>1900.0</ele>
        <time>2019-05-04T11:49:56Z</time>
      </trkpt>
      <trkpt lat="39.203950" lon="-6.122967">
        <ele>1901.0</ele>
        <time>2019-05-04T11:49:57Z</time>
      </trkpt>
      <trkpt lat="39.204017" lon="-6.123000">
        <ele>1902.0</ele>
        <time>2019-05-04T11:49:58Z</time>
      </trkpt>
      <trkpt lat="39.204083" lon="-6.123000">
        <ele>1904.0</ele>
        <time>2019-05-04T11:49:59Z</time>
      </trkpt>
      <trkpt lat="39.204150" lon="-6.122950">
        <ele>1905.0</ele>
        <time>2019-05-04T11:50:00Z</time>
      </trkpt>
      <trkpt lat="39.204217" lon="-6.122867">
        <ele>1907.0</ele>
        <time>2019-05-04T11:50:01Z</time>
      </trkpt>
      <trkpt lat="39.204233" lon="-6.122733">
        <ele>1909.0</ele>
        <time>2019-05-04T11:50:02Z</time>
      </trkpt>
      <trkpt lat="39.204217" lon="-6.122583">
        <ele>1910.0</ele>
        <time>2019-05-04T11:50:03Z</time>
      </trkpt>
      <trkpt lat="39.204167" lon="-6.122433">
        <ele>1911.0</ele>
        <time>2019-05-04T11:50:04Z</time>
      </trkpt>
      <trkpt lat="39.204083" lon="-6.122317">
        <ele>1912.0</ele>
        <time>2019-05-04T11:50:05Z</time>
      </trkpt>
      <trkpt lat="39.204000" lon="-6.122233">
        <ele>1913.0</ele>
        <time>2019-05-04T11:50:06Z</time>
      </trkpt>
      <trkpt lat="39.203883" lon="-6.122183">
        <ele>1915.0</ele>
        <time>2019-05-04T11:50:07Z</time>
      </trkpt>
      <trkpt lat="39.203783" lon="-6.122167">
        <ele>1916.0</ele>
        <time>2019-05-04T11:50:08Z</time>
      </trkpt>
      <trkpt lat="39.203700" lon="-6.122183">
        <ele>1917.0</ele>
        <time>2019-05-04T11:50:09Z</time>
      </trkpt>
      <trkpt lat="39.203633" lon="-6.122233">
        <ele>1919.0</ele>
        <time>2019-05-04T11:50:10Z</time>
      </trkpt>
      <trkpt lat="39.203567" lon="-6.122300">
        <ele>1920.0</ele>
        <time>2019-05-04T11:50:11Z</time>
      </trkpt>
      <trkpt lat="39.203533" lon="-6.122383">
        <ele>1921.0</ele>
        <time>2019-05-04T11:50:12Z</time>
      </trkpt>
      <trkpt lat="39.203500" lon="-6.122450">
        <ele>1923.0</ele>
        <time>2019-05-04T11:50:13Z</time>
      </trkpt>
      <trkpt lat="39.203500" lon="-6.122517">
        <ele>1924.0</ele>
        <time>2019-05-04T11:50:14Z</time>
      </trkpt>
      <trkpt lat="39.203533" lon="-6.122567">
        <ele>1926.0</ele>
        <time>2019-05-04T11:50:15Z</time>
      </trkpt>
      <trkpt lat="39.203583" lon="-6.122617">
        <ele>1926.0</ele>
        <time>2019-05-04T11:50:16Z</time>
      </trkpt>
      <trkpt lat="39.203650" lon="-6.122633">
        <ele>1927.0</ele>
        <time>2019-05-04T11:50:17Z</time>
      </trkpt>
      <trkpt lat="39.203717" lon="-6.122633">
        <ele>1928.0</ele>
        <time>2019-05-04T11:50:18Z</time>
      </trkpt>
      <trkpt lat="39.203783" lon="-6.122600">
        <ele>1931.0</ele>
        <time>2019-05-04T11:50:19Z</time>
      </trkpt>
      <trkpt lat="39.203850" lon="-6.122550">
        <ele>1932.0</ele>
        <time>2019-05-04T11:50:20Z</time>
      </trkpt>
      <trkpt lat="39.203900" lon="-6.122500">
        <ele>1933.0</ele>
        <time>2019-05-04T11:50:21Z</time>
      </trkpt>
      <trkpt lat="39.203967" lon="-6.122433">
        <ele>1935.0</ele>
        <time>2019-05-04T11:50:22Z</time>
      </trkpt>
      <trkpt lat="39.204000" lon="-6.122350">
        <ele>1937.0</ele>
        <time>2019-05-04T11:50:23Z</time>
      </trkpt>
      <trkpt lat="39.204033" lon="-6.122250">
        <ele>1938.0</ele>
        <time>2019-05-04T11:50:24Z</time>
      </trkpt>
      <trkpt lat="39.204050" lon="-6.122133">
        <ele>1938.0</ele>
        <time>2019-05-04T11:50:25Z</time>
      </trkpt>
      <trkpt lat="39.204050" lon="-6.122000">
        <ele>1937.0</ele>
        <time>2019-05-04T11:50:26Z</time>
      </trkpt>
      <trkpt lat="39.204050" lon="-6.121833">
        <ele>1937.0</ele>
        <time>2019-05-04T11:50:27Z</time>
      </trkpt>
      <trkpt lat="39.204017" lon="-6.121683">
        <ele>1936.0</ele>
        <time>2019-05-04T11:50:28Z</time>
      </trkpt>
      <trkpt lat="39.203983" lon="-6.121533">
        <ele>1936.0</ele>
        <time>2019-05-04T11:50:29Z</time>
      </trkpt>
      <trkpt lat="39.203900" lon="-6.121400">
        <ele>1936.0</ele>
        <time>2019-05-04T11:50:30Z</time>
      </trkpt>
      <trkpt lat="39.203800" lon="-6.121317">
        <ele>1938.0</ele>
        <time>2019-05-04T11:50:31Z</time>
      </trkpt>
      <trkpt lat="39.203700" lon="-6.121267">
        <ele>1939.0</ele>
        <time>2019-05-04T11:50:32Z</time>
      </trkpt>
      <trkpt lat="39.203600" lon="-6.121233">
        <ele>1940.0</ele>
        <time>2019-05-04T11:50:33Z</time>
      </trkpt>
      <trkpt lat="39.203517" lon="-6.121217">
        <ele>1941.0</ele>
        <time>2019-05-04T11:50:34Z</time>
      </trkpt>
      <trkpt lat="39.203450" lon="-6.121200">
        <ele>1942.0</ele>
        <time>2019-05-04T11:50:35Z</time>
      </trkpt>
      <trkpt lat="39.203350" lon="-6.121217">
        <ele>1941.0</ele>
        <time>2019-05-04T11:50:36Z</time>
      </trkpt>
      <trkpt lat="39.203267" lon="-6.121267">
        <ele>1939.0</ele>
        <time>2019-05-04T11:50:37Z</time>
      </trkpt>
      <trkpt lat="39.203217" lon="-6.121317">
        <ele>1939.0</ele>
        <time>2019-05-04T11:50:38Z</time>
      </trkpt>
      <trkpt lat="39.203167" lon="-6.121400">
        <ele>1939.0</ele>
        <time>2019-05-04T11:50:39Z</time>
      </trkpt>
      <trkpt lat="39.203133" lon="-6.121450">
        <ele>1939.0</ele>
        <time>2019-05-04T11:50:40Z</time>
      </trkpt>
      <trkpt lat="39.203117" lon="-6.121517">
        <ele>1940.0</ele>
        <time>2019-05-04T11:50:41Z</time>
      </trkpt>
      <trkpt lat="39.203100" lon="-6.121567">
        <ele>1940.0</ele>
        <time>2019-05-04T11:50:42Z</time>
      </trkpt>
      <trkpt lat="39.203083" lon="-6.121650">
        <ele>1940.0</ele>
        <time>2019-05-04T11:50:43Z</time>
      </trkpt>
      <trkpt lat="39.203100" lon="-6.121733">
        <ele>1940.0</ele>
        <time>2019-05-04T11:50:44Z</time>
      </trkpt>
      <trkpt lat="39.203133" lon="-6.121800">
        <ele>1940.0</ele>
        <time>2019-05-04T11:50:45Z</time>
      </trkpt>
      <trkpt lat="39.203167" lon="-6.121867">
        <ele>1940.0</ele>
        <time>2019-05-04T11:50:46Z</time>
      </trkpt>
      <trkpt lat="39.203200" lon="-6.121917">
        <ele>1941.0</ele>
        <time>2019-05-04T11:50:47Z</time>
      </trkpt>
      <trkpt lat="39.203233" lon="-6.121967">
        <ele>1942.0</ele>
        <time>2019-05-04T11:50:48Z</time>
      </trkpt>
      <trkpt lat="39.203267" lon="-6.122000">
        <ele>1942.0</ele>
        <time>2019-05-04T11:50:49Z</time>
      </trkpt>
      <trkpt lat="39.203333" lon="-6.122050">
        <ele>1942.0</ele>
        <time>2019-05-04T11:50:50Z</time>
      </trkpt>
      <trkpt lat="39.203400" lon="-6.122083">
        <ele>1942.0</ele>
        <time>2019-05-04T11:50:51Z</time>
      </trkpt>
      <trkpt lat="39.203467" lon="-6.122117">
        <ele>1943.0</ele>
        <time>2019-05-04T11:50:52Z</time>
      </trkpt>
      <trkpt lat="39.203550" lon="-6.122133">
        <ele>1943.0</ele>
        <time>2019-05-04T11:50:53Z</time>
      </trkpt>
      <trkpt lat="39.203617" lon="-6.122133">
        <ele>1944.0</ele>
        <time>2019-05-04T11:50:54Z</time>
      </trkpt>
      <trkpt lat="39.203700" lon="-6.122150">
        <ele>1945.0</ele>
        <time>2019-05-04T11:50:55Z</time>
      </trkpt>
      <trkpt lat="39.203767" lon="-6.122167">
        <ele>1946.0</ele>
        <time>2019-05-04T11:50:56Z</time>
      </trkpt>
      <trkpt lat="39.203833" lon="-6.122167">
        <ele>1947.0</ele>
        <time>2019-05-04T11:50:57Z</time>
      </trkpt>
      <trkpt lat="39.203917" lon="-6.122167">
        <ele>1949.0</ele>
        <time>2019-05-04T11:50:58Z</time>
      </trkpt>
      <trkpt lat="39.204000" lon="-6.122150">
        <ele>1951.0</ele>
        <time>2019-05-04T11:50:59Z</time>
      </trkpt>
      <trkpt lat="39.204067" lon="-6.122133">
        <ele>1953.0</ele>
        <time>2019-05-04T11:51:00Z</time>
      </trkpt>
      <trkpt lat="39.204150" lon="-6.122117">
        <ele>1956.0</ele>
        <time>2019-05-04T11:51:01Z</time>
      </trkpt>
      <trkpt lat="39.204200" lon="-6.122083">
        <ele>1958.0</ele>
        <time>2019-05-04T11:51:02Z</time>
      </trkpt>
      <trkpt lat="39.204283" lon="-6.122033">
        <ele>1956.0</ele>
        <time>2019-05-04T11:51:03Z</time>
      </trkpt>
      <trkpt lat="39.204350" lon="-6.121950">
        <ele>1954.0</ele>
        <time>2019-05-04T11:51:04Z</time>
      </trkpt>
      <trkpt lat="39.204400" lon="-6.121833">
        <ele>1953.0</ele>
        <time>2019-05-04T11:51:05Z</time>
      </trkpt>
      <trkpt lat="39.204417" lon="-6.121700">
        <ele>1952.0</ele>
        <time>2019-05-04T11:51:06Z</time>
      </trkpt>
      <trkpt lat="39.204417" lon="-6.121567">
        <ele>1951.0</ele>
        <time>2019-05-04T11:51:07Z</time>
      </trkpt>
      <trkpt lat="39.204350" lon="-6.121433">
        <ele>1949.0</ele>
        <time>2019-05-04T11:51:08Z</time>
      </trkpt>
      <trkpt lat="39.204300" lon="-6.121317">
        <ele>1948.0</ele>
        <time>2019-05-04T11:51:09Z</time>
      </trkpt>
      <trkpt lat="39.204200" lon="-6.121217">
        <ele>1947.0</ele>
        <time>2019-05-04T11:51:10Z</time>
      </trkpt>
      <trkpt lat="39.204117" lon="-6.121167">
        <ele>1946.0</ele>
        <time>2019-05-04T11:51:11Z</time>
      </trkpt>
      <trkpt lat="39.204017" lon="-6.121150">
        <ele>1945.0</ele>
        <time>2019-05-04T11:51:12Z</time>
      </trkpt>
      <trkpt lat="39.203917" lon="-6.121183">
        <ele>1944.0</ele>
        <time>2019-05-04T11:51:13Z</time>
      </trkpt>
      <trkpt lat="39.203833" lon="-6.121233">
        <ele>1944.0</ele>
        <time>2019-05-04T11:51:14Z</time>
      </trkpt>
      <trkpt lat="39.203767" lon="-6.121283">
        <ele>1944.0</ele>
        <time>2019-05-04T11:51:15Z</time>
      </trkpt>
      <trkpt lat="39.203717" lon="-6.121333">
        <ele>1944.0</ele>
        <time>2019-05-04T11:51:16Z</time>
      </trkpt>
      <trkpt lat="39.203667" lon="-6.121400">
        <ele>1944.0</ele>
        <time>2019-05-04T11:51:17Z</time>
      </trkpt>
      <trkpt lat="39.203617" lon="-6.121483">
        <ele>1944.0</ele>
        <time>2019-05-04T11:51:18Z</time>
      </trkpt>
      <trkpt lat="39.203567" lon="-6.121567">
        <ele>1944.0</ele>
        <time>2019-05-04T11:51:19Z</time>
      </trkpt>
      <trkpt lat="39.203533" lon="-6.121650">
        <ele>1944.0</ele>
        <time>2019-05-04T11:51:20Z</time>
      </trkpt>
      <trkpt lat="39.203517" lon="-6.121733">
        <ele>1944.0</ele>
        <time>2019-05-04T11:51:21Z</time>
      </trkpt>
      <trkpt lat="39.203517" lon="-6.121833">
        <ele>1945.0</ele>
        <time>2019-05-04T11:51:22Z</time>
      </trkpt>
      <trkpt lat="39.203517" lon="-6.121900">
        <ele>1945.0</ele>
        <time>2019-05-04T11:51:23Z</time>
      </trkpt>
      <trkpt lat="39.203517" lon="-6.121983">
        <ele>1946.0</ele>
        <time>2019-05-04T11:51:24Z</time>
      </trkpt>
      <trkpt lat="39.203533" lon="-6.122067">
        <ele>1947.0</ele>
        <time>2019-05-04T11:51:25Z</time>
      </trkpt>
      <trkpt lat="39.203550" lon="-6.122150">
        <ele>1947.0</ele>
        <time>2019-05-04T11:51:26Z</time>
      </trkpt>
      <trkpt lat="39.203583" lon="-6.122233">
        <ele>1947.0</ele>
        <time>2019-05-04T11:51:27Z</time>
      </trkpt>
      <trkpt lat="39.203617" lon="-6.122300">
        <ele>1948.0</ele>
        <time>2019-05-04T11:51:28Z</time>
      </trkpt>
      <trkpt lat="39.203650" lon="-6.122383">
        <ele>1948.0</ele>
        <time>2019-05-04T11:51:29Z</time>
      </trkpt>
      <trkpt lat="39.203683" lon="-6.122433">
        <ele>1949.0</ele>
        <time>2019-05-04T11:51:30Z</time>
      </trkpt>
      <trkpt lat="39.203717" lon="-6.122500">
        <ele>1950.0</ele>
        <time>2019-05-04T11:51:31Z</time>
      </trkpt>
      <trkpt lat="39.203783" lon="-6.122533">
        <ele>1949.0</ele>
        <time>2019-05-04T11:51:32Z</time>
      </trkpt>
      <trkpt lat="39.203867" lon="-6.122550">
        <ele>1948.0</ele>
        <time>2019-05-04T11:51:33Z</time>
      </trkpt>
      <trkpt lat="39.203933" lon="-6.122533">
        <ele>1948.0</ele>
        <time>2019-05-04T11:51:34Z</time>
      </trkpt>
      <trkpt lat="39.204017" lon="-6.122483">
        <ele>1944.0</ele>
        <time>2019-05-04T11:51:35Z</time>
      </trkpt>
      <trkpt lat="39.204083" lon="-6.122400">
        <ele>1941.0</ele>
        <time>2019-05-04T11:51:36Z</time>
      </trkpt>
      <trkpt lat="39.204133" lon="-6.122300">
        <ele>1939.0</ele>
        <time>2019-05-04T11:51:37Z</time>
      </trkpt>
      <trkpt lat="39.204183" lon="-6.122183">
        <ele>1938.0</ele>
        <time>2019-05-04T11:51:38Z</time>
      </trkpt>
      <trkpt lat="39.204217" lon="-6.122050">
        <ele>1937.0</ele>
        <time>2019-05-04T11:51:39Z</time>
      </trkpt>
      <trkpt lat="39.204217" lon="-6.121917">
        <ele>1935.0</ele>
        <time>2019-05-04T11:51:40Z</time>
      </trkpt>
      <trkpt lat="39.204183" lon="-6.121783">
        <ele>1933.0</ele>
        <time>2019-05-04T11:51:41Z</time>
      </trkpt>
      <trkpt lat="39.204133" lon="-6.121650">
        <ele>1931.0</ele>
        <time>2019-05-04T11:51:42Z</time>
      </trkpt>
      <trkpt lat="39.204067" lon="-6.121533">
        <ele>1930.0</ele>
        <time>2019-05-04T11:51:43Z</time>
      </trkpt>
      <trkpt lat="39.204000" lon="-6.121467">
        <ele>1929.0</ele>
        <time>2019-05-04T11:51:44Z</time>
      </trkpt>
      <trkpt lat="39.203917" lon="-6.121400">
        <ele>1927.0</ele>
        <time>2019-05-04T11:51:45Z</time>
      </trkpt>
      <trkpt lat="39.203817" lon="-6.121350">
        <ele>1927.0</ele>
        <time>2019-05-04T11:51:46Z</time>
      </trkpt>
      <trkpt lat="39.203733" lon="-6.121300">
        <ele>1926.0</ele>
        <time>2019-05-04T11:51:47Z</time>
      </trkpt>
      <trkpt lat="39.203633" lon="-6.121267">
        <ele>1926.0</ele>
        <time>2019-05-04T11:51:48Z</time>
      </trkpt>
      <trkpt lat="39.203550" lon="-6.121233">
        <ele>1926.0</ele>
        <time>2019-05-04T11:51:49Z</time>
      </trkpt>
      <trkpt lat="39.203450" lon="-6.121200">
        <ele>1925.0</ele>
        <time>2019-05-04T11:51:50Z</time>
      </trkpt>
      <trkpt lat="39.203367" lon="-6.121167">
        <ele>1925.0</ele>
        <time>2019-05-04T11:51:51Z</time>
      </trkpt>
      <trkpt lat="39.203267" lon="-6.121167">
        <ele>1924.0</ele>
        <time>2019-05-04T11:51:52Z</time>
      </trkpt>
      <trkpt lat="39.203167" lon="-6.121167">
        <ele>1924.0</ele>
        <time>2019-05-04T11:51:53Z</time>
      </trkpt>
      <trkpt lat="39.203017" lon="-6.121233">
        <ele>1923.0</ele>
        <time>2019-05-04T11:51:54Z</time>
      </trkpt>
      <trkpt lat="39.202517" lon="-6.121367">
        <ele>0.0</ele>
        <time>2019-05-04T11:51:58Z</time>
      </trkpt>
      <trkpt lat="39.202467" lon="-6.121317">
        <ele>1921.0</ele>
        <time>2019-05-04T11:51:59Z</time>
      </trkpt>
      <trkpt lat="39.202400" lon="-6.121300">
        <ele>1927.0</ele>
        <time>2019-05-04T11:52:00Z</time>
      </trkpt>
      <trkpt lat="39.202317" lon="-6.121317">
        <ele>1931.0</ele>
        <time>2019-05-04T11:52:01Z</time>
      </trkpt>
      <trkpt lat="39.202250" lon="-6.121333">
        <ele>1934.0</ele>
        <time>2019-05-04T11:52:02Z</time>
      </trkpt>
      <trkpt lat="39.202167" lon="-6.121367">
        <ele>1936.0</ele>
        <time>2019-05-04T11:52:03Z</time>
      </trkpt>
      <trkpt lat="39.202083" lon="-6.121383">
        <ele>1938.0</ele>
        <time>2019-05-04T11:52:04Z</time>
      </trkpt>
      <trkpt lat="39.202017" lon="-6.121433">
        <ele>1941.0</ele>
        <time>2019-05-04T11:52:05Z</time>
      </trkpt>
      <trkpt lat="39.201967" lon="-6.121483">
        <ele>1944.0</ele>
        <time>2019-05-04T11:52:06Z</time>
      </trkpt>
      <trkpt lat="39.201967" lon="-6.121567">
        <ele>1946.0</ele>
        <time>2019-05-04T11:52:07Z</time>
      </trkpt>
      <trkpt lat="39.201983" lon="-6.121650">
        <ele>1947.0</ele>
        <time>2019-05-04T11:52:08Z</time>
      </trkpt>
      <trkpt lat="39.202033" lon="-6.121733">
        <ele>1947.0</ele>
        <time>2019-05-04T11:52:09Z</time>
      </trkpt>
      <trkpt lat="39.202100" lon="-6.121783">
        <ele>1948.0</ele>
        <time>2019-05-04T11:52:10Z</time>
      </trkpt>
      <trkpt lat="39.202183" lon="-6.121783">
        <ele>1949.0</ele>
        <time>2019-05-04T11:52:11Z</time>
      </trkpt>
      <trkpt lat="39.202283" lon="-6.121767">
        <ele>1950.0</ele>
        <time>2019-05-04T11:52:12Z</time>
      </trkpt>
      <trkpt lat="39.202367" lon="-6.121717">
        <ele>1951.0</ele>
        <time>2019-05-04T11:52:13Z</time>
      </trkpt>
      <trkpt lat="39.202433" lon="-6.121667">
        <ele>1952.0</ele>
        <time>2019-05-04T11:52:14Z</time>
      </trkpt>
      <trkpt lat="39.202517" lon="-6.121583">
        <ele>1953.0</ele>
        <time>2019-05-04T11:52:15Z</time>
      </trkpt>
      <trkpt lat="39.202600" lon="-6.121367">
        <ele>0.0</ele>
        <time>2019-05-04T11:52:17Z</time>
      </trkpt>
      <trkpt lat="39.202617" lon="-6.121233">
        <ele>1956.0</ele>
        <time>2019-05-04T11:52:18Z</time>
      </trkpt>
      <trkpt lat="39.202600" lon="-6.121117">
        <ele>1957.0</ele>
        <time>2019-05-04T11:52:19Z</time>
      </trkpt>
      <trkpt lat="39.202567" lon="-6.120983">
        <ele>1958.0</ele>
        <time>2019-05-04T11:52:20Z</time>
      </trkpt>
      <trkpt lat="39.202517" lon="-6.120867">
        <ele>1958.0</ele>
        <time>2019-05-04T11:52:21Z</time>
      </trkpt>
      <trkpt lat="39.202467" lon="-6.120783">
        <ele>1959.0</ele>
        <time>2019-05-04T11:52:22Z</time>
      </trkpt>
      <trkpt lat="39.202383" lon="-6.120700">
        <ele>1958.0</ele>
        <time>2019-05-04T11:52:23Z</time>
      </trkpt>
      <trkpt lat="39.202300" lon="-6.120650">
        <ele>1958.0</ele>
        <time>2019-05-04T11:52:24Z</time>
      </trkpt>
      <trkpt lat="39.202200" lon="-6.120650">
        <ele>1959.0</ele>
        <time>2019-05-04T11:52:25Z</time>
      </trkpt>
      <trkpt lat="39.202100" lon="-6.120683">
        <ele>1960.0</ele>
        <time>2019-05-04T11:52:26Z</time>
      </trkpt>
      <trkpt lat="39.202033" lon="-6.120750">
        <ele>1961.0</ele>
        <time>2019-05-04T11:52:27Z</time>
      </trkpt>
      <trkpt lat="39.201983" lon="-6.120833">
        <ele>1962.0</ele>
        <time>2019-05-04T11:52:28Z</time>
      </trkpt>
      <trkpt lat="39.201967" lon="-6.120900">
        <ele>1963.0</ele>
        <time>2019-05-04T11:52:29Z</time>
      </trkpt>
      <trkpt lat="39.201950" lon="-6.120983">
        <ele>1964.0</ele>
        <time>2019-05-04T11:52:30Z</time>
      </trkpt>
      <trkpt lat="39.201933" lon="-6.121067">
        <ele>1965.0</ele>
        <time>2019-05-04T11:52:31Z</time>
      </trkpt>
      <trkpt lat="39.201933" lon="-6.121150">
        <ele>1966.0</ele>
        <time>2019-05-04T11:52:32Z</time>
      </trkpt>
      <trkpt lat="39.201950" lon="-6.121233">
        <ele>1967.0</ele>
        <time>2019-05-04T11:52:33Z</time>
      </trkpt>
      <trkpt lat="39.201983" lon="-6.121317">
        <ele>1967.0</ele>
        <time>2019-05-04T11:52:34Z</time>
      </trkpt>
      <trkpt lat="39.202033" lon="-6.121367">
        <ele>1968.0</ele>
        <time>2019-05-04T11:52:35Z</time>
      </trkpt>
      <trkpt lat="39.202100" lon="-6.121417">
        <ele>1968.0</ele>
        <time>2019-05-04T11:52:36Z</time>
      </trkpt>
      <trkpt lat="39.202183" lon="-6.121450">
        <ele>1969.0</ele>
        <time>2019-05-04T11:52:37Z</time>
      </trkpt>
      <trkpt lat="39.202283" lon="-6.121450">
        <ele>1971.0</ele>
        <time>2019-05-04T11:52:38Z</time>
      </trkpt>
      <trkpt lat="39.202350" lon="-6.121433">
        <ele>1972.0</ele>
        <time>2019-05-04T11:52:39Z</time>
      </trkpt>
      <trkpt lat="39.202433" lon="-6.121417">
        <ele>1974.0</ele>
        <time>2019-05-04T11:52:40Z</time>
      </trkpt>
      <trkpt lat="39.202500" lon="-6.121417">
        <ele>1976.0</ele>
        <time>2019-05-04T11:52:41Z</time>
      </trkpt>
      <trkpt lat="39.202583" lon="-6.121383">
        <ele>1978.0</ele>
        <time>2019-05-04T11:52:42Z</time>
      </trkpt>
      <trkpt lat="39.202667" lon="-6.121317">
        <ele>1979.0</ele>
        <time>2019-05-04T11:52:43Z</time>
      </trkpt>
      <trkpt lat="39.202733" lon="-6.121233">
        <ele>1979.0</ele>
        <time>2019-05-04T11:52:44Z</time>
      </trkpt>
      <trkpt lat="39.202783" lon="-6.121117">
        <ele>1979.0</ele>
        <time>2019-05-04T11:52:45Z</time>
      </trkpt>
      <trkpt lat="39.202817" lon="-6.121000">
        <ele>1979.0</ele>
        <time>2019-05-04T11:52:46Z</time>
      </trkpt>
      <trkpt lat="39.202817" lon="-6.120883">
        <ele>1979.0</ele>
        <time>2019-05-04T11:52:47Z</time>
      </trkpt>
      <trkpt lat="39.202817" lon="-6.120750">
        <ele>1979.0</ele>
        <time>2019-05-04T11:52:48Z</time>
      </trkpt>
      <trkpt lat="39.202767" lon="-6.120633">
        <ele>1978.0</ele>
        <time>2019-05-04T11:52:49Z</time>
      </trkpt>
      <trkpt lat="39.202717" lon="-6.120500">
        <ele>1977.0</ele>
        <time>2019-05-04T11:52:50Z</time>
      </trkpt>
      <trkpt lat="39.202633" lon="-6.120400">
        <ele>1976.0</ele>
        <time>2019-05-04T11:52:51Z</time>
      </trkpt>
      <trkpt lat="39.202550" lon="-6.120333">
        <ele>1975.0</ele>
        <time>2019-05-04T11:52:52Z</time>
      </trkpt>
      <trkpt lat="39.202450" lon="-6.120300">
        <ele>1974.0</ele>
        <time>2019-05-04T11:52:53Z</time>
      </trkpt>
      <trkpt lat="39.202350" lon="-6.120317">
        <ele>1973.0</ele>
        <time>2019-05-04T11:52:54Z</time>
      </trkpt>
      <trkpt lat="39.202283" lon="-6.120350">
        <ele>1972.0</ele>
        <time>2019-05-04T11:52:55Z</time>
      </trkpt>
      <trkpt lat="39.202200" lon="-6.120400">
        <ele>1972.0</ele>
        <time>2019-05-04T11:52:56Z</time>
      </trkpt>
      <trkpt lat="39.202133" lon="-6.120450">
        <ele>1971.0</ele>
        <time>2019-05-04T11:52:57Z</time>
      </trkpt>
      <trkpt lat="39.202067" lon="-6.120533">
        <ele>1971.0</ele>
        <time>2019-05-04T11:52:58Z</time>
      </trkpt>
      <trkpt lat="39.202000" lon="-6.120617">
        <ele>1971.0</ele>
        <time>2019-05-04T11:52:59Z</time>
      </trkpt>
      <trkpt lat="39.201967" lon="-6.120700">
        <ele>1972.0</ele>
        <time>2019-05-04T11:53:00Z</time>
      </trkpt>
      <trkpt lat="39.201917" lon="-6.120783">
        <ele>1973.0</ele>
        <time>2019-05-04T11:53:01Z</time>
      </trkpt>
      <trkpt lat="39.201883" lon="-6.120850">
        <ele>1974.0</ele>
        <time>2019-05-04T11:53:02Z</time>
      </trkpt>
      <trkpt lat="39.201850" lon="-6.120917">
        <ele>1973.0</ele>
        <time>2019-05-04T11:53:03Z</time>
      </trkpt>
      <trkpt lat="39.201817" lon="-6.121000">
        <ele>1973.0</ele>
        <time>2019-05-04T11:53:04Z</time>
      </trkpt>
      <trkpt lat="39.201800" lon="-6.121083">
        <ele>1973.0</ele>
        <time>2019-05-04T11:53:05Z</time>
      </trkpt>
      <trkpt lat="39.201817" lon="-6.121167">
        <ele>1972.0</ele>
        <time>2019-05-04T11:53:06Z</time>
      </trkpt>
      <trkpt lat="39.201850" lon="-6.121250">
        <ele>1972.0</ele>
        <time>2019-05-04T11:53:07Z</time>
      </trkpt>
      <trkpt lat="39.201900" lon="-6.121317">
        <ele>1972.0</ele>
        <time>2019-05-04T11:53:08Z</time>
      </trkpt>
      <trkpt lat="39.201967" lon="-6.121367">
        <ele>1971.0</ele>
        <time>2019-05-04T11:53:09Z</time>
      </trkpt>
      <trkpt lat="39.202033" lon="-6.121400">
        <ele>1971.0</ele>
        <time>2019-05-04T11:53:10Z</time>
      </trkpt>
      <trkpt lat="39.202117" lon="-6.121417">
        <ele>1971.0</ele>
        <time>2019-05-04T11:53:11Z</time>
      </trkpt>
      <trkpt lat="39.202200" lon="-6.121417">
        <ele>1971.0</ele>
        <time>2019-05-04T11:53:12Z</time>
      </trkpt>
      <trkpt lat="39.202283" lon="-6.121400">
        <ele>1972.0</ele>
        <time>2019-05-04T11:53:13Z</time>
      </trkpt>
      <trkpt lat="39.202350" lon="-6.121350">
        <ele>1972.0</ele>
        <time>2019-05-04T11:53:14Z</time>
      </trkpt>
      <trkpt lat="39.202417" lon="-6.121283">
        <ele>1973.0</ele>
        <time>2019-05-04T11:53:15Z</time>
      </trkpt>
      <trkpt lat="39.202483" lon="-6.121183">
        <ele>1973.0</ele>
        <time>2019-05-04T11:53:16Z</time>
      </trkpt>
      <trkpt lat="39.202517" lon="-6.121083">
        <ele>1973.0</ele>
        <time>2019-05-04T11:53:17Z</time>
      </trkpt>
      <trkpt lat="39.202550" lon="-6.120967">
        <ele>1974.0</ele>
        <time>2019-05-04T11:53:18Z</time>
      </trkpt>
      <trkpt lat="39.202550" lon="-6.120850">
        <ele>1974.0</ele>
        <time>2019-05-04T11:53:19Z</time>
      </trkpt>
      <trkpt lat="39.202533" lon="-6.120733">
        <ele>1974.0</ele>
        <time>2019-05-04T11:53:20Z</time>
      </trkpt>
      <trkpt lat="39.202467" lon="-6.120633">
        <ele>1974.0</ele>
        <time>2019-05-04T11:53:21Z</time>
      </trkpt>
      <trkpt lat="39.202400" lon="-6.120533">
        <ele>1974.0</ele>
        <time>2019-05-04T11:53:22Z</time>
      </trkpt>
      <trkpt lat="39.202317" lon="-6.120467">
        <ele>1973.0</ele>
        <time>2019-05-04T11:53:23Z</time>
      </trkpt>
      <trkpt lat="39.202250" lon="-6.120433">
        <ele>1974.0</ele>
        <time>2019-05-04T11:53:24Z</time>
      </trkpt>
      <trkpt lat="39.202167" lon="-6.120433">
        <ele>1975.0</ele>
        <time>2019-05-04T11:53:25Z</time>
      </trkpt>
      <trkpt lat="39.202100" lon="-6.120450">
        <ele>1976.0</ele>
        <time>2019-05-04T11:53:26Z</time>
      </trkpt>
      <trkpt lat="39.202033" lon="-6.120483">
        <ele>1976.0</ele>
        <time>2019-05-04T11:53:27Z</time>
      </trkpt>
      <trkpt lat="39.201967" lon="-6.120533">
        <ele>1976.0</ele>
        <time>2019-05-04T11:53:28Z</time>
      </trkpt>
      <trkpt lat="39.201917" lon="-6.120600">
        <ele>1975.0</ele>
        <time>2019-05-04T11:53:29Z</time>
      </trkpt>
      <trkpt lat="39.201883" lon="-6.120683">
        <ele>1974.0</ele>
        <time>2019-05-04T11:53:30Z</time>
      </trkpt>
      <trkpt lat="39.201900" lon="-6.120783">
        <ele>1972.0</ele>
        <time>2019-05-04T11:53:31Z</time>
      </trkpt>
      <trkpt lat="39.201917" lon="-6.120883">
        <ele>1971.0</ele>
        <time>2019-05-04T11:53:32Z</time>
      </trkpt>
      <trkpt lat="39.201950" lon="-6.120967">
        <ele>1970.0</ele>
        <time>2019-05-04T11:53:33Z</time>
      </trkpt>
      <trkpt lat="39.201983" lon="-6.121050">
        <ele>1971.0</ele>
        <time>2019-05-04T11:53:34Z</time>
      </trkpt>
      <trkpt lat="39.202000" lon="-6.121117">
        <ele>1971.0</ele>
        <time>2019-05-04T11:53:35Z</time>
      </trkpt>
      <trkpt lat="39.202050" lon="-6.121183">
        <ele>1970.0</ele>
        <time>2019-05-04T11:53:36Z</time>
      </trkpt>
      <trkpt lat="39.202100" lon="-6.121233">
        <ele>1970.0</ele>
        <time>2019-05-04T11:53:37Z</time>
      </trkpt>
      <trkpt lat="39.202167" lon="-6.121283">
        <ele>1969.0</ele>
        <time>2019-05-04T11:53:38Z</time>
      </trkpt>
      <trkpt lat="39.202233" lon="-6.121333">
        <ele>1968.0</ele>
        <time>2019-05-04T11:53:39Z</time>
      </trkpt>
      <trkpt lat="39.202300" lon="-6.121367">
        <ele>1969.0</ele>
        <time>2019-05-04T11:53:40Z</time>
      </trkpt>
      <trkpt lat="39.202367" lon="-6.121383">
        <ele>1969.0</ele>
        <time>2019-05-04T11:53:41Z</time>
      </trkpt>
      <trkpt lat="39.202417" lon="-6.121383">
        <ele>1969.0</ele>
        <time>2019-05-04T11:53:42Z</time>
      </trkpt>
      <trkpt lat="39.202500" lon="-6.121383">
        <ele>1969.0</ele>
        <time>2019-05-04T11:53:43Z</time>
      </trkpt>
      <trkpt lat="39.202583" lon="-6.121350">
        <ele>1969.0</ele>
        <time>2019-05-04T11:53:44Z</time>
      </trkpt>
      <trkpt lat="39.202650" lon="-6.121300">
        <ele>1968.0</ele>
        <time>2019-05-04T11:53:45Z</time>
      </trkpt>
      <trkpt lat="39.202733" lon="-6.121267">
        <ele>1969.0</ele>
        <time>2019-05-04T11:53:46Z</time>
      </trkpt>
      <trkpt lat="39.202783" lon="-6.121217">
        <ele>1971.0</ele>
        <time>2019-05-04T11:53:47Z</time>
      </trkpt>
      <trkpt lat="39.202833" lon="-6.121183">
        <ele>1972.0</ele>
        <time>2019-05-04T11:53:48Z</time>
      </trkpt>
      <trkpt lat="39.202883" lon="-6.121133">
        <ele>1972.0</ele>
        <time>2019-05-04T11:53:49Z</time>
      </trkpt>
      <trkpt lat="39.202950" lon="-6.121083">
        <ele>1972.0</ele>
        <time>2019-05-04T11:53:50Z</time>
      </trkpt>
      <trkpt lat="39.203000" lon="-6.121000">
        <ele>1972.0</ele>
        <time>2019-05-04T11:53:51Z</time>
      </trkpt>
      <trkpt lat="39.203050" lon="-6.120900">
        <ele>1972.0</ele>
        <time>2019-05-04T11:53:52Z</time>
      </trkpt>
      <trkpt lat="39.203083" lon="-6.120783">
        <ele>1973.0</ele>
        <time>2019-05-04T11:53:53Z</time>
      </trkpt>
      <trkpt lat="39.203083" lon="-6.120667">
        <ele>1973.0</ele>
        <time>2019-05-04T11:53:54Z</time>
      </trkpt>
      <trkpt lat="39.203067" lon="-6.120533">
        <ele>1973.0</ele>
        <time>2019-05-04T11:53:55Z</time>
      </trkpt>
      <trkpt lat="39.203050" lon="-6.120400">
        <ele>1973.0</ele>
        <time>2019-05-04T11:53:56Z</time>
      </trkpt>
      <trkpt lat="39.203000" lon="-6.120283">
        <ele>1973.0</ele>
        <time>2019-05-04T11:53:57Z</time>
      </trkpt>
      <trkpt lat="39.202933" lon="-6.120183">
        <ele>1973.0</ele>
        <time>2019-05-04T11:53:58Z</time>
      </trkpt>
      <trkpt lat="39.202833" lon="-6.120100">
        <ele>1972.0</ele>
        <time>2019-05-04T11:53:59Z</time>
      </trkpt>
      <trkpt lat="39.202733" lon="-6.120050">
        <ele>1969.0</ele>
        <time>2019-05-04T11:54:00Z</time>
      </trkpt>
      <trkpt lat="39.202617" lon="-6.120033">
        <ele>1968.0</ele>
        <time>2019-05-04T11:54:01Z</time>
      </trkpt>
      <trkpt lat="39.202517" lon="-6.120033">
        <ele>1966.0</ele>
        <time>2019-05-04T11:54:02Z</time>
      </trkpt>
      <trkpt lat="39.202417" lon="-6.120067">
        <ele>1965.0</ele>
        <time>2019-05-04T11:54:03Z</time>
      </trkpt>
      <trkpt lat="39.202350" lon="-6.120133">
        <ele>1963.0</ele>
        <time>2019-05-04T11:54:04Z</time>
      </trkpt>
      <trkpt lat="39.202283" lon="-6.120217">
        <ele>1962.0</ele>
        <time>2019-05-04T11:54:05Z</time>
      </trkpt>
      <trkpt lat="39.202250" lon="-6.120300">
        <ele>1961.0</ele>
        <time>2019-05-04T11:54:06Z</time>
      </trkpt>
      <trkpt lat="39.202233" lon="-6.120400">
        <ele>1959.0</ele>
        <time>2019-05-04T11:54:07Z</time>
      </trkpt>
      <trkpt lat="39.202217" lon="-6.120483">
        <ele>1958.0</ele>
        <time>2019-05-04T11:54:08Z</time>
      </trkpt>
      <trkpt lat="39.202217" lon="-6.120567">
        <ele>1957.0</ele>
        <time>2019-05-04T11:54:09Z</time>
      </trkpt>
      <trkpt lat="39.202217" lon="-6.120650">
        <ele>1956.0</ele>
        <time>2019-05-04T11:54:10Z</time>
      </trkpt>
      <trkpt lat="39.202217" lon="-6.120733">
        <ele>1956.0</ele>
        <time>2019-05-04T11:54:11Z</time>
      </trkpt>
      <trkpt lat="39.202233" lon="-6.120817">
        <ele>1955.0</ele>
        <time>2019-05-04T11:54:12Z</time>
      </trkpt>
      <trkpt lat="39.202233" lon="-6.120900">
        <ele>1954.0</ele>
        <time>2019-05-04T11:54:13Z</time>
      </trkpt>
      <trkpt lat="39.202233" lon="-6.120983">
        <ele>1954.0</ele>
        <time>2019-05-04T11:54:14Z</time>
      </trkpt>
      <trkpt lat="39.202233" lon="-6.121067">
        <ele>1953.0</ele>
        <time>2019-05-04T11:54:15Z</time>
      </trkpt>
      <trkpt lat="39.202233" lon="-6.121150">
        <ele>1953.0</ele>
        <time>2019-05-04T11:54:16Z</time>
      </trkpt>
      <trkpt lat="39.202233" lon="-6.121217">
        <ele>1955.0</ele>
        <time>2019-05-04T11:54:17Z</time>
      </trkpt>
      <trkpt lat="39.202233" lon="-6.121283">
        <ele>1956.0</ele>
        <time>2019-05-04T11:54:18Z</time>
      </trkpt>
      <trkpt lat="39.202233" lon="-6.121350">
        <ele>1957.0</ele>
        <time>2019-05-04T11:54:19Z</time>
      </trkpt>
      <trkpt lat="39.202233" lon="-6.121433">
        <ele>1957.0</ele>
        <time>2019-05-04T11:54:20Z</time>
      </trkpt>
      <trkpt lat="39.202233" lon="-6.121517">
        <ele>1957.0</ele>
        <time>2019-05-04T11:54:21Z</time>
      </trkpt>
      <trkpt lat="39.202250" lon="-6.121600">
        <ele>1957.0</ele>
        <time>2019-05-04T11:54:22Z</time>
      </trkpt>
      <trkpt lat="39.202283" lon="-6.121683">
        <ele>1957.0</ele>
        <time>2019-05-04T11:54:23Z</time>
      </trkpt>
      <trkpt lat="39.202283" lon="-6.121750">
        <ele>1957.0</ele>
        <time>2019-05-04T11:54:24Z</time>
      </trkpt>
      <trkpt lat="39.202300" lon="-6.121833">
        <ele>1959.0</ele>
        <time>2019-05-04T11:54:25Z</time>
      </trkpt>
      <trkpt lat="39.202317" lon="-6.121883">
        <ele>1960.0</ele>
        <time>2019-05-04T11:54:26Z</time>
      </trkpt>
      <trkpt lat="39.202350" lon="-6.121950">
        <ele>1960.0</ele>
        <time>2019-05-04T11:54:27Z</time>
      </trkpt>
      <trkpt lat="39.202383" lon="-6.122017">
        <ele>1960.0</ele>
        <time>2019-05-04T11:54:28Z</time>
      </trkpt>
      <trkpt lat="39.202417" lon="-6.122083">
        <ele>1960.0</ele>
        <time>2019-05-04T11:54:29Z</time>
      </trkpt>
      <trkpt lat="39.202433" lon="-6.122167">
        <ele>1959.0</ele>
        <time>2019-05-04T11:54:30Z</time>
      </trkpt>
      <trkpt lat="39.202483" lon="-6.122217">
        <ele>1959.0</ele>
        <time>2019-05-04T11:54:31Z</time>
      </trkpt>
      <trkpt lat="39.202533" lon="-6.122267">
        <ele>1960.0</ele>
        <time>2019-05-04T11:54:32Z</time>
      </trkpt>
      <trkpt lat="39.202583" lon="-6.122300">
        <ele>1960.0</ele>
        <time>2019-05-04T11:54:33Z</time>
      </trkpt>
      <trkpt lat="39.202650" lon="-6.122317">
        <ele>1960.0</ele>
        <time>2019-05-04T11:54:34Z</time>
      </trkpt>
      <trkpt lat="39.202717" lon="-6.122300">
        <ele>1959.0</ele>
        <time>2019-05-04T11:54:35Z</time>
      </trkpt>
      <trkpt lat="39.202783" lon="-6.122267">
        <ele>1959.0</ele>
        <time>2019-05-04T11:54:36Z</time>
      </trkpt>
      <trkpt lat="39.202833" lon="-6.122217">
        <ele>1959.0</ele>
        <time>2019-05-04T11:54:37Z</time>
      </trkpt>
      <trkpt lat="39.202900" lon="-6.122167">
        <ele>1960.0</ele>
        <time>2019-05-04T11:54:38Z</time>
      </trkpt>
      <trkpt lat="39.202967" lon="-6.122117">
        <ele>1960.0</ele>
        <time>2019-05-04T11:54:39Z</time>
      </trkpt>
      <trkpt lat="39.203033" lon="-6.122083">
        <ele>1959.0</ele>
        <time>2019-05-04T11:54:40Z</time>
      </trkpt>
      <trkpt lat="39.203100" lon="-6.122050">
        <ele>1958.0</ele>
        <time>2019-05-04T11:54:41Z</time>
      </trkpt>
      <trkpt lat="39.203183" lon="-6.122033">
        <ele>1957.0</ele>
        <time>2019-05-04T11:54:42Z</time>
      </trkpt>
      <trkpt lat="39.203233" lon="-6.122000">
        <ele>1955.0</ele>
        <time>2019-05-04T11:54:43Z</time>
      </trkpt>
      <trkpt lat="39.203300" lon="-6.121967">
        <ele>1954.0</ele>
        <time>2019-05-04T11:54:44Z</time>
      </trkpt>
      <trkpt lat="39.203350" lon="-6.121933">
        <ele>1953.0</ele>
        <time>2019-05-04T11:54:45Z</time>
      </trkpt>
      <trkpt lat="39.203417" lon="-6.121900">
        <ele>1952.0</ele>
        <time>2019-05-04T11:54:46Z</time>
      </trkpt>
      <trkpt lat="39.203483" lon="-6.121867">
        <ele>1951.0</ele>
        <time>2019-05-04T11:54:47Z</time>
      </trkpt>
      <trkpt lat="39.203533" lon="-6.121833">
        <ele>1950.0</ele>
        <time>2019-05-04T11:54:48Z</time>
      </trkpt>
      <trkpt lat="39.203583" lon="-6.121817">
        <ele>1949.0</ele>
        <time>2019-05-04T11:54:49Z</time>
      </trkpt>
      <trkpt lat="39.203633" lon="-6.121783">
        <ele>1947.0</ele>
        <time>2019-05-04T11:54:50Z</time>
      </trkpt>
      <trkpt lat="39.203700" lon="-6.121767">
        <ele>1945.0</ele>
        <time>2019-05-04T11:54:51Z</time>
      </trkpt>
      <trkpt lat="39.203767" lon="-6.121767">
        <ele>1944.0</ele>
        <time>2019-05-04T11:54:52Z</time>
      </trkpt>
      <trkpt lat="39.203833" lon="-6.121767">
        <ele>1942.0</ele>
        <time>2019-05-04T11:54:53Z</time>
      </trkpt>
      <trkpt lat="39.203883" lon="-6.121800">
        <ele>1943.0</ele>
        <time>2019-05-04T11:54:54Z</time>
      </trkpt>
      <trkpt lat="39.203917" lon="-6.121833">
        <ele>1944.0</ele>
        <time>2019-05-04T11:54:55Z</time>
      </trkpt>
      <trkpt lat="39.203950" lon="-6.121850">
        <ele>1944.0</ele>
        <time>2019-05-04T11:54:56Z</time>
      </trkpt>
      <trkpt lat="39.203983" lon="-6.121883">
        <ele>1944.0</ele>
        <time>2019-05-04T11:54:57Z</time>
      </trkpt>
      <trkpt lat="39.204050" lon="-6.121900">
        <ele>1943.0</ele>
        <time>2019-05-04T11:54:58Z</time>
      </trkpt>
      <trkpt lat="39.204117" lon="-6.121917">
        <ele>1941.0</ele>
        <time>2019-05-04T11:54:59Z</time>
      </trkpt>
      <trkpt lat="39.204167" lon="-6.121917">
        <ele>1941.0</ele>
        <time>2019-05-04T11:55:00Z</time>
      </trkpt>
      <trkpt lat="39.204217" lon="-6.121900">
        <ele>1941.0</ele>
        <time>2019-05-04T11:55:01Z</time>
      </trkpt>
      <trkpt lat="39.204250" lon="-6.121900">
        <ele>1942.0</ele>
        <time>2019-05-04T11:55:02Z</time>
      </trkpt>
      <trkpt lat="39.204283" lon="-6.121883">
        <ele>1941.0</ele>
        <time>2019-05-04T11:55:03Z</time>
      </trkpt>
      <trkpt lat="39.204317" lon="-6.121883">
        <ele>1939.0</ele>
        <time>2019-05-04T11:55:04Z</time>
      </trkpt>
      <trkpt lat="39.204367" lon="-6.121867">
        <ele>1938.0</ele>
        <time>2019-05-04T11:55:05Z</time>
      </trkpt>
      <trkpt lat="39.204400" lon="-6.121883">
        <ele>1936.0</ele>
        <time>2019-05-04T11:55:06Z</time>
      </trkpt>
      <trkpt lat="39.204417" lon="-6.121917">
        <ele>1935.0</ele>
        <time>2019-05-04T11:55:07Z</time>
      </trkpt>
      <trkpt lat="39.204433" lon="-6.121950">
        <ele>1935.0</ele>
        <time>2019-05-04T11:55:08Z</time>
      </trkpt>
      <trkpt lat="39.204467" lon="-6.121983">
        <ele>1935.0</ele>
        <time>2019-05-04T11:55:09Z</time>
      </trkpt>
      <trkpt lat="39.204500" lon="-6.122017">
        <ele>1935.0</ele>
        <time>2019-05-04T11:55:10Z</time>
      </trkpt>
      <trkpt lat="39.204533" lon="-6.122067">
        <ele>1935.0</ele>
        <time>2019-05-04T11:55:11Z</time>
      </trkpt>
      <trkpt lat="39.204567" lon="-6.122117">
        <ele>1935.0</ele>
        <time>2019-05-04T11:55:12Z</time>
      </trkpt>
      <trkpt lat="39.204600" lon="-6.122167">
        <ele>1935.0</ele>
        <time>2019-05-04T11:55:13Z</time>
      </trkpt>
      <trkpt lat="39.204650" lon="-6.122183">
        <ele>1936.0</ele>
        <time>2019-05-04T11:55:14Z</time>
      </trkpt>
      <trkpt lat="39.204700" lon="-6.122217">
        <ele>1938.0</ele>
        <time>2019-05-04T11:55:15Z</time>
      </trkpt>
      <trkpt lat="39.204750" lon="-6.122267">
        <ele>1939.0</ele>
        <time>2019-05-04T11:55:16Z</time>
      </trkpt>
      <trkpt lat="39.204800" lon="-6.122300">
        <ele>1941.0</ele>
        <time>2019-05-04T11:55:17Z</time>
      </trkpt>
      <trkpt lat="39.204833" lon="-6.122333">
        <ele>1942.0</ele>
        <time>2019-05-04T11:55:18Z</time>
      </trkpt>
      <trkpt lat="39.204883" lon="-6.122350">
        <ele>1944.0</ele>
        <time>2019-05-04T11:55:19Z</time>
      </trkpt>
      <trkpt lat="39.204933" lon="-6.122350">
        <ele>1945.0</ele>
        <time>2019-05-04T11:55:20Z</time>
      </trkpt>
      <trkpt lat="39.205000" lon="-6.122367">
        <ele>1945.0</ele>
        <time>2019-05-04T11:55:21Z</time>
      </trkpt>
      <trkpt lat="39.205067" lon="-6.122350">
        <ele>1945.0</ele>
        <time>2019-05-04T11:55:22Z</time>
      </trkpt>
      <trkpt lat="39.205133" lon="-6.122317">
        <ele>1943.0</ele>
        <time>2019-05-04T11:55:23Z</time>
      </trkpt>
      <trkpt lat="39.205200" lon="-6.122250">
        <ele>1941.0</ele>
        <time>2019-05-04T11:55:24Z</time>
      </trkpt>
      <trkpt lat="39.205233" lon="-6.122150">
        <ele>1939.0</ele>
        <time>2019-05-04T11:55:25Z</time>
      </trkpt>
      <trkpt lat="39.205267" lon="-6.122033">
        <ele>1937.0</ele>
        <time>2019-05-04T11:55:26Z</time>
      </trkpt>
      <trkpt lat="39.205250" lon="-6.121917">
        <ele>1935.0</ele>
        <time>2019-05-04T11:55:27Z</time>
      </trkpt>
      <trkpt lat="39.205217" lon="-6.121783">
        <ele>1934.0</ele>
        <time>2019-05-04T11:55:28Z</time>
      </trkpt>
      <trkpt lat="39.205150" lon="-6.121650">
        <ele>1932.0</ele>
        <time>2019-05-04T11:55:29Z</time>
      </trkpt>
      <trkpt lat="39.205067" lon="-6.121550">
        <ele>1931.0</ele>
        <time>2019-05-04T11:55:30Z</time>
      </trkpt>
      <trkpt lat="39.204967" lon="-6.121467">
        <ele>1932.0</ele>
        <time>2019-05-04T11:55:31Z</time>
      </trkpt>
      <trkpt lat="39.204883" lon="-6.121400">
        <ele>1933.0</ele>
        <time>2019-05-04T11:55:32Z</time>
      </trkpt>
      <trkpt lat="39.204800" lon="-6.121367">
        <ele>1935.0</ele>
        <time>2019-05-04T11:55:33Z</time>
      </trkpt>
      <trkpt lat="39.204717" lon="-6.121333">
        <ele>1936.0</ele>
        <time>2019-05-04T11:55:34Z</time>
      </trkpt>
      <trkpt lat="39.204617" lon="-6.121317">
        <ele>1938.0</ele>
        <time>2019-05-04T11:55:35Z</time>
      </trkpt>
      <trkpt lat="39.204533" lon="-6.121333">
        <ele>1939.0</ele>
        <time>2019-05-04T11:55:36Z</time>
      </trkpt>
      <trkpt lat="39.204450" lon="-6.121367">
        <ele>1940.0</ele>
        <time>2019-05-04T11:55:37Z</time>
      </trkpt>
      <trkpt lat="39.204383" lon="-6.121433">
        <ele>1940.0</ele>
        <time>2019-05-04T11:55:38Z</time>
      </trkpt>
      <trkpt lat="39.204367" lon="-6.121517">
        <ele>1941.0</ele>
        <time>2019-05-04T11:55:39Z</time>
      </trkpt>
      <trkpt lat="39.204383" lon="-6.121617">
        <ele>1941.0</ele>
        <time>2019-05-04T11:55:40Z</time>
      </trkpt>
      <trkpt lat="39.204417" lon="-6.121700">
        <ele>1942.0</ele>
        <time>2019-05-04T11:55:41Z</time>
      </trkpt>
      <trkpt lat="39.204483" lon="-6.121750">
        <ele>1944.0</ele>
        <time>2019-05-04T11:55:42Z</time>
      </trkpt>
      <trkpt lat="39.204567" lon="-6.121767">
        <ele>1945.0</ele>
        <time>2019-05-04T11:55:43Z</time>
      </trkpt>
      <trkpt lat="39.204650" lon="-6.121750">
        <ele>1947.0</ele>
        <time>2019-05-04T11:55:44Z</time>
      </trkpt>
      <trkpt lat="39.204717" lon="-6.121700">
        <ele>1949.0</ele>
        <time>2019-05-04T11:55:45Z</time>
      </trkpt>
      <trkpt lat="39.204783" lon="-6.121633">
        <ele>1950.0</ele>
        <time>2019-05-04T11:55:46Z</time>
      </trkpt>
      <trkpt lat="39.204817" lon="-6.121517">
        <ele>1950.0</ele>
        <time>2019-05-04T11:55:47Z</time>
      </trkpt>
      <trkpt lat="39.204817" lon="-6.121400">
        <ele>1950.0</ele>
        <time>2019-05-04T11:55:48Z</time>
      </trkpt>
      <trkpt lat="39.204800" lon="-6.121267">
        <ele>1949.0</ele>
        <time>2019-05-04T11:55:49Z</time>
      </trkpt>
      <trkpt lat="39.204767" lon="-6.121133">
        <ele>1949.0</ele>
        <time>2019-05-04T11:55:50Z</time>
      </trkpt>
      <trkpt lat="39.204733" lon="-6.121000">
        <ele>1949.0</ele>
        <time>2019-05-04T11:55:51Z</time>
      </trkpt>
      <trkpt lat="39.204667" lon="-6.120900">
        <ele>1951.0</ele>
        <time>2019-05-04T11:55:52Z</time>
      </trkpt>
      <trkpt lat="39.204583" lon="-6.120833">
        <ele>1952.0</ele>
        <time>2019-05-04T11:55:53Z</time>
      </trkpt>
      <trkpt lat="39.204500" lon="-6.120783">
        <ele>1954.0</ele>
        <time>2019-05-04T11:55:54Z</time>
      </trkpt>
      <trkpt lat="39.204417" lon="-6.120767">
        <ele>1955.0</ele>
        <time>2019-05-04T11:55:55Z</time>
      </trkpt>
      <trkpt lat="39.204333" lon="-6.120783">
        <ele>1956.0</ele>
        <time>2019-05-04T11:55:56Z</time>
      </trkpt>
      <trkpt lat="39.204267" lon="-6.120817">
        <ele>1957.0</ele>
        <time>2019-05-04T11:55:57Z</time>
      </trkpt>
      <trkpt lat="39.204233" lon="-6.120883">
        <ele>1959.0</ele>
        <time>2019-05-04T11:55:58Z</time>
      </trkpt>
      <trkpt lat="39.204200" lon="-6.120967">
        <ele>1959.0</ele>
        <time>2019-05-04T11:55:59Z</time>
      </trkpt>
      <trkpt lat="39.204200" lon="-6.121050">
        <ele>1960.0</ele>
        <time>2019-05-04T11:56:00Z</time>
      </trkpt>
      <trkpt lat="39.204200" lon="-6.121133">
        <ele>1961.0</ele>
        <time>2019-05-04T11:56:01Z</time>
      </trkpt>
      <trkpt lat="39.204233" lon="-6.121233">
        <ele>1961.0</ele>
        <time>2019-05-04T11:56:02Z</time>
      </trkpt>
      <trkpt lat="39.204300" lon="-6.121300">
        <ele>1962.0</ele>
        <time>2019-05-04T11:56:03Z</time>
      </trkpt>
      <trkpt lat="39.204383" lon="-6.121333">
        <ele>1964.0</ele>
        <time>2019-05-04T11:56:04Z</time>
      </trkpt>
      <trkpt lat="39.204467" lon="-6.121317">
        <ele>1965.0</ele>
        <time>2019-05-04T11:56:05Z</time>
      </trkpt>
      <trkpt lat="39.204533" lon="-6.121267">
        <ele>1966.0</ele>
        <time>2019-05-04T11:56:06Z</time>
      </trkpt>
      <trkpt lat="39.204600" lon="-6.121200">
        <ele>1967.0</ele>
        <time>2019-05-04T11:56:07Z</time>
      </trkpt>
      <trkpt lat="39.204650" lon="-6.121117">
        <ele>1968.0</ele>
        <time>2019-05-04T11:56:08Z</time>
      </trkpt>
      <trkpt lat="39.204683" lon="-6.121033">
        <ele>1968.0</ele>
        <time>2019-05-04T11:56:09Z</time>
      </trkpt>
      <trkpt lat="39.204717" lon="-6.120917">
        <ele>1967.0</ele>
        <time>2019-05-04T11:56:10Z</time>
      </trkpt>
      <trkpt lat="39.204733" lon="-6.120783">
        <ele>1966.0</ele>
        <time>2019-05-04T11:56:11Z</time>
      </trkpt>
      <trkpt lat="39.204717" lon="-6.120617">
        <ele>1965.0</ele>
        <time>2019-05-04T11:56:12Z</time>
      </trkpt>
      <trkpt lat="39.204667" lon="-6.120467">
        <ele>1964.0</ele>
        <time>2019-05-04T11:56:13Z</time>
      </trkpt>
      <trkpt lat="39.204600" lon="-6.120350">
        <ele>1963.0</ele>
        <time>2019-05-04T11:56:14Z</time>
      </trkpt>
      <trkpt lat="39.204517" lon="-6.120267">
        <ele>1964.0</ele>
        <time>2019-05-04T11:56:15Z</time>
      </trkpt>
      <trkpt lat="39.204450" lon="-6.120217">
        <ele>1965.0</ele>
        <time>2019-05-04T11:56:16Z</time>
      </trkpt>
      <trkpt lat="39.204383" lon="-6.120150">
        <ele>1965.0</ele>
        <time>2019-05-04T11:56:17Z</time>
      </trkpt>
      <trkpt lat="39.204300" lon="-6.120083">
        <ele>1965.0</ele>
        <time>2019-05-04T11:56:18Z</time>
      </trkpt>
      <trkpt lat="39.204200" lon="-6.120050">
        <ele>1963.0</ele>
        <time>2019-05-04T11:56:19Z</time>
      </trkpt>
      <trkpt lat="39.204117" lon="-6.120050">
        <ele>1963.0</ele>
        <time>2019-05-04T11:56:20Z</time>
      </trkpt>
      <trkpt lat="39.204033" lon="-6.120083">
        <ele>1963.0</ele>
        <time>2019-05-04T11:56:21Z</time>
      </trkpt>
      <trkpt lat="39.203983" lon="-6.120117">
        <ele>1965.0</ele>
        <time>2019-05-04T11:56:22Z</time>
      </trkpt>
      <trkpt lat="39.203917" lon="-6.120150">
        <ele>1967.0</ele>
        <time>2019-05-04T11:56:23Z</time>
      </trkpt>
      <trkpt lat="39.203867" lon="-6.120183">
        <ele>1969.0</ele>
        <time>2019-05-04T11:56:24Z</time>
      </trkpt>
      <trkpt lat="39.203800" lon="-6.120217">
        <ele>1969.0</ele>
        <time>2019-05-04T11:56:25Z</time>
      </trkpt>
      <trkpt lat="39.203750" lon="-6.120267">
        <ele>1969.0</ele>
        <time>2019-05-04T11:56:26Z</time>
      </trkpt>
      <trkpt lat="39.203717" lon="-6.120367">
        <ele>1969.0</ele>
        <time>2019-05-04T11:56:27Z</time>
      </trkpt>
      <trkpt lat="39.203733" lon="-6.120467">
        <ele>1969.0</ele>
        <time>2019-05-04T11:56:28Z</time>
      </trkpt>
      <trkpt lat="39.203783" lon="-6.120550">
        <ele>1969.0</ele>
        <time>2019-05-04T11:56:29Z</time>
      </trkpt>
      <trkpt lat="39.203850" lon="-6.120600">
        <ele>1970.0</ele>
        <time>2019-05-04T11:56:30Z</time>
      </trkpt>
      <trkpt lat="39.203933" lon="-6.120600">
        <ele>1970.0</ele>
        <time>2019-05-04T11:56:31Z</time>
      </trkpt>
      <trkpt lat="39.204017" lon="-6.120567">
        <ele>1971.0</ele>
        <time>2019-05-04T11:56:32Z</time>
      </trkpt>
      <trkpt lat="39.204067" lon="-6.120517">
        <ele>1972.0</ele>
        <time>2019-05-04T11:56:33Z</time>
      </trkpt>
      <trkpt lat="39.204133" lon="-6.120433">
        <ele>1972.0</ele>
        <time>2019-05-04T11:56:34Z</time>
      </trkpt>
      <trkpt lat="39.204183" lon="-6.120333">
        <ele>1972.0</ele>
        <time>2019-05-04T11:56:35Z</time>
      </trkpt>
      <trkpt lat="39.204233" lon="-6.120217">
        <ele>1972.0</ele>
        <time>2019-05-04T11:56:36Z</time>
      </trkpt>
      <trkpt lat="39.204233" lon="-6.120067">
        <ele>1971.0</ele>
        <time>2019-05-04T11:56:37Z</time>
      </trkpt>
      <trkpt lat="39.204200" lon="-6.119917">
        <ele>1970.0</ele>
        <time>2019-05-04T11:56:38Z</time>
      </trkpt>
      <trkpt lat="39.204133" lon="-6.119800">
        <ele>1970.0</ele>
        <time>2019-05-04T11:56:39Z</time>
      </trkpt>
      <trkpt lat="39.204050" lon="-6.119700">
        <ele>1969.0</ele>
        <time>2019-05-04T11:56:40Z</time>
      </trkpt>
      <trkpt lat="39.203950" lon="-6.119633">
        <ele>1969.0</ele>
        <time>2019-05-04T11:56:41Z</time>
      </trkpt>
      <trkpt lat="39.203867" lon="-6.119600">
        <ele>1970.0</ele>
        <time>2019-05-04T11:56:42Z</time>
      </trkpt>
      <trkpt lat="39.203767" lon="-6.119600">
        <ele>1971.0</ele>
        <time>2019-05-04T11:56:43Z</time>
      </trkpt>
      <trkpt lat="39.203700" lon="-6.119617">
        <ele>1972.0</ele>
        <time>2019-05-04T11:56:44Z</time>
      </trkpt>
      <trkpt lat="39.203617" lon="-6.119633">
        <ele>1972.0</ele>
        <time>2019-05-04T11:56:45Z</time>
      </trkpt>
      <trkpt lat="39.203550" lon="-6.119683">
        <ele>1973.0</ele>
        <time>2019-05-04T11:56:46Z</time>
      </trkpt>
      <trkpt lat="39.203483" lon="-6.119700">
        <ele>1974.0</ele>
        <time>2019-05-04T11:56:47Z</time>
      </trkpt>
      <trkpt lat="39.203417" lon="-6.119733">
        <ele>1975.0</ele>
        <time>2019-05-04T11:56:48Z</time>
      </trkpt>
      <trkpt lat="39.203367" lon="-6.119767">
        <ele>1976.0</ele>
        <time>2019-05-04T11:56:49Z</time>
      </trkpt>
      <trkpt lat="39.203333" lon="-6.119800">
        <ele>1977.0</ele>
        <time>2019-05-04T11:56:50Z</time>
      </trkpt>
      <trkpt lat="39.203283" lon="-6.119850">
        <ele>1977.0</ele>
        <time>2019-05-04T11:56:51Z</time>
      </trkpt>
      <trkpt lat="39.203217" lon="-6.119900">
        <ele>1976.0</ele>
        <time>2019-05-04T11:56:52Z</time>
      </trkpt>
      <trkpt lat="39.203183" lon="-6.119967">
        <ele>1976.0</ele>
        <time>2019-05-04T11:56:53Z</time>
      </trkpt>
      <trkpt lat="39.203150" lon="-6.120017">
        <ele>1976.0</ele>
        <time>2019-05-04T11:56:54Z</time>
      </trkpt>
      <trkpt lat="39.203133" lon="-6.120083">
        <ele>1977.0</ele>
        <time>2019-05-04T11:56:55Z</time>
      </trkpt>
      <trkpt lat="39.203117" lon="-6.120150">
        <ele>1977.0</ele>
        <time>2019-05-04T11:56:56Z</time>
      </trkpt>
      <trkpt lat="39.203117" lon="-6.120200">
        <ele>1976.0</ele>
        <time>2019-05-04T11:56:57Z</time>
      </trkpt>
      <trkpt lat="39.203117" lon="-6.120267">
        <ele>1975.0</ele>
        <time>2019-05-04T11:56:58Z</time>
      </trkpt>
      <trkpt lat="39.203117" lon="-6.120350">
        <ele>1974.0</ele>
        <time>2019-05-04T11:56:59Z</time>
      </trkpt>
      <trkpt lat="39.203133" lon="-6.120450">
        <ele>1973.0</ele>
        <time>2019-05-04T11:57:00Z</time>
      </trkpt>
      <trkpt lat="39.203133" lon="-6.120533">
        <ele>1973.0</ele>
        <time>2019-05-04T11:57:01Z</time>
      </trkpt>
      <trkpt lat="39.203117" lon="-6.120633">
        <ele>1974.0</ele>
        <time>2019-05-04T11:57:02Z</time>
      </trkpt>
      <trkpt lat="39.203083" lon="-6.120717">
        <ele>1975.0</ele>
        <time>2019-05-04T11:57:03Z</time>
      </trkpt>
      <trkpt lat="39.203050" lon="-6.120783">
        <ele>1976.0</ele>
        <time>2019-05-04T11:57:04Z</time>
      </trkpt>
      <trkpt lat="39.203033" lon="-6.120850">
        <ele>1977.0</ele>
        <time>2019-05-04T11:57:05Z</time>
      </trkpt>
      <trkpt lat="39.203017" lon="-6.120933">
        <ele>1977.0</ele>
        <time>2019-05-04T11:57:06Z</time>
      </trkpt>
      <trkpt lat="39.203000" lon="-6.121017">
        <ele>1976.0</ele>
        <time>2019-05-04T11:57:07Z</time>
      </trkpt>
      <trkpt lat="39.202950" lon="-6.121100">
        <ele>1974.0</ele>
        <time>2019-05-04T11:57:08Z</time>
      </trkpt>
      <trkpt lat="39.202900" lon="-6.121183">
        <ele>1973.0</ele>
        <time>2019-05-04T11:57:09Z</time>
      </trkpt>
      <trkpt lat="39.202833" lon="-6.121250">
        <ele>1972.0</ele>
        <time>2019-05-04T11:57:10Z</time>
      </trkpt>
      <trkpt lat="39.202767" lon="-6.121300">
        <ele>1971.0</ele>
        <time>2019-05-04T11:57:11Z</time>
      </trkpt>
      <trkpt lat="39.202683" lon="-6.121350">
        <ele>1970.0</ele>
        <time>2019-05-04T11:57:12Z</time>
      </trkpt>
      <trkpt lat="39.202600" lon="-6.121383">
        <ele>1969.0</ele>
        <time>2019-05-04T11:57:13Z</time>
      </trkpt>
      <trkpt lat="39.202517" lon="-6.121400">
        <ele>1968.0</ele>
        <time>2019-05-04T11:57:14Z</time>
      </trkpt>
      <trkpt lat="39.202417" lon="-6.121400">
        <ele>1967.0</ele>
        <time>2019-05-04T11:57:15Z</time>
      </trkpt>
      <trkpt lat="39.202317" lon="-6.121367">
        <ele>1966.0</ele>
        <time>2019-05-04T11:57:16Z</time>
      </trkpt>
      <trkpt lat="39.202233" lon="-6.121300">
        <ele>1965.0</ele>
        <time>2019-05-04T11:57:17Z</time>
      </trkpt>
      <trkpt lat="39.202167" lon="-6.121200">
        <ele>1964.0</ele>
        <time>2019-05-04T11:57:18Z</time>
      </trkpt>
      <trkpt lat="39.202100" lon="-6.121117">
        <ele>1963.0</ele>
        <time>2019-05-04T11:57:19Z</time>
      </trkpt>
      <trkpt lat="39.202067" lon="-6.121017">
        <ele>1962.0</ele>
        <time>2019-05-04T11:57:20Z</time>
      </trkpt>
      <trkpt lat="39.202033" lon="-6.120900">
        <ele>1961.0</ele>
        <time>2019-05-04T11:57:21Z</time>
      </trkpt>
      <trkpt lat="39.202000" lon="-6.120783">
        <ele>1959.0</ele>
        <time>2019-05-04T11:57:22Z</time>
      </trkpt>
      <trkpt lat="39.201983" lon="-6.120667">
        <ele>1958.0</ele>
        <time>2019-05-04T11:57:23Z</time>
      </trkpt>
      <trkpt lat="39.202000" lon="-6.120533">
        <ele>1958.0</ele>
        <time>2019-05-04T11:57:24Z</time>
      </trkpt>
      <trkpt lat="39.202017" lon="-6.120417">
        <ele>1959.0</ele>
        <time>2019-05-04T11:57:25Z</time>
      </trkpt>
      <trkpt lat="39.202017" lon="-6.120317">
        <ele>1960.0</ele>
        <time>2019-05-04T11:57:26Z</time>
      </trkpt>
      <trkpt lat="39.202017" lon="-6.120233">
        <ele>1960.0</ele>
        <time>2019-05-04T11:57:27Z</time>
      </trkpt>
      <trkpt lat="39.202017" lon="-6.120117">
        <ele>1958.0</ele>
        <time>2019-05-04T11:57:28Z</time>
      </trkpt>
      <trkpt lat="39.202033" lon="-6.120000">
        <ele>1955.0</ele>
        <time>2019-05-04T11:57:29Z</time>
      </trkpt>
      <trkpt lat="39.202067" lon="-6.119867">
        <ele>1951.0</ele>
        <time>2019-05-04T11:57:30Z</time>
      </trkpt>
      <trkpt lat="39.202117" lon="-6.119767">
        <ele>1948.0</ele>
        <time>2019-05-04T11:57:31Z</time>
      </trkpt>
      <trkpt lat="39.202167" lon="-6.119683">
        <ele>1945.0</ele>
        <time>2019-05-04T11:57:32Z</time>
      </trkpt>
      <trkpt lat="39.202233" lon="-6.119633">
        <ele>1942.0</ele>
        <time>2019-05-04T11:57:33Z</time>
      </trkpt>
      <trkpt lat="39.202300" lon="-6.119583">
        <ele>1939.0</ele>
        <time>2019-05-04T11:57:34Z</time>
      </trkpt>
      <trkpt lat="39.202367" lon="-6.119533">
        <ele>1936.0</ele>
        <time>2019-05-04T11:57:35Z</time>
      </trkpt>
      <trkpt lat="39.202467" lon="-6.119500">
        <ele>1933.0</ele>
        <time>2019-05-04T11:57:36Z</time>
      </trkpt>
      <trkpt lat="39.202567" lon="-6.119483">
        <ele>1931.0</ele>
        <time>2019-05-04T11:57:37Z</time>
      </trkpt>
      <trkpt lat="39.202667" lon="-6.119467">
        <ele>1930.0</ele>
        <time>2019-05-04T11:57:38Z</time>
      </trkpt>
      <trkpt lat="39.202750" lon="-6.119483">
        <ele>1932.0</ele>
        <time>2019-05-04T11:57:39Z</time>
      </trkpt>
      <trkpt lat="39.202817" lon="-6.119483">
        <ele>1934.0</ele>
        <time>2019-05-04T11:57:40Z</time>
      </trkpt>
      <trkpt lat="39.202883" lon="-6.119483">
        <ele>1935.0</ele>
        <time>2019-05-04T11:57:41Z</time>
      </trkpt>
      <trkpt lat="39.202950" lon="-6.119483">
        <ele>1936.0</ele>
        <time>2019-05-04T11:57:42Z</time>
      </trkpt>
      <trkpt lat="39.203033" lon="-6.119467">
        <ele>1936.0</ele>
        <time>2019-05-04T11:57:43Z</time>
      </trkpt>
      <trkpt lat="39.203100" lon="-6.119467">
        <ele>1936.0</ele>
        <time>2019-05-04T11:57:44Z</time>
      </trkpt>
      <trkpt lat="39.203167" lon="-6.119450">
        <ele>1936.0</ele>
        <time>2019-05-04T11:57:45Z</time>
      </trkpt>
      <trkpt lat="39.203233" lon="-6.119433">
        <ele>1936.0</ele>
        <time>2019-05-04T11:57:46Z</time>
      </trkpt>
      <trkpt lat="39.203317" lon="-6.119417">
        <ele>1935.0</ele>
        <time>2019-05-04T11:57:47Z</time>
      </trkpt>
      <trkpt lat="39.203383" lon="-6.119417">
        <ele>1933.0</ele>
        <time>2019-05-04T11:57:48Z</time>
      </trkpt>
      <trkpt lat="39.203467" lon="-6.119400">
        <ele>1931.0</ele>
        <time>2019-05-04T11:57:49Z</time>
      </trkpt>
      <trkpt lat="39.203567" lon="-6.119383">
        <ele>1929.0</ele>
        <time>2019-05-04T11:57:50Z</time>
      </trkpt>
      <trkpt lat="39.203650" lon="-6.119400">
        <ele>1928.0</ele>
        <time>2019-05-04T11:57:51Z</time>
      </trkpt>
      <trkpt lat="39.203717" lon="-6.119433">
        <ele>1927.0</ele>
        <time>2019-05-04T11:57:52Z</time>
      </trkpt>
      <trkpt lat="39.203783" lon="-6.119467">
        <ele>1926.0</ele>
        <time>2019-05-04T11:57:53Z</time>
      </trkpt>
      <trkpt lat="39.203833" lon="-6.119500">
        <ele>1926.0</ele>
        <time>2019-05-04T11:57:54Z</time>
      </trkpt>
      <trkpt lat="39.203883" lon="-6.119533">
        <ele>1924.0</ele>
        <time>2019-05-04T11:57:55Z</time>
      </trkpt>
      <trkpt lat="39.203950" lon="-6.119567">
        <ele>1922.0</ele>
        <time>2019-05-04T11:57:56Z</time>
      </trkpt>
      <trkpt lat="39.204000" lon="-6.119617">
        <ele>1918.0</ele>
        <time>2019-05-04T11:57:57Z</time>
      </trkpt>
      <trkpt lat="39.204067" lon="-6.119667">
        <ele>1914.0</ele>
        <time>2019-05-04T11:57:58Z</time>
      </trkpt>
      <trkpt lat="39.204133" lon="-6.119733">
        <ele>1910.0</ele>
        <time>2019-05-04T11:57:59Z</time>
      </trkpt>
      <trkpt lat="39.204200" lon="-6.119817">
        <ele>1907.0</ele>
        <time>2019-05-04T11:58:00Z</time>
      </trkpt>
      <trkpt lat="39.204233" lon="-6.119883">
        <ele>1905.0</ele>
        <time>2019-05-04T11:58:01Z</time>
      </trkpt>
      <trkpt lat="39.204267" lon="-6.119950">
        <ele>1902.0</ele>
        <time>2019-05-04T11:58:02Z</time>
      </trkpt>
      <trkpt lat="39.204317" lon="-6.120033">
        <ele>1899.0</ele>
        <time>2019-05-04T11:58:03Z</time>
      </trkpt>
      <trkpt lat="39.204350" lon="-6.120150">
        <ele>1895.0</ele>
        <time>2019-05-04T11:58:04Z</time>
      </trkpt>
      <trkpt lat="39.204367" lon="-6.120267">
        <ele>1891.0</ele>
        <time>2019-05-04T11:58:05Z</time>
      </trkpt>
      <trkpt lat="39.204367" lon="-6.120367">
        <ele>1888.0</ele>
        <time>2019-05-04T11:58:06Z</time>
      </trkpt>
      <trkpt lat="39.204350" lon="-6.120467">
        <ele>1886.0</ele>
        <time>2019-05-04T11:58:07Z</time>
      </trkpt>
      <trkpt lat="39.204333" lon="-6.120550">
        <ele>1884.0</ele>
        <time>2019-05-04T11:58:08Z</time>
      </trkpt>
      <trkpt lat="39.204317" lon="-6.120633">
        <ele>1881.0</ele>
        <time>2019-05-04T11:58:09Z</time>
      </trkpt>
      <trkpt lat="39.204317" lon="-6.120733">
        <ele>1878.0</ele>
        <time>2019-05-04T11:58:10Z</time>
      </trkpt>
      <trkpt lat="39.204300" lon="-6.120817">
        <ele>1875.0</ele>
        <time>2019-05-04T11:58:11Z</time>
      </trkpt>
      <trkpt lat="39.204283" lon="-6.120917">
        <ele>1873.0</ele>
        <time>2019-05-04T11:58:12Z</time>
      </trkpt>
      <trkpt lat="39.204267" lon="-6.121017">
        <ele>1872.0</ele>
        <time>2019-05-04T11:58:13Z</time>
      </trkpt>
      <trkpt lat="39.204250" lon="-6.121117">
        <ele>1870.0</ele>
        <time>2019-05-04T11:58:14Z</time>
      </trkpt>
      <trkpt lat="39.204217" lon="-6.121200">
        <ele>1871.0</ele>
        <time>2019-05-04T11:58:15Z</time>
      </trkpt>
      <trkpt lat="39.204217" lon="-6.121267">
        <ele>1872.0</ele>
        <time>2019-05-04T11:58:16Z</time>
      </trkpt>
      <trkpt lat="39.204200" lon="-6.121333">
        <ele>1872.0</ele>
        <time>2019-05-04T11:58:17Z</time>
      </trkpt>
      <trkpt lat="39.204183" lon="-6.121400">
        <ele>1871.0</ele>
        <time>2019-05-04T11:58:18Z</time>
      </trkpt>
      <trkpt lat="39.204150" lon="-6.121483">
        <ele>1869.0</ele>
        <time>2019-05-04T11:58:19Z</time>
      </trkpt>
      <trkpt lat="39.204133" lon="-6.121583">
        <ele>1866.0</ele>
        <time>2019-05-04T11:58:20Z</time>
      </trkpt>
      <trkpt lat="39.204117" lon="-6.121667">
        <ele>1864.0</ele>
        <time>2019-05-04T11:58:21Z</time>
      </trkpt>
      <trkpt lat="39.204083" lon="-6.121750">
        <ele>1863.0</ele>
        <time>2019-05-04T11:58:22Z</time>
      </trkpt>
      <trkpt lat="39.204067" lon="-6.121817">
        <ele>1861.0</ele>
        <time>2019-05-04T11:58:23Z</time>
      </trkpt>
      <trkpt lat="39.204033" lon="-6.121883">
        <ele>1860.0</ele>
        <time>2019-05-04T11:58:24Z</time>
      </trkpt>
      <trkpt lat="39.204000" lon="-6.121983">
        <ele>1858.0</ele>
        <time>2019-05-04T11:58:25Z</time>
      </trkpt>
      <trkpt lat="39.203983" lon="-6.122067">
        <ele>1857.0</ele>
        <time>2019-05-04T11:58:26Z</time>
      </trkpt>
      <trkpt lat="39.203950" lon="-6.122167">
        <ele>1856.0</ele>
        <time>2019-05-04T11:58:27Z</time>
      </trkpt>
      <trkpt lat="39.203917" lon="-6.122233">
        <ele>1855.0</ele>
        <time>2019-05-04T11:58:28Z</time>
      </trkpt>
      <trkpt lat="39.203883" lon="-6.122300">
        <ele>1853.0</ele>
        <time>2019-05-04T11:58:29Z</time>
      </trkpt>
      <trkpt lat="39.203850" lon="-6.122367">
        <ele>1851.0</ele>
        <time>2019-05-04T11:58:30Z</time>
      </trkpt>
      <trkpt lat="39.203800" lon="-6.122450">
        <ele>1848.0</ele>
        <time>2019-05-04T11:58:31Z</time>
      </trkpt>
      <trkpt lat="39.203767" lon="-6.122550">
        <ele>1845.0</ele>
        <time>2019-05-04T11:58:32Z</time>
      </trkpt>
      <trkpt lat="39.203733" lon="-6.122667">
        <ele>1842.0</ele>
        <time>2019-05-04T11:58:33Z</time>
      </trkpt>
      <trkpt lat="39.203733" lon="-6.122767">
        <ele>1840.0</ele>
        <time>2019-05-04T11:58:34Z</time>
      </trkpt>
      <trkpt lat="39.203717" lon="-6.122867">
        <ele>1839.0</ele>
        <time>2019-05-04T11:58:35Z</time>
      </trkpt>
      <trkpt lat="39.203700" lon="-6.122950">
        <ele>1838.0</ele>
        <time>2019-05-04T11:58:36Z</time>
      </trkpt>
      <trkpt lat="39.203667" lon="-6.123033">
        <ele>1838.0</ele>
        <time>2019-05-04T11:58:37Z</time>
      </trkpt>
      <trkpt lat="39.203633" lon="-6.123117">
        <ele>1836.0</ele>
        <time>2019-05-04T11:58:38Z</time>
      </trkpt>
      <trkpt lat="39.203583" lon="-6.123217">
        <ele>1834.0</ele>
        <time>2019-05-04T11:58:39Z</time>
      </trkpt>
      <trkpt lat="39.203550" lon="-6.123317">
        <ele>1833.0</ele>
        <time>2019-05-04T11:58:40Z</time>
      </trkpt>
      <trkpt lat="39.203517" lon="-6.123417">
        <ele>1831.0</ele>
        <time>2019-05-04T11:58:41Z</time>
      </trkpt>
      <trkpt lat="39.203483" lon="-6.123533">
        <ele>1830.0</ele>
        <time>2019-05-04T11:58:42Z</time>
      </trkpt>
      <trkpt lat="39.203467" lon="-6.123650">
        <ele>1828.0</ele>
        <time>2019-05-04T11:58:43Z</time>
      </trkpt>
      <trkpt lat="39.203433" lon="-6.123767">
        <ele>1827.0</ele>
        <time>2019-05-04T11:58:44Z</time>
      </trkpt>
      <trkpt lat="39.203400" lon="-6.123867">
        <ele>1827.0</ele>
        <time>2019-05-04T11:58:45Z</time>
      </trkpt>
      <trkpt lat="39.203367" lon="-6.123983">
        <ele>1827.0</ele>
        <time>2019-05-04T11:58:46Z</time>
      </trkpt>
      <trkpt lat="39.203350" lon="-6.124083">
        <ele>1826.0</ele>
        <time>2019-05-04T11:58:47Z</time>
      </trkpt>
      <trkpt lat="39.203333" lon="-6.124167">
        <ele>1826.0</ele>
        <time>2019-05-04T11:58:48Z</time>
      </trkpt>
      <trkpt lat="39.203317" lon="-6.124267">
        <ele>1824.0</ele>
        <time>2019-05-04T11:58:49Z</time>
      </trkpt>
      <trkpt lat="39.203283" lon="-6.124383">
        <ele>1822.0</ele>
        <time>2019-05-04T11:58:50Z</time>
      </trkpt>
      <trkpt lat="39.203267" lon="-6.124500">
        <ele>1819.0</ele>
        <time>2019-05-04T11:58:51Z</time>
      </trkpt>
      <trkpt lat="39.203233" lon="-6.124633">
        <ele>1817.0</ele>
        <time>2019-05-04T11:58:52Z</time>
      </trkpt>
      <trkpt lat="39.203200" lon="-6.124750">
        <ele>1816.0</ele>
        <time>2019-05-04T11:58:53Z</time>
      </trkpt>
      <trkpt lat="39.203183" lon="-6.124833">
        <ele>1816.0</ele>
        <time>2019-05-04T11:58:54Z</time>
      </trkpt>
      <trkpt lat="39.203167" lon="-6.124917">
        <ele>1816.0</ele>
        <time>2019-05-04T11:58:55Z</time>
      </trkpt>
      <trkpt lat="39.203133" lon="-6.125000">
        <ele>1816.0</ele>
        <time>2019-05-04T11:58:56Z</time>
      </trkpt>
      <trkpt lat="39.203117" lon="-6.125100">
        <ele>1814.0</ele>
        <time>2019-05-04T11:58:57Z</time>
      </trkpt>
      <trkpt lat="39.203083" lon="-6.125200">
        <ele>1812.0</ele>
        <time>2019-05-04T11:58:58Z</time>
      </trkpt>
      <trkpt lat="39.203067" lon="-6.125300">
        <ele>1811.0</ele>
        <time>2019-05-04T11:58:59Z</time>
      </trkpt>
      <trkpt lat="39.203033" lon="-6.125400">
        <ele>1811.0</ele>
        <time>2019-05-04T11:59:00Z</time>
      </trkpt>
      <trkpt lat="39.203017" lon="-6.125500">
        <ele>1811.0</ele>
        <time>2019-05-04T11:59:01Z</time>
      </trkpt>
      <trkpt lat="39.203000" lon="-6.125583">
        <ele>1811.0</ele>
        <time>2019-05-04T11:59:02Z</time>
      </trkpt>
      <trkpt lat="39.202983" lon="-6.125683">
        <ele>1810.0</ele>
        <time>2019-05-04T11:59:03Z</time>
      </trkpt>
      <trkpt lat="39.202950" lon="-6.125767">
        <ele>1810.0</ele>
        <time>2019-05-04T11:59:04Z</time>
      </trkpt>
      <trkpt lat="39.202933" lon="-6.125867">
        <ele>1809.0</ele>
        <time>2019-05-04T11:59:05Z</time>
      </trkpt>
      <trkpt lat="39.202900" lon="-6.125967">
        <ele>1808.0</ele>
        <time>2019-05-04T11:59:06Z</time>
      </trkpt>
      <trkpt lat="39.202883" lon="-6.126067">
        <ele>1808.0</ele>
        <time>2019-05-04T11:59:07Z</time>
      </trkpt>
      <trkpt lat="39.202867" lon="-6.126167">
        <ele>1809.0</ele>
        <time>2019-05-04T11:59:08Z</time>
      </trkpt>
      <trkpt lat="39.202850" lon="-6.126267">
        <ele>1809.0</ele>
        <time>2019-05-04T11:59:09Z</time>
      </trkpt>
      <trkpt lat="39.202850" lon="-6.126383">
        <ele>1809.0</ele>
        <time>2019-05-04T11:59:10Z</time>
      </trkpt>
      <trkpt lat="39.202850" lon="-6.126500">
        <ele>1811.0</ele>
        <time>2019-05-04T11:59:11Z</time>
      </trkpt>
      <trkpt lat="39.202817" lon="-6.126617">
        <ele>1813.0</ele>
        <time>2019-05-04T11:59:12Z</time>
      </trkpt>
      <trkpt lat="39.202783" lon="-6.126733">
        <ele>1816.0</ele>
        <time>2019-05-04T11:59:13Z</time>
      </trkpt>
      <trkpt lat="39.202750" lon="-6.126833">
        <ele>1819.0</ele>
        <time>2019-05-04T11:59:14Z</time>
      </trkpt>
      <trkpt lat="39.202717" lon="-6.126950">
        <ele>1822.0</ele>
        <time>2019-05-04T11:59:15Z</time>
      </trkpt>
      <trkpt lat="39.202717" lon="-6.127050">
        <ele>1825.0</ele>
        <time>2019-05-04T11:59:16Z</time>
      </trkpt>
      <trkpt lat="39.202733" lon="-6.127150">
        <ele>1827.0</ele>
        <time>2019-05-04T11:59:17Z</time>
      </trkpt>
      <trkpt lat="39.202767" lon="-6.127233">
        <ele>1829.0</ele>
        <time>2019-05-04T11:59:18Z</time>
      </trkpt>
      <trkpt lat="39.202817" lon="-6.127283">
        <ele>1831.0</ele>
        <time>2019-05-04T11:59:19Z</time>
      </trkpt>
      <trkpt lat="39.202883" lon="-6.127317">
        <ele>1833.0</ele>
        <time>2019-05-04T11:59:20Z</time>
      </trkpt>
      <trkpt lat="39.202933" lon="-6.127300">
        <ele>1835.0</ele>
        <time>2019-05-04T11:59:21Z</time>
      </trkpt>
      <trkpt lat="39.202967" lon="-6.127233">
        <ele>1836.0</ele>
        <time>2019-05-04T11:59:22Z</time>
      </trkpt>
      <trkpt lat="39.202983" lon="-6.127133">
        <ele>1838.0</ele>
        <time>2019-05-04T11:59:23Z</time>
      </trkpt>
      <trkpt lat="39.202950" lon="-6.127017">
        <ele>1839.0</ele>
        <time>2019-05-04T11:59:24Z</time>
      </trkpt>
      <trkpt lat="39.202883" lon="-6.126917">
        <ele>1840.0</ele>
        <time>2019-05-04T11:59:25Z</time>
      </trkpt>
      <trkpt lat="39.202783" lon="-6.126817">
        <ele>1842.0</ele>
        <time>2019-05-04T11:59:26Z</time>
      </trkpt>
      <trkpt lat="39.202683" lon="-6.126750">
        <ele>1844.0</ele>
        <time>2019-05-04T11:59:27Z</time>
      </trkpt>
      <trkpt lat="39.202567" lon="-6.126733">
        <ele>1847.0</ele>
        <time>2019-05-04T11:59:28Z</time>
      </trkpt>
      <trkpt lat="39.202450" lon="-6.126767">
        <ele>1849.0</ele>
        <time>2019-05-04T11:59:29Z</time>
      </trkpt>
      <trkpt lat="39.202333" lon="-6.126867">
        <ele>1850.0</ele>
        <time>2019-05-04T11:59:30Z</time>
      </trkpt>
      <trkpt lat="39.202250" lon="-6.126983">
        <ele>1852.0</ele>
        <time>2019-05-04T11:59:31Z</time>
      </trkpt>
      <trkpt lat="39.202200" lon="-6.127117">
        <ele>1855.0</ele>
        <time>2019-05-04T11:59:32Z</time>
      </trkpt>
      <trkpt lat="39.202167" lon="-6.127250">
        <ele>1859.0</ele>
        <time>2019-05-04T11:59:33Z</time>
      </trkpt>
      <trkpt lat="39.202167" lon="-6.127383">
        <ele>1861.0</ele>
        <time>2019-05-04T11:59:34Z</time>
      </trkpt>
      <trkpt lat="39.202183" lon="-6.127500">
        <ele>1864.0</ele>
        <time>2019-05-04T11:59:35Z</time>
      </trkpt>
      <trkpt lat="39.202217" lon="-6.127583">
        <ele>1867.0</ele>
        <time>2019-05-04T11:59:36Z</time>
      </trkpt>
      <trkpt lat="39.202250" lon="-6.127633">
        <ele>1869.0</ele>
        <time>2019-05-04T11:59:37Z</time>
      </trkpt>
      <trkpt lat="39.202300" lon="-6.127633">
        <ele>1869.0</ele>
        <time>2019-05-04T11:59:38Z</time>
      </trkpt>
      <trkpt lat="39.202350" lon="-6.127600">
        <ele>1869.0</ele>
        <time>2019-05-04T11:59:39Z</time>
      </trkpt>
      <trkpt lat="39.202383" lon="-6.127533">
        <ele>1870.0</ele>
        <time>2019-05-04T11:59:40Z</time>
      </trkpt>
      <trkpt lat="39.202383" lon="-6.127433">
        <ele>1871.0</ele>
        <time>2019-05-04T11:59:41Z</time>
      </trkpt>
      <trkpt lat="39.202350" lon="-6.127317">
        <ele>1873.0</ele>
        <time>2019-05-04T11:59:42Z</time>
      </trkpt>
      <trkpt lat="39.202300" lon="-6.127183">
        <ele>1874.0</ele>
        <time>2019-05-04T11:59:43Z</time>
      </trkpt>
      <trkpt lat="39.202200" lon="-6.127083">
        <ele>1878.0</ele>
        <time>2019-05-04T11:59:44Z</time>
      </trkpt>
      <trkpt lat="39.202100" lon="-6.127033">
        <ele>1884.0</ele>
        <time>2019-05-04T11:59:45Z</time>
      </trkpt>
      <trkpt lat="39.201983" lon="-6.126983">
        <ele>1889.0</ele>
        <time>2019-05-04T11:59:46Z</time>
      </trkpt>
      <trkpt lat="39.201867" lon="-6.126950">
        <ele>1894.0</ele>
        <time>2019-05-04T11:59:47Z</time>
      </trkpt>
      <trkpt lat="39.201767" lon="-6.126917">
        <ele>1898.0</ele>
        <time>2019-05-04T11:59:48Z</time>
      </trkpt>
      <trkpt lat="39.201633" lon="-6.126933">
        <ele>1902.0</ele>
        <time>2019-05-04T11:59:49Z</time>
      </trkpt>
      <trkpt lat="39.201533" lon="-6.126983">
        <ele>1906.0</ele>
        <time>2019-05-04T11:59:50Z</time>
      </trkpt>
      <trkpt lat="39.201433" lon="-6.127083">
        <ele>1907.0</ele>
        <time>2019-05-04T11:59:51Z</time>
      </trkpt>
      <trkpt lat="39.201383" lon="-6.127217">
        <ele>1908.0</ele>
        <time>2019-05-04T11:59:52Z</time>
      </trkpt>
      <trkpt lat="39.201367" lon="-6.127350">
        <ele>1909.0</ele>
        <time>2019-05-04T11:59:53Z</time>
      </trkpt>
      <trkpt lat="39.201383" lon="-6.127467">
        <ele>1911.0</ele>
        <time>2019-05-04T11:59:54Z</time>
      </trkpt>
      <trkpt lat="39.201417" lon="-6.127567">
        <ele>1913.0</ele>
        <time>2019-05-04T11:59:55Z</time>
      </trkpt>
      <trkpt lat="39.201467" lon="-6.127633">
        <ele>1914.0</ele>
        <time>2019-05-04T11:59:56Z</time>
      </trkpt>
      <trkpt lat="39.201517" lon="-6.127683">
        <ele>1916.0</ele>
        <time>2019-05-04T11:59:57Z</time>
      </trkpt>
      <trkpt lat="39.201567" lon="-6.127733">
        <ele>1917.0</ele>
        <time>2019-05-04T11:59:58Z</time>
      </trkpt>
      <trkpt lat="39.201633" lon="-6.127750">
        <ele>1918.0</ele>
        <time>2019-05-04T11:59:59Z</time>
      </trkpt>
      <trkpt lat="39.201717" lon="-6.127700">
        <ele>1918.0</ele>
        <time>2019-05-04T12:00:00Z</time>
      </trkpt>
      <trkpt lat="39.201783" lon="-6.127617">
        <ele>1918.0</ele>
        <time>2019-05-04T12:00:01Z</time>
      </trkpt>
      <trkpt lat="39.201817" lon="-6.127500">
        <ele>1920.0</ele>
        <time>2019-05-04T12:00:02Z</time>
      </trkpt>
      <trkpt lat="39.201817" lon="-6.127400">
        <ele>1926.0</ele>
        <time>2019-05-04T12:00:03Z</time>
      </trkpt>
      <trkpt lat="39.201817" lon="-6.127333">
        <ele>1933.0</ele>
        <time>2019-05-04T12:00:04Z</time>
      </trkpt>
      <trkpt lat="39.201783" lon="-6.127267">
        <ele>1939.0</ele>
        <time>2019-05-04T12:00:05Z</time>
      </trkpt>
      <trkpt lat="39.201750" lon="-6.127200">
        <ele>1944.0</ele>
        <time>2019-05-04T12:00:06Z</time>
      </trkpt>
      <trkpt lat="39.201717" lon="-6.127100">
        <ele>1948.0</ele>
        <time>2019-05-04T12:00:07Z</time>
      </trkpt>
      <trkpt lat="39.201650" lon="-6.126983">
        <ele>1951.0</ele>
        <time>2019-05-04T12:00:08Z</time>
      </trkpt>
      <trkpt lat="39.201550" lon="-6.126900">
        <ele>1954.0</ele>
        <time>2019-05-04T12:00:09Z</time>
      </trkpt>
      <trkpt lat="39.201417" lon="-6.126883">
        <ele>1956.0</ele>
        <time>2019-05-04T12:00:10Z</time>
      </trkpt>
      <trkpt lat="39.201317" lon="-6.126950">
        <ele>1957.0</ele>
        <time>2019-05-04T12:00:11Z</time>
      </trkpt>
      <trkpt lat="39.201233" lon="-6.127067">
        <ele>1958.0</ele>
        <time>2019-05-04T12:00:12Z</time>
      </trkpt>
      <trkpt lat="39.201183" lon="-6.127183">
        <ele>1960.0</ele>
        <time>2019-05-04T12:00:13Z</time>
      </trkpt>
      <trkpt lat="39.201167" lon="-6.127300">
        <ele>1961.0</ele>
        <time>2019-05-04T12:00:14Z</time>
      </trkpt>
      <trkpt lat="39.201200" lon="-6.127383">
        <ele>1962.0</ele>
        <time>2019-05-04T12:00:15Z</time>
      </trkpt>
      <trkpt lat="39.201250" lon="-6.127400">
        <ele>1963.0</ele>
        <time>2019-05-04T12:00:16Z</time>
      </trkpt>
      <trkpt lat="39.201333" lon="-6.127367">
        <ele>1964.0</ele>
        <time>2019-05-04T12:00:17Z</time>
      </trkpt>
      <trkpt lat="39.201383" lon="-6.127300">
        <ele>1964.0</ele>
        <time>2019-05-04T12:00:18Z</time>
      </trkpt>
      <trkpt lat="39.201400" lon="-6.127217">
        <ele>1972.0</ele>
        <time>2019-05-04T12:00:19Z</time>
      </trkpt>
      <trkpt lat="39.201400" lon="-6.127150">
        <ele>1977.0</ele>
        <time>2019-05-04T12:00:20Z</time>
      </trkpt>
      <trkpt lat="39.201383" lon="-6.127083">
        <ele>1979.0</ele>
        <time>2019-05-04T12:00:21Z</time>
      </trkpt>
      <trkpt lat="39.201350" lon="-6.127017">
        <ele>1982.0</ele>
        <time>2019-05-04T12:00:22Z</time>
      </trkpt>
      <trkpt lat="39.201333" lon="-6.126917">
        <ele>1983.0</ele>
        <time>2019-05-04T12:00:23Z</time>
      </trkpt>
      <trkpt lat="39.201283" lon="-6.126817">
        <ele>1985.0</ele>
        <time>2019-05-04T12:00:24Z</time>
      </trkpt>
      <trkpt lat="39.201200" lon="-6.126717">
        <ele>1986.0</ele>
        <time>2019-05-04T12:00:25Z</time>
      </trkpt>
      <trkpt lat="39.201083" lon="-6.126650">
        <ele>1986.0</ele>
        <time>2019-05-04T12:00:26Z</time>
      </trkpt>
      <trkpt lat="39.200950" lon="-6.126667">
        <ele>1985.0</ele>
        <time>2019-05-04T12:00:27Z</time>
      </trkpt>
      <trkpt lat="39.200833" lon="-6.126733">
        <ele>1985.0</ele>
        <time>2019-05-04T12:00:28Z</time>
      </trkpt>
      <trkpt lat="39.200733" lon="-6.126833">
        <ele>1985.0</ele>
        <time>2019-05-04T12:00:29Z</time>
      </trkpt>
      <trkpt lat="39.200667" lon="-6.126950">
        <ele>1984.0</ele>
        <time>2019-05-04T12:00:30Z</time>
      </trkpt>
      <trkpt lat="39.200617" lon="-6.127083">
        <ele>1984.0</ele>
        <time>2019-05-04T12:00:31Z</time>
      </trkpt>
      <trkpt lat="39.200600" lon="-6.127217">
        <ele>1984.0</ele>
        <time>2019-05-04T12:00:32Z</time>
      </trkpt>
      <trkpt lat="39.200633" lon="-6.127317">
        <ele>1984.0</ele>
        <time>2019-05-04T12:00:33Z</time>
      </trkpt>
      <trkpt lat="39.200700" lon="-6.127417">
        <ele>1983.0</ele>
        <time>2019-05-04T12:00:34Z</time>
      </trkpt>
      <trkpt lat="39.200783" lon="-6.127467">
        <ele>1982.0</ele>
        <time>2019-05-04T12:00:35Z</time>
      </trkpt>
      <trkpt lat="39.200883" lon="-6.127533">
        <ele>1983.0</ele>
        <time>2019-05-04T12:00:36Z</time>
      </trkpt>
      <trkpt lat="39.200950" lon="-6.127583">
        <ele>1989.0</ele>
        <time>2019-05-04T12:00:37Z</time>
      </trkpt>
      <trkpt lat="39.201000" lon="-6.127600">
        <ele>1992.0</ele>
        <time>2019-05-04T12:00:38Z</time>
      </trkpt>
      <trkpt lat="39.201067" lon="-6.127617">
        <ele>1994.0</ele>
        <time>2019-05-04T12:00:39Z</time>
      </trkpt>
      <trkpt lat="39.201133" lon="-6.127600">
        <ele>1993.0</ele>
        <time>2019-05-04T12:00:40Z</time>
      </trkpt>
      <trkpt lat="39.201217" lon="-6.127600">
        <ele>1993.0</ele>
        <time>2019-05-04T12:00:41Z</time>
      </trkpt>
      <trkpt lat="39.201317" lon="-6.127583">
        <ele>1994.0</ele>
        <time>2019-05-04T12:00:42Z</time>
      </trkpt>
      <trkpt lat="39.201400" lon="-6.127600">
        <ele>1996.0</ele>
        <time>2019-05-04T12:00:43Z</time>
      </trkpt>
      <trkpt lat="39.201467" lon="-6.127600">
        <ele>1999.0</ele>
        <time>2019-05-04T12:00:44Z</time>
      </trkpt>
      <trkpt lat="39.201550" lon="-6.127617">
        <ele>2002.0</ele>
        <time>2019-05-04T12:00:45Z</time>
      </trkpt>
      <trkpt lat="39.201617" lon="-6.127633">
        <ele>2005.0</ele>
        <time>2019-05-04T12:00:46Z</time>
      </trkpt>
      <trkpt lat="39.201683" lon="-6.127667">
        <ele>2008.0</ele>
        <time>2019-05-04T12:00:47Z</time>
      </trkpt>
      <trkpt lat="39.201750" lon="-6.127683">
        <ele>2011.0</ele>
        <time>2019-05-04T12:00:48Z</time>
      </trkpt>
      <trkpt lat="39.201833" lon="-6.127667">
        <ele>2014.0</ele>
        <time>2019-05-04T12:00:49Z</time>
      </trkpt>
      <trkpt lat="39.201900" lon="-6.127617">
        <ele>2016.0</ele>
        <time>2019-05-04T12:00:50Z</time>
      </trkpt>
      <trkpt lat="39.201950" lon="-6.127533">
        <ele>2018.0</ele>
        <time>2019-05-04T12:00:51Z</time>
      </trkpt>
      <trkpt lat="39.201983" lon="-6.127417">
        <ele>2020.0</ele>
        <time>2019-05-04T12:00:52Z</time>
      </trkpt>
      <trkpt lat="39.201967" lon="-6.127300">
        <ele>2022.0</ele>
        <time>2019-05-04T12:00:53Z</time>
      </trkpt>
      <trkpt lat="39.201900" lon="-6.127183">
        <ele>2025.0</ele>
        <time>2019-05-04T12:00:54Z</time>
      </trkpt>
      <trkpt lat="39.201800" lon="-6.127133">
        <ele>2026.0</ele>
        <time>2019-05-04T12:00:55Z</time>
      </trkpt>
      <trkpt lat="39.201683" lon="-6.127150">
        <ele>2027.0</ele>
        <time>2019-05-04T12:00:56Z</time>
      </trkpt>
      <trkpt lat="39.201600" lon="-6.127233">
        <ele>2029.0</ele>
        <time>2019-05-04T12:00:57Z</time>
      </trkpt>
      <trkpt lat="39.201567" lon="-6.127350">
        <ele>2031.0</ele>
        <time>2019-05-04T12:00:58Z</time>
      </trkpt>
      <trkpt lat="39.201567" lon="-6.127467">
        <ele>2033.0</ele>
        <time>2019-05-04T12:00:59Z</time>
      </trkpt>
      <trkpt lat="39.201600" lon="-6.127550">
        <ele>2035.0</ele>
        <time>2019-05-04T12:01:00Z</time>
      </trkpt>
      <trkpt lat="39.201667" lon="-6.127617">
        <ele>2037.0</ele>
        <time>2019-05-04T12:01:01Z</time>
      </trkpt>
      <trkpt lat="39.201750" lon="-6.127650">
        <ele>2039.0</ele>
        <time>2019-05-04T12:01:02Z</time>
      </trkpt>
      <trkpt lat="39.201817" lon="-6.127633">
        <ele>2042.0</ele>
        <time>2019-05-04T12:01:03Z</time>
      </trkpt>
      <trkpt lat="39.201883" lon="-6.127567">
        <ele>2044.0</ele>
        <time>2019-05-04T12:01:04Z</time>
      </trkpt>
      <trkpt lat="39.201917" lon="-6.127467">
        <ele>2045.0</ele>
        <time>2019-05-04T12:01:05Z</time>
      </trkpt>
      <trkpt lat="39.201933" lon="-6.127350">
        <ele>2047.0</ele>
        <time>2019-05-04T12:01:06Z</time>
      </trkpt>
      <trkpt lat="39.201900" lon="-6.127233">
        <ele>2048.0</ele>
        <time>2019-05-04T12:01:07Z</time>
      </trkpt>
      <trkpt lat="39.201833" lon="-6.127150">
        <ele>2050.0</ele>
        <time>2019-05-04T12:01:08Z</time>
      </trkpt>
      <trkpt lat="39.201750" lon="-6.127117">
        <ele>2051.0</ele>
        <time>2019-05-04T12:01:09Z</time>
      </trkpt>
      <trkpt lat="39.201650" lon="-6.127117">
        <ele>2051.0</ele>
        <time>2019-05-04T12:01:10Z</time>
      </trkpt>
      <trkpt lat="39.201550" lon="-6.127167">
        <ele>2051.0</ele>
        <time>2019-05-04T12:01:11Z</time>
      </trkpt>
      <trkpt lat="39.201467" lon="-6.127267">
        <ele>2053.0</ele>
        <time>2019-05-04T12:01:12Z</time>
      </trkpt>
      <trkpt lat="39.201417" lon="-6.127383">
        <ele>2056.0</ele>
        <time>2019-05-04T12:01:13Z</time>
      </trkpt>
      <trkpt lat="39.201400" lon="-6.127483">
        <ele>2059.0</ele>
        <time>2019-05-04T12:01:14Z</time>
      </trkpt>
      <trkpt lat="39.201417" lon="-6.127567">
        <ele>2062.0</ele>
        <time>2019-05-04T12:01:15Z</time>
      </trkpt>
      <trkpt lat="39.201450" lon="-6.127650">
        <ele>2065.0</ele>
        <time>2019-05-04T12:01:16Z</time>
      </trkpt>
      <trkpt lat="39.201483" lon="-6.127750">
        <ele>2068.0</ele>
        <time>2019-05-04T12:01:17Z</time>
      </trkpt>
      <trkpt lat="39.201533" lon="-6.127817">
        <ele>2071.0</ele>
        <time>2019-05-04T12:01:18Z</time>
      </trkpt>
      <trkpt lat="39.201617" lon="-6.127833">
        <ele>2073.0</ele>
        <time>2019-05-04T12:01:19Z</time>
      </trkpt>
      <trkpt lat="39.201700" lon="-6.127817">
        <ele>2075.0</ele>
        <time>2019-05-04T12:01:20Z</time>
      </trkpt>
      <trkpt lat="39.201783" lon="-6.127750">
        <ele>2077.0</ele>
        <time>2019-05-04T12:01:21Z</time>
      </trkpt>
      <trkpt lat="39.201817" lon="-6.127650">
        <ele>2081.0</ele>
        <time>2019-05-04T12:01:22Z</time>
      </trkpt>
      <trkpt lat="39.201817" lon="-6.127550">
        <ele>2085.0</ele>
        <time>2019-05-04T12:01:23Z</time>
      </trkpt>
      <trkpt lat="39.201783" lon="-6.127433">
        <ele>2086.0</ele>
        <time>2019-05-04T12:01:24Z</time>
      </trkpt>
      <trkpt lat="39.201683" lon="-6.127350">
        <ele>2086.0</ele>
        <time>2019-05-04T12:01:25Z</time>
      </trkpt>
      <trkpt lat="39.201583" lon="-6.127300">
        <ele>2087.0</ele>
        <time>2019-05-04T12:01:26Z</time>
      </trkpt>
      <trkpt lat="39.201467" lon="-6.127283">
        <ele>2089.0</ele>
        <time>2019-05-04T12:01:27Z</time>
      </trkpt>
      <trkpt lat="39.201367" lon="-6.127333">
        <ele>2091.0</ele>
        <time>2019-05-04T12:01:28Z</time>
      </trkpt>
      <trkpt lat="39.201283" lon="-6.127433">
        <ele>2093.0</ele>
        <time>2019-05-04T12:01:29Z</time>
      </trkpt>
      <trkpt lat="39.201250" lon="-6.127550">
        <ele>2094.0</ele>
        <time>2019-05-04T12:01:30Z</time>
      </trkpt>
      <trkpt lat="39.201267" lon="-6.127650">
        <ele>2096.0</ele>
        <time>2019-05-04T12:01:31Z</time>
      </trkpt>
      <trkpt lat="39.201317" lon="-6.127733">
        <ele>2097.0</ele>
        <time>2019-05-04T12:01:32Z</time>
      </trkpt>
      <trkpt lat="39.201383" lon="-6.127783">
        <ele>2099.0</ele>
        <time>2019-05-04T12:01:33Z</time>
      </trkpt>
      <trkpt lat="39.201467" lon="-6.127767">
        <ele>2100.0</ele>
        <time>2019-05-04T12:01:34Z</time>
      </trkpt>
      <trkpt lat="39.201517" lon="-6.127700">
        <ele>2103.0</ele>
        <time>2019-05-04T12:01:35Z</time>
      </trkpt>
      <trkpt lat="39.201517" lon="-6.127600">
        <ele>2104.0</ele>
        <time>2019-05-04T12:01:36Z</time>
      </trkpt>
      <trkpt lat="39.201483" lon="-6.127500">
        <ele>2106.0</ele>
        <time>2019-05-04T12:01:37Z</time>
      </trkpt>
      <trkpt lat="39.201417" lon="-6.127400">
        <ele>2107.0</ele>
        <time>2019-05-04T12:01:38Z</time>
      </trkpt>
      <trkpt lat="39.201317" lon="-6.127367">
        <ele>2109.0</ele>
        <time>2019-05-04T12:01:39Z</time>
      </trkpt>
      <trkpt lat="39.201217" lon="-6.127383">
        <ele>2111.0</ele>
        <time>2019-05-04T12:01:40Z</time>
      </trkpt>
      <trkpt lat="39.201117" lon="-6.127467">
        <ele>2111.0</ele>
        <time>2019-05-04T12:01:41Z</time>
      </trkpt>
      <trkpt lat="39.201067" lon="-6.127600">
        <ele>2113.0</ele>
        <time>2019-05-04T12:01:42Z</time>
      </trkpt>
      <trkpt lat="39.201033" lon="-6.127733">
        <ele>2115.0</ele>
        <time>2019-05-04T12:01:43Z</time>
      </trkpt>
      <trkpt lat="39.201033" lon="-6.127850">
        <ele>2117.0</ele>
        <time>2019-05-04T12:01:44Z</time>
      </trkpt>
      <trkpt lat="39.201067" lon="-6.127983">
        <ele>2120.0</ele>
        <time>2019-05-04T12:01:45Z</time>
      </trkpt>
      <trkpt lat="39.201100" lon="-6.128050">
        <ele>2122.0</ele>
        <time>2019-05-04T12:01:46Z</time>
      </trkpt>
      <trkpt lat="39.201167" lon="-6.128083">
        <ele>2125.0</ele>
        <time>2019-05-04T12:01:47Z</time>
      </trkpt>
      <trkpt lat="39.201233" lon="-6.128067">
        <ele>2126.0</ele>
        <time>2019-05-04T12:01:48Z</time>
      </trkpt>
      <trkpt lat="39.201300" lon="-6.128017">
        <ele>2126.0</ele>
        <time>2019-05-04T12:01:49Z</time>
      </trkpt>
      <trkpt lat="39.201333" lon="-6.127917">
        <ele>2127.0</ele>
        <time>2019-05-04T12:01:50Z</time>
      </trkpt>
      <trkpt lat="39.201317" lon="-6.127817">
        <ele>2129.0</ele>
        <time>2019-05-04T12:01:51Z</time>
      </trkpt>
      <trkpt lat="39.201250" lon="-6.127733">
        <ele>2131.0</ele>
        <time>2019-05-04T12:01:52Z</time>
      </trkpt>
      <trkpt lat="39.201150" lon="-6.127700">
        <ele>2132.0</ele>
        <time>2019-05-04T12:01:53Z</time>
      </trkpt>
      <trkpt lat="39.201033" lon="-6.127683">
        <ele>2134.0</ele>
        <time>2019-05-04T12:01:54Z</time>
      </trkpt>
      <trkpt lat="39.200933" lon="-6.127700">
        <ele>2136.0</ele>
        <time>2019-05-04T12:01:55Z</time>
      </trkpt>
      <trkpt lat="39.200833" lon="-6.127750">
        <ele>2138.0</ele>
        <time>2019-05-04T12:01:56Z</time>
      </trkpt>
      <trkpt lat="39.200733" lon="-6.127833">
        <ele>2139.0</ele>
        <time>2019-05-04T12:01:57Z</time>
      </trkpt>
      <trkpt lat="39.200667" lon="-6.127950">
        <ele>2139.0</ele>
        <time>2019-05-04T12:01:58Z</time>
      </trkpt>
      <trkpt lat="39.200617" lon="-6.128100">
        <ele>2140.0</ele>
        <time>2019-05-04T12:01:59Z</time>
      </trkpt>
      <trkpt lat="39.200633" lon="-6.128217">
        <ele>2141.0</ele>
        <time>2019-05-04T12:02:00Z</time>
      </trkpt>
      <trkpt lat="39.200667" lon="-6.128317">
        <ele>2142.0</ele>
        <time>2019-05-04T12:02:01Z</time>
      </trkpt>
      <trkpt lat="39.200717" lon="-6.128367">
        <ele>2144.0</ele>
        <time>2019-05-04T12:02:02Z</time>
      </trkpt>
      <trkpt lat="39.200783" lon="-6.128400">
        <ele>2145.0</ele>
        <time>2019-05-04T12:02:03Z</time>
      </trkpt>
      <trkpt lat="39.200850" lon="-6.128400">
        <ele>2145.0</ele>
        <time>2019-05-04T12:02:04Z</time>
      </trkpt>
      <trkpt lat="39.200900" lon="-6.128383">
        <ele>2147.0</ele>
        <time>2019-05-04T12:02:05Z</time>
      </trkpt>
      <trkpt lat="39.200917" lon="-6.128317">
        <ele>2148.0</ele>
        <time>2019-05-04T12:02:06Z</time>
      </trkpt>
      <trkpt lat="39.200917" lon="-6.128233">
        <ele>2149.0</ele>
        <time>2019-05-04T12:02:07Z</time>
      </trkpt>
      <trkpt lat="39.200867" lon="-6.128133">
        <ele>2149.0</ele>
        <time>2019-05-04T12:02:08Z</time>
      </trkpt>
      <trkpt lat="39.200800" lon="-6.128050">
        <ele>2149.0</ele>
        <time>2019-05-04T12:02:09Z</time>
      </trkpt>
      <trkpt lat="39.200717" lon="-6.128017">
        <ele>2150.0</ele>
        <time>2019-05-04T12:02:10Z</time>
      </trkpt>
      <trkpt lat="39.200617" lon="-6.128000">
        <ele>2150.0</ele>
        <time>2019-05-04T12:02:11Z</time>
      </trkpt>
      <trkpt lat="39.200500" lon="-6.128033">
        <ele>2150.0</ele>
        <time>2019-05-04T12:02:12Z</time>
      </trkpt>
      <trkpt lat="39.200400" lon="-6.128117">
        <ele>2151.0</ele>
        <time>2019-05-04T12:02:13Z</time>
      </trkpt>
      <trkpt lat="39.200350" lon="-6.128217">
        <ele>2152.0</ele>
        <time>2019-05-04T12:02:14Z</time>
      </trkpt>
      <trkpt lat="39.200317" lon="-6.128333">
        <ele>2152.0</ele>
        <time>2019-05-04T12:02:15Z</time>
      </trkpt>
      <trkpt lat="39.200317" lon="-6.128467">
        <ele>2152.0</ele>
        <time>2019-05-04T12:02:16Z</time>
      </trkpt>
      <trkpt lat="39.200350" lon="-6.128583">
        <ele>2151.0</ele>
        <time>2019-05-04T12:02:17Z</time>
      </trkpt>
      <trkpt lat="39.200417" lon="-6.128683">
        <ele>2151.0</ele>
        <time>2019-05-04T12:02:18Z</time>
      </trkpt>
      <trkpt lat="39.200483" lon="-6.128750">
        <ele>2152.0</ele>
        <time>2019-05-04T12:02:19Z</time>
      </trkpt>
      <trkpt lat="39.200550" lon="-6.128800">
        <ele>2152.0</ele>
        <time>2019-05-04T12:02:20Z</time>
      </trkpt>
      <trkpt lat="39.200617" lon="-6.128833">
        <ele>2151.0</ele>
        <time>2019-05-04T12:02:21Z</time>
      </trkpt>
      <trkpt lat="39.200700" lon="-6.128833">
        <ele>2150.0</ele>
        <time>2019-05-04T12:02:22Z</time>
      </trkpt>
      <trkpt lat="39.200783" lon="-6.128817">
        <ele>2149.0</ele>
        <time>2019-05-04T12:02:23Z</time>
      </trkpt>
      <trkpt lat="39.200833" lon="-6.128767">
        <ele>2148.0</ele>
        <time>2019-05-04T12:02:24Z</time>
      </trkpt>
      <trkpt lat="39.200883" lon="-6.128700">
        <ele>2148.0</ele>
        <time>2019-05-04T12:02:25Z</time>
      </trkpt>
      <trkpt lat="39.200917" lon="-6.128617">
        <ele>2148.0</ele>
        <time>2019-05-04T12:02:26Z</time>
      </trkpt>
      <trkpt lat="39.200933" lon="-6.128550">
        <ele>2148.0</ele>
        <time>2019-05-04T12:02:27Z</time>
      </trkpt>
      <trkpt lat="39.200967" lon="-6.128483">
        <ele>2148.0</ele>
        <time>2019-05-04T12:02:28Z</time>
      </trkpt>
      <trkpt lat="39.201000" lon="-6.128400">
        <ele>2148.0</ele>
        <time>2019-05-04T12:02:29Z</time>
      </trkpt>
      <trkpt lat="39.201033" lon="-6.128300">
        <ele>2148.0</ele>
        <time>2019-05-04T12:02:30Z</time>
      </trkpt>
      <trkpt lat="39.201017" lon="-6.128183">
        <ele>2148.0</ele>
        <time>2019-05-04T12:02:31Z</time>
      </trkpt>
      <trkpt lat="39.201000" lon="-6.128083">
        <ele>2149.0</ele>
        <time>2019-05-04T12:02:32Z</time>
      </trkpt>
      <trkpt lat="39.200967" lon="-6.127983">
        <ele>2150.0</ele>
        <time>2019-05-04T12:02:33Z</time>
      </trkpt>
      <trkpt lat="39.200933" lon="-6.127900">
        <ele>2151.0</ele>
        <time>2019-05-04T12:02:34Z</time>
      </trkpt>
      <trkpt lat="39.200917" lon="-6.127800">
        <ele>2153.0</ele>
        <time>2019-05-04T12:02:35Z</time>
      </trkpt>
      <trkpt lat="39.200917" lon="-6.127700">
        <ele>2153.0</ele>
        <time>2019-05-04T12:02:36Z</time>
      </trkpt>
      <trkpt lat="39.200900" lon="-6.127583">
        <ele>2154.0</ele>
        <time>2019-05-04T12:02:37Z</time>
      </trkpt>
      <trkpt lat="39.200867" lon="-6.127483">
        <ele>2155.0</ele>
        <time>2019-05-04T12:02:38Z</time>
      </trkpt>
      <trkpt lat="39.200833" lon="-6.127367">
        <ele>2156.0</ele>
        <time>2019-05-04T12:02:39Z</time>
      </trkpt>
      <trkpt lat="39.200800" lon="-6.127283">
        <ele>2159.0</ele>
        <time>2019-05-04T12:02:40Z</time>
      </trkpt>
      <trkpt lat="39.200767" lon="-6.127183">
        <ele>2160.0</ele>
        <time>2019-05-04T12:02:41Z</time>
      </trkpt>
      <trkpt lat="39.200733" lon="-6.127083">
        <ele>2162.0</ele>
        <time>2019-05-04T12:02:42Z</time>
      </trkpt>
      <trkpt lat="39.200700" lon="-6.126967">
        <ele>2163.0</ele>
        <time>2019-05-04T12:02:43Z</time>
      </trkpt>
      <trkpt lat="39.200650" lon="-6.126833">
        <ele>2164.0</ele>
        <time>2019-05-04T12:02:44Z</time>
      </trkpt>
      <trkpt lat="39.200600" lon="-6.126717">
        <ele>2165.0</ele>
        <time>2019-05-04T12:02:45Z</time>
      </trkpt>
      <trkpt lat="39.200567" lon="-6.126600">
        <ele>2167.0</ele>
        <time>2019-05-04T12:02:46Z</time>
      </trkpt>
      <trkpt lat="39.200533" lon="-6.126483">
        <ele>2168.0</ele>
        <time>2019-05-04T12:02:47Z</time>
      </trkpt>
      <trkpt lat="39.200500" lon="-6.126383">
        <ele>2170.0</ele>
        <time>2019-05-04T12:02:48Z</time>
      </trkpt>
      <trkpt lat="39.200467" lon="-6.126283">
        <ele>2172.0</ele>
        <time>2019-05-04T12:02:49Z</time>
      </trkpt>
      <trkpt lat="39.200417" lon="-6.126183">
        <ele>2172.0</ele>
        <time>2019-05-04T12:02:50Z</time>
      </trkpt>
      <trkpt lat="39.200350" lon="-6.126117">
        <ele>2170.0</ele>
        <time>2019-05-04T12:02:51Z</time>
      </trkpt>
      <trkpt lat="39.200267" lon="-6.126033">
        <ele>2168.0</ele>
        <time>2019-05-04T12:02:52Z</time>
      </trkpt>
      <trkpt lat="39.200167" lon="-6.125967">
        <ele>2166.0</ele>
        <time>2019-05-04T12:02:53Z</time>
      </trkpt>
      <trkpt lat="39.200067" lon="-6.125867">
        <ele>2164.0</ele>
        <time>2019-05-04T12:02:54Z</time>
      </trkpt>
      <trkpt lat="39.200000" lon="-6.125783">
        <ele>2162.0</ele>
        <time>2019-05-04T12:02:55Z</time>
      </trkpt>
      <trkpt lat="39.199917" lon="-6.125683">
        <ele>2161.0</ele>
        <time>2019-05-04T12:02:56Z</time>
      </trkpt>
      <trkpt lat="39.199817" lon="-6.125583">
        <ele>2160.0</ele>
        <time>2019-05-04T12:02:57Z</time>
      </trkpt>
      <trkpt lat="39.199717" lon="-6.125483">
        <ele>2159.0</ele>
        <time>2019-05-04T12:02:58Z</time>
      </trkpt>
      <trkpt lat="39.199600" lon="-6.125383">
        <ele>2157.0</ele>
        <time>2019-05-04T12:02:59Z</time>
      </trkpt>
      <trkpt lat="39.199483" lon="-6.125317">
        <ele>2155.0</ele>
        <time>2019-05-04T12:03:00Z</time>
      </trkpt>
      <trkpt lat="39.199367" lon="-6.125250">
        <ele>2154.0</ele>
        <time>2019-05-04T12:03:01Z</time>
      </trkpt>
      <trkpt lat="39.199267" lon="-6.125200">
        <ele>2154.0</ele>
        <time>2019-05-04T12:03:02Z</time>
      </trkpt>
      <trkpt lat="39.199167" lon="-6.125150">
        <ele>2154.0</ele>
        <time>2019-05-04T12:03:03Z</time>
      </trkpt>
      <trkpt lat="39.199067" lon="-6.125100">
        <ele>2153.0</ele>
        <time>2019-05-04T12:03:04Z</time>
      </trkpt>
      <trkpt lat="39.198950" lon="-6.125050">
        <ele>2152.0</ele>
        <time>2019-05-04T12:03:05Z</time>
      </trkpt>
      <trkpt lat="39.198833" lon="-6.125000">
        <ele>2151.0</ele>
        <time>2019-05-04T12:03:06Z</time>
      </trkpt>
      <trkpt lat="39.198717" lon="-6.124933">
        <ele>2151.0</ele>
        <time>2019-05-04T12:03:07Z</time>
      </trkpt>
      <trkpt lat="39.198600" lon="-6.124867">
        <ele>2151.0</ele>
        <time>2019-05-04T12:03:08Z</time>
      </trkpt>
      <trkpt lat="39.198500" lon="-6.124800">
        <ele>2152.0</ele>
        <time>2019-05-04T12:03:09Z</time>
      </trkpt>
      <trkpt lat="39.198400" lon="-6.124750">
        <ele>2153.0</ele>
        <time>2019-05-04T12:03:10Z</time>
      </trkpt>
      <trkpt lat="39.198300" lon="-6.124717">
        <ele>2154.0</ele>
        <time>2019-05-04T12:03:11Z</time>
      </trkpt>
      <trkpt lat="39.198200" lon="-6.124683">
        <ele>2155.0</ele>
        <time>2019-05-04T12:03:12Z</time>
      </trkpt>
      <trkpt lat="39.198100" lon="-6.124633">
        <ele>2156.0</ele>
        <time>2019-05-04T12:03:13Z</time>
      </trkpt>
      <trkpt lat="39.198000" lon="-6.124583">
        <ele>2157.0</ele>
        <time>2019-05-04T12:03:14Z</time>
      </trkpt>
      <trkpt lat="39.197900" lon="-6.124533">
        <ele>2158.0</ele>
        <time>2019-05-04T12:03:15Z</time>
      </trkpt>
      <trkpt lat="39.197783" lon="-6.124500">
        <ele>2158.0</ele>
        <time>2019-05-04T12:03:16Z</time>
      </trkpt>
      <trkpt lat="39.197667" lon="-6.124467">
        <ele>2160.0</ele>
        <time>2019-05-04T12:03:17Z</time>
      </trkpt>
      <trkpt lat="39.197550" lon="-6.124450">
        <ele>2162.0</ele>
        <time>2019-05-04T12:03:18Z</time>
      </trkpt>
      <trkpt lat="39.197450" lon="-6.124400">
        <ele>2164.0</ele>
        <time>2019-05-04T12:03:19Z</time>
      </trkpt>
      <trkpt lat="39.197350" lon="-6.124367">
        <ele>2167.0</ele>
        <time>2019-05-04T12:03:20Z</time>
      </trkpt>
      <trkpt lat="39.197267" lon="-6.124333">
        <ele>2170.0</ele>
        <time>2019-05-04T12:03:21Z</time>
      </trkpt>
      <trkpt lat="39.197150" lon="-6.124300">
        <ele>2172.0</ele>
        <time>2019-05-04T12:03:22Z</time>
      </trkpt>
      <trkpt lat="39.197033" lon="-6.124317">
        <ele>2174.0</ele>
        <time>2019-05-04T12:03:23Z</time>
      </trkpt>
      <trkpt lat="39.196917" lon="-6.124367">
        <ele>2173.0</ele>
        <time>2019-05-04T12:03:24Z</time>
      </trkpt>
      <trkpt lat="39.196817" lon="-6.124450">
        <ele>2172.0</ele>
        <time>2019-05-04T12:03:25Z</time>
      </trkpt>
      <trkpt lat="39.196733" lon="-6.124583">
        <ele>2171.0</ele>
        <time>2019-05-04T12:03:26Z</time>
      </trkpt>
      <trkpt lat="39.196700" lon="-6.124717">
        <ele>2171.0</ele>
        <time>2019-05-04T12:03:27Z</time>
      </trkpt>
      <trkpt lat="39.196700" lon="-6.124833">
        <ele>2171.0</ele>
        <time>2019-05-04T12:03:28Z</time>
      </trkpt>
      <trkpt lat="39.196733" lon="-6.124950">
        <ele>2171.0</ele>
        <time>2019-05-04T12:03:29Z</time>
      </trkpt>
      <trkpt lat="39.196783" lon="-6.125033">
        <ele>2171.0</ele>
        <time>2019-05-04T12:03:30Z</time>
      </trkpt>
      <trkpt lat="39.196850" lon="-6.125067">
        <ele>2170.0</ele>
        <time>2019-05-04T12:03:31Z</time>
      </trkpt>
      <trkpt lat="39.196933" lon="-6.125083">
        <ele>2171.0</ele>
        <time>2019-05-04T12:03:32Z</time>
      </trkpt>
      <trkpt lat="39.197000" lon="-6.125050">
        <ele>2171.0</ele>
        <time>2019-05-04T12:03:33Z</time>
      </trkpt>
      <trkpt lat="39.197067" lon="-6.125000">
        <ele>2170.0</ele>
        <time>2019-05-04T12:03:34Z</time>
      </trkpt>
      <trkpt lat="39.197117" lon="-6.124917">
        <ele>2170.0</ele>
        <time>2019-05-04T12:03:35Z</time>
      </trkpt>
      <trkpt lat="39.197167" lon="-6.124833">
        <ele>2170.0</ele>
        <time>2019-05-04T12:03:36Z</time>
      </trkpt>
      <trkpt lat="39.197200" lon="-6.124717">
        <ele>2171.0</ele>
        <time>2019-05-04T12:03:37Z</time>
      </trkpt>
      <trkpt lat="39.197200" lon="-6.124600">
        <ele>2171.0</ele>
        <time>2019-05-04T12:03:38Z</time>
      </trkpt>
      <trkpt lat="39.197183" lon="-6.124483">
        <ele>2172.0</ele>
        <time>2019-05-04T12:03:39Z</time>
      </trkpt>
      <trkpt lat="39.197150" lon="-6.124350">
        <ele>2172.0</ele>
        <time>2019-05-04T12:03:40Z</time>
      </trkpt>
      <trkpt lat="39.197083" lon="-6.124250">
        <ele>2173.0</ele>
        <time>2019-05-04T12:03:41Z</time>
      </trkpt>
      <trkpt lat="39.197017" lon="-6.124150">
        <ele>2174.0</ele>
        <time>2019-05-04T12:03:42Z</time>
      </trkpt>
      <trkpt lat="39.196967" lon="-6.124083">
        <ele>2176.0</ele>
        <time>2019-05-04T12:03:43Z</time>
      </trkpt>
      <trkpt lat="39.196900" lon="-6.124000">
        <ele>2177.0</ele>
        <time>2019-05-04T12:03:44Z</time>
      </trkpt>
      <trkpt lat="39.196817" lon="-6.123917">
        <ele>2178.0</ele>
        <time>2019-05-04T12:03:45Z</time>
      </trkpt>
      <trkpt lat="39.196733" lon="-6.123833">
        <ele>2178.0</ele>
        <time>2019-05-04T12:03:46Z</time>
      </trkpt>
      <trkpt lat="39.196633" lon="-6.123783">
        <ele>2178.0</ele>
        <time>2019-05-04T12:03:47Z</time>
      </trkpt>
      <trkpt lat="39.196517" lon="-6.123783">
        <ele>2178.0</ele>
        <time>2019-05-04T12:03:48Z</time>
      </trkpt>
      <trkpt lat="39.196417" lon="-6.123800">
        <ele>2178.0</ele>
        <time>2019-05-04T12:03:49Z</time>
      </trkpt>
      <trkpt lat="39.196317" lon="-6.123867">
        <ele>2178.0</ele>
        <time>2019-05-04T12:03:50Z</time>
      </trkpt>
      <trkpt lat="39.196233" lon="-6.123933">
        <ele>2178.0</ele>
        <time>2019-05-04T12:03:51Z</time>
      </trkpt>
      <trkpt lat="39.196167" lon="-6.124033">
        <ele>2179.0</ele>
        <time>2019-05-04T12:03:52Z</time>
      </trkpt>
      <trkpt lat="39.196133" lon="-6.124150">
        <ele>2179.0</ele>
        <time>2019-05-04T12:03:53Z</time>
      </trkpt>
      <trkpt lat="39.196117" lon="-6.124267">
        <ele>2178.0</ele>
        <time>2019-05-04T12:03:54Z</time>
      </trkpt>
      <trkpt lat="39.196133" lon="-6.124383">
        <ele>2177.0</ele>
        <time>2019-05-04T12:03:55Z</time>
      </trkpt>
      <trkpt lat="39.196150" lon="-6.124483">
        <ele>2177.0</ele>
        <time>2019-05-04T12:03:56Z</time>
      </trkpt>
      <trkpt lat="39.196217" lon="-6.124567">
        <ele>2176.0</ele>
        <time>2019-05-04T12:03:57Z</time>
      </trkpt>
      <trkpt lat="39.196283" lon="-6.124617">
        <ele>2175.0</ele>
        <time>2019-05-04T12:03:58Z</time>
      </trkpt>
      <trkpt lat="39.196350" lon="-6.124667">
        <ele>2174.0</ele>
        <time>2019-05-04T12:03:59Z</time>
      </trkpt>
      <trkpt lat="39.196433" lon="-6.124683">
        <ele>2174.0</ele>
        <time>2019-05-04T12:04:00Z</time>
      </trkpt>
      <trkpt lat="39.196500" lon="-6.124700">
        <ele>2175.0</ele>
        <time>2019-05-04T12:04:01Z</time>
      </trkpt>
      <trkpt lat="39.196567" lon="-6.124717">
        <ele>2176.0</ele>
        <time>2019-05-04T12:04:02Z</time>
      </trkpt>
      <trkpt lat="39.196633" lon="-6.124733">
        <ele>2177.0</ele>
        <time>2019-05-04T12:04:03Z</time>
      </trkpt>
      <trkpt lat="39.196683" lon="-6.124750">
        <ele>2178.0</ele>
        <time>2019-05-04T12:04:04Z</time>
      </trkpt>
      <trkpt lat="39.196733" lon="-6.124783">
        <ele>2179.0</ele>
        <time>2019-05-04T12:04:05Z</time>
      </trkpt>
      <trkpt lat="39.196800" lon="-6.124833">
        <ele>2178.0</ele>
        <time>2019-05-04T12:04:06Z</time>
      </trkpt>
      <trkpt lat="39.196850" lon="-6.124867">
        <ele>2178.0</ele>
        <time>2019-05-04T12:04:07Z</time>
      </trkpt>
      <trkpt lat="39.196900" lon="-6.124900">
        <ele>2176.0</ele>
        <time>2019-05-04T12:04:08Z</time>
      </trkpt>
      <trkpt lat="39.196967" lon="-6.124933">
        <ele>2175.0</ele>
        <time>2019-05-04T12:04:09Z</time>
      </trkpt>
      <trkpt lat="39.197017" lon="-6.124983">
        <ele>2174.0</ele>
        <time>2019-05-04T12:04:10Z</time>
      </trkpt>
      <trkpt lat="39.197083" lon="-6.125033">
        <ele>2173.0</ele>
        <time>2019-05-04T12:04:11Z</time>
      </trkpt>
      <trkpt lat="39.197133" lon="-6.125083">
        <ele>2172.0</ele>
        <time>2019-05-04T12:04:12Z</time>
      </trkpt>
      <trkpt lat="39.197200" lon="-6.125133">
        <ele>2172.0</ele>
        <time>2019-05-04T12:04:13Z</time>
      </trkpt>
      <trkpt lat="39.197250" lon="-6.125200">
        <ele>2171.0</ele>
        <time>2019-05-04T12:04:14Z</time>
      </trkpt>
      <trkpt lat="39.197317" lon="-6.125250">
        <ele>2170.0</ele>
        <time>2019-05-04T12:04:15Z</time>
      </trkpt>
      <trkpt lat="39.197383" lon="-6.125300">
        <ele>2170.0</ele>
        <time>2019-05-04T12:04:16Z</time>
      </trkpt>
      <trkpt lat="39.197450" lon="-6.125350">
        <ele>2171.0</ele>
        <time>2019-05-04T12:04:17Z</time>
      </trkpt>
      <trkpt lat="39.197500" lon="-6.125400">
        <ele>2171.0</ele>
        <time>2019-05-04T12:04:18Z</time>
      </trkpt>
      <trkpt lat="39.197550" lon="-6.125450">
        <ele>2172.0</ele>
        <time>2019-05-04T12:04:19Z</time>
      </trkpt>
      <trkpt lat="39.197617" lon="-6.125483">
        <ele>2172.0</ele>
        <time>2019-05-04T12:04:20Z</time>
      </trkpt>
      <trkpt lat="39.197667" lon="-6.125517">
        <ele>2172.0</ele>
        <time>2019-05-04T12:04:21Z</time>
      </trkpt>
      <trkpt lat="39.197717" lon="-6.125550">
        <ele>2171.0</ele>
        <time>2019-05-04T12:04:22Z</time>
      </trkpt>
      <trkpt lat="39.197783" lon="-6.125550">
        <ele>2171.0</ele>
        <time>2019-05-04T12:04:23Z</time>
      </trkpt>
      <trkpt lat="39.197850" lon="-6.125517">
        <ele>2171.0</ele>
        <time>2019-05-04T12:04:24Z</time>
      </trkpt>
      <trkpt lat="39.197900" lon="-6.125433">
        <ele>2170.0</ele>
        <time>2019-05-04T12:04:25Z</time>
      </trkpt>
      <trkpt lat="39.197900" lon="-6.125317">
        <ele>2169.0</ele>
        <time>2019-05-04T12:04:26Z</time>
      </trkpt>
      <trkpt lat="39.197867" lon="-6.125200">
        <ele>2168.0</ele>
        <time>2019-05-04T12:04:27Z</time>
      </trkpt>
      <trkpt lat="39.197817" lon="-6.125100">
        <ele>2167.0</ele>
        <time>2019-05-04T12:04:28Z</time>
      </trkpt>
      <trkpt lat="39.197733" lon="-6.125000">
        <ele>2167.0</ele>
        <time>2019-05-04T12:04:29Z</time>
      </trkpt>
      <trkpt lat="39.197633" lon="-6.124950">
        <ele>2166.0</ele>
        <time>2019-05-04T12:04:30Z</time>
      </trkpt>
      <trkpt lat="39.197517" lon="-6.124933">
        <ele>2165.0</ele>
        <time>2019-05-04T12:04:31Z</time>
      </trkpt>
      <trkpt lat="39.197400" lon="-6.124967">
        <ele>2164.0</ele>
        <time>2019-05-04T12:04:32Z</time>
      </trkpt>
      <trkpt lat="39.197317" lon="-6.125017">
        <ele>2163.0</ele>
        <time>2019-05-04T12:04:33Z</time>
      </trkpt>
      <trkpt lat="39.197250" lon="-6.125100">
        <ele>2163.0</ele>
        <time>2019-05-04T12:04:34Z</time>
      </trkpt>
      <trkpt lat="39.197167" lon="-6.125167">
        <ele>2164.0</ele>
        <time>2019-05-04T12:04:35Z</time>
      </trkpt>
      <trkpt lat="39.197100" lon="-6.125233">
        <ele>2165.0</ele>
        <time>2019-05-04T12:04:36Z</time>
      </trkpt>
      <trkpt lat="39.197050" lon="-6.125317">
        <ele>2165.0</ele>
        <time>2019-05-04T12:04:37Z</time>
      </trkpt>
      <trkpt lat="39.197000" lon="-6.125417">
        <ele>2165.0</ele>
        <time>2019-05-04T12:04:38Z</time>
      </trkpt>
      <trkpt lat="39.196950" lon="-6.125533">
        <ele>2163.0</ele>
        <time>2019-05-04T12:04:39Z</time>
      </trkpt>
      <trkpt lat="39.196917" lon="-6.125633">
        <ele>2162.0</ele>
        <time>2019-05-04T12:04:40Z</time>
      </trkpt>
      <trkpt lat="39.196867" lon="-6.125733">
        <ele>2162.0</ele>
        <time>2019-05-04T12:04:41Z</time>
      </trkpt>
      <trkpt lat="39.196817" lon="-6.125833">
        <ele>2161.0</ele>
        <time>2019-05-04T12:04:42Z</time>
      </trkpt>
      <trkpt lat="39.196750" lon="-6.125917">
        <ele>2161.0</ele>
        <time>2019-05-04T12:04:43Z</time>
      </trkpt>
      <trkpt lat="39.196700" lon="-6.126017">
        <ele>2160.0</ele>
        <time>2019-05-04T12:04:44Z</time>
      </trkpt>
      <trkpt lat="39.196667" lon="-6.126117">
        <ele>2161.0</ele>
        <time>2019-05-04T12:04:45Z</time>
      </trkpt>
      <trkpt lat="39.196667" lon="-6.126217">
        <ele>2160.0</ele>
        <time>2019-05-04T12:04:46Z</time>
      </trkpt>
      <trkpt lat="39.196667" lon="-6.126317">
        <ele>2160.0</ele>
        <time>2019-05-04T12:04:47Z</time>
      </trkpt>
      <trkpt lat="39.196683" lon="-6.126417">
        <ele>2159.0</ele>
        <time>2019-05-04T12:04:48Z</time>
      </trkpt>
      <trkpt lat="39.196700" lon="-6.126483">
        <ele>2159.0</ele>
        <time>2019-05-04T12:04:49Z</time>
      </trkpt>
      <trkpt lat="39.196733" lon="-6.126550">
        <ele>2158.0</ele>
        <time>2019-05-04T12:04:50Z</time>
      </trkpt>
      <trkpt lat="39.196800" lon="-6.126600">
        <ele>2156.0</ele>
        <time>2019-05-04T12:04:51Z</time>
      </trkpt>
      <trkpt lat="39.196883" lon="-6.126617">
        <ele>2154.0</ele>
        <time>2019-05-04T12:04:52Z</time>
      </trkpt>
      <trkpt lat="39.196950" lon="-6.126617">
        <ele>2153.0</ele>
        <time>2019-05-04T12:04:53Z</time>
      </trkpt>
      <trkpt lat="39.197017" lon="-6.126617">
        <ele>2153.0</ele>
        <time>2019-05-04T12:04:54Z</time>
      </trkpt>
      <trkpt lat="39.197083" lon="-6.126600">
        <ele>2154.0</ele>
        <time>2019-05-04T12:04:55Z</time>
      </trkpt>
      <trkpt lat="39.197150" lon="-6.126600">
        <ele>2154.0</ele>
        <time>2019-05-04T12:04:56Z</time>
      </trkpt>
      <trkpt lat="39.197217" lon="-6.126567">
        <ele>2153.0</ele>
        <time>2019-05-04T12:04:57Z</time>
      </trkpt>
      <trkpt lat="39.197283" lon="-6.126517">
        <ele>2152.0</ele>
        <time>2019-05-04T12:04:58Z</time>
      </trkpt>
      <trkpt lat="39.197333" lon="-6.126417">
        <ele>2150.0</ele>
        <time>2019-05-04T12:04:59Z</time>
      </trkpt>
      <trkpt lat="39.197367" lon="-6.126300">
        <ele>2148.0</ele>
        <time>2019-05-04T12:05:00Z</time>
      </trkpt>
      <trkpt lat="39.197367" lon="-6.126183">
        <ele>2148.0</ele>
        <time>2019-05-04T12:05:01Z</time>
      </trkpt>
      <trkpt lat="39.197333" lon="-6.126083">
        <ele>2148.0</ele>
        <time>2019-05-04T12:05:02Z</time>
      </trkpt>
      <trkpt lat="39.197283" lon="-6.126000">
        <ele>2149.0</ele>
        <time>2019-05-04T12:05:03Z</time>
      </trkpt>
      <trkpt lat="39.197217" lon="-6.125917">
        <ele>2148.0</ele>
        <time>2019-05-04T12:05:04Z</time>
      </trkpt>
      <trkpt lat="39.197150" lon="-6.125817">
        <ele>2147.0</ele>
        <time>2019-05-04T12:05:05Z</time>
      </trkpt>
      <trkpt lat="39.197067" lon="-6.125717">
        <ele>2146.0</ele>
        <time>2019-05-04T12:05:06Z</time>
      </trkpt>
      <trkpt lat="39.196983" lon="-6.125633">
        <ele>2146.0</ele>
        <time>2019-05-04T12:05:07Z</time>
      </trkpt>
      <trkpt lat="39.196900" lon="-6.125567">
        <ele>2146.0</ele>
        <time>2019-05-04T12:05:08Z</time>
      </trkpt>
      <trkpt lat="39.196800" lon="-6.125517">
        <ele>2145.0</ele>
        <time>2019-05-04T12:05:09Z</time>
      </trkpt>
      <trkpt lat="39.196700" lon="-6.125483">
        <ele>2145.0</ele>
        <time>2019-05-04T12:05:10Z</time>
      </trkpt>
      <trkpt lat="39.196600" lon="-6.125433">
        <ele>2145.0</ele>
        <time>2019-05-04T12:05:11Z</time>
      </trkpt>
      <trkpt lat="39.196500" lon="-6.125383">
        <ele>2145.0</ele>
        <time>2019-05-04T12:05:12Z</time>
      </trkpt>
      <trkpt lat="39.196400" lon="-6.125333">
        <ele>2145.0</ele>
        <time>2019-05-04T12:05:13Z</time>
      </trkpt>
      <trkpt lat="39.196317" lon="-6.125300">
        <ele>2146.0</ele>
        <time>2019-05-04T12:05:14Z</time>
      </trkpt>
      <trkpt lat="39.196217" lon="-6.125283">
        <ele>2146.0</ele>
        <time>2019-05-04T12:05:15Z</time>
      </trkpt>
      <trkpt lat="39.196117" lon="-6.125267">
        <ele>2145.0</ele>
        <time>2019-05-04T12:05:16Z</time>
      </trkpt>
      <trkpt lat="39.196017" lon="-6.125267">
        <ele>2144.0</ele>
        <time>2019-05-04T12:05:17Z</time>
      </trkpt>
      <trkpt lat="39.195900" lon="-6.125267">
        <ele>2143.0</ele>
        <time>2019-05-04T12:05:18Z</time>
      </trkpt>
      <trkpt lat="39.195800" lon="-6.125283">
        <ele>2144.0</ele>
        <time>2019-05-04T12:05:19Z</time>
      </trkpt>
      <trkpt lat="39.195700" lon="-6.125267">
        <ele>2144.0</ele>
        <time>2019-05-04T12:05:20Z</time>
      </trkpt>
      <trkpt lat="39.195600" lon="-6.125250">
        <ele>2145.0</ele>
        <time>2019-05-04T12:05:21Z</time>
      </trkpt>
      <trkpt lat="39.195500" lon="-6.125233">
        <ele>2145.0</ele>
        <time>2019-05-04T12:05:22Z</time>
      </trkpt>
      <trkpt lat="39.195400" lon="-6.125233">
        <ele>2144.0</ele>
        <time>2019-05-04T12:05:23Z</time>
      </trkpt>
      <trkpt lat="39.195300" lon="-6.125233">
        <ele>2144.0</ele>
        <time>2019-05-04T12:05:24Z</time>
      </trkpt>
      <trkpt lat="39.195200" lon="-6.125233">
        <ele>2143.0</ele>
        <time>2019-05-04T12:05:25Z</time>
      </trkpt>
      <trkpt lat="39.195100" lon="-6.125233">
        <ele>2142.0</ele>
        <time>2019-05-04T12:05:26Z</time>
      </trkpt>
      <trkpt lat="39.195000" lon="-6.125233">
        <ele>2141.0</ele>
        <time>2019-05-04T12:05:27Z</time>
      </trkpt>
      <trkpt lat="39.194883" lon="-6.125250">
        <ele>2139.0</ele>
        <time>2019-05-04T12:05:28Z</time>
      </trkpt>
      <trkpt lat="39.194783" lon="-6.125267">
        <ele>2137.0</ele>
        <time>2019-05-04T12:05:29Z</time>
      </trkpt>
      <trkpt lat="39.194667" lon="-6.125267">
        <ele>2136.0</ele>
        <time>2019-05-04T12:05:30Z</time>
      </trkpt>
      <trkpt lat="39.194550" lon="-6.125267">
        <ele>2136.0</ele>
        <time>2019-05-04T12:05:31Z</time>
      </trkpt>
      <trkpt lat="39.194450" lon="-6.125283">
        <ele>2136.0</ele>
        <time>2019-05-04T12:05:32Z</time>
      </trkpt>
      <trkpt lat="39.194333" lon="-6.125283">
        <ele>2136.0</ele>
        <time>2019-05-04T12:05:33Z</time>
      </trkpt>
      <trkpt lat="39.194200" lon="-6.125300">
        <ele>2136.0</ele>
        <time>2019-05-04T12:05:34Z</time>
      </trkpt>
      <trkpt lat="39.194100" lon="-6.125300">
        <ele>2136.0</ele>
        <time>2019-05-04T12:05:35Z</time>
      </trkpt>
      <trkpt lat="39.194000" lon="-6.125300">
        <ele>2136.0</ele>
        <time>2019-05-04T12:05:36Z</time>
      </trkpt>
      <trkpt lat="39.193883" lon="-6.125300">
        <ele>2136.0</ele>
        <time>2019-05-04T12:05:37Z</time>
      </trkpt>
      <trkpt lat="39.193783" lon="-6.125300">
        <ele>2136.0</ele>
        <time>2019-05-04T12:05:38Z</time>
      </trkpt>
      <trkpt lat="39.193683" lon="-6.125317">
        <ele>2135.0</ele>
        <time>2019-05-04T12:05:39Z</time>
      </trkpt>
      <trkpt lat="39.193567" lon="-6.125317">
        <ele>2133.0</ele>
        <time>2019-05-04T12:05:40Z</time>
      </trkpt>
      <trkpt lat="39.193450" lon="-6.125317">
        <ele>2132.0</ele>
        <time>2019-05-04T12:05:41Z</time>
      </trkpt>
      <trkpt lat="39.193333" lon="-6.125300">
        <ele>2131.0</ele>
        <time>2019-05-04T12:05:42Z</time>
      </trkpt>
      <trkpt lat="39.193133" lon="-6.125283">
        <ele>0.0</ele>
        <time>2019-05-04T12:05:44Z</time>
      </trkpt>
      <trkpt lat="39.193033" lon="-6.125250">
        <ele>2129.0</ele>
        <time>2019-05-04T12:05:45Z</time>
      </trkpt>
      <trkpt lat="39.192933" lon="-6.125200">
        <ele>2128.0</ele>
        <time>2019-05-04T12:05:46Z</time>
      </trkpt>
      <trkpt lat="39.192817" lon="-6.125150">
        <ele>2126.0</ele>
        <time>2019-05-04T12:05:47Z</time>
      </trkpt>
      <trkpt lat="39.192733" lon="-6.125067">
        <ele>2123.0</ele>
        <time>2019-05-04T12:05:48Z</time>
      </trkpt>
      <trkpt lat="39.192650" lon="-6.124983">
        <ele>2122.0</ele>
        <time>2019-05-04T12:05:49Z</time>
      </trkpt>
      <trkpt lat="39.192567" lon="-6.124900">
        <ele>2121.0</ele>
        <time>2019-05-04T12:05:50Z</time>
      </trkpt>
      <trkpt lat="39.192500" lon="-6.124817">
        <ele>2120.0</ele>
        <time>2019-05-04T12:05:51Z</time>
      </trkpt>
      <trkpt lat="39.192433" lon="-6.124733">
        <ele>2119.0</ele>
        <time>2019-05-04T12:05:52Z</time>
      </trkpt>
      <trkpt lat="39.192350" lon="-6.124633">
        <ele>2117.0</ele>
        <time>2019-05-04T12:05:53Z</time>
      </trkpt>
      <trkpt lat="39.192283" lon="-6.124550">
        <ele>2116.0</ele>
        <time>2019-05-04T12:05:54Z</time>
      </trkpt>
      <trkpt lat="39.192200" lon="-6.124467">
        <ele>2116.0</ele>
        <time>2019-05-04T12:05:55Z</time>
      </trkpt>
      <trkpt lat="39.192133" lon="-6.124400">
        <ele>2118.0</ele>
        <time>2019-05-04T12:05:56Z</time>
      </trkpt>
      <trkpt lat="39.192067" lon="-6.124350">
        <ele>2119.0</ele>
        <time>2019-05-04T12:05:57Z</time>
      </trkpt>
      <trkpt lat="39.192000" lon="-6.124283">
        <ele>2119.0</ele>
        <time>2019-05-04T12:05:58Z</time>
      </trkpt>
      <trkpt lat="39.191950" lon="-6.124217">
        <ele>2119.0</ele>
        <time>2019-05-04T12:05:59Z</time>
      </trkpt>
      <trkpt lat="39.191883" lon="-6.124133">
        <ele>2117.0</ele>
        <time>2019-05-04T12:06:00Z</time>
      </trkpt>
      <trkpt lat="39.191817" lon="-6.124067">
        <ele>2117.0</ele>
        <time>2019-05-04T12:06:01Z</time>
      </trkpt>
      <trkpt lat="39.191750" lon="-6.123983">
        <ele>2117.0</ele>
        <time>2019-05-04T12:06:02Z</time>
      </trkpt>
      <trkpt lat="39.191700" lon="-6.123917">
        <ele>2116.0</ele>
        <time>2019-05-04T12:06:03Z</time>
      </trkpt>
      <trkpt lat="39.191633" lon="-6.123833">
        <ele>2117.0</ele>
        <time>2019-05-04T12:06:04Z</time>
      </trkpt>
      <trkpt lat="39.191583" lon="-6.123767">
        <ele>2117.0</ele>
        <time>2019-05-04T12:06:05Z</time>
      </trkpt>
      <trkpt lat="39.191517" lon="-6.123683">
        <ele>2117.0</ele>
        <time>2019-05-04T12:06:06Z</time>
      </trkpt>
      <trkpt lat="39.191450" lon="-6.123617">
        <ele>2117.0</ele>
        <time>2019-05-04T12:06:07Z</time>
      </trkpt>
      <trkpt lat="39.191383" lon="-6.123533">
        <ele>2118.0</ele>
        <time>2019-05-04T12:06:08Z</time>
      </trkpt>
      <trkpt lat="39.191333" lon="-6.123450">
        <ele>2119.0</ele>
        <time>2019-05-04T12:06:09Z</time>
      </trkpt>
      <trkpt lat="39.191267" lon="-6.123367">
        <ele>2119.0</ele>
        <time>2019-05-04T12:06:10Z</time>
      </trkpt>
      <trkpt lat="39.191200" lon="-6.123283">
        <ele>2120.0</ele>
        <time>2019-05-04T12:06:11Z</time>
      </trkpt>
      <trkpt lat="39.191133" lon="-6.123200">
        <ele>2120.0</ele>
        <time>2019-05-04T12:06:12Z</time>
      </trkpt>
      <trkpt lat="39.191083" lon="-6.123100">
        <ele>2121.0</ele>
        <time>2019-05-04T12:06:13Z</time>
      </trkpt>
      <trkpt lat="39.191017" lon="-6.123000">
        <ele>2121.0</ele>
        <time>2019-05-04T12:06:14Z</time>
      </trkpt>
      <trkpt lat="39.190933" lon="-6.122917">
        <ele>2122.0</ele>
        <time>2019-05-04T12:06:15Z</time>
      </trkpt>
      <trkpt lat="39.190867" lon="-6.122817">
        <ele>2123.0</ele>
        <time>2019-05-04T12:06:16Z</time>
      </trkpt>
      <trkpt lat="39.190817" lon="-6.122733">
        <ele>2124.0</ele>
        <time>2019-05-04T12:06:17Z</time>
      </trkpt>
      <trkpt lat="39.190750" lon="-6.122650">
        <ele>2125.0</ele>
        <time>2019-05-04T12:06:18Z</time>
      </trkpt>
      <trkpt lat="39.190700" lon="-6.122550">
        <ele>2126.0</ele>
        <time>2019-05-04T12:06:19Z</time>
      </trkpt>
      <trkpt lat="39.190617" lon="-6.122467">
        <ele>2126.0</ele>
        <time>2019-05-04T12:06:20Z</time>
      </trkpt>
      <trkpt lat="39.190550" lon="-6.122367">
        <ele>2125.0</ele>
        <time>2019-05-04T12:06:21Z</time>
      </trkpt>
      <trkpt lat="39.190467" lon="-6.122283">
        <ele>2125.0</ele>
        <time>2019-05-04T12:06:22Z</time>
      </trkpt>
      <trkpt lat="39.190367" lon="-6.122200">
        <ele>2125.0</ele>
        <time>2019-05-04T12:06:23Z</time>
      </trkpt>
      <trkpt lat="39.190283" lon="-6.122133">
        <ele>2125.0</ele>
        <time>2019-05-04T12:06:24Z</time>
      </trkpt>
      <trkpt lat="39.190217" lon="-6.122050">
        <ele>2125.0</ele>
        <time>2019-05-04T12:06:25Z</time>
      </trkpt>
      <trkpt lat="39.190167" lon="-6.121967">
        <ele>2125.0</ele>
        <time>2019-05-04T12:06:26Z</time>
      </trkpt>
      <trkpt lat="39.190100" lon="-6.121883">
        <ele>2123.0</ele>
        <time>2019-05-04T12:06:27Z</time>
      </trkpt>
      <trkpt lat="39.190033" lon="-6.121783">
        <ele>2122.0</ele>
        <time>2019-05-04T12:06:28Z</time>
      </trkpt>
      <trkpt lat="39.189950" lon="-6.121683">
        <ele>2120.0</ele>
        <time>2019-05-04T12:06:29Z</time>
      </trkpt>
      <trkpt lat="39.189850" lon="-6.121600">
        <ele>2120.0</ele>
        <time>2019-05-04T12:06:30Z</time>
      </trkpt>
      <trkpt lat="39.189783" lon="-6.121517">
        <ele>2121.0</ele>
        <time>2019-05-04T12:06:31Z</time>
      </trkpt>
      <trkpt lat="39.189717" lon="-6.121433">
        <ele>2122.0</ele>
        <time>2019-05-04T12:06:32Z</time>
      </trkpt>
      <trkpt lat="39.189650" lon="-6.121367">
        <ele>2123.0</ele>
        <time>2019-05-04T12:06:33Z</time>
      </trkpt>
      <trkpt lat="39.189583" lon="-6.121300">
        <ele>2122.0</ele>
        <time>2019-05-04T12:06:34Z</time>
      </trkpt>
      <trkpt lat="39.189517" lon="-6.121217">
        <ele>2121.0</ele>
        <time>2019-05-04T12:06:35Z</time>
      </trkpt>
      <trkpt lat="39.189450" lon="-6.121133">
        <ele>2119.0</ele>
        <time>2019-05-04T12:06:36Z</time>
      </trkpt>
      <trkpt lat="39.189383" lon="-6.121050">
        <ele>2117.0</ele>
        <time>2019-05-04T12:06:37Z</time>
      </trkpt>
      <trkpt lat="39.189317" lon="-6.120950">
        <ele>2116.0</ele>
        <time>2019-05-04T12:06:38Z</time>
      </trkpt>
      <trkpt lat="39.189250" lon="-6.120850">
        <ele>2114.0</ele>
        <time>2019-05-04T12:06:39Z</time>
      </trkpt>
      <trkpt lat="39.189167" lon="-6.120733">
        <ele>2113.0</ele>
        <time>2019-05-04T12:06:40Z</time>
      </trkpt>
      <trkpt lat="39.189100" lon="-6.120633">
        <ele>2111.0</ele>
        <time>2019-05-04T12:06:41Z</time>
      </trkpt>
      <trkpt lat="39.189033" lon="-6.120533">
        <ele>2111.0</ele>
        <time>2019-05-04T12:06:42Z</time>
      </trkpt>
      <trkpt lat="39.188967" lon="-6.120450">
        <ele>2111.0</ele>
        <time>2019-05-04T12:06:43Z</time>
      </trkpt>
      <trkpt lat="39.188883" lon="-6.120367">
        <ele>2111.0</ele>
        <time>2019-05-04T12:06:44Z</time>
      </trkpt>
      <trkpt lat="39.188817" lon="-6.120283">
        <ele>2110.0</ele>
        <time>2019-05-04T12:06:45Z</time>
      </trkpt>
      <trkpt lat="39.188733" lon="-6.120200">
        <ele>2109.0</ele>
        <time>2019-05-04T12:06:46Z</time>
      </trkpt>
      <trkpt lat="39.188650" lon="-6.120100">
        <ele>2108.0</ele>
        <time>2019-05-04T12:06:47Z</time>
      </trkpt>
      <trkpt lat="39.188567" lon="-6.120000">
        <ele>2105.0</ele>
        <time>2019-05-04T12:06:48Z</time>
      </trkpt>
      <trkpt lat="39.188483" lon="-6.119883">
        <ele>2103.0</ele>
        <time>2019-05-04T12:06:49Z</time>
      </trkpt>
      <trkpt lat="39.188400" lon="-6.119783">
        <ele>2100.0</ele>
        <time>2019-05-04T12:06:50Z</time>
      </trkpt>
      <trkpt lat="39.188317" lon="-6.119700">
        <ele>2097.0</ele>
        <time>2019-05-04T12:06:51Z</time>
      </trkpt>
      <trkpt lat="39.188233" lon="-6.119617">
        <ele>2095.0</ele>
        <time>2019-05-04T12:06:52Z</time>
      </trkpt>
      <trkpt lat="39.188133" lon="-6.119533">
        <ele>2093.0</ele>
        <time>2019-05-04T12:06:53Z</time>
      </trkpt>
      <trkpt lat="39.188050" lon="-6.119450">
        <ele>2091.0</ele>
        <time>2019-05-04T12:06:54Z</time>
      </trkpt>
      <trkpt lat="39.187967" lon="-6.119367">
        <ele>2089.0</ele>
        <time>2019-05-04T12:06:55Z</time>
      </trkpt>
      <trkpt lat="39.187883" lon="-6.119300">
        <ele>2086.0</ele>
        <time>2019-05-04T12:06:56Z</time>
      </trkpt>
      <trkpt lat="39.187800" lon="-6.119217">
        <ele>2084.0</ele>
        <time>2019-05-04T12:06:57Z</time>
      </trkpt>
      <trkpt lat="39.187700" lon="-6.119133">
        <ele>2081.0</ele>
        <time>2019-05-04T12:06:58Z</time>
      </trkpt>
      <trkpt lat="39.187617" lon="-6.119050">
        <ele>2078.0</ele>
        <time>2019-05-04T12:06:59Z</time>
      </trkpt>
      <trkpt lat="39.187517" lon="-6.118967">
        <ele>2076.0</ele>
        <time>2019-05-04T12:07:00Z</time>
      </trkpt>
      <trkpt lat="39.187417" lon="-6.118900">
        <ele>2074.0</ele>
        <time>2019-05-04T12:07:01Z</time>
      </trkpt>
      <trkpt lat="39.187317" lon="-6.118833">
        <ele>2072.0</ele>
        <time>2019-05-04T12:07:02Z</time>
      </trkpt>
      <trkpt lat="39.187217" lon="-6.118767">
        <ele>2070.0</ele>
        <time>2019-05-04T12:07:03Z</time>
      </trkpt>
      <trkpt lat="39.187117" lon="-6.118683">
        <ele>2068.0</ele>
        <time>2019-05-04T12:07:04Z</time>
      </trkpt>
      <trkpt lat="39.187017" lon="-6.118617">
        <ele>2066.0</ele>
        <time>2019-05-04T12:07:05Z</time>
      </trkpt>
      <trkpt lat="39.186917" lon="-6.118533">
        <ele>2064.0</ele>
        <time>2019-05-04T12:07:06Z</time>
      </trkpt>
      <trkpt lat="39.186817" lon="-6.118467">
        <ele>2063.0</ele>
        <time>2019-05-04T12:07:07Z</time>
      </trkpt>
      <trkpt lat="39.186733" lon="-6.118417">
        <ele>2061.0</ele>
        <time>2019-05-04T12:07:08Z</time>
      </trkpt>
      <trkpt lat="39.186633" lon="-6.118350">
        <ele>2060.0</ele>
        <time>2019-05-04T12:07:09Z</time>
      </trkpt>
      <trkpt lat="39.186533" lon="-6.118300">
        <ele>2059.0</ele>
        <time>2019-05-04T12:07:10Z</time>
      </trkpt>
      <trkpt lat="39.186433" lon="-6.118233">
        <ele>2058.0</ele>
        <time>2019-05-04T12:07:11Z</time>
      </trkpt>
      <trkpt lat="39.186350" lon="-6.118183">
        <ele>2057.0</ele>
        <time>2019-05-04T12:07:12Z</time>
      </trkpt>
      <trkpt lat="39.186250" lon="-6.118117">
        <ele>2056.0</ele>
        <time>2019-05-04T12:07:13Z</time>
      </trkpt>
      <trkpt lat="39.186167" lon="-6.118067">
        <ele>2055.0</ele>
        <time>2019-05-04T12:07:14Z</time>
      </trkpt>
      <trkpt lat="39.186067" lon="-6.118017">
        <ele>2054.0</ele>
        <time>2019-05-04T12:07:15Z</time>
      </trkpt>
      <trkpt lat="39.185983" lon="-6.117967">
        <ele>2052.0</ele>
        <time>2019-05-04T12:07:16Z</time>
      </trkpt>
      <trkpt lat="39.185900" lon="-6.117900">
        <ele>2051.0</ele>
        <time>2019-05-04T12:07:17Z</time>
      </trkpt>
      <trkpt lat="39.185800" lon="-6.117850">
        <ele>2049.0</ele>
        <time>2019-05-04T12:07:18Z</time>
      </trkpt>
      <trkpt lat="39.185700" lon="-6.117800">
        <ele>2046.0</ele>
        <time>2019-05-04T12:07:19Z</time>
      </trkpt>
      <trkpt lat="39.185600" lon="-6.117750">
        <ele>2044.0</ele>
        <time>2019-05-04T12:07:20Z</time>
      </trkpt>
      <trkpt lat="39.185500" lon="-6.117700">
        <ele>2042.0</ele>
        <time>2019-05-04T12:07:21Z</time>
      </trkpt>
      <trkpt lat="39.185400" lon="-6.117650">
        <ele>2041.0</ele>
        <time>2019-05-04T12:07:22Z</time>
      </trkpt>
      <trkpt lat="39.185300" lon="-6.117600">
        <ele>2039.0</ele>
        <time>2019-05-04T12:07:23Z</time>
      </trkpt>
      <trkpt lat="39.185200" lon="-6.117550">
        <ele>2038.0</ele>
        <time>2019-05-04T12:07:24Z</time>
      </trkpt>
      <trkpt lat="39.185100" lon="-6.117517">
        <ele>2037.0</ele>
        <time>2019-05-04T12:07:25Z</time>
      </trkpt>
      <trkpt lat="39.185000" lon="-6.117467">
        <ele>2034.0</ele>
        <time>2019-05-04T12:07:26Z</time>
      </trkpt>
      <trkpt lat="39.184900" lon="-6.117417">
        <ele>2032.0</ele>
        <time>2019-05-04T12:07:27Z</time>
      </trkpt>
      <trkpt lat="39.184800" lon="-6.117367">
        <ele>2030.0</ele>
        <time>2019-05-04T12:07:28Z</time>
      </trkpt>
      <trkpt lat="39.184700" lon="-6.117317">
        <ele>2028.0</ele>
        <time>2019-05-04T12:07:29Z</time>
      </trkpt>
      <trkpt lat="39.184600" lon="-6.117283">
        <ele>2026.0</ele>
        <time>2019-05-04T12:07:30Z</time>
      </trkpt>
      <trkpt lat="39.184500" lon="-6.117233">
        <ele>2024.0</ele>
        <time>2019-05-04T12:07:31Z</time>
      </trkpt>
      <trkpt lat="39.184383" lon="-6.117183">
        <ele>2022.0</ele>
        <time>2019-05-04T12:07:32Z</time>
      </trkpt>
      <trkpt lat="39.184283" lon="-6.117133">
        <ele>2020.0</ele>
        <time>2019-05-04T12:07:33Z</time>
      </trkpt>
      <trkpt lat="39.184183" lon="-6.117083">
        <ele>2017.0</ele>
        <time>2019-05-04T12:07:34Z</time>
      </trkpt>
      <trkpt lat="39.184067" lon="-6.117033">
        <ele>2016.0</ele>
        <time>2019-05-04T12:07:35Z</time>
      </trkpt>
      <trkpt lat="39.183967" lon="-6.116983">
        <ele>2014.0</ele>
        <time>2019-05-04T12:07:36Z</time>
      </trkpt>
      <trkpt lat="39.183867" lon="-6.116917">
        <ele>2013.0</ele>
        <time>2019-05-04T12:07:37Z</time>
      </trkpt>
      <trkpt lat="39.183767" lon="-6.116850">
        <ele>2012.0</ele>
        <time>2019-05-04T12:07:38Z</time>
      </trkpt>
      <trkpt lat="39.183667" lon="-6.116783">
        <ele>2011.0</ele>
        <time>2019-05-04T12:07:39Z</time>
      </trkpt>
      <trkpt lat="39.183567" lon="-6.116717">
        <ele>2010.0</ele>
        <time>2019-05-04T12:07:40Z</time>
      </trkpt>
      <trkpt lat="39.183450" lon="-6.116667">
        <ele>2009.0</ele>
        <time>2019-05-04T12:07:41Z</time>
      </trkpt>
      <trkpt lat="39.183350" lon="-6.116600">
        <ele>2007.0</ele>
        <time>2019-05-04T12:07:42Z</time>
      </trkpt>
      <trkpt lat="39.183250" lon="-6.116550">
        <ele>2005.0</ele>
        <time>2019-05-04T12:07:43Z</time>
      </trkpt>
      <trkpt lat="39.183133" lon="-6.116467">
        <ele>2004.0</ele>
        <time>2019-05-04T12:07:44Z</time>
      </trkpt>
      <trkpt lat="39.183033" lon="-6.116400">
        <ele>2002.0</ele>
        <time>2019-05-04T12:07:45Z</time>
      </trkpt>
      <trkpt lat="39.182933" lon="-6.116333">
        <ele>2002.0</ele>
        <time>2019-05-04T12:07:46Z</time>
      </trkpt>
      <trkpt lat="39.182850" lon="-6.116283">
        <ele>2001.0</ele>
        <time>2019-05-04T12:07:47Z</time>
      </trkpt>
      <trkpt lat="39.182750" lon="-6.116217">
        <ele>2000.0</ele>
        <time>2019-05-04T12:07:48Z</time>
      </trkpt>
      <trkpt lat="39.182650" lon="-6.116150">
        <ele>1998.0</ele>
        <time>2019-05-04T12:07:49Z</time>
      </trkpt>
      <trkpt lat="39.182533" lon="-6.116067">
        <ele>1996.0</ele>
        <time>2019-05-04T12:07:50Z</time>
      </trkpt>
      <trkpt lat="39.182433" lon="-6.115983">
        <ele>1995.0</ele>
        <time>2019-05-04T12:07:51Z</time>
      </trkpt>
      <trkpt lat="39.182333" lon="-6.115917">
        <ele>1993.0</ele>
        <time>2019-05-04T12:07:52Z</time>
      </trkpt>
      <trkpt lat="39.182233" lon="-6.115850">
        <ele>1992.0</ele>
        <time>2019-05-04T12:07:53Z</time>
      </trkpt>
      <trkpt lat="39.182150" lon="-6.115800">
        <ele>1991.0</ele>
        <time>2019-05-04T12:07:54Z</time>
      </trkpt>
      <trkpt lat="39.182050" lon="-6.115750">
        <ele>1990.0</ele>
        <time>2019-05-04T12:07:55Z</time>
      </trkpt>
      <trkpt lat="39.181967" lon="-6.115683">
        <ele>1989.0</ele>
        <time>2019-05-04T12:07:56Z</time>
      </trkpt>
      <trkpt lat="39.181867" lon="-6.115633">
        <ele>1987.0</ele>
        <time>2019-05-04T12:07:57Z</time>
      </trkpt>
      <trkpt lat="39.181767" lon="-6.115583">
        <ele>1984.0</ele>
        <time>2019-05-04T12:07:58Z</time>
      </trkpt>
      <trkpt lat="39.181683" lon="-6.115517">
        <ele>1982.0</ele>
        <time>2019-05-04T12:07:59Z</time>
      </trkpt>
      <trkpt lat="39.181583" lon="-6.115467">
        <ele>1980.0</ele>
        <time>2019-05-04T12:08:00Z</time>
      </trkpt>
      <trkpt lat="39.181500" lon="-6.115400">
        <ele>1979.0</ele>
        <time>2019-05-04T12:08:01Z</time>
      </trkpt>
      <trkpt lat="39.181400" lon="-6.115350">
        <ele>1977.0</ele>
        <time>2019-05-04T12:08:02Z</time>
      </trkpt>
      <trkpt lat="39.181317" lon="-6.115283">
        <ele>1974.0</ele>
        <time>2019-05-04T12:08:03Z</time>
      </trkpt>
      <trkpt lat="39.181217" lon="-6.115217">
        <ele>1972.0</ele>
        <time>2019-05-04T12:08:04Z</time>
      </trkpt>
      <trkpt lat="39.181117" lon="-6.115150">
        <ele>1969.0</ele>
        <time>2019-05-04T12:08:05Z</time>
      </trkpt>
      <trkpt lat="39.181033" lon="-6.115067">
        <ele>1967.0</ele>
        <time>2019-05-04T12:08:06Z</time>
      </trkpt>
      <trkpt lat="39.180950" lon="-6.115000">
        <ele>1965.0</ele>
        <time>2019-05-04T12:08:07Z</time>
      </trkpt>
      <trkpt lat="39.180850" lon="-6.114933">
        <ele>1962.0</ele>
        <time>2019-05-04T12:08:08Z</time>
      </trkpt>
      <trkpt lat="39.180750" lon="-6.114867">
        <ele>1959.0</ele>
        <time>2019-05-04T12:08:09Z</time>
      </trkpt>
      <trkpt lat="39.180667" lon="-6.114783">
        <ele>1956.0</ele>
        <time>2019-05-04T12:08:10Z</time>
      </trkpt>
      <trkpt lat="39.180567" lon="-6.114717">
        <ele>1953.0</ele>
        <time>2019-05-04T12:08:11Z</time>
      </trkpt>
      <trkpt lat="39.180483" lon="-6.114633">
        <ele>1951.0</ele>
        <time>2019-05-04T12:08:12Z</time>
      </trkpt>
      <trkpt lat="39.180383" lon="-6.114550">
        <ele>1948.0</ele>
        <time>2019-05-04T12:08:13Z</time>
      </trkpt>
      <trkpt lat="39.180300" lon="-6.114467">
        <ele>1946.0</ele>
        <time>2019-05-04T12:08:14Z</time>
      </trkpt>
      <trkpt lat="39.180217" lon="-6.114367">
        <ele>1944.0</ele>
        <time>2019-05-04T12:08:15Z</time>
      </trkpt>
      <trkpt lat="39.180133" lon="-6.114283">
        <ele>1941.0</ele>
        <time>2019-05-04T12:08:16Z</time>
      </trkpt>
      <trkpt lat="39.180033" lon="-6.114183">
        <ele>1939.0</ele>
        <time>2019-05-04T12:08:17Z</time>
      </trkpt>
      <trkpt lat="39.179950" lon="-6.114100">
        <ele>1936.0</ele>
        <time>2019-05-04T12:08:18Z</time>
      </trkpt>
      <trkpt lat="39.179867" lon="-6.114017">
        <ele>1934.0</ele>
        <time>2019-05-04T12:08:19Z</time>
      </trkpt>
      <trkpt lat="39.179783" lon="-6.113917">
        <ele>1931.0</ele>
        <time>2019-05-04T12:08:20Z</time>
      </trkpt>
      <trkpt lat="39.179683" lon="-6.113817">
        <ele>1929.0</ele>
        <time>2019-05-04T12:08:21Z</time>
      </trkpt>
      <trkpt lat="39.179600" lon="-6.113717">
        <ele>1927.0</ele>
        <time>2019-05-04T12:08:22Z</time>
      </trkpt>
      <trkpt lat="39.179517" lon="-6.113633">
        <ele>1924.0</ele>
        <time>2019-05-04T12:08:23Z</time>
      </trkpt>
      <trkpt lat="39.179433" lon="-6.113533">
        <ele>1922.0</ele>
        <time>2019-05-04T12:08:24Z</time>
      </trkpt>
      <trkpt lat="39.179333" lon="-6.113433">
        <ele>1920.0</ele>
        <time>2019-05-04T12:08:25Z</time>
      </trkpt>
      <trkpt lat="39.179250" lon="-6.113350">
        <ele>1917.0</ele>
        <time>2019-05-04T12:08:26Z</time>
      </trkpt>
      <trkpt lat="39.179150" lon="-6.113250">
        <ele>1915.0</ele>
        <time>2019-05-04T12:08:27Z</time>
      </trkpt>
      <trkpt lat="39.179067" lon="-6.113150">
        <ele>1913.0</ele>
        <time>2019-05-04T12:08:28Z</time>
      </trkpt>
      <trkpt lat="39.178983" lon="-6.113050">
        <ele>1911.0</ele>
        <time>2019-05-04T12:08:29Z</time>
      </trkpt>
      <trkpt lat="39.178900" lon="-6.112967">
        <ele>1909.0</ele>
        <time>2019-05-04T12:08:30Z</time>
      </trkpt>
      <trkpt lat="39.178800" lon="-6.112867">
        <ele>1907.0</ele>
        <time>2019-05-04T12:08:31Z</time>
      </trkpt>
      <trkpt lat="39.178700" lon="-6.112767">
        <ele>1905.0</ele>
        <time>2019-05-04T12:08:32Z</time>
      </trkpt>
      <trkpt lat="39.178617" lon="-6.112667">
        <ele>1904.0</ele>
        <time>2019-05-04T12:08:33Z</time>
      </trkpt>
      <trkpt lat="39.178517" lon="-6.112567">
        <ele>1904.0</ele>
        <time>2019-05-04T12:08:34Z</time>
      </trkpt>
      <trkpt lat="39.178433" lon="-6.112483">
        <ele>1903.0</ele>
        <time>2019-05-04T12:08:35Z</time>
      </trkpt>
      <trkpt lat="39.178333" lon="-6.112383">
        <ele>1902.0</ele>
        <time>2019-05-04T12:08:36Z</time>
      </trkpt>
      <trkpt lat="39.178250" lon="-6.112283">
        <ele>1901.0</ele>
        <time>2019-05-04T12:08:37Z</time>
      </trkpt>
      <trkpt lat="39.178150" lon="-6.112167">
        <ele>1899.0</ele>
        <time>2019-05-04T12:08:38Z</time>
      </trkpt>
      <trkpt lat="39.178067" lon="-6.112083">
        <ele>1898.0</ele>
        <time>2019-05-04T12:08:39Z</time>
      </trkpt>
      <trkpt lat="39.177967" lon="-6.111983">
        <ele>1897.0</ele>
        <time>2019-05-04T12:08:40Z</time>
      </trkpt>
      <trkpt lat="39.177883" lon="-6.111883">
        <ele>1896.0</ele>
        <time>2019-05-04T12:08:41Z</time>
      </trkpt>
      <trkpt lat="39.177783" lon="-6.111767">
        <ele>1895.0</ele>
        <time>2019-05-04T12:08:42Z</time>
      </trkpt>
      <trkpt lat="39.177700" lon="-6.111667">
        <ele>1895.0</ele>
        <time>2019-05-04T12:08:43Z</time>
      </trkpt>
      <trkpt lat="39.177617" lon="-6.111567">
        <ele>1894.0</ele>
        <time>2019-05-04T12:08:44Z</time>
      </trkpt>
      <trkpt lat="39.177533" lon="-6.111483">
        <ele>1893.0</ele>
        <time>2019-05-04T12:08:45Z</time>
      </trkpt>
      <trkpt lat="39.177433" lon="-6.111400">
        <ele>1893.0</ele>
        <time>2019-05-04T12:08:46Z</time>
      </trkpt>
      <trkpt lat="39.177333" lon="-6.111300">
        <ele>1892.0</ele>
        <time>2019-05-04T12:08:47Z</time>
      </trkpt>
      <trkpt lat="39.177250" lon="-6.111217">
        <ele>1891.0</ele>
        <time>2019-05-04T12:08:48Z</time>
      </trkpt>
      <trkpt lat="39.177150" lon="-6.111117">
        <ele>1891.0</ele>
        <time>2019-05-04T12:08:49Z</time>
      </trkpt>
      <trkpt lat="39.177050" lon="-6.111033">
        <ele>1890.0</ele>
        <time>2019-05-04T12:08:50Z</time>
      </trkpt>
      <trkpt lat="39.176950" lon="-6.110950">
        <ele>1889.0</ele>
        <time>2019-05-04T12:08:51Z</time>
      </trkpt>
      <trkpt lat="39.176850" lon="-6.110867">
        <ele>1889.0</ele>
        <time>2019-05-04T12:08:52Z</time>
      </trkpt>
      <trkpt lat="39.176733" lon="-6.110783">
        <ele>1889.0</ele>
        <time>2019-05-04T12:08:53Z</time>
      </trkpt>
      <trkpt lat="39.176633" lon="-6.110717">
        <ele>1889.0</ele>
        <time>2019-05-04T12:08:54Z</time>
      </trkpt>
      <trkpt lat="39.176533" lon="-6.110667">
        <ele>1889.0</ele>
        <time>2019-05-04T12:08:55Z</time>
      </trkpt>
      <trkpt lat="39.176417" lon="-6.110600">
        <ele>1889.0</ele>
        <time>2019-05-04T12:08:56Z</time>
      </trkpt>
      <trkpt lat="39.176317" lon="-6.110533">
        <ele>1889.0</ele>
        <time>2019-05-04T12:08:57Z</time>
      </trkpt>
      <trkpt lat="39.176217" lon="-6.110450">
        <ele>1888.0</ele>
        <time>2019-05-04T12:08:58Z</time>
      </trkpt>
      <trkpt lat="39.176100" lon="-6.110383">
        <ele>1888.0</ele>
        <time>2019-05-04T12:08:59Z</time>
      </trkpt>
      <trkpt lat="39.176000" lon="-6.110300">
        <ele>1888.0</ele>
        <time>2019-05-04T12:09:00Z</time>
      </trkpt>
      <trkpt lat="39.175900" lon="-6.110217">
        <ele>1887.0</ele>
        <time>2019-05-04T12:09:01Z</time>
      </trkpt>
      <trkpt lat="39.175800" lon="-6.110133">
        <ele>1887.0</ele>
        <time>2019-05-04T12:09:02Z</time>
      </trkpt>
      <trkpt lat="39.175683" lon="-6.110067">
        <ele>1887.0</ele>
        <time>2019-05-04T12:09:03Z</time>
      </trkpt>
      <trkpt lat="39.175567" lon="-6.110000">
        <ele>1887.0</ele>
        <time>2019-05-04T12:09:04Z</time>
      </trkpt>
      <trkpt lat="39.175450" lon="-6.109933">
        <ele>1887.0</ele>
        <time>2019-05-04T12:09:05Z</time>
      </trkpt>
      <trkpt lat="39.175350" lon="-6.109867">
        <ele>1887.0</ele>
        <time>2019-05-04T12:09:06Z</time>
      </trkpt>
      <trkpt lat="39.175250" lon="-6.109800">
        <ele>1887.0</ele>
        <time>2019-05-04T12:09:07Z</time>
      </trkpt>
      <trkpt lat="39.175150" lon="-6.109717">
        <ele>1888.0</ele>
        <time>2019-05-04T12:09:08Z</time>
      </trkpt>
      <trkpt lat="39.175033" lon="-6.109650">
        <ele>1888.0</ele>
        <time>2019-05-04T12:09:09Z</time>
      </trkpt>
      <trkpt lat="39.174933" lon="-6.109583">
        <ele>1888.0</ele>
        <time>2019-05-04T12:09:10Z</time>
      </trkpt>
      <trkpt lat="39.174817" lon="-6.109517">
        <ele>1888.0</ele>
        <time>2019-05-04T12:09:11Z</time>
      </trkpt>
      <trkpt lat="39.174700" lon="-6.109433">
        <ele>1888.0</ele>
        <time>2019-05-04T12:09:12Z</time>
      </trkpt>
      <trkpt lat="39.174583" lon="-6.109367">
        <ele>1888.0</ele>
        <time>2019-05-04T12:09:13Z</time>
      </trkpt>
      <trkpt lat="39.174467" lon="-6.109300">
        <ele>1889.0</ele>
        <time>2019-05-04T12:09:14Z</time>
      </trkpt>
      <trkpt lat="39.174367" lon="-6.109250">
        <ele>1890.0</ele>
        <time>2019-05-04T12:09:15Z</time>
      </trkpt>
      <trkpt lat="39.174267" lon="-6.109183">
        <ele>1890.0</ele>
        <time>2019-05-04T12:09:16Z</time>
      </trkpt>
      <trkpt lat="39.174167" lon="-6.109133">
        <ele>1890.0</ele>
        <time>2019-05-04T12:09:17Z</time>
      </trkpt>
      <trkpt lat="39.174067" lon="-6.109083">
        <ele>1889.0</ele>
        <time>2019-05-04T12:09:18Z</time>
      </trkpt>
      <trkpt lat="39.173950" lon="-6.109033">
        <ele>1888.0</ele>
        <time>2019-05-04T12:09:19Z</time>
      </trkpt>
      <trkpt lat="39.173850" lon="-6.108983">
        <ele>1888.0</ele>
        <time>2019-05-04T12:09:20Z</time>
      </trkpt>
      <trkpt lat="39.173750" lon="-6.108917">
        <ele>1887.0</ele>
        <time>2019-05-04T12:09:21Z</time>
      </trkpt>
      <trkpt lat="39.173650" lon="-6.108850">
        <ele>1887.0</ele>
        <time>2019-05-04T12:09:22Z</time>
      </trkpt>
      <trkpt lat="39.173550" lon="-6.108800">
        <ele>1886.0</ele>
        <time>2019-05-04T12:09:23Z</time>
      </trkpt>
      <trkpt lat="39.173450" lon="-6.108750">
        <ele>1886.0</ele>
        <time>2019-05-04T12:09:24Z</time>
      </trkpt>
      <trkpt lat="39.173350" lon="-6.108683">
        <ele>1885.0</ele>
        <time>2019-05-04T12:09:25Z</time>
      </trkpt>
      <trkpt lat="39.173250" lon="-6.108617">
        <ele>1884.0</ele>
        <time>2019-05-04T12:09:26Z</time>
      </trkpt>
      <trkpt lat="39.173150" lon="-6.108550">
        <ele>1884.0</ele>
        <time>2019-05-04T12:09:27Z</time>
      </trkpt>
      <trkpt lat="39.173050" lon="-6.108483">
        <ele>1883.0</ele>
        <time>2019-05-04T12:09:28Z</time>
      </trkpt>
      <trkpt lat="39.172950" lon="-6.108433">
        <ele>1882.0</ele>
        <time>2019-05-04T12:09:29Z</time>
      </trkpt>
      <trkpt lat="39.172850" lon="-6.108367">
        <ele>1882.0</ele>
        <time>2019-05-04T12:09:30Z</time>
      </trkpt>
      <trkpt lat="39.172750" lon="-6.108300">
        <ele>1881.0</ele>
        <time>2019-05-04T12:09:31Z</time>
      </trkpt>
      <trkpt lat="39.172650" lon="-6.108250">
        <ele>1880.0</ele>
        <time>2019-05-04T12:09:32Z</time>
      </trkpt>
      <trkpt lat="39.172550" lon="-6.108183">
        <ele>1879.0</ele>
        <time>2019-05-04T12:09:33Z</time>
      </trkpt>
      <trkpt lat="39.172450" lon="-6.108133">
        <ele>1878.0</ele>
        <time>2019-05-04T12:09:34Z</time>
      </trkpt>
      <trkpt lat="39.172350" lon="-6.108067">
        <ele>1878.0</ele>
        <time>2019-05-04T12:09:35Z</time>
      </trkpt>
      <trkpt lat="39.172250" lon="-6.108017">
        <ele>1877.0</ele>
        <time>2019-05-04T12:09:36Z</time>
      </trkpt>
      <trkpt lat="39.172150" lon="-6.107967">
        <ele>1876.0</ele>
        <time>2019-05-04T12:09:37Z</time>
      </trkpt>
      <trkpt lat="39.172033" lon="-6.107917">
        <ele>1875.0</ele>
        <time>2019-05-04T12:09:38Z</time>
      </trkpt>
      <trkpt lat="39.171933" lon="-6.107867">
        <ele>1874.0</ele>
        <time>2019-05-04T12:09:39Z</time>
      </trkpt>
      <trkpt lat="39.171817" lon="-6.107817">
        <ele>1874.0</ele>
        <time>2019-05-04T12:09:40Z</time>
      </trkpt>
      <trkpt lat="39.171717" lon="-6.107767">
        <ele>1873.0</ele>
        <time>2019-05-04T12:09:41Z</time>
      </trkpt>
      <trkpt lat="39.171617" lon="-6.107717">
        <ele>1873.0</ele>
        <time>2019-05-04T12:09:42Z</time>
      </trkpt>
      <trkpt lat="39.171533" lon="-6.107683">
        <ele>1874.0</ele>
        <time>2019-05-04T12:09:43Z</time>
      </trkpt>
      <trkpt lat="39.171433" lon="-6.107633">
        <ele>1874.0</ele>
        <time>2019-05-04T12:09:44Z</time>
      </trkpt>
      <trkpt lat="39.171333" lon="-6.107600">
        <ele>1874.0</ele>
        <time>2019-05-04T12:09:45Z</time>
      </trkpt>
      <trkpt lat="39.171233" lon="-6.107567">
        <ele>1873.0</ele>
        <time>2019-05-04T12:09:46Z</time>
      </trkpt>
      <trkpt lat="39.171133" lon="-6.107517">
        <ele>1872.0</ele>
        <time>2019-05-04T12:09:47Z</time>
      </trkpt>
      <trkpt lat="39.171033" lon="-6.107483">
        <ele>1871.0</ele>
        <time>2019-05-04T12:09:48Z</time>
      </trkpt>
      <trkpt lat="39.170933" lon="-6.107433">
        <ele>1870.0</ele>
        <time>2019-05-04T12:09:49Z</time>
      </trkpt>
      <trkpt lat="39.170833" lon="-6.107383">
        <ele>1869.0</ele>
        <time>2019-05-04T12:09:50Z</time>
      </trkpt>
      <trkpt lat="39.170750" lon="-6.107350">
        <ele>1869.0</ele>
        <time>2019-05-04T12:09:51Z</time>
      </trkpt>
      <trkpt lat="39.170667" lon="-6.107300">
        <ele>1868.0</ele>
        <time>2019-05-04T12:09:52Z</time>
      </trkpt>
      <trkpt lat="39.170567" lon="-6.107267">
        <ele>1868.0</ele>
        <time>2019-05-04T12:09:53Z</time>
      </trkpt>
      <trkpt lat="39.170483" lon="-6.107217">
        <ele>1867.0</ele>
        <time>2019-05-04T12:09:54Z</time>
      </trkpt>
      <trkpt lat="39.170383" lon="-6.107183">
        <ele>1865.0</ele>
        <time>2019-05-04T12:09:55Z</time>
      </trkpt>
      <trkpt lat="39.170300" lon="-6.107150">
        <ele>1864.0</ele>
        <time>2019-05-04T12:09:56Z</time>
      </trkpt>
      <trkpt lat="39.170200" lon="-6.107100">
        <ele>1863.0</ele>
        <time>2019-05-04T12:09:57Z</time>
      </trkpt>
      <trkpt lat="39.170117" lon="-6.107050">
        <ele>1862.0</ele>
        <time>2019-05-04T12:09:58Z</time>
      </trkpt>
      <trkpt lat="39.170017" lon="-6.107017">
        <ele>1861.0</ele>
        <time>2019-05-04T12:09:59Z</time>
      </trkpt>
      <trkpt lat="39.169917" lon="-6.106967">
        <ele>1859.0</ele>
        <time>2019-05-04T12:10:00Z</time>
      </trkpt>
      <trkpt lat="39.169817" lon="-6.106933">
        <ele>1857.0</ele>
        <time>2019-05-04T12:10:01Z</time>
      </trkpt>
      <trkpt lat="39.169717" lon="-6.106900">
        <ele>1856.0</ele>
        <time>2019-05-04T12:10:02Z</time>
      </trkpt>
      <trkpt lat="39.169633" lon="-6.106850">
        <ele>1855.0</ele>
        <time>2019-05-04T12:10:03Z</time>
      </trkpt>
      <trkpt lat="39.169533" lon="-6.106817">
        <ele>1854.0</ele>
        <time>2019-05-04T12:10:04Z</time>
      </trkpt>
      <trkpt lat="39.169433" lon="-6.106767">
        <ele>1852.0</ele>
        <time>2019-05-04T12:10:05Z</time>
      </trkpt>
      <trkpt lat="39.169333" lon="-6.106717">
        <ele>1851.0</ele>
        <time>2019-05-04T12:10:06Z</time>
      </trkpt>
      <trkpt lat="39.169233" lon="-6.106667">
        <ele>1849.0</ele>
        <time>2019-05-04T12:10:07Z</time>
      </trkpt>
      <trkpt lat="39.169133" lon="-6.106617">
        <ele>1849.0</ele>
        <time>2019-05-04T12:10:08Z</time>
      </trkpt>
      <trkpt lat="39.169033" lon="-6.106567">
        <ele>1847.0</ele>
        <time>2019-05-04T12:10:09Z</time>
      </trkpt>
      <trkpt lat="39.168933" lon="-6.106517">
        <ele>1846.0</ele>
        <time>2019-05-04T12:10:10Z</time>
      </trkpt>
      <trkpt lat="39.168817" lon="-6.106467">
        <ele>1845.0</ele>
        <time>2019-05-04T12:10:11Z</time>
      </trkpt>
      <trkpt lat="39.168717" lon="-6.106417">
        <ele>1843.0</ele>
        <time>2019-05-04T12:10:12Z</time>
      </trkpt>
      <trkpt lat="39.168600" lon="-6.106367">
        <ele>1841.0</ele>
        <time>2019-05-04T12:10:13Z</time>
      </trkpt>
      <trkpt lat="39.168500" lon="-6.106317">
        <ele>1840.0</ele>
        <time>2019-05-04T12:10:14Z</time>
      </trkpt>
      <trkpt lat="39.168417" lon="-6.106267">
        <ele>1839.0</ele>
        <time>2019-05-04T12:10:15Z</time>
      </trkpt>
      <trkpt lat="39.168317" lon="-6.106200">
        <ele>1838.0</ele>
        <time>2019-05-04T12:10:16Z</time>
      </trkpt>
      <trkpt lat="39.168217" lon="-6.106167">
        <ele>1836.0</ele>
        <time>2019-05-04T12:10:17Z</time>
      </trkpt>
      <trkpt lat="39.168100" lon="-6.106117">
        <ele>1834.0</ele>
        <time>2019-05-04T12:10:18Z</time>
      </trkpt>
      <trkpt lat="39.168000" lon="-6.106050">
        <ele>1832.0</ele>
        <time>2019-05-04T12:10:19Z</time>
      </trkpt>
      <trkpt lat="39.167900" lon="-6.106000">
        <ele>1831.0</ele>
        <time>2019-05-04T12:10:20Z</time>
      </trkpt>
      <trkpt lat="39.167817" lon="-6.105950">
        <ele>1830.0</ele>
        <time>2019-05-04T12:10:21Z</time>
      </trkpt>
      <trkpt lat="39.167717" lon="-6.105900">
        <ele>1829.0</ele>
        <time>2019-05-04T12:10:22Z</time>
      </trkpt>
      <trkpt lat="39.167433" lon="-6.105717">
        <ele>0.0</ele>
        <time>2019-05-04T12:10:25Z</time>
      </trkpt>
      <trkpt lat="39.167317" lon="-6.105667">
        <ele>1825.0</ele>
        <time>2019-05-04T12:10:26Z</time>
      </trkpt>
      <trkpt lat="39.167200" lon="-6.105617">
        <ele>1823.0</ele>
        <time>2019-05-04T12:10:27Z</time>
      </trkpt>
      <trkpt lat="39.167100" lon="-6.105567">
        <ele>1821.0</ele>
        <time>2019-05-04T12:10:28Z</time>
      </trkpt>
      <trkpt lat="39.167000" lon="-6.105533">
        <ele>1819.0</ele>
        <time>2019-05-04T12:10:29Z</time>
      </trkpt>
      <trkpt lat="39.166883" lon="-6.105483">
        <ele>1817.0</ele>
        <time>2019-05-04T12:10:30Z</time>
      </trkpt>
      <trkpt lat="39.166783" lon="-6.105400">
        <ele>1815.0</ele>
        <time>2019-05-04T12:10:31Z</time>
      </trkpt>
      <trkpt lat="39.166683" lon="-6.105317">
        <ele>1813.0</ele>
        <time>2019-05-04T12:10:32Z</time>
      </trkpt>
      <trkpt lat="39.166583" lon="-6.105250">
        <ele>1812.0</ele>
        <time>2019-05-04T12:10:33Z</time>
      </trkpt>
      <trkpt lat="39.166483" lon="-6.105200">
        <ele>1810.0</ele>
        <time>2019-05-04T12:10:34Z</time>
      </trkpt>
      <trkpt lat="39.166383" lon="-6.105167">
        <ele>1808.0</ele>
        <time>2019-05-04T12:10:35Z</time>
      </trkpt>
      <trkpt lat="39.166267" lon="-6.105117">
        <ele>1804.0</ele>
        <time>2019-05-04T12:10:36Z</time>
      </trkpt>
      <trkpt lat="39.166150" lon="-6.105050">
        <ele>1801.0</ele>
        <time>2019-05-04T12:10:37Z</time>
      </trkpt>
      <trkpt lat="39.166033" lon="-6.104983">
        <ele>1798.0</ele>
        <time>2019-05-04T12:10:38Z</time>
      </trkpt>
      <trkpt lat="39.165933" lon="-6.104933">
        <ele>1795.0</ele>
        <time>2019-05-04T12:10:39Z</time>
      </trkpt>
      <trkpt lat="39.165833" lon="-6.104900">
        <ele>1793.0</ele>
        <time>2019-05-04T12:10:40Z</time>
      </trkpt>
      <trkpt lat="39.165733" lon="-6.104867">
        <ele>1791.0</ele>
        <time>2019-05-04T12:10:41Z</time>
      </trkpt>
      <trkpt lat="39.165633" lon="-6.104817">
        <ele>1789.0</ele>
        <time>2019-05-04T12:10:42Z</time>
      </trkpt>
      <trkpt lat="39.165550" lon="-6.104750">
        <ele>1788.0</ele>
        <time>2019-05-04T12:10:43Z</time>
      </trkpt>
      <trkpt lat="39.165450" lon="-6.104700">
        <ele>1786.0</ele>
        <time>2019-05-04T12:10:44Z</time>
      </trkpt>
      <trkpt lat="39.165350" lon="-6.104667">
        <ele>1785.0</ele>
        <time>2019-05-04T12:10:45Z</time>
      </trkpt>
      <trkpt lat="39.165250" lon="-6.104633">
        <ele>1784.0</ele>
        <time>2019-05-04T12:10:46Z</time>
      </trkpt>
      <trkpt lat="39.165150" lon="-6.104600">
        <ele>1784.0</ele>
        <time>2019-05-04T12:10:47Z</time>
      </trkpt>
      <trkpt lat="39.165050" lon="-6.104567">
        <ele>1782.0</ele>
        <time>2019-05-04T12:10:48Z</time>
      </trkpt>
      <trkpt lat="39.164950" lon="-6.104533">
        <ele>1781.0</ele>
        <time>2019-05-04T12:10:49Z</time>
      </trkpt>
      <trkpt lat="39.164850" lon="-6.104500">
        <ele>1780.0</ele>
        <time>2019-05-04T12:10:50Z</time>
      </trkpt>
      <trkpt lat="39.164750" lon="-6.104467">
        <ele>1779.0</ele>
        <time>2019-05-04T12:10:51Z</time>
      </trkpt>
      <trkpt lat="39.164650" lon="-6.104450">
        <ele>1778.0</ele>
        <time>2019-05-04T12:10:52Z</time>
      </trkpt>
      <trkpt lat="39.164567" lon="-6.104433">
        <ele>1778.0</ele>
        <time>2019-05-04T12:10:53Z</time>
      </trkpt>
      <trkpt lat="39.164467" lon="-6.104417">
        <ele>1776.0</ele>
        <time>2019-05-04T12:10:54Z</time>
      </trkpt>
      <trkpt lat="39.164383" lon="-6.104417">
        <ele>1774.0</ele>
        <time>2019-05-04T12:10:55Z</time>
      </trkpt>
      <trkpt lat="39.164267" lon="-6.104417">
        <ele>1772.0</ele>
        <time>2019-05-04T12:10:56Z</time>
      </trkpt>
      <trkpt lat="39.164150" lon="-6.104383">
        <ele>1770.0</ele>
        <time>2019-05-04T12:10:57Z</time>
      </trkpt>
      <trkpt lat="39.164050" lon="-6.104350">
        <ele>1768.0</ele>
        <time>2019-05-04T12:10:58Z</time>
      </trkpt>
      <trkpt lat="39.163933" lon="-6.104333">
        <ele>1766.0</ele>
        <time>2019-05-04T12:10:59Z</time>
      </trkpt>
      <trkpt lat="39.163817" lon="-6.104317">
        <ele>1765.0</ele>
        <time>2019-05-04T12:11:00Z</time>
      </trkpt>
      <trkpt lat="39.163717" lon="-6.104317">
        <ele>1763.0</ele>
        <time>2019-05-04T12:11:01Z</time>
      </trkpt>
      <trkpt lat="39.163617" lon="-6.104300">
        <ele>1760.0</ele>
        <time>2019-05-04T12:11:02Z</time>
      </trkpt>
      <trkpt lat="39.163517" lon="-6.104283">
        <ele>1756.0</ele>
        <time>2019-05-04T12:11:03Z</time>
      </trkpt>
      <trkpt lat="39.163400" lon="-6.104250">
        <ele>1753.0</ele>
        <time>2019-05-04T12:11:04Z</time>
      </trkpt>
      <trkpt lat="39.163283" lon="-6.104250">
        <ele>1750.0</ele>
        <time>2019-05-04T12:11:05Z</time>
      </trkpt>
      <trkpt lat="39.163167" lon="-6.104233">
        <ele>1748.0</ele>
        <time>2019-05-04T12:11:06Z</time>
      </trkpt>
      <trkpt lat="39.163067" lon="-6.104233">
        <ele>1746.0</ele>
        <time>2019-05-04T12:11:07Z</time>
      </trkpt>
      <trkpt lat="39.162967" lon="-6.104233">
        <ele>1743.0</ele>
        <time>2019-05-04T12:11:08Z</time>
      </trkpt>
      <trkpt lat="39.162867" lon="-6.104217">
        <ele>1739.0</ele>
        <time>2019-05-04T12:11:09Z</time>
      </trkpt>
      <trkpt lat="39.162750" lon="-6.104200">
        <ele>1736.0</ele>
        <time>2019-05-04T12:11:10Z</time>
      </trkpt>
      <trkpt lat="39.162633" lon="-6.104167">
        <ele>1732.0</ele>
        <time>2019-05-04T12:11:11Z</time>
      </trkpt>
      <trkpt lat="39.162533" lon="-6.104133">
        <ele>1729.0</ele>
        <time>2019-05-04T12:11:12Z</time>
      </trkpt>
      <trkpt lat="39.162433" lon="-6.104083">
        <ele>1726.0</ele>
        <time>2019-05-04T12:11:13Z</time>
      </trkpt>
      <trkpt lat="39.162350" lon="-6.104033">
        <ele>1723.0</ele>
        <time>2019-05-04T12:11:14Z</time>
      </trkpt>
      <trkpt lat="39.162267" lon="-6.103983">
        <ele>1719.0</ele>
        <time>2019-05-04T12:11:15Z</time>
      </trkpt>
      <trkpt lat="39.162183" lon="-6.103933">
        <ele>1716.0</ele>
        <time>2019-05-04T12:11:16Z</time>
      </trkpt>
      <trkpt lat="39.162100" lon="-6.103867">
        <ele>1712.0</ele>
        <time>2019-05-04T12:11:17Z</time>
      </trkpt>
      <trkpt lat="39.162000" lon="-6.103817">
        <ele>1709.0</ele>
        <time>2019-05-04T12:11:18Z</time>
      </trkpt>
      <trkpt lat="39.161917" lon="-6.103750">
        <ele>1705.0</ele>
        <time>2019-05-04T12:11:19Z</time>
      </trkpt>
      <trkpt lat="39.161850" lon="-6.103667">
        <ele>1703.0</ele>
        <time>2019-05-04T12:11:20Z</time>
      </trkpt>
      <trkpt lat="39.161783" lon="-6.103583">
        <ele>1700.0</ele>
        <time>2019-05-04T12:11:21Z</time>
      </trkpt>
      <trkpt lat="39.161733" lon="-6.103517">
        <ele>1697.0</ele>
        <time>2019-05-04T12:11:22Z</time>
      </trkpt>
      <trkpt lat="39.161650" lon="-6.103450">
        <ele>1695.0</ele>
        <time>2019-05-04T12:11:23Z</time>
      </trkpt>
      <trkpt lat="39.161583" lon="-6.103383">
        <ele>1692.0</ele>
        <time>2019-05-04T12:11:24Z</time>
      </trkpt>
      <trkpt lat="39.161500" lon="-6.103317">
        <ele>1689.0</ele>
        <time>2019-05-04T12:11:25Z</time>
      </trkpt>
      <trkpt lat="39.161433" lon="-6.103250">
        <ele>1686.0</ele>
        <time>2019-05-04T12:11:26Z</time>
      </trkpt>
      <trkpt lat="39.161383" lon="-6.103183">
        <ele>1684.0</ele>
        <time>2019-05-04T12:11:27Z</time>
      </trkpt>
      <trkpt lat="39.161317" lon="-6.103100">
        <ele>1682.0</ele>
        <time>2019-05-04T12:11:28Z</time>
      </trkpt>
      <trkpt lat="39.161267" lon="-6.103033">
        <ele>1680.0</ele>
        <time>2019-05-04T12:11:29Z</time>
      </trkpt>
      <trkpt lat="39.161200" lon="-6.102967">
        <ele>1678.0</ele>
        <time>2019-05-04T12:11:30Z</time>
      </trkpt>
      <trkpt lat="39.161133" lon="-6.102917">
        <ele>1678.0</ele>
        <time>2019-05-04T12:11:31Z</time>
      </trkpt>
      <trkpt lat="39.161083" lon="-6.102883">
        <ele>1677.0</ele>
        <time>2019-05-04T12:11:32Z</time>
      </trkpt>
      <trkpt lat="39.161033" lon="-6.102850">
        <ele>1676.0</ele>
        <time>2019-05-04T12:11:33Z</time>
      </trkpt>
      <trkpt lat="39.160983" lon="-6.102800">
        <ele>1675.0</ele>
        <time>2019-05-04T12:11:34Z</time>
      </trkpt>
      <trkpt lat="39.160933" lon="-6.102733">
        <ele>1672.0</ele>
        <time>2019-05-04T12:11:35Z</time>
      </trkpt>
      <trkpt lat="39.160883" lon="-6.102683">
        <ele>1670.0</ele>
        <time>2019-05-04T12:11:36Z</time>
      </trkpt>
      <trkpt lat="39.160817" lon="-6.102633">
        <ele>1667.0</ele>
        <time>2019-05-04T12:11:37Z</time>
      </trkpt>
      <trkpt lat="39.160767" lon="-6.102567">
        <ele>1665.0</ele>
        <time>2019-05-04T12:11:38Z</time>
      </trkpt>
      <trkpt lat="39.160717" lon="-6.102517">
        <ele>1663.0</ele>
        <time>2019-05-04T12:11:39Z</time>
      </trkpt>
      <trkpt lat="39.160683" lon="-6.102450">
        <ele>1660.0</ele>
        <time>2019-05-04T12:11:40Z</time>
      </trkpt>
      <trkpt lat="39.160617" lon="-6.102383">
        <ele>1658.0</ele>
        <time>2019-05-04T12:11:41Z</time>
      </trkpt>
      <trkpt lat="39.160567" lon="-6.102300">
        <ele>1656.0</ele>
        <time>2019-05-04T12:11:42Z</time>
      </trkpt>
      <trkpt lat="39.160517" lon="-6.102233">
        <ele>1655.0</ele>
        <time>2019-05-04T12:11:43Z</time>
      </trkpt>
      <trkpt lat="39.160467" lon="-6.102150">
        <ele>1654.0</ele>
        <time>2019-05-04T12:11:44Z</time>
      </trkpt>
      <trkpt lat="39.160417" lon="-6.102083">
        <ele>1653.0</ele>
        <time>2019-05-04T12:11:45Z</time>
      </trkpt>
      <trkpt lat="39.160367" lon="-6.102017">
        <ele>1653.0</ele>
        <time>2019-05-04T12:11:46Z</time>
      </trkpt>
      <trkpt lat="39.160333" lon="-6.101967">
        <ele>1652.0</ele>
        <time>2019-05-04T12:11:47Z</time>
      </trkpt>
      <trkpt lat="39.160283" lon="-6.101933">
        <ele>1653.0</ele>
        <time>2019-05-04T12:11:48Z</time>
      </trkpt>
      <trkpt lat="39.160233" lon="-6.101883">
        <ele>1653.0</ele>
        <time>2019-05-04T12:11:49Z</time>
      </trkpt>
      <trkpt lat="39.160183" lon="-6.101850">
        <ele>1653.0</ele>
        <time>2019-05-04T12:11:50Z</time>
      </trkpt>
      <trkpt lat="39.160150" lon="-6.101817">
        <ele>1653.0</ele>
        <time>2019-05-04T12:11:51Z</time>
      </trkpt>
      <trkpt lat="39.160117" lon="-6.101783">
        <ele>1652.0</ele>
        <time>2019-05-04T12:11:52Z</time>
      </trkpt>
      <trkpt lat="39.160067" lon="-6.101750">
        <ele>1652.0</ele>
        <time>2019-05-04T12:11:53Z</time>
      </trkpt>
      <trkpt lat="39.160017" lon="-6.101717">
        <ele>1651.0</ele>
        <time>2019-05-04T12:11:54Z</time>
      </trkpt>
      <trkpt lat="39.159967" lon="-6.101683">
        <ele>1650.0</ele>
        <time>2019-05-04T12:11:55Z</time>
      </trkpt>
      <trkpt lat="39.159900" lon="-6.101633">
        <ele>1649.0</ele>
        <time>2019-05-04T12:11:56Z</time>
      </trkpt>
      <trkpt lat="39.159867" lon="-6.101583">
        <ele>1648.0</ele>
        <time>2019-05-04T12:11:57Z</time>
      </trkpt>
      <trkpt lat="39.159817" lon="-6.101517">
        <ele>1648.0</ele>
        <time>2019-05-04T12:11:58Z</time>
      </trkpt>
      <trkpt lat="39.159783" lon="-6.101467">
        <ele>1647.0</ele>
        <time>2019-05-04T12:11:59Z</time>
      </trkpt>
      <trkpt lat="39.159733" lon="-6.101400">
        <ele>1646.0</ele>
        <time>2019-05-04T12:12:00Z</time>
      </trkpt>
      <trkpt lat="39.159700" lon="-6.101350">
        <ele>1645.0</ele>
        <time>2019-05-04T12:12:01Z</time>
      </trkpt>
      <trkpt lat="39.159650" lon="-6.101300">
        <ele>1643.0</ele>
        <time>2019-05-04T12:12:02Z</time>
      </trkpt>
      <trkpt lat="39.159600" lon="-6.101233">
        <ele>1642.0</ele>
        <time>2019-05-04T12:12:03Z</time>
      </trkpt>
      <trkpt lat="39.159533" lon="-6.101167">
        <ele>1640.0</ele>
        <time>2019-05-04T12:12:04Z</time>
      </trkpt>
      <trkpt lat="39.159483" lon="-6.101117">
        <ele>1639.0</ele>
        <time>2019-05-04T12:12:05Z</time>
      </trkpt>
      <trkpt lat="39.159417" lon="-6.101050">
        <ele>1638.0</ele>
        <time>2019-05-04T12:12:06Z</time>
      </trkpt>
      <trkpt lat="39.159367" lon="-6.100983">
        <ele>1636.0</ele>
        <time>2019-05-04T12:12:07Z</time>
      </trkpt>
      <trkpt lat="39.159300" lon="-6.100900">
        <ele>1634.0</ele>
        <time>2019-05-04T12:12:08Z</time>
      </trkpt>
      <trkpt lat="39.159233" lon="-6.100817">
        <ele>1632.0</ele>
        <time>2019-05-04T12:12:09Z</time>
      </trkpt>
      <trkpt lat="39.159167" lon="-6.100733">
        <ele>1630.0</ele>
        <time>2019-05-04T12:12:10Z</time>
      </trkpt>
      <trkpt lat="39.159100" lon="-6.100650">
        <ele>1629.0</ele>
        <time>2019-05-04T12:12:11Z</time>
      </trkpt>
      <trkpt lat="39.159050" lon="-6.100567">
        <ele>1629.0</ele>
        <time>2019-05-04T12:12:12Z</time>
      </trkpt>
      <trkpt lat="39.159000" lon="-6.100483">
        <ele>1628.0</ele>
        <time>2019-05-04T12:12:13Z</time>
      </trkpt>
      <trkpt lat="39.158933" lon="-6.100383">
        <ele>1626.0</ele>
        <time>2019-05-04T12:12:14Z</time>
      </trkpt>
      <trkpt lat="39.158883" lon="-6.100300">
        <ele>1625.0</ele>
        <time>2019-05-04T12:12:15Z</time>
      </trkpt>
      <trkpt lat="39.158833" lon="-6.100217">
        <ele>1623.0</ele>
        <time>2019-05-04T12:12:16Z</time>
      </trkpt>
      <trkpt lat="39.158783" lon="-6.100133">
        <ele>1620.0</ele>
        <time>2019-05-04T12:12:17Z</time>
      </trkpt>
      <trkpt lat="39.158717" lon="-6.100050">
        <ele>1619.0</ele>
        <time>2019-05-04T12:12:18Z</time>
      </trkpt>
      <trkpt lat="39.158667" lon="-6.099983">
        <ele>1617.0</ele>
        <time>2019-05-04T12:12:19Z</time>
      </trkpt>
      <trkpt lat="39.158600" lon="-6.099917">
        <ele>1618.0</ele>
        <time>2019-05-04T12:12:20Z</time>
      </trkpt>
      <trkpt lat="39.158550" lon="-6.099867">
        <ele>1617.0</ele>
        <time>2019-05-04T12:12:21Z</time>
      </trkpt>
      <trkpt lat="39.158500" lon="-6.099800">
        <ele>1618.0</ele>
        <time>2019-05-04T12:12:22Z</time>
      </trkpt>
      <trkpt lat="39.158450" lon="-6.099733">
        <ele>1618.0</ele>
        <time>2019-05-04T12:12:23Z</time>
      </trkpt>
      <trkpt lat="39.158417" lon="-6.099650">
        <ele>1621.0</ele>
        <time>2019-05-04T12:12:24Z</time>
      </trkpt>
      <trkpt lat="39.158367" lon="-6.099583">
        <ele>1624.0</ele>
        <time>2019-05-04T12:12:25Z</time>
      </trkpt>
      <trkpt lat="39.158333" lon="-6.099500">
        <ele>1628.0</ele>
        <time>2019-05-04T12:12:26Z</time>
      </trkpt>
      <trkpt lat="39.158283" lon="-6.099417">
        <ele>1633.0</ele>
        <time>2019-05-04T12:12:27Z</time>
      </trkpt>
      <trkpt lat="39.158250" lon="-6.099333">
        <ele>1637.0</ele>
        <time>2019-05-04T12:12:28Z</time>
      </trkpt>
      <trkpt lat="39.158233" lon="-6.099233">
        <ele>1640.0</ele>
        <time>2019-05-04T12:12:29Z</time>
      </trkpt>
      <trkpt lat="39.158233" lon="-6.099150">
        <ele>1643.0</ele>
        <time>2019-05-04T12:12:30Z</time>
      </trkpt>
      <trkpt lat="39.158233" lon="-6.099083">
        <ele>1646.0</ele>
        <time>2019-05-04T12:12:31Z</time>
      </trkpt>
      <trkpt lat="39.158200" lon="-6.099017">
        <ele>1649.0</ele>
        <time>2019-05-04T12:12:32Z</time>
      </trkpt>
      <trkpt lat="39.158133" lon="-6.098967">
        <ele>1650.0</ele>
        <time>2019-05-04T12:12:33Z</time>
      </trkpt>
      <trkpt lat="39.158050" lon="-6.098933">
        <ele>1651.0</ele>
        <time>2019-05-04T12:12:34Z</time>
      </trkpt>
      <trkpt lat="39.157933" lon="-6.098967">
        <ele>1652.0</ele>
        <time>2019-05-04T12:12:35Z</time>
      </trkpt>
      <trkpt lat="39.157850" lon="-6.099050">
        <ele>1653.0</ele>
        <time>2019-05-04T12:12:36Z</time>
      </trkpt>
      <trkpt lat="39.157783" lon="-6.099167">
        <ele>1654.0</ele>
        <time>2019-05-04T12:12:37Z</time>
      </trkpt>
      <trkpt lat="39.157767" lon="-6.099317">
        <ele>1655.0</ele>
        <time>2019-05-04T12:12:38Z</time>
      </trkpt>
      <trkpt lat="39.157783" lon="-6.099450">
        <ele>1656.0</ele>
        <time>2019-05-04T12:12:39Z</time>
      </trkpt>
      <trkpt lat="39.157817" lon="-6.099550">
        <ele>1658.0</ele>
        <time>2019-05-04T12:12:40Z</time>
      </trkpt>
      <trkpt lat="39.157883" lon="-6.099633">
        <ele>1659.0</ele>
        <time>2019-05-04T12:12:41Z</time>
      </trkpt>
      <trkpt lat="39.157950" lon="-6.099700">
        <ele>1661.0</ele>
        <time>2019-05-04T12:12:42Z</time>
      </trkpt>
      <trkpt lat="39.158033" lon="-6.099717">
        <ele>1663.0</ele>
        <time>2019-05-04T12:12:43Z</time>
      </trkpt>
      <trkpt lat="39.158100" lon="-6.099700">
        <ele>1666.0</ele>
        <time>2019-05-04T12:12:44Z</time>
      </trkpt>
      <trkpt lat="39.158133" lon="-6.099633">
        <ele>1668.0</ele>
        <time>2019-05-04T12:12:45Z</time>
      </trkpt>
      <trkpt lat="39.158133" lon="-6.099533">
        <ele>1669.0</ele>
        <time>2019-05-04T12:12:46Z</time>
      </trkpt>
      <trkpt lat="39.158100" lon="-6.099433">
        <ele>1670.0</ele>
        <time>2019-05-04T12:12:47Z</time>
      </trkpt>
      <trkpt lat="39.158033" lon="-6.099383">
        <ele>1670.0</ele>
        <time>2019-05-04T12:12:48Z</time>
      </trkpt>
      <trkpt lat="39.157933" lon="-6.099383">
        <ele>1671.0</ele>
        <time>2019-05-04T12:12:49Z</time>
      </trkpt>
      <trkpt lat="39.157833" lon="-6.099467">
        <ele>1670.0</ele>
        <time>2019-05-04T12:12:50Z</time>
      </trkpt>
      <trkpt lat="39.157750" lon="-6.099567">
        <ele>1670.0</ele>
        <time>2019-05-04T12:12:51Z</time>
      </trkpt>
      <trkpt lat="39.157700" lon="-6.099683">
        <ele>1671.0</ele>
        <time>2019-05-04T12:12:52Z</time>
      </trkpt>
      <trkpt lat="39.157667" lon="-6.099800">
        <ele>1673.0</ele>
        <time>2019-05-04T12:12:53Z</time>
      </trkpt>
      <trkpt lat="39.157633" lon="-6.099917">
        <ele>1676.0</ele>
        <time>2019-05-04T12:12:54Z</time>
      </trkpt>
      <trkpt lat="39.157617" lon="-6.100033">
        <ele>1678.0</ele>
        <time>2019-05-04T12:12:55Z</time>
      </trkpt>
      <trkpt lat="39.157600" lon="-6.100167">
        <ele>1680.0</ele>
        <time>2019-05-04T12:12:56Z</time>
      </trkpt>
      <trkpt lat="39.157633" lon="-6.100300">
        <ele>1682.0</ele>
        <time>2019-05-04T12:12:57Z</time>
      </trkpt>
      <trkpt lat="39.157700" lon="-6.100400">
        <ele>1684.0</ele>
        <time>2019-05-04T12:12:58Z</time>
      </trkpt>
      <trkpt lat="39.157800" lon="-6.100450">
        <ele>1686.0</ele>
        <time>2019-05-04T12:12:59Z</time>
      </trkpt>
      <trkpt lat="39.157883" lon="-6.100433">
        <ele>1688.0</ele>
        <time>2019-05-04T12:13:00Z</time>
      </trkpt>
      <trkpt lat="39.157933" lon="-6.100367">
        <ele>1693.0</ele>
        <time>2019-05-04T12:13:01Z</time>
      </trkpt>
      <trkpt lat="39.157933" lon="-6.100283">
        <ele>1697.0</ele>
        <time>2019-05-04T12:13:02Z</time>
      </trkpt>
      <trkpt lat="39.157950" lon="-6.100200">
        <ele>1701.0</ele>
        <time>2019-05-04T12:13:03Z</time>
      </trkpt>
      <trkpt lat="39.157950" lon="-6.100100">
        <ele>1704.0</ele>
        <time>2019-05-04T12:13:04Z</time>
      </trkpt>
      <trkpt lat="39.157933" lon="-6.100000">
        <ele>1706.0</ele>
        <time>2019-05-04T12:13:05Z</time>
      </trkpt>
      <trkpt lat="39.157900" lon="-6.099900">
        <ele>1709.0</ele>
        <time>2019-05-04T12:13:06Z</time>
      </trkpt>
      <trkpt lat="39.157850" lon="-6.099800">
        <ele>1710.0</ele>
        <time>2019-05-04T12:13:07Z</time>
      </trkpt>
      <trkpt lat="39.157750" lon="-6.099733">
        <ele>1712.0</ele>
        <time>2019-05-04T12:13:08Z</time>
      </trkpt>
      <trkpt lat="39.157633" lon="-6.099750">
        <ele>1713.0</ele>
        <time>2019-05-04T12:13:09Z</time>
      </trkpt>
      <trkpt lat="39.157533" lon="-6.099800">
        <ele>1716.0</ele>
        <time>2019-05-04T12:13:10Z</time>
      </trkpt>
      <trkpt lat="39.157467" lon="-6.099900">
        <ele>1718.0</ele>
        <time>2019-05-04T12:13:11Z</time>
      </trkpt>
      <trkpt lat="39.157417" lon="-6.100033">
        <ele>1721.0</ele>
        <time>2019-05-04T12:13:12Z</time>
      </trkpt>
      <trkpt lat="39.157400" lon="-6.100150">
        <ele>1724.0</ele>
        <time>2019-05-04T12:13:13Z</time>
      </trkpt>
      <trkpt lat="39.157400" lon="-6.100267">
        <ele>1725.0</ele>
        <time>2019-05-04T12:13:14Z</time>
      </trkpt>
      <trkpt lat="39.157417" lon="-6.100383">
        <ele>1727.0</ele>
        <time>2019-05-04T12:13:15Z</time>
      </trkpt>
      <trkpt lat="39.157467" lon="-6.100483">
        <ele>1729.0</ele>
        <time>2019-05-04T12:13:16Z</time>
      </trkpt>
      <trkpt lat="39.157550" lon="-6.100550">
        <ele>1731.0</ele>
        <time>2019-05-04T12:13:17Z</time>
      </trkpt>
      <trkpt lat="39.157633" lon="-6.100567">
        <ele>1732.0</ele>
        <time>2019-05-04T12:13:18Z</time>
      </trkpt>
      <trkpt lat="39.157717" lon="-6.100517">
        <ele>1734.0</ele>
        <time>2019-05-04T12:13:19Z</time>
      </trkpt>
      <trkpt lat="39.157750" lon="-6.100433">
        <ele>1735.0</ele>
        <time>2019-05-04T12:13:20Z</time>
      </trkpt>
      <trkpt lat="39.157750" lon="-6.100333">
        <ele>1737.0</ele>
        <time>2019-05-04T12:13:21Z</time>
      </trkpt>
      <trkpt lat="39.157733" lon="-6.100233">
        <ele>1738.0</ele>
        <time>2019-05-04T12:13:22Z</time>
      </trkpt>
      <trkpt lat="39.157667" lon="-6.100150">
        <ele>1739.0</ele>
        <time>2019-05-04T12:13:23Z</time>
      </trkpt>
      <trkpt lat="39.157583" lon="-6.100100">
        <ele>1740.0</ele>
        <time>2019-05-04T12:13:24Z</time>
      </trkpt>
      <trkpt lat="39.157483" lon="-6.100100">
        <ele>1741.0</ele>
        <time>2019-05-04T12:13:25Z</time>
      </trkpt>
      <trkpt lat="39.157400" lon="-6.100150">
        <ele>1741.0</ele>
        <time>2019-05-04T12:13:26Z</time>
      </trkpt>
      <trkpt lat="39.157333" lon="-6.100250">
        <ele>1742.0</ele>
        <time>2019-05-04T12:13:27Z</time>
      </trkpt>
      <trkpt lat="39.157300" lon="-6.100367">
        <ele>1743.0</ele>
        <time>2019-05-04T12:13:28Z</time>
      </trkpt>
      <trkpt lat="39.157283" lon="-6.100483">
        <ele>1743.0</ele>
        <time>2019-05-04T12:13:29Z</time>
      </trkpt>
      <trkpt lat="39.157283" lon="-6.100600">
        <ele>1744.0</ele>
        <time>2019-05-04T12:13:30Z</time>
      </trkpt>
      <trkpt lat="39.157317" lon="-6.100717">
        <ele>1745.0</ele>
        <time>2019-05-04T12:13:31Z</time>
      </trkpt>
      <trkpt lat="39.157367" lon="-6.100817">
        <ele>1746.0</ele>
        <time>2019-05-04T12:13:32Z</time>
      </trkpt>
      <trkpt lat="39.157450" lon="-6.100867">
        <ele>1747.0</ele>
        <time>2019-05-04T12:13:33Z</time>
      </trkpt>
      <trkpt lat="39.157533" lon="-6.100883">
        <ele>1750.0</ele>
        <time>2019-05-04T12:13:34Z</time>
      </trkpt>
      <trkpt lat="39.157583" lon="-6.100867">
        <ele>1756.0</ele>
        <time>2019-05-04T12:13:35Z</time>
      </trkpt>
      <trkpt lat="39.157617" lon="-6.100800">
        <ele>1758.0</ele>
        <time>2019-05-04T12:13:36Z</time>
      </trkpt>
      <trkpt lat="39.157633" lon="-6.100733">
        <ele>1759.0</ele>
        <time>2019-05-04T12:13:37Z</time>
      </trkpt>
      <trkpt lat="39.157633" lon="-6.100633">
        <ele>1760.0</ele>
        <time>2019-05-04T12:13:38Z</time>
      </trkpt>
      <trkpt lat="39.157617" lon="-6.100533">
        <ele>1762.0</ele>
        <time>2019-05-04T12:13:39Z</time>
      </trkpt>
      <trkpt lat="39.157583" lon="-6.100433">
        <ele>1762.0</ele>
        <time>2019-05-04T12:13:40Z</time>
      </trkpt>
      <trkpt lat="39.157500" lon="-6.100350">
        <ele>1762.0</ele>
        <time>2019-05-04T12:13:41Z</time>
      </trkpt>
      <trkpt lat="39.157400" lon="-6.100317">
        <ele>1763.0</ele>
        <time>2019-05-04T12:13:42Z</time>
      </trkpt>
      <trkpt lat="39.157283" lon="-6.100317">
        <ele>1765.0</ele>
        <time>2019-05-04T12:13:43Z</time>
      </trkpt>
      <trkpt lat="39.157200" lon="-6.100367">
        <ele>1766.0</ele>
        <time>2019-05-04T12:13:44Z</time>
      </trkpt>
      <trkpt lat="39.157117" lon="-6.100450">
        <ele>1768.0</ele>
        <time>2019-05-04T12:13:45Z</time>
      </trkpt>
      <trkpt lat="39.157067" lon="-6.100550">
        <ele>1769.0</ele>
        <time>2019-05-04T12:13:46Z</time>
      </trkpt>
      <trkpt lat="39.157033" lon="-6.100650">
        <ele>1770.0</ele>
        <time>2019-05-04T12:13:47Z</time>
      </trkpt>
      <trkpt lat="39.157017" lon="-6.100767">
        <ele>1771.0</ele>
        <time>2019-05-04T12:13:48Z</time>
      </trkpt>
      <trkpt lat="39.157017" lon="-6.100883">
        <ele>1772.0</ele>
        <time>2019-05-04T12:13:49Z</time>
      </trkpt>
      <trkpt lat="39.157033" lon="-6.101000">
        <ele>1773.0</ele>
        <time>2019-05-04T12:13:50Z</time>
      </trkpt>
      <trkpt lat="39.157083" lon="-6.101100">
        <ele>1775.0</ele>
        <time>2019-05-04T12:13:51Z</time>
      </trkpt>
      <trkpt lat="39.157133" lon="-6.101167">
        <ele>1777.0</ele>
        <time>2019-05-04T12:13:52Z</time>
      </trkpt>
      <trkpt lat="39.157200" lon="-6.101217">
        <ele>1778.0</ele>
        <time>2019-05-04T12:13:53Z</time>
      </trkpt>
      <trkpt lat="39.157267" lon="-6.101233">
        <ele>1780.0</ele>
        <time>2019-05-04T12:13:54Z</time>
      </trkpt>
      <trkpt lat="39.157317" lon="-6.101233">
        <ele>1781.0</ele>
        <time>2019-05-04T12:13:55Z</time>
      </trkpt>
      <trkpt lat="39.157350" lon="-6.101200">
        <ele>1782.0</ele>
        <time>2019-05-04T12:13:56Z</time>
      </trkpt>
      <trkpt lat="39.157383" lon="-6.101117">
        <ele>1782.0</ele>
        <time>2019-05-04T12:13:57Z</time>
      </trkpt>
      <trkpt lat="39.157383" lon="-6.101033">
        <ele>1782.0</ele>
        <time>2019-05-04T12:13:58Z</time>
      </trkpt>
      <trkpt lat="39.157350" lon="-6.100933">
        <ele>1782.0</ele>
        <time>2019-05-04T12:13:59Z</time>
      </trkpt>
      <trkpt lat="39.157300" lon="-6.100833">
        <ele>1782.0</ele>
        <time>2019-05-04T12:14:00Z</time>
      </trkpt>
      <trkpt lat="39.157217" lon="-6.100750">
        <ele>1784.0</ele>
        <time>2019-05-04T12:14:01Z</time>
      </trkpt>
      <trkpt lat="39.157133" lon="-6.100683">
        <ele>1786.0</ele>
        <time>2019-05-04T12:14:02Z</time>
      </trkpt>
      <trkpt lat="39.157033" lon="-6.100650">
        <ele>1788.0</ele>
        <time>2019-05-04T12:14:03Z</time>
      </trkpt>
      <trkpt lat="39.156933" lon="-6.100633">
        <ele>1790.0</ele>
        <time>2019-05-04T12:14:04Z</time>
      </trkpt>
      <trkpt lat="39.156833" lon="-6.100617">
        <ele>1791.0</ele>
        <time>2019-05-04T12:14:05Z</time>
      </trkpt>
      <trkpt lat="39.156717" lon="-6.100650">
        <ele>1793.0</ele>
        <time>2019-05-04T12:14:06Z</time>
      </trkpt>
      <trkpt lat="39.156617" lon="-6.100700">
        <ele>1794.0</ele>
        <time>2019-05-04T12:14:07Z</time>
      </trkpt>
      <trkpt lat="39.156533" lon="-6.100817">
        <ele>1794.0</ele>
        <time>2019-05-04T12:14:08Z</time>
      </trkpt>
      <trkpt lat="39.156483" lon="-6.100967">
        <ele>1794.0</ele>
        <time>2019-05-04T12:14:09Z</time>
      </trkpt>
      <trkpt lat="39.156483" lon="-6.101083">
        <ele>1794.0</ele>
        <time>2019-05-04T12:14:10Z</time>
      </trkpt>
      <trkpt lat="39.156500" lon="-6.101167">
        <ele>1796.0</ele>
        <time>2019-05-04T12:14:11Z</time>
      </trkpt>
      <trkpt lat="39.156533" lon="-6.101233">
        <ele>1798.0</ele>
        <time>2019-05-04T12:14:12Z</time>
      </trkpt>
      <trkpt lat="39.156567" lon="-6.101300">
        <ele>1799.0</ele>
        <time>2019-05-04T12:14:13Z</time>
      </trkpt>
      <trkpt lat="39.156600" lon="-6.101367">
        <ele>1800.0</ele>
        <time>2019-05-04T12:14:14Z</time>
      </trkpt>
      <trkpt lat="39.156650" lon="-6.101417">
        <ele>1799.0</ele>
        <time>2019-05-04T12:14:15Z</time>
      </trkpt>
      <trkpt lat="39.156733" lon="-6.101433">
        <ele>1799.0</ele>
        <time>2019-05-04T12:14:16Z</time>
      </trkpt>
      <trkpt lat="39.156800" lon="-6.101417">
        <ele>1800.0</ele>
        <time>2019-05-04T12:14:17Z</time>
      </trkpt>
      <trkpt lat="39.156833" lon="-6.101350">
        <ele>1800.0</ele>
        <time>2019-05-04T12:14:18Z</time>
      </trkpt>
      <trkpt lat="39.156850" lon="-6.101283">
        <ele>1801.0</ele>
        <time>2019-05-04T12:14:19Z</time>
      </trkpt>
      <trkpt lat="39.156867" lon="-6.101200">
        <ele>1802.0</ele>
        <time>2019-05-04T12:14:20Z</time>
      </trkpt>
      <trkpt lat="39.156850" lon="-6.101100">
        <ele>1803.0</ele>
        <time>2019-05-04T12:14:21Z</time>
      </trkpt>
      <trkpt lat="39.156817" lon="-6.101000">
        <ele>1805.0</ele>
        <time>2019-05-04T12:14:22Z</time>
      </trkpt>
      <trkpt lat="39.156767" lon="-6.100933">
        <ele>1807.0</ele>
        <time>2019-05-04T12:14:23Z</time>
      </trkpt>
      <trkpt lat="39.156683" lon="-6.100867">
        <ele>1808.0</ele>
        <time>2019-05-04T12:14:24Z</time>
      </trkpt>
      <trkpt lat="39.156583" lon="-6.100817">
        <ele>1809.0</ele>
        <time>2019-05-04T12:14:25Z</time>
      </trkpt>
      <trkpt lat="39.156467" lon="-6.100783">
        <ele>1810.0</ele>
        <time>2019-05-04T12:14:26Z</time>
      </trkpt>
      <trkpt lat="39.156350" lon="-6.100800">
        <ele>1811.0</ele>
        <time>2019-05-04T12:14:27Z</time>
      </trkpt>
      <trkpt lat="39.156217" lon="-6.100833">
        <ele>1811.0</ele>
        <time>2019-05-04T12:14:28Z</time>
      </trkpt>
      <trkpt lat="39.156117" lon="-6.100917">
        <ele>1812.0</ele>
        <time>2019-05-04T12:14:29Z</time>
      </trkpt>
      <trkpt lat="39.156033" lon="-6.101033">
        <ele>1813.0</ele>
        <time>2019-05-04T12:14:30Z</time>
      </trkpt>
      <trkpt lat="39.155967" lon="-6.101150">
        <ele>1812.0</ele>
        <time>2019-05-04T12:14:31Z</time>
      </trkpt>
      <trkpt lat="39.155950" lon="-6.101283">
        <ele>1812.0</ele>
        <time>2019-05-04T12:14:32Z</time>
      </trkpt>
      <trkpt lat="39.155933" lon="-6.101417">
        <ele>1812.0</ele>
        <time>2019-05-04T12:14:33Z</time>
      </trkpt>
      <trkpt lat="39.155950" lon="-6.101533">
        <ele>1814.0</ele>
        <time>2019-05-04T12:14:34Z</time>
      </trkpt>
      <trkpt lat="39.156000" lon="-6.101617">
        <ele>1816.0</ele>
        <time>2019-05-04T12:14:35Z</time>
      </trkpt>
      <trkpt lat="39.156050" lon="-6.101683">
        <ele>1816.0</ele>
        <time>2019-05-04T12:14:36Z</time>
      </trkpt>
      <trkpt lat="39.156100" lon="-6.101733">
        <ele>1817.0</ele>
        <time>2019-05-04T12:14:37Z</time>
      </trkpt>
      <trkpt lat="39.156150" lon="-6.101767">
        <ele>1819.0</ele>
        <time>2019-05-04T12:14:38Z</time>
      </trkpt>
      <trkpt lat="39.156217" lon="-6.101783">
        <ele>1820.0</ele>
        <time>2019-05-04T12:14:39Z</time>
      </trkpt>
      <trkpt lat="39.156267" lon="-6.101783">
        <ele>1821.0</ele>
        <time>2019-05-04T12:14:40Z</time>
      </trkpt>
      <trkpt lat="39.156300" lon="-6.101750">
        <ele>1821.0</ele>
        <time>2019-05-04T12:14:41Z</time>
      </trkpt>
      <trkpt lat="39.156350" lon="-6.101683">
        <ele>1821.0</ele>
        <time>2019-05-04T12:14:42Z</time>
      </trkpt>
      <trkpt lat="39.156367" lon="-6.101617">
        <ele>1822.0</ele>
        <time>2019-05-04T12:14:43Z</time>
      </trkpt>
      <trkpt lat="39.156350" lon="-6.101550">
        <ele>1823.0</ele>
        <time>2019-05-04T12:14:44Z</time>
      </trkpt>
      <trkpt lat="39.156333" lon="-6.101483">
        <ele>1825.0</ele>
        <time>2019-05-04T12:14:45Z</time>
      </trkpt>
      <trkpt lat="39.156317" lon="-6.101417">
        <ele>1827.0</ele>
        <time>2019-05-04T12:14:46Z</time>
      </trkpt>
      <trkpt lat="39.156267" lon="-6.101350">
        <ele>1828.0</ele>
        <time>2019-05-04T12:14:47Z</time>
      </trkpt>
      <trkpt lat="39.156217" lon="-6.101267">
        <ele>1829.0</ele>
        <time>2019-05-04T12:14:48Z</time>
      </trkpt>
      <trkpt lat="39.156133" lon="-6.101217">
        <ele>1830.0</ele>
        <time>2019-05-04T12:14:49Z</time>
      </trkpt>
      <trkpt lat="39.156050" lon="-6.101183">
        <ele>1831.0</ele>
        <time>2019-05-04T12:14:50Z</time>
      </trkpt>
      <trkpt lat="39.155933" lon="-6.101200">
        <ele>1832.0</ele>
        <time>2019-05-04T12:14:51Z</time>
      </trkpt>
      <trkpt lat="39.155850" lon="-6.101250">
        <ele>1833.0</ele>
        <time>2019-05-04T12:14:52Z</time>
      </trkpt>
      <trkpt lat="39.155767" lon="-6.101300">
        <ele>1835.0</ele>
        <time>2019-05-04T12:14:53Z</time>
      </trkpt>
      <trkpt lat="39.155683" lon="-6.101333">
        <ele>1837.0</ele>
        <time>2019-05-04T12:14:54Z</time>
      </trkpt>
      <trkpt lat="39.155583" lon="-6.101383">
        <ele>1838.0</ele>
        <time>2019-05-04T12:14:55Z</time>
      </trkpt>
      <trkpt lat="39.155500" lon="-6.101450">
        <ele>1840.0</ele>
        <time>2019-05-04T12:14:56Z</time>
      </trkpt>
      <trkpt lat="39.155417" lon="-6.101533">
        <ele>1841.0</ele>
        <time>2019-05-04T12:14:57Z</time>
      </trkpt>
      <trkpt lat="39.155350" lon="-6.101633">
        <ele>1843.0</ele>
        <time>2019-05-04T12:14:58Z</time>
      </trkpt>
      <trkpt lat="39.155283" lon="-6.101750">
        <ele>1843.0</ele>
        <time>2019-05-04T12:14:59Z</time>
      </trkpt>
      <trkpt lat="39.155250" lon="-6.101883">
        <ele>1844.0</ele>
        <time>2019-05-04T12:15:00Z</time>
      </trkpt>
      <trkpt lat="39.155233" lon="-6.102000">
        <ele>1846.0</ele>
        <time>2019-05-04T12:15:01Z</time>
      </trkpt>
      <trkpt lat="39.155250" lon="-6.102117">
        <ele>1848.0</ele>
        <time>2019-05-04T12:15:02Z</time>
      </trkpt>
      <trkpt lat="39.155267" lon="-6.102217">
        <ele>1850.0</ele>
        <time>2019-05-04T12:15:03Z</time>
      </trkpt>
      <trkpt lat="39.155283" lon="-6.102317">
        <ele>1852.0</ele>
        <time>2019-05-04T12:15:04Z</time>
      </trkpt>
      <trkpt lat="39.155317" lon="-6.102400">
        <ele>1853.0</ele>
        <time>2019-05-04T12:15:05Z</time>
      </trkpt>
      <trkpt lat="39.155350" lon="-6.102483">
        <ele>1854.0</ele>
        <time>2019-05-04T12:15:06Z</time>
      </trkpt>
      <trkpt lat="39.155400" lon="-6.102550">
        <ele>1854.0</ele>
        <time>2019-05-04T12:15:07Z</time>
      </trkpt>
      <trkpt lat="39.155467" lon="-6.102583">
        <ele>1854.0</ele>
        <time>2019-05-04T12:15:08Z</time>
      </trkpt>
      <trkpt lat="39.155517" lon="-6.102567">
        <ele>1855.0</ele>
        <time>2019-05-04T12:15:09Z</time>
      </trkpt>
      <trkpt lat="39.155567" lon="-6.102533">
        <ele>1855.0</ele>
        <time>2019-05-04T12:15:10Z</time>
      </trkpt>
      <trkpt lat="39.155600" lon="-6.102500">
        <ele>1856.0</ele>
        <time>2019-05-04T12:15:11Z</time>
      </trkpt>
      <trkpt lat="39.155633" lon="-6.102450">
        <ele>1857.0</ele>
        <time>2019-05-04T12:15:12Z</time>
      </trkpt>
      <trkpt lat="39.155667" lon="-6.102400">
        <ele>1858.0</ele>
        <time>2019-05-04T12:15:13Z</time>
      </trkpt>
      <trkpt lat="39.155683" lon="-6.102333">
        <ele>1859.0</ele>
        <time>2019-05-04T12:15:14Z</time>
      </trkpt>
      <trkpt lat="39.155700" lon="-6.102250">
        <ele>1858.0</ele>
        <time>2019-05-04T12:15:15Z</time>
      </trkpt>
      <trkpt lat="39.155700" lon="-6.102150">
        <ele>1858.0</ele>
        <time>2019-05-04T12:15:16Z</time>
      </trkpt>
      <trkpt lat="39.155683" lon="-6.102050">
        <ele>1859.0</ele>
        <time>2019-05-04T12:15:17Z</time>
      </trkpt>
      <trkpt lat="39.155650" lon="-6.101967">
        <ele>1860.0</ele>
        <time>2019-05-04T12:15:18Z</time>
      </trkpt>
      <trkpt lat="39.155617" lon="-6.101883">
        <ele>1862.0</ele>
        <time>2019-05-04T12:15:19Z</time>
      </trkpt>
      <trkpt lat="39.155583" lon="-6.101817">
        <ele>1863.0</ele>
        <time>2019-05-04T12:15:20Z</time>
      </trkpt>
      <trkpt lat="39.155550" lon="-6.101750">
        <ele>1864.0</ele>
        <time>2019-05-04T12:15:21Z</time>
      </trkpt>
      <trkpt lat="39.155500" lon="-6.101667">
        <ele>1865.0</ele>
        <time>2019-05-04T12:15:22Z</time>
      </trkpt>
      <trkpt lat="39.155433" lon="-6.101600">
        <ele>1864.0</ele>
        <time>2019-05-04T12:15:23Z</time>
      </trkpt>
      <trkpt lat="39.155350" lon="-6.101533">
        <ele>1864.0</ele>
        <time>2019-05-04T12:15:24Z</time>
      </trkpt>
      <trkpt lat="39.155233" lon="-6.101500">
        <ele>1863.0</ele>
        <time>2019-05-04T12:15:25Z</time>
      </trkpt>
      <trkpt lat="39.155117" lon="-6.101500">
        <ele>1863.0</ele>
        <time>2019-05-04T12:15:26Z</time>
      </trkpt>
      <trkpt lat="39.155017" lon="-6.101517">
        <ele>1864.0</ele>
        <time>2019-05-04T12:15:27Z</time>
      </trkpt>
      <trkpt lat="39.154917" lon="-6.101533">
        <ele>1865.0</ele>
        <time>2019-05-04T12:15:28Z</time>
      </trkpt>
      <trkpt lat="39.154817" lon="-6.101550">
        <ele>1866.0</ele>
        <time>2019-05-04T12:15:29Z</time>
      </trkpt>
      <trkpt lat="39.154700" lon="-6.101567">
        <ele>1867.0</ele>
        <time>2019-05-04T12:15:30Z</time>
      </trkpt>
      <trkpt lat="39.154600" lon="-6.101617">
        <ele>1868.0</ele>
        <time>2019-05-04T12:15:31Z</time>
      </trkpt>
      <trkpt lat="39.154517" lon="-6.101700">
        <ele>1868.0</ele>
        <time>2019-05-04T12:15:32Z</time>
      </trkpt>
      <trkpt lat="39.154433" lon="-6.101800">
        <ele>1869.0</ele>
        <time>2019-05-04T12:15:33Z</time>
      </trkpt>
      <trkpt lat="39.154400" lon="-6.101900">
        <ele>1871.0</ele>
        <time>2019-05-04T12:15:34Z</time>
      </trkpt>
      <trkpt lat="39.154383" lon="-6.102000">
        <ele>1872.0</ele>
        <time>2019-05-04T12:15:35Z</time>
      </trkpt>
      <trkpt lat="39.154383" lon="-6.102117">
        <ele>1873.0</ele>
        <time>2019-05-04T12:15:36Z</time>
      </trkpt>
      <trkpt lat="39.154400" lon="-6.102217">
        <ele>1873.0</ele>
        <time>2019-05-04T12:15:37Z</time>
      </trkpt>
      <trkpt lat="39.154433" lon="-6.102300">
        <ele>1873.0</ele>
        <time>2019-05-04T12:15:38Z</time>
      </trkpt>
      <trkpt lat="39.154483" lon="-6.102367">
        <ele>1874.0</ele>
        <time>2019-05-04T12:15:39Z</time>
      </trkpt>
      <trkpt lat="39.154550" lon="-6.102383">
        <ele>1876.0</ele>
        <time>2019-05-04T12:15:40Z</time>
      </trkpt>
      <trkpt lat="39.154617" lon="-6.102367">
        <ele>1877.0</ele>
        <time>2019-05-04T12:15:41Z</time>
      </trkpt>
      <trkpt lat="39.154667" lon="-6.102333">
        <ele>1878.0</ele>
        <time>2019-05-04T12:15:42Z</time>
      </trkpt>
      <trkpt lat="39.154700" lon="-6.102267">
        <ele>1880.0</ele>
        <time>2019-05-04T12:15:43Z</time>
      </trkpt>
      <trkpt lat="39.154717" lon="-6.102200">
        <ele>1882.0</ele>
        <time>2019-05-04T12:15:44Z</time>
      </trkpt>
      <trkpt lat="39.154717" lon="-6.102117">
        <ele>1883.0</ele>
        <time>2019-05-04T12:15:45Z</time>
      </trkpt>
      <trkpt lat="39.154700" lon="-6.102017">
        <ele>1883.0</ele>
        <time>2019-05-04T12:15:46Z</time>
      </trkpt>
      <trkpt lat="39.154650" lon="-6.101900">
        <ele>1883.0</ele>
        <time>2019-05-04T12:15:47Z</time>
      </trkpt>
      <trkpt lat="39.154583" lon="-6.101817">
        <ele>1884.0</ele>
        <time>2019-05-04T12:15:48Z</time>
      </trkpt>
      <trkpt lat="39.154483" lon="-6.101733">
        <ele>1884.0</ele>
        <time>2019-05-04T12:15:49Z</time>
      </trkpt>
      <trkpt lat="39.154383" lon="-6.101683">
        <ele>1886.0</ele>
        <time>2019-05-04T12:15:50Z</time>
      </trkpt>
      <trkpt lat="39.154283" lon="-6.101667">
        <ele>1887.0</ele>
        <time>2019-05-04T12:15:51Z</time>
      </trkpt>
      <trkpt lat="39.154167" lon="-6.101683">
        <ele>1887.0</ele>
        <time>2019-05-04T12:15:52Z</time>
      </trkpt>
      <trkpt lat="39.154067" lon="-6.101733">
        <ele>1888.0</ele>
        <time>2019-05-04T12:15:53Z</time>
      </trkpt>
      <trkpt lat="39.153967" lon="-6.101817">
        <ele>1888.0</ele>
        <time>2019-05-04T12:15:54Z</time>
      </trkpt>
      <trkpt lat="39.153900" lon="-6.101917">
        <ele>1888.0</ele>
        <time>2019-05-04T12:15:55Z</time>
      </trkpt>
      <trkpt lat="39.153850" lon="-6.102017">
        <ele>1888.0</ele>
        <time>2019-05-04T12:15:56Z</time>
      </trkpt>
      <trkpt lat="39.153833" lon="-6.102133">
        <ele>1888.0</ele>
        <time>2019-05-04T12:15:57Z</time>
      </trkpt>
      <trkpt lat="39.153817" lon="-6.102233">
        <ele>1888.0</ele>
        <time>2019-05-04T12:15:58Z</time>
      </trkpt>
      <trkpt lat="39.153833" lon="-6.102333">
        <ele>1888.0</ele>
        <time>2019-05-04T12:15:59Z</time>
      </trkpt>
      <trkpt lat="39.153850" lon="-6.102417">
        <ele>1888.0</ele>
        <time>2019-05-04T12:16:00Z</time>
      </trkpt>
      <trkpt lat="39.153883" lon="-6.102483">
        <ele>1888.0</ele>
        <time>2019-05-04T12:16:01Z</time>
      </trkpt>
      <trkpt lat="39.153933" lon="-6.102533">
        <ele>1888.0</ele>
        <time>2019-05-04T12:16:02Z</time>
      </trkpt>
      <trkpt lat="39.154000" lon="-6.102533">
        <ele>1887.0</ele>
        <time>2019-05-04T12:16:03Z</time>
      </trkpt>
      <trkpt lat="39.154050" lon="-6.102533">
        <ele>1887.0</ele>
        <time>2019-05-04T12:16:04Z</time>
      </trkpt>
      <trkpt lat="39.154100" lon="-6.102517">
        <ele>1888.0</ele>
        <time>2019-05-04T12:16:05Z</time>
      </trkpt>
      <trkpt lat="39.154150" lon="-6.102500">
        <ele>1890.0</ele>
        <time>2019-05-04T12:16:06Z</time>
      </trkpt>
      <trkpt lat="39.154200" lon="-6.102483">
        <ele>1891.0</ele>
        <time>2019-05-04T12:16:07Z</time>
      </trkpt>
      <trkpt lat="39.154250" lon="-6.102433">
        <ele>1891.0</ele>
        <time>2019-05-04T12:16:08Z</time>
      </trkpt>
      <trkpt lat="39.154283" lon="-6.102367">
        <ele>1891.0</ele>
        <time>2019-05-04T12:16:09Z</time>
      </trkpt>
      <trkpt lat="39.154300" lon="-6.102283">
        <ele>1891.0</ele>
        <time>2019-05-04T12:16:10Z</time>
      </trkpt>
      <trkpt lat="39.154283" lon="-6.102183">
        <ele>1892.0</ele>
        <time>2019-05-04T12:16:11Z</time>
      </trkpt>
      <trkpt lat="39.154267" lon="-6.102100">
        <ele>1892.0</ele>
        <time>2019-05-04T12:16:12Z</time>
      </trkpt>
      <trkpt lat="39.154217" lon="-6.102000">
        <ele>1892.0</ele>
        <time>2019-05-04T12:16:13Z</time>
      </trkpt>
      <trkpt lat="39.154150" lon="-6.101933">
        <ele>1892.0</ele>
        <time>2019-05-04T12:16:14Z</time>
      </trkpt>
      <trkpt lat="39.154050" lon="-6.101867">
        <ele>1892.0</ele>
        <time>2019-05-04T12:16:15Z</time>
      </trkpt>
      <trkpt lat="39.153950" lon="-6.101817">
        <ele>1891.0</ele>
        <time>2019-05-04T12:16:16Z</time>
      </trkpt>
      <trkpt lat="39.153833" lon="-6.101783">
        <ele>1890.0</ele>
        <time>2019-05-04T12:16:17Z</time>
      </trkpt>
      <trkpt lat="39.153717" lon="-6.101800">
        <ele>1890.0</ele>
        <time>2019-05-04T12:16:18Z</time>
      </trkpt>
      <trkpt lat="39.153600" lon="-6.101850">
        <ele>1889.0</ele>
        <time>2019-05-04T12:16:19Z</time>
      </trkpt>
      <trkpt lat="39.153500" lon="-6.101917">
        <ele>1888.0</ele>
        <time>2019-05-04T12:16:20Z</time>
      </trkpt>
      <trkpt lat="39.153417" lon="-6.102000">
        <ele>1889.0</ele>
        <time>2019-05-04T12:16:21Z</time>
      </trkpt>
      <trkpt lat="39.153350" lon="-6.102083">
        <ele>1890.0</ele>
        <time>2019-05-04T12:16:22Z</time>
      </trkpt>
      <trkpt lat="39.153283" lon="-6.102183">
        <ele>1890.0</ele>
        <time>2019-05-04T12:16:23Z</time>
      </trkpt>
      <trkpt lat="39.153233" lon="-6.102300">
        <ele>1889.0</ele>
        <time>2019-05-04T12:16:24Z</time>
      </trkpt>
      <trkpt lat="39.153183" lon="-6.102400">
        <ele>1889.0</ele>
        <time>2019-05-04T12:16:25Z</time>
      </trkpt>
      <trkpt lat="39.153133" lon="-6.102500">
        <ele>1889.0</ele>
        <time>2019-05-04T12:16:26Z</time>
      </trkpt>
      <trkpt lat="39.153067" lon="-6.102600">
        <ele>1889.0</ele>
        <time>2019-05-04T12:16:27Z</time>
      </trkpt>
      <trkpt lat="39.153017" lon="-6.102683">
        <ele>1889.0</ele>
        <time>2019-05-04T12:16:28Z</time>
      </trkpt>
      <trkpt lat="39.152967" lon="-6.102767">
        <ele>1889.0</ele>
        <time>2019-05-04T12:16:29Z</time>
      </trkpt>
      <trkpt lat="39.152900" lon="-6.102867">
        <ele>1888.0</ele>
        <time>2019-05-04T12:16:30Z</time>
      </trkpt>
      <trkpt lat="39.152850" lon="-6.102967">
        <ele>1886.0</ele>
        <time>2019-05-04T12:16:31Z</time>
      </trkpt>
      <trkpt lat="39.152800" lon="-6.103067">
        <ele>1885.0</ele>
        <time>2019-05-04T12:16:32Z</time>
      </trkpt>
      <trkpt lat="39.152750" lon="-6.103183">
        <ele>1885.0</ele>
        <time>2019-05-04T12:16:33Z</time>
      </trkpt>
      <trkpt lat="39.152700" lon="-6.103283">
        <ele>1885.0</ele>
        <time>2019-05-04T12:16:34Z</time>
      </trkpt>
      <trkpt lat="39.152633" lon="-6.103367">
        <ele>1886.0</ele>
        <time>2019-05-04T12:16:35Z</time>
      </trkpt>
      <trkpt lat="39.152567" lon="-6.103450">
        <ele>1887.0</ele>
        <time>2019-05-04T12:16:36Z</time>
      </trkpt>
      <trkpt lat="39.152500" lon="-6.103533">
        <ele>1887.0</ele>
        <time>2019-05-04T12:16:37Z</time>
      </trkpt>
      <trkpt lat="39.152433" lon="-6.103633">
        <ele>1887.0</ele>
        <time>2019-05-04T12:16:38Z</time>
      </trkpt>
      <trkpt lat="39.152400" lon="-6.103733">
        <ele>1886.0</ele>
        <time>2019-05-04T12:16:39Z</time>
      </trkpt>
      <trkpt lat="39.152367" lon="-6.103833">
        <ele>1885.0</ele>
        <time>2019-05-04T12:16:40Z</time>
      </trkpt>
      <trkpt lat="39.152350" lon="-6.103933">
        <ele>1884.0</ele>
        <time>2019-05-04T12:16:41Z</time>
      </trkpt>
      <trkpt lat="39.152383" lon="-6.104017">
        <ele>1882.0</ele>
        <time>2019-05-04T12:16:42Z</time>
      </trkpt>
      <trkpt lat="39.152417" lon="-6.104100">
        <ele>1881.0</ele>
        <time>2019-05-04T12:16:43Z</time>
      </trkpt>
      <trkpt lat="39.152450" lon="-6.104133">
        <ele>1881.0</ele>
        <time>2019-05-04T12:16:44Z</time>
      </trkpt>
      <trkpt lat="39.152500" lon="-6.104150">
        <ele>1880.0</ele>
        <time>2019-05-04T12:16:45Z</time>
      </trkpt>
      <trkpt lat="39.152550" lon="-6.104133">
        <ele>1879.0</ele>
        <time>2019-05-04T12:16:46Z</time>
      </trkpt>
      <trkpt lat="39.152583" lon="-6.104150">
        <ele>1879.0</ele>
        <time>2019-05-04T12:16:47Z</time>
      </trkpt>
      <trkpt lat="39.152633" lon="-6.104167">
        <ele>1879.0</ele>
        <time>2019-05-04T12:16:48Z</time>
      </trkpt>
      <trkpt lat="39.152683" lon="-6.104183">
        <ele>1880.0</ele>
        <time>2019-05-04T12:16:49Z</time>
      </trkpt>
      <trkpt lat="39.152717" lon="-6.104183">
        <ele>1881.0</ele>
        <time>2019-05-04T12:16:50Z</time>
      </trkpt>
      <trkpt lat="39.152767" lon="-6.104167">
        <ele>1881.0</ele>
        <time>2019-05-04T12:16:51Z</time>
      </trkpt>
      <trkpt lat="39.152800" lon="-6.104133">
        <ele>1881.0</ele>
        <time>2019-05-04T12:16:52Z</time>
      </trkpt>
      <trkpt lat="39.152850" lon="-6.104083">
        <ele>1881.0</ele>
        <time>2019-05-04T12:16:53Z</time>
      </trkpt>
      <trkpt lat="39.152883" lon="-6.104017">
        <ele>1881.0</ele>
        <time>2019-05-04T12:16:54Z</time>
      </trkpt>
      <trkpt lat="39.152917" lon="-6.103950">
        <ele>1882.0</ele>
        <time>2019-05-04T12:16:55Z</time>
      </trkpt>
      <trkpt lat="39.152933" lon="-6.103867">
        <ele>1882.0</ele>
        <time>2019-05-04T12:16:56Z</time>
      </trkpt>
      <trkpt lat="39.152933" lon="-6.103783">
        <ele>1882.0</ele>
        <time>2019-05-04T12:16:57Z</time>
      </trkpt>
      <trkpt lat="39.152917" lon="-6.103683">
        <ele>1882.0</ele>
        <time>2019-05-04T12:16:58Z</time>
      </trkpt>
      <trkpt lat="39.152900" lon="-6.103583">
        <ele>1881.0</ele>
        <time>2019-05-04T12:16:59Z</time>
      </trkpt>
      <trkpt lat="39.152867" lon="-6.103483">
        <ele>1880.0</ele>
        <time>2019-05-04T12:17:00Z</time>
      </trkpt>
      <trkpt lat="39.152833" lon="-6.103383">
        <ele>1880.0</ele>
        <time>2019-05-04T12:17:01Z</time>
      </trkpt>
      <trkpt lat="39.152800" lon="-6.103267">
        <ele>1878.0</ele>
        <time>2019-05-04T12:17:02Z</time>
      </trkpt>
      <trkpt lat="39.152767" lon="-6.103167">
        <ele>1877.0</ele>
        <time>2019-05-04T12:17:03Z</time>
      </trkpt>
      <trkpt lat="39.152733" lon="-6.103067">
        <ele>1876.0</ele>
        <time>2019-05-04T12:17:04Z</time>
      </trkpt>
      <trkpt lat="39.152700" lon="-6.102950">
        <ele>1875.0</ele>
        <time>2019-05-04T12:17:05Z</time>
      </trkpt>
      <trkpt lat="39.152650" lon="-6.102867">
        <ele>1875.0</ele>
        <time>2019-05-04T12:17:06Z</time>
      </trkpt>
      <trkpt lat="39.152600" lon="-6.102767">
        <ele>1874.0</ele>
        <time>2019-05-04T12:17:07Z</time>
      </trkpt>
      <trkpt lat="39.152550" lon="-6.102683">
        <ele>1873.0</ele>
        <time>2019-05-04T12:17:08Z</time>
      </trkpt>
      <trkpt lat="39.152500" lon="-6.102600">
        <ele>1872.0</ele>
        <time>2019-05-04T12:17:09Z</time>
      </trkpt>
      <trkpt lat="39.152467" lon="-6.102517">
        <ele>1870.0</ele>
        <time>2019-05-04T12:17:10Z</time>
      </trkpt>
      <trkpt lat="39.152417" lon="-6.102417">
        <ele>1869.0</ele>
        <time>2019-05-04T12:17:11Z</time>
      </trkpt>
      <trkpt lat="39.152367" lon="-6.102317">
        <ele>1867.0</ele>
        <time>2019-05-04T12:17:12Z</time>
      </trkpt>
      <trkpt lat="39.152317" lon="-6.102217">
        <ele>1865.0</ele>
        <time>2019-05-04T12:17:13Z</time>
      </trkpt>
      <trkpt lat="39.152250" lon="-6.102133">
        <ele>1864.0</ele>
        <time>2019-05-04T12:17:14Z</time>
      </trkpt>
      <trkpt lat="39.152183" lon="-6.102050">
        <ele>1863.0</ele>
        <time>2019-05-04T12:17:15Z</time>
      </trkpt>
      <trkpt lat="39.152117" lon="-6.101967">
        <ele>1862.0</ele>
        <time>2019-05-04T12:17:16Z</time>
      </trkpt>
      <trkpt lat="39.152050" lon="-6.101883">
        <ele>1860.0</ele>
        <time>2019-05-04T12:17:17Z</time>
      </trkpt>
      <trkpt lat="39.151983" lon="-6.101800">
        <ele>1858.0</ele>
        <time>2019-05-04T12:17:18Z</time>
      </trkpt>
      <trkpt lat="39.151917" lon="-6.101717">
        <ele>1856.0</ele>
        <time>2019-05-04T12:17:19Z</time>
      </trkpt>
      <trkpt lat="39.151833" lon="-6.101633">
        <ele>1854.0</ele>
        <time>2019-05-04T12:17:20Z</time>
      </trkpt>
      <trkpt lat="39.151733" lon="-6.101550">
        <ele>1853.0</ele>
        <time>2019-05-04T12:17:21Z</time>
      </trkpt>
      <trkpt lat="39.151650" lon="-6.101467">
        <ele>1851.0</ele>
        <time>2019-05-04T12:17:22Z</time>
      </trkpt>
      <trkpt lat="39.151567" lon="-6.101383">
        <ele>1849.0</ele>
        <time>2019-05-04T12:17:23Z</time>
      </trkpt>
      <trkpt lat="39.151483" lon="-6.101317">
        <ele>1847.0</ele>
        <time>2019-05-04T12:17:24Z</time>
      </trkpt>
      <trkpt lat="39.151383" lon="-6.101250">
        <ele>1844.0</ele>
        <time>2019-05-04T12:17:25Z</time>
      </trkpt>
      <trkpt lat="39.151283" lon="-6.101183">
        <ele>1841.0</ele>
        <time>2019-05-04T12:17:26Z</time>
      </trkpt>
      <trkpt lat="39.151183" lon="-6.101133">
        <ele>1838.0</ele>
        <time>2019-05-04T12:17:27Z</time>
      </trkpt>
      <trkpt lat="39.151083" lon="-6.101067">
        <ele>1835.0</ele>
        <time>2019-05-04T12:17:28Z</time>
      </trkpt>
      <trkpt lat="39.151000" lon="-6.101017">
        <ele>1833.0</ele>
        <time>2019-05-04T12:17:29Z</time>
      </trkpt>
      <trkpt lat="39.150900" lon="-6.100950">
        <ele>1831.0</ele>
        <time>2019-05-04T12:17:30Z</time>
      </trkpt>
      <trkpt lat="39.150817" lon="-6.100883">
        <ele>1828.0</ele>
        <time>2019-05-04T12:17:31Z</time>
      </trkpt>
      <trkpt lat="39.150717" lon="-6.100817">
        <ele>1825.0</ele>
        <time>2019-05-04T12:17:32Z</time>
      </trkpt>
      <trkpt lat="39.150617" lon="-6.100767">
        <ele>1822.0</ele>
        <time>2019-05-04T12:17:33Z</time>
      </trkpt>
      <trkpt lat="39.150517" lon="-6.100700">
        <ele>1818.0</ele>
        <time>2019-05-04T12:17:34Z</time>
      </trkpt>
      <trkpt lat="39.150417" lon="-6.100667">
        <ele>1815.0</ele>
        <time>2019-05-04T12:17:35Z</time>
      </trkpt>
      <trkpt lat="39.150317" lon="-6.100617">
        <ele>1813.0</ele>
        <time>2019-05-04T12:17:36Z</time>
      </trkpt>
      <trkpt lat="39.150217" lon="-6.100567">
        <ele>1810.0</ele>
        <time>2019-05-04T12:17:37Z</time>
      </trkpt>
      <trkpt lat="39.150100" lon="-6.100533">
        <ele>1807.0</ele>
        <time>2019-05-04T12:17:38Z</time>
      </trkpt>
      <trkpt lat="39.150000" lon="-6.100500">
        <ele>1803.0</ele>
        <time>2019-05-04T12:17:39Z</time>
      </trkpt>
      <trkpt lat="39.149883" lon="-6.100467">
        <ele>1800.0</ele>
        <time>2019-05-04T12:17:40Z</time>
      </trkpt>
      <trkpt lat="39.149783" lon="-6.100417">
        <ele>1797.0</ele>
        <time>2019-05-04T12:17:41Z</time>
      </trkpt>
      <trkpt lat="39.149667" lon="-6.100383">
        <ele>1794.0</ele>
        <time>2019-05-04T12:17:42Z</time>
      </trkpt>
      <trkpt lat="39.149567" lon="-6.100350">
        <ele>1792.0</ele>
        <time>2019-05-04T12:17:43Z</time>
      </trkpt>
      <trkpt lat="39.149450" lon="-6.100317">
        <ele>1789.0</ele>
        <time>2019-05-04T12:17:44Z</time>
      </trkpt>
      <trkpt lat="39.149333" lon="-6.100300">
        <ele>1787.0</ele>
        <time>2019-05-04T12:17:45Z</time>
      </trkpt>
      <trkpt lat="39.149233" lon="-6.100267">
        <ele>1786.0</ele>
        <time>2019-05-04T12:17:46Z</time>
      </trkpt>
      <trkpt lat="39.149133" lon="-6.100217">
        <ele>1784.0</ele>
        <time>2019-05-04T12:17:47Z</time>
      </trkpt>
      <trkpt lat="39.149017" lon="-6.100167">
        <ele>1781.0</ele>
        <time>2019-05-04T12:17:48Z</time>
      </trkpt>
      <trkpt lat="39.148917" lon="-6.100133">
        <ele>1779.0</ele>
        <time>2019-05-04T12:17:49Z</time>
      </trkpt>
      <trkpt lat="39.148817" lon="-6.100083">
        <ele>1776.0</ele>
        <time>2019-05-04T12:17:50Z</time>
      </trkpt>
      <trkpt lat="39.148700" lon="-6.100033">
        <ele>1774.0</ele>
        <time>2019-05-04T12:17:51Z</time>
      </trkpt>
      <trkpt lat="39.148600" lon="-6.099967">
        <ele>1771.0</ele>
        <time>2019-05-04T12:17:52Z</time>
      </trkpt>
      <trkpt lat="39.148500" lon="-6.099900">
        <ele>1768.0</ele>
        <time>2019-05-04T12:17:53Z</time>
      </trkpt>
      <trkpt lat="39.148383" lon="-6.099833">
        <ele>1765.0</ele>
        <time>2019-05-04T12:17:54Z</time>
      </trkpt>
      <trkpt lat="39.148283" lon="-6.099767">
        <ele>1762.0</ele>
        <time>2019-05-04T12:17:55Z</time>
      </trkpt>
      <trkpt lat="39.148167" lon="-6.099717">
        <ele>1760.0</ele>
        <time>2019-05-04T12:17:56Z</time>
      </trkpt>
      <trkpt lat="39.148050" lon="-6.099667">
        <ele>1757.0</ele>
        <time>2019-05-04T12:17:57Z</time>
      </trkpt>
      <trkpt lat="39.147950" lon="-6.099617">
        <ele>1755.0</ele>
        <time>2019-05-04T12:17:58Z</time>
      </trkpt>
      <trkpt lat="39.147833" lon="-6.099567">
        <ele>1752.0</ele>
        <time>2019-05-04T12:17:59Z</time>
      </trkpt>
      <trkpt lat="39.147733" lon="-6.099517">
        <ele>1749.0</ele>
        <time>2019-05-04T12:18:00Z</time>
      </trkpt>
      <trkpt lat="39.147617" lon="-6.099500">
        <ele>1745.0</ele>
        <time>2019-05-04T12:18:01Z</time>
      </trkpt>
      <trkpt lat="39.147517" lon="-6.099467">
        <ele>1741.0</ele>
        <time>2019-05-04T12:18:02Z</time>
      </trkpt>
      <trkpt lat="39.147400" lon="-6.099450">
        <ele>1737.0</ele>
        <time>2019-05-04T12:18:03Z</time>
      </trkpt>
      <trkpt lat="39.147283" lon="-6.099417">
        <ele>1734.0</ele>
        <time>2019-05-04T12:18:04Z</time>
      </trkpt>
      <trkpt lat="39.147200" lon="-6.099400">
        <ele>1732.0</ele>
        <time>2019-05-04T12:18:05Z</time>
      </trkpt>
      <trkpt lat="39.147100" lon="-6.099367">
        <ele>1729.0</ele>
        <time>2019-05-04T12:18:06Z</time>
      </trkpt>
      <trkpt lat="39.147000" lon="-6.099333">
        <ele>1727.0</ele>
        <time>2019-05-04T12:18:07Z</time>
      </trkpt>
      <trkpt lat="39.146900" lon="-6.099317">
        <ele>1723.0</ele>
        <time>2019-05-04T12:18:08Z</time>
      </trkpt>
      <trkpt lat="39.146783" lon="-6.099300">
        <ele>1719.0</ele>
        <time>2019-05-04T12:18:09Z</time>
      </trkpt>
      <trkpt lat="39.146683" lon="-6.099283">
        <ele>1715.0</ele>
        <time>2019-05-04T12:18:10Z</time>
      </trkpt>
      <trkpt lat="39.146567" lon="-6.099267">
        <ele>1711.0</ele>
        <time>2019-05-04T12:18:11Z</time>
      </trkpt>
      <trkpt lat="39.146467" lon="-6.099250">
        <ele>1709.0</ele>
        <time>2019-05-04T12:18:12Z</time>
      </trkpt>
      <trkpt lat="39.146367" lon="-6.099217">
        <ele>1707.0</ele>
        <time>2019-05-04T12:18:13Z</time>
      </trkpt>
      <trkpt lat="39.146283" lon="-6.099200">
        <ele>1706.0</ele>
        <time>2019-05-04T12:18:14Z</time>
      </trkpt>
      <trkpt lat="39.146200" lon="-6.099183">
        <ele>1705.0</ele>
        <time>2019-05-04T12:18:15Z</time>
      </trkpt>
      <trkpt lat="39.146117" lon="-6.099167">
        <ele>1702.0</ele>
        <time>2019-05-04T12:18:16Z</time>
      </trkpt>
      <trkpt lat="39.146017" lon="-6.099150">
        <ele>1699.0</ele>
        <time>2019-05-04T12:18:17Z</time>
      </trkpt>
      <trkpt lat="39.145900" lon="-6.099150">
        <ele>1696.0</ele>
        <time>2019-05-04T12:18:18Z</time>
      </trkpt>
      <trkpt lat="39.145817" lon="-6.099133">
        <ele>1693.0</ele>
        <time>2019-05-04T12:18:19Z</time>
      </trkpt>
      <trkpt lat="39.145733" lon="-6.099133">
        <ele>1692.0</ele>
        <time>2019-05-04T12:18:20Z</time>
      </trkpt>
      <trkpt lat="39.145650" lon="-6.099133">
        <ele>1689.0</ele>
        <time>2019-05-04T12:18:21Z</time>
      </trkpt>
      <trkpt lat="39.145567" lon="-6.099150">
        <ele>1686.0</ele>
        <time>2019-05-04T12:18:22Z</time>
      </trkpt>
      <trkpt lat="39.145467" lon="-6.099167">
        <ele>1682.0</ele>
        <time>2019-05-04T12:18:23Z</time>
      </trkpt>
      <trkpt lat="39.145367" lon="-6.099183">
        <ele>1678.0</ele>
        <time>2019-05-04T12:18:24Z</time>
      </trkpt>
      <trkpt lat="39.145267" lon="-6.099200">
        <ele>1675.0</ele>
        <time>2019-05-04T12:18:25Z</time>
      </trkpt>
      <trkpt lat="39.145167" lon="-6.099217">
        <ele>1672.0</ele>
        <time>2019-05-04T12:18:26Z</time>
      </trkpt>
      <trkpt lat="39.145100" lon="-6.099250">
        <ele>1671.0</ele>
        <time>2019-05-04T12:18:27Z</time>
      </trkpt>
      <trkpt lat="39.145033" lon="-6.099267">
        <ele>1669.0</ele>
        <time>2019-05-04T12:18:28Z</time>
      </trkpt>
      <trkpt lat="39.144950" lon="-6.099300">
        <ele>1666.0</ele>
        <time>2019-05-04T12:18:29Z</time>
      </trkpt>
      <trkpt lat="39.144867" lon="-6.099317">
        <ele>1663.0</ele>
        <time>2019-05-04T12:18:30Z</time>
      </trkpt>
      <trkpt lat="39.144783" lon="-6.099350">
        <ele>1660.0</ele>
        <time>2019-05-04T12:18:31Z</time>
      </trkpt>
      <trkpt lat="39.144700" lon="-6.099400">
        <ele>1656.0</ele>
        <time>2019-05-04T12:18:32Z</time>
      </trkpt>
      <trkpt lat="39.144617" lon="-6.099433">
        <ele>1654.0</ele>
        <time>2019-05-04T12:18:33Z</time>
      </trkpt>
      <trkpt lat="39.144567" lon="-6.099467">
        <ele>1652.0</ele>
        <time>2019-05-04T12:18:34Z</time>
      </trkpt>
      <trkpt lat="39.144500" lon="-6.099483">
        <ele>1649.0</ele>
        <time>2019-05-04T12:18:35Z</time>
      </trkpt>
      <trkpt lat="39.144417" lon="-6.099517">
        <ele>1645.0</ele>
        <time>2019-05-04T12:18:36Z</time>
      </trkpt>
      <trkpt lat="39.144317" lon="-6.099533">
        <ele>1642.0</ele>
        <time>2019-05-04T12:18:37Z</time>
      </trkpt>
      <trkpt lat="39.144233" lon="-6.099550">
        <ele>1637.0</ele>
        <time>2019-05-04T12:18:38Z</time>
      </trkpt>
      <trkpt lat="39.144133" lon="-6.099583">
        <ele>1631.0</ele>
        <time>2019-05-04T12:18:39Z</time>
      </trkpt>
      <trkpt lat="39.144050" lon="-6.099600">
        <ele>1627.0</ele>
        <time>2019-05-04T12:18:40Z</time>
      </trkpt>
      <trkpt lat="39.143967" lon="-6.099617">
        <ele>1624.0</ele>
        <time>2019-05-04T12:18:41Z</time>
      </trkpt>
      <trkpt lat="39.143900" lon="-6.099633">
        <ele>1621.0</ele>
        <time>2019-05-04T12:18:42Z</time>
      </trkpt>
      <trkpt lat="39.143817" lon="-6.099667">
        <ele>1617.0</ele>
        <time>2019-05-04T12:18:43Z</time>
      </trkpt>
      <trkpt lat="39.143733" lon="-6.099683">
        <ele>1613.0</ele>
        <time>2019-05-04T12:18:44Z</time>
      </trkpt>
      <trkpt lat="39.143650" lon="-6.099717">
        <ele>1609.0</ele>
        <time>2019-05-04T12:18:45Z</time>
      </trkpt>
      <trkpt lat="39.143583" lon="-6.099733">
        <ele>1607.0</ele>
        <time>2019-05-04T12:18:46Z</time>
      </trkpt>
      <trkpt lat="39.143517" lon="-6.099750">
        <ele>1604.0</ele>
        <time>2019-05-04T12:18:47Z</time>
      </trkpt>
      <trkpt lat="39.143450" lon="-6.099783">
        <ele>1601.0</ele>
        <time>2019-05-04T12:18:48Z</time>
      </trkpt>
      <trkpt lat="39.143383" lon="-6.099800">
        <ele>1598.0</ele>
        <time>2019-05-04T12:18:49Z</time>
      </trkpt>
      <trkpt lat="39.143317" lon="-6.099850">
        <ele>1594.0</ele>
        <time>2019-05-04T12:18:50Z</time>
      </trkpt>
      <trkpt lat="39.143233" lon="-6.099900">
        <ele>1591.0</ele>
        <time>2019-05-04T12:18:51Z</time>
      </trkpt>
      <trkpt lat="39.143167" lon="-6.099933">
        <ele>1589.0</ele>
        <time>2019-05-04T12:18:52Z</time>
      </trkpt>
      <trkpt lat="39.143100" lon="-6.099967">
        <ele>1589.0</ele>
        <time>2019-05-04T12:18:53Z</time>
      </trkpt>
      <trkpt lat="39.143050" lon="-6.100000">
        <ele>1589.0</ele>
        <time>2019-05-04T12:18:54Z</time>
      </trkpt>
      <trkpt lat="39.142983" lon="-6.100033">
        <ele>1588.0</ele>
        <time>2019-05-04T12:18:55Z</time>
      </trkpt>
      <trkpt lat="39.142900" lon="-6.100067">
        <ele>1587.0</ele>
        <time>2019-05-04T12:18:56Z</time>
      </trkpt>
      <trkpt lat="39.142833" lon="-6.100100">
        <ele>1587.0</ele>
        <time>2019-05-04T12:18:57Z</time>
      </trkpt>
      <trkpt lat="39.142783" lon="-6.100133">
        <ele>1588.0</ele>
        <time>2019-05-04T12:18:58Z</time>
      </trkpt>
      <trkpt lat="39.142750" lon="-6.100167">
        <ele>1591.0</ele>
        <time>2019-05-04T12:18:59Z</time>
      </trkpt>
      <trkpt lat="39.142717" lon="-6.100200">
        <ele>1593.0</ele>
        <time>2019-05-04T12:19:00Z</time>
      </trkpt>
      <trkpt lat="39.142700" lon="-6.100250">
        <ele>1593.0</ele>
        <time>2019-05-04T12:19:01Z</time>
      </trkpt>
      <trkpt lat="39.142650" lon="-6.100300">
        <ele>1591.0</ele>
        <time>2019-05-04T12:19:02Z</time>
      </trkpt>
      <trkpt lat="39.142617" lon="-6.100367">
        <ele>1589.0</ele>
        <time>2019-05-04T12:19:03Z</time>
      </trkpt>
      <trkpt lat="39.142583" lon="-6.100433">
        <ele>1588.0</ele>
        <time>2019-05-04T12:19:04Z</time>
      </trkpt>
      <trkpt lat="39.142533" lon="-6.100483">
        <ele>1586.0</ele>
        <time>2019-05-04T12:19:05Z</time>
      </trkpt>
      <trkpt lat="39.142483" lon="-6.100533">
        <ele>1584.0</ele>
        <time>2019-05-04T12:19:06Z</time>
      </trkpt>
      <trkpt lat="39.142433" lon="-6.100567">
        <ele>1582.0</ele>
        <time>2019-05-04T12:19:07Z</time>
      </trkpt>
      <trkpt lat="39.142350" lon="-6.100617">
        <ele>1580.0</ele>
        <time>2019-05-04T12:19:08Z</time>
      </trkpt>
      <trkpt lat="39.142283" lon="-6.100683">
        <ele>1578.0</ele>
        <time>2019-05-04T12:19:09Z</time>
      </trkpt>
      <trkpt lat="39.142233" lon="-6.100750">
        <ele>1578.0</ele>
        <time>2019-05-04T12:19:10Z</time>
      </trkpt>
      <trkpt lat="39.142183" lon="-6.100817">
        <ele>1579.0</ele>
        <time>2019-05-04T12:19:11Z</time>
      </trkpt>
      <trkpt lat="39.142133" lon="-6.100867">
        <ele>1579.0</ele>
        <time>2019-05-04T12:19:12Z</time>
      </trkpt>
      <trkpt lat="39.142083" lon="-6.100917">
        <ele>1580.0</ele>
        <time>2019-05-04T12:19:13Z</time>
      </trkpt>
      <trkpt lat="39.142033" lon="-6.100967">
        <ele>1579.0</ele>
        <time>2019-05-04T12:19:14Z</time>
      </trkpt>
      <trkpt lat="39.141983" lon="-6.101033">
        <ele>1579.0</ele>
        <time>2019-05-04T12:19:15Z</time>
      </trkpt>
      <trkpt lat="39.141933" lon="-6.101100">
        <ele>1579.0</ele>
        <time>2019-05-04T12:19:16Z</time>
      </trkpt>
      <trkpt lat="39.141867" lon="-6.101167">
        <ele>1579.0</ele>
        <time>2019-05-04T12:19:17Z</time>
      </trkpt>
      <trkpt lat="39.141817" lon="-6.101233">
        <ele>1580.0</ele>
        <time>2019-05-04T12:19:18Z</time>
      </trkpt>
      <trkpt lat="39.141767" lon="-6.101283">
        <ele>1581.0</ele>
        <time>2019-05-04T12:19:19Z</time>
      </trkpt>
      <trkpt lat="39.141700" lon="-6.101333">
        <ele>1581.0</ele>
        <time>2019-05-04T12:19:20Z</time>
      </trkpt>
      <trkpt lat="39.141650" lon="-6.101400">
        <ele>1581.0</ele>
        <time>2019-05-04T12:19:21Z</time>
      </trkpt>
      <trkpt lat="39.141583" lon="-6.101467">
        <ele>1581.0</ele>
        <time>2019-05-04T12:19:22Z</time>
      </trkpt>
      <trkpt lat="39.141517" lon="-6.101533">
        <ele>1581.0</ele>
        <time>2019-05-04T12:19:23Z</time>
      </trkpt>
      <trkpt lat="39.141450" lon="-6.101583">
        <ele>1582.0</ele>
        <time>2019-05-04T12:19:24Z</time>
      </trkpt>
      <trkpt lat="39.141400" lon="-6.101633">
        <ele>1583.0</ele>
        <time>2019-05-04T12:19:25Z</time>
      </trkpt>
      <trkpt lat="39.141350" lon="-6.101667">
        <ele>1584.0</ele>
        <time>2019-05-04T12:19:26Z</time>
      </trkpt>
      <trkpt lat="39.141300" lon="-6.101717">
        <ele>1584.0</ele>
        <time>2019-05-04T12:19:27Z</time>
      </trkpt>
      <trkpt lat="39.141233" lon="-6.101767">
        <ele>1584.0</ele>
        <time>2019-05-04T12:19:28Z</time>
      </trkpt>
      <trkpt lat="39.141167" lon="-6.101833">
        <ele>1583.0</ele>
        <time>2019-05-04T12:19:29Z</time>
      </trkpt>
      <trkpt lat="39.141100" lon="-6.101883">
        <ele>1584.0</ele>
        <time>2019-05-04T12:19:30Z</time>
      </trkpt>
      <trkpt lat="39.141050" lon="-6.101917">
        <ele>1585.0</ele>
        <time>2019-05-04T12:19:31Z</time>
      </trkpt>
      <trkpt lat="39.140983" lon="-6.101933">
        <ele>1586.0</ele>
        <time>2019-05-04T12:19:32Z</time>
      </trkpt>
      <trkpt lat="39.140933" lon="-6.101967">
        <ele>1587.0</ele>
        <time>2019-05-04T12:19:33Z</time>
      </trkpt>
      <trkpt lat="39.140867" lon="-6.102000">
        <ele>1587.0</ele>
        <time>2019-05-04T12:19:34Z</time>
      </trkpt>
      <trkpt lat="39.140817" lon="-6.102067">
        <ele>1586.0</ele>
        <time>2019-05-04T12:19:35Z</time>
      </trkpt>
      <trkpt lat="39.140750" lon="-6.102117">
        <ele>1585.0</ele>
        <time>2019-05-04T12:19:36Z</time>
      </trkpt>
      <trkpt lat="39.140700" lon="-6.102167">
        <ele>1587.0</ele>
        <time>2019-05-04T12:19:37Z</time>
      </trkpt>
      <trkpt lat="39.140667" lon="-6.102200">
        <ele>1588.0</ele>
        <time>2019-05-04T12:19:38Z</time>
      </trkpt>
      <trkpt lat="39.140633" lon="-6.102217">
        <ele>1589.0</ele>
        <time>2019-05-04T12:19:39Z</time>
      </trkpt>
      <trkpt lat="39.140600" lon="-6.102250">
        <ele>1590.0</ele>
        <time>2019-05-04T12:19:40Z</time>
      </trkpt>
      <trkpt lat="39.140550" lon="-6.102283">
        <ele>1589.0</ele>
        <time>2019-05-04T12:19:41Z</time>
      </trkpt>
      <trkpt lat="39.140500" lon="-6.102350">
        <ele>1588.0</ele>
        <time>2019-05-04T12:19:42Z</time>
      </trkpt>
      <trkpt lat="39.140450" lon="-6.102417">
        <ele>1588.0</ele>
        <time>2019-05-04T12:19:43Z</time>
      </trkpt>
      <trkpt lat="39.140400" lon="-6.102450">
        <ele>1590.0</ele>
        <time>2019-05-04T12:19:44Z</time>
      </trkpt>
      <trkpt lat="39.140367" lon="-6.102500">
        <ele>1592.0</ele>
        <time>2019-05-04T12:19:45Z</time>
      </trkpt>
      <trkpt lat="39.140317" lon="-6.102550">
        <ele>1593.0</ele>
        <time>2019-05-04T12:19:46Z</time>
      </trkpt>
      <trkpt lat="39.140267" lon="-6.102600">
        <ele>1594.0</ele>
        <time>2019-05-04T12:19:47Z</time>
      </trkpt>
      <trkpt lat="39.140233" lon="-6.102667">
        <ele>1594.0</ele>
        <time>2019-05-04T12:19:48Z</time>
      </trkpt>
      <trkpt lat="39.140200" lon="-6.102717">
        <ele>1595.0</ele>
        <time>2019-05-04T12:19:49Z</time>
      </trkpt>
      <trkpt lat="39.140167" lon="-6.102767">
        <ele>1596.0</ele>
        <time>2019-05-04T12:19:50Z</time>
      </trkpt>
      <trkpt lat="39.140133" lon="-6.102833">
        <ele>1593.0</ele>
        <time>2019-05-04T12:19:51Z</time>
      </trkpt>
      <trkpt lat="39.140100" lon="-6.102900">
        <ele>1591.0</ele>
        <time>2019-05-04T12:19:52Z</time>
      </trkpt>
      <trkpt lat="39.140050" lon="-6.102967">
        <ele>1590.0</ele>
        <time>2019-05-04T12:19:53Z</time>
      </trkpt>
      <trkpt lat="39.140017" lon="-6.103017">
        <ele>1590.0</ele>
        <time>2019-05-04T12:19:54Z</time>
      </trkpt>
      <trkpt lat="39.139983" lon="-6.103033">
        <ele>1589.0</ele>
        <time>2019-05-04T12:19:55Z</time>
      </trkpt>
      <trkpt lat="39.139950" lon="-6.103050">
        <ele>1588.0</ele>
        <time>2019-05-04T12:19:56Z</time>
      </trkpt>
      <trkpt lat="39.139917" lon="-6.103083">
        <ele>1587.0</ele>
        <time>2019-05-04T12:19:57Z</time>
      </trkpt>
      <trkpt lat="39.139867" lon="-6.103150">
        <ele>1584.0</ele>
        <time>2019-05-04T12:19:58Z</time>
      </trkpt>
      <trkpt lat="39.139833" lon="-6.103200">
        <ele>1580.0</ele>
        <time>2019-05-04T12:19:59Z</time>
      </trkpt>
      <trkpt lat="39.139783" lon="-6.103250">
        <ele>1578.0</ele>
        <time>2019-05-04T12:20:00Z</time>
      </trkpt>
      <trkpt lat="39.139733" lon="-6.103283">
        <ele>1576.0</ele>
        <time>2019-05-04T12:20:01Z</time>
      </trkpt>
      <trkpt lat="39.139683" lon="-6.103300">
        <ele>1575.0</ele>
        <time>2019-05-04T12:20:02Z</time>
      </trkpt>
      <trkpt lat="39.139633" lon="-6.103333">
        <ele>1573.0</ele>
        <time>2019-05-04T12:20:03Z</time>
      </trkpt>
      <trkpt lat="39.139567" lon="-6.103367">
        <ele>1571.0</ele>
        <time>2019-05-04T12:20:04Z</time>
      </trkpt>
      <trkpt lat="39.139500" lon="-6.103367">
        <ele>1570.0</ele>
        <time>2019-05-04T12:20:05Z</time>
      </trkpt>
      <trkpt lat="39.139433" lon="-6.103350">
        <ele>1569.0</ele>
        <time>2019-05-04T12:20:06Z</time>
      </trkpt>
      <trkpt lat="39.139367" lon="-6.103300">
        <ele>1568.0</ele>
        <time>2019-05-04T12:20:07Z</time>
      </trkpt>
      <trkpt lat="39.139317" lon="-6.103233">
        <ele>1568.0</ele>
        <time>2019-05-04T12:20:08Z</time>
      </trkpt>
      <trkpt lat="39.139267" lon="-6.103150">
        <ele>1569.0</ele>
        <time>2019-05-04T12:20:09Z</time>
      </trkpt>
      <trkpt lat="39.139233" lon="-6.103067">
        <ele>1570.0</ele>
        <time>2019-05-04T12:20:10Z</time>
      </trkpt>
      <trkpt lat="39.139217" lon="-6.102983">
        <ele>1570.0</ele>
        <time>2019-05-04T12:20:11Z</time>
      </trkpt>
      <trkpt lat="39.139200" lon="-6.102867">
        <ele>1569.0</ele>
        <time>2019-05-04T12:20:12Z</time>
      </trkpt>
      <trkpt lat="39.139200" lon="-6.102733">
        <ele>1568.0</ele>
        <time>2019-05-04T12:20:13Z</time>
      </trkpt>
      <trkpt lat="39.139217" lon="-6.102600">
        <ele>1568.0</ele>
        <time>2019-05-04T12:20:14Z</time>
      </trkpt>
      <trkpt lat="39.139233" lon="-6.102467">
        <ele>1568.0</ele>
        <time>2019-05-04T12:20:15Z</time>
      </trkpt>
      <trkpt lat="39.139283" lon="-6.102350">
        <ele>1568.0</ele>
        <time>2019-05-04T12:20:16Z</time>
      </trkpt>
      <trkpt lat="39.139333" lon="-6.102233">
        <ele>1568.0</ele>
        <time>2019-05-04T12:20:17Z</time>
      </trkpt>
      <trkpt lat="39.139400" lon="-6.102117">
        <ele>1568.0</ele>
        <time>2019-05-04T12:20:18Z</time>
      </trkpt>
      <trkpt lat="39.139483" lon="-6.102000">
        <ele>1567.0</ele>
        <time>2019-05-04T12:20:19Z</time>
      </trkpt>
      <trkpt lat="39.139567" lon="-6.101900">
        <ele>1567.0</ele>
        <time>2019-05-04T12:20:20Z</time>
      </trkpt>
      <trkpt lat="39.139667" lon="-6.101817">
        <ele>1568.0</ele>
        <time>2019-05-04T12:20:21Z</time>
      </trkpt>
      <trkpt lat="39.139767" lon="-6.101750">
        <ele>1568.0</ele>
        <time>2019-05-04T12:20:22Z</time>
      </trkpt>
      <trkpt lat="39.139883" lon="-6.101717">
        <ele>1569.0</ele>
        <time>2019-05-04T12:20:23Z</time>
      </trkpt>
      <trkpt lat="39.139983" lon="-6.101667">
        <ele>1570.0</ele>
        <time>2019-05-04T12:20:24Z</time>
      </trkpt>
      <trkpt lat="39.140100" lon="-6.101617">
        <ele>1571.0</ele>
        <time>2019-05-04T12:20:25Z</time>
      </trkpt>
      <trkpt lat="39.140200" lon="-6.101583">
        <ele>1573.0</ele>
        <time>2019-05-04T12:20:26Z</time>
      </trkpt>
      <trkpt lat="39.140300" lon="-6.101583">
        <ele>1574.0</ele>
        <time>2019-05-04T12:20:27Z</time>
      </trkpt>
      <trkpt lat="39.140400" lon="-6.101600">
        <ele>1575.0</ele>
        <time>2019-05-04T12:20:28Z</time>
      </trkpt>
      <trkpt lat="39.140500" lon="-6.101633">
        <ele>1576.0</ele>
        <time>2019-05-04T12:20:29Z</time>
      </trkpt>
      <trkpt lat="39.140600" lon="-6.101650">
        <ele>1578.0</ele>
        <time>2019-05-04T12:20:30Z</time>
      </trkpt>
      <trkpt lat="39.140683" lon="-6.101683">
        <ele>1579.0</ele>
        <time>2019-05-04T12:20:31Z</time>
      </trkpt>
      <trkpt lat="39.140783" lon="-6.101733">
        <ele>1581.0</ele>
        <time>2019-05-04T12:20:32Z</time>
      </trkpt>
      <trkpt lat="39.140867" lon="-6.101800">
        <ele>1581.0</ele>
        <time>2019-05-04T12:20:33Z</time>
      </trkpt>
      <trkpt lat="39.140950" lon="-6.101883">
        <ele>1582.0</ele>
        <time>2019-05-04T12:20:34Z</time>
      </trkpt>
      <trkpt lat="39.141017" lon="-6.101983">
        <ele>1582.0</ele>
        <time>2019-05-04T12:20:35Z</time>
      </trkpt>
      <trkpt lat="39.141067" lon="-6.102100">
        <ele>1583.0</ele>
        <time>2019-05-04T12:20:36Z</time>
      </trkpt>
      <trkpt lat="39.141100" lon="-6.102200">
        <ele>1583.0</ele>
        <time>2019-05-04T12:20:37Z</time>
      </trkpt>
      <trkpt lat="39.141100" lon="-6.102300">
        <ele>1584.0</ele>
        <time>2019-05-04T12:20:38Z</time>
      </trkpt>
      <trkpt lat="39.141100" lon="-6.102400">
        <ele>1585.0</ele>
        <time>2019-05-04T12:20:39Z</time>
      </trkpt>
      <trkpt lat="39.141083" lon="-6.102483">
        <ele>1586.0</ele>
        <time>2019-05-04T12:20:40Z</time>
      </trkpt>
      <trkpt lat="39.141067" lon="-6.102567">
        <ele>1586.0</ele>
        <time>2019-05-04T12:20:41Z</time>
      </trkpt>
      <trkpt lat="39.141033" lon="-6.102633">
        <ele>1587.0</ele>
        <time>2019-05-04T12:20:42Z</time>
      </trkpt>
      <trkpt lat="39.141000" lon="-6.102683">
        <ele>1587.0</ele>
        <time>2019-05-04T12:20:43Z</time>
      </trkpt>
      <trkpt lat="39.140967" lon="-6.102717">
        <ele>1587.0</ele>
        <time>2019-05-04T12:20:44Z</time>
      </trkpt>
      <trkpt lat="39.140917" lon="-6.102717">
        <ele>1588.0</ele>
        <time>2019-05-04T12:20:45Z</time>
      </trkpt>
      <trkpt lat="39.140867" lon="-6.102717">
        <ele>1586.0</ele>
        <time>2019-05-04T12:20:46Z</time>
      </trkpt>
      <trkpt lat="39.140800" lon="-6.102683">
        <ele>1586.0</ele>
        <time>2019-05-04T12:20:47Z</time>
      </trkpt>
      <trkpt lat="39.140733" lon="-6.102633">
        <ele>1586.0</ele>
        <time>2019-05-04T12:20:48Z</time>
      </trkpt>
      <trkpt lat="39.140667" lon="-6.102567">
        <ele>1587.0</ele>
        <time>2019-05-04T12:20:49Z</time>
      </trkpt>
      <trkpt lat="39.140633" lon="-6.102483">
        <ele>1589.0</ele>
        <time>2019-05-04T12:20:50Z</time>
      </trkpt>
      <trkpt lat="39.140600" lon="-6.102400">
        <ele>1591.0</ele>
        <time>2019-05-04T12:20:51Z</time>
      </trkpt>
      <trkpt lat="39.140567" lon="-6.102317">
        <ele>1592.0</ele>
        <time>2019-05-04T12:20:52Z</time>
      </trkpt>
      <trkpt lat="39.140533" lon="-6.102233">
        <ele>1594.0</ele>
        <time>2019-05-04T12:20:53Z</time>
      </trkpt>
      <trkpt lat="39.140483" lon="-6.102150">
        <ele>1596.0</ele>
        <time>2019-05-04T12:20:54Z</time>
      </trkpt>
      <trkpt lat="39.140433" lon="-6.102100">
        <ele>1598.0</ele>
        <time>2019-05-04T12:20:55Z</time>
      </trkpt>
      <trkpt lat="39.140367" lon="-6.102067">
        <ele>1599.0</ele>
        <time>2019-05-04T12:20:56Z</time>
      </trkpt>
      <trkpt lat="39.140317" lon="-6.102017">
        <ele>1602.0</ele>
        <time>2019-05-04T12:20:57Z</time>
      </trkpt>
      <trkpt lat="39.140267" lon="-6.102000">
        <ele>1603.0</ele>
        <time>2019-05-04T12:20:58Z</time>
      </trkpt>
      <trkpt lat="39.140217" lon="-6.102000">
        <ele>1605.0</ele>
        <time>2019-05-04T12:20:59Z</time>
      </trkpt>
      <trkpt lat="39.140167" lon="-6.102017">
        <ele>1606.0</ele>
        <time>2019-05-04T12:21:00Z</time>
      </trkpt>
      <trkpt lat="39.140133" lon="-6.102083">
        <ele>1608.0</ele>
        <time>2019-05-04T12:21:01Z</time>
      </trkpt>
      <trkpt lat="39.140133" lon="-6.102167">
        <ele>1609.0</ele>
        <time>2019-05-04T12:21:02Z</time>
      </trkpt>
      <trkpt lat="39.140167" lon="-6.102250">
        <ele>1610.0</ele>
        <time>2019-05-04T12:21:03Z</time>
      </trkpt>
      <trkpt lat="39.140233" lon="-6.102317">
        <ele>1612.0</ele>
        <time>2019-05-04T12:21:04Z</time>
      </trkpt>
      <trkpt lat="39.140333" lon="-6.102350">
        <ele>1612.0</ele>
        <time>2019-05-04T12:21:05Z</time>
      </trkpt>
      <trkpt lat="39.140450" lon="-6.102367">
        <ele>1611.0</ele>
        <time>2019-05-04T12:21:06Z</time>
      </trkpt>
      <trkpt lat="39.140567" lon="-6.102333">
        <ele>1611.0</ele>
        <time>2019-05-04T12:21:07Z</time>
      </trkpt>
      <trkpt lat="39.140667" lon="-6.102267">
        <ele>1612.0</ele>
        <time>2019-05-04T12:21:08Z</time>
      </trkpt>
      <trkpt lat="39.140750" lon="-6.102167">
        <ele>1613.0</ele>
        <time>2019-05-04T12:21:09Z</time>
      </trkpt>
      <trkpt lat="39.140800" lon="-6.102033">
        <ele>1614.0</ele>
        <time>2019-05-04T12:21:10Z</time>
      </trkpt>
      <trkpt lat="39.140817" lon="-6.101883">
        <ele>1614.0</ele>
        <time>2019-05-04T12:21:11Z</time>
      </trkpt>
      <trkpt lat="39.140817" lon="-6.101750">
        <ele>1614.0</ele>
        <time>2019-05-04T12:21:12Z</time>
      </trkpt>
      <trkpt lat="39.140800" lon="-6.101633">
        <ele>1617.0</ele>
        <time>2019-05-04T12:21:13Z</time>
      </trkpt>
      <trkpt lat="39.140767" lon="-6.101550">
        <ele>1619.0</ele>
        <time>2019-05-04T12:21:14Z</time>
      </trkpt>
      <trkpt lat="39.140733" lon="-6.101467">
        <ele>1621.0</ele>
        <time>2019-05-04T12:21:15Z</time>
      </trkpt>
      <trkpt lat="39.140700" lon="-6.101383">
        <ele>1622.0</ele>
        <time>2019-05-04T12:21:16Z</time>
      </trkpt>
      <trkpt lat="39.140650" lon="-6.101317">
        <ele>1623.0</ele>
        <time>2019-05-04T12:21:17Z</time>
      </trkpt>
      <trkpt lat="39.140583" lon="-6.101283">
        <ele>1624.0</ele>
        <time>2019-05-04T12:21:18Z</time>
      </trkpt>
      <trkpt lat="39.140517" lon="-6.101283">
        <ele>1624.0</ele>
        <time>2019-05-04T12:21:19Z</time>
      </trkpt>
      <trkpt lat="39.140450" lon="-6.101333">
        <ele>1624.0</ele>
        <time>2019-05-04T12:21:20Z</time>
      </trkpt>
      <trkpt lat="39.140433" lon="-6.101433">
        <ele>1624.0</ele>
        <time>2019-05-04T12:21:21Z</time>
      </trkpt>
      <trkpt lat="39.140450" lon="-6.101533">
        <ele>1624.0</ele>
        <time>2019-05-04T12:21:22Z</time>
      </trkpt>
      <trkpt lat="39.140500" lon="-6.101617">
        <ele>1625.0</ele>
        <time>2019-05-04T12:21:23Z</time>
      </trkpt>
      <trkpt lat="39.140583" lon="-6.101667">
        <ele>1626.0</ele>
        <time>2019-05-04T12:21:24Z</time>
      </trkpt>
      <trkpt lat="39.140683" lon="-6.101700">
        <ele>1628.0</ele>
        <time>2019-05-04T12:21:25Z</time>
      </trkpt>
      <trkpt lat="39.140783" lon="-6.101700">
        <ele>1630.0</ele>
        <time>2019-05-04T12:21:26Z</time>
      </trkpt>
      <trkpt lat="39.140883" lon="-6.101683">
        <ele>1632.0</ele>
        <time>2019-05-04T12:21:27Z</time>
      </trkpt>
      <trkpt lat="39.140983" lon="-6.101633">
        <ele>1633.0</ele>
        <time>2019-05-04T12:21:28Z</time>
      </trkpt>
      <trkpt lat="39.141067" lon="-6.101550">
        <ele>1634.0</ele>
        <time>2019-05-04T12:21:29Z</time>
      </trkpt>
      <trkpt lat="39.141150" lon="-6.101433">
        <ele>1634.0</ele>
        <time>2019-05-04T12:21:30Z</time>
      </trkpt>
      <trkpt lat="39.141183" lon="-6.101317">
        <ele>1635.0</ele>
        <time>2019-05-04T12:21:31Z</time>
      </trkpt>
      <trkpt lat="39.141200" lon="-6.101217">
        <ele>1636.0</ele>
        <time>2019-05-04T12:21:32Z</time>
      </trkpt>
      <trkpt lat="39.141200" lon="-6.101117">
        <ele>1637.0</ele>
        <time>2019-05-04T12:21:33Z</time>
      </trkpt>
      <trkpt lat="39.141167" lon="-6.101017">
        <ele>1638.0</ele>
        <time>2019-05-04T12:21:34Z</time>
      </trkpt>
      <trkpt lat="39.141133" lon="-6.100917">
        <ele>1639.0</ele>
        <time>2019-05-04T12:21:35Z</time>
      </trkpt>
      <trkpt lat="39.141117" lon="-6.100867">
        <ele>1641.0</ele>
        <time>2019-05-04T12:21:36Z</time>
      </trkpt>
      <trkpt lat="39.141067" lon="-6.100833">
        <ele>1644.0</ele>
        <time>2019-05-04T12:21:37Z</time>
      </trkpt>
      <trkpt lat="39.141017" lon="-6.100817">
        <ele>1645.0</ele>
        <time>2019-05-04T12:21:38Z</time>
      </trkpt>
      <trkpt lat="39.140967" lon="-6.100817">
        <ele>1646.0</ele>
        <time>2019-05-04T12:21:39Z</time>
      </trkpt>
      <trkpt lat="39.140917" lon="-6.100850">
        <ele>1647.0</ele>
        <time>2019-05-04T12:21:40Z</time>
      </trkpt>
      <trkpt lat="39.140883" lon="-6.100917">
        <ele>1648.0</ele>
        <time>2019-05-04T12:21:41Z</time>
      </trkpt>
      <trkpt lat="39.140883" lon="-6.101000">
        <ele>1649.0</ele>
        <time>2019-05-04T12:21:42Z</time>
      </trkpt>
      <trkpt lat="39.140900" lon="-6.101117">
        <ele>1650.0</ele>
        <time>2019-05-04T12:21:43Z</time>
      </trkpt>
      <trkpt lat="39.140933" lon="-6.101233">
        <ele>1651.0</ele>
        <time>2019-05-04T12:21:44Z</time>
      </trkpt>
      <trkpt lat="39.141017" lon="-6.101333">
        <ele>1651.0</ele>
        <time>2019-05-04T12:21:45Z</time>
      </trkpt>
      <trkpt lat="39.141100" lon="-6.101417">
        <ele>1652.0</ele>
        <time>2019-05-04T12:21:46Z</time>
      </trkpt>
      <trkpt lat="39.141200" lon="-6.101450">
        <ele>1652.0</ele>
        <time>2019-05-04T12:21:47Z</time>
      </trkpt>
      <trkpt lat="39.141317" lon="-6.101467">
        <ele>1652.0</ele>
        <time>2019-05-04T12:21:48Z</time>
      </trkpt>
      <trkpt lat="39.141417" lon="-6.101450">
        <ele>1652.0</ele>
        <time>2019-05-04T12:21:49Z</time>
      </trkpt>
      <trkpt lat="39.141517" lon="-6.101417">
        <ele>1652.0</ele>
        <time>2019-05-04T12:21:50Z</time>
      </trkpt>
      <trkpt lat="39.141600" lon="-6.101333">
        <ele>1653.0</ele>
        <time>2019-05-04T12:21:51Z</time>
      </trkpt>
      <trkpt lat="39.141667" lon="-6.101250">
        <ele>1652.0</ele>
        <time>2019-05-04T12:21:52Z</time>
      </trkpt>
      <trkpt lat="39.141717" lon="-6.101133">
        <ele>1652.0</ele>
        <time>2019-05-04T12:21:53Z</time>
      </trkpt>
      <trkpt lat="39.141767" lon="-6.101033">
        <ele>1653.0</ele>
        <time>2019-05-04T12:21:54Z</time>
      </trkpt>
      <trkpt lat="39.141767" lon="-6.100917">
        <ele>1653.0</ele>
        <time>2019-05-04T12:21:55Z</time>
      </trkpt>
      <trkpt lat="39.141750" lon="-6.100817">
        <ele>1654.0</ele>
        <time>2019-05-04T12:21:56Z</time>
      </trkpt>
      <trkpt lat="39.141717" lon="-6.100750">
        <ele>1655.0</ele>
        <time>2019-05-04T12:21:57Z</time>
      </trkpt>
      <trkpt lat="39.141683" lon="-6.100717">
        <ele>1657.0</ele>
        <time>2019-05-04T12:21:58Z</time>
      </trkpt>
      <trkpt lat="39.141650" lon="-6.100683">
        <ele>1659.0</ele>
        <time>2019-05-04T12:21:59Z</time>
      </trkpt>
      <trkpt lat="39.141617" lon="-6.100667">
        <ele>1661.0</ele>
        <time>2019-05-04T12:22:00Z</time>
      </trkpt>
      <trkpt lat="39.141567" lon="-6.100650">
        <ele>1663.0</ele>
        <time>2019-05-04T12:22:01Z</time>
      </trkpt>
      <trkpt lat="39.141500" lon="-6.100650">
        <ele>1664.0</ele>
        <time>2019-05-04T12:22:02Z</time>
      </trkpt>
      <trkpt lat="39.141450" lon="-6.100683">
        <ele>1666.0</ele>
        <time>2019-05-04T12:22:03Z</time>
      </trkpt>
      <trkpt lat="39.141400" lon="-6.100733">
        <ele>1668.0</ele>
        <time>2019-05-04T12:22:04Z</time>
      </trkpt>
      <trkpt lat="39.141350" lon="-6.100783">
        <ele>1670.0</ele>
        <time>2019-05-04T12:22:05Z</time>
      </trkpt>
      <trkpt lat="39.141317" lon="-6.100817">
        <ele>1672.0</ele>
        <time>2019-05-04T12:22:06Z</time>
      </trkpt>
      <trkpt lat="39.141250" lon="-6.100867">
        <ele>1673.0</ele>
        <time>2019-05-04T12:22:07Z</time>
      </trkpt>
      <trkpt lat="39.141200" lon="-6.100950">
        <ele>1675.0</ele>
        <time>2019-05-04T12:22:08Z</time>
      </trkpt>
      <trkpt lat="39.141183" lon="-6.101050">
        <ele>1675.0</ele>
        <time>2019-05-04T12:22:09Z</time>
      </trkpt>
      <trkpt lat="39.141183" lon="-6.101150">
        <ele>1675.0</ele>
        <time>2019-05-04T12:22:10Z</time>
      </trkpt>
      <trkpt lat="39.141233" lon="-6.101267">
        <ele>1676.0</ele>
        <time>2019-05-04T12:22:11Z</time>
      </trkpt>
      <trkpt lat="39.141300" lon="-6.101367">
        <ele>1677.0</ele>
        <time>2019-05-04T12:22:12Z</time>
      </trkpt>
      <trkpt lat="39.141400" lon="-6.101433">
        <ele>1676.0</ele>
        <time>2019-05-04T12:22:13Z</time>
      </trkpt>
      <trkpt lat="39.141500" lon="-6.101467">
        <ele>1675.0</ele>
        <time>2019-05-04T12:22:14Z</time>
      </trkpt>
      <trkpt lat="39.141600" lon="-6.101467">
        <ele>1675.0</ele>
        <time>2019-05-04T12:22:15Z</time>
      </trkpt>
      <trkpt lat="39.141717" lon="-6.101450">
        <ele>1675.0</ele>
        <time>2019-05-04T12:22:16Z</time>
      </trkpt>
      <trkpt lat="39.141817" lon="-6.101383">
        <ele>1675.0</ele>
        <time>2019-05-04T12:22:17Z</time>
      </trkpt>
      <trkpt lat="39.141883" lon="-6.101300">
        <ele>1675.0</ele>
        <time>2019-05-04T12:22:18Z</time>
      </trkpt>
      <trkpt lat="39.141917" lon="-6.101183">
        <ele>1676.0</ele>
        <time>2019-05-04T12:22:19Z</time>
      </trkpt>
      <trkpt lat="39.141917" lon="-6.101083">
        <ele>1676.0</ele>
        <time>2019-05-04T12:22:20Z</time>
      </trkpt>
      <trkpt lat="39.141900" lon="-6.101000">
        <ele>1677.0</ele>
        <time>2019-05-04T12:22:21Z</time>
      </trkpt>
      <trkpt lat="39.141883" lon="-6.100933">
        <ele>1677.0</ele>
        <time>2019-05-04T12:22:22Z</time>
      </trkpt>
      <trkpt lat="39.141850" lon="-6.100883">
        <ele>1678.0</ele>
        <time>2019-05-04T12:22:23Z</time>
      </trkpt>
      <trkpt lat="39.141800" lon="-6.100850">
        <ele>1679.0</ele>
        <time>2019-05-04T12:22:24Z</time>
      </trkpt>
      <trkpt lat="39.141750" lon="-6.100833">
        <ele>1680.0</ele>
        <time>2019-05-04T12:22:25Z</time>
      </trkpt>
      <trkpt lat="39.141700" lon="-6.100850">
        <ele>1680.0</ele>
        <time>2019-05-04T12:22:26Z</time>
      </trkpt>
      <trkpt lat="39.141650" lon="-6.100883">
        <ele>1680.0</ele>
        <time>2019-05-04T12:22:27Z</time>
      </trkpt>
      <trkpt lat="39.141617" lon="-6.100950">
        <ele>1679.0</ele>
        <time>2019-05-04T12:22:28Z</time>
      </trkpt>
      <trkpt lat="39.141583" lon="-6.101050">
        <ele>1679.0</ele>
        <time>2019-05-04T12:22:29Z</time>
      </trkpt>
      <trkpt lat="39.141600" lon="-6.101167">
        <ele>1680.0</ele>
        <time>2019-05-04T12:22:30Z</time>
      </trkpt>
      <trkpt lat="39.141650" lon="-6.101283">
        <ele>1679.0</ele>
        <time>2019-05-04T12:22:31Z</time>
      </trkpt>
      <trkpt lat="39.141733" lon="-6.101383">
        <ele>1679.0</ele>
        <time>2019-05-04T12:22:32Z</time>
      </trkpt>
      <trkpt lat="39.141833" lon="-6.101450">
        <ele>1681.0</ele>
        <time>2019-05-04T12:22:33Z</time>
      </trkpt>
      <trkpt lat="39.141933" lon="-6.101483">
        <ele>1682.0</ele>
        <time>2019-05-04T12:22:34Z</time>
      </trkpt>
      <trkpt lat="39.142033" lon="-6.101483">
        <ele>1682.0</ele>
        <time>2019-05-04T12:22:35Z</time>
      </trkpt>
      <trkpt lat="39.142133" lon="-6.101467">
        <ele>1683.0</ele>
        <time>2019-05-04T12:22:36Z</time>
      </trkpt>
      <trkpt lat="39.142217" lon="-6.101417">
        <ele>1684.0</ele>
        <time>2019-05-04T12:22:37Z</time>
      </trkpt>
      <trkpt lat="39.142317" lon="-6.101317">
        <ele>1684.0</ele>
        <time>2019-05-04T12:22:38Z</time>
      </trkpt>
      <trkpt lat="39.142367" lon="-6.101200">
        <ele>1682.0</ele>
        <time>2019-05-04T12:22:39Z</time>
      </trkpt>
      <trkpt lat="39.142400" lon="-6.101083">
        <ele>1682.0</ele>
        <time>2019-05-04T12:22:40Z</time>
      </trkpt>
      <trkpt lat="39.142417" lon="-6.100983">
        <ele>1684.0</ele>
        <time>2019-05-04T12:22:41Z</time>
      </trkpt>
      <trkpt lat="39.142400" lon="-6.100900">
        <ele>1686.0</ele>
        <time>2019-05-04T12:22:42Z</time>
      </trkpt>
      <trkpt lat="39.142383" lon="-6.100833">
        <ele>1687.0</ele>
        <time>2019-05-04T12:22:43Z</time>
      </trkpt>
      <trkpt lat="39.142367" lon="-6.100783">
        <ele>1688.0</ele>
        <time>2019-05-04T12:22:44Z</time>
      </trkpt>
      <trkpt lat="39.142350" lon="-6.100733">
        <ele>1688.0</ele>
        <time>2019-05-04T12:22:45Z</time>
      </trkpt>
      <trkpt lat="39.142300" lon="-6.100683">
        <ele>1687.0</ele>
        <time>2019-05-04T12:22:46Z</time>
      </trkpt>
      <trkpt lat="39.142250" lon="-6.100667">
        <ele>1686.0</ele>
        <time>2019-05-04T12:22:47Z</time>
      </trkpt>
      <trkpt lat="39.142200" lon="-6.100683">
        <ele>1685.0</ele>
        <time>2019-05-04T12:22:48Z</time>
      </trkpt>
      <trkpt lat="39.142133" lon="-6.100733">
        <ele>1683.0</ele>
        <time>2019-05-04T12:22:49Z</time>
      </trkpt>
      <trkpt lat="39.142083" lon="-6.100800">
        <ele>1682.0</ele>
        <time>2019-05-04T12:22:50Z</time>
      </trkpt>
      <trkpt lat="39.142017" lon="-6.100867">
        <ele>1682.0</ele>
        <time>2019-05-04T12:22:51Z</time>
      </trkpt>
      <trkpt lat="39.141967" lon="-6.100917">
        <ele>1685.0</ele>
        <time>2019-05-04T12:22:52Z</time>
      </trkpt>
      <trkpt lat="39.141933" lon="-6.100967">
        <ele>1687.0</ele>
        <time>2019-05-04T12:22:53Z</time>
      </trkpt>
      <trkpt lat="39.141883" lon="-6.101000">
        <ele>1687.0</ele>
        <time>2019-05-04T12:22:54Z</time>
      </trkpt>
      <trkpt lat="39.141817" lon="-6.101017">
        <ele>1688.0</ele>
        <time>2019-05-04T12:22:55Z</time>
      </trkpt>
      <trkpt lat="39.141767" lon="-6.101050">
        <ele>1689.0</ele>
        <time>2019-05-04T12:22:56Z</time>
      </trkpt>
      <trkpt lat="39.141717" lon="-6.101083">
        <ele>1691.0</ele>
        <time>2019-05-04T12:22:57Z</time>
      </trkpt>
      <trkpt lat="39.141667" lon="-6.101117">
        <ele>1692.0</ele>
        <time>2019-05-04T12:22:58Z</time>
      </trkpt>
      <trkpt lat="39.141633" lon="-6.101150">
        <ele>1693.0</ele>
        <time>2019-05-04T12:22:59Z</time>
      </trkpt>
      <trkpt lat="39.141600" lon="-6.101183">
        <ele>1693.0</ele>
        <time>2019-05-04T12:23:00Z</time>
      </trkpt>
      <trkpt lat="39.141567" lon="-6.101250">
        <ele>1693.0</ele>
        <time>2019-05-04T12:23:01Z</time>
      </trkpt>
      <trkpt lat="39.141533" lon="-6.101350">
        <ele>1690.0</ele>
        <time>2019-05-04T12:23:02Z</time>
      </trkpt>
      <trkpt lat="39.141533" lon="-6.101483">
        <ele>1689.0</ele>
        <time>2019-05-04T12:23:03Z</time>
      </trkpt>
      <trkpt lat="39.141567" lon="-6.101633">
        <ele>1689.0</ele>
        <time>2019-05-04T12:23:04Z</time>
      </trkpt>
      <trkpt lat="39.141650" lon="-6.101750">
        <ele>1689.0</ele>
        <time>2019-05-04T12:23:05Z</time>
      </trkpt>
      <trkpt lat="39.141717" lon="-6.101867">
        <ele>1690.0</ele>
        <time>2019-05-04T12:23:06Z</time>
      </trkpt>
      <trkpt lat="39.141783" lon="-6.101983">
        <ele>1693.0</ele>
        <time>2019-05-04T12:23:07Z</time>
      </trkpt>
      <trkpt lat="39.141833" lon="-6.102100">
        <ele>1695.0</ele>
        <time>2019-05-04T12:23:08Z</time>
      </trkpt>
      <trkpt lat="39.141883" lon="-6.102200">
        <ele>1697.0</ele>
        <time>2019-05-04T12:23:09Z</time>
      </trkpt>
      <trkpt lat="39.141967" lon="-6.102283">
        <ele>1698.0</ele>
        <time>2019-05-04T12:23:10Z</time>
      </trkpt>
      <trkpt lat="39.142067" lon="-6.102333">
        <ele>1698.0</ele>
        <time>2019-05-04T12:23:11Z</time>
      </trkpt>
      <trkpt lat="39.142183" lon="-6.102350">
        <ele>1699.0</ele>
        <time>2019-05-04T12:23:12Z</time>
      </trkpt>
      <trkpt lat="39.142283" lon="-6.102300">
        <ele>1700.0</ele>
        <time>2019-05-04T12:23:13Z</time>
      </trkpt>
      <trkpt lat="39.142350" lon="-6.102217">
        <ele>1700.0</ele>
        <time>2019-05-04T12:23:14Z</time>
      </trkpt>
      <trkpt lat="39.142400" lon="-6.102117">
        <ele>1700.0</ele>
        <time>2019-05-04T12:23:15Z</time>
      </trkpt>
      <trkpt lat="39.142400" lon="-6.102017">
        <ele>1701.0</ele>
        <time>2019-05-04T12:23:16Z</time>
      </trkpt>
      <trkpt lat="39.142367" lon="-6.101933">
        <ele>1701.0</ele>
        <time>2019-05-04T12:23:17Z</time>
      </trkpt>
      <trkpt lat="39.142317" lon="-6.101867">
        <ele>1701.0</ele>
        <time>2019-05-04T12:23:18Z</time>
      </trkpt>
      <trkpt lat="39.142283" lon="-6.101833">
        <ele>1702.0</ele>
        <time>2019-05-04T12:23:19Z</time>
      </trkpt>
      <trkpt lat="39.142233" lon="-6.101850">
        <ele>1704.0</ele>
        <time>2019-05-04T12:23:20Z</time>
      </trkpt>
      <trkpt lat="39.142167" lon="-6.101883">
        <ele>1704.0</ele>
        <time>2019-05-04T12:23:21Z</time>
      </trkpt>
      <trkpt lat="39.142133" lon="-6.101950">
        <ele>1705.0</ele>
        <time>2019-05-04T12:23:22Z</time>
      </trkpt>
      <trkpt lat="39.142100" lon="-6.102033">
        <ele>1705.0</ele>
        <time>2019-05-04T12:23:23Z</time>
      </trkpt>
      <trkpt lat="39.142083" lon="-6.102150">
        <ele>1706.0</ele>
        <time>2019-05-04T12:23:24Z</time>
      </trkpt>
      <trkpt lat="39.142067" lon="-6.102250">
        <ele>1708.0</ele>
        <time>2019-05-04T12:23:25Z</time>
      </trkpt>
      <trkpt lat="39.142067" lon="-6.102350">
        <ele>1709.0</ele>
        <time>2019-05-04T12:23:26Z</time>
      </trkpt>
      <trkpt lat="39.142083" lon="-6.102467">
        <ele>1711.0</ele>
        <time>2019-05-04T12:23:27Z</time>
      </trkpt>
      <trkpt lat="39.142100" lon="-6.102583">
        <ele>1712.0</ele>
        <time>2019-05-04T12:23:28Z</time>
      </trkpt>
      <trkpt lat="39.142117" lon="-6.102700">
        <ele>1713.0</ele>
        <time>2019-05-04T12:23:29Z</time>
      </trkpt>
      <trkpt lat="39.142150" lon="-6.102817">
        <ele>1713.0</ele>
        <time>2019-05-04T12:23:30Z</time>
      </trkpt>
      <trkpt lat="39.142200" lon="-6.102917">
        <ele>1716.0</ele>
        <time>2019-05-04T12:23:31Z</time>
      </trkpt>
      <trkpt lat="39.142233" lon="-6.103017">
        <ele>1717.0</ele>
        <time>2019-05-04T12:23:32Z</time>
      </trkpt>
      <trkpt lat="39.142283" lon="-6.103117">
        <ele>1719.0</ele>
        <time>2019-05-04T12:23:33Z</time>
      </trkpt>
      <trkpt lat="39.142333" lon="-6.103200">
        <ele>1719.0</ele>
        <time>2019-05-04T12:23:34Z</time>
      </trkpt>
      <trkpt lat="39.142417" lon="-6.103283">
        <ele>1719.0</ele>
        <time>2019-05-04T12:23:35Z</time>
      </trkpt>
      <trkpt lat="39.142517" lon="-6.103350">
        <ele>1717.0</ele>
        <time>2019-05-04T12:23:36Z</time>
      </trkpt>
      <trkpt lat="39.142617" lon="-6.103367">
        <ele>1716.0</ele>
        <time>2019-05-04T12:23:37Z</time>
      </trkpt>
      <trkpt lat="39.142750" lon="-6.103367">
        <ele>1714.0</ele>
        <time>2019-05-04T12:23:38Z</time>
      </trkpt>
      <trkpt lat="39.142850" lon="-6.103317">
        <ele>1713.0</ele>
        <time>2019-05-04T12:23:39Z</time>
      </trkpt>
      <trkpt lat="39.142933" lon="-6.103250">
        <ele>1714.0</ele>
        <time>2019-05-04T12:23:40Z</time>
      </trkpt>
      <trkpt lat="39.143017" lon="-6.103183">
        <ele>1715.0</ele>
        <time>2019-05-04T12:23:41Z</time>
      </trkpt>
      <trkpt lat="39.143083" lon="-6.103117">
        <ele>1715.0</ele>
        <time>2019-05-04T12:23:42Z</time>
      </trkpt>
      <trkpt lat="39.143150" lon="-6.103033">
        <ele>1714.0</ele>
        <time>2019-05-04T12:23:43Z</time>
      </trkpt>
      <trkpt lat="39.143183" lon="-6.102933">
        <ele>1714.0</ele>
        <time>2019-05-04T12:23:44Z</time>
      </trkpt>
      <trkpt lat="39.143217" lon="-6.102833">
        <ele>1713.0</ele>
        <time>2019-05-04T12:23:45Z</time>
      </trkpt>
      <trkpt lat="39.143200" lon="-6.102733">
        <ele>1711.0</ele>
        <time>2019-05-04T12:23:46Z</time>
      </trkpt>
      <trkpt lat="39.143167" lon="-6.102650">
        <ele>1710.0</ele>
        <time>2019-05-04T12:23:47Z</time>
      </trkpt>
      <trkpt lat="39.143117" lon="-6.102600">
        <ele>1710.0</ele>
        <time>2019-05-04T12:23:48Z</time>
      </trkpt>
      <trkpt lat="39.143083" lon="-6.102567">
        <ele>1712.0</ele>
        <time>2019-05-04T12:23:49Z</time>
      </trkpt>
      <trkpt lat="39.143050" lon="-6.102533">
        <ele>1713.0</ele>
        <time>2019-05-04T12:23:50Z</time>
      </trkpt>
      <trkpt lat="39.143000" lon="-6.102500">
        <ele>1713.0</ele>
        <time>2019-05-04T12:23:51Z</time>
      </trkpt>
      <trkpt lat="39.142933" lon="-6.102467">
        <ele>1714.0</ele>
        <time>2019-05-04T12:23:52Z</time>
      </trkpt>
      <trkpt lat="39.142867" lon="-6.102467">
        <ele>1714.0</ele>
        <time>2019-05-04T12:23:53Z</time>
      </trkpt>
      <trkpt lat="39.142800" lon="-6.102483">
        <ele>1714.0</ele>
        <time>2019-05-04T12:23:54Z</time>
      </trkpt>
      <trkpt lat="39.142733" lon="-6.102517">
        <ele>1714.0</ele>
        <time>2019-05-04T12:23:55Z</time>
      </trkpt>
      <trkpt lat="39.142683" lon="-6.102533">
        <ele>1715.0</ele>
        <time>2019-05-04T12:23:56Z</time>
      </trkpt>
      <trkpt lat="39.142633" lon="-6.102533">
        <ele>1716.0</ele>
        <time>2019-05-04T12:23:57Z</time>
      </trkpt>
      <trkpt lat="39.142583" lon="-6.102533">
        <ele>1716.0</ele>
        <time>2019-05-04T12:23:58Z</time>
      </trkpt>
      <trkpt lat="39.142517" lon="-6.102517">
        <ele>1717.0</ele>
        <time>2019-05-04T12:23:59Z</time>
      </trkpt>
      <trkpt lat="39.142467" lon="-6.102533">
        <ele>1717.0</ele>
        <time>2019-05-04T12:24:00Z</time>
      </trkpt>
      <trkpt lat="39.142417" lon="-6.102550">
        <ele>1716.0</ele>
        <time>2019-05-04T12:24:01Z</time>
      </trkpt>
      <trkpt lat="39.142383" lon="-6.102567">
        <ele>1716.0</ele>
        <time>2019-05-04T12:24:02Z</time>
      </trkpt>
      <trkpt lat="39.142333" lon="-6.102567">
        <ele>1716.0</ele>
        <time>2019-05-04T12:24:03Z</time>
      </trkpt>
      <trkpt lat="39.142283" lon="-6.102567">
        <ele>1715.0</ele>
        <time>2019-05-04T12:24:04Z</time>
      </trkpt>
      <trkpt lat="39.142233" lon="-6.102583">
        <ele>1714.0</ele>
        <time>2019-05-04T12:24:05Z</time>
      </trkpt>
      <trkpt lat="39.142183" lon="-6.102600">
        <ele>1710.0</ele>
        <time>2019-05-04T12:24:06Z</time>
      </trkpt>
      <trkpt lat="39.142117" lon="-6.102617">
        <ele>1709.0</ele>
        <time>2019-05-04T12:24:07Z</time>
      </trkpt>
      <trkpt lat="39.142083" lon="-6.102633">
        <ele>1708.0</ele>
        <time>2019-05-04T12:24:08Z</time>
      </trkpt>
      <trkpt lat="39.142033" lon="-6.102633">
        <ele>1707.0</ele>
        <time>2019-05-04T12:24:09Z</time>
      </trkpt>
      <trkpt lat="39.141983" lon="-6.102633">
        <ele>1706.0</ele>
        <time>2019-05-04T12:24:10Z</time>
      </trkpt>
      <trkpt lat="39.141933" lon="-6.102617">
        <ele>1705.0</ele>
        <time>2019-05-04T12:24:11Z</time>
      </trkpt>
      <trkpt lat="39.141883" lon="-6.102600">
        <ele>1703.0</ele>
        <time>2019-05-04T12:24:12Z</time>
      </trkpt>
      <trkpt lat="39.141817" lon="-6.102583">
        <ele>1700.0</ele>
        <time>2019-05-04T12:24:13Z</time>
      </trkpt>
      <trkpt lat="39.141750" lon="-6.102567">
        <ele>1698.0</ele>
        <time>2019-05-04T12:24:14Z</time>
      </trkpt>
      <trkpt lat="39.141700" lon="-6.102533">
        <ele>1696.0</ele>
        <time>2019-05-04T12:24:15Z</time>
      </trkpt>
      <trkpt lat="39.141633" lon="-6.102517">
        <ele>1694.0</ele>
        <time>2019-05-04T12:24:16Z</time>
      </trkpt>
      <trkpt lat="39.141550" lon="-6.102500">
        <ele>1693.0</ele>
        <time>2019-05-04T12:24:17Z</time>
      </trkpt>
      <trkpt lat="39.141467" lon="-6.102483">
        <ele>1691.0</ele>
        <time>2019-05-04T12:24:18Z</time>
      </trkpt>
      <trkpt lat="39.141400" lon="-6.102467">
        <ele>1689.0</ele>
        <time>2019-05-04T12:24:19Z</time>
      </trkpt>
      <trkpt lat="39.141317" lon="-6.102450">
        <ele>1687.0</ele>
        <time>2019-05-04T12:24:20Z</time>
      </trkpt>
      <trkpt lat="39.141233" lon="-6.102433">
        <ele>1686.0</ele>
        <time>2019-05-04T12:24:21Z</time>
      </trkpt>
      <trkpt lat="39.141167" lon="-6.102417">
        <ele>1684.0</ele>
        <time>2019-05-04T12:24:22Z</time>
      </trkpt>
      <trkpt lat="39.141083" lon="-6.102383">
        <ele>1683.0</ele>
        <time>2019-05-04T12:24:23Z</time>
      </trkpt>
      <trkpt lat="39.141017" lon="-6.102367">
        <ele>1682.0</ele>
        <time>2019-05-04T12:24:24Z</time>
      </trkpt>
      <trkpt lat="39.140933" lon="-6.102333">
        <ele>1680.0</ele>
        <time>2019-05-04T12:24:25Z</time>
      </trkpt>
      <trkpt lat="39.140867" lon="-6.102300">
        <ele>1680.0</ele>
        <time>2019-05-04T12:24:26Z</time>
      </trkpt>
      <trkpt lat="39.140783" lon="-6.102267">
        <ele>1679.0</ele>
        <time>2019-05-04T12:24:27Z</time>
      </trkpt>
      <trkpt lat="39.140717" lon="-6.102250">
        <ele>1677.0</ele>
        <time>2019-05-04T12:24:28Z</time>
      </trkpt>
      <trkpt lat="39.140650" lon="-6.102217">
        <ele>1676.0</ele>
        <time>2019-05-04T12:24:29Z</time>
      </trkpt>
      <trkpt lat="39.140583" lon="-6.102200">
        <ele>1676.0</ele>
        <time>2019-05-04T12:24:30Z</time>
      </trkpt>
      <trkpt lat="39.140517" lon="-6.102167">
        <ele>1676.0</ele>
        <time>2019-05-04T12:24:31Z</time>
      </trkpt>
      <trkpt lat="39.140467" lon="-6.102167">
        <ele>1676.0</ele>
        <time>2019-05-04T12:24:32Z</time>
      </trkpt>
      <trkpt lat="39.140400" lon="-6.102133">
        <ele>1676.0</ele>
        <time>2019-05-04T12:24:33Z</time>
      </trkpt>
      <trkpt lat="39.140333" lon="-6.102117">
        <ele>1676.0</ele>
        <time>2019-05-04T12:24:34Z</time>
      </trkpt>
      <trkpt lat="39.140267" lon="-6.102100">
        <ele>1675.0</ele>
        <time>2019-05-04T12:24:35Z</time>
      </trkpt>
      <trkpt lat="39.140200" lon="-6.102083">
        <ele>1673.0</ele>
        <time>2019-05-04T12:24:36Z</time>
      </trkpt>
      <trkpt lat="39.140117" lon="-6.102067">
        <ele>1672.0</ele>
        <time>2019-05-04T12:24:37Z</time>
      </trkpt>
      <trkpt lat="39.140033" lon="-6.102050">
        <ele>1672.0</ele>
        <time>2019-05-04T12:24:38Z</time>
      </trkpt>
      <trkpt lat="39.139967" lon="-6.102033">
        <ele>1672.0</ele>
        <time>2019-05-04T12:24:39Z</time>
      </trkpt>
      <trkpt lat="39.139900" lon="-6.102000">
        <ele>1672.0</ele>
        <time>2019-05-04T12:24:40Z</time>
      </trkpt>
      <trkpt lat="39.139833" lon="-6.101983">
        <ele>1673.0</ele>
        <time>2019-05-04T12:24:41Z</time>
      </trkpt>
      <trkpt lat="39.139767" lon="-6.101983">
        <ele>1674.0</ele>
        <time>2019-05-04T12:24:42Z</time>
      </trkpt>
      <trkpt lat="39.139683" lon="-6.101983">
        <ele>1674.0</ele>
        <time>2019-05-04T12:24:43Z</time>
      </trkpt>
      <trkpt lat="39.139617" lon="-6.101983">
        <ele>1674.0</ele>
        <time>2019-05-04T12:24:44Z</time>
      </trkpt>
      <trkpt lat="39.139533" lon="-6.101983">
        <ele>1675.0</ele>
        <time>2019-05-04T12:24:45Z</time>
      </trkpt>
      <trkpt lat="39.139467" lon="-6.101983">
        <ele>1676.0</ele>
        <time>2019-05-04T12:24:46Z</time>
      </trkpt>
      <trkpt lat="39.139383" lon="-6.101983">
        <ele>1677.0</ele>
        <time>2019-05-04T12:24:47Z</time>
      </trkpt>
      <trkpt lat="39.139317" lon="-6.101967">
        <ele>1678.0</ele>
        <time>2019-05-04T12:24:48Z</time>
      </trkpt>
      <trkpt lat="39.139250" lon="-6.101950">
        <ele>1680.0</ele>
        <time>2019-05-04T12:24:49Z</time>
      </trkpt>
      <trkpt lat="39.139167" lon="-6.101950">
        <ele>1681.0</ele>
        <time>2019-05-04T12:24:50Z</time>
      </trkpt>
      <trkpt lat="39.139083" lon="-6.101967">
        <ele>1682.0</ele>
        <time>2019-05-04T12:24:51Z</time>
      </trkpt>
      <trkpt lat="39.139000" lon="-6.101983">
        <ele>1683.0</ele>
        <time>2019-05-04T12:24:52Z</time>
      </trkpt>
      <trkpt lat="39.138933" lon="-6.102000">
        <ele>1685.0</ele>
        <time>2019-05-04T12:24:53Z</time>
      </trkpt>
      <trkpt lat="39.138850" lon="-6.102033">
        <ele>1686.0</ele>
        <time>2019-05-04T12:24:54Z</time>
      </trkpt>
      <trkpt lat="39.138767" lon="-6.102033">
        <ele>1688.0</ele>
        <time>2019-05-04T12:24:55Z</time>
      </trkpt>
      <trkpt lat="39.138683" lon="-6.102033">
        <ele>1689.0</ele>
        <time>2019-05-04T12:24:56Z</time>
      </trkpt>
      <trkpt lat="39.138600" lon="-6.102050">
        <ele>1691.0</ele>
        <time>2019-05-04T12:24:57Z</time>
      </trkpt>
      <trkpt lat="39.138517" lon="-6.102050">
        <ele>1691.0</ele>
        <time>2019-05-04T12:24:58Z</time>
      </trkpt>
      <trkpt lat="39.138433" lon="-6.102083">
        <ele>1692.0</ele>
        <time>2019-05-04T12:24:59Z</time>
      </trkpt>
      <trkpt lat="39.138367" lon="-6.102117">
        <ele>1692.0</ele>
        <time>2019-05-04T12:25:00Z</time>
      </trkpt>
      <trkpt lat="39.138300" lon="-6.102183">
        <ele>1693.0</ele>
        <time>2019-05-04T12:25:01Z</time>
      </trkpt>
      <trkpt lat="39.138267" lon="-6.102267">
        <ele>1693.0</ele>
        <time>2019-05-04T12:25:02Z</time>
      </trkpt>
      <trkpt lat="39.138250" lon="-6.102383">
        <ele>1693.0</ele>
        <time>2019-05-04T12:25:03Z</time>
      </trkpt>
      <trkpt lat="39.138250" lon="-6.102483">
        <ele>1693.0</ele>
        <time>2019-05-04T12:25:04Z</time>
      </trkpt>
      <trkpt lat="39.138283" lon="-6.102583">
        <ele>1693.0</ele>
        <time>2019-05-04T12:25:05Z</time>
      </trkpt>
      <trkpt lat="39.138333" lon="-6.102667">
        <ele>1693.0</ele>
        <time>2019-05-04T12:25:06Z</time>
      </trkpt>
      <trkpt lat="39.138400" lon="-6.102733">
        <ele>1693.0</ele>
        <time>2019-05-04T12:25:07Z</time>
      </trkpt>
      <trkpt lat="39.138483" lon="-6.102750">
        <ele>1692.0</ele>
        <time>2019-05-04T12:25:08Z</time>
      </trkpt>
      <trkpt lat="39.138567" lon="-6.102733">
        <ele>1691.0</ele>
        <time>2019-05-04T12:25:09Z</time>
      </trkpt>
      <trkpt lat="39.138650" lon="-6.102683">
        <ele>1690.0</ele>
        <time>2019-05-04T12:25:10Z</time>
      </trkpt>
      <trkpt lat="39.138717" lon="-6.102600">
        <ele>1690.0</ele>
        <time>2019-05-04T12:25:11Z</time>
      </trkpt>
      <trkpt lat="39.138767" lon="-6.102500">
        <ele>1689.0</ele>
        <time>2019-05-04T12:25:12Z</time>
      </trkpt>
      <trkpt lat="39.138800" lon="-6.102383">
        <ele>1689.0</ele>
        <time>2019-05-04T12:25:13Z</time>
      </trkpt>
      <trkpt lat="39.138817" lon="-6.102267">
        <ele>1689.0</ele>
        <time>2019-05-04T12:25:14Z</time>
      </trkpt>
      <trkpt lat="39.138800" lon="-6.102150">
        <ele>1688.0</ele>
        <time>2019-05-04T12:25:15Z</time>
      </trkpt>
      <trkpt lat="39.138783" lon="-6.102033">
        <ele>1688.0</ele>
        <time>2019-05-04T12:25:16Z</time>
      </trkpt>
      <trkpt lat="39.138733" lon="-6.101933">
        <ele>1687.0</ele>
        <time>2019-05-04T12:25:17Z</time>
      </trkpt>
      <trkpt lat="39.138683" lon="-6.101850">
        <ele>1688.0</ele>
        <time>2019-05-04T12:25:18Z</time>
      </trkpt>
      <trkpt lat="39.138633" lon="-6.101783">
        <ele>1688.0</ele>
        <time>2019-05-04T12:25:19Z</time>
      </trkpt>
      <trkpt lat="39.138583" lon="-6.101733">
        <ele>1689.0</ele>
        <time>2019-05-04T12:25:20Z</time>
      </trkpt>
      <trkpt lat="39.138517" lon="-6.101683">
        <ele>1690.0</ele>
        <time>2019-05-04T12:25:21Z</time>
      </trkpt>
      <trkpt lat="39.138450" lon="-6.101617">
        <ele>1691.0</ele>
        <time>2019-05-04T12:25:22Z</time>
      </trkpt>
      <trkpt lat="39.138383" lon="-6.101550">
        <ele>1692.0</ele>
        <time>2019-05-04T12:25:23Z</time>
      </trkpt>
      <trkpt lat="39.138317" lon="-6.101500">
        <ele>1693.0</ele>
        <time>2019-05-04T12:25:24Z</time>
      </trkpt>
      <trkpt lat="39.138233" lon="-6.101467">
        <ele>1694.0</ele>
        <time>2019-05-04T12:25:25Z</time>
      </trkpt>
      <trkpt lat="39.138167" lon="-6.101433">
        <ele>1695.0</ele>
        <time>2019-05-04T12:25:26Z</time>
      </trkpt>
      <trkpt lat="39.138100" lon="-6.101417">
        <ele>1696.0</ele>
        <time>2019-05-04T12:25:27Z</time>
      </trkpt>
      <trkpt lat="39.138050" lon="-6.101383">
        <ele>1697.0</ele>
        <time>2019-05-04T12:25:28Z</time>
      </trkpt>
      <trkpt lat="39.137967" lon="-6.101350">
        <ele>1698.0</ele>
        <time>2019-05-04T12:25:29Z</time>
      </trkpt>
      <trkpt lat="39.137900" lon="-6.101317">
        <ele>1699.0</ele>
        <time>2019-05-04T12:25:30Z</time>
      </trkpt>
      <trkpt lat="39.137817" lon="-6.101300">
        <ele>1700.0</ele>
        <time>2019-05-04T12:25:31Z</time>
      </trkpt>
      <trkpt lat="39.137750" lon="-6.101283">
        <ele>1701.0</ele>
        <time>2019-05-04T12:25:32Z</time>
      </trkpt>
      <trkpt lat="39.137667" lon="-6.101283">
        <ele>1703.0</ele>
        <time>2019-05-04T12:25:33Z</time>
      </trkpt>
      <trkpt lat="39.137600" lon="-6.101300">
        <ele>1704.0</ele>
        <time>2019-05-04T12:25:34Z</time>
      </trkpt>
      <trkpt lat="39.137517" lon="-6.101283">
        <ele>1705.0</ele>
        <time>2019-05-04T12:25:35Z</time>
      </trkpt>
      <trkpt lat="39.137450" lon="-6.101283">
        <ele>1708.0</ele>
        <time>2019-05-04T12:25:36Z</time>
      </trkpt>
      <trkpt lat="39.137383" lon="-6.101283">
        <ele>1710.0</ele>
        <time>2019-05-04T12:25:37Z</time>
      </trkpt>
      <trkpt lat="39.137317" lon="-6.101300">
        <ele>1712.0</ele>
        <time>2019-05-04T12:25:38Z</time>
      </trkpt>
      <trkpt lat="39.137250" lon="-6.101333">
        <ele>1714.0</ele>
        <time>2019-05-04T12:25:39Z</time>
      </trkpt>
      <trkpt lat="39.137217" lon="-6.101400">
        <ele>1715.0</ele>
        <time>2019-05-04T12:25:40Z</time>
      </trkpt>
      <trkpt lat="39.137167" lon="-6.101483">
        <ele>1716.0</ele>
        <time>2019-05-04T12:25:41Z</time>
      </trkpt>
      <trkpt lat="39.137167" lon="-6.101600">
        <ele>1717.0</ele>
        <time>2019-05-04T12:25:42Z</time>
      </trkpt>
      <trkpt lat="39.137183" lon="-6.101717">
        <ele>1717.0</ele>
        <time>2019-05-04T12:25:43Z</time>
      </trkpt>
      <trkpt lat="39.137233" lon="-6.101817">
        <ele>1718.0</ele>
        <time>2019-05-04T12:25:44Z</time>
      </trkpt>
      <trkpt lat="39.137317" lon="-6.101900">
        <ele>1719.0</ele>
        <time>2019-05-04T12:25:45Z</time>
      </trkpt>
      <trkpt lat="39.137417" lon="-6.101933">
        <ele>1720.0</ele>
        <time>2019-05-04T12:25:46Z</time>
      </trkpt>
      <trkpt lat="39.137517" lon="-6.101917">
        <ele>1720.0</ele>
        <time>2019-05-04T12:25:47Z</time>
      </trkpt>
      <trkpt lat="39.137617" lon="-6.101850">
        <ele>1721.0</ele>
        <time>2019-05-04T12:25:48Z</time>
      </trkpt>
      <trkpt lat="39.137683" lon="-6.101767">
        <ele>1722.0</ele>
        <time>2019-05-04T12:25:49Z</time>
      </trkpt>
      <trkpt lat="39.137717" lon="-6.101683">
        <ele>1724.0</ele>
        <time>2019-05-04T12:25:50Z</time>
      </trkpt>
      <trkpt lat="39.137733" lon="-6.101583">
        <ele>1726.0</ele>
        <time>2019-05-04T12:25:51Z</time>
      </trkpt>
      <trkpt lat="39.137717" lon="-6.101483">
        <ele>1728.0</ele>
        <time>2019-05-04T12:25:52Z</time>
      </trkpt>
      <trkpt lat="39.137700" lon="-6.101400">
        <ele>1728.0</ele>
        <time>2019-05-04T12:25:53Z</time>
      </trkpt>
      <trkpt lat="39.137650" lon="-6.101333">
        <ele>1729.0</ele>
        <time>2019-05-04T12:25:54Z</time>
      </trkpt>
      <trkpt lat="39.137567" lon="-6.101300">
        <ele>1730.0</ele>
        <time>2019-05-04T12:25:55Z</time>
      </trkpt>
      <trkpt lat="39.137483" lon="-6.101317">
        <ele>1730.0</ele>
        <time>2019-05-04T12:25:56Z</time>
      </trkpt>
      <trkpt lat="39.137417" lon="-6.101367">
        <ele>1731.0</ele>
        <time>2019-05-04T12:25:57Z</time>
      </trkpt>
      <trkpt lat="39.137367" lon="-6.101467">
        <ele>1732.0</ele>
        <time>2019-05-04T12:25:58Z</time>
      </trkpt>
      <trkpt lat="39.137333" lon="-6.101567">
        <ele>1735.0</ele>
        <time>2019-05-04T12:25:59Z</time>
      </trkpt>
      <trkpt lat="39.137317" lon="-6.101667">
        <ele>1739.0</ele>
        <time>2019-05-04T12:26:00Z</time>
      </trkpt>
      <trkpt lat="39.137317" lon="-6.101767">
        <ele>1742.0</ele>
        <time>2019-05-04T12:26:01Z</time>
      </trkpt>
      <trkpt lat="39.137317" lon="-6.101850">
        <ele>1745.0</ele>
        <time>2019-05-04T12:26:02Z</time>
      </trkpt>
      <trkpt lat="39.137333" lon="-6.101950">
        <ele>1748.0</ele>
        <time>2019-05-04T12:26:03Z</time>
      </trkpt>
      <trkpt lat="39.137383" lon="-6.102017">
        <ele>1750.0</ele>
        <time>2019-05-04T12:26:04Z</time>
      </trkpt>
      <trkpt lat="39.137450" lon="-6.102083">
        <ele>1751.0</ele>
        <time>2019-05-04T12:26:05Z</time>
      </trkpt>
      <trkpt lat="39.137550" lon="-6.102083">
        <ele>1751.0</ele>
        <time>2019-05-04T12:26:06Z</time>
      </trkpt>
      <trkpt lat="39.137650" lon="-6.102033">
        <ele>1751.0</ele>
        <time>2019-05-04T12:26:07Z</time>
      </trkpt>
      <trkpt lat="39.137717" lon="-6.101917">
        <ele>1749.0</ele>
        <time>2019-05-04T12:26:08Z</time>
      </trkpt>
      <trkpt lat="39.137733" lon="-6.101800">
        <ele>1748.0</ele>
        <time>2019-05-04T12:26:09Z</time>
      </trkpt>
      <trkpt lat="39.137683" lon="-6.101683">
        <ele>1748.0</ele>
        <time>2019-05-04T12:26:10Z</time>
      </trkpt>
      <trkpt lat="39.137617" lon="-6.101617">
        <ele>1750.0</ele>
        <time>2019-05-04T12:26:11Z</time>
      </trkpt>
      <trkpt lat="39.137550" lon="-6.101583">
        <ele>1753.0</ele>
        <time>2019-05-04T12:26:12Z</time>
      </trkpt>
      <trkpt lat="39.137483" lon="-6.101567">
        <ele>1758.0</ele>
        <time>2019-05-04T12:26:13Z</time>
      </trkpt>
      <trkpt lat="39.137450" lon="-6.101567">
        <ele>1762.0</ele>
        <time>2019-05-04T12:26:14Z</time>
      </trkpt>
      <trkpt lat="39.137383" lon="-6.101550">
        <ele>1759.0</ele>
        <time>2019-05-04T12:26:15Z</time>
      </trkpt>
      <trkpt lat="39.137317" lon="-6.101567">
        <ele>1760.0</ele>
        <time>2019-05-04T12:26:16Z</time>
      </trkpt>
      <trkpt lat="39.137267" lon="-6.101617">
        <ele>1762.0</ele>
        <time>2019-05-04T12:26:17Z</time>
      </trkpt>
      <trkpt lat="39.137233" lon="-6.101733">
        <ele>1763.0</ele>
        <time>2019-05-04T12:26:18Z</time>
      </trkpt>
      <trkpt lat="39.137233" lon="-6.101850">
        <ele>1765.0</ele>
        <time>2019-05-04T12:26:19Z</time>
      </trkpt>
      <trkpt lat="39.137300" lon="-6.101967">
        <ele>1766.0</ele>
        <time>2019-05-04T12:26:20Z</time>
      </trkpt>
      <trkpt lat="39.137383" lon="-6.102033">
        <ele>1769.0</ele>
        <time>2019-05-04T12:26:21Z</time>
      </trkpt>
      <trkpt lat="39.137467" lon="-6.102050">
        <ele>1772.0</ele>
        <time>2019-05-04T12:26:22Z</time>
      </trkpt>
      <trkpt lat="39.137550" lon="-6.102017">
        <ele>1775.0</ele>
        <time>2019-05-04T12:26:23Z</time>
      </trkpt>
      <trkpt lat="39.137617" lon="-6.101967">
        <ele>1778.0</ele>
        <time>2019-05-04T12:26:24Z</time>
      </trkpt>
      <trkpt lat="39.137667" lon="-6.101883">
        <ele>1779.0</ele>
        <time>2019-05-04T12:26:25Z</time>
      </trkpt>
      <trkpt lat="39.137717" lon="-6.101783">
        <ele>1781.0</ele>
        <time>2019-05-04T12:26:26Z</time>
      </trkpt>
      <trkpt lat="39.137767" lon="-6.101683">
        <ele>1783.0</ele>
        <time>2019-05-04T12:26:27Z</time>
      </trkpt>
      <trkpt lat="39.137783" lon="-6.101600">
        <ele>1787.0</ele>
        <time>2019-05-04T12:26:28Z</time>
      </trkpt>
      <trkpt lat="39.137783" lon="-6.101517">
        <ele>1790.0</ele>
        <time>2019-05-04T12:26:29Z</time>
      </trkpt>
      <trkpt lat="39.137750" lon="-6.101433">
        <ele>1793.0</ele>
        <time>2019-05-04T12:26:30Z</time>
      </trkpt>
      <trkpt lat="39.137700" lon="-6.101383">
        <ele>1796.0</ele>
        <time>2019-05-04T12:26:31Z</time>
      </trkpt>
      <trkpt lat="39.137650" lon="-6.101333">
        <ele>1799.0</ele>
        <time>2019-05-04T12:26:32Z</time>
      </trkpt>
      <trkpt lat="39.137600" lon="-6.101283">
        <ele>1803.0</ele>
        <time>2019-05-04T12:26:33Z</time>
      </trkpt>
      <trkpt lat="39.137550" lon="-6.101250">
        <ele>1806.0</ele>
        <time>2019-05-04T12:26:34Z</time>
      </trkpt>
      <trkpt lat="39.137467" lon="-6.101233">
        <ele>1809.0</ele>
        <time>2019-05-04T12:26:35Z</time>
      </trkpt>
      <trkpt lat="39.137400" lon="-6.101267">
        <ele>1812.0</ele>
        <time>2019-05-04T12:26:36Z</time>
      </trkpt>
      <trkpt lat="39.137317" lon="-6.101350">
        <ele>1814.0</ele>
        <time>2019-05-04T12:26:37Z</time>
      </trkpt>
      <trkpt lat="39.137283" lon="-6.101467">
        <ele>1816.0</ele>
        <time>2019-05-04T12:26:38Z</time>
      </trkpt>
      <trkpt lat="39.137267" lon="-6.101583">
        <ele>1818.0</ele>
        <time>2019-05-04T12:26:39Z</time>
      </trkpt>
      <trkpt lat="39.137267" lon="-6.101717">
        <ele>1821.0</ele>
        <time>2019-05-04T12:26:40Z</time>
      </trkpt>
      <trkpt lat="39.137317" lon="-6.101817">
        <ele>1824.0</ele>
        <time>2019-05-04T12:26:41Z</time>
      </trkpt>
      <trkpt lat="39.137400" lon="-6.101883">
        <ele>1827.0</ele>
        <time>2019-05-04T12:26:42Z</time>
      </trkpt>
      <trkpt lat="39.137483" lon="-6.101950">
        <ele>1829.0</ele>
        <time>2019-05-04T12:26:43Z</time>
      </trkpt>
      <trkpt lat="39.137567" lon="-6.101983">
        <ele>1831.0</ele>
        <time>2019-05-04T12:26:44Z</time>
      </trkpt>
      <trkpt lat="39.137667" lon="-6.101983">
        <ele>1833.0</ele>
        <time>2019-05-04T12:26:45Z</time>
      </trkpt>
      <trkpt lat="39.137750" lon="-6.101950">
        <ele>1836.0</ele>
        <time>2019-05-04T12:26:46Z</time>
      </trkpt>
      <trkpt lat="39.137817" lon="-6.101883">
        <ele>1838.0</ele>
        <time>2019-05-04T12:26:47Z</time>
      </trkpt>
      <trkpt lat="39.137850" lon="-6.101783">
        <ele>1840.0</ele>
        <time>2019-05-04T12:26:48Z</time>
      </trkpt>
      <trkpt lat="39.137850" lon="-6.101683">
        <ele>1842.0</ele>
        <time>2019-05-04T12:26:49Z</time>
      </trkpt>
      <trkpt lat="39.137817" lon="-6.101600">
        <ele>1843.0</ele>
        <time>2019-05-04T12:26:50Z</time>
      </trkpt>
      <trkpt lat="39.137750" lon="-6.101567">
        <ele>1845.0</ele>
        <time>2019-05-04T12:26:51Z</time>
      </trkpt>
      <trkpt lat="39.137683" lon="-6.101567">
        <ele>1847.0</ele>
        <time>2019-05-04T12:26:52Z</time>
      </trkpt>
      <trkpt lat="39.137600" lon="-6.101600">
        <ele>1849.0</ele>
        <time>2019-05-04T12:26:53Z</time>
      </trkpt>
      <trkpt lat="39.137533" lon="-6.101667">
        <ele>1851.0</ele>
        <time>2019-05-04T12:26:54Z</time>
      </trkpt>
      <trkpt lat="39.137500" lon="-6.101767">
        <ele>1853.0</ele>
        <time>2019-05-04T12:26:55Z</time>
      </trkpt>
      <trkpt lat="39.137483" lon="-6.101883">
        <ele>1856.0</ele>
        <time>2019-05-04T12:26:56Z</time>
      </trkpt>
      <trkpt lat="39.137483" lon="-6.102000">
        <ele>1859.0</ele>
        <time>2019-05-04T12:26:57Z</time>
      </trkpt>
      <trkpt lat="39.137500" lon="-6.102117">
        <ele>1862.0</ele>
        <time>2019-05-04T12:26:58Z</time>
      </trkpt>
      <trkpt lat="39.137550" lon="-6.102217">
        <ele>1864.0</ele>
        <time>2019-05-04T12:26:59Z</time>
      </trkpt>
      <trkpt lat="39.137617" lon="-6.102300">
        <ele>1867.0</ele>
        <time>2019-05-04T12:27:00Z</time>
      </trkpt>
      <trkpt lat="39.137700" lon="-6.102350">
        <ele>1868.0</ele>
        <time>2019-05-04T12:27:01Z</time>
      </trkpt>
      <trkpt lat="39.137800" lon="-6.102367">
        <ele>1870.0</ele>
        <time>2019-05-04T12:27:02Z</time>
      </trkpt>
      <trkpt lat="39.137900" lon="-6.102333">
        <ele>1871.0</ele>
        <time>2019-05-04T12:27:03Z</time>
      </trkpt>
      <trkpt lat="39.137983" lon="-6.102267">
        <ele>1872.0</ele>
        <time>2019-05-04T12:27:04Z</time>
      </trkpt>
      <trkpt lat="39.138033" lon="-6.102183">
        <ele>1873.0</ele>
        <time>2019-05-04T12:27:05Z</time>
      </trkpt>
      <trkpt lat="39.138067" lon="-6.102083">
        <ele>1874.0</ele>
        <time>2019-05-04T12:27:06Z</time>
      </trkpt>
      <trkpt lat="39.138050" lon="-6.101983">
        <ele>1876.0</ele>
        <time>2019-05-04T12:27:07Z</time>
      </trkpt>
      <trkpt lat="39.138033" lon="-6.101900">
        <ele>1878.0</ele>
        <time>2019-05-04T12:27:08Z</time>
      </trkpt>
      <trkpt lat="39.137983" lon="-6.101850">
        <ele>1880.0</ele>
        <time>2019-05-04T12:27:09Z</time>
      </trkpt>
      <trkpt lat="39.137933" lon="-6.101800">
        <ele>1883.0</ele>
        <time>2019-05-04T12:27:10Z</time>
      </trkpt>
      <trkpt lat="39.137850" lon="-6.101783">
        <ele>1885.0</ele>
        <time>2019-05-04T12:27:11Z</time>
      </trkpt>
      <trkpt lat="39.137783" lon="-6.101783">
        <ele>1888.0</ele>
        <time>2019-05-04T12:27:12Z</time>
      </trkpt>
      <trkpt lat="39.137717" lon="-6.101817">
        <ele>1890.0</ele>
        <time>2019-05-04T12:27:13Z</time>
      </trkpt>
      <trkpt lat="39.137667" lon="-6.101883">
        <ele>1892.0</ele>
        <time>2019-05-04T12:27:14Z</time>
      </trkpt>
      <trkpt lat="39.137617" lon="-6.101967">
        <ele>1894.0</ele>
        <time>2019-05-04T12:27:15Z</time>
      </trkpt>
      <trkpt lat="39.137600" lon="-6.102083">
        <ele>1896.0</ele>
        <time>2019-05-04T12:27:16Z</time>
      </trkpt>
      <trkpt lat="39.137617" lon="-6.102217">
        <ele>1898.0</ele>
        <time>2019-05-04T12:27:17Z</time>
      </trkpt>
      <trkpt lat="39.137683" lon="-6.102333">
        <ele>1899.0</ele>
        <time>2019-05-04T12:27:18Z</time>
      </trkpt>
      <trkpt lat="39.137767" lon="-6.102417">
        <ele>1900.0</ele>
        <time>2019-05-04T12:27:19Z</time>
      </trkpt>
      <trkpt lat="39.137867" lon="-6.102450">
        <ele>1901.0</ele>
        <time>2019-05-04T12:27:20Z</time>
      </trkpt>
      <trkpt lat="39.137950" lon="-6.102450">
        <ele>1903.0</ele>
        <time>2019-05-04T12:27:21Z</time>
      </trkpt>
      <trkpt lat="39.138050" lon="-6.102417">
        <ele>1904.0</ele>
        <time>2019-05-04T12:27:22Z</time>
      </trkpt>
      <trkpt lat="39.138117" lon="-6.102350">
        <ele>1906.0</ele>
        <time>2019-05-04T12:27:23Z</time>
      </trkpt>
      <trkpt lat="39.138150" lon="-6.102250">
        <ele>1907.0</ele>
        <time>2019-05-04T12:27:24Z</time>
      </trkpt>
      <trkpt lat="39.138150" lon="-6.102150">
        <ele>1908.0</ele>
        <time>2019-05-04T12:27:25Z</time>
      </trkpt>
      <trkpt lat="39.138100" lon="-6.102083">
        <ele>1909.0</ele>
        <time>2019-05-04T12:27:26Z</time>
      </trkpt>
      <trkpt lat="39.138033" lon="-6.102050">
        <ele>1910.0</ele>
        <time>2019-05-04T12:27:27Z</time>
      </trkpt>
      <trkpt lat="39.137967" lon="-6.102033">
        <ele>1912.0</ele>
        <time>2019-05-04T12:27:28Z</time>
      </trkpt>
      <trkpt lat="39.137900" lon="-6.102033">
        <ele>1915.0</ele>
        <time>2019-05-04T12:27:29Z</time>
      </trkpt>
      <trkpt lat="39.137833" lon="-6.102050">
        <ele>1917.0</ele>
        <time>2019-05-04T12:27:30Z</time>
      </trkpt>
      <trkpt lat="39.137767" lon="-6.102083">
        <ele>1919.0</ele>
        <time>2019-05-04T12:27:31Z</time>
      </trkpt>
      <trkpt lat="39.137700" lon="-6.102150">
        <ele>1920.0</ele>
        <time>2019-05-04T12:27:32Z</time>
      </trkpt>
      <trkpt lat="39.137667" lon="-6.102233">
        <ele>1921.0</ele>
        <time>2019-05-04T12:27:33Z</time>
      </trkpt>
      <trkpt lat="39.137667" lon="-6.102333">
        <ele>1922.0</ele>
        <time>2019-05-04T12:27:34Z</time>
      </trkpt>
      <trkpt lat="39.137717" lon="-6.102433">
        <ele>1922.0</ele>
        <time>2019-05-04T12:27:35Z</time>
      </trkpt>
      <trkpt lat="39.137800" lon="-6.102500">
        <ele>1922.0</ele>
        <time>2019-05-04T12:27:36Z</time>
      </trkpt>
      <trkpt lat="39.137883" lon="-6.102567">
        <ele>1922.0</ele>
        <time>2019-05-04T12:27:37Z</time>
      </trkpt>
      <trkpt lat="39.137967" lon="-6.102600">
        <ele>1923.0</ele>
        <time>2019-05-04T12:27:38Z</time>
      </trkpt>
      <trkpt lat="39.138067" lon="-6.102617">
        <ele>1923.0</ele>
        <time>2019-05-04T12:27:39Z</time>
      </trkpt>
      <trkpt lat="39.138150" lon="-6.102600">
        <ele>1924.0</ele>
        <time>2019-05-04T12:27:40Z</time>
      </trkpt>
      <trkpt lat="39.138233" lon="-6.102567">
        <ele>1924.0</ele>
        <time>2019-05-04T12:27:41Z</time>
      </trkpt>
      <trkpt lat="39.138317" lon="-6.102483">
        <ele>1924.0</ele>
        <time>2019-05-04T12:27:42Z</time>
      </trkpt>
      <trkpt lat="39.138333" lon="-6.102383">
        <ele>1924.0</ele>
        <time>2019-05-04T12:27:43Z</time>
      </trkpt>
      <trkpt lat="39.138350" lon="-6.102300">
        <ele>1926.0</ele>
        <time>2019-05-04T12:27:44Z</time>
      </trkpt>
      <trkpt lat="39.138350" lon="-6.102217">
        <ele>1927.0</ele>
        <time>2019-05-04T12:27:45Z</time>
      </trkpt>
      <trkpt lat="39.138333" lon="-6.102117">
        <ele>1928.0</ele>
        <time>2019-05-04T12:27:46Z</time>
      </trkpt>
      <trkpt lat="39.138317" lon="-6.102033">
        <ele>1929.0</ele>
        <time>2019-05-04T12:27:47Z</time>
      </trkpt>
      <trkpt lat="39.138283" lon="-6.101950">
        <ele>1931.0</ele>
        <time>2019-05-04T12:27:48Z</time>
      </trkpt>
      <trkpt lat="39.138217" lon="-6.101867">
        <ele>1931.0</ele>
        <time>2019-05-04T12:27:49Z</time>
      </trkpt>
      <trkpt lat="39.138150" lon="-6.101800">
        <ele>1932.0</ele>
        <time>2019-05-04T12:27:50Z</time>
      </trkpt>
      <trkpt lat="39.138083" lon="-6.101750">
        <ele>1934.0</ele>
        <time>2019-05-04T12:27:51Z</time>
      </trkpt>
      <trkpt lat="39.138033" lon="-6.101750">
        <ele>1939.0</ele>
        <time>2019-05-04T12:27:52Z</time>
      </trkpt>
      <trkpt lat="39.137983" lon="-6.101750">
        <ele>1942.0</ele>
        <time>2019-05-04T12:27:53Z</time>
      </trkpt>
      <trkpt lat="39.137933" lon="-6.101767">
        <ele>1944.0</ele>
        <time>2019-05-04T12:27:54Z</time>
      </trkpt>
      <trkpt lat="39.137867" lon="-6.101800">
        <ele>1946.0</ele>
        <time>2019-05-04T12:27:55Z</time>
      </trkpt>
      <trkpt lat="39.137800" lon="-6.101867">
        <ele>1948.0</ele>
        <time>2019-05-04T12:27:56Z</time>
      </trkpt>
      <trkpt lat="39.137767" lon="-6.101983">
        <ele>1950.0</ele>
        <time>2019-05-04T12:27:57Z</time>
      </trkpt>
      <trkpt lat="39.137783" lon="-6.102117">
        <ele>1952.0</ele>
        <time>2019-05-04T12:27:58Z</time>
      </trkpt>
      <trkpt lat="39.137833" lon="-6.102233">
        <ele>1953.0</ele>
        <time>2019-05-04T12:27:59Z</time>
      </trkpt>
      <trkpt lat="39.137917" lon="-6.102300">
        <ele>1955.0</ele>
        <time>2019-05-04T12:28:00Z</time>
      </trkpt>
      <trkpt lat="39.138017" lon="-6.102300">
        <ele>1954.0</ele>
        <time>2019-05-04T12:28:01Z</time>
      </trkpt>
      <trkpt lat="39.138117" lon="-6.102250">
        <ele>1953.0</ele>
        <time>2019-05-04T12:28:02Z</time>
      </trkpt>
      <trkpt lat="39.138200" lon="-6.102167">
        <ele>1952.0</ele>
        <time>2019-05-04T12:28:03Z</time>
      </trkpt>
      <trkpt lat="39.138233" lon="-6.102067">
        <ele>1953.0</ele>
        <time>2019-05-04T12:28:04Z</time>
      </trkpt>
      <trkpt lat="39.138250" lon="-6.101967">
        <ele>1953.0</ele>
        <time>2019-05-04T12:28:05Z</time>
      </trkpt>
      <trkpt lat="39.138217" lon="-6.101867">
        <ele>1952.0</ele>
        <time>2019-05-04T12:28:06Z</time>
      </trkpt>
      <trkpt lat="39.138183" lon="-6.101767">
        <ele>1952.0</ele>
        <time>2019-05-04T12:28:07Z</time>
      </trkpt>
      <trkpt lat="39.138117" lon="-6.101683">
        <ele>1955.0</ele>
        <time>2019-05-04T12:28:08Z</time>
      </trkpt>
      <trkpt lat="39.138067" lon="-6.101617">
        <ele>1958.0</ele>
        <time>2019-05-04T12:28:09Z</time>
      </trkpt>
      <trkpt lat="39.138017" lon="-6.101550">
        <ele>1962.0</ele>
        <time>2019-05-04T12:28:10Z</time>
      </trkpt>
      <trkpt lat="39.137950" lon="-6.101517">
        <ele>1964.0</ele>
        <time>2019-05-04T12:28:11Z</time>
      </trkpt>
      <trkpt lat="39.137867" lon="-6.101517">
        <ele>1967.0</ele>
        <time>2019-05-04T12:28:12Z</time>
      </trkpt>
      <trkpt lat="39.137783" lon="-6.101533">
        <ele>1968.0</ele>
        <time>2019-05-04T12:28:13Z</time>
      </trkpt>
      <trkpt lat="39.137700" lon="-6.101583">
        <ele>1970.0</ele>
        <time>2019-05-04T12:28:14Z</time>
      </trkpt>
      <trkpt lat="39.137633" lon="-6.101683">
        <ele>1971.0</ele>
        <time>2019-05-04T12:28:15Z</time>
      </trkpt>
      <trkpt lat="39.137600" lon="-6.101800">
        <ele>1972.0</ele>
        <time>2019-05-04T12:28:16Z</time>
      </trkpt>
      <trkpt lat="39.137583" lon="-6.101950">
        <ele>1973.0</ele>
        <time>2019-05-04T12:28:17Z</time>
      </trkpt>
      <trkpt lat="39.137633" lon="-6.102100">
        <ele>1974.0</ele>
        <time>2019-05-04T12:28:18Z</time>
      </trkpt>
      <trkpt lat="39.137700" lon="-6.102200">
        <ele>1974.0</ele>
        <time>2019-05-04T12:28:19Z</time>
      </trkpt>
      <trkpt lat="39.137817" lon="-6.102250">
        <ele>1974.0</ele>
        <time>2019-05-04T12:28:20Z</time>
      </trkpt>
      <trkpt lat="39.137900" lon="-6.102233">
        <ele>1974.0</ele>
        <time>2019-05-04T12:28:21Z</time>
      </trkpt>
      <trkpt lat="39.137983" lon="-6.102167">
        <ele>1975.0</ele>
        <time>2019-05-04T12:28:22Z</time>
      </trkpt>
      <trkpt lat="39.138033" lon="-6.102100">
        <ele>1978.0</ele>
        <time>2019-05-04T12:28:23Z</time>
      </trkpt>
      <trkpt lat="39.138050" lon="-6.102000">
        <ele>1979.0</ele>
        <time>2019-05-04T12:28:24Z</time>
      </trkpt>
      <trkpt lat="39.138033" lon="-6.101917">
        <ele>1980.0</ele>
        <time>2019-05-04T12:28:25Z</time>
      </trkpt>
      <trkpt lat="39.137967" lon="-6.101850">
        <ele>1981.0</ele>
        <time>2019-05-04T12:28:26Z</time>
      </trkpt>
      <trkpt lat="39.137900" lon="-6.101833">
        <ele>1982.0</ele>
        <time>2019-05-04T12:28:27Z</time>
      </trkpt>
      <trkpt lat="39.137800" lon="-6.101850">
        <ele>1982.0</ele>
        <time>2019-05-04T12:28:28Z</time>
      </trkpt>
      <trkpt lat="39.137717" lon="-6.101917">
        <ele>1983.0</ele>
        <time>2019-05-04T12:28:29Z</time>
      </trkpt>
      <trkpt lat="39.137650" lon="-6.102017">
        <ele>1985.0</ele>
        <time>2019-05-04T12:28:30Z</time>
      </trkpt>
      <trkpt lat="39.137633" lon="-6.102133">
        <ele>1986.0</ele>
        <time>2019-05-04T12:28:31Z</time>
      </trkpt>
      <trkpt lat="39.137650" lon="-6.102267">
        <ele>1987.0</ele>
        <time>2019-05-04T12:28:32Z</time>
      </trkpt>
      <trkpt lat="39.137683" lon="-6.102400">
        <ele>1988.0</ele>
        <time>2019-05-04T12:28:33Z</time>
      </trkpt>
      <trkpt lat="39.137750" lon="-6.102500">
        <ele>1989.0</ele>
        <time>2019-05-04T12:28:34Z</time>
      </trkpt>
      <trkpt lat="39.137833" lon="-6.102567">
        <ele>1989.0</ele>
        <time>2019-05-04T12:28:35Z</time>
      </trkpt>
      <trkpt lat="39.137917" lon="-6.102583">
        <ele>1991.0</ele>
        <time>2019-05-04T12:28:36Z</time>
      </trkpt>
      <trkpt lat="39.138000" lon="-6.102567">
        <ele>1991.0</ele>
        <time>2019-05-04T12:28:37Z</time>
      </trkpt>
      <trkpt lat="39.138083" lon="-6.102533">
        <ele>1990.0</ele>
        <time>2019-05-04T12:28:38Z</time>
      </trkpt>
      <trkpt lat="39.138150" lon="-6.102467">
        <ele>1990.0</ele>
        <time>2019-05-04T12:28:39Z</time>
      </trkpt>
      <trkpt lat="39.138200" lon="-6.102383">
        <ele>1990.0</ele>
        <time>2019-05-04T12:28:40Z</time>
      </trkpt>
      <trkpt lat="39.138217" lon="-6.102283">
        <ele>1989.0</ele>
        <time>2019-05-04T12:28:41Z</time>
      </trkpt>
      <trkpt lat="39.138217" lon="-6.102183">
        <ele>1989.0</ele>
        <time>2019-05-04T12:28:42Z</time>
      </trkpt>
      <trkpt lat="39.138200" lon="-6.102100">
        <ele>1990.0</ele>
        <time>2019-05-04T12:28:43Z</time>
      </trkpt>
      <trkpt lat="39.138150" lon="-6.102017">
        <ele>1993.0</ele>
        <time>2019-05-04T12:28:44Z</time>
      </trkpt>
      <trkpt lat="39.138117" lon="-6.101950">
        <ele>1997.0</ele>
        <time>2019-05-04T12:28:45Z</time>
      </trkpt>
      <trkpt lat="39.138050" lon="-6.101917">
        <ele>2000.0</ele>
        <time>2019-05-04T12:28:46Z</time>
      </trkpt>
      <trkpt lat="39.137983" lon="-6.101917">
        <ele>2002.0</ele>
        <time>2019-05-04T12:28:47Z</time>
      </trkpt>
      <trkpt lat="39.137917" lon="-6.101933">
        <ele>2003.0</ele>
        <time>2019-05-04T12:28:48Z</time>
      </trkpt>
      <trkpt lat="39.137833" lon="-6.101983">
        <ele>2005.0</ele>
        <time>2019-05-04T12:28:49Z</time>
      </trkpt>
      <trkpt lat="39.137750" lon="-6.102067">
        <ele>2006.0</ele>
        <time>2019-05-04T12:28:50Z</time>
      </trkpt>
      <trkpt lat="39.137700" lon="-6.102200">
        <ele>2007.0</ele>
        <time>2019-05-04T12:28:51Z</time>
      </trkpt>
      <trkpt lat="39.137700" lon="-6.102350">
        <ele>2008.0</ele>
        <time>2019-05-04T12:28:52Z</time>
      </trkpt>
      <trkpt lat="39.137750" lon="-6.102483">
        <ele>2009.0</ele>
        <time>2019-05-04T12:28:53Z</time>
      </trkpt>
      <trkpt lat="39.137850" lon="-6.102567">
        <ele>2009.0</ele>
        <time>2019-05-04T12:28:54Z</time>
      </trkpt>
      <trkpt lat="39.137950" lon="-6.102583">
        <ele>2010.0</ele>
        <time>2019-05-04T12:28:55Z</time>
      </trkpt>
      <trkpt lat="39.138033" lon="-6.102583">
        <ele>2010.0</ele>
        <time>2019-05-04T12:28:56Z</time>
      </trkpt>
      <trkpt lat="39.138100" lon="-6.102550">
        <ele>2012.0</ele>
        <time>2019-05-04T12:28:57Z</time>
      </trkpt>
      <trkpt lat="39.138167" lon="-6.102500">
        <ele>2012.0</ele>
        <time>2019-05-04T12:28:58Z</time>
      </trkpt>
      <trkpt lat="39.138200" lon="-6.102433">
        <ele>2013.0</ele>
        <time>2019-05-04T12:28:59Z</time>
      </trkpt>
      <trkpt lat="39.138233" lon="-6.102350">
        <ele>2013.0</ele>
        <time>2019-05-04T12:29:00Z</time>
      </trkpt>
      <trkpt lat="39.138233" lon="-6.102267">
        <ele>2014.0</ele>
        <time>2019-05-04T12:29:01Z</time>
      </trkpt>
      <trkpt lat="39.138233" lon="-6.102167">
        <ele>2015.0</ele>
        <time>2019-05-04T12:29:02Z</time>
      </trkpt>
      <trkpt lat="39.138200" lon="-6.102083">
        <ele>2016.0</ele>
        <time>2019-05-04T12:29:03Z</time>
      </trkpt>
      <trkpt lat="39.138150" lon="-6.102033">
        <ele>2018.0</ele>
        <time>2019-05-04T12:29:04Z</time>
      </trkpt>
      <trkpt lat="39.138083" lon="-6.102000">
        <ele>2019.0</ele>
        <time>2019-05-04T12:29:05Z</time>
      </trkpt>
      <trkpt lat="39.138017" lon="-6.101967">
        <ele>2021.0</ele>
        <time>2019-05-04T12:29:06Z</time>
      </trkpt>
      <trkpt lat="39.137950" lon="-6.101950">
        <ele>2023.0</ele>
        <time>2019-05-04T12:29:07Z</time>
      </trkpt>
      <trkpt lat="39.137883" lon="-6.101950">
        <ele>2026.0</ele>
        <time>2019-05-04T12:29:08Z</time>
      </trkpt>
      <trkpt lat="39.137800" lon="-6.101933">
        <ele>2028.0</ele>
        <time>2019-05-04T12:29:09Z</time>
      </trkpt>
      <trkpt lat="39.137717" lon="-6.101950">
        <ele>2030.0</ele>
        <time>2019-05-04T12:29:10Z</time>
      </trkpt>
      <trkpt lat="39.137650" lon="-6.101983">
        <ele>2032.0</ele>
        <time>2019-05-04T12:29:11Z</time>
      </trkpt>
      <trkpt lat="39.137567" lon="-6.102017">
        <ele>2034.0</ele>
        <time>2019-05-04T12:29:12Z</time>
      </trkpt>
      <trkpt lat="39.137500" lon="-6.102083">
        <ele>2035.0</ele>
        <time>2019-05-04T12:29:13Z</time>
      </trkpt>
      <trkpt lat="39.137450" lon="-6.102167">
        <ele>2037.0</ele>
        <time>2019-05-04T12:29:14Z</time>
      </trkpt>
      <trkpt lat="39.137400" lon="-6.102300">
        <ele>2037.0</ele>
        <time>2019-05-04T12:29:15Z</time>
      </trkpt>
      <trkpt lat="39.137367" lon="-6.102433">
        <ele>2037.0</ele>
        <time>2019-05-04T12:29:16Z</time>
      </trkpt>
      <trkpt lat="39.137400" lon="-6.102583">
        <ele>2038.0</ele>
        <time>2019-05-04T12:29:17Z</time>
      </trkpt>
      <trkpt lat="39.137450" lon="-6.102700">
        <ele>2038.0</ele>
        <time>2019-05-04T12:29:18Z</time>
      </trkpt>
      <trkpt lat="39.137500" lon="-6.102783">
        <ele>2039.0</ele>
        <time>2019-05-04T12:29:19Z</time>
      </trkpt>
      <trkpt lat="39.137567" lon="-6.102850">
        <ele>2040.0</ele>
        <time>2019-05-04T12:29:20Z</time>
      </trkpt>
      <trkpt lat="39.137617" lon="-6.102917">
        <ele>2040.0</ele>
        <time>2019-05-04T12:29:21Z</time>
      </trkpt>
      <trkpt lat="39.137700" lon="-6.102967">
        <ele>2039.0</ele>
        <time>2019-05-04T12:29:22Z</time>
      </trkpt>
      <trkpt lat="39.137767" lon="-6.102983">
        <ele>2038.0</ele>
        <time>2019-05-04T12:29:23Z</time>
      </trkpt>
      <trkpt lat="39.137867" lon="-6.102967">
        <ele>2036.0</ele>
        <time>2019-05-04T12:29:24Z</time>
      </trkpt>
      <trkpt lat="39.137933" lon="-6.102917">
        <ele>2036.0</ele>
        <time>2019-05-04T12:29:25Z</time>
      </trkpt>
      <trkpt lat="39.138000" lon="-6.102850">
        <ele>2036.0</ele>
        <time>2019-05-04T12:29:26Z</time>
      </trkpt>
      <trkpt lat="39.138050" lon="-6.102783">
        <ele>2037.0</ele>
        <time>2019-05-04T12:29:27Z</time>
      </trkpt>
      <trkpt lat="39.138083" lon="-6.102717">
        <ele>2037.0</ele>
        <time>2019-05-04T12:29:28Z</time>
      </trkpt>
      <trkpt lat="39.138100" lon="-6.102617">
        <ele>2037.0</ele>
        <time>2019-05-04T12:29:29Z</time>
      </trkpt>
      <trkpt lat="39.138100" lon="-6.102517">
        <ele>2037.0</ele>
        <time>2019-05-04T12:29:30Z</time>
      </trkpt>
      <trkpt lat="39.138067" lon="-6.102417">
        <ele>2037.0</ele>
        <time>2019-05-04T12:29:31Z</time>
      </trkpt>
      <trkpt lat="39.138033" lon="-6.102350">
        <ele>2038.0</ele>
        <time>2019-05-04T12:29:32Z</time>
      </trkpt>
      <trkpt lat="39.137983" lon="-6.102283">
        <ele>2041.0</ele>
        <time>2019-05-04T12:29:33Z</time>
      </trkpt>
      <trkpt lat="39.137933" lon="-6.102250">
        <ele>2044.0</ele>
        <time>2019-05-04T12:29:34Z</time>
      </trkpt>
      <trkpt lat="39.137883" lon="-6.102200">
        <ele>2046.0</ele>
        <time>2019-05-04T12:29:35Z</time>
      </trkpt>
      <trkpt lat="39.137833" lon="-6.102167">
        <ele>2048.0</ele>
        <time>2019-05-04T12:29:36Z</time>
      </trkpt>
      <trkpt lat="39.137750" lon="-6.102150">
        <ele>2049.0</ele>
        <time>2019-05-04T12:29:37Z</time>
      </trkpt>
      <trkpt lat="39.137667" lon="-6.102167">
        <ele>2049.0</ele>
        <time>2019-05-04T12:29:38Z</time>
      </trkpt>
      <trkpt lat="39.137600" lon="-6.102217">
        <ele>2051.0</ele>
        <time>2019-05-04T12:29:39Z</time>
      </trkpt>
      <trkpt lat="39.137533" lon="-6.102267">
        <ele>2052.0</ele>
        <time>2019-05-04T12:29:40Z</time>
      </trkpt>
      <trkpt lat="39.137467" lon="-6.102350">
        <ele>2053.0</ele>
        <time>2019-05-04T12:29:41Z</time>
      </trkpt>
      <trkpt lat="39.137433" lon="-6.102450">
        <ele>2055.0</ele>
        <time>2019-05-04T12:29:42Z</time>
      </trkpt>
      <trkpt lat="39.137400" lon="-6.102550">
        <ele>2056.0</ele>
        <time>2019-05-04T12:29:43Z</time>
      </trkpt>
      <trkpt lat="39.137383" lon="-6.102667">
        <ele>2057.0</ele>
        <time>2019-05-04T12:29:44Z</time>
      </trkpt>
      <trkpt lat="39.137417" lon="-6.102767">
        <ele>2058.0</ele>
        <time>2019-05-04T12:29:45Z</time>
      </trkpt>
      <trkpt lat="39.137467" lon="-6.102850">
        <ele>2059.0</ele>
        <time>2019-05-04T12:29:46Z</time>
      </trkpt>
      <trkpt lat="39.137550" lon="-6.102883">
        <ele>2059.0</ele>
        <time>2019-05-04T12:29:47Z</time>
      </trkpt>
      <trkpt lat="39.137633" lon="-6.102900">
        <ele>2058.0</ele>
        <time>2019-05-04T12:29:48Z</time>
      </trkpt>
      <trkpt lat="39.137700" lon="-6.102883">
        <ele>2059.0</ele>
        <time>2019-05-04T12:29:49Z</time>
      </trkpt>
      <trkpt lat="39.137767" lon="-6.102850">
        <ele>2061.0</ele>
        <time>2019-05-04T12:29:50Z</time>
      </trkpt>
      <trkpt lat="39.137817" lon="-6.102783">
        <ele>2061.0</ele>
        <time>2019-05-04T12:29:51Z</time>
      </trkpt>
      <trkpt lat="39.137867" lon="-6.102700">
        <ele>2061.0</ele>
        <time>2019-05-04T12:29:52Z</time>
      </trkpt>
      <trkpt lat="39.137883" lon="-6.102600">
        <ele>2060.0</ele>
        <time>2019-05-04T12:29:53Z</time>
      </trkpt>
      <trkpt lat="39.137883" lon="-6.102500">
        <ele>2060.0</ele>
        <time>2019-05-04T12:29:54Z</time>
      </trkpt>
      <trkpt lat="39.137867" lon="-6.102400">
        <ele>2060.0</ele>
        <time>2019-05-04T12:29:55Z</time>
      </trkpt>
      <trkpt lat="39.137833" lon="-6.102333">
        <ele>2062.0</ele>
        <time>2019-05-04T12:29:56Z</time>
      </trkpt>
      <trkpt lat="39.137800" lon="-6.102250">
        <ele>2064.0</ele>
        <time>2019-05-04T12:29:57Z</time>
      </trkpt>
      <trkpt lat="39.137767" lon="-6.102183">
        <ele>2065.0</ele>
        <time>2019-05-04T12:29:58Z</time>
      </trkpt>
      <trkpt lat="39.137700" lon="-6.102117">
        <ele>2065.0</ele>
        <time>2019-05-04T12:29:59Z</time>
      </trkpt>
      <trkpt lat="39.137633" lon="-6.102067">
        <ele>2066.0</ele>
        <time>2019-05-04T12:30:00Z</time>
      </trkpt>
      <trkpt lat="39.137567" lon="-6.102050">
        <ele>2067.0</ele>
        <time>2019-05-04T12:30:01Z</time>
      </trkpt>
      <trkpt lat="39.137483" lon="-6.102067">
        <ele>2067.0</ele>
        <time>2019-05-04T12:30:02Z</time>
      </trkpt>
      <trkpt lat="39.137400" lon="-6.102100">
        <ele>2068.0</ele>
        <time>2019-05-04T12:30:03Z</time>
      </trkpt>
      <trkpt lat="39.137300" lon="-6.102117">
        <ele>2068.0</ele>
        <time>2019-05-04T12:30:04Z</time>
      </trkpt>
      <trkpt lat="39.137233" lon="-6.102150">
        <ele>2069.0</ele>
        <time>2019-05-04T12:30:05Z</time>
      </trkpt>
      <trkpt lat="39.137167" lon="-6.102200">
        <ele>2071.0</ele>
        <time>2019-05-04T12:30:06Z</time>
      </trkpt>
      <trkpt lat="39.137100" lon="-6.102250">
        <ele>2073.0</ele>
        <time>2019-05-04T12:30:07Z</time>
      </trkpt>
      <trkpt lat="39.137033" lon="-6.102317">
        <ele>2074.0</ele>
        <time>2019-05-04T12:30:08Z</time>
      </trkpt>
      <trkpt lat="39.136967" lon="-6.102400">
        <ele>2076.0</ele>
        <time>2019-05-04T12:30:09Z</time>
      </trkpt>
      <trkpt lat="39.136917" lon="-6.102500">
        <ele>2078.0</ele>
        <time>2019-05-04T12:30:10Z</time>
      </trkpt>
      <trkpt lat="39.136900" lon="-6.102617">
        <ele>2080.0</ele>
        <time>2019-05-04T12:30:11Z</time>
      </trkpt>
      <trkpt lat="39.136900" lon="-6.102750">
        <ele>2080.0</ele>
        <time>2019-05-04T12:30:12Z</time>
      </trkpt>
      <trkpt lat="39.136933" lon="-6.102850">
        <ele>2081.0</ele>
        <time>2019-05-04T12:30:13Z</time>
      </trkpt>
      <trkpt lat="39.136967" lon="-6.102950">
        <ele>2083.0</ele>
        <time>2019-05-04T12:30:14Z</time>
      </trkpt>
      <trkpt lat="39.137033" lon="-6.103050">
        <ele>2084.0</ele>
        <time>2019-05-04T12:30:15Z</time>
      </trkpt>
      <trkpt lat="39.137100" lon="-6.103100">
        <ele>2085.0</ele>
        <time>2019-05-04T12:30:16Z</time>
      </trkpt>
      <trkpt lat="39.137200" lon="-6.103117">
        <ele>2084.0</ele>
        <time>2019-05-04T12:30:17Z</time>
      </trkpt>
      <trkpt lat="39.137283" lon="-6.103100">
        <ele>2085.0</ele>
        <time>2019-05-04T12:30:18Z</time>
      </trkpt>
      <trkpt lat="39.137350" lon="-6.103033">
        <ele>2085.0</ele>
        <time>2019-05-04T12:30:19Z</time>
      </trkpt>
      <trkpt lat="39.137383" lon="-6.102967">
        <ele>2086.0</ele>
        <time>2019-05-04T12:30:20Z</time>
      </trkpt>
      <trkpt lat="39.137400" lon="-6.102867">
        <ele>2086.0</ele>
        <time>2019-05-04T12:30:21Z</time>
      </trkpt>
      <trkpt lat="39.137400" lon="-6.102767">
        <ele>2085.0</ele>
        <time>2019-05-04T12:30:22Z</time>
      </trkpt>
      <trkpt lat="39.137383" lon="-6.102667">
        <ele>2084.0</ele>
        <time>2019-05-04T12:30:23Z</time>
      </trkpt>
      <trkpt lat="39.137317" lon="-6.102600">
        <ele>2084.0</ele>
        <time>2019-05-04T12:30:24Z</time>
      </trkpt>
      <trkpt lat="39.137217" lon="-6.102583">
        <ele>2084.0</ele>
        <time>2019-05-04T12:30:25Z</time>
      </trkpt>
      <trkpt lat="39.137133" lon="-6.102583">
        <ele>2085.0</ele>
        <time>2019-05-04T12:30:26Z</time>
      </trkpt>
      <trkpt lat="39.137050" lon="-6.102600">
        <ele>2087.0</ele>
        <time>2019-05-04T12:30:27Z</time>
      </trkpt>
      <trkpt lat="39.136983" lon="-6.102617">
        <ele>2089.0</ele>
        <time>2019-05-04T12:30:28Z</time>
      </trkpt>
      <trkpt lat="39.136933" lon="-6.102667">
        <ele>2091.0</ele>
        <time>2019-05-04T12:30:29Z</time>
      </trkpt>
      <trkpt lat="39.136867" lon="-6.102700">
        <ele>2092.0</ele>
        <time>2019-05-04T12:30:30Z</time>
      </trkpt>
      <trkpt lat="39.136800" lon="-6.102783">
        <ele>2093.0</ele>
        <time>2019-05-04T12:30:31Z</time>
      </trkpt>
      <trkpt lat="39.136767" lon="-6.102883">
        <ele>2093.0</ele>
        <time>2019-05-04T12:30:32Z</time>
      </trkpt>
      <trkpt lat="39.136750" lon="-6.103017">
        <ele>2093.0</ele>
        <time>2019-05-04T12:30:33Z</time>
      </trkpt>
      <trkpt lat="39.136783" lon="-6.103150">
        <ele>2093.0</ele>
        <time>2019-05-04T12:30:34Z</time>
      </trkpt>
      <trkpt lat="39.136850" lon="-6.103233">
        <ele>2093.0</ele>
        <time>2019-05-04T12:30:35Z</time>
      </trkpt>
      <trkpt lat="39.136917" lon="-6.103300">
        <ele>2093.0</ele>
        <time>2019-05-04T12:30:36Z</time>
      </trkpt>
      <trkpt lat="39.137000" lon="-6.103350">
        <ele>2094.0</ele>
        <time>2019-05-04T12:30:37Z</time>
      </trkpt>
      <trkpt lat="39.137067" lon="-6.103367">
        <ele>2094.0</ele>
        <time>2019-05-04T12:30:38Z</time>
      </trkpt>
      <trkpt lat="39.137150" lon="-6.103350">
        <ele>2092.0</ele>
        <time>2019-05-04T12:30:39Z</time>
      </trkpt>
      <trkpt lat="39.137233" lon="-6.103300">
        <ele>2090.0</ele>
        <time>2019-05-04T12:30:40Z</time>
      </trkpt>
      <trkpt lat="39.137317" lon="-6.103233">
        <ele>2089.0</ele>
        <time>2019-05-04T12:30:41Z</time>
      </trkpt>
      <trkpt lat="39.137383" lon="-6.103150">
        <ele>2087.0</ele>
        <time>2019-05-04T12:30:42Z</time>
      </trkpt>
      <trkpt lat="39.137417" lon="-6.103050">
        <ele>2086.0</ele>
        <time>2019-05-04T12:30:43Z</time>
      </trkpt>
      <trkpt lat="39.137433" lon="-6.102950">
        <ele>2085.0</ele>
        <time>2019-05-04T12:30:44Z</time>
      </trkpt>
      <trkpt lat="39.137433" lon="-6.102833">
        <ele>2084.0</ele>
        <time>2019-05-04T12:30:45Z</time>
      </trkpt>
      <trkpt lat="39.137400" lon="-6.102733">
        <ele>2083.0</ele>
        <time>2019-05-04T12:30:46Z</time>
      </trkpt>
      <trkpt lat="39.137350" lon="-6.102650">
        <ele>2084.0</ele>
        <time>2019-05-04T12:30:47Z</time>
      </trkpt>
      <trkpt lat="39.137300" lon="-6.102600">
        <ele>2085.0</ele>
        <time>2019-05-04T12:30:48Z</time>
      </trkpt>
      <trkpt lat="39.137233" lon="-6.102550">
        <ele>2086.0</ele>
        <time>2019-05-04T12:30:49Z</time>
      </trkpt>
      <trkpt lat="39.137183" lon="-6.102517">
        <ele>2087.0</ele>
        <time>2019-05-04T12:30:50Z</time>
      </trkpt>
      <trkpt lat="39.137117" lon="-6.102500">
        <ele>2088.0</ele>
        <time>2019-05-04T12:30:51Z</time>
      </trkpt>
      <trkpt lat="39.137050" lon="-6.102483">
        <ele>2089.0</ele>
        <time>2019-05-04T12:30:52Z</time>
      </trkpt>
      <trkpt lat="39.136967" lon="-6.102483">
        <ele>2090.0</ele>
        <time>2019-05-04T12:30:53Z</time>
      </trkpt>
      <trkpt lat="39.136900" lon="-6.102467">
        <ele>2090.0</ele>
        <time>2019-05-04T12:30:54Z</time>
      </trkpt>
      <trkpt lat="39.136833" lon="-6.102450">
        <ele>2091.0</ele>
        <time>2019-05-04T12:30:55Z</time>
      </trkpt>
      <trkpt lat="39.136750" lon="-6.102450">
        <ele>2091.0</ele>
        <time>2019-05-04T12:30:56Z</time>
      </trkpt>
      <trkpt lat="39.136667" lon="-6.102450">
        <ele>2092.0</ele>
        <time>2019-05-04T12:30:57Z</time>
      </trkpt>
      <trkpt lat="39.136583" lon="-6.102467">
        <ele>2093.0</ele>
        <time>2019-05-04T12:30:58Z</time>
      </trkpt>
      <trkpt lat="39.136500" lon="-6.102483">
        <ele>2093.0</ele>
        <time>2019-05-04T12:30:59Z</time>
      </trkpt>
      <trkpt lat="39.136417" lon="-6.102483">
        <ele>2094.0</ele>
        <time>2019-05-04T12:31:00Z</time>
      </trkpt>
      <trkpt lat="39.136350" lon="-6.102500">
        <ele>2095.0</ele>
        <time>2019-05-04T12:31:01Z</time>
      </trkpt>
      <trkpt lat="39.136283" lon="-6.102517">
        <ele>2096.0</ele>
        <time>2019-05-04T12:31:02Z</time>
      </trkpt>
      <trkpt lat="39.136200" lon="-6.102517">
        <ele>2096.0</ele>
        <time>2019-05-04T12:31:03Z</time>
      </trkpt>
      <trkpt lat="39.136117" lon="-6.102533">
        <ele>2095.0</ele>
        <time>2019-05-04T12:31:04Z</time>
      </trkpt>
      <trkpt lat="39.136033" lon="-6.102533">
        <ele>2095.0</ele>
        <time>2019-05-04T12:31:05Z</time>
      </trkpt>
      <trkpt lat="39.135967" lon="-6.102550">
        <ele>2095.0</ele>
        <time>2019-05-04T12:31:06Z</time>
      </trkpt>
      <trkpt lat="39.135883" lon="-6.102550">
        <ele>2095.0</ele>
        <time>2019-05-04T12:31:07Z</time>
      </trkpt>
      <trkpt lat="39.135817" lon="-6.102550">
        <ele>2095.0</ele>
        <time>2019-05-04T12:31:08Z</time>
      </trkpt>
      <trkpt lat="39.135733" lon="-6.102533">
        <ele>2095.0</ele>
        <time>2019-05-04T12:31:09Z</time>
      </trkpt>
      <trkpt lat="39.135633" lon="-6.102533">
        <ele>2094.0</ele>
        <time>2019-05-04T12:31:10Z</time>
      </trkpt>
      <trkpt lat="39.135550" lon="-6.102500">
        <ele>2091.0</ele>
        <time>2019-05-04T12:31:11Z</time>
      </trkpt>
      <trkpt lat="39.135450" lon="-6.102483">
        <ele>2091.0</ele>
        <time>2019-05-04T12:31:12Z</time>
      </trkpt>
      <trkpt lat="39.135350" lon="-6.102450">
        <ele>2092.0</ele>
        <time>2019-05-04T12:31:13Z</time>
      </trkpt>
      <trkpt lat="39.135250" lon="-6.102433">
        <ele>2092.0</ele>
        <time>2019-05-04T12:31:14Z</time>
      </trkpt>
      <trkpt lat="39.135167" lon="-6.102417">
        <ele>2092.0</ele>
        <time>2019-05-04T12:31:15Z</time>
      </trkpt>
      <trkpt lat="39.135067" lon="-6.102400">
        <ele>2092.0</ele>
        <time>2019-05-04T12:31:16Z</time>
      </trkpt>
      <trkpt lat="39.134983" lon="-6.102367">
        <ele>2092.0</ele>
        <time>2019-05-04T12:31:17Z</time>
      </trkpt>
      <trkpt lat="39.134883" lon="-6.102350">
        <ele>2092.0</ele>
        <time>2019-05-04T12:31:18Z</time>
      </trkpt>
      <trkpt lat="39.134783" lon="-6.102333">
        <ele>2092.0</ele>
        <time>2019-05-04T12:31:19Z</time>
      </trkpt>
      <trkpt lat="39.134683" lon="-6.102317">
        <ele>2093.0</ele>
        <time>2019-05-04T12:31:20Z</time>
      </trkpt>
      <trkpt lat="39.134583" lon="-6.102300">
        <ele>2092.0</ele>
        <time>2019-05-04T12:31:21Z</time>
      </trkpt>
      <trkpt lat="39.134483" lon="-6.102283">
        <ele>2092.0</ele>
        <time>2019-05-04T12:31:22Z</time>
      </trkpt>
      <trkpt lat="39.134383" lon="-6.102267">
        <ele>2092.0</ele>
        <time>2019-05-04T12:31:23Z</time>
      </trkpt>
      <trkpt lat="39.134267" lon="-6.102233">
        <ele>2091.0</ele>
        <time>2019-05-04T12:31:24Z</time>
      </trkpt>
      <trkpt lat="39.134167" lon="-6.102217">
        <ele>2091.0</ele>
        <time>2019-05-04T12:31:25Z</time>
      </trkpt>
      <trkpt lat="39.134050" lon="-6.102200">
        <ele>2091.0</ele>
        <time>2019-05-04T12:31:26Z</time>
      </trkpt>
      <trkpt lat="39.133950" lon="-6.102183">
        <ele>2090.0</ele>
        <time>2019-05-04T12:31:27Z</time>
      </trkpt>
      <trkpt lat="39.133850" lon="-6.102133">
        <ele>2090.0</ele>
        <time>2019-05-04T12:31:28Z</time>
      </trkpt>
      <trkpt lat="39.133767" lon="-6.102100">
        <ele>2090.0</ele>
        <time>2019-05-04T12:31:29Z</time>
      </trkpt>
      <trkpt lat="39.133667" lon="-6.102067">
        <ele>2091.0</ele>
        <time>2019-05-04T12:31:30Z</time>
      </trkpt>
      <trkpt lat="39.133583" lon="-6.102050">
        <ele>2090.0</ele>
        <time>2019-05-04T12:31:31Z</time>
      </trkpt>
      <trkpt lat="39.133467" lon="-6.102017">
        <ele>2090.0</ele>
        <time>2019-05-04T12:31:32Z</time>
      </trkpt>
      <trkpt lat="39.133350" lon="-6.102000">
        <ele>2089.0</ele>
        <time>2019-05-04T12:31:33Z</time>
      </trkpt>
      <trkpt lat="39.133217" lon="-6.101950">
        <ele>2090.0</ele>
        <time>2019-05-04T12:31:34Z</time>
      </trkpt>
      <trkpt lat="39.133117" lon="-6.101917">
        <ele>2093.0</ele>
        <time>2019-05-04T12:31:35Z</time>
      </trkpt>
      <trkpt lat="39.133017" lon="-6.101900">
        <ele>2096.0</ele>
        <time>2019-05-04T12:31:36Z</time>
      </trkpt>
      <trkpt lat="39.132933" lon="-6.101883">
        <ele>2097.0</ele>
        <time>2019-05-04T12:31:37Z</time>
      </trkpt>
      <trkpt lat="39.132833" lon="-6.101867">
        <ele>2098.0</ele>
        <time>2019-05-04T12:31:38Z</time>
      </trkpt>
      <trkpt lat="39.132733" lon="-6.101850">
        <ele>2098.0</ele>
        <time>2019-05-04T12:31:39Z</time>
      </trkpt>
      <trkpt lat="39.132617" lon="-6.101833">
        <ele>2098.0</ele>
        <time>2019-05-04T12:31:40Z</time>
      </trkpt>
      <trkpt lat="39.132517" lon="-6.101833">
        <ele>2097.0</ele>
        <time>2019-05-04T12:31:41Z</time>
      </trkpt>
      <trkpt lat="39.132400" lon="-6.101817">
        <ele>2097.0</ele>
        <time>2019-05-04T12:31:42Z</time>
      </trkpt>
      <trkpt lat="39.132283" lon="-6.101800">
        <ele>2097.0</ele>
        <time>2019-05-04T12:31:43Z</time>
      </trkpt>
      <trkpt lat="39.132183" lon="-6.101800">
        <ele>2098.0</ele>
        <time>2019-05-04T12:31:44Z</time>
      </trkpt>
      <trkpt lat="39.132083" lon="-6.101783">
        <ele>2099.0</ele>
        <time>2019-05-04T12:31:45Z</time>
      </trkpt>
      <trkpt lat="39.131967" lon="-6.101783">
        <ele>2097.0</ele>
        <time>2019-05-04T12:31:46Z</time>
      </trkpt>
      <trkpt lat="39.131850" lon="-6.101783">
        <ele>2096.0</ele>
        <time>2019-05-04T12:31:47Z</time>
      </trkpt>
      <trkpt lat="39.131750" lon="-6.101767">
        <ele>2095.0</ele>
        <time>2019-05-04T12:31:48Z</time>
      </trkpt>
      <trkpt lat="39.131633" lon="-6.101750">
        <ele>2094.0</ele>
        <time>2019-05-04T12:31:49Z</time>
      </trkpt>
      <trkpt lat="39.131533" lon="-6.101733">
        <ele>2093.0</ele>
        <time>2019-05-04T12:31:50Z</time>
      </trkpt>
      <trkpt lat="39.131433" lon="-6.101717">
        <ele>2092.0</ele>
        <time>2019-05-04T12:31:51Z</time>
      </trkpt>
      <trkpt lat="39.131333" lon="-6.101683">
        <ele>2091.0</ele>
        <time>2019-05-04T12:31:52Z</time>
      </trkpt>
      <trkpt lat="39.131233" lon="-6.101667">
        <ele>2088.0</ele>
        <time>2019-05-04T12:31:53Z</time>
      </trkpt>
      <trkpt lat="39.131100" lon="-6.101633">
        <ele>2085.0</ele>
        <time>2019-05-04T12:31:54Z</time>
      </trkpt>
      <trkpt lat="39.130967" lon="-6.101600">
        <ele>2083.0</ele>
        <time>2019-05-04T12:31:55Z</time>
      </trkpt>
      <trkpt lat="39.130850" lon="-6.101567">
        <ele>2081.0</ele>
        <time>2019-05-04T12:31:56Z</time>
      </trkpt>
      <trkpt lat="39.130750" lon="-6.101533">
        <ele>2080.0</ele>
        <time>2019-05-04T12:31:57Z</time>
      </trkpt>
      <trkpt lat="39.130650" lon="-6.101500">
        <ele>2078.0</ele>
        <time>2019-05-04T12:31:58Z</time>
      </trkpt>
      <trkpt lat="39.130533" lon="-6.101467">
        <ele>2075.0</ele>
        <time>2019-05-04T12:31:59Z</time>
      </trkpt>
      <trkpt lat="39.130400" lon="-6.101400">
        <ele>2072.0</ele>
        <time>2019-05-04T12:32:00Z</time>
      </trkpt>
      <trkpt lat="39.130267" lon="-6.101350">
        <ele>2069.0</ele>
        <time>2019-05-04T12:32:01Z</time>
      </trkpt>
      <trkpt lat="39.130133" lon="-6.101283">
        <ele>2065.0</ele>
        <time>2019-05-04T12:32:02Z</time>
      </trkpt>
      <trkpt lat="39.130017" lon="-6.101217">
        <ele>2063.0</ele>
        <time>2019-05-04T12:32:03Z</time>
      </trkpt>
      <trkpt lat="39.129917" lon="-6.101167">
        <ele>2062.0</ele>
        <time>2019-05-04T12:32:04Z</time>
      </trkpt>
      <trkpt lat="39.129800" lon="-6.101100">
        <ele>2057.0</ele>
        <time>2019-05-04T12:32:05Z</time>
      </trkpt>
      <trkpt lat="39.129683" lon="-6.101033">
        <ele>2054.0</ele>
        <time>2019-05-04T12:32:06Z</time>
      </trkpt>
      <trkpt lat="39.129567" lon="-6.100983">
        <ele>2050.0</ele>
        <time>2019-05-04T12:32:07Z</time>
      </trkpt>
      <trkpt lat="39.129433" lon="-6.100900">
        <ele>2045.0</ele>
        <time>2019-05-04T12:32:08Z</time>
      </trkpt>
      <trkpt lat="39.129300" lon="-6.100850">
        <ele>2043.0</ele>
        <time>2019-05-04T12:32:09Z</time>
      </trkpt>
      <trkpt lat="39.129183" lon="-6.100783">
        <ele>2041.0</ele>
        <time>2019-05-04T12:32:10Z</time>
      </trkpt>
      <trkpt lat="39.129067" lon="-6.100733">
        <ele>2039.0</ele>
        <time>2019-05-04T12:32:11Z</time>
      </trkpt>
      <trkpt lat="39.128950" lon="-6.100683">
        <ele>2037.0</ele>
        <time>2019-05-04T12:32:12Z</time>
      </trkpt>
      <trkpt lat="39.128817" lon="-6.100617">
        <ele>2035.0</ele>
        <time>2019-05-04T12:32:13Z</time>
      </trkpt>
      <trkpt lat="39.128667" lon="-6.100567">
        <ele>2032.0</ele>
        <time>2019-05-04T12:32:14Z</time>
      </trkpt>
      <trkpt lat="39.128533" lon="-6.100533">
        <ele>2030.0</ele>
        <time>2019-05-04T12:32:15Z</time>
      </trkpt>
      <trkpt lat="39.128383" lon="-6.100483">
        <ele>2028.0</ele>
        <time>2019-05-04T12:32:16Z</time>
      </trkpt>
      <trkpt lat="39.128250" lon="-6.100433">
        <ele>2029.0</ele>
        <time>2019-05-04T12:32:17Z</time>
      </trkpt>
      <trkpt lat="39.128133" lon="-6.100367">
        <ele>2029.0</ele>
        <time>2019-05-04T12:32:18Z</time>
      </trkpt>
      <trkpt lat="39.128017" lon="-6.100317">
        <ele>2028.0</ele>
        <time>2019-05-04T12:32:19Z</time>
      </trkpt>
      <trkpt lat="39.127900" lon="-6.100267">
        <ele>2027.0</ele>
        <time>2019-05-04T12:32:20Z</time>
      </trkpt>
      <trkpt lat="39.127750" lon="-6.100217">
        <ele>2025.0</ele>
        <time>2019-05-04T12:32:21Z</time>
      </trkpt>
      <trkpt lat="39.127617" lon="-6.100150">
        <ele>2023.0</ele>
        <time>2019-05-04T12:32:22Z</time>
      </trkpt>
      <trkpt lat="39.127467" lon="-6.100100">
        <ele>2021.0</ele>
        <time>2019-05-04T12:32:23Z</time>
      </trkpt>
      <trkpt lat="39.127333" lon="-6.100050">
        <ele>2020.0</ele>
        <time>2019-05-04T12:32:24Z</time>
      </trkpt>
      <trkpt lat="39.127217" lon="-6.100000">
        <ele>2018.0</ele>
        <time>2019-05-04T12:32:25Z</time>
      </trkpt>
      <trkpt lat="39.127083" lon="-6.099950">
        <ele>2016.0</ele>
        <time>2019-05-04T12:32:26Z</time>
      </trkpt>
      <trkpt lat="39.126950" lon="-6.099900">
        <ele>2014.0</ele>
        <time>2019-05-04T12:32:27Z</time>
      </trkpt>
      <trkpt lat="39.126817" lon="-6.099850">
        <ele>2011.0</ele>
        <time>2019-05-04T12:32:28Z</time>
      </trkpt>
      <trkpt lat="39.126683" lon="-6.099783">
        <ele>2010.0</ele>
        <time>2019-05-04T12:32:29Z</time>
      </trkpt>
      <trkpt lat="39.126550" lon="-6.099717">
        <ele>2008.0</ele>
        <time>2019-05-04T12:32:30Z</time>
      </trkpt>
      <trkpt lat="39.126417" lon="-6.099667">
        <ele>2009.0</ele>
        <time>2019-05-04T12:32:31Z</time>
      </trkpt>
      <trkpt lat="39.126300" lon="-6.099600">
        <ele>2011.0</ele>
        <time>2019-05-04T12:32:32Z</time>
      </trkpt>
      <trkpt lat="39.126183" lon="-6.099550">
        <ele>2011.0</ele>
        <time>2019-05-04T12:32:33Z</time>
      </trkpt>
      <trkpt lat="39.126067" lon="-6.099517">
        <ele>2011.0</ele>
        <time>2019-05-04T12:32:34Z</time>
      </trkpt>
      <trkpt lat="39.125933" lon="-6.099450">
        <ele>2010.0</ele>
        <time>2019-05-04T12:32:35Z</time>
      </trkpt>
      <trkpt lat="39.125817" lon="-6.099400">
        <ele>2009.0</ele>
        <time>2019-05-04T12:32:36Z</time>
      </trkpt>
      <trkpt lat="39.125717" lon="-6.099350">
        <ele>2008.0</ele>
        <time>2019-05-04T12:32:37Z</time>
      </trkpt>
      <trkpt lat="39.125600" lon="-6.099300">
        <ele>2007.0</ele>
        <time>2019-05-04T12:32:38Z</time>
      </trkpt>
      <trkpt lat="39.125483" lon="-6.099250">
        <ele>2006.0</ele>
        <time>2019-05-04T12:32:39Z</time>
      </trkpt>
      <trkpt lat="39.125350" lon="-6.099217">
        <ele>2004.0</ele>
        <time>2019-05-04T12:32:40Z</time>
      </trkpt>
      <trkpt lat="39.125233" lon="-6.099167">
        <ele>2002.0</ele>
        <time>2019-05-04T12:32:41Z</time>
      </trkpt>
      <trkpt lat="39.125100" lon="-6.099117">
        <ele>2000.0</ele>
        <time>2019-05-04T12:32:42Z</time>
      </trkpt>
      <trkpt lat="39.124983" lon="-6.099050">
        <ele>1998.0</ele>
        <time>2019-05-04T12:32:43Z</time>
      </trkpt>
      <trkpt lat="39.124867" lon="-6.099000">
        <ele>1998.0</ele>
        <time>2019-05-04T12:32:44Z</time>
      </trkpt>
      <trkpt lat="39.124750" lon="-6.098950">
        <ele>1997.0</ele>
        <time>2019-05-04T12:32:45Z</time>
      </trkpt>
      <trkpt lat="39.124633" lon="-6.098883">
        <ele>1996.0</ele>
        <time>2019-05-04T12:32:46Z</time>
      </trkpt>
      <trkpt lat="39.124533" lon="-6.098833">
        <ele>1995.0</ele>
        <time>2019-05-04T12:32:47Z</time>
      </trkpt>
      <trkpt lat="39.124417" lon="-6.098750">
        <ele>1995.0</ele>
        <time>2019-05-04T12:32:48Z</time>
      </trkpt>
      <trkpt lat="39.124300" lon="-6.098683">
        <ele>1994.0</ele>
        <time>2019-05-04T12:32:49Z</time>
      </trkpt>
      <trkpt lat="39.124200" lon="-6.098600">
        <ele>1993.0</ele>
        <time>2019-05-04T12:32:50Z</time>
      </trkpt>
      <trkpt lat="39.124100" lon="-6.098517">
        <ele>1991.0</ele>
        <time>2019-05-04T12:32:51Z</time>
      </trkpt>
      <trkpt lat="39.123983" lon="-6.098433">
        <ele>1990.0</ele>
        <time>2019-05-04T12:32:52Z</time>
      </trkpt>
      <trkpt lat="39.123883" lon="-6.098350">
        <ele>1989.0</ele>
        <time>2019-05-04T12:32:53Z</time>
      </trkpt>
      <trkpt lat="39.123767" lon="-6.098283">
        <ele>1989.0</ele>
        <time>2019-05-04T12:32:54Z</time>
      </trkpt>
      <trkpt lat="39.123667" lon="-6.098200">
        <ele>1989.0</ele>
        <time>2019-05-04T12:32:55Z</time>
      </trkpt>
      <trkpt lat="39.123567" lon="-6.098117">
        <ele>1988.0</ele>
        <time>2019-05-04T12:32:56Z</time>
      </trkpt>
      <trkpt lat="39.123467" lon="-6.098050">
        <ele>1987.0</ele>
        <time>2019-05-04T12:32:57Z</time>
      </trkpt>
      <trkpt lat="39.123350" lon="-6.097950">
        <ele>1986.0</ele>
        <time>2019-05-04T12:32:58Z</time>
      </trkpt>
      <trkpt lat="39.123233" lon="-6.097867">
        <ele>1984.0</ele>
        <time>2019-05-04T12:32:59Z</time>
      </trkpt>
      <trkpt lat="39.123117" lon="-6.097783">
        <ele>1983.0</ele>
        <time>2019-05-04T12:33:00Z</time>
      </trkpt>
      <trkpt lat="39.123017" lon="-6.097700">
        <ele>1983.0</ele>
        <time>2019-05-04T12:33:01Z</time>
      </trkpt>
      <trkpt lat="39.122917" lon="-6.097633">
        <ele>1983.0</ele>
        <time>2019-05-04T12:33:02Z</time>
      </trkpt>
      <trkpt lat="39.122817" lon="-6.097583">
        <ele>1982.0</ele>
        <time>2019-05-04T12:33:03Z</time>
      </trkpt>
      <trkpt lat="39.122717" lon="-6.097517">
        <ele>1981.0</ele>
        <time>2019-05-04T12:33:04Z</time>
      </trkpt>
      <trkpt lat="39.122583" lon="-6.097450">
        <ele>1978.0</ele>
        <time>2019-05-04T12:33:05Z</time>
      </trkpt>
      <trkpt lat="39.122483" lon="-6.097383">
        <ele>1976.0</ele>
        <time>2019-05-04T12:33:06Z</time>
      </trkpt>
      <trkpt lat="39.122367" lon="-6.097317">
        <ele>1975.0</ele>
        <time>2019-05-04T12:33:07Z</time>
      </trkpt>
      <trkpt lat="39.122250" lon="-6.097250">
        <ele>1974.0</ele>
        <time>2019-05-04T12:33:08Z</time>
      </trkpt>
      <trkpt lat="39.122133" lon="-6.097183">
        <ele>1972.0</ele>
        <time>2019-05-04T12:33:09Z</time>
      </trkpt>
      <trkpt lat="39.122017" lon="-6.097133">
        <ele>1971.0</ele>
        <time>2019-05-04T12:33:10Z</time>
      </trkpt>
      <trkpt lat="39.121900" lon="-6.097083">
        <ele>1968.0</ele>
        <time>2019-05-04T12:33:11Z</time>
      </trkpt>
      <trkpt lat="39.121817" lon="-6.097033">
        <ele>1967.0</ele>
        <time>2019-05-04T12:33:12Z</time>
      </trkpt>
      <trkpt lat="39.121717" lon="-6.097000">
        <ele>1965.0</ele>
        <time>2019-05-04T12:33:13Z</time>
      </trkpt>
      <trkpt lat="39.121633" lon="-6.096967">
        <ele>1964.0</ele>
        <time>2019-05-04T12:33:14Z</time>
      </trkpt>
      <trkpt lat="39.121533" lon="-6.096933">
        <ele>1961.0</ele>
        <time>2019-05-04T12:33:15Z</time>
      </trkpt>
      <trkpt lat="39.121433" lon="-6.096917">
        <ele>1959.0</ele>
        <time>2019-05-04T12:33:16Z</time>
      </trkpt>
      <trkpt lat="39.121317" lon="-6.096883">
        <ele>1956.0</ele>
        <time>2019-05-04T12:33:17Z</time>
      </trkpt>
      <trkpt lat="39.121217" lon="-6.096850">
        <ele>1953.0</ele>
        <time>2019-05-04T12:33:18Z</time>
      </trkpt>
      <trkpt lat="39.121117" lon="-6.096800">
        <ele>1951.0</ele>
        <time>2019-05-04T12:33:19Z</time>
      </trkpt>
      <trkpt lat="39.121017" lon="-6.096767">
        <ele>1949.0</ele>
        <time>2019-05-04T12:33:20Z</time>
      </trkpt>
      <trkpt lat="39.120917" lon="-6.096733">
        <ele>1947.0</ele>
        <time>2019-05-04T12:33:21Z</time>
      </trkpt>
      <trkpt lat="39.120800" lon="-6.096700">
        <ele>1945.0</ele>
        <time>2019-05-04T12:33:22Z</time>
      </trkpt>
      <trkpt lat="39.120700" lon="-6.096683">
        <ele>1943.0</ele>
        <time>2019-05-04T12:33:23Z</time>
      </trkpt>
      <trkpt lat="39.120583" lon="-6.096650">
        <ele>1940.0</ele>
        <time>2019-05-04T12:33:24Z</time>
      </trkpt>
      <trkpt lat="39.120467" lon="-6.096617">
        <ele>1938.0</ele>
        <time>2019-05-04T12:33:25Z</time>
      </trkpt>
      <trkpt lat="39.120350" lon="-6.096583">
        <ele>1937.0</ele>
        <time>2019-05-04T12:33:26Z</time>
      </trkpt>
      <trkpt lat="39.120233" lon="-6.096567">
        <ele>1937.0</ele>
        <time>2019-05-04T12:33:27Z</time>
      </trkpt>
      <trkpt lat="39.120117" lon="-6.096533">
        <ele>1936.0</ele>
        <time>2019-05-04T12:33:28Z</time>
      </trkpt>
      <trkpt lat="39.120000" lon="-6.096517">
        <ele>1936.0</ele>
        <time>2019-05-04T12:33:29Z</time>
      </trkpt>
      <trkpt lat="39.119883" lon="-6.096483">
        <ele>1935.0</ele>
        <time>2019-05-04T12:33:30Z</time>
      </trkpt>
      <trkpt lat="39.119767" lon="-6.096467">
        <ele>1934.0</ele>
        <time>2019-05-04T12:33:31Z</time>
      </trkpt>
      <trkpt lat="39.119650" lon="-6.096433">
        <ele>1933.0</ele>
        <time>2019-05-04T12:33:32Z</time>
      </trkpt>
      <trkpt lat="39.119533" lon="-6.096383">
        <ele>1932.0</ele>
        <time>2019-05-04T12:33:33Z</time>
      </trkpt>
      <trkpt lat="39.119417" lon="-6.096350">
        <ele>1931.0</ele>
        <time>2019-05-04T12:33:34Z</time>
      </trkpt>
      <trkpt lat="39.119317" lon="-6.096317">
        <ele>1929.0</ele>
        <time>2019-05-04T12:33:35Z</time>
      </trkpt>
      <trkpt lat="39.119200" lon="-6.096267">
        <ele>1928.0</ele>
        <time>2019-05-04T12:33:36Z</time>
      </trkpt>
      <trkpt lat="39.119083" lon="-6.096233">
        <ele>1926.0</ele>
        <time>2019-05-04T12:33:37Z</time>
      </trkpt>
      <trkpt lat="39.118967" lon="-6.096183">
        <ele>1924.0</ele>
        <time>2019-05-04T12:33:38Z</time>
      </trkpt>
      <trkpt lat="39.118850" lon="-6.096133">
        <ele>1920.0</ele>
        <time>2019-05-04T12:33:39Z</time>
      </trkpt>
      <trkpt lat="39.118750" lon="-6.096083">
        <ele>1917.0</ele>
        <time>2019-05-04T12:33:40Z</time>
      </trkpt>
      <trkpt lat="39.118650" lon="-6.096033">
        <ele>1912.0</ele>
        <time>2019-05-04T12:33:41Z</time>
      </trkpt>
      <trkpt lat="39.118533" lon="-6.095983">
        <ele>1909.0</ele>
        <time>2019-05-04T12:33:42Z</time>
      </trkpt>
      <trkpt lat="39.118417" lon="-6.095917">
        <ele>1905.0</ele>
        <time>2019-05-04T12:33:43Z</time>
      </trkpt>
      <trkpt lat="39.118300" lon="-6.095867">
        <ele>1902.0</ele>
        <time>2019-05-04T12:33:44Z</time>
      </trkpt>
      <trkpt lat="39.118200" lon="-6.095817">
        <ele>1900.0</ele>
        <time>2019-05-04T12:33:45Z</time>
      </trkpt>
      <trkpt lat="39.118100" lon="-6.095767">
        <ele>1898.0</ele>
        <time>2019-05-04T12:33:46Z</time>
      </trkpt>
      <trkpt lat="39.118017" lon="-6.095717">
        <ele>1895.0</ele>
        <time>2019-05-04T12:33:47Z</time>
      </trkpt>
      <trkpt lat="39.117917" lon="-6.095667">
        <ele>1891.0</ele>
        <time>2019-05-04T12:33:48Z</time>
      </trkpt>
      <trkpt lat="39.117800" lon="-6.095600">
        <ele>1888.0</ele>
        <time>2019-05-04T12:33:49Z</time>
      </trkpt>
      <trkpt lat="39.117683" lon="-6.095550">
        <ele>1885.0</ele>
        <time>2019-05-04T12:33:50Z</time>
      </trkpt>
      <trkpt lat="39.117550" lon="-6.095483">
        <ele>1881.0</ele>
        <time>2019-05-04T12:33:51Z</time>
      </trkpt>
      <trkpt lat="39.117433" lon="-6.095433">
        <ele>1881.0</ele>
        <time>2019-05-04T12:33:52Z</time>
      </trkpt>
      <trkpt lat="39.117333" lon="-6.095383">
        <ele>1881.0</ele>
        <time>2019-05-04T12:33:53Z</time>
      </trkpt>
      <trkpt lat="39.117233" lon="-6.095333">
        <ele>1878.0</ele>
        <time>2019-05-04T12:33:54Z</time>
      </trkpt>
      <trkpt lat="39.117133" lon="-6.095300">
        <ele>1875.0</ele>
        <time>2019-05-04T12:33:55Z</time>
      </trkpt>
      <trkpt lat="39.117000" lon="-6.095250">
        <ele>1872.0</ele>
        <time>2019-05-04T12:33:56Z</time>
      </trkpt>
      <trkpt lat="39.116883" lon="-6.095200">
        <ele>1870.0</ele>
        <time>2019-05-04T12:33:57Z</time>
      </trkpt>
      <trkpt lat="39.116783" lon="-6.095150">
        <ele>1870.0</ele>
        <time>2019-05-04T12:33:58Z</time>
      </trkpt>
      <trkpt lat="39.116683" lon="-6.095100">
        <ele>1872.0</ele>
        <time>2019-05-04T12:33:59Z</time>
      </trkpt>
      <trkpt lat="39.116600" lon="-6.095067">
        <ele>1872.0</ele>
        <time>2019-05-04T12:34:00Z</time>
      </trkpt>
      <trkpt lat="39.116517" lon="-6.095017">
        <ele>1872.0</ele>
        <time>2019-05-04T12:34:01Z</time>
      </trkpt>
      <trkpt lat="39.116417" lon="-6.094967">
        <ele>1872.0</ele>
        <time>2019-05-04T12:34:02Z</time>
      </trkpt>
      <trkpt lat="39.116300" lon="-6.094917">
        <ele>1871.0</ele>
        <time>2019-05-04T12:34:03Z</time>
      </trkpt>
      <trkpt lat="39.116183" lon="-6.094867">
        <ele>1871.0</ele>
        <time>2019-05-04T12:34:04Z</time>
      </trkpt>
      <trkpt lat="39.116083" lon="-6.094833">
        <ele>1870.0</ele>
        <time>2019-05-04T12:34:05Z</time>
      </trkpt>
      <trkpt lat="39.115983" lon="-6.094783">
        <ele>1869.0</ele>
        <time>2019-05-04T12:34:06Z</time>
      </trkpt>
      <trkpt lat="39.115900" lon="-6.094733">
        <ele>1869.0</ele>
        <time>2019-05-04T12:34:07Z</time>
      </trkpt>
      <trkpt lat="39.115800" lon="-6.094683">
        <ele>1868.0</ele>
        <time>2019-05-04T12:34:08Z</time>
      </trkpt>
      <trkpt lat="39.115700" lon="-6.094633">
        <ele>1867.0</ele>
        <time>2019-05-04T12:34:09Z</time>
      </trkpt>
      <trkpt lat="39.115600" lon="-6.094583">
        <ele>1865.0</ele>
        <time>2019-05-04T12:34:10Z</time>
      </trkpt>
      <trkpt lat="39.115483" lon="-6.094533">
        <ele>1861.0</ele>
        <time>2019-05-04T12:34:11Z</time>
      </trkpt>
      <trkpt lat="39.115367" lon="-6.094500">
        <ele>1857.0</ele>
        <time>2019-05-04T12:34:12Z</time>
      </trkpt>
      <trkpt lat="39.115267" lon="-6.094450">
        <ele>1854.0</ele>
        <time>2019-05-04T12:34:13Z</time>
      </trkpt>
      <trkpt lat="39.115167" lon="-6.094400">
        <ele>1850.0</ele>
        <time>2019-05-04T12:34:14Z</time>
      </trkpt>
      <trkpt lat="39.115050" lon="-6.094367">
        <ele>1846.0</ele>
        <time>2019-05-04T12:34:15Z</time>
      </trkpt>
      <trkpt lat="39.114950" lon="-6.094317">
        <ele>1841.0</ele>
        <time>2019-05-04T12:34:16Z</time>
      </trkpt>
      <trkpt lat="39.114833" lon="-6.094283">
        <ele>1836.0</ele>
        <time>2019-05-04T12:34:17Z</time>
      </trkpt>
      <trkpt lat="39.114733" lon="-6.094250">
        <ele>1831.0</ele>
        <time>2019-05-04T12:34:18Z</time>
      </trkpt>
      <trkpt lat="39.114617" lon="-6.094217">
        <ele>1827.0</ele>
        <time>2019-05-04T12:34:19Z</time>
      </trkpt>
      <trkpt lat="39.114500" lon="-6.094167">
        <ele>1823.0</ele>
        <time>2019-05-04T12:34:20Z</time>
      </trkpt>
      <trkpt lat="39.114383" lon="-6.094117">
        <ele>1819.0</ele>
        <time>2019-05-04T12:34:21Z</time>
      </trkpt>
      <trkpt lat="39.114267" lon="-6.094083">
        <ele>1815.0</ele>
        <time>2019-05-04T12:34:22Z</time>
      </trkpt>
      <trkpt lat="39.114133" lon="-6.094033">
        <ele>1811.0</ele>
        <time>2019-05-04T12:34:23Z</time>
      </trkpt>
      <trkpt lat="39.114017" lon="-6.094000">
        <ele>1807.0</ele>
        <time>2019-05-04T12:34:24Z</time>
      </trkpt>
      <trkpt lat="39.113900" lon="-6.093967">
        <ele>1804.0</ele>
        <time>2019-05-04T12:34:25Z</time>
      </trkpt>
      <trkpt lat="39.113800" lon="-6.093917">
        <ele>1801.0</ele>
        <time>2019-05-04T12:34:26Z</time>
      </trkpt>
      <trkpt lat="39.113683" lon="-6.093867">
        <ele>1797.0</ele>
        <time>2019-05-04T12:34:27Z</time>
      </trkpt>
      <trkpt lat="39.113583" lon="-6.093817">
        <ele>1793.0</ele>
        <time>2019-05-04T12:34:28Z</time>
      </trkpt>
      <trkpt lat="39.113467" lon="-6.093767">
        <ele>1789.0</ele>
        <time>2019-05-04T12:34:29Z</time>
      </trkpt>
      <trkpt lat="39.113367" lon="-6.093700">
        <ele>1786.0</ele>
        <time>2019-05-04T12:34:30Z</time>
      </trkpt>
      <trkpt lat="39.113250" lon="-6.093650">
        <ele>1782.0</ele>
        <time>2019-05-04T12:34:31Z</time>
      </trkpt>
      <trkpt lat="39.113117" lon="-6.093617">
        <ele>1778.0</ele>
        <time>2019-05-04T12:34:32Z</time>
      </trkpt>
      <trkpt lat="39.113000" lon="-6.093583">
        <ele>1774.0</ele>
        <time>2019-05-04T12:34:33Z</time>
      </trkpt>
      <trkpt lat="39.112883" lon="-6.093533">
        <ele>1773.0</ele>
        <time>2019-05-04T12:34:34Z</time>
      </trkpt>
      <trkpt lat="39.112783" lon="-6.093500">
        <ele>1771.0</ele>
        <time>2019-05-04T12:34:35Z</time>
      </trkpt>
      <trkpt lat="39.112683" lon="-6.093467">
        <ele>1769.0</ele>
        <time>2019-05-04T12:34:36Z</time>
      </trkpt>
      <trkpt lat="39.112567" lon="-6.093417">
        <ele>1766.0</ele>
        <time>2019-05-04T12:34:37Z</time>
      </trkpt>
      <trkpt lat="39.112450" lon="-6.093367">
        <ele>1763.0</ele>
        <time>2019-05-04T12:34:38Z</time>
      </trkpt>
      <trkpt lat="39.112350" lon="-6.093317">
        <ele>1760.0</ele>
        <time>2019-05-04T12:34:39Z</time>
      </trkpt>
      <trkpt lat="39.112233" lon="-6.093283">
        <ele>1757.0</ele>
        <time>2019-05-04T12:34:40Z</time>
      </trkpt>
      <trkpt lat="39.112117" lon="-6.093233">
        <ele>1754.0</ele>
        <time>2019-05-04T12:34:41Z</time>
      </trkpt>
      <trkpt lat="39.112017" lon="-6.093200">
        <ele>1752.0</ele>
        <time>2019-05-04T12:34:42Z</time>
      </trkpt>
      <trkpt lat="39.111900" lon="-6.093167">
        <ele>1749.0</ele>
        <time>2019-05-04T12:34:43Z</time>
      </trkpt>
      <trkpt lat="39.111783" lon="-6.093133">
        <ele>1746.0</ele>
        <time>2019-05-04T12:34:44Z</time>
      </trkpt>
      <trkpt lat="39.111667" lon="-6.093083">
        <ele>1743.0</ele>
        <time>2019-05-04T12:34:45Z</time>
      </trkpt>
      <trkpt lat="39.111550" lon="-6.093033">
        <ele>1740.0</ele>
        <time>2019-05-04T12:34:46Z</time>
      </trkpt>
      <trkpt lat="39.111450" lon="-6.092983">
        <ele>1738.0</ele>
        <time>2019-05-04T12:34:47Z</time>
      </trkpt>
      <trkpt lat="39.111333" lon="-6.092950">
        <ele>1736.0</ele>
        <time>2019-05-04T12:34:48Z</time>
      </trkpt>
      <trkpt lat="39.111233" lon="-6.092900">
        <ele>1733.0</ele>
        <time>2019-05-04T12:34:49Z</time>
      </trkpt>
      <trkpt lat="39.111133" lon="-6.092850">
        <ele>1730.0</ele>
        <time>2019-05-04T12:34:50Z</time>
      </trkpt>
      <trkpt lat="39.111033" lon="-6.092800">
        <ele>1727.0</ele>
        <time>2019-05-04T12:34:51Z</time>
      </trkpt>
      <trkpt lat="39.110933" lon="-6.092750">
        <ele>1724.0</ele>
        <time>2019-05-04T12:34:52Z</time>
      </trkpt>
      <trkpt lat="39.110817" lon="-6.092700">
        <ele>1720.0</ele>
        <time>2019-05-04T12:34:53Z</time>
      </trkpt>
      <trkpt lat="39.110700" lon="-6.092650">
        <ele>1717.0</ele>
        <time>2019-05-04T12:34:54Z</time>
      </trkpt>
      <trkpt lat="39.110600" lon="-6.092600">
        <ele>1714.0</ele>
        <time>2019-05-04T12:34:55Z</time>
      </trkpt>
      <trkpt lat="39.110500" lon="-6.092550">
        <ele>1712.0</ele>
        <time>2019-05-04T12:34:56Z</time>
      </trkpt>
      <trkpt lat="39.110400" lon="-6.092500">
        <ele>1708.0</ele>
        <time>2019-05-04T12:34:57Z</time>
      </trkpt>
      <trkpt lat="39.110300" lon="-6.092450">
        <ele>1704.0</ele>
        <time>2019-05-04T12:34:58Z</time>
      </trkpt>
      <trkpt lat="39.110200" lon="-6.092400">
        <ele>1700.0</ele>
        <time>2019-05-04T12:34:59Z</time>
      </trkpt>
      <trkpt lat="39.110083" lon="-6.092350">
        <ele>1696.0</ele>
        <time>2019-05-04T12:35:00Z</time>
      </trkpt>
      <trkpt lat="39.109967" lon="-6.092283">
        <ele>1692.0</ele>
        <time>2019-05-04T12:35:01Z</time>
      </trkpt>
      <trkpt lat="39.109850" lon="-6.092217">
        <ele>1691.0</ele>
        <time>2019-05-04T12:35:02Z</time>
      </trkpt>
      <trkpt lat="39.109750" lon="-6.092183">
        <ele>1691.0</ele>
        <time>2019-05-04T12:35:03Z</time>
      </trkpt>
      <trkpt lat="39.109650" lon="-6.092133">
        <ele>1692.0</ele>
        <time>2019-05-04T12:35:04Z</time>
      </trkpt>
      <trkpt lat="39.109567" lon="-6.092100">
        <ele>1693.0</ele>
        <time>2019-05-04T12:35:05Z</time>
      </trkpt>
      <trkpt lat="39.109483" lon="-6.092067">
        <ele>1693.0</ele>
        <time>2019-05-04T12:35:06Z</time>
      </trkpt>
      <trkpt lat="39.109383" lon="-6.092033">
        <ele>1692.0</ele>
        <time>2019-05-04T12:35:07Z</time>
      </trkpt>
      <trkpt lat="39.109283" lon="-6.092000">
        <ele>1692.0</ele>
        <time>2019-05-04T12:35:08Z</time>
      </trkpt>
      <trkpt lat="39.109200" lon="-6.091967">
        <ele>1692.0</ele>
        <time>2019-05-04T12:35:09Z</time>
      </trkpt>
      <trkpt lat="39.109100" lon="-6.091933">
        <ele>1692.0</ele>
        <time>2019-05-04T12:35:10Z</time>
      </trkpt>
      <trkpt lat="39.109017" lon="-6.091917">
        <ele>1691.0</ele>
        <time>2019-05-04T12:35:11Z</time>
      </trkpt>
      <trkpt lat="39.108917" lon="-6.091883">
        <ele>1689.0</ele>
        <time>2019-05-04T12:35:12Z</time>
      </trkpt>
      <trkpt lat="39.108800" lon="-6.091867">
        <ele>1687.0</ele>
        <time>2019-05-04T12:35:13Z</time>
      </trkpt>
      <trkpt lat="39.108683" lon="-6.091867">
        <ele>1685.0</ele>
        <time>2019-05-04T12:35:14Z</time>
      </trkpt>
      <trkpt lat="39.108567" lon="-6.091850">
        <ele>1684.0</ele>
        <time>2019-05-04T12:35:15Z</time>
      </trkpt>
      <trkpt lat="39.108467" lon="-6.091833">
        <ele>1683.0</ele>
        <time>2019-05-04T12:35:16Z</time>
      </trkpt>
      <trkpt lat="39.108367" lon="-6.091783">
        <ele>1681.0</ele>
        <time>2019-05-04T12:35:17Z</time>
      </trkpt>
      <trkpt lat="39.108267" lon="-6.091750">
        <ele>1678.0</ele>
        <time>2019-05-04T12:35:18Z</time>
      </trkpt>
      <trkpt lat="39.108150" lon="-6.091700">
        <ele>1676.0</ele>
        <time>2019-05-04T12:35:19Z</time>
      </trkpt>
      <trkpt lat="39.108050" lon="-6.091667">
        <ele>1673.0</ele>
        <time>2019-05-04T12:35:20Z</time>
      </trkpt>
      <trkpt lat="39.107950" lon="-6.091650">
        <ele>1670.0</ele>
        <time>2019-05-04T12:35:21Z</time>
      </trkpt>
      <trkpt lat="39.107850" lon="-6.091633">
        <ele>1667.0</ele>
        <time>2019-05-04T12:35:22Z</time>
      </trkpt>
      <trkpt lat="39.107767" lon="-6.091600">
        <ele>1664.0</ele>
        <time>2019-05-04T12:35:23Z</time>
      </trkpt>
      <trkpt lat="39.107667" lon="-6.091550">
        <ele>1660.0</ele>
        <time>2019-05-04T12:35:24Z</time>
      </trkpt>
      <trkpt lat="39.107567" lon="-6.091517">
        <ele>1656.0</ele>
        <time>2019-05-04T12:35:25Z</time>
      </trkpt>
      <trkpt lat="39.107467" lon="-6.091467">
        <ele>1652.0</ele>
        <time>2019-05-04T12:35:26Z</time>
      </trkpt>
      <trkpt lat="39.107367" lon="-6.091433">
        <ele>1649.0</ele>
        <time>2019-05-04T12:35:27Z</time>
      </trkpt>
      <trkpt lat="39.107267" lon="-6.091400">
        <ele>1646.0</ele>
        <time>2019-05-04T12:35:28Z</time>
      </trkpt>
      <trkpt lat="39.107167" lon="-6.091383">
        <ele>1644.0</ele>
        <time>2019-05-04T12:35:29Z</time>
      </trkpt>
      <trkpt lat="39.107067" lon="-6.091350">
        <ele>1640.0</ele>
        <time>2019-05-04T12:35:30Z</time>
      </trkpt>
      <trkpt lat="39.106967" lon="-6.091317">
        <ele>1637.0</ele>
        <time>2019-05-04T12:35:31Z</time>
      </trkpt>
      <trkpt lat="39.106850" lon="-6.091300">
        <ele>1634.0</ele>
        <time>2019-05-04T12:35:32Z</time>
      </trkpt>
      <trkpt lat="39.106750" lon="-6.091267">
        <ele>1631.0</ele>
        <time>2019-05-04T12:35:33Z</time>
      </trkpt>
      <trkpt lat="39.106650" lon="-6.091217">
        <ele>1627.0</ele>
        <time>2019-05-04T12:35:34Z</time>
      </trkpt>
      <trkpt lat="39.106550" lon="-6.091183">
        <ele>1624.0</ele>
        <time>2019-05-04T12:35:35Z</time>
      </trkpt>
      <trkpt lat="39.106450" lon="-6.091133">
        <ele>1622.0</ele>
        <time>2019-05-04T12:35:36Z</time>
      </trkpt>
      <trkpt lat="39.106333" lon="-6.091100">
        <ele>1619.0</ele>
        <time>2019-05-04T12:35:37Z</time>
      </trkpt>
      <trkpt lat="39.106233" lon="-6.091067">
        <ele>1616.0</ele>
        <time>2019-05-04T12:35:38Z</time>
      </trkpt>
      <trkpt lat="39.106133" lon="-6.091033">
        <ele>1613.0</ele>
        <time>2019-05-04T12:35:39Z</time>
      </trkpt>
      <trkpt lat="39.106033" lon="-6.091000">
        <ele>1610.0</ele>
        <time>2019-05-04T12:35:40Z</time>
      </trkpt>
      <trkpt lat="39.105933" lon="-6.090967">
        <ele>1607.0</ele>
        <time>2019-05-04T12:35:41Z</time>
      </trkpt>
      <trkpt lat="39.105833" lon="-6.090917">
        <ele>1604.0</ele>
        <time>2019-05-04T12:35:42Z</time>
      </trkpt>
      <trkpt lat="39.105733" lon="-6.090883">
        <ele>1602.0</ele>
        <time>2019-05-04T12:35:43Z</time>
      </trkpt>
      <trkpt lat="39.105650" lon="-6.090817">
        <ele>1599.0</ele>
        <time>2019-05-04T12:35:44Z</time>
      </trkpt>
      <trkpt lat="39.105550" lon="-6.090750">
        <ele>1597.0</ele>
        <time>2019-05-04T12:35:45Z</time>
      </trkpt>
      <trkpt lat="39.105433" lon="-6.090683">
        <ele>1594.0</ele>
        <time>2019-05-04T12:35:46Z</time>
      </trkpt>
      <trkpt lat="39.105317" lon="-6.090617">
        <ele>1592.0</ele>
        <time>2019-05-04T12:35:47Z</time>
      </trkpt>
      <trkpt lat="39.105200" lon="-6.090567">
        <ele>1591.0</ele>
        <time>2019-05-04T12:35:48Z</time>
      </trkpt>
      <trkpt lat="39.105100" lon="-6.090500">
        <ele>1591.0</ele>
        <time>2019-05-04T12:35:49Z</time>
      </trkpt>
      <trkpt lat="39.105000" lon="-6.090433">
        <ele>1590.0</ele>
        <time>2019-05-04T12:35:50Z</time>
      </trkpt>
      <trkpt lat="39.104883" lon="-6.090383">
        <ele>1589.0</ele>
        <time>2019-05-04T12:35:51Z</time>
      </trkpt>
      <trkpt lat="39.104783" lon="-6.090317">
        <ele>1588.0</ele>
        <time>2019-05-04T12:35:52Z</time>
      </trkpt>
      <trkpt lat="39.104667" lon="-6.090267">
        <ele>1587.0</ele>
        <time>2019-05-04T12:35:53Z</time>
      </trkpt>
      <trkpt lat="39.104567" lon="-6.090217">
        <ele>1586.0</ele>
        <time>2019-05-04T12:35:54Z</time>
      </trkpt>
      <trkpt lat="39.104467" lon="-6.090167">
        <ele>1585.0</ele>
        <time>2019-05-04T12:35:55Z</time>
      </trkpt>
      <trkpt lat="39.104367" lon="-6.090117">
        <ele>1584.0</ele>
        <time>2019-05-04T12:35:56Z</time>
      </trkpt>
      <trkpt lat="39.104250" lon="-6.090067">
        <ele>1583.0</ele>
        <time>2019-05-04T12:35:57Z</time>
      </trkpt>
      <trkpt lat="39.104133" lon="-6.090033">
        <ele>1581.0</ele>
        <time>2019-05-04T12:35:58Z</time>
      </trkpt>
      <trkpt lat="39.104017" lon="-6.090000">
        <ele>1579.0</ele>
        <time>2019-05-04T12:35:59Z</time>
      </trkpt>
      <trkpt lat="39.103900" lon="-6.089967">
        <ele>1578.0</ele>
        <time>2019-05-04T12:36:00Z</time>
      </trkpt>
      <trkpt lat="39.103800" lon="-6.089933">
        <ele>1578.0</ele>
        <time>2019-05-04T12:36:01Z</time>
      </trkpt>
      <trkpt lat="39.103700" lon="-6.089883">
        <ele>1577.0</ele>
        <time>2019-05-04T12:36:02Z</time>
      </trkpt>
      <trkpt lat="39.103600" lon="-6.089850">
        <ele>1576.0</ele>
        <time>2019-05-04T12:36:03Z</time>
      </trkpt>
      <trkpt lat="39.103483" lon="-6.089800">
        <ele>1574.0</ele>
        <time>2019-05-04T12:36:04Z</time>
      </trkpt>
      <trkpt lat="39.103367" lon="-6.089767">
        <ele>1571.0</ele>
        <time>2019-05-04T12:36:05Z</time>
      </trkpt>
      <trkpt lat="39.103250" lon="-6.089717">
        <ele>1569.0</ele>
        <time>2019-05-04T12:36:06Z</time>
      </trkpt>
      <trkpt lat="39.103133" lon="-6.089683">
        <ele>1567.0</ele>
        <time>2019-05-04T12:36:07Z</time>
      </trkpt>
      <trkpt lat="39.103033" lon="-6.089650">
        <ele>1565.0</ele>
        <time>2019-05-04T12:36:08Z</time>
      </trkpt>
      <trkpt lat="39.102917" lon="-6.089633">
        <ele>1562.0</ele>
        <time>2019-05-04T12:36:09Z</time>
      </trkpt>
      <trkpt lat="39.102800" lon="-6.089600">
        <ele>1560.0</ele>
        <time>2019-05-04T12:36:10Z</time>
      </trkpt>
      <trkpt lat="39.102700" lon="-6.089550">
        <ele>1559.0</ele>
        <time>2019-05-04T12:36:11Z</time>
      </trkpt>
      <trkpt lat="39.102600" lon="-6.089517">
        <ele>1558.0</ele>
        <time>2019-05-04T12:36:12Z</time>
      </trkpt>
      <trkpt lat="39.102500" lon="-6.089500">
        <ele>1557.0</ele>
        <time>2019-05-04T12:36:13Z</time>
      </trkpt>
      <trkpt lat="39.102400" lon="-6.089483">
        <ele>1556.0</ele>
        <time>2019-05-04T12:36:14Z</time>
      </trkpt>
      <trkpt lat="39.102283" lon="-6.089450">
        <ele>1555.0</ele>
        <time>2019-05-04T12:36:15Z</time>
      </trkpt>
      <trkpt lat="39.102167" lon="-6.089417">
        <ele>1553.0</ele>
        <time>2019-05-04T12:36:16Z</time>
      </trkpt>
      <trkpt lat="39.102033" lon="-6.089383">
        <ele>1552.0</ele>
        <time>2019-05-04T12:36:17Z</time>
      </trkpt>
      <trkpt lat="39.101917" lon="-6.089350">
        <ele>1551.0</ele>
        <time>2019-05-04T12:36:18Z</time>
      </trkpt>
      <trkpt lat="39.101800" lon="-6.089317">
        <ele>1550.0</ele>
        <time>2019-05-04T12:36:19Z</time>
      </trkpt>
      <trkpt lat="39.101700" lon="-6.089267">
        <ele>1550.0</ele>
        <time>2019-05-04T12:36:20Z</time>
      </trkpt>
      <trkpt lat="39.101583" lon="-6.089233">
        <ele>1549.0</ele>
        <time>2019-05-04T12:36:21Z</time>
      </trkpt>
      <trkpt lat="39.101450" lon="-6.089200">
        <ele>1548.0</ele>
        <time>2019-05-04T12:36:22Z</time>
      </trkpt>
      <trkpt lat="39.101333" lon="-6.089167">
        <ele>1547.0</ele>
        <time>2019-05-04T12:36:23Z</time>
      </trkpt>
      <trkpt lat="39.101217" lon="-6.089133">
        <ele>1546.0</ele>
        <time>2019-05-04T12:36:24Z</time>
      </trkpt>
      <trkpt lat="39.101117" lon="-6.089100">
        <ele>1546.0</ele>
        <time>2019-05-04T12:36:25Z</time>
      </trkpt>
      <trkpt lat="39.101000" lon="-6.089067">
        <ele>1545.0</ele>
        <time>2019-05-04T12:36:26Z</time>
      </trkpt>
      <trkpt lat="39.100883" lon="-6.089033">
        <ele>1542.0</ele>
        <time>2019-05-04T12:36:27Z</time>
      </trkpt>
      <trkpt lat="39.100750" lon="-6.089000">
        <ele>1540.0</ele>
        <time>2019-05-04T12:36:28Z</time>
      </trkpt>
      <trkpt lat="39.100633" lon="-6.088950">
        <ele>1537.0</ele>
        <time>2019-05-04T12:36:29Z</time>
      </trkpt>
      <trkpt lat="39.100500" lon="-6.088917">
        <ele>1534.0</ele>
        <time>2019-05-04T12:36:30Z</time>
      </trkpt>
      <trkpt lat="39.100383" lon="-6.088883">
        <ele>1530.0</ele>
        <time>2019-05-04T12:36:31Z</time>
      </trkpt>
      <trkpt lat="39.100267" lon="-6.088850">
        <ele>1527.0</ele>
        <time>2019-05-04T12:36:32Z</time>
      </trkpt>
      <trkpt lat="39.100150" lon="-6.088800">
        <ele>1524.0</ele>
        <time>2019-05-04T12:36:33Z</time>
      </trkpt>
      <trkpt lat="39.100017" lon="-6.088783">
        <ele>1520.0</ele>
        <time>2019-05-04T12:36:34Z</time>
      </trkpt>
      <trkpt lat="39.099900" lon="-6.088750">
        <ele>1517.0</ele>
        <time>2019-05-04T12:36:35Z</time>
      </trkpt>
      <trkpt lat="39.099767" lon="-6.088700">
        <ele>1514.0</ele>
        <time>2019-05-04T12:36:36Z</time>
      </trkpt>
      <trkpt lat="39.099633" lon="-6.088667">
        <ele>1511.0</ele>
        <time>2019-05-04T12:36:37Z</time>
      </trkpt>
      <trkpt lat="39.099517" lon="-6.088633">
        <ele>1510.0</ele>
        <time>2019-05-04T12:36:38Z</time>
      </trkpt>
      <trkpt lat="39.099400" lon="-6.088583">
        <ele>1508.0</ele>
        <time>2019-05-04T12:36:39Z</time>
      </trkpt>
      <trkpt lat="39.099283" lon="-6.088550">
        <ele>1506.0</ele>
        <time>2019-05-04T12:36:40Z</time>
      </trkpt>
      <trkpt lat="39.099150" lon="-6.088517">
        <ele>1504.0</ele>
        <time>2019-05-04T12:36:41Z</time>
      </trkpt>
      <trkpt lat="39.099033" lon="-6.088483">
        <ele>1502.0</ele>
        <time>2019-05-04T12:36:42Z</time>
      </trkpt>
      <trkpt lat="39.098917" lon="-6.088450">
        <ele>1500.0</ele>
        <time>2019-05-04T12:36:43Z</time>
      </trkpt>
      <trkpt lat="39.098783" lon="-6.088417">
        <ele>1497.0</ele>
        <time>2019-05-04T12:36:44Z</time>
      </trkpt>
      <trkpt lat="39.098667" lon="-6.088367">
        <ele>1495.0</ele>
        <time>2019-05-04T12:36:45Z</time>
      </trkpt>
      <trkpt lat="39.098550" lon="-6.088317">
        <ele>1492.0</ele>
        <time>2019-05-04T12:36:46Z</time>
      </trkpt>
      <trkpt lat="39.098433" lon="-6.088267">
        <ele>1490.0</ele>
        <time>2019-05-04T12:36:47Z</time>
      </trkpt>
      <trkpt lat="39.098317" lon="-6.088217">
        <ele>1488.0</ele>
        <time>2019-05-04T12:36:48Z</time>
      </trkpt>
      <trkpt lat="39.098183" lon="-6.088167">
        <ele>1487.0</ele>
        <time>2019-05-04T12:36:49Z</time>
      </trkpt>
      <trkpt lat="39.098067" lon="-6.088117">
        <ele>1485.0</ele>
        <time>2019-05-04T12:36:50Z</time>
      </trkpt>
      <trkpt lat="39.097950" lon="-6.088050">
        <ele>1483.0</ele>
        <time>2019-05-04T12:36:51Z</time>
      </trkpt>
      <trkpt lat="39.097833" lon="-6.088000">
        <ele>1481.0</ele>
        <time>2019-05-04T12:36:52Z</time>
      </trkpt>
      <trkpt lat="39.097717" lon="-6.087950">
        <ele>1480.0</ele>
        <time>2019-05-04T12:36:53Z</time>
      </trkpt>
      <trkpt lat="39.097600" lon="-6.087900">
        <ele>1478.0</ele>
        <time>2019-05-04T12:36:54Z</time>
      </trkpt>
      <trkpt lat="39.097483" lon="-6.087850">
        <ele>1476.0</ele>
        <time>2019-05-04T12:36:55Z</time>
      </trkpt>
      <trkpt lat="39.097383" lon="-6.087817">
        <ele>1475.0</ele>
        <time>2019-05-04T12:36:56Z</time>
      </trkpt>
      <trkpt lat="39.097267" lon="-6.087767">
        <ele>1473.0</ele>
        <time>2019-05-04T12:36:57Z</time>
      </trkpt>
      <trkpt lat="39.097133" lon="-6.087717">
        <ele>1471.0</ele>
        <time>2019-05-04T12:36:58Z</time>
      </trkpt>
      <trkpt lat="39.097017" lon="-6.087683">
        <ele>1470.0</ele>
        <time>2019-05-04T12:36:59Z</time>
      </trkpt>
      <trkpt lat="39.096883" lon="-6.087633">
        <ele>1468.0</ele>
        <time>2019-05-04T12:37:00Z</time>
      </trkpt>
      <trkpt lat="39.096767" lon="-6.087600">
        <ele>1467.0</ele>
        <time>2019-05-04T12:37:01Z</time>
      </trkpt>
      <trkpt lat="39.096667" lon="-6.087567">
        <ele>1466.0</ele>
        <time>2019-05-04T12:37:02Z</time>
      </trkpt>
      <trkpt lat="39.096550" lon="-6.087517">
        <ele>1465.0</ele>
        <time>2019-05-04T12:37:03Z</time>
      </trkpt>
      <trkpt lat="39.096433" lon="-6.087450">
        <ele>1463.0</ele>
        <time>2019-05-04T12:37:04Z</time>
      </trkpt>
      <trkpt lat="39.096300" lon="-6.087417">
        <ele>1461.0</ele>
        <time>2019-05-04T12:37:05Z</time>
      </trkpt>
      <trkpt lat="39.096167" lon="-6.087367">
        <ele>1460.0</ele>
        <time>2019-05-04T12:37:06Z</time>
      </trkpt>
      <trkpt lat="39.096050" lon="-6.087317">
        <ele>1459.0</ele>
        <time>2019-05-04T12:37:07Z</time>
      </trkpt>
      <trkpt lat="39.095933" lon="-6.087267">
        <ele>1460.0</ele>
        <time>2019-05-04T12:37:08Z</time>
      </trkpt>
      <trkpt lat="39.095817" lon="-6.087200">
        <ele>1459.0</ele>
        <time>2019-05-04T12:37:09Z</time>
      </trkpt>
      <trkpt lat="39.095717" lon="-6.087167">
        <ele>1458.0</ele>
        <time>2019-05-04T12:37:10Z</time>
      </trkpt>
      <trkpt lat="39.095600" lon="-6.087117">
        <ele>1457.0</ele>
        <time>2019-05-04T12:37:11Z</time>
      </trkpt>
      <trkpt lat="39.095467" lon="-6.087083">
        <ele>1456.0</ele>
        <time>2019-05-04T12:37:12Z</time>
      </trkpt>
      <trkpt lat="39.095350" lon="-6.087033">
        <ele>1454.0</ele>
        <time>2019-05-04T12:37:13Z</time>
      </trkpt>
      <trkpt lat="39.095233" lon="-6.086983">
        <ele>1453.0</ele>
        <time>2019-05-04T12:37:14Z</time>
      </trkpt>
      <trkpt lat="39.095117" lon="-6.086917">
        <ele>1452.0</ele>
        <time>2019-05-04T12:37:15Z</time>
      </trkpt>
      <trkpt lat="39.095000" lon="-6.086883">
        <ele>1451.0</ele>
        <time>2019-05-04T12:37:16Z</time>
      </trkpt>
      <trkpt lat="39.094883" lon="-6.086833">
        <ele>1450.0</ele>
        <time>2019-05-04T12:37:17Z</time>
      </trkpt>
      <trkpt lat="39.094767" lon="-6.086783">
        <ele>1448.0</ele>
        <time>2019-05-04T12:37:18Z</time>
      </trkpt>
      <trkpt lat="39.094650" lon="-6.086733">
        <ele>1447.0</ele>
        <time>2019-05-04T12:37:19Z</time>
      </trkpt>
      <trkpt lat="39.094533" lon="-6.086683">
        <ele>1445.0</ele>
        <time>2019-05-04T12:37:20Z</time>
      </trkpt>
      <trkpt lat="39.094417" lon="-6.086633">
        <ele>1443.0</ele>
        <time>2019-05-04T12:37:21Z</time>
      </trkpt>
      <trkpt lat="39.094283" lon="-6.086583">
        <ele>1441.0</ele>
        <time>2019-05-04T12:37:22Z</time>
      </trkpt>
      <trkpt lat="39.094167" lon="-6.086550">
        <ele>1440.0</ele>
        <time>2019-05-04T12:37:23Z</time>
      </trkpt>
      <trkpt lat="39.094050" lon="-6.086483">
        <ele>1439.0</ele>
        <time>2019-05-04T12:37:24Z</time>
      </trkpt>
      <trkpt lat="39.093950" lon="-6.086433">
        <ele>1437.0</ele>
        <time>2019-05-04T12:37:25Z</time>
      </trkpt>
      <trkpt lat="39.093817" lon="-6.086400">
        <ele>1435.0</ele>
        <time>2019-05-04T12:37:26Z</time>
      </trkpt>
      <trkpt lat="39.093700" lon="-6.086350">
        <ele>1433.0</ele>
        <time>2019-05-04T12:37:27Z</time>
      </trkpt>
      <trkpt lat="39.093583" lon="-6.086333">
        <ele>1432.0</ele>
        <time>2019-05-04T12:37:28Z</time>
      </trkpt>
      <trkpt lat="39.093467" lon="-6.086300">
        <ele>1431.0</ele>
        <time>2019-05-04T12:37:29Z</time>
      </trkpt>
      <trkpt lat="39.093350" lon="-6.086250">
        <ele>1430.0</ele>
        <time>2019-05-04T12:37:30Z</time>
      </trkpt>
      <trkpt lat="39.093250" lon="-6.086217">
        <ele>1430.0</ele>
        <time>2019-05-04T12:37:31Z</time>
      </trkpt>
      <trkpt lat="39.093133" lon="-6.086167">
        <ele>1428.0</ele>
        <time>2019-05-04T12:37:32Z</time>
      </trkpt>
      <trkpt lat="39.093017" lon="-6.086150">
        <ele>1427.0</ele>
        <time>2019-05-04T12:37:33Z</time>
      </trkpt>
      <trkpt lat="39.092883" lon="-6.086117">
        <ele>1425.0</ele>
        <time>2019-05-04T12:37:34Z</time>
      </trkpt>
      <trkpt lat="39.092783" lon="-6.086083">
        <ele>1424.0</ele>
        <time>2019-05-04T12:37:35Z</time>
      </trkpt>
      <trkpt lat="39.092683" lon="-6.086050">
        <ele>1423.0</ele>
        <time>2019-05-04T12:37:36Z</time>
      </trkpt>
      <trkpt lat="39.092583" lon="-6.086017">
        <ele>1422.0</ele>
        <time>2019-05-04T12:37:37Z</time>
      </trkpt>
      <trkpt lat="39.092483" lon="-6.085983">
        <ele>1421.0</ele>
        <time>2019-05-04T12:37:38Z</time>
      </trkpt>
      <trkpt lat="39.092367" lon="-6.085950">
        <ele>1420.0</ele>
        <time>2019-05-04T12:37:39Z</time>
      </trkpt>
      <trkpt lat="39.092267" lon="-6.085933">
        <ele>1418.0</ele>
        <time>2019-05-04T12:37:40Z</time>
      </trkpt>
      <trkpt lat="39.092150" lon="-6.085917">
        <ele>1416.0</ele>
        <time>2019-05-04T12:37:41Z</time>
      </trkpt>
      <trkpt lat="39.092050" lon="-6.085883">
        <ele>1414.0</ele>
        <time>2019-05-04T12:37:42Z</time>
      </trkpt>
      <trkpt lat="39.091950" lon="-6.085850">
        <ele>1412.0</ele>
        <time>2019-05-04T12:37:43Z</time>
      </trkpt>
      <trkpt lat="39.091867" lon="-6.085817">
        <ele>1411.0</ele>
        <time>2019-05-04T12:37:44Z</time>
      </trkpt>
      <trkpt lat="39.091767" lon="-6.085783">
        <ele>1409.0</ele>
        <time>2019-05-04T12:37:45Z</time>
      </trkpt>
      <trkpt lat="39.091667" lon="-6.085767">
        <ele>1407.0</ele>
        <time>2019-05-04T12:37:46Z</time>
      </trkpt>
      <trkpt lat="39.091550" lon="-6.085767">
        <ele>1403.0</ele>
        <time>2019-05-04T12:37:47Z</time>
      </trkpt>
      <trkpt lat="39.091433" lon="-6.085750">
        <ele>1400.0</ele>
        <time>2019-05-04T12:37:48Z</time>
      </trkpt>
      <trkpt lat="39.091317" lon="-6.085750">
        <ele>1398.0</ele>
        <time>2019-05-04T12:37:49Z</time>
      </trkpt>
      <trkpt lat="39.091217" lon="-6.085733">
        <ele>1396.0</ele>
        <time>2019-05-04T12:37:50Z</time>
      </trkpt>
      <trkpt lat="39.091117" lon="-6.085717">
        <ele>1395.0</ele>
        <time>2019-05-04T12:37:51Z</time>
      </trkpt>
      <trkpt lat="39.091017" lon="-6.085700">
        <ele>1394.0</ele>
        <time>2019-05-04T12:37:52Z</time>
      </trkpt>
      <trkpt lat="39.090917" lon="-6.085683">
        <ele>1391.0</ele>
        <time>2019-05-04T12:37:53Z</time>
      </trkpt>
      <trkpt lat="39.090800" lon="-6.085650">
        <ele>1389.0</ele>
        <time>2019-05-04T12:37:54Z</time>
      </trkpt>
      <trkpt lat="39.090683" lon="-6.085633">
        <ele>1388.0</ele>
        <time>2019-05-04T12:37:55Z</time>
      </trkpt>
      <trkpt lat="39.090583" lon="-6.085617">
        <ele>1387.0</ele>
        <time>2019-05-04T12:37:56Z</time>
      </trkpt>
      <trkpt lat="39.090483" lon="-6.085600">
        <ele>1386.0</ele>
        <time>2019-05-04T12:37:57Z</time>
      </trkpt>
      <trkpt lat="39.090383" lon="-6.085583">
        <ele>1385.0</ele>
        <time>2019-05-04T12:37:58Z</time>
      </trkpt>
      <trkpt lat="39.090267" lon="-6.085567">
        <ele>1383.0</ele>
        <time>2019-05-04T12:37:59Z</time>
      </trkpt>
      <trkpt lat="39.090150" lon="-6.085550">
        <ele>1382.0</ele>
        <time>2019-05-04T12:38:00Z</time>
      </trkpt>
      <trkpt lat="39.090033" lon="-6.085550">
        <ele>1381.0</ele>
        <time>2019-05-04T12:38:01Z</time>
      </trkpt>
      <trkpt lat="39.089933" lon="-6.085533">
        <ele>1381.0</ele>
        <time>2019-05-04T12:38:02Z</time>
      </trkpt>
      <trkpt lat="39.089817" lon="-6.085517">
        <ele>1382.0</ele>
        <time>2019-05-04T12:38:03Z</time>
      </trkpt>
      <trkpt lat="39.089717" lon="-6.085500">
        <ele>1382.0</ele>
        <time>2019-05-04T12:38:04Z</time>
      </trkpt>
      <trkpt lat="39.089617" lon="-6.085483">
        <ele>1381.0</ele>
        <time>2019-05-04T12:38:05Z</time>
      </trkpt>
      <trkpt lat="39.089517" lon="-6.085483">
        <ele>1381.0</ele>
        <time>2019-05-04T12:38:06Z</time>
      </trkpt>
      <trkpt lat="39.089417" lon="-6.085483">
        <ele>1380.0</ele>
        <time>2019-05-04T12:38:07Z</time>
      </trkpt>
      <trkpt lat="39.089333" lon="-6.085483">
        <ele>1380.0</ele>
        <time>2019-05-04T12:38:08Z</time>
      </trkpt>
      <trkpt lat="39.089217" lon="-6.085483">
        <ele>1378.0</ele>
        <time>2019-05-04T12:38:09Z</time>
      </trkpt>
      <trkpt lat="39.089117" lon="-6.085500">
        <ele>1377.0</ele>
        <time>2019-05-04T12:38:10Z</time>
      </trkpt>
      <trkpt lat="39.089017" lon="-6.085500">
        <ele>1377.0</ele>
        <time>2019-05-04T12:38:11Z</time>
      </trkpt>
      <trkpt lat="39.088933" lon="-6.085517">
        <ele>1377.0</ele>
        <time>2019-05-04T12:38:12Z</time>
      </trkpt>
      <trkpt lat="39.088850" lon="-6.085533">
        <ele>1378.0</ele>
        <time>2019-05-04T12:38:13Z</time>
      </trkpt>
      <trkpt lat="39.088750" lon="-6.085550">
        <ele>1378.0</ele>
        <time>2019-05-04T12:38:14Z</time>
      </trkpt>
      <trkpt lat="39.088667" lon="-6.085550">
        <ele>1377.0</ele>
        <time>2019-05-04T12:38:15Z</time>
      </trkpt>
      <trkpt lat="39.088567" lon="-6.085567">
        <ele>1376.0</ele>
        <time>2019-05-04T12:38:16Z</time>
      </trkpt>
      <trkpt lat="39.088483" lon="-6.085583">
        <ele>1376.0</ele>
        <time>2019-05-04T12:38:17Z</time>
      </trkpt>
      <trkpt lat="39.088383" lon="-6.085600">
        <ele>1376.0</ele>
        <time>2019-05-04T12:38:18Z</time>
      </trkpt>
      <trkpt lat="39.088300" lon="-6.085600">
        <ele>1376.0</ele>
        <time>2019-05-04T12:38:19Z</time>
      </trkpt>
      <trkpt lat="39.088233" lon="-6.085617">
        <ele>1376.0</ele>
        <time>2019-05-04T12:38:20Z</time>
      </trkpt>
      <trkpt lat="39.088150" lon="-6.085633">
        <ele>1375.0</ele>
        <time>2019-05-04T12:38:21Z</time>
      </trkpt>
      <trkpt lat="39.088083" lon="-6.085650">
        <ele>1376.0</ele>
        <time>2019-05-04T12:38:22Z</time>
      </trkpt>
      <trkpt lat="39.088000" lon="-6.085683">
        <ele>1375.0</ele>
        <time>2019-05-04T12:38:23Z</time>
      </trkpt>
      <trkpt lat="39.087933" lon="-6.085717">
        <ele>1375.0</ele>
        <time>2019-05-04T12:38:24Z</time>
      </trkpt>
      <trkpt lat="39.087867" lon="-6.085750">
        <ele>1375.0</ele>
        <time>2019-05-04T12:38:25Z</time>
      </trkpt>
      <trkpt lat="39.087800" lon="-6.085800">
        <ele>1376.0</ele>
        <time>2019-05-04T12:38:26Z</time>
      </trkpt>
      <trkpt lat="39.087750" lon="-6.085850">
        <ele>1376.0</ele>
        <time>2019-05-04T12:38:27Z</time>
      </trkpt>
      <trkpt lat="39.087683" lon="-6.085900">
        <ele>1376.0</ele>
        <time>2019-05-04T12:38:28Z</time>
      </trkpt>
      <trkpt lat="39.087617" lon="-6.085950">
        <ele>1373.0</ele>
        <time>2019-05-04T12:38:29Z</time>
      </trkpt>
      <trkpt lat="39.087550" lon="-6.086017">
        <ele>1371.0</ele>
        <time>2019-05-04T12:38:30Z</time>
      </trkpt>
      <trkpt lat="39.087467" lon="-6.086083">
        <ele>1369.0</ele>
        <time>2019-05-04T12:38:31Z</time>
      </trkpt>
      <trkpt lat="39.087400" lon="-6.086167">
        <ele>1369.0</ele>
        <time>2019-05-04T12:38:32Z</time>
      </trkpt>
      <trkpt lat="39.087350" lon="-6.086233">
        <ele>1369.0</ele>
        <time>2019-05-04T12:38:33Z</time>
      </trkpt>
      <trkpt lat="39.087300" lon="-6.086300">
        <ele>1369.0</ele>
        <time>2019-05-04T12:38:34Z</time>
      </trkpt>
      <trkpt lat="39.087233" lon="-6.086367">
        <ele>1367.0</ele>
        <time>2019-05-04T12:38:35Z</time>
      </trkpt>
      <trkpt lat="39.087167" lon="-6.086433">
        <ele>1366.0</ele>
        <time>2019-05-04T12:38:36Z</time>
      </trkpt>
      <trkpt lat="39.087100" lon="-6.086517">
        <ele>1365.0</ele>
        <time>2019-05-04T12:38:37Z</time>
      </trkpt>
      <trkpt lat="39.087033" lon="-6.086583">
        <ele>1364.0</ele>
        <time>2019-05-04T12:38:38Z</time>
      </trkpt>
      <trkpt lat="39.086983" lon="-6.086650">
        <ele>1364.0</ele>
        <time>2019-05-04T12:38:39Z</time>
      </trkpt>
      <trkpt lat="39.086917" lon="-6.086717">
        <ele>1363.0</ele>
        <time>2019-05-04T12:38:40Z</time>
      </trkpt>
      <trkpt lat="39.086867" lon="-6.086783">
        <ele>1363.0</ele>
        <time>2019-05-04T12:38:41Z</time>
      </trkpt>
      <trkpt lat="39.086817" lon="-6.086867">
        <ele>1361.0</ele>
        <time>2019-05-04T12:38:42Z</time>
      </trkpt>
      <trkpt lat="39.086767" lon="-6.086967">
        <ele>1358.0</ele>
        <time>2019-05-04T12:38:43Z</time>
      </trkpt>
      <trkpt lat="39.086700" lon="-6.087050">
        <ele>1356.0</ele>
        <time>2019-05-04T12:38:44Z</time>
      </trkpt>
      <trkpt lat="39.086633" lon="-6.087100">
        <ele>1353.0</ele>
        <time>2019-05-04T12:38:45Z</time>
      </trkpt>
      <trkpt lat="39.086583" lon="-6.087167">
        <ele>1351.0</ele>
        <time>2019-05-04T12:38:46Z</time>
      </trkpt>
      <trkpt lat="39.086517" lon="-6.087217">
        <ele>1349.0</ele>
        <time>2019-05-04T12:38:47Z</time>
      </trkpt>
      <trkpt lat="39.086450" lon="-6.087283">
        <ele>1348.0</ele>
        <time>2019-05-04T12:38:48Z</time>
      </trkpt>
      <trkpt lat="39.086383" lon="-6.087333">
        <ele>1346.0</ele>
        <time>2019-05-04T12:38:49Z</time>
      </trkpt>
      <trkpt lat="39.086300" lon="-6.087383">
        <ele>1344.0</ele>
        <time>2019-05-04T12:38:50Z</time>
      </trkpt>
      <trkpt lat="39.086233" lon="-6.087417">
        <ele>1342.0</ele>
        <time>2019-05-04T12:38:51Z</time>
      </trkpt>
      <trkpt lat="39.086150" lon="-6.087467">
        <ele>1341.0</ele>
        <time>2019-05-04T12:38:52Z</time>
      </trkpt>
      <trkpt lat="39.086083" lon="-6.087517">
        <ele>1340.0</ele>
        <time>2019-05-04T12:38:53Z</time>
      </trkpt>
      <trkpt lat="39.086000" lon="-6.087567">
        <ele>1339.0</ele>
        <time>2019-05-04T12:38:54Z</time>
      </trkpt>
      <trkpt lat="39.085900" lon="-6.087617">
        <ele>1339.0</ele>
        <time>2019-05-04T12:38:55Z</time>
      </trkpt>
      <trkpt lat="39.085817" lon="-6.087650">
        <ele>1338.0</ele>
        <time>2019-05-04T12:38:56Z</time>
      </trkpt>
      <trkpt lat="39.085733" lon="-6.087700">
        <ele>1338.0</ele>
        <time>2019-05-04T12:38:57Z</time>
      </trkpt>
      <trkpt lat="39.085650" lon="-6.087767">
        <ele>1338.0</ele>
        <time>2019-05-04T12:38:58Z</time>
      </trkpt>
      <trkpt lat="39.085567" lon="-6.087817">
        <ele>1338.0</ele>
        <time>2019-05-04T12:38:59Z</time>
      </trkpt>
      <trkpt lat="39.085483" lon="-6.087883">
        <ele>1338.0</ele>
        <time>2019-05-04T12:39:00Z</time>
      </trkpt>
      <trkpt lat="39.085400" lon="-6.087933">
        <ele>1339.0</ele>
        <time>2019-05-04T12:39:01Z</time>
      </trkpt>
      <trkpt lat="39.085333" lon="-6.087983">
        <ele>1339.0</ele>
        <time>2019-05-04T12:39:02Z</time>
      </trkpt>
      <trkpt lat="39.085250" lon="-6.088033">
        <ele>1340.0</ele>
        <time>2019-05-04T12:39:03Z</time>
      </trkpt>
      <trkpt lat="39.085167" lon="-6.088117">
        <ele>1340.0</ele>
        <time>2019-05-04T12:39:04Z</time>
      </trkpt>
      <trkpt lat="39.085100" lon="-6.088200">
        <ele>1342.0</ele>
        <time>2019-05-04T12:39:05Z</time>
      </trkpt>
      <trkpt lat="39.085033" lon="-6.088250">
        <ele>1344.0</ele>
        <time>2019-05-04T12:39:06Z</time>
      </trkpt>
      <trkpt lat="39.084983" lon="-6.088317">
        <ele>1347.0</ele>
        <time>2019-05-04T12:39:07Z</time>
      </trkpt>
      <trkpt lat="39.084917" lon="-6.088367">
        <ele>1348.0</ele>
        <time>2019-05-04T12:39:08Z</time>
      </trkpt>
      <trkpt lat="39.084850" lon="-6.088450">
        <ele>1349.0</ele>
        <time>2019-05-04T12:39:09Z</time>
      </trkpt>
      <trkpt lat="39.084783" lon="-6.088567">
        <ele>1349.0</ele>
        <time>2019-05-04T12:39:10Z</time>
      </trkpt>
      <trkpt lat="39.084750" lon="-6.088683">
        <ele>1349.0</ele>
        <time>2019-05-04T12:39:11Z</time>
      </trkpt>
      <trkpt lat="39.084733" lon="-6.088817">
        <ele>1350.0</ele>
        <time>2019-05-04T12:39:12Z</time>
      </trkpt>
      <trkpt lat="39.084750" lon="-6.088933">
        <ele>1350.0</ele>
        <time>2019-05-04T12:39:13Z</time>
      </trkpt>
      <trkpt lat="39.084800" lon="-6.089050">
        <ele>1350.0</ele>
        <time>2019-05-04T12:39:14Z</time>
      </trkpt>
      <trkpt lat="39.084867" lon="-6.089150">
        <ele>1351.0</ele>
        <time>2019-05-04T12:39:15Z</time>
      </trkpt>
      <trkpt lat="39.084933" lon="-6.089217">
        <ele>1352.0</ele>
        <time>2019-05-04T12:39:16Z</time>
      </trkpt>
      <trkpt lat="39.085000" lon="-6.089250">
        <ele>1353.0</ele>
        <time>2019-05-04T12:39:17Z</time>
      </trkpt>
      <trkpt lat="39.085083" lon="-6.089250">
        <ele>1353.0</ele>
        <time>2019-05-04T12:39:18Z</time>
      </trkpt>
      <trkpt lat="39.085150" lon="-6.089217">
        <ele>1352.0</ele>
        <time>2019-05-04T12:39:19Z</time>
      </trkpt>
      <trkpt lat="39.085200" lon="-6.089150">
        <ele>1352.0</ele>
        <time>2019-05-04T12:39:20Z</time>
      </trkpt>
      <trkpt lat="39.085217" lon="-6.089067">
        <ele>1350.0</ele>
        <time>2019-05-04T12:39:21Z</time>
      </trkpt>
      <trkpt lat="39.085217" lon="-6.088983">
        <ele>1349.0</ele>
        <time>2019-05-04T12:39:22Z</time>
      </trkpt>
      <trkpt lat="39.085183" lon="-6.088917">
        <ele>1348.0</ele>
        <time>2019-05-04T12:39:23Z</time>
      </trkpt>
      <trkpt lat="39.085150" lon="-6.088867">
        <ele>1348.0</ele>
        <time>2019-05-04T12:39:24Z</time>
      </trkpt>
      <trkpt lat="39.085083" lon="-6.088817">
        <ele>1349.0</ele>
        <time>2019-05-04T12:39:25Z</time>
      </trkpt>
      <trkpt lat="39.085033" lon="-6.088783">
        <ele>1351.0</ele>
        <time>2019-05-04T12:39:26Z</time>
      </trkpt>
      <trkpt lat="39.084967" lon="-6.088750">
        <ele>1352.0</ele>
        <time>2019-05-04T12:39:27Z</time>
      </trkpt>
      <trkpt lat="39.084900" lon="-6.088733">
        <ele>1354.0</ele>
        <time>2019-05-04T12:39:28Z</time>
      </trkpt>
      <trkpt lat="39.084833" lon="-6.088717">
        <ele>1356.0</ele>
        <time>2019-05-04T12:39:29Z</time>
      </trkpt>
      <trkpt lat="39.084767" lon="-6.088717">
        <ele>1357.0</ele>
        <time>2019-05-04T12:39:30Z</time>
      </trkpt>
      <trkpt lat="39.084683" lon="-6.088717">
        <ele>1359.0</ele>
        <time>2019-05-04T12:39:31Z</time>
      </trkpt>
      <trkpt lat="39.084600" lon="-6.088717">
        <ele>1359.0</ele>
        <time>2019-05-04T12:39:32Z</time>
      </trkpt>
      <trkpt lat="39.084517" lon="-6.088733">
        <ele>1360.0</ele>
        <time>2019-05-04T12:39:33Z</time>
      </trkpt>
      <trkpt lat="39.084433" lon="-6.088783">
        <ele>1360.0</ele>
        <time>2019-05-04T12:39:34Z</time>
      </trkpt>
      <trkpt lat="39.084350" lon="-6.088867">
        <ele>1360.0</ele>
        <time>2019-05-04T12:39:35Z</time>
      </trkpt>
      <trkpt lat="39.084300" lon="-6.089000">
        <ele>1361.0</ele>
        <time>2019-05-04T12:39:36Z</time>
      </trkpt>
      <trkpt lat="39.084283" lon="-6.089150">
        <ele>1361.0</ele>
        <time>2019-05-04T12:39:37Z</time>
      </trkpt>
      <trkpt lat="39.084300" lon="-6.089283">
        <ele>1362.0</ele>
        <time>2019-05-04T12:39:38Z</time>
      </trkpt>
      <trkpt lat="39.084333" lon="-6.089417">
        <ele>1363.0</ele>
        <time>2019-05-04T12:39:39Z</time>
      </trkpt>
      <trkpt lat="39.084367" lon="-6.089550">
        <ele>1363.0</ele>
        <time>2019-05-04T12:39:40Z</time>
      </trkpt>
      <trkpt lat="39.084433" lon="-6.089667">
        <ele>1362.0</ele>
        <time>2019-05-04T12:39:41Z</time>
      </trkpt>
      <trkpt lat="39.084517" lon="-6.089767">
        <ele>1363.0</ele>
        <time>2019-05-04T12:39:42Z</time>
      </trkpt>
      <trkpt lat="39.084600" lon="-6.089800">
        <ele>1363.0</ele>
        <time>2019-05-04T12:39:43Z</time>
      </trkpt>
      <trkpt lat="39.084667" lon="-6.089817">
        <ele>1363.0</ele>
        <time>2019-05-04T12:39:44Z</time>
      </trkpt>
      <trkpt lat="39.084733" lon="-6.089800">
        <ele>1363.0</ele>
        <time>2019-05-04T12:39:45Z</time>
      </trkpt>
      <trkpt lat="39.084800" lon="-6.089783">
        <ele>1363.0</ele>
        <time>2019-05-04T12:39:46Z</time>
      </trkpt>
      <trkpt lat="39.084833" lon="-6.089733">
        <ele>1362.0</ele>
        <time>2019-05-04T12:39:47Z</time>
      </trkpt>
      <trkpt lat="39.084867" lon="-6.089667">
        <ele>1361.0</ele>
        <time>2019-05-04T12:39:48Z</time>
      </trkpt>
      <trkpt lat="39.084850" lon="-6.089583">
        <ele>1360.0</ele>
        <time>2019-05-04T12:39:49Z</time>
      </trkpt>
      <trkpt lat="39.084817" lon="-6.089533">
        <ele>1360.0</ele>
        <time>2019-05-04T12:39:50Z</time>
      </trkpt>
      <trkpt lat="39.084767" lon="-6.089500">
        <ele>1359.0</ele>
        <time>2019-05-04T12:39:51Z</time>
      </trkpt>
      <trkpt lat="39.084700" lon="-6.089483">
        <ele>1360.0</ele>
        <time>2019-05-04T12:39:52Z</time>
      </trkpt>
      <trkpt lat="39.084633" lon="-6.089483">
        <ele>1361.0</ele>
        <time>2019-05-04T12:39:53Z</time>
      </trkpt>
      <trkpt lat="39.084583" lon="-6.089483">
        <ele>1361.0</ele>
        <time>2019-05-04T12:39:54Z</time>
      </trkpt>
      <trkpt lat="39.084500" lon="-6.089483">
        <ele>1362.0</ele>
        <time>2019-05-04T12:39:55Z</time>
      </trkpt>
      <trkpt lat="39.084433" lon="-6.089483">
        <ele>1362.0</ele>
        <time>2019-05-04T12:39:56Z</time>
      </trkpt>
      <trkpt lat="39.084333" lon="-6.089500">
        <ele>1362.0</ele>
        <time>2019-05-04T12:39:57Z</time>
      </trkpt>
      <trkpt lat="39.084233" lon="-6.089483">
        <ele>1362.0</ele>
        <time>2019-05-04T12:39:58Z</time>
      </trkpt>
      <trkpt lat="39.084167" lon="-6.089467">
        <ele>1362.0</ele>
        <time>2019-05-04T12:39:59Z</time>
      </trkpt>
      <trkpt lat="39.084100" lon="-6.089450">
        <ele>1363.0</ele>
        <time>2019-05-04T12:40:00Z</time>
      </trkpt>
      <trkpt lat="39.084033" lon="-6.089433">
        <ele>1364.0</ele>
        <time>2019-05-04T12:40:01Z</time>
      </trkpt>
      <trkpt lat="39.083950" lon="-6.089417">
        <ele>1365.0</ele>
        <time>2019-05-04T12:40:02Z</time>
      </trkpt>
      <trkpt lat="39.083883" lon="-6.089417">
        <ele>1365.0</ele>
        <time>2019-05-04T12:40:03Z</time>
      </trkpt>
      <trkpt lat="39.083800" lon="-6.089400">
        <ele>1365.0</ele>
        <time>2019-05-04T12:40:04Z</time>
      </trkpt>
      <trkpt lat="39.083733" lon="-6.089383">
        <ele>1366.0</ele>
        <time>2019-05-04T12:40:05Z</time>
      </trkpt>
      <trkpt lat="39.083650" lon="-6.089367">
        <ele>1367.0</ele>
        <time>2019-05-04T12:40:06Z</time>
      </trkpt>
      <trkpt lat="39.083583" lon="-6.089350">
        <ele>1368.0</ele>
        <time>2019-05-04T12:40:07Z</time>
      </trkpt>
      <trkpt lat="39.083517" lon="-6.089333">
        <ele>1370.0</ele>
        <time>2019-05-04T12:40:08Z</time>
      </trkpt>
      <trkpt lat="39.083467" lon="-6.089317">
        <ele>1372.0</ele>
        <time>2019-05-04T12:40:09Z</time>
      </trkpt>
      <trkpt lat="39.083383" lon="-6.089283">
        <ele>1373.0</ele>
        <time>2019-05-04T12:40:10Z</time>
      </trkpt>
      <trkpt lat="39.083317" lon="-6.089267">
        <ele>1375.0</ele>
        <time>2019-05-04T12:40:11Z</time>
      </trkpt>
      <trkpt lat="39.083250" lon="-6.089233">
        <ele>1378.0</ele>
        <time>2019-05-04T12:40:12Z</time>
      </trkpt>
      <trkpt lat="39.083183" lon="-6.089217">
        <ele>1381.0</ele>
        <time>2019-05-04T12:40:13Z</time>
      </trkpt>
      <trkpt lat="39.083133" lon="-6.089200">
        <ele>1384.0</ele>
        <time>2019-05-04T12:40:14Z</time>
      </trkpt>
      <trkpt lat="39.083083" lon="-6.089167">
        <ele>1386.0</ele>
        <time>2019-05-04T12:40:15Z</time>
      </trkpt>
      <trkpt lat="39.083017" lon="-6.089133">
        <ele>1387.0</ele>
        <time>2019-05-04T12:40:16Z</time>
      </trkpt>
      <trkpt lat="39.082933" lon="-6.089133">
        <ele>1388.0</ele>
        <time>2019-05-04T12:40:17Z</time>
      </trkpt>
      <trkpt lat="39.082850" lon="-6.089167">
        <ele>1389.0</ele>
        <time>2019-05-04T12:40:18Z</time>
      </trkpt>
      <trkpt lat="39.082783" lon="-6.089233">
        <ele>1391.0</ele>
        <time>2019-05-04T12:40:19Z</time>
      </trkpt>
      <trkpt lat="39.082717" lon="-6.089350">
        <ele>1392.0</ele>
        <time>2019-05-04T12:40:20Z</time>
      </trkpt>
      <trkpt lat="39.082700" lon="-6.089467">
        <ele>1393.0</ele>
        <time>2019-05-04T12:40:21Z</time>
      </trkpt>
      <trkpt lat="39.082683" lon="-6.089600">
        <ele>1394.0</ele>
        <time>2019-05-04T12:40:22Z</time>
      </trkpt>
      <trkpt lat="39.082700" lon="-6.089733">
        <ele>1396.0</ele>
        <time>2019-05-04T12:40:23Z</time>
      </trkpt>
      <trkpt lat="39.082750" lon="-6.089850">
        <ele>1400.0</ele>
        <time>2019-05-04T12:40:24Z</time>
      </trkpt>
      <trkpt lat="39.082833" lon="-6.089933">
        <ele>1402.0</ele>
        <time>2019-05-04T12:40:25Z</time>
      </trkpt>
      <trkpt lat="39.082900" lon="-6.089950">
        <ele>1404.0</ele>
        <time>2019-05-04T12:40:26Z</time>
      </trkpt>
      <trkpt lat="39.082967" lon="-6.089933">
        <ele>1404.0</ele>
        <time>2019-05-04T12:40:27Z</time>
      </trkpt>
      <trkpt lat="39.083017" lon="-6.089883">
        <ele>1406.0</ele>
        <time>2019-05-04T12:40:28Z</time>
      </trkpt>
      <trkpt lat="39.083033" lon="-6.089833">
        <ele>1407.0</ele>
        <time>2019-05-04T12:40:29Z</time>
      </trkpt>
      <trkpt lat="39.083033" lon="-6.089783">
        <ele>1408.0</ele>
        <time>2019-05-04T12:40:30Z</time>
      </trkpt>
      <trkpt lat="39.083017" lon="-6.089700">
        <ele>1409.0</ele>
        <time>2019-05-04T12:40:31Z</time>
      </trkpt>
      <trkpt lat="39.082983" lon="-6.089650">
        <ele>1410.0</ele>
        <time>2019-05-04T12:40:32Z</time>
      </trkpt>
      <trkpt lat="39.082933" lon="-6.089600">
        <ele>1411.0</ele>
        <time>2019-05-04T12:40:33Z</time>
      </trkpt>
      <trkpt lat="39.082850" lon="-6.089567">
        <ele>1411.0</ele>
        <time>2019-05-04T12:40:34Z</time>
      </trkpt>
      <trkpt lat="39.082783" lon="-6.089567">
        <ele>1412.0</ele>
        <time>2019-05-04T12:40:35Z</time>
      </trkpt>
      <trkpt lat="39.082700" lon="-6.089567">
        <ele>1413.0</ele>
        <time>2019-05-04T12:40:36Z</time>
      </trkpt>
      <trkpt lat="39.082617" lon="-6.089583">
        <ele>1415.0</ele>
        <time>2019-05-04T12:40:37Z</time>
      </trkpt>
      <trkpt lat="39.082550" lon="-6.089600">
        <ele>1416.0</ele>
        <time>2019-05-04T12:40:38Z</time>
      </trkpt>
      <trkpt lat="39.082467" lon="-6.089617">
        <ele>1417.0</ele>
        <time>2019-05-04T12:40:39Z</time>
      </trkpt>
      <trkpt lat="39.082367" lon="-6.089667">
        <ele>1417.0</ele>
        <time>2019-05-04T12:40:40Z</time>
      </trkpt>
      <trkpt lat="39.082267" lon="-6.089767">
        <ele>1418.0</ele>
        <time>2019-05-04T12:40:41Z</time>
      </trkpt>
      <trkpt lat="39.082217" lon="-6.089900">
        <ele>1419.0</ele>
        <time>2019-05-04T12:40:42Z</time>
      </trkpt>
      <trkpt lat="39.082183" lon="-6.090050">
        <ele>1420.0</ele>
        <time>2019-05-04T12:40:43Z</time>
      </trkpt>
      <trkpt lat="39.082200" lon="-6.090200">
        <ele>1420.0</ele>
        <time>2019-05-04T12:40:44Z</time>
      </trkpt>
      <trkpt lat="39.082250" lon="-6.090333">
        <ele>1421.0</ele>
        <time>2019-05-04T12:40:45Z</time>
      </trkpt>
      <trkpt lat="39.082317" lon="-6.090417">
        <ele>1422.0</ele>
        <time>2019-05-04T12:40:46Z</time>
      </trkpt>
      <trkpt lat="39.082400" lon="-6.090467">
        <ele>1421.0</ele>
        <time>2019-05-04T12:40:47Z</time>
      </trkpt>
      <trkpt lat="39.082450" lon="-6.090450">
        <ele>1421.0</ele>
        <time>2019-05-04T12:40:48Z</time>
      </trkpt>
      <trkpt lat="39.082483" lon="-6.090383">
        <ele>1422.0</ele>
        <time>2019-05-04T12:40:49Z</time>
      </trkpt>
      <trkpt lat="39.082500" lon="-6.090300">
        <ele>1423.0</ele>
        <time>2019-05-04T12:40:50Z</time>
      </trkpt>
      <trkpt lat="39.082483" lon="-6.090200">
        <ele>1423.0</ele>
        <time>2019-05-04T12:40:51Z</time>
      </trkpt>
      <trkpt lat="39.082433" lon="-6.090133">
        <ele>1424.0</ele>
        <time>2019-05-04T12:40:52Z</time>
      </trkpt>
      <trkpt lat="39.082383" lon="-6.090083">
        <ele>1426.0</ele>
        <time>2019-05-04T12:40:53Z</time>
      </trkpt>
      <trkpt lat="39.082317" lon="-6.090050">
        <ele>1427.0</ele>
        <time>2019-05-04T12:40:54Z</time>
      </trkpt>
      <trkpt lat="39.082250" lon="-6.090000">
        <ele>1428.0</ele>
        <time>2019-05-04T12:40:55Z</time>
      </trkpt>
      <trkpt lat="39.082183" lon="-6.089967">
        <ele>1429.0</ele>
        <time>2019-05-04T12:40:56Z</time>
      </trkpt>
      <trkpt lat="39.082100" lon="-6.089933">
        <ele>1430.0</ele>
        <time>2019-05-04T12:40:57Z</time>
      </trkpt>
      <trkpt lat="39.082000" lon="-6.089967">
        <ele>1431.0</ele>
        <time>2019-05-04T12:40:58Z</time>
      </trkpt>
      <trkpt lat="39.081900" lon="-6.090017">
        <ele>1432.0</ele>
        <time>2019-05-04T12:40:59Z</time>
      </trkpt>
      <trkpt lat="39.081833" lon="-6.090083">
        <ele>1434.0</ele>
        <time>2019-05-04T12:41:00Z</time>
      </trkpt>
      <trkpt lat="39.081767" lon="-6.090167">
        <ele>1436.0</ele>
        <time>2019-05-04T12:41:01Z</time>
      </trkpt>
      <trkpt lat="39.081700" lon="-6.090267">
        <ele>1437.0</ele>
        <time>2019-05-04T12:41:02Z</time>
      </trkpt>
      <trkpt lat="39.081633" lon="-6.090383">
        <ele>1437.0</ele>
        <time>2019-05-04T12:41:03Z</time>
      </trkpt>
      <trkpt lat="39.081583" lon="-6.090500">
        <ele>1438.0</ele>
        <time>2019-05-04T12:41:04Z</time>
      </trkpt>
      <trkpt lat="39.081517" lon="-6.090617">
        <ele>1439.0</ele>
        <time>2019-05-04T12:41:05Z</time>
      </trkpt>
      <trkpt lat="39.081450" lon="-6.090717">
        <ele>1440.0</ele>
        <time>2019-05-04T12:41:06Z</time>
      </trkpt>
      <trkpt lat="39.081367" lon="-6.090800">
        <ele>1440.0</ele>
        <time>2019-05-04T12:41:07Z</time>
      </trkpt>
      <trkpt lat="39.081283" lon="-6.090867">
        <ele>1442.0</ele>
        <time>2019-05-04T12:41:08Z</time>
      </trkpt>
      <trkpt lat="39.081200" lon="-6.090933">
        <ele>1444.0</ele>
        <time>2019-05-04T12:41:09Z</time>
      </trkpt>
      <trkpt lat="39.081117" lon="-6.090967">
        <ele>1446.0</ele>
        <time>2019-05-04T12:41:10Z</time>
      </trkpt>
      <trkpt lat="39.081033" lon="-6.090983">
        <ele>1448.0</ele>
        <time>2019-05-04T12:41:11Z</time>
      </trkpt>
      <trkpt lat="39.080950" lon="-6.091000">
        <ele>1449.0</ele>
        <time>2019-05-04T12:41:12Z</time>
      </trkpt>
      <trkpt lat="39.080867" lon="-6.090967">
        <ele>1449.0</ele>
        <time>2019-05-04T12:41:13Z</time>
      </trkpt>
      <trkpt lat="39.080783" lon="-6.090917">
        <ele>1450.0</ele>
        <time>2019-05-04T12:41:14Z</time>
      </trkpt>
      <trkpt lat="39.080733" lon="-6.090850">
        <ele>1450.0</ele>
        <time>2019-05-04T12:41:15Z</time>
      </trkpt>
      <trkpt lat="39.080717" lon="-6.090783">
        <ele>1451.0</ele>
        <time>2019-05-04T12:41:16Z</time>
      </trkpt>
      <trkpt lat="39.080733" lon="-6.090733">
        <ele>1453.0</ele>
        <time>2019-05-04T12:41:17Z</time>
      </trkpt>
      <trkpt lat="39.080767" lon="-6.090683">
        <ele>1453.0</ele>
        <time>2019-05-04T12:41:18Z</time>
      </trkpt>
      <trkpt lat="39.080800" lon="-6.090633">
        <ele>1453.0</ele>
        <time>2019-05-04T12:41:19Z</time>
      </trkpt>
      <trkpt lat="39.080850" lon="-6.090583">
        <ele>1453.0</ele>
        <time>2019-05-04T12:41:20Z</time>
      </trkpt>
      <trkpt lat="39.080883" lon="-6.090550">
        <ele>1454.0</ele>
        <time>2019-05-04T12:41:21Z</time>
      </trkpt>
      <trkpt lat="39.080950" lon="-6.090533">
        <ele>1455.0</ele>
        <time>2019-05-04T12:41:22Z</time>
      </trkpt>
      <trkpt lat="39.081017" lon="-6.090533">
        <ele>1456.0</ele>
        <time>2019-05-04T12:41:23Z</time>
      </trkpt>
      <trkpt lat="39.081100" lon="-6.090583">
        <ele>1457.0</ele>
        <time>2019-05-04T12:41:24Z</time>
      </trkpt>
      <trkpt lat="39.081167" lon="-6.090667">
        <ele>1458.0</ele>
        <time>2019-05-04T12:41:25Z</time>
      </trkpt>
      <trkpt lat="39.081217" lon="-6.090750">
        <ele>1460.0</ele>
        <time>2019-05-04T12:41:26Z</time>
      </trkpt>
      <trkpt lat="39.081250" lon="-6.090867">
        <ele>1461.0</ele>
        <time>2019-05-04T12:41:27Z</time>
      </trkpt>
      <trkpt lat="39.081283" lon="-6.090983">
        <ele>1462.0</ele>
        <time>2019-05-04T12:41:28Z</time>
      </trkpt>
      <trkpt lat="39.081283" lon="-6.091117">
        <ele>1462.0</ele>
        <time>2019-05-04T12:41:29Z</time>
      </trkpt>
      <trkpt lat="39.081283" lon="-6.091267">
        <ele>1462.0</ele>
        <time>2019-05-04T12:41:30Z</time>
      </trkpt>
      <trkpt lat="39.081233" lon="-6.091383">
        <ele>1462.0</ele>
        <time>2019-05-04T12:41:31Z</time>
      </trkpt>
      <trkpt lat="39.081167" lon="-6.091500">
        <ele>1461.0</ele>
        <time>2019-05-04T12:41:32Z</time>
      </trkpt>
      <trkpt lat="39.081083" lon="-6.091583">
        <ele>1461.0</ele>
        <time>2019-05-04T12:41:33Z</time>
      </trkpt>
      <trkpt lat="39.080983" lon="-6.091650">
        <ele>1461.0</ele>
        <time>2019-05-04T12:41:34Z</time>
      </trkpt>
      <trkpt lat="39.080900" lon="-6.091683">
        <ele>1461.0</ele>
        <time>2019-05-04T12:41:35Z</time>
      </trkpt>
      <trkpt lat="39.080817" lon="-6.091700">
        <ele>1461.0</ele>
        <time>2019-05-04T12:41:36Z</time>
      </trkpt>
      <trkpt lat="39.080717" lon="-6.091717">
        <ele>1462.0</ele>
        <time>2019-05-04T12:41:37Z</time>
      </trkpt>
      <trkpt lat="39.080650" lon="-6.091733">
        <ele>1461.0</ele>
        <time>2019-05-04T12:41:38Z</time>
      </trkpt>
      <trkpt lat="39.080567" lon="-6.091733">
        <ele>1460.0</ele>
        <time>2019-05-04T12:41:39Z</time>
      </trkpt>
      <trkpt lat="39.080483" lon="-6.091717">
        <ele>1459.0</ele>
        <time>2019-05-04T12:41:40Z</time>
      </trkpt>
      <trkpt lat="39.080400" lon="-6.091700">
        <ele>1458.0</ele>
        <time>2019-05-04T12:41:41Z</time>
      </trkpt>
      <trkpt lat="39.080317" lon="-6.091650">
        <ele>1457.0</ele>
        <time>2019-05-04T12:41:42Z</time>
      </trkpt>
      <trkpt lat="39.080250" lon="-6.091583">
        <ele>1455.0</ele>
        <time>2019-05-04T12:41:43Z</time>
      </trkpt>
      <trkpt lat="39.080217" lon="-6.091500">
        <ele>1454.0</ele>
        <time>2019-05-04T12:41:44Z</time>
      </trkpt>
      <trkpt lat="39.080217" lon="-6.091400">
        <ele>1456.0</ele>
        <time>2019-05-04T12:41:45Z</time>
      </trkpt>
      <trkpt lat="39.080200" lon="-6.091333">
        <ele>1460.0</ele>
        <time>2019-05-04T12:41:46Z</time>
      </trkpt>
      <trkpt lat="39.080200" lon="-6.091250">
        <ele>1465.0</ele>
        <time>2019-05-04T12:41:47Z</time>
      </trkpt>
      <trkpt lat="39.080200" lon="-6.091200">
        <ele>1470.0</ele>
        <time>2019-05-04T12:41:48Z</time>
      </trkpt>
      <trkpt lat="39.080200" lon="-6.091133">
        <ele>1473.0</ele>
        <time>2019-05-04T12:41:49Z</time>
      </trkpt>
      <trkpt lat="39.080183" lon="-6.091067">
        <ele>1475.0</ele>
        <time>2019-05-04T12:41:50Z</time>
      </trkpt>
      <trkpt lat="39.080167" lon="-6.091017">
        <ele>1478.0</ele>
        <time>2019-05-04T12:41:51Z</time>
      </trkpt>
      <trkpt lat="39.080133" lon="-6.091000">
        <ele>1482.0</ele>
        <time>2019-05-04T12:41:52Z</time>
      </trkpt>
      <trkpt lat="39.080067" lon="-6.091000">
        <ele>1484.0</ele>
        <time>2019-05-04T12:41:53Z</time>
      </trkpt>
      <trkpt lat="39.079983" lon="-6.091017">
        <ele>1486.0</ele>
        <time>2019-05-04T12:41:54Z</time>
      </trkpt>
      <trkpt lat="39.079883" lon="-6.091083">
        <ele>1488.0</ele>
        <time>2019-05-04T12:41:55Z</time>
      </trkpt>
      <trkpt lat="39.079800" lon="-6.091183">
        <ele>1489.0</ele>
        <time>2019-05-04T12:41:56Z</time>
      </trkpt>
      <trkpt lat="39.079767" lon="-6.091333">
        <ele>1491.0</ele>
        <time>2019-05-04T12:41:57Z</time>
      </trkpt>
      <trkpt lat="39.079800" lon="-6.091467">
        <ele>1493.0</ele>
        <time>2019-05-04T12:41:58Z</time>
      </trkpt>
      <trkpt lat="39.079850" lon="-6.091567">
        <ele>1494.0</ele>
        <time>2019-05-04T12:41:59Z</time>
      </trkpt>
      <trkpt lat="39.079933" lon="-6.091617">
        <ele>1495.0</ele>
        <time>2019-05-04T12:42:00Z</time>
      </trkpt>
      <trkpt lat="39.080000" lon="-6.091600">
        <ele>1497.0</ele>
        <time>2019-05-04T12:42:01Z</time>
      </trkpt>
      <trkpt lat="39.080033" lon="-6.091567">
        <ele>1500.0</ele>
        <time>2019-05-04T12:42:02Z</time>
      </trkpt>
      <trkpt lat="39.080033" lon="-6.091500">
        <ele>1501.0</ele>
        <time>2019-05-04T12:42:03Z</time>
      </trkpt>
      <trkpt lat="39.079950" lon="-6.091467">
        <ele>1501.0</ele>
        <time>2019-05-04T12:42:04Z</time>
      </trkpt>
      <trkpt lat="39.079850" lon="-6.091500">
        <ele>1502.0</ele>
        <time>2019-05-04T12:42:05Z</time>
      </trkpt>
      <trkpt lat="39.079750" lon="-6.091633">
        <ele>1503.0</ele>
        <time>2019-05-04T12:42:06Z</time>
      </trkpt>
      <trkpt lat="39.079717" lon="-6.091800">
        <ele>1503.0</ele>
        <time>2019-05-04T12:42:07Z</time>
      </trkpt>
      <trkpt lat="39.079750" lon="-6.091967">
        <ele>1505.0</ele>
        <time>2019-05-04T12:42:08Z</time>
      </trkpt>
      <trkpt lat="39.079817" lon="-6.092083">
        <ele>1507.0</ele>
        <time>2019-05-04T12:42:09Z</time>
      </trkpt>
      <trkpt lat="39.079883" lon="-6.092150">
        <ele>1508.0</ele>
        <time>2019-05-04T12:42:10Z</time>
      </trkpt>
      <trkpt lat="39.079933" lon="-6.092150">
        <ele>1510.0</ele>
        <time>2019-05-04T12:42:11Z</time>
      </trkpt>
      <trkpt lat="39.079967" lon="-6.092117">
        <ele>1513.0</ele>
        <time>2019-05-04T12:42:12Z</time>
      </trkpt>
      <trkpt lat="39.079967" lon="-6.092067">
        <ele>1514.0</ele>
        <time>2019-05-04T12:42:13Z</time>
      </trkpt>
      <trkpt lat="39.079950" lon="-6.092017">
        <ele>1515.0</ele>
        <time>2019-05-04T12:42:14Z</time>
      </trkpt>
      <trkpt lat="39.079900" lon="-6.091983">
        <ele>1517.0</ele>
        <time>2019-05-04T12:42:15Z</time>
      </trkpt>
      <trkpt lat="39.079833" lon="-6.091983">
        <ele>1518.0</ele>
        <time>2019-05-04T12:42:16Z</time>
      </trkpt>
      <trkpt lat="39.079733" lon="-6.092033">
        <ele>1520.0</ele>
        <time>2019-05-04T12:42:17Z</time>
      </trkpt>
      <trkpt lat="39.079667" lon="-6.092133">
        <ele>1521.0</ele>
        <time>2019-05-04T12:42:18Z</time>
      </trkpt>
      <trkpt lat="39.079600" lon="-6.092283">
        <ele>1521.0</ele>
        <time>2019-05-04T12:42:19Z</time>
      </trkpt>
      <trkpt lat="39.079550" lon="-6.092433">
        <ele>1522.0</ele>
        <time>2019-05-04T12:42:20Z</time>
      </trkpt>
      <trkpt lat="39.079533" lon="-6.092600">
        <ele>1524.0</ele>
        <time>2019-05-04T12:42:21Z</time>
      </trkpt>
      <trkpt lat="39.079550" lon="-6.092717">
        <ele>1526.0</ele>
        <time>2019-05-04T12:42:22Z</time>
      </trkpt>
      <trkpt lat="39.079583" lon="-6.092800">
        <ele>1526.0</ele>
        <time>2019-05-04T12:42:23Z</time>
      </trkpt>
      <trkpt lat="39.079633" lon="-6.092867">
        <ele>1525.0</ele>
        <time>2019-05-04T12:42:24Z</time>
      </trkpt>
      <trkpt lat="39.079683" lon="-6.092900">
        <ele>1525.0</ele>
        <time>2019-05-04T12:42:25Z</time>
      </trkpt>
      <trkpt lat="39.079767" lon="-6.092917">
        <ele>1520.0</ele>
        <time>2019-05-04T12:42:26Z</time>
      </trkpt>
      <trkpt lat="39.079833" lon="-6.092883">
        <ele>1518.0</ele>
        <time>2019-05-04T12:42:27Z</time>
      </trkpt>
      <trkpt lat="39.079867" lon="-6.092767">
        <ele>1513.0</ele>
        <time>2019-05-04T12:42:28Z</time>
      </trkpt>
      <trkpt lat="39.079850" lon="-6.092650">
        <ele>1508.0</ele>
        <time>2019-05-04T12:42:29Z</time>
      </trkpt>
      <trkpt lat="39.079817" lon="-6.092533">
        <ele>1505.0</ele>
        <time>2019-05-04T12:42:30Z</time>
      </trkpt>
      <trkpt lat="39.079767" lon="-6.092450">
        <ele>1504.0</ele>
        <time>2019-05-04T12:42:31Z</time>
      </trkpt>
      <trkpt lat="39.079717" lon="-6.092367">
        <ele>1506.0</ele>
        <time>2019-05-04T12:42:32Z</time>
      </trkpt>
      <trkpt lat="39.079667" lon="-6.092283">
        <ele>1507.0</ele>
        <time>2019-05-04T12:42:33Z</time>
      </trkpt>
      <trkpt lat="39.079633" lon="-6.092200">
        <ele>1509.0</ele>
        <time>2019-05-04T12:42:34Z</time>
      </trkpt>
      <trkpt lat="39.079583" lon="-6.092150">
        <ele>1513.0</ele>
        <time>2019-05-04T12:42:35Z</time>
      </trkpt>
      <trkpt lat="39.079517" lon="-6.092117">
        <ele>1516.0</ele>
        <time>2019-05-04T12:42:36Z</time>
      </trkpt>
      <trkpt lat="39.079450" lon="-6.092083">
        <ele>1519.0</ele>
        <time>2019-05-04T12:42:37Z</time>
      </trkpt>
      <trkpt lat="39.079383" lon="-6.092033">
        <ele>1521.0</ele>
        <time>2019-05-04T12:42:38Z</time>
      </trkpt>
      <trkpt lat="39.079300" lon="-6.091983">
        <ele>1522.0</ele>
        <time>2019-05-04T12:42:39Z</time>
      </trkpt>
      <trkpt lat="39.079217" lon="-6.091967">
        <ele>1525.0</ele>
        <time>2019-05-04T12:42:40Z</time>
      </trkpt>
      <trkpt lat="39.079117" lon="-6.092000">
        <ele>1528.0</ele>
        <time>2019-05-04T12:42:41Z</time>
      </trkpt>
      <trkpt lat="39.079033" lon="-6.092083">
        <ele>1529.0</ele>
        <time>2019-05-04T12:42:42Z</time>
      </trkpt>
      <trkpt lat="39.078950" lon="-6.092217">
        <ele>1531.0</ele>
        <time>2019-05-04T12:42:43Z</time>
      </trkpt>
      <trkpt lat="39.078933" lon="-6.092367">
        <ele>1533.0</ele>
        <time>2019-05-04T12:42:44Z</time>
      </trkpt>
      <trkpt lat="39.078933" lon="-6.092500">
        <ele>1534.0</ele>
        <time>2019-05-04T12:42:45Z</time>
      </trkpt>
      <trkpt lat="39.079000" lon="-6.092617">
        <ele>1535.0</ele>
        <time>2019-05-04T12:42:46Z</time>
      </trkpt>
      <trkpt lat="39.079067" lon="-6.092683">
        <ele>1537.0</ele>
        <time>2019-05-04T12:42:47Z</time>
      </trkpt>
      <trkpt lat="39.079150" lon="-6.092700">
        <ele>1538.0</ele>
        <time>2019-05-04T12:42:48Z</time>
      </trkpt>
      <trkpt lat="39.079200" lon="-6.092683">
        <ele>1539.0</ele>
        <time>2019-05-04T12:42:49Z</time>
      </trkpt>
      <trkpt lat="39.079250" lon="-6.092633">
        <ele>1540.0</ele>
        <time>2019-05-04T12:42:50Z</time>
      </trkpt>
      <trkpt lat="39.079233" lon="-6.092567">
        <ele>1542.0</ele>
        <time>2019-05-04T12:42:51Z</time>
      </trkpt>
      <trkpt lat="39.079200" lon="-6.092500">
        <ele>1543.0</ele>
        <time>2019-05-04T12:42:52Z</time>
      </trkpt>
      <trkpt lat="39.079117" lon="-6.092450">
        <ele>1545.0</ele>
        <time>2019-05-04T12:42:53Z</time>
      </trkpt>
      <trkpt lat="39.079033" lon="-6.092433">
        <ele>1548.0</ele>
        <time>2019-05-04T12:42:54Z</time>
      </trkpt>
      <trkpt lat="39.078950" lon="-6.092467">
        <ele>1550.0</ele>
        <time>2019-05-04T12:42:55Z</time>
      </trkpt>
      <trkpt lat="39.078850" lon="-6.092567">
        <ele>1552.0</ele>
        <time>2019-05-04T12:42:56Z</time>
      </trkpt>
      <trkpt lat="39.078817" lon="-6.092700">
        <ele>1553.0</ele>
        <time>2019-05-04T12:42:57Z</time>
      </trkpt>
      <trkpt lat="39.078817" lon="-6.092833">
        <ele>1555.0</ele>
        <time>2019-05-04T12:42:58Z</time>
      </trkpt>
      <trkpt lat="39.078867" lon="-6.092967">
        <ele>1557.0</ele>
        <time>2019-05-04T12:42:59Z</time>
      </trkpt>
      <trkpt lat="39.078933" lon="-6.093050">
        <ele>1558.0</ele>
        <time>2019-05-04T12:43:00Z</time>
      </trkpt>
      <trkpt lat="39.079017" lon="-6.093067">
        <ele>1558.0</ele>
        <time>2019-05-04T12:43:01Z</time>
      </trkpt>
      <trkpt lat="39.079083" lon="-6.093033">
        <ele>1556.0</ele>
        <time>2019-05-04T12:43:02Z</time>
      </trkpt>
      <trkpt lat="39.079117" lon="-6.092950">
        <ele>1555.0</ele>
        <time>2019-05-04T12:43:03Z</time>
      </trkpt>
      <trkpt lat="39.079133" lon="-6.092883">
        <ele>1556.0</ele>
        <time>2019-05-04T12:43:04Z</time>
      </trkpt>
      <trkpt lat="39.079150" lon="-6.092817">
        <ele>1558.0</ele>
        <time>2019-05-04T12:43:05Z</time>
      </trkpt>
      <trkpt lat="39.079133" lon="-6.092750">
        <ele>1563.0</ele>
        <time>2019-05-04T12:43:06Z</time>
      </trkpt>
      <trkpt lat="39.079117" lon="-6.092700">
        <ele>1571.0</ele>
        <time>2019-05-04T12:43:07Z</time>
      </trkpt>
      <trkpt lat="39.079083" lon="-6.092633">
        <ele>1573.0</ele>
        <time>2019-05-04T12:43:08Z</time>
      </trkpt>
      <trkpt lat="39.079033" lon="-6.092550">
        <ele>1575.0</ele>
        <time>2019-05-04T12:43:09Z</time>
      </trkpt>
      <trkpt lat="39.078950" lon="-6.092500">
        <ele>1578.0</ele>
        <time>2019-05-04T12:43:10Z</time>
      </trkpt>
      <trkpt lat="39.078850" lon="-6.092517">
        <ele>1581.0</ele>
        <time>2019-05-04T12:43:11Z</time>
      </trkpt>
      <trkpt lat="39.078750" lon="-6.092583">
        <ele>1584.0</ele>
        <time>2019-05-04T12:43:12Z</time>
      </trkpt>
      <trkpt lat="39.078683" lon="-6.092717">
        <ele>1586.0</ele>
        <time>2019-05-04T12:43:13Z</time>
      </trkpt>
      <trkpt lat="39.078650" lon="-6.092867">
        <ele>1588.0</ele>
        <time>2019-05-04T12:43:14Z</time>
      </trkpt>
      <trkpt lat="39.078667" lon="-6.092983">
        <ele>1591.0</ele>
        <time>2019-05-04T12:43:15Z</time>
      </trkpt>
      <trkpt lat="39.078717" lon="-6.093083">
        <ele>1594.0</ele>
        <time>2019-05-04T12:43:16Z</time>
      </trkpt>
      <trkpt lat="39.078800" lon="-6.093133">
        <ele>1596.0</ele>
        <time>2019-05-04T12:43:17Z</time>
      </trkpt>
      <trkpt lat="39.078867" lon="-6.093167">
        <ele>1598.0</ele>
        <time>2019-05-04T12:43:18Z</time>
      </trkpt>
      <trkpt lat="39.078917" lon="-6.093150">
        <ele>1600.0</ele>
        <time>2019-05-04T12:43:19Z</time>
      </trkpt>
      <trkpt lat="39.078950" lon="-6.093100">
        <ele>1602.0</ele>
        <time>2019-05-04T12:43:20Z</time>
      </trkpt>
      <trkpt lat="39.078917" lon="-6.093033">
        <ele>1603.0</ele>
        <time>2019-05-04T12:43:21Z</time>
      </trkpt>
      <trkpt lat="39.078850" lon="-6.092967">
        <ele>1604.0</ele>
        <time>2019-05-04T12:43:22Z</time>
      </trkpt>
      <trkpt lat="39.078750" lon="-6.092967">
        <ele>1605.0</ele>
        <time>2019-05-04T12:43:23Z</time>
      </trkpt>
      <trkpt lat="39.078633" lon="-6.093017">
        <ele>1608.0</ele>
        <time>2019-05-04T12:43:24Z</time>
      </trkpt>
      <trkpt lat="39.078550" lon="-6.093100">
        <ele>1612.0</ele>
        <time>2019-05-04T12:43:25Z</time>
      </trkpt>
      <trkpt lat="39.078483" lon="-6.093200">
        <ele>1614.0</ele>
        <time>2019-05-04T12:43:26Z</time>
      </trkpt>
      <trkpt lat="39.078417" lon="-6.093300">
        <ele>1617.0</ele>
        <time>2019-05-04T12:43:27Z</time>
      </trkpt>
      <trkpt lat="39.078350" lon="-6.093433">
        <ele>1619.0</ele>
        <time>2019-05-04T12:43:28Z</time>
      </trkpt>
      <trkpt lat="39.078333" lon="-6.093583">
        <ele>1621.0</ele>
        <time>2019-05-04T12:43:29Z</time>
      </trkpt>
      <trkpt lat="39.078317" lon="-6.093717">
        <ele>1621.0</ele>
        <time>2019-05-04T12:43:30Z</time>
      </trkpt>
      <trkpt lat="39.078350" lon="-6.093850">
        <ele>1621.0</ele>
        <time>2019-05-04T12:43:31Z</time>
      </trkpt>
      <trkpt lat="39.078400" lon="-6.093933">
        <ele>1622.0</ele>
        <time>2019-05-04T12:43:32Z</time>
      </trkpt>
      <trkpt lat="39.078483" lon="-6.093983">
        <ele>1622.0</ele>
        <time>2019-05-04T12:43:33Z</time>
      </trkpt>
      <trkpt lat="39.078550" lon="-6.093983">
        <ele>1619.0</ele>
        <time>2019-05-04T12:43:34Z</time>
      </trkpt>
      <trkpt lat="39.078617" lon="-6.093950">
        <ele>1616.0</ele>
        <time>2019-05-04T12:43:35Z</time>
      </trkpt>
      <trkpt lat="39.078650" lon="-6.093867">
        <ele>1615.0</ele>
        <time>2019-05-04T12:43:36Z</time>
      </trkpt>
      <trkpt lat="39.078683" lon="-6.093783">
        <ele>1615.0</ele>
        <time>2019-05-04T12:43:37Z</time>
      </trkpt>
      <trkpt lat="39.078700" lon="-6.093700">
        <ele>1614.0</ele>
        <time>2019-05-04T12:43:38Z</time>
      </trkpt>
      <trkpt lat="39.078733" lon="-6.093617">
        <ele>1613.0</ele>
        <time>2019-05-04T12:43:39Z</time>
      </trkpt>
      <trkpt lat="39.078733" lon="-6.093533">
        <ele>1615.0</ele>
        <time>2019-05-04T12:43:40Z</time>
      </trkpt>
      <trkpt lat="39.078750" lon="-6.093467">
        <ele>1619.0</ele>
        <time>2019-05-04T12:43:41Z</time>
      </trkpt>
      <trkpt lat="39.078750" lon="-6.093383">
        <ele>1622.0</ele>
        <time>2019-05-04T12:43:42Z</time>
      </trkpt>
      <trkpt lat="39.078767" lon="-6.093300">
        <ele>1625.0</ele>
        <time>2019-05-04T12:43:43Z</time>
      </trkpt>
      <trkpt lat="39.078767" lon="-6.093217">
        <ele>1627.0</ele>
        <time>2019-05-04T12:43:44Z</time>
      </trkpt>
      <trkpt lat="39.078750" lon="-6.093117">
        <ele>1630.0</ele>
        <time>2019-05-04T12:43:45Z</time>
      </trkpt>
      <trkpt lat="39.078750" lon="-6.093050">
        <ele>1633.0</ele>
        <time>2019-05-04T12:43:46Z</time>
      </trkpt>
      <trkpt lat="39.078750" lon="-6.092967">
        <ele>1638.0</ele>
        <time>2019-05-04T12:43:47Z</time>
      </trkpt>
      <trkpt lat="39.078750" lon="-6.092917">
        <ele>1643.0</ele>
        <time>2019-05-04T12:43:48Z</time>
      </trkpt>
      <trkpt lat="39.078750" lon="-6.092850">
        <ele>1646.0</ele>
        <time>2019-05-04T12:43:49Z</time>
      </trkpt>
      <trkpt lat="39.078733" lon="-6.092783">
        <ele>1649.0</ele>
        <time>2019-05-04T12:43:50Z</time>
      </trkpt>
      <trkpt lat="39.078700" lon="-6.092717">
        <ele>1650.0</ele>
        <time>2019-05-04T12:43:51Z</time>
      </trkpt>
      <trkpt lat="39.078633" lon="-6.092650">
        <ele>1652.0</ele>
        <time>2019-05-04T12:43:52Z</time>
      </trkpt>
      <trkpt lat="39.078550" lon="-6.092617">
        <ele>1652.0</ele>
        <time>2019-05-04T12:43:53Z</time>
      </trkpt>
      <trkpt lat="39.078450" lon="-6.092650">
        <ele>1652.0</ele>
        <time>2019-05-04T12:43:54Z</time>
      </trkpt>
      <trkpt lat="39.078367" lon="-6.092717">
        <ele>1653.0</ele>
        <time>2019-05-04T12:43:55Z</time>
      </trkpt>
      <trkpt lat="39.078300" lon="-6.092817">
        <ele>1653.0</ele>
        <time>2019-05-04T12:43:56Z</time>
      </trkpt>
      <trkpt lat="39.078250" lon="-6.092950">
        <ele>1653.0</ele>
        <time>2019-05-04T12:43:57Z</time>
      </trkpt>
      <trkpt lat="39.078233" lon="-6.093083">
        <ele>1653.0</ele>
        <time>2019-05-04T12:43:58Z</time>
      </trkpt>
      <trkpt lat="39.078250" lon="-6.093217">
        <ele>1653.0</ele>
        <time>2019-05-04T12:43:59Z</time>
      </trkpt>
      <trkpt lat="39.078300" lon="-6.093333">
        <ele>1655.0</ele>
        <time>2019-05-04T12:44:00Z</time>
      </trkpt>
      <trkpt lat="39.078383" lon="-6.093417">
        <ele>1657.0</ele>
        <time>2019-05-04T12:44:01Z</time>
      </trkpt>
      <trkpt lat="39.078450" lon="-6.093467">
        <ele>1660.0</ele>
        <time>2019-05-04T12:44:02Z</time>
      </trkpt>
      <trkpt lat="39.078500" lon="-6.093483">
        <ele>1662.0</ele>
        <time>2019-05-04T12:44:03Z</time>
      </trkpt>
      <trkpt lat="39.078567" lon="-6.093450">
        <ele>1664.0</ele>
        <time>2019-05-04T12:44:04Z</time>
      </trkpt>
      <trkpt lat="39.078617" lon="-6.093383">
        <ele>1665.0</ele>
        <time>2019-05-04T12:44:05Z</time>
      </trkpt>
      <trkpt lat="39.078650" lon="-6.093300">
        <ele>1666.0</ele>
        <time>2019-05-04T12:44:06Z</time>
      </trkpt>
      <trkpt lat="39.078617" lon="-6.093233">
        <ele>1668.0</ele>
        <time>2019-05-04T12:44:07Z</time>
      </trkpt>
      <trkpt lat="39.078567" lon="-6.093183">
        <ele>1669.0</ele>
        <time>2019-05-04T12:44:08Z</time>
      </trkpt>
      <trkpt lat="39.078483" lon="-6.093167">
        <ele>1671.0</ele>
        <time>2019-05-04T12:44:09Z</time>
      </trkpt>
      <trkpt lat="39.078400" lon="-6.093217">
        <ele>1672.0</ele>
        <time>2019-05-04T12:44:10Z</time>
      </trkpt>
      <trkpt lat="39.078350" lon="-6.093300">
        <ele>1674.0</ele>
        <time>2019-05-04T12:44:11Z</time>
      </trkpt>
      <trkpt lat="39.078317" lon="-6.093400">
        <ele>1672.0</ele>
        <time>2019-05-04T12:44:12Z</time>
      </trkpt>
      <trkpt lat="39.078300" lon="-6.093517">
        <ele>1673.0</ele>
        <time>2019-05-04T12:44:13Z</time>
      </trkpt>
      <trkpt lat="39.078333" lon="-6.093633">
        <ele>1674.0</ele>
        <time>2019-05-04T12:44:14Z</time>
      </trkpt>
      <trkpt lat="39.078383" lon="-6.093733">
        <ele>1675.0</ele>
        <time>2019-05-04T12:44:15Z</time>
      </trkpt>
      <trkpt lat="39.078450" lon="-6.093783">
        <ele>1676.0</ele>
        <time>2019-05-04T12:44:16Z</time>
      </trkpt>
      <trkpt lat="39.078517" lon="-6.093800">
        <ele>1679.0</ele>
        <time>2019-05-04T12:44:17Z</time>
      </trkpt>
      <trkpt lat="39.078550" lon="-6.093767">
        <ele>1682.0</ele>
        <time>2019-05-04T12:44:18Z</time>
      </trkpt>
      <trkpt lat="39.078567" lon="-6.093700">
        <ele>1682.0</ele>
        <time>2019-05-04T12:44:19Z</time>
      </trkpt>
      <trkpt lat="39.078567" lon="-6.093633">
        <ele>1683.0</ele>
        <time>2019-05-04T12:44:20Z</time>
      </trkpt>
      <trkpt lat="39.078533" lon="-6.093550">
        <ele>1684.0</ele>
        <time>2019-05-04T12:44:21Z</time>
      </trkpt>
      <trkpt lat="39.078467" lon="-6.093517">
        <ele>1686.0</ele>
        <time>2019-05-04T12:44:22Z</time>
      </trkpt>
      <trkpt lat="39.078383" lon="-6.093500">
        <ele>1688.0</ele>
        <time>2019-05-04T12:44:23Z</time>
      </trkpt>
      <trkpt lat="39.078300" lon="-6.093550">
        <ele>1690.0</ele>
        <time>2019-05-04T12:44:24Z</time>
      </trkpt>
      <trkpt lat="39.078233" lon="-6.093617">
        <ele>1692.0</ele>
        <time>2019-05-04T12:44:25Z</time>
      </trkpt>
      <trkpt lat="39.078183" lon="-6.093717">
        <ele>1693.0</ele>
        <time>2019-05-04T12:44:26Z</time>
      </trkpt>
      <trkpt lat="39.078150" lon="-6.093833">
        <ele>1696.0</ele>
        <time>2019-05-04T12:44:27Z</time>
      </trkpt>
      <trkpt lat="39.078133" lon="-6.093950">
        <ele>1698.0</ele>
        <time>2019-05-04T12:44:28Z</time>
      </trkpt>
      <trkpt lat="39.078167" lon="-6.094067">
        <ele>1700.0</ele>
        <time>2019-05-04T12:44:29Z</time>
      </trkpt>
      <trkpt lat="39.078217" lon="-6.094150">
        <ele>1702.0</ele>
        <time>2019-05-04T12:44:30Z</time>
      </trkpt>
      <trkpt lat="39.078283" lon="-6.094167">
        <ele>1703.0</ele>
        <time>2019-05-04T12:44:31Z</time>
      </trkpt>
      <trkpt lat="39.078367" lon="-6.094133">
        <ele>1704.0</ele>
        <time>2019-05-04T12:44:32Z</time>
      </trkpt>
      <trkpt lat="39.078400" lon="-6.094050">
        <ele>1704.0</ele>
        <time>2019-05-04T12:44:33Z</time>
      </trkpt>
      <trkpt lat="39.078417" lon="-6.093983">
        <ele>1707.0</ele>
        <time>2019-05-04T12:44:34Z</time>
      </trkpt>
      <trkpt lat="39.078433" lon="-6.093950">
        <ele>1711.0</ele>
        <time>2019-05-04T12:44:35Z</time>
      </trkpt>
      <trkpt lat="39.078433" lon="-6.093917">
        <ele>1715.0</ele>
        <time>2019-05-04T12:44:36Z</time>
      </trkpt>
      <trkpt lat="39.078433" lon="-6.093867">
        <ele>1716.0</ele>
        <time>2019-05-04T12:44:37Z</time>
      </trkpt>
      <trkpt lat="39.078400" lon="-6.093783">
        <ele>1715.0</ele>
        <time>2019-05-04T12:44:38Z</time>
      </trkpt>
      <trkpt lat="39.078350" lon="-6.093717">
        <ele>1715.0</ele>
        <time>2019-05-04T12:44:39Z</time>
      </trkpt>
      <trkpt lat="39.078267" lon="-6.093700">
        <ele>1715.0</ele>
        <time>2019-05-04T12:44:40Z</time>
      </trkpt>
      <trkpt lat="39.078167" lon="-6.093750">
        <ele>1715.0</ele>
        <time>2019-05-04T12:44:41Z</time>
      </trkpt>
      <trkpt lat="39.078083" lon="-6.093867">
        <ele>1715.0</ele>
        <time>2019-05-04T12:44:42Z</time>
      </trkpt>
      <trkpt lat="39.078050" lon="-6.094000">
        <ele>1715.0</ele>
        <time>2019-05-04T12:44:43Z</time>
      </trkpt>
      <trkpt lat="39.078033" lon="-6.094133">
        <ele>1716.0</ele>
        <time>2019-05-04T12:44:44Z</time>
      </trkpt>
      <trkpt lat="39.078050" lon="-6.094233">
        <ele>1716.0</ele>
        <time>2019-05-04T12:44:45Z</time>
      </trkpt>
      <trkpt lat="39.078067" lon="-6.094333">
        <ele>1717.0</ele>
        <time>2019-05-04T12:44:46Z</time>
      </trkpt>
      <trkpt lat="39.078100" lon="-6.094433">
        <ele>1719.0</ele>
        <time>2019-05-04T12:44:47Z</time>
      </trkpt>
      <trkpt lat="39.078133" lon="-6.094517">
        <ele>1723.0</ele>
        <time>2019-05-04T12:44:48Z</time>
      </trkpt>
      <trkpt lat="39.078183" lon="-6.094583">
        <ele>1725.0</ele>
        <time>2019-05-04T12:44:49Z</time>
      </trkpt>
      <trkpt lat="39.078233" lon="-6.094617">
        <ele>1727.0</ele>
        <time>2019-05-04T12:44:50Z</time>
      </trkpt>
      <trkpt lat="39.078300" lon="-6.094600">
        <ele>1728.0</ele>
        <time>2019-05-04T12:44:51Z</time>
      </trkpt>
      <trkpt lat="39.078333" lon="-6.094550">
        <ele>1730.0</ele>
        <time>2019-05-04T12:44:52Z</time>
      </trkpt>
      <trkpt lat="39.078333" lon="-6.094483">
        <ele>1731.0</ele>
        <time>2019-05-04T12:44:53Z</time>
      </trkpt>
      <trkpt lat="39.078283" lon="-6.094433">
        <ele>1732.0</ele>
        <time>2019-05-04T12:44:54Z</time>
      </trkpt>
      <trkpt lat="39.078217" lon="-6.094383">
        <ele>1733.0</ele>
        <time>2019-05-04T12:44:55Z</time>
      </trkpt>
      <trkpt lat="39.078117" lon="-6.094383">
        <ele>1733.0</ele>
        <time>2019-05-04T12:44:56Z</time>
      </trkpt>
      <trkpt lat="39.078017" lon="-6.094417">
        <ele>1734.0</ele>
        <time>2019-05-04T12:44:57Z</time>
      </trkpt>
      <trkpt lat="39.077933" lon="-6.094500">
        <ele>1734.0</ele>
        <time>2019-05-04T12:44:58Z</time>
      </trkpt>
      <trkpt lat="39.077850" lon="-6.094600">
        <ele>1735.0</ele>
        <time>2019-05-04T12:44:59Z</time>
      </trkpt>
      <trkpt lat="39.077800" lon="-6.094717">
        <ele>1736.0</ele>
        <time>2019-05-04T12:45:00Z</time>
      </trkpt>
      <trkpt lat="39.077783" lon="-6.094833">
        <ele>1738.0</ele>
        <time>2019-05-04T12:45:01Z</time>
      </trkpt>
      <trkpt lat="39.077800" lon="-6.094950">
        <ele>1739.0</ele>
        <time>2019-05-04T12:45:02Z</time>
      </trkpt>
      <trkpt lat="39.077833" lon="-6.095050">
        <ele>1739.0</ele>
        <time>2019-05-04T12:45:03Z</time>
      </trkpt>
      <trkpt lat="39.077900" lon="-6.095117">
        <ele>1740.0</ele>
        <time>2019-05-04T12:45:04Z</time>
      </trkpt>
      <trkpt lat="39.077983" lon="-6.095133">
        <ele>1740.0</ele>
        <time>2019-05-04T12:45:05Z</time>
      </trkpt>
      <trkpt lat="39.078050" lon="-6.095100">
        <ele>1740.0</ele>
        <time>2019-05-04T12:45:06Z</time>
      </trkpt>
      <trkpt lat="39.078083" lon="-6.095067">
        <ele>1743.0</ele>
        <time>2019-05-04T12:45:07Z</time>
      </trkpt>
      <trkpt lat="39.078100" lon="-6.095017">
        <ele>1746.0</ele>
        <time>2019-05-04T12:45:08Z</time>
      </trkpt>
      <trkpt lat="39.078117" lon="-6.094983">
        <ele>1747.0</ele>
        <time>2019-05-04T12:45:09Z</time>
      </trkpt>
      <trkpt lat="39.078133" lon="-6.094950">
        <ele>1749.0</ele>
        <time>2019-05-04T12:45:10Z</time>
      </trkpt>
      <trkpt lat="39.078133" lon="-6.094883">
        <ele>1749.0</ele>
        <time>2019-05-04T12:45:11Z</time>
      </trkpt>
      <trkpt lat="39.078117" lon="-6.094817">
        <ele>1747.0</ele>
        <time>2019-05-04T12:45:12Z</time>
      </trkpt>
      <trkpt lat="39.078050" lon="-6.094733">
        <ele>1746.0</ele>
        <time>2019-05-04T12:45:13Z</time>
      </trkpt>
      <trkpt lat="39.077983" lon="-6.094700">
        <ele>1745.0</ele>
        <time>2019-05-04T12:45:14Z</time>
      </trkpt>
      <trkpt lat="39.077883" lon="-6.094700">
        <ele>1745.0</ele>
        <time>2019-05-04T12:45:15Z</time>
      </trkpt>
      <trkpt lat="39.077783" lon="-6.094750">
        <ele>1745.0</ele>
        <time>2019-05-04T12:45:16Z</time>
      </trkpt>
      <trkpt lat="39.077700" lon="-6.094850">
        <ele>1745.0</ele>
        <time>2019-05-04T12:45:17Z</time>
      </trkpt>
      <trkpt lat="39.077633" lon="-6.094950">
        <ele>1745.0</ele>
        <time>2019-05-04T12:45:18Z</time>
      </trkpt>
      <trkpt lat="39.077567" lon="-6.095067">
        <ele>1746.0</ele>
        <time>2019-05-04T12:45:19Z</time>
      </trkpt>
      <trkpt lat="39.077533" lon="-6.095200">
        <ele>1746.0</ele>
        <time>2019-05-04T12:45:20Z</time>
      </trkpt>
      <trkpt lat="39.077517" lon="-6.095317">
        <ele>1747.0</ele>
        <time>2019-05-04T12:45:21Z</time>
      </trkpt>
      <trkpt lat="39.077500" lon="-6.095450">
        <ele>1748.0</ele>
        <time>2019-05-04T12:45:22Z</time>
      </trkpt>
      <trkpt lat="39.077533" lon="-6.095567">
        <ele>1748.0</ele>
        <time>2019-05-04T12:45:23Z</time>
      </trkpt>
      <trkpt lat="39.077600" lon="-6.095650">
        <ele>1745.0</ele>
        <time>2019-05-04T12:45:24Z</time>
      </trkpt>
      <trkpt lat="39.077667" lon="-6.095683">
        <ele>1744.0</ele>
        <time>2019-05-04T12:45:25Z</time>
      </trkpt>
      <trkpt lat="39.077733" lon="-6.095683">
        <ele>1744.0</ele>
        <time>2019-05-04T12:45:26Z</time>
      </trkpt>
      <trkpt lat="39.077783" lon="-6.095633">
        <ele>1744.0</ele>
        <time>2019-05-04T12:45:27Z</time>
      </trkpt>
      <trkpt lat="39.077800" lon="-6.095583">
        <ele>1744.0</ele>
        <time>2019-05-04T12:45:28Z</time>
      </trkpt>
      <trkpt lat="39.077800" lon="-6.095533">
        <ele>1744.0</ele>
        <time>2019-05-04T12:45:29Z</time>
      </trkpt>
      <trkpt lat="39.077800" lon="-6.095483">
        <ele>1745.0</ele>
        <time>2019-05-04T12:45:30Z</time>
      </trkpt>
      <trkpt lat="39.077783" lon="-6.095433">
        <ele>1745.0</ele>
        <time>2019-05-04T12:45:31Z</time>
      </trkpt>
      <trkpt lat="39.077783" lon="-6.095367">
        <ele>1744.0</ele>
        <time>2019-05-04T12:45:32Z</time>
      </trkpt>
      <trkpt lat="39.077750" lon="-6.095300">
        <ele>1744.0</ele>
        <time>2019-05-04T12:45:33Z</time>
      </trkpt>
      <trkpt lat="39.077717" lon="-6.095217">
        <ele>1743.0</ele>
        <time>2019-05-04T12:45:34Z</time>
      </trkpt>
      <trkpt lat="39.077683" lon="-6.095117">
        <ele>1742.0</ele>
        <time>2019-05-04T12:45:35Z</time>
      </trkpt>
      <trkpt lat="39.077650" lon="-6.095033">
        <ele>1741.0</ele>
        <time>2019-05-04T12:45:36Z</time>
      </trkpt>
      <trkpt lat="39.077633" lon="-6.094933">
        <ele>1741.0</ele>
        <time>2019-05-04T12:45:37Z</time>
      </trkpt>
      <trkpt lat="39.077600" lon="-6.094817">
        <ele>1741.0</ele>
        <time>2019-05-04T12:45:38Z</time>
      </trkpt>
      <trkpt lat="39.077583" lon="-6.094717">
        <ele>1742.0</ele>
        <time>2019-05-04T12:45:39Z</time>
      </trkpt>
      <trkpt lat="39.077567" lon="-6.094633">
        <ele>1743.0</ele>
        <time>2019-05-04T12:45:40Z</time>
      </trkpt>
      <trkpt lat="39.077550" lon="-6.094567">
        <ele>1743.0</ele>
        <time>2019-05-04T12:45:41Z</time>
      </trkpt>
      <trkpt lat="39.077533" lon="-6.094467">
        <ele>1743.0</ele>
        <time>2019-05-04T12:45:42Z</time>
      </trkpt>
      <trkpt lat="39.077517" lon="-6.094383">
        <ele>1742.0</ele>
        <time>2019-05-04T12:45:43Z</time>
      </trkpt>
      <trkpt lat="39.077500" lon="-6.094283">
        <ele>1741.0</ele>
        <time>2019-05-04T12:45:44Z</time>
      </trkpt>
      <trkpt lat="39.077483" lon="-6.094183">
        <ele>1740.0</ele>
        <time>2019-05-04T12:45:45Z</time>
      </trkpt>
      <trkpt lat="39.077450" lon="-6.094100">
        <ele>1740.0</ele>
        <time>2019-05-04T12:45:46Z</time>
      </trkpt>
      <trkpt lat="39.077433" lon="-6.094017">
        <ele>1739.0</ele>
        <time>2019-05-04T12:45:47Z</time>
      </trkpt>
      <trkpt lat="39.077383" lon="-6.093933">
        <ele>1738.0</ele>
        <time>2019-05-04T12:45:48Z</time>
      </trkpt>
      <trkpt lat="39.077350" lon="-6.093833">
        <ele>1736.0</ele>
        <time>2019-05-04T12:45:49Z</time>
      </trkpt>
      <trkpt lat="39.077300" lon="-6.093733">
        <ele>1735.0</ele>
        <time>2019-05-04T12:45:50Z</time>
      </trkpt>
      <trkpt lat="39.077250" lon="-6.093633">
        <ele>1733.0</ele>
        <time>2019-05-04T12:45:51Z</time>
      </trkpt>
      <trkpt lat="39.077200" lon="-6.093533">
        <ele>1731.0</ele>
        <time>2019-05-04T12:45:52Z</time>
      </trkpt>
      <trkpt lat="39.077167" lon="-6.093417">
        <ele>1730.0</ele>
        <time>2019-05-04T12:45:53Z</time>
      </trkpt>
      <trkpt lat="39.077133" lon="-6.093317">
        <ele>1730.0</ele>
        <time>2019-05-04T12:45:54Z</time>
      </trkpt>
      <trkpt lat="39.077117" lon="-6.093217">
        <ele>1729.0</ele>
        <time>2019-05-04T12:45:55Z</time>
      </trkpt>
      <trkpt lat="39.077067" lon="-6.093117">
        <ele>1729.0</ele>
        <time>2019-05-04T12:45:56Z</time>
      </trkpt>
      <trkpt lat="39.077033" lon="-6.093017">
        <ele>1729.0</ele>
        <time>2019-05-04T12:45:57Z</time>
      </trkpt>
      <trkpt lat="39.076983" lon="-6.092917">
        <ele>1728.0</ele>
        <time>2019-05-04T12:45:58Z</time>
      </trkpt>
      <trkpt lat="39.076933" lon="-6.092817">
        <ele>1728.0</ele>
        <time>2019-05-04T12:45:59Z</time>
      </trkpt>
      <trkpt lat="39.076867" lon="-6.092700">
        <ele>1727.0</ele>
        <time>2019-05-04T12:46:00Z</time>
      </trkpt>
      <trkpt lat="39.076833" lon="-6.092600">
        <ele>1728.0</ele>
        <time>2019-05-04T12:46:01Z</time>
      </trkpt>
      <trkpt lat="39.076800" lon="-6.092483">
        <ele>1728.0</ele>
        <time>2019-05-04T12:46:02Z</time>
      </trkpt>
      <trkpt lat="39.076767" lon="-6.092383">
        <ele>1727.0</ele>
        <time>2019-05-04T12:46:03Z</time>
      </trkpt>
      <trkpt lat="39.076733" lon="-6.092267">
        <ele>1726.0</ele>
        <time>2019-05-04T12:46:04Z</time>
      </trkpt>
      <trkpt lat="39.076700" lon="-6.092150">
        <ele>1725.0</ele>
        <time>2019-05-04T12:46:05Z</time>
      </trkpt>
      <trkpt lat="39.076667" lon="-6.092033">
        <ele>1723.0</ele>
        <time>2019-05-04T12:46:06Z</time>
      </trkpt>
      <trkpt lat="39.076633" lon="-6.091950">
        <ele>1723.0</ele>
        <time>2019-05-04T12:46:07Z</time>
      </trkpt>
      <trkpt lat="39.076600" lon="-6.091850">
        <ele>1722.0</ele>
        <time>2019-05-04T12:46:08Z</time>
      </trkpt>
      <trkpt lat="39.076567" lon="-6.091750">
        <ele>1721.0</ele>
        <time>2019-05-04T12:46:09Z</time>
      </trkpt>
      <trkpt lat="39.076533" lon="-6.091633">
        <ele>1720.0</ele>
        <time>2019-05-04T12:46:10Z</time>
      </trkpt>
      <trkpt lat="39.076483" lon="-6.091517">
        <ele>1719.0</ele>
        <time>2019-05-04T12:46:11Z</time>
      </trkpt>
      <trkpt lat="39.076433" lon="-6.091433">
        <ele>1719.0</ele>
        <time>2019-05-04T12:46:12Z</time>
      </trkpt>
      <trkpt lat="39.076367" lon="-6.091383">
        <ele>1719.0</ele>
        <time>2019-05-04T12:46:13Z</time>
      </trkpt>
      <trkpt lat="39.076283" lon="-6.091333">
        <ele>1719.0</ele>
        <time>2019-05-04T12:46:14Z</time>
      </trkpt>
      <trkpt lat="39.076200" lon="-6.091300">
        <ele>1718.0</ele>
        <time>2019-05-04T12:46:15Z</time>
      </trkpt>
      <trkpt lat="39.076133" lon="-6.091283">
        <ele>1718.0</ele>
        <time>2019-05-04T12:46:16Z</time>
      </trkpt>
      <trkpt lat="39.076067" lon="-6.091267">
        <ele>1718.0</ele>
        <time>2019-05-04T12:46:17Z</time>
      </trkpt>
      <trkpt lat="39.075983" lon="-6.091250">
        <ele>1717.0</ele>
        <time>2019-05-04T12:46:18Z</time>
      </trkpt>
      <trkpt lat="39.075900" lon="-6.091250">
        <ele>1717.0</ele>
        <time>2019-05-04T12:46:19Z</time>
      </trkpt>
      <trkpt lat="39.075833" lon="-6.091267">
        <ele>1716.0</ele>
        <time>2019-05-04T12:46:20Z</time>
      </trkpt>
      <trkpt lat="39.075767" lon="-6.091283">
        <ele>1716.0</ele>
        <time>2019-05-04T12:46:21Z</time>
      </trkpt>
      <trkpt lat="39.075700" lon="-6.091283">
        <ele>1716.0</ele>
        <time>2019-05-04T12:46:22Z</time>
      </trkpt>
      <trkpt lat="39.075633" lon="-6.091300">
        <ele>1715.0</ele>
        <time>2019-05-04T12:46:23Z</time>
      </trkpt>
      <trkpt lat="39.075567" lon="-6.091317">
        <ele>1715.0</ele>
        <time>2019-05-04T12:46:24Z</time>
      </trkpt>
      <trkpt lat="39.075483" lon="-6.091333">
        <ele>1714.0</ele>
        <time>2019-05-04T12:46:25Z</time>
      </trkpt>
      <trkpt lat="39.075400" lon="-6.091350">
        <ele>1713.0</ele>
        <time>2019-05-04T12:46:26Z</time>
      </trkpt>
      <trkpt lat="39.075317" lon="-6.091333">
        <ele>1713.0</ele>
        <time>2019-05-04T12:46:27Z</time>
      </trkpt>
      <trkpt lat="39.075233" lon="-6.091333">
        <ele>1714.0</ele>
        <time>2019-05-04T12:46:28Z</time>
      </trkpt>
      <trkpt lat="39.075167" lon="-6.091333">
        <ele>1713.0</ele>
        <time>2019-05-04T12:46:29Z</time>
      </trkpt>
      <trkpt lat="39.075083" lon="-6.091350">
        <ele>1713.0</ele>
        <time>2019-05-04T12:46:30Z</time>
      </trkpt>
      <trkpt lat="39.075000" lon="-6.091367">
        <ele>1712.0</ele>
        <time>2019-05-04T12:46:31Z</time>
      </trkpt>
      <trkpt lat="39.074933" lon="-6.091383">
        <ele>1712.0</ele>
        <time>2019-05-04T12:46:32Z</time>
      </trkpt>
      <trkpt lat="39.074850" lon="-6.091400">
        <ele>1712.0</ele>
        <time>2019-05-04T12:46:33Z</time>
      </trkpt>
      <trkpt lat="39.074783" lon="-6.091433">
        <ele>1711.0</ele>
        <time>2019-05-04T12:46:34Z</time>
      </trkpt>
      <trkpt lat="39.074700" lon="-6.091450">
        <ele>1710.0</ele>
        <time>2019-05-04T12:46:35Z</time>
      </trkpt>
      <trkpt lat="39.074600" lon="-6.091467">
        <ele>1708.0</ele>
        <time>2019-05-04T12:46:36Z</time>
      </trkpt>
      <trkpt lat="39.074483" lon="-6.091467">
        <ele>1706.0</ele>
        <time>2019-05-04T12:46:37Z</time>
      </trkpt>
      <trkpt lat="39.074383" lon="-6.091483">
        <ele>1705.0</ele>
        <time>2019-05-04T12:46:38Z</time>
      </trkpt>
      <trkpt lat="39.074300" lon="-6.091483">
        <ele>1705.0</ele>
        <time>2019-05-04T12:46:39Z</time>
      </trkpt>
      <trkpt lat="39.074217" lon="-6.091483">
        <ele>1705.0</ele>
        <time>2019-05-04T12:46:40Z</time>
      </trkpt>
      <trkpt lat="39.074117" lon="-6.091500">
        <ele>1704.0</ele>
        <time>2019-05-04T12:46:41Z</time>
      </trkpt>
      <trkpt lat="39.074033" lon="-6.091517">
        <ele>1703.0</ele>
        <time>2019-05-04T12:46:42Z</time>
      </trkpt>
      <trkpt lat="39.073933" lon="-6.091550">
        <ele>1702.0</ele>
        <time>2019-05-04T12:46:43Z</time>
      </trkpt>
      <trkpt lat="39.073850" lon="-6.091567">
        <ele>1702.0</ele>
        <time>2019-05-04T12:46:44Z</time>
      </trkpt>
      <trkpt lat="39.073783" lon="-6.091583">
        <ele>1702.0</ele>
        <time>2019-05-04T12:46:45Z</time>
      </trkpt>
      <trkpt lat="39.073717" lon="-6.091600">
        <ele>1701.0</ele>
        <time>2019-05-04T12:46:46Z</time>
      </trkpt>
      <trkpt lat="39.073633" lon="-6.091633">
        <ele>1700.0</ele>
        <time>2019-05-04T12:46:47Z</time>
      </trkpt>
      <trkpt lat="39.073550" lon="-6.091667">
        <ele>1697.0</ele>
        <time>2019-05-04T12:46:48Z</time>
      </trkpt>
      <trkpt lat="39.073450" lon="-6.091717">
        <ele>1694.0</ele>
        <time>2019-05-04T12:46:49Z</time>
      </trkpt>
      <trkpt lat="39.073367" lon="-6.091767">
        <ele>1693.0</ele>
        <time>2019-05-04T12:46:50Z</time>
      </trkpt>
      <trkpt lat="39.073283" lon="-6.091817">
        <ele>1692.0</ele>
        <time>2019-05-04T12:46:51Z</time>
      </trkpt>
      <trkpt lat="39.073200" lon="-6.091850">
        <ele>1691.0</ele>
        <time>2019-05-04T12:46:52Z</time>
      </trkpt>
      <trkpt lat="39.073133" lon="-6.091883">
        <ele>1691.0</ele>
        <time>2019-05-04T12:46:53Z</time>
      </trkpt>
      <trkpt lat="39.073067" lon="-6.091933">
        <ele>1689.0</ele>
        <time>2019-05-04T12:46:54Z</time>
      </trkpt>
      <trkpt lat="39.072983" lon="-6.091983">
        <ele>1685.0</ele>
        <time>2019-05-04T12:46:55Z</time>
      </trkpt>
      <trkpt lat="39.072900" lon="-6.092050">
        <ele>1682.0</ele>
        <time>2019-05-04T12:46:56Z</time>
      </trkpt>
      <trkpt lat="39.072800" lon="-6.092100">
        <ele>1680.0</ele>
        <time>2019-05-04T12:46:57Z</time>
      </trkpt>
      <trkpt lat="39.072717" lon="-6.092150">
        <ele>1680.0</ele>
        <time>2019-05-04T12:46:58Z</time>
      </trkpt>
      <trkpt lat="39.072650" lon="-6.092167">
        <ele>1679.0</ele>
        <time>2019-05-04T12:46:59Z</time>
      </trkpt>
      <trkpt lat="39.072567" lon="-6.092200">
        <ele>1678.0</ele>
        <time>2019-05-04T12:47:00Z</time>
      </trkpt>
      <trkpt lat="39.072500" lon="-6.092233">
        <ele>1676.0</ele>
        <time>2019-05-04T12:47:01Z</time>
      </trkpt>
      <trkpt lat="39.072417" lon="-6.092283">
        <ele>1674.0</ele>
        <time>2019-05-04T12:47:02Z</time>
      </trkpt>
      <trkpt lat="39.072350" lon="-6.092333">
        <ele>1672.0</ele>
        <time>2019-05-04T12:47:03Z</time>
      </trkpt>
      <trkpt lat="39.072267" lon="-6.092383">
        <ele>1671.0</ele>
        <time>2019-05-04T12:47:04Z</time>
      </trkpt>
      <trkpt lat="39.072200" lon="-6.092417">
        <ele>1670.0</ele>
        <time>2019-05-04T12:47:05Z</time>
      </trkpt>
      <trkpt lat="39.072133" lon="-6.092450">
        <ele>1669.0</ele>
        <time>2019-05-04T12:47:06Z</time>
      </trkpt>
      <trkpt lat="39.072067" lon="-6.092483">
        <ele>1668.0</ele>
        <time>2019-05-04T12:47:07Z</time>
      </trkpt>
      <trkpt lat="39.071983" lon="-6.092517">
        <ele>1666.0</ele>
        <time>2019-05-04T12:47:08Z</time>
      </trkpt>
      <trkpt lat="39.071917" lon="-6.092567">
        <ele>1664.0</ele>
        <time>2019-05-04T12:47:09Z</time>
      </trkpt>
      <trkpt lat="39.071833" lon="-6.092633">
        <ele>1661.0</ele>
        <time>2019-05-04T12:47:10Z</time>
      </trkpt>
      <trkpt lat="39.071767" lon="-6.092683">
        <ele>1658.0</ele>
        <time>2019-05-04T12:47:11Z</time>
      </trkpt>
      <trkpt lat="39.071700" lon="-6.092733">
        <ele>1657.0</ele>
        <time>2019-05-04T12:47:12Z</time>
      </trkpt>
      <trkpt lat="39.071633" lon="-6.092800">
        <ele>1655.0</ele>
        <time>2019-05-04T12:47:13Z</time>
      </trkpt>
      <trkpt lat="39.071550" lon="-6.092850">
        <ele>1653.0</ele>
        <time>2019-05-04T12:47:14Z</time>
      </trkpt>
      <trkpt lat="39.071483" lon="-6.092917">
        <ele>1651.0</ele>
        <time>2019-05-04T12:47:15Z</time>
      </trkpt>
      <trkpt lat="39.071400" lon="-6.092967">
        <ele>1649.0</ele>
        <time>2019-05-04T12:47:16Z</time>
      </trkpt>
      <trkpt lat="39.071333" lon="-6.093033">
        <ele>1647.0</ele>
        <time>2019-05-04T12:47:17Z</time>
      </trkpt>
      <trkpt lat="39.071250" lon="-6.093083">
        <ele>1646.0</ele>
        <time>2019-05-04T12:47:18Z</time>
      </trkpt>
      <trkpt lat="39.071167" lon="-6.093133">
        <ele>1645.0</ele>
        <time>2019-05-04T12:47:19Z</time>
      </trkpt>
      <trkpt lat="39.071083" lon="-6.093183">
        <ele>1643.0</ele>
        <time>2019-05-04T12:47:20Z</time>
      </trkpt>
      <trkpt lat="39.071017" lon="-6.093217">
        <ele>1641.0</ele>
        <time>2019-05-04T12:47:21Z</time>
      </trkpt>
      <trkpt lat="39.070917" lon="-6.093267">
        <ele>1639.0</ele>
        <time>2019-05-04T12:47:22Z</time>
      </trkpt>
      <trkpt lat="39.070833" lon="-6.093317">
        <ele>1637.0</ele>
        <time>2019-05-04T12:47:23Z</time>
      </trkpt>
      <trkpt lat="39.070733" lon="-6.093367">
        <ele>1636.0</ele>
        <time>2019-05-04T12:47:24Z</time>
      </trkpt>
      <trkpt lat="39.070667" lon="-6.093400">
        <ele>1635.0</ele>
        <time>2019-05-04T12:47:25Z</time>
      </trkpt>
      <trkpt lat="39.070583" lon="-6.093433">
        <ele>1634.0</ele>
        <time>2019-05-04T12:47:26Z</time>
      </trkpt>
      <trkpt lat="39.070500" lon="-6.093467">
        <ele>1633.0</ele>
        <time>2019-05-04T12:47:27Z</time>
      </trkpt>
      <trkpt lat="39.070400" lon="-6.093500">
        <ele>1632.0</ele>
        <time>2019-05-04T12:47:28Z</time>
      </trkpt>
      <trkpt lat="39.070317" lon="-6.093533">
        <ele>1630.0</ele>
        <time>2019-05-04T12:47:29Z</time>
      </trkpt>
      <trkpt lat="39.070233" lon="-6.093583">
        <ele>1628.0</ele>
        <time>2019-05-04T12:47:30Z</time>
      </trkpt>
      <trkpt lat="39.070150" lon="-6.093650">
        <ele>1627.0</ele>
        <time>2019-05-04T12:47:31Z</time>
      </trkpt>
      <trkpt lat="39.070067" lon="-6.093700">
        <ele>1625.0</ele>
        <time>2019-05-04T12:47:32Z</time>
      </trkpt>
      <trkpt lat="39.069983" lon="-6.093767">
        <ele>1624.0</ele>
        <time>2019-05-04T12:47:33Z</time>
      </trkpt>
      <trkpt lat="39.069900" lon="-6.093817">
        <ele>1622.0</ele>
        <time>2019-05-04T12:47:34Z</time>
      </trkpt>
      <trkpt lat="39.069817" lon="-6.093883">
        <ele>1620.0</ele>
        <time>2019-05-04T12:47:35Z</time>
      </trkpt>
      <trkpt lat="39.069733" lon="-6.093933">
        <ele>1617.0</ele>
        <time>2019-05-04T12:47:36Z</time>
      </trkpt>
      <trkpt lat="39.069650" lon="-6.094000">
        <ele>1615.0</ele>
        <time>2019-05-04T12:47:37Z</time>
      </trkpt>
      <trkpt lat="39.069583" lon="-6.094050">
        <ele>1612.0</ele>
        <time>2019-05-04T12:47:38Z</time>
      </trkpt>
      <trkpt lat="39.069500" lon="-6.094083">
        <ele>1609.0</ele>
        <time>2019-05-04T12:47:39Z</time>
      </trkpt>
      <trkpt lat="39.069417" lon="-6.094133">
        <ele>1606.0</ele>
        <time>2019-05-04T12:47:40Z</time>
      </trkpt>
      <trkpt lat="39.069333" lon="-6.094183">
        <ele>1603.0</ele>
        <time>2019-05-04T12:47:41Z</time>
      </trkpt>
      <trkpt lat="39.069250" lon="-6.094233">
        <ele>1600.0</ele>
        <time>2019-05-04T12:47:42Z</time>
      </trkpt>
      <trkpt lat="39.069167" lon="-6.094267">
        <ele>1598.0</ele>
        <time>2019-05-04T12:47:43Z</time>
      </trkpt>
      <trkpt lat="39.069083" lon="-6.094317">
        <ele>1595.0</ele>
        <time>2019-05-04T12:47:44Z</time>
      </trkpt>
      <trkpt lat="39.069000" lon="-6.094367">
        <ele>1591.0</ele>
        <time>2019-05-04T12:47:45Z</time>
      </trkpt>
      <trkpt lat="39.068933" lon="-6.094417">
        <ele>1586.0</ele>
        <time>2019-05-04T12:47:46Z</time>
      </trkpt>
      <trkpt lat="39.068850" lon="-6.094467">
        <ele>1583.0</ele>
        <time>2019-05-04T12:47:47Z</time>
      </trkpt>
      <trkpt lat="39.068767" lon="-6.094517">
        <ele>1579.0</ele>
        <time>2019-05-04T12:47:48Z</time>
      </trkpt>
      <trkpt lat="39.068683" lon="-6.094567">
        <ele>1576.0</ele>
        <time>2019-05-04T12:47:49Z</time>
      </trkpt>
      <trkpt lat="39.068617" lon="-6.094617">
        <ele>1573.0</ele>
        <time>2019-05-04T12:47:50Z</time>
      </trkpt>
      <trkpt lat="39.068533" lon="-6.094667">
        <ele>1570.0</ele>
        <time>2019-05-04T12:47:51Z</time>
      </trkpt>
      <trkpt lat="39.068450" lon="-6.094733">
        <ele>1566.0</ele>
        <time>2019-05-04T12:47:52Z</time>
      </trkpt>
      <trkpt lat="39.068367" lon="-6.094800">
        <ele>1562.0</ele>
        <time>2019-05-04T12:47:53Z</time>
      </trkpt>
      <trkpt lat="39.068283" lon="-6.094867">
        <ele>1559.0</ele>
        <time>2019-05-04T12:47:54Z</time>
      </trkpt>
      <trkpt lat="39.068200" lon="-6.094933">
        <ele>1555.0</ele>
        <time>2019-05-04T12:47:55Z</time>
      </trkpt>
      <trkpt lat="39.068133" lon="-6.095000">
        <ele>1551.0</ele>
        <time>2019-05-04T12:47:56Z</time>
      </trkpt>
      <trkpt lat="39.068067" lon="-6.095067">
        <ele>1548.0</ele>
        <time>2019-05-04T12:47:57Z</time>
      </trkpt>
      <trkpt lat="39.068000" lon="-6.095117">
        <ele>1544.0</ele>
        <time>2019-05-04T12:47:58Z</time>
      </trkpt>
      <trkpt lat="39.067933" lon="-6.095183">
        <ele>1538.0</ele>
        <time>2019-05-04T12:47:59Z</time>
      </trkpt>
      <trkpt lat="39.067867" lon="-6.095250">
        <ele>1533.0</ele>
        <time>2019-05-04T12:48:00Z</time>
      </trkpt>
      <trkpt lat="39.067817" lon="-6.095317">
        <ele>1528.0</ele>
        <time>2019-05-04T12:48:01Z</time>
      </trkpt>
      <trkpt lat="39.067767" lon="-6.095383">
        <ele>1523.0</ele>
        <time>2019-05-04T12:48:02Z</time>
      </trkpt>
      <trkpt lat="39.067700" lon="-6.095467">
        <ele>1518.0</ele>
        <time>2019-05-04T12:48:03Z</time>
      </trkpt>
      <trkpt lat="39.067633" lon="-6.095533">
        <ele>1514.0</ele>
        <time>2019-05-04T12:48:04Z</time>
      </trkpt>
      <trkpt lat="39.067567" lon="-6.095600">
        <ele>1509.0</ele>
        <time>2019-05-04T12:48:05Z</time>
      </trkpt>
      <trkpt lat="39.067500" lon="-6.095667">
        <ele>1504.0</ele>
        <time>2019-05-04T12:48:06Z</time>
      </trkpt>
      <trkpt lat="39.067433" lon="-6.095733">
        <ele>1499.0</ele>
        <time>2019-05-04T12:48:07Z</time>
      </trkpt>
      <trkpt lat="39.067367" lon="-6.095817">
        <ele>1492.0</ele>
        <time>2019-05-04T12:48:08Z</time>
      </trkpt>
      <trkpt lat="39.067300" lon="-6.095900">
        <ele>1486.0</ele>
        <time>2019-05-04T12:48:09Z</time>
      </trkpt>
      <trkpt lat="39.067233" lon="-6.096000">
        <ele>1480.0</ele>
        <time>2019-05-04T12:48:10Z</time>
      </trkpt>
      <trkpt lat="39.067167" lon="-6.096100">
        <ele>1475.0</ele>
        <time>2019-05-04T12:48:11Z</time>
      </trkpt>
      <trkpt lat="39.067117" lon="-6.096183">
        <ele>1470.0</ele>
        <time>2019-05-04T12:48:12Z</time>
      </trkpt>
      <trkpt lat="39.067067" lon="-6.096283">
        <ele>1466.0</ele>
        <time>2019-05-04T12:48:13Z</time>
      </trkpt>
      <trkpt lat="39.067000" lon="-6.096367">
        <ele>1462.0</ele>
        <time>2019-05-04T12:48:14Z</time>
      </trkpt>
      <trkpt lat="39.066950" lon="-6.096467">
        <ele>1459.0</ele>
        <time>2019-05-04T12:48:15Z</time>
      </trkpt>
      <trkpt lat="39.066883" lon="-6.096583">
        <ele>1455.0</ele>
        <time>2019-05-04T12:48:16Z</time>
      </trkpt>
      <trkpt lat="39.066833" lon="-6.096683">
        <ele>1452.0</ele>
        <time>2019-05-04T12:48:17Z</time>
      </trkpt>
      <trkpt lat="39.066783" lon="-6.096767">
        <ele>1450.0</ele>
        <time>2019-05-04T12:48:18Z</time>
      </trkpt>
      <trkpt lat="39.066750" lon="-6.096850">
        <ele>1450.0</ele>
        <time>2019-05-04T12:48:19Z</time>
      </trkpt>
      <trkpt lat="39.066700" lon="-6.096917">
        <ele>1451.0</ele>
        <time>2019-05-04T12:48:20Z</time>
      </trkpt>
      <trkpt lat="39.066650" lon="-6.096983">
        <ele>1451.0</ele>
        <time>2019-05-04T12:48:21Z</time>
      </trkpt>
      <trkpt lat="39.066600" lon="-6.097067">
        <ele>1451.0</ele>
        <time>2019-05-04T12:48:22Z</time>
      </trkpt>
      <trkpt lat="39.066567" lon="-6.097133">
        <ele>1452.0</ele>
        <time>2019-05-04T12:48:23Z</time>
      </trkpt>
      <trkpt lat="39.066517" lon="-6.097217">
        <ele>1453.0</ele>
        <time>2019-05-04T12:48:24Z</time>
      </trkpt>
      <trkpt lat="39.066467" lon="-6.097283">
        <ele>1453.0</ele>
        <time>2019-05-04T12:48:25Z</time>
      </trkpt>
      <trkpt lat="39.066400" lon="-6.097350">
        <ele>1453.0</ele>
        <time>2019-05-04T12:48:26Z</time>
      </trkpt>
      <trkpt lat="39.066350" lon="-6.097417">
        <ele>1453.0</ele>
        <time>2019-05-04T12:48:27Z</time>
      </trkpt>
      <trkpt lat="39.066317" lon="-6.097500">
        <ele>1453.0</ele>
        <time>2019-05-04T12:48:28Z</time>
      </trkpt>
      <trkpt lat="39.066283" lon="-6.097583">
        <ele>1453.0</ele>
        <time>2019-05-04T12:48:29Z</time>
      </trkpt>
      <trkpt lat="39.066233" lon="-6.097667">
        <ele>1453.0</ele>
        <time>2019-05-04T12:48:30Z</time>
      </trkpt>
      <trkpt lat="39.066183" lon="-6.097733">
        <ele>1453.0</ele>
        <time>2019-05-04T12:48:31Z</time>
      </trkpt>
      <trkpt lat="39.066100" lon="-6.097817">
        <ele>1452.0</ele>
        <time>2019-05-04T12:48:32Z</time>
      </trkpt>
      <trkpt lat="39.066033" lon="-6.097883">
        <ele>1453.0</ele>
        <time>2019-05-04T12:48:33Z</time>
      </trkpt>
      <trkpt lat="39.065983" lon="-6.097967">
        <ele>1454.0</ele>
        <time>2019-05-04T12:48:34Z</time>
      </trkpt>
      <trkpt lat="39.065933" lon="-6.098033">
        <ele>1454.0</ele>
        <time>2019-05-04T12:48:35Z</time>
      </trkpt>
      <trkpt lat="39.065867" lon="-6.098083">
        <ele>1455.0</ele>
        <time>2019-05-04T12:48:36Z</time>
      </trkpt>
      <trkpt lat="39.065783" lon="-6.098150">
        <ele>1455.0</ele>
        <time>2019-05-04T12:48:37Z</time>
      </trkpt>
      <trkpt lat="39.065700" lon="-6.098233">
        <ele>1455.0</ele>
        <time>2019-05-04T12:48:38Z</time>
      </trkpt>
      <trkpt lat="39.065617" lon="-6.098283">
        <ele>1455.0</ele>
        <time>2019-05-04T12:48:39Z</time>
      </trkpt>
      <trkpt lat="39.065533" lon="-6.098350">
        <ele>1454.0</ele>
        <time>2019-05-04T12:48:40Z</time>
      </trkpt>
      <trkpt lat="39.065450" lon="-6.098400">
        <ele>1455.0</ele>
        <time>2019-05-04T12:48:41Z</time>
      </trkpt>
      <trkpt lat="39.065367" lon="-6.098467">
        <ele>1455.0</ele>
        <time>2019-05-04T12:48:42Z</time>
      </trkpt>
      <trkpt lat="39.065283" lon="-6.098517">
        <ele>1455.0</ele>
        <time>2019-05-04T12:48:43Z</time>
      </trkpt>
      <trkpt lat="39.065200" lon="-6.098583">
        <ele>1455.0</ele>
        <time>2019-05-04T12:48:44Z</time>
      </trkpt>
      <trkpt lat="39.065133" lon="-6.098633">
        <ele>1455.0</ele>
        <time>2019-05-04T12:48:45Z</time>
      </trkpt>
      <trkpt lat="39.065067" lon="-6.098683">
        <ele>1455.0</ele>
        <time>2019-05-04T12:48:46Z</time>
      </trkpt>
      <trkpt lat="39.065000" lon="-6.098733">
        <ele>1455.0</ele>
        <time>2019-05-04T12:48:47Z</time>
      </trkpt>
      <trkpt lat="39.064933" lon="-6.098783">
        <ele>1455.0</ele>
        <time>2019-05-04T12:48:48Z</time>
      </trkpt>
      <trkpt lat="39.064867" lon="-6.098850">
        <ele>1455.0</ele>
        <time>2019-05-04T12:48:49Z</time>
      </trkpt>
      <trkpt lat="39.064800" lon="-6.098900">
        <ele>1455.0</ele>
        <time>2019-05-04T12:48:50Z</time>
      </trkpt>
      <trkpt lat="39.064750" lon="-6.098950">
        <ele>1455.0</ele>
        <time>2019-05-04T12:48:51Z</time>
      </trkpt>
      <trkpt lat="39.064683" lon="-6.099000">
        <ele>1456.0</ele>
        <time>2019-05-04T12:48:52Z</time>
      </trkpt>
      <trkpt lat="39.064617" lon="-6.099033">
        <ele>1456.0</ele>
        <time>2019-05-04T12:48:53Z</time>
      </trkpt>
      <trkpt lat="39.064567" lon="-6.099083">
        <ele>1455.0</ele>
        <time>2019-05-04T12:48:54Z</time>
      </trkpt>
      <trkpt lat="39.064500" lon="-6.099133">
        <ele>1455.0</ele>
        <time>2019-05-04T12:48:55Z</time>
      </trkpt>
      <trkpt lat="39.064433" lon="-6.099183">
        <ele>1454.0</ele>
        <time>2019-05-04T12:48:56Z</time>
      </trkpt>
      <trkpt lat="39.064383" lon="-6.099233">
        <ele>1454.0</ele>
        <time>2019-05-04T12:48:57Z</time>
      </trkpt>
      <trkpt lat="39.064317" lon="-6.099283">
        <ele>1454.0</ele>
        <time>2019-05-04T12:48:58Z</time>
      </trkpt>
      <trkpt lat="39.064250" lon="-6.099317">
        <ele>1452.0</ele>
        <time>2019-05-04T12:48:59Z</time>
      </trkpt>
      <trkpt lat="39.064183" lon="-6.099350">
        <ele>1450.0</ele>
        <time>2019-05-04T12:49:00Z</time>
      </trkpt>
      <trkpt lat="39.064117" lon="-6.099383">
        <ele>1449.0</ele>
        <time>2019-05-04T12:49:01Z</time>
      </trkpt>
      <trkpt lat="39.064050" lon="-6.099433">
        <ele>1448.0</ele>
        <time>2019-05-04T12:49:02Z</time>
      </trkpt>
      <trkpt lat="39.063983" lon="-6.099483">
        <ele>1447.0</ele>
        <time>2019-05-04T12:49:03Z</time>
      </trkpt>
      <trkpt lat="39.063917" lon="-6.099533">
        <ele>1447.0</ele>
        <time>2019-05-04T12:49:04Z</time>
      </trkpt>
      <trkpt lat="39.063850" lon="-6.099567">
        <ele>1449.0</ele>
        <time>2019-05-04T12:49:05Z</time>
      </trkpt>
      <trkpt lat="39.063783" lon="-6.099583">
        <ele>1449.0</ele>
        <time>2019-05-04T12:49:06Z</time>
      </trkpt>
      <trkpt lat="39.063700" lon="-6.099617">
        <ele>1449.0</ele>
        <time>2019-05-04T12:49:07Z</time>
      </trkpt>
      <trkpt lat="39.063633" lon="-6.099650">
        <ele>1448.0</ele>
        <time>2019-05-04T12:49:08Z</time>
      </trkpt>
      <trkpt lat="39.063583" lon="-6.099683">
        <ele>1448.0</ele>
        <time>2019-05-04T12:49:09Z</time>
      </trkpt>
      <trkpt lat="39.063517" lon="-6.099717">
        <ele>1447.0</ele>
        <time>2019-05-04T12:49:10Z</time>
      </trkpt>
      <trkpt lat="39.063450" lon="-6.099750">
        <ele>1447.0</ele>
        <time>2019-05-04T12:49:11Z</time>
      </trkpt>
      <trkpt lat="39.063383" lon="-6.099783">
        <ele>1447.0</ele>
        <time>2019-05-04T12:49:12Z</time>
      </trkpt>
      <trkpt lat="39.063317" lon="-6.099833">
        <ele>1447.0</ele>
        <time>2019-05-04T12:49:13Z</time>
      </trkpt>
      <trkpt lat="39.063233" lon="-6.099867">
        <ele>1446.0</ele>
        <time>2019-05-04T12:49:14Z</time>
      </trkpt>
      <trkpt lat="39.063167" lon="-6.099900">
        <ele>1444.0</ele>
        <time>2019-05-04T12:49:15Z</time>
      </trkpt>
      <trkpt lat="39.063100" lon="-6.099950">
        <ele>1443.0</ele>
        <time>2019-05-04T12:49:16Z</time>
      </trkpt>
      <trkpt lat="39.063033" lon="-6.099967">
        <ele>1442.0</ele>
        <time>2019-05-04T12:49:17Z</time>
      </trkpt>
      <trkpt lat="39.062983" lon="-6.100000">
        <ele>1440.0</ele>
        <time>2019-05-04T12:49:18Z</time>
      </trkpt>
      <trkpt lat="39.062917" lon="-6.100050">
        <ele>1439.0</ele>
        <time>2019-05-04T12:49:19Z</time>
      </trkpt>
      <trkpt lat="39.062833" lon="-6.100100">
        <ele>1437.0</ele>
        <time>2019-05-04T12:49:20Z</time>
      </trkpt>
      <trkpt lat="39.062767" lon="-6.100150">
        <ele>1435.0</ele>
        <time>2019-05-04T12:49:21Z</time>
      </trkpt>
      <trkpt lat="39.062700" lon="-6.100200">
        <ele>1433.0</ele>
        <time>2019-05-04T12:49:22Z</time>
      </trkpt>
      <trkpt lat="39.062633" lon="-6.100250">
        <ele>1432.0</ele>
        <time>2019-05-04T12:49:23Z</time>
      </trkpt>
      <trkpt lat="39.062583" lon="-6.100300">
        <ele>1431.0</ele>
        <time>2019-05-04T12:49:24Z</time>
      </trkpt>
      <trkpt lat="39.062517" lon="-6.100367">
        <ele>1429.0</ele>
        <time>2019-05-04T12:49:25Z</time>
      </trkpt>
      <trkpt lat="39.062450" lon="-6.100417">
        <ele>1427.0</ele>
        <time>2019-05-04T12:49:26Z</time>
      </trkpt>
      <trkpt lat="39.062367" lon="-6.100483">
        <ele>1425.0</ele>
        <time>2019-05-04T12:49:27Z</time>
      </trkpt>
      <trkpt lat="39.062283" lon="-6.100550">
        <ele>1423.0</ele>
        <time>2019-05-04T12:49:28Z</time>
      </trkpt>
      <trkpt lat="39.062217" lon="-6.100600">
        <ele>1422.0</ele>
        <time>2019-05-04T12:49:29Z</time>
      </trkpt>
      <trkpt lat="39.062150" lon="-6.100650">
        <ele>1422.0</ele>
        <time>2019-05-04T12:49:30Z</time>
      </trkpt>
      <trkpt lat="39.062083" lon="-6.100700">
        <ele>1421.0</ele>
        <time>2019-05-04T12:49:31Z</time>
      </trkpt>
      <trkpt lat="39.062017" lon="-6.100783">
        <ele>1420.0</ele>
        <time>2019-05-04T12:49:32Z</time>
      </trkpt>
      <trkpt lat="39.061933" lon="-6.100850">
        <ele>1419.0</ele>
        <time>2019-05-04T12:49:33Z</time>
      </trkpt>
      <trkpt lat="39.061833" lon="-6.100933">
        <ele>1418.0</ele>
        <time>2019-05-04T12:49:34Z</time>
      </trkpt>
      <trkpt lat="39.061717" lon="-6.101000">
        <ele>1416.0</ele>
        <time>2019-05-04T12:49:35Z</time>
      </trkpt>
      <trkpt lat="39.061633" lon="-6.101033">
        <ele>1417.0</ele>
        <time>2019-05-04T12:49:36Z</time>
      </trkpt>
      <trkpt lat="39.061533" lon="-6.101083">
        <ele>1418.0</ele>
        <time>2019-05-04T12:49:37Z</time>
      </trkpt>
      <trkpt lat="39.061450" lon="-6.101117">
        <ele>1419.0</ele>
        <time>2019-05-04T12:49:38Z</time>
      </trkpt>
      <trkpt lat="39.061367" lon="-6.101183">
        <ele>1419.0</ele>
        <time>2019-05-04T12:49:39Z</time>
      </trkpt>
      <trkpt lat="39.061300" lon="-6.101267">
        <ele>1418.0</ele>
        <time>2019-05-04T12:49:40Z</time>
      </trkpt>
      <trkpt lat="39.061233" lon="-6.101333">
        <ele>1416.0</ele>
        <time>2019-05-04T12:49:41Z</time>
      </trkpt>
      <trkpt lat="39.061167" lon="-6.101417">
        <ele>1416.0</ele>
        <time>2019-05-04T12:49:42Z</time>
      </trkpt>
      <trkpt lat="39.061100" lon="-6.101483">
        <ele>1416.0</ele>
        <time>2019-05-04T12:49:43Z</time>
      </trkpt>
      <trkpt lat="39.061033" lon="-6.101550">
        <ele>1416.0</ele>
        <time>2019-05-04T12:49:44Z</time>
      </trkpt>
      <trkpt lat="39.060967" lon="-6.101600">
        <ele>1416.0</ele>
        <time>2019-05-04T12:49:45Z</time>
      </trkpt>
      <trkpt lat="39.060917" lon="-6.101667">
        <ele>1416.0</ele>
        <time>2019-05-04T12:49:46Z</time>
      </trkpt>
      <trkpt lat="39.060867" lon="-6.101733">
        <ele>1415.0</ele>
        <time>2019-05-04T12:49:47Z</time>
      </trkpt>
      <trkpt lat="39.060800" lon="-6.101800">
        <ele>1414.0</ele>
        <time>2019-05-04T12:49:48Z</time>
      </trkpt>
      <trkpt lat="39.060717" lon="-6.101883">
        <ele>1412.0</ele>
        <time>2019-05-04T12:49:49Z</time>
      </trkpt>
      <trkpt lat="39.060633" lon="-6.101967">
        <ele>1411.0</ele>
        <time>2019-05-04T12:49:50Z</time>
      </trkpt>
      <trkpt lat="39.060550" lon="-6.102050">
        <ele>1410.0</ele>
        <time>2019-05-04T12:49:51Z</time>
      </trkpt>
      <trkpt lat="39.060483" lon="-6.102117">
        <ele>1410.0</ele>
        <time>2019-05-04T12:49:52Z</time>
      </trkpt>
      <trkpt lat="39.060417" lon="-6.102183">
        <ele>1410.0</ele>
        <time>2019-05-04T12:49:53Z</time>
      </trkpt>
      <trkpt lat="39.060350" lon="-6.102233">
        <ele>1410.0</ele>
        <time>2019-05-04T12:49:54Z</time>
      </trkpt>
      <trkpt lat="39.060300" lon="-6.102300">
        <ele>1408.0</ele>
        <time>2019-05-04T12:49:55Z</time>
      </trkpt>
      <trkpt lat="39.060217" lon="-6.102367">
        <ele>1406.0</ele>
        <time>2019-05-04T12:49:56Z</time>
      </trkpt>
      <trkpt lat="39.060150" lon="-6.102450">
        <ele>1403.0</ele>
        <time>2019-05-04T12:49:57Z</time>
      </trkpt>
      <trkpt lat="39.060067" lon="-6.102517">
        <ele>1401.0</ele>
        <time>2019-05-04T12:49:58Z</time>
      </trkpt>
      <trkpt lat="39.060000" lon="-6.102583">
        <ele>1399.0</ele>
        <time>2019-05-04T12:49:59Z</time>
      </trkpt>
      <trkpt lat="39.059933" lon="-6.102633">
        <ele>1398.0</ele>
        <time>2019-05-04T12:50:00Z</time>
      </trkpt>
      <trkpt lat="39.059867" lon="-6.102667">
        <ele>1397.0</ele>
        <time>2019-05-04T12:50:01Z</time>
      </trkpt>
      <trkpt lat="39.059800" lon="-6.102733">
        <ele>1396.0</ele>
        <time>2019-05-04T12:50:02Z</time>
      </trkpt>
      <trkpt lat="39.059717" lon="-6.102817">
        <ele>1394.0</ele>
        <time>2019-05-04T12:50:03Z</time>
      </trkpt>
      <trkpt lat="39.059650" lon="-6.102883">
        <ele>1393.0</ele>
        <time>2019-05-04T12:50:04Z</time>
      </trkpt>
      <trkpt lat="39.059583" lon="-6.102950">
        <ele>1392.0</ele>
        <time>2019-05-04T12:50:05Z</time>
      </trkpt>
      <trkpt lat="39.059517" lon="-6.103017">
        <ele>1392.0</ele>
        <time>2019-05-04T12:50:06Z</time>
      </trkpt>
      <trkpt lat="39.059450" lon="-6.103083">
        <ele>1392.0</ele>
        <time>2019-05-04T12:50:07Z</time>
      </trkpt>
      <trkpt lat="39.059383" lon="-6.103167">
        <ele>1390.0</ele>
        <time>2019-05-04T12:50:08Z</time>
      </trkpt>
      <trkpt lat="39.059300" lon="-6.103267">
        <ele>1389.0</ele>
        <time>2019-05-04T12:50:09Z</time>
      </trkpt>
      <trkpt lat="39.059250" lon="-6.103367">
        <ele>1388.0</ele>
        <time>2019-05-04T12:50:10Z</time>
      </trkpt>
      <trkpt lat="39.059183" lon="-6.103467">
        <ele>1388.0</ele>
        <time>2019-05-04T12:50:11Z</time>
      </trkpt>
      <trkpt lat="39.059133" lon="-6.103567">
        <ele>1388.0</ele>
        <time>2019-05-04T12:50:12Z</time>
      </trkpt>
      <trkpt lat="39.059083" lon="-6.103667">
        <ele>1388.0</ele>
        <time>2019-05-04T12:50:13Z</time>
      </trkpt>
      <trkpt lat="39.059050" lon="-6.103750">
        <ele>1388.0</ele>
        <time>2019-05-04T12:50:14Z</time>
      </trkpt>
      <trkpt lat="39.059000" lon="-6.103850">
        <ele>1389.0</ele>
        <time>2019-05-04T12:50:15Z</time>
      </trkpt>
      <trkpt lat="39.058967" lon="-6.103950">
        <ele>1389.0</ele>
        <time>2019-05-04T12:50:16Z</time>
      </trkpt>
      <trkpt lat="39.058950" lon="-6.104067">
        <ele>1389.0</ele>
        <time>2019-05-04T12:50:17Z</time>
      </trkpt>
      <trkpt lat="39.058917" lon="-6.104183">
        <ele>1389.0</ele>
        <time>2019-05-04T12:50:18Z</time>
      </trkpt>
      <trkpt lat="39.058883" lon="-6.104300">
        <ele>1388.0</ele>
        <time>2019-05-04T12:50:19Z</time>
      </trkpt>
      <trkpt lat="39.058850" lon="-6.104417">
        <ele>1387.0</ele>
        <time>2019-05-04T12:50:20Z</time>
      </trkpt>
      <trkpt lat="39.058817" lon="-6.104533">
        <ele>1386.0</ele>
        <time>2019-05-04T12:50:21Z</time>
      </trkpt>
      <trkpt lat="39.058767" lon="-6.104633">
        <ele>1386.0</ele>
        <time>2019-05-04T12:50:22Z</time>
      </trkpt>
      <trkpt lat="39.058733" lon="-6.104750">
        <ele>1385.0</ele>
        <time>2019-05-04T12:50:23Z</time>
      </trkpt>
      <trkpt lat="39.058683" lon="-6.104850">
        <ele>1384.0</ele>
        <time>2019-05-04T12:50:24Z</time>
      </trkpt>
      <trkpt lat="39.058650" lon="-6.104967">
        <ele>1383.0</ele>
        <time>2019-05-04T12:50:25Z</time>
      </trkpt>
      <trkpt lat="39.058600" lon="-6.105083">
        <ele>1381.0</ele>
        <time>2019-05-04T12:50:26Z</time>
      </trkpt>
      <trkpt lat="39.058550" lon="-6.105200">
        <ele>1380.0</ele>
        <time>2019-05-04T12:50:27Z</time>
      </trkpt>
      <trkpt lat="39.058467" lon="-6.105317">
        <ele>1378.0</ele>
        <time>2019-05-04T12:50:28Z</time>
      </trkpt>
      <trkpt lat="39.058367" lon="-6.105400">
        <ele>1376.0</ele>
        <time>2019-05-04T12:50:29Z</time>
      </trkpt>
      <trkpt lat="39.058283" lon="-6.105467">
        <ele>1375.0</ele>
        <time>2019-05-04T12:50:30Z</time>
      </trkpt>
      <trkpt lat="39.058183" lon="-6.105517">
        <ele>1373.0</ele>
        <time>2019-05-04T12:50:31Z</time>
      </trkpt>
      <trkpt lat="39.058083" lon="-6.105550">
        <ele>1372.0</ele>
        <time>2019-05-04T12:50:32Z</time>
      </trkpt>
      <trkpt lat="39.057983" lon="-6.105583">
        <ele>1370.0</ele>
        <time>2019-05-04T12:50:33Z</time>
      </trkpt>
      <trkpt lat="39.057883" lon="-6.105583">
        <ele>1368.0</ele>
        <time>2019-05-04T12:50:34Z</time>
      </trkpt>
      <trkpt lat="39.057800" lon="-6.105567">
        <ele>1366.0</ele>
        <time>2019-05-04T12:50:35Z</time>
      </trkpt>
      <trkpt lat="39.057700" lon="-6.105533">
        <ele>1363.0</ele>
        <time>2019-05-04T12:50:36Z</time>
      </trkpt>
      <trkpt lat="39.057633" lon="-6.105467">
        <ele>1360.0</ele>
        <time>2019-05-04T12:50:37Z</time>
      </trkpt>
      <trkpt lat="39.057567" lon="-6.105400">
        <ele>1358.0</ele>
        <time>2019-05-04T12:50:38Z</time>
      </trkpt>
      <trkpt lat="39.057500" lon="-6.105300">
        <ele>1356.0</ele>
        <time>2019-05-04T12:50:39Z</time>
      </trkpt>
      <trkpt lat="39.057467" lon="-6.105217">
        <ele>1354.0</ele>
        <time>2019-05-04T12:50:40Z</time>
      </trkpt>
      <trkpt lat="39.057433" lon="-6.105117">
        <ele>1354.0</ele>
        <time>2019-05-04T12:50:41Z</time>
      </trkpt>
      <trkpt lat="39.057417" lon="-6.105033">
        <ele>1354.0</ele>
        <time>2019-05-04T12:50:42Z</time>
      </trkpt>
      <trkpt lat="39.057417" lon="-6.104950">
        <ele>1353.0</ele>
        <time>2019-05-04T12:50:43Z</time>
      </trkpt>
      <trkpt lat="39.057400" lon="-6.104867">
        <ele>1352.0</ele>
        <time>2019-05-04T12:50:44Z</time>
      </trkpt>
      <trkpt lat="39.057400" lon="-6.104783">
        <ele>1351.0</ele>
        <time>2019-05-04T12:50:45Z</time>
      </trkpt>
      <trkpt lat="39.057400" lon="-6.104700">
        <ele>1350.0</ele>
        <time>2019-05-04T12:50:46Z</time>
      </trkpt>
      <trkpt lat="39.057400" lon="-6.104617">
        <ele>1349.0</ele>
        <time>2019-05-04T12:50:47Z</time>
      </trkpt>
      <trkpt lat="39.057417" lon="-6.104533">
        <ele>1347.0</ele>
        <time>2019-05-04T12:50:48Z</time>
      </trkpt>
      <trkpt lat="39.057417" lon="-6.104450">
        <ele>1345.0</ele>
        <time>2019-05-04T12:50:49Z</time>
      </trkpt>
      <trkpt lat="39.057417" lon="-6.104367">
        <ele>1343.0</ele>
        <time>2019-05-04T12:50:50Z</time>
      </trkpt>
      <trkpt lat="39.057433" lon="-6.104283">
        <ele>1342.0</ele>
        <time>2019-05-04T12:50:51Z</time>
      </trkpt>
      <trkpt lat="39.057433" lon="-6.104200">
        <ele>1340.0</ele>
        <time>2019-05-04T12:50:52Z</time>
      </trkpt>
      <trkpt lat="39.057450" lon="-6.104133">
        <ele>1338.0</ele>
        <time>2019-05-04T12:50:53Z</time>
      </trkpt>
      <trkpt lat="39.057467" lon="-6.104050">
        <ele>1337.0</ele>
        <time>2019-05-04T12:50:54Z</time>
      </trkpt>
      <trkpt lat="39.057467" lon="-6.103950">
        <ele>1334.0</ele>
        <time>2019-05-04T12:50:55Z</time>
      </trkpt>
      <trkpt lat="39.057483" lon="-6.103850">
        <ele>1332.0</ele>
        <time>2019-05-04T12:50:56Z</time>
      </trkpt>
      <trkpt lat="39.057500" lon="-6.103750">
        <ele>1331.0</ele>
        <time>2019-05-04T12:50:57Z</time>
      </trkpt>
      <trkpt lat="39.057533" lon="-6.103667">
        <ele>1330.0</ele>
        <time>2019-05-04T12:50:58Z</time>
      </trkpt>
      <trkpt lat="39.057533" lon="-6.103583">
        <ele>1330.0</ele>
        <time>2019-05-04T12:50:59Z</time>
      </trkpt>
      <trkpt lat="39.057550" lon="-6.103517">
        <ele>1329.0</ele>
        <time>2019-05-04T12:51:00Z</time>
      </trkpt>
      <trkpt lat="39.057550" lon="-6.103433">
        <ele>1327.0</ele>
        <time>2019-05-04T12:51:01Z</time>
      </trkpt>
      <trkpt lat="39.057550" lon="-6.103350">
        <ele>1325.0</ele>
        <time>2019-05-04T12:51:02Z</time>
      </trkpt>
      <trkpt lat="39.057567" lon="-6.103250">
        <ele>1322.0</ele>
        <time>2019-05-04T12:51:03Z</time>
      </trkpt>
      <trkpt lat="39.057567" lon="-6.103150">
        <ele>1320.0</ele>
        <time>2019-05-04T12:51:04Z</time>
      </trkpt>
      <trkpt lat="39.057567" lon="-6.103050">
        <ele>1318.0</ele>
        <time>2019-05-04T12:51:05Z</time>
      </trkpt>
      <trkpt lat="39.057583" lon="-6.102933">
        <ele>1316.0</ele>
        <time>2019-05-04T12:51:06Z</time>
      </trkpt>
      <trkpt lat="39.057600" lon="-6.102817">
        <ele>1314.0</ele>
        <time>2019-05-04T12:51:07Z</time>
      </trkpt>
      <trkpt lat="39.057617" lon="-6.102700">
        <ele>1313.0</ele>
        <time>2019-05-04T12:51:08Z</time>
      </trkpt>
      <trkpt lat="39.057617" lon="-6.102600">
        <ele>1312.0</ele>
        <time>2019-05-04T12:51:09Z</time>
      </trkpt>
      <trkpt lat="39.057633" lon="-6.102500">
        <ele>1312.0</ele>
        <time>2019-05-04T12:51:10Z</time>
      </trkpt>
      <trkpt lat="39.057633" lon="-6.102417">
        <ele>1311.0</ele>
        <time>2019-05-04T12:51:11Z</time>
      </trkpt>
      <trkpt lat="39.057633" lon="-6.102300">
        <ele>1310.0</ele>
        <time>2019-05-04T12:51:12Z</time>
      </trkpt>
      <trkpt lat="39.057633" lon="-6.102183">
        <ele>1309.0</ele>
        <time>2019-05-04T12:51:13Z</time>
      </trkpt>
      <trkpt lat="39.057633" lon="-6.102067">
        <ele>1306.0</ele>
        <time>2019-05-04T12:51:14Z</time>
      </trkpt>
      <trkpt lat="39.057650" lon="-6.101950">
        <ele>1305.0</ele>
        <time>2019-05-04T12:51:15Z</time>
      </trkpt>
      <trkpt lat="39.057667" lon="-6.101833">
        <ele>1304.0</ele>
        <time>2019-05-04T12:51:16Z</time>
      </trkpt>
      <trkpt lat="39.057683" lon="-6.101733">
        <ele>1304.0</ele>
        <time>2019-05-04T12:51:17Z</time>
      </trkpt>
      <trkpt lat="39.057683" lon="-6.101633">
        <ele>1303.0</ele>
        <time>2019-05-04T12:51:18Z</time>
      </trkpt>
      <trkpt lat="39.057700" lon="-6.101533">
        <ele>1302.0</ele>
        <time>2019-05-04T12:51:19Z</time>
      </trkpt>
      <trkpt lat="39.057717" lon="-6.101433">
        <ele>1301.0</ele>
        <time>2019-05-04T12:51:20Z</time>
      </trkpt>
      <trkpt lat="39.057733" lon="-6.101317">
        <ele>1300.0</ele>
        <time>2019-05-04T12:51:21Z</time>
      </trkpt>
      <trkpt lat="39.057750" lon="-6.101217">
        <ele>1299.0</ele>
        <time>2019-05-04T12:51:22Z</time>
      </trkpt>
      <trkpt lat="39.057767" lon="-6.101100">
        <ele>1298.0</ele>
        <time>2019-05-04T12:51:23Z</time>
      </trkpt>
      <trkpt lat="39.057767" lon="-6.101000">
        <ele>1298.0</ele>
        <time>2019-05-04T12:51:24Z</time>
      </trkpt>
      <trkpt lat="39.057750" lon="-6.100900">
        <ele>1299.0</ele>
        <time>2019-05-04T12:51:25Z</time>
      </trkpt>
      <trkpt lat="39.057750" lon="-6.100800">
        <ele>1298.0</ele>
        <time>2019-05-04T12:51:26Z</time>
      </trkpt>
      <trkpt lat="39.057750" lon="-6.100683">
        <ele>1298.0</ele>
        <time>2019-05-04T12:51:27Z</time>
      </trkpt>
      <trkpt lat="39.057750" lon="-6.100567">
        <ele>1298.0</ele>
        <time>2019-05-04T12:51:28Z</time>
      </trkpt>
      <trkpt lat="39.057750" lon="-6.100450">
        <ele>1297.0</ele>
        <time>2019-05-04T12:51:29Z</time>
      </trkpt>
      <trkpt lat="39.057750" lon="-6.100333">
        <ele>1298.0</ele>
        <time>2019-05-04T12:51:30Z</time>
      </trkpt>
      <trkpt lat="39.057750" lon="-6.100233">
        <ele>1299.0</ele>
        <time>2019-05-04T12:51:31Z</time>
      </trkpt>
      <trkpt lat="39.057750" lon="-6.100133">
        <ele>1300.0</ele>
        <time>2019-05-04T12:51:32Z</time>
      </trkpt>
      <trkpt lat="39.057767" lon="-6.100033">
        <ele>1300.0</ele>
        <time>2019-05-04T12:51:33Z</time>
      </trkpt>
      <trkpt lat="39.057767" lon="-6.099917">
        <ele>1300.0</ele>
        <time>2019-05-04T12:51:34Z</time>
      </trkpt>
      <trkpt lat="39.057750" lon="-6.099800">
        <ele>1301.0</ele>
        <time>2019-05-04T12:51:35Z</time>
      </trkpt>
      <trkpt lat="39.057750" lon="-6.099700">
        <ele>1301.0</ele>
        <time>2019-05-04T12:51:36Z</time>
      </trkpt>
      <trkpt lat="39.057750" lon="-6.099583">
        <ele>1301.0</ele>
        <time>2019-05-04T12:51:37Z</time>
      </trkpt>
      <trkpt lat="39.057750" lon="-6.099483">
        <ele>1302.0</ele>
        <time>2019-05-04T12:51:38Z</time>
      </trkpt>
      <trkpt lat="39.057733" lon="-6.099383">
        <ele>1302.0</ele>
        <time>2019-05-04T12:51:39Z</time>
      </trkpt>
      <trkpt lat="39.057733" lon="-6.099267">
        <ele>1302.0</ele>
        <time>2019-05-04T12:51:40Z</time>
      </trkpt>
      <trkpt lat="39.057733" lon="-6.099167">
        <ele>1302.0</ele>
        <time>2019-05-04T12:51:41Z</time>
      </trkpt>
      <trkpt lat="39.057750" lon="-6.099050">
        <ele>1301.0</ele>
        <time>2019-05-04T12:51:42Z</time>
      </trkpt>
      <trkpt lat="39.057750" lon="-6.098933">
        <ele>1301.0</ele>
        <time>2019-05-04T12:51:43Z</time>
      </trkpt>
      <trkpt lat="39.057750" lon="-6.098817">
        <ele>1301.0</ele>
        <time>2019-05-04T12:51:44Z</time>
      </trkpt>
      <trkpt lat="39.057767" lon="-6.098683">
        <ele>1300.0</ele>
        <time>2019-05-04T12:51:45Z</time>
      </trkpt>
      <trkpt lat="39.057767" lon="-6.098567">
        <ele>1301.0</ele>
        <time>2019-05-04T12:51:46Z</time>
      </trkpt>
      <trkpt lat="39.057767" lon="-6.098467">
        <ele>1303.0</ele>
        <time>2019-05-04T12:51:47Z</time>
      </trkpt>
      <trkpt lat="39.057767" lon="-6.098367">
        <ele>1305.0</ele>
        <time>2019-05-04T12:51:48Z</time>
      </trkpt>
      <trkpt lat="39.057783" lon="-6.098267">
        <ele>1307.0</ele>
        <time>2019-05-04T12:51:49Z</time>
      </trkpt>
      <trkpt lat="39.057800" lon="-6.098167">
        <ele>1307.0</ele>
        <time>2019-05-04T12:51:50Z</time>
      </trkpt>
      <trkpt lat="39.057800" lon="-6.098067">
        <ele>1308.0</ele>
        <time>2019-05-04T12:51:51Z</time>
      </trkpt>
      <trkpt lat="39.057800" lon="-6.097967">
        <ele>1308.0</ele>
        <time>2019-05-04T12:51:52Z</time>
      </trkpt>
      <trkpt lat="39.057800" lon="-6.097867">
        <ele>1309.0</ele>
        <time>2019-05-04T12:51:53Z</time>
      </trkpt>
      <trkpt lat="39.057783" lon="-6.097783">
        <ele>1310.0</ele>
        <time>2019-05-04T12:51:54Z</time>
      </trkpt>
      <trkpt lat="39.057783" lon="-6.097683">
        <ele>1310.0</ele>
        <time>2019-05-04T12:51:55Z</time>
      </trkpt>
      <trkpt lat="39.057783" lon="-6.097600">
        <ele>1310.0</ele>
        <time>2019-05-04T12:51:56Z</time>
      </trkpt>
      <trkpt lat="39.057767" lon="-6.097500">
        <ele>1310.0</ele>
        <time>2019-05-04T12:51:57Z</time>
      </trkpt>
      <trkpt lat="39.057750" lon="-6.097400">
        <ele>1309.0</ele>
        <time>2019-05-04T12:51:58Z</time>
      </trkpt>
      <trkpt lat="39.057733" lon="-6.097283">
        <ele>1309.0</ele>
        <time>2019-05-04T12:51:59Z</time>
      </trkpt>
      <trkpt lat="39.057683" lon="-6.097183">
        <ele>1308.0</ele>
        <time>2019-05-04T12:52:00Z</time>
      </trkpt>
      <trkpt lat="39.057617" lon="-6.097083">
        <ele>1308.0</ele>
        <time>2019-05-04T12:52:01Z</time>
      </trkpt>
      <trkpt lat="39.057533" lon="-6.097017">
        <ele>1308.0</ele>
        <time>2019-05-04T12:52:02Z</time>
      </trkpt>
      <trkpt lat="39.057450" lon="-6.096967">
        <ele>1310.0</ele>
        <time>2019-05-04T12:52:03Z</time>
      </trkpt>
      <trkpt lat="39.057383" lon="-6.096933">
        <ele>1310.0</ele>
        <time>2019-05-04T12:52:04Z</time>
      </trkpt>
      <trkpt lat="39.057317" lon="-6.096900">
        <ele>1310.0</ele>
        <time>2019-05-04T12:52:05Z</time>
      </trkpt>
      <trkpt lat="39.057250" lon="-6.096850">
        <ele>1311.0</ele>
        <time>2019-05-04T12:52:06Z</time>
      </trkpt>
      <trkpt lat="39.057200" lon="-6.096800">
        <ele>1311.0</ele>
        <time>2019-05-04T12:52:07Z</time>
      </trkpt>
      <trkpt lat="39.057133" lon="-6.096733">
        <ele>1310.0</ele>
        <time>2019-05-04T12:52:08Z</time>
      </trkpt>
      <trkpt lat="39.057083" lon="-6.096667">
        <ele>1309.0</ele>
        <time>2019-05-04T12:52:09Z</time>
      </trkpt>
      <trkpt lat="39.057067" lon="-6.096583">
        <ele>1309.0</ele>
        <time>2019-05-04T12:52:10Z</time>
      </trkpt>
      <trkpt lat="39.057067" lon="-6.096500">
        <ele>1309.0</ele>
        <time>2019-05-04T12:52:11Z</time>
      </trkpt>
      <trkpt lat="39.057083" lon="-6.096417">
        <ele>1308.0</ele>
        <time>2019-05-04T12:52:12Z</time>
      </trkpt>
      <trkpt lat="39.057100" lon="-6.096317">
        <ele>1308.0</ele>
        <time>2019-05-04T12:52:13Z</time>
      </trkpt>
      <trkpt lat="39.057117" lon="-6.096217">
        <ele>1307.0</ele>
        <time>2019-05-04T12:52:14Z</time>
      </trkpt>
      <trkpt lat="39.057133" lon="-6.096117">
        <ele>1307.0</ele>
        <time>2019-05-04T12:52:15Z</time>
      </trkpt>
      <trkpt lat="39.057183" lon="-6.096000">
        <ele>1307.0</ele>
        <time>2019-05-04T12:52:16Z</time>
      </trkpt>
      <trkpt lat="39.057233" lon="-6.095917">
        <ele>1307.0</ele>
        <time>2019-05-04T12:52:17Z</time>
      </trkpt>
      <trkpt lat="39.057300" lon="-6.095850">
        <ele>1307.0</ele>
        <time>2019-05-04T12:52:18Z</time>
      </trkpt>
      <trkpt lat="39.057367" lon="-6.095767">
        <ele>1307.0</ele>
        <time>2019-05-04T12:52:19Z</time>
      </trkpt>
      <trkpt lat="39.057417" lon="-6.095700">
        <ele>1309.0</ele>
        <time>2019-05-04T12:52:20Z</time>
      </trkpt>
      <trkpt lat="39.057483" lon="-6.095633">
        <ele>1309.0</ele>
        <time>2019-05-04T12:52:21Z</time>
      </trkpt>
      <trkpt lat="39.057550" lon="-6.095567">
        <ele>1309.0</ele>
        <time>2019-05-04T12:52:22Z</time>
      </trkpt>
      <trkpt lat="39.057633" lon="-6.095500">
        <ele>1311.0</ele>
        <time>2019-05-04T12:52:23Z</time>
      </trkpt>
      <trkpt lat="39.057700" lon="-6.095433">
        <ele>1313.0</ele>
        <time>2019-05-04T12:52:24Z</time>
      </trkpt>
      <trkpt lat="39.057767" lon="-6.095383">
        <ele>1316.0</ele>
        <time>2019-05-04T12:52:25Z</time>
      </trkpt>
      <trkpt lat="39.057833" lon="-6.095350">
        <ele>1319.0</ele>
        <time>2019-05-04T12:52:26Z</time>
      </trkpt>
      <trkpt lat="39.057883" lon="-6.095317">
        <ele>1322.0</ele>
        <time>2019-05-04T12:52:27Z</time>
      </trkpt>
      <trkpt lat="39.057933" lon="-6.095283">
        <ele>1324.0</ele>
        <time>2019-05-04T12:52:28Z</time>
      </trkpt>
      <trkpt lat="39.058000" lon="-6.095267">
        <ele>1325.0</ele>
        <time>2019-05-04T12:52:29Z</time>
      </trkpt>
      <trkpt lat="39.058100" lon="-6.095267">
        <ele>1326.0</ele>
        <time>2019-05-04T12:52:30Z</time>
      </trkpt>
      <trkpt lat="39.058200" lon="-6.095283">
        <ele>1327.0</ele>
        <time>2019-05-04T12:52:31Z</time>
      </trkpt>
      <trkpt lat="39.058283" lon="-6.095350">
        <ele>1329.0</ele>
        <time>2019-05-04T12:52:32Z</time>
      </trkpt>
      <trkpt lat="39.058367" lon="-6.095433">
        <ele>1331.0</ele>
        <time>2019-05-04T12:52:33Z</time>
      </trkpt>
      <trkpt lat="39.058417" lon="-6.095533">
        <ele>1333.0</ele>
        <time>2019-05-04T12:52:34Z</time>
      </trkpt>
      <trkpt lat="39.058417" lon="-6.095667">
        <ele>1335.0</ele>
        <time>2019-05-04T12:52:35Z</time>
      </trkpt>
      <trkpt lat="39.058400" lon="-6.095783">
        <ele>1337.0</ele>
        <time>2019-05-04T12:52:36Z</time>
      </trkpt>
      <trkpt lat="39.058367" lon="-6.095867">
        <ele>1339.0</ele>
        <time>2019-05-04T12:52:37Z</time>
      </trkpt>
      <trkpt lat="39.058300" lon="-6.095917">
        <ele>1342.0</ele>
        <time>2019-05-04T12:52:38Z</time>
      </trkpt>
      <trkpt lat="39.058250" lon="-6.095933">
        <ele>1345.0</ele>
        <time>2019-05-04T12:52:39Z</time>
      </trkpt>
      <trkpt lat="39.058183" lon="-6.095917">
        <ele>1347.0</ele>
        <time>2019-05-04T12:52:40Z</time>
      </trkpt>
      <trkpt lat="39.058133" lon="-6.095867">
        <ele>1349.0</ele>
        <time>2019-05-04T12:52:41Z</time>
      </trkpt>
      <trkpt lat="39.058100" lon="-6.095800">
        <ele>1351.0</ele>
        <time>2019-05-04T12:52:42Z</time>
      </trkpt>
      <trkpt lat="39.058067" lon="-6.095733">
        <ele>1354.0</ele>
        <time>2019-05-04T12:52:43Z</time>
      </trkpt>
      <trkpt lat="39.058067" lon="-6.095650">
        <ele>1356.0</ele>
        <time>2019-05-04T12:52:44Z</time>
      </trkpt>
      <trkpt lat="39.058100" lon="-6.095567">
        <ele>1359.0</ele>
        <time>2019-05-04T12:52:45Z</time>
      </trkpt>
      <trkpt lat="39.058150" lon="-6.095500">
        <ele>1361.0</ele>
        <time>2019-05-04T12:52:46Z</time>
      </trkpt>
      <trkpt lat="39.058200" lon="-6.095450">
        <ele>1363.0</ele>
        <time>2019-05-04T12:52:47Z</time>
      </trkpt>
      <trkpt lat="39.058283" lon="-6.095417">
        <ele>1366.0</ele>
        <time>2019-05-04T12:52:48Z</time>
      </trkpt>
      <trkpt lat="39.058367" lon="-6.095417">
        <ele>1368.0</ele>
        <time>2019-05-04T12:52:49Z</time>
      </trkpt>
      <trkpt lat="39.058467" lon="-6.095450">
        <ele>1369.0</ele>
        <time>2019-05-04T12:52:50Z</time>
      </trkpt>
      <trkpt lat="39.058567" lon="-6.095500">
        <ele>1371.0</ele>
        <time>2019-05-04T12:52:51Z</time>
      </trkpt>
      <trkpt lat="39.058650" lon="-6.095600">
        <ele>1374.0</ele>
        <time>2019-05-04T12:52:52Z</time>
      </trkpt>
      <trkpt lat="39.058700" lon="-6.095717">
        <ele>1377.0</ele>
        <time>2019-05-04T12:52:53Z</time>
      </trkpt>
      <trkpt lat="39.058700" lon="-6.095833">
        <ele>1380.0</ele>
        <time>2019-05-04T12:52:54Z</time>
      </trkpt>
      <trkpt lat="39.058700" lon="-6.095933">
        <ele>1384.0</ele>
        <time>2019-05-04T12:52:55Z</time>
      </trkpt>
      <trkpt lat="39.058667" lon="-6.096033">
        <ele>1383.0</ele>
        <time>2019-05-04T12:52:56Z</time>
      </trkpt>
      <trkpt lat="39.058633" lon="-6.096117">
        <ele>1384.0</ele>
        <time>2019-05-04T12:52:57Z</time>
      </trkpt>
      <trkpt lat="39.058583" lon="-6.096200">
        <ele>1387.0</ele>
        <time>2019-05-04T12:52:58Z</time>
      </trkpt>
      <trkpt lat="39.058533" lon="-6.096267">
        <ele>1390.0</ele>
        <time>2019-05-04T12:52:59Z</time>
      </trkpt>
      <trkpt lat="39.058467" lon="-6.096333">
        <ele>1394.0</ele>
        <time>2019-05-04T12:53:00Z</time>
      </trkpt>
      <trkpt lat="39.058383" lon="-6.096367">
        <ele>1397.0</ele>
        <time>2019-05-04T12:53:01Z</time>
      </trkpt>
      <trkpt lat="39.058300" lon="-6.096383">
        <ele>1400.0</ele>
        <time>2019-05-04T12:53:02Z</time>
      </trkpt>
      <trkpt lat="39.058250" lon="-6.096400">
        <ele>1402.0</ele>
        <time>2019-05-04T12:53:03Z</time>
      </trkpt>
      <trkpt lat="39.058100" lon="-6.096400">
        <ele>0.0</ele>
        <time>2019-05-04T12:53:05Z</time>
      </trkpt>
      <trkpt lat="39.058033" lon="-6.096383">
        <ele>1398.0</ele>
        <time>2019-05-04T12:53:06Z</time>
      </trkpt>
      <trkpt lat="39.057967" lon="-6.096300">
        <ele>1402.0</ele>
        <time>2019-05-04T12:53:07Z</time>
      </trkpt>
      <trkpt lat="39.057900" lon="-6.096217">
        <ele>1408.0</ele>
        <time>2019-05-04T12:53:08Z</time>
      </trkpt>
      <trkpt lat="39.057833" lon="-6.096117">
        <ele>1414.0</ele>
        <time>2019-05-04T12:53:09Z</time>
      </trkpt>
      <trkpt lat="39.057800" lon="-6.096017">
        <ele>1418.0</ele>
        <time>2019-05-04T12:53:10Z</time>
      </trkpt>
      <trkpt lat="39.057800" lon="-6.095917">
        <ele>1423.0</ele>
        <time>2019-05-04T12:53:11Z</time>
      </trkpt>
      <trkpt lat="39.057833" lon="-6.095817">
        <ele>1427.0</ele>
        <time>2019-05-04T12:53:12Z</time>
      </trkpt>
      <trkpt lat="39.057867" lon="-6.095733">
        <ele>1430.0</ele>
        <time>2019-05-04T12:53:13Z</time>
      </trkpt>
      <trkpt lat="39.057917" lon="-6.095683">
        <ele>1434.0</ele>
        <time>2019-05-04T12:53:14Z</time>
      </trkpt>
      <trkpt lat="39.057967" lon="-6.095617">
        <ele>1437.0</ele>
        <time>2019-05-04T12:53:15Z</time>
      </trkpt>
      <trkpt lat="39.058033" lon="-6.095567">
        <ele>1440.0</ele>
        <time>2019-05-04T12:53:16Z</time>
      </trkpt>
      <trkpt lat="39.058117" lon="-6.095533">
        <ele>1442.0</ele>
        <time>2019-05-04T12:53:17Z</time>
      </trkpt>
      <trkpt lat="39.058200" lon="-6.095533">
        <ele>1445.0</ele>
        <time>2019-05-04T12:53:18Z</time>
      </trkpt>
      <trkpt lat="39.058317" lon="-6.095550">
        <ele>1448.0</ele>
        <time>2019-05-04T12:53:19Z</time>
      </trkpt>
      <trkpt lat="39.058400" lon="-6.095600">
        <ele>1451.0</ele>
        <time>2019-05-04T12:53:20Z</time>
      </trkpt>
      <trkpt lat="39.058483" lon="-6.095700">
        <ele>1454.0</ele>
        <time>2019-05-04T12:53:21Z</time>
      </trkpt>
      <trkpt lat="39.058533" lon="-6.095800">
        <ele>1458.0</ele>
        <time>2019-05-04T12:53:22Z</time>
      </trkpt>
      <trkpt lat="39.058550" lon="-6.095917">
        <ele>1462.0</ele>
        <time>2019-05-04T12:53:23Z</time>
      </trkpt>
      <trkpt lat="39.058567" lon="-6.096017">
        <ele>1466.0</ele>
        <time>2019-05-04T12:53:24Z</time>
      </trkpt>
      <trkpt lat="39.058550" lon="-6.096117">
        <ele>1469.0</ele>
        <time>2019-05-04T12:53:25Z</time>
      </trkpt>
      <trkpt lat="39.058533" lon="-6.096233">
        <ele>1472.0</ele>
        <time>2019-05-04T12:53:26Z</time>
      </trkpt>
      <trkpt lat="39.058483" lon="-6.096350">
        <ele>1474.0</ele>
        <time>2019-05-04T12:53:27Z</time>
      </trkpt>
      <trkpt lat="39.058417" lon="-6.096450">
        <ele>1476.0</ele>
        <time>2019-05-04T12:53:28Z</time>
      </trkpt>
      <trkpt lat="39.058333" lon="-6.096517">
        <ele>1479.0</ele>
        <time>2019-05-04T12:53:29Z</time>
      </trkpt>
      <trkpt lat="39.058233" lon="-6.096550">
        <ele>1482.0</ele>
        <time>2019-05-04T12:53:30Z</time>
      </trkpt>
      <trkpt lat="39.058133" lon="-6.096533">
        <ele>1487.0</ele>
        <time>2019-05-04T12:53:31Z</time>
      </trkpt>
      <trkpt lat="39.058050" lon="-6.096517">
        <ele>1493.0</ele>
        <time>2019-05-04T12:53:32Z</time>
      </trkpt>
      <trkpt lat="39.057983" lon="-6.096467">
        <ele>1498.0</ele>
        <time>2019-05-04T12:53:33Z</time>
      </trkpt>
      <trkpt lat="39.057933" lon="-6.096433">
        <ele>1502.0</ele>
        <time>2019-05-04T12:53:34Z</time>
      </trkpt>
      <trkpt lat="39.057883" lon="-6.096367">
        <ele>1505.0</ele>
        <time>2019-05-04T12:53:35Z</time>
      </trkpt>
      <trkpt lat="39.057833" lon="-6.096283">
        <ele>1508.0</ele>
        <time>2019-05-04T12:53:36Z</time>
      </trkpt>
      <trkpt lat="39.057800" lon="-6.096183">
        <ele>1509.0</ele>
        <time>2019-05-04T12:53:37Z</time>
      </trkpt>
      <trkpt lat="39.057800" lon="-6.096083">
        <ele>1512.0</ele>
        <time>2019-05-04T12:53:38Z</time>
      </trkpt>
      <trkpt lat="39.057800" lon="-6.096000">
        <ele>1515.0</ele>
        <time>2019-05-04T12:53:39Z</time>
      </trkpt>
      <trkpt lat="39.057850" lon="-6.095933">
        <ele>1519.0</ele>
        <time>2019-05-04T12:53:40Z</time>
      </trkpt>
      <trkpt lat="39.057900" lon="-6.095867">
        <ele>1523.0</ele>
        <time>2019-05-04T12:53:41Z</time>
      </trkpt>
      <trkpt lat="39.057967" lon="-6.095833">
        <ele>1526.0</ele>
        <time>2019-05-04T12:53:42Z</time>
      </trkpt>
      <trkpt lat="39.058033" lon="-6.095800">
        <ele>1529.0</ele>
        <time>2019-05-04T12:53:43Z</time>
      </trkpt>
      <trkpt lat="39.058133" lon="-6.095800">
        <ele>1532.0</ele>
        <time>2019-05-04T12:53:44Z</time>
      </trkpt>
      <trkpt lat="39.058217" lon="-6.095817">
        <ele>1535.0</ele>
        <time>2019-05-04T12:53:45Z</time>
      </trkpt>
      <trkpt lat="39.058283" lon="-6.095883">
        <ele>1538.0</ele>
        <time>2019-05-04T12:53:46Z</time>
      </trkpt>
      <trkpt lat="39.058350" lon="-6.095967">
        <ele>1541.0</ele>
        <time>2019-05-04T12:53:47Z</time>
      </trkpt>
      <trkpt lat="39.058383" lon="-6.096083">
        <ele>1545.0</ele>
        <time>2019-05-04T12:53:48Z</time>
      </trkpt>
      <trkpt lat="39.058383" lon="-6.096183">
        <ele>1548.0</ele>
        <time>2019-05-04T12:53:49Z</time>
      </trkpt>
      <trkpt lat="39.058367" lon="-6.096267">
        <ele>1552.0</ele>
        <time>2019-05-04T12:53:50Z</time>
      </trkpt>
      <trkpt lat="39.058333" lon="-6.096367">
        <ele>1555.0</ele>
        <time>2019-05-04T12:53:51Z</time>
      </trkpt>
      <trkpt lat="39.058283" lon="-6.096467">
        <ele>1557.0</ele>
        <time>2019-05-04T12:53:52Z</time>
      </trkpt>
      <trkpt lat="39.058200" lon="-6.096550">
        <ele>1560.0</ele>
        <time>2019-05-04T12:53:53Z</time>
      </trkpt>
      <trkpt lat="39.058117" lon="-6.096600">
        <ele>1562.0</ele>
        <time>2019-05-04T12:53:54Z</time>
      </trkpt>
      <trkpt lat="39.058017" lon="-6.096617">
        <ele>1565.0</ele>
        <time>2019-05-04T12:53:55Z</time>
      </trkpt>
      <trkpt lat="39.057917" lon="-6.096617">
        <ele>1570.0</ele>
        <time>2019-05-04T12:53:56Z</time>
      </trkpt>
      <trkpt lat="39.057833" lon="-6.096600">
        <ele>1573.0</ele>
        <time>2019-05-04T12:53:57Z</time>
      </trkpt>
      <trkpt lat="39.057750" lon="-6.096550">
        <ele>1576.0</ele>
        <time>2019-05-04T12:53:58Z</time>
      </trkpt>
      <trkpt lat="39.057683" lon="-6.096500">
        <ele>1579.0</ele>
        <time>2019-05-04T12:53:59Z</time>
      </trkpt>
      <trkpt lat="39.057650" lon="-6.096417">
        <ele>1582.0</ele>
        <time>2019-05-04T12:54:00Z</time>
      </trkpt>
      <trkpt lat="39.057617" lon="-6.096317">
        <ele>1585.0</ele>
        <time>2019-05-04T12:54:01Z</time>
      </trkpt>
      <trkpt lat="39.057617" lon="-6.096233">
        <ele>1588.0</ele>
        <time>2019-05-04T12:54:02Z</time>
      </trkpt>
      <trkpt lat="39.057633" lon="-6.096133">
        <ele>1591.0</ele>
        <time>2019-05-04T12:54:03Z</time>
      </trkpt>
      <trkpt lat="39.057667" lon="-6.096067">
        <ele>1595.0</ele>
        <time>2019-05-04T12:54:04Z</time>
      </trkpt>
      <trkpt lat="39.057683" lon="-6.096000">
        <ele>1600.0</ele>
        <time>2019-05-04T12:54:05Z</time>
      </trkpt>
      <trkpt lat="39.057717" lon="-6.095933">
        <ele>1604.0</ele>
        <time>2019-05-04T12:54:06Z</time>
      </trkpt>
      <trkpt lat="39.057750" lon="-6.095867">
        <ele>1606.0</ele>
        <time>2019-05-04T12:54:07Z</time>
      </trkpt>
      <trkpt lat="39.057800" lon="-6.095800">
        <ele>1609.0</ele>
        <time>2019-05-04T12:54:08Z</time>
      </trkpt>
      <trkpt lat="39.057867" lon="-6.095750">
        <ele>1610.0</ele>
        <time>2019-05-04T12:54:09Z</time>
      </trkpt>
      <trkpt lat="39.057950" lon="-6.095717">
        <ele>1613.0</ele>
        <time>2019-05-04T12:54:10Z</time>
      </trkpt>
      <trkpt lat="39.058033" lon="-6.095700">
        <ele>1616.0</ele>
        <time>2019-05-04T12:54:11Z</time>
      </trkpt>
      <trkpt lat="39.058117" lon="-6.095733">
        <ele>1620.0</ele>
        <time>2019-05-04T12:54:12Z</time>
      </trkpt>
      <trkpt lat="39.058200" lon="-6.095767">
        <ele>1623.0</ele>
        <time>2019-05-04T12:54:13Z</time>
      </trkpt>
      <trkpt lat="39.058267" lon="-6.095833">
        <ele>1626.0</ele>
        <time>2019-05-04T12:54:14Z</time>
      </trkpt>
      <trkpt lat="39.058350" lon="-6.095933">
        <ele>1628.0</ele>
        <time>2019-05-04T12:54:15Z</time>
      </trkpt>
      <trkpt lat="39.058400" lon="-6.096050">
        <ele>1631.0</ele>
        <time>2019-05-04T12:54:16Z</time>
      </trkpt>
      <trkpt lat="39.058417" lon="-6.096183">
        <ele>1634.0</ele>
        <time>2019-05-04T12:54:17Z</time>
      </trkpt>
      <trkpt lat="39.058400" lon="-6.096300">
        <ele>1638.0</ele>
        <time>2019-05-04T12:54:18Z</time>
      </trkpt>
      <trkpt lat="39.058383" lon="-6.096400">
        <ele>1642.0</ele>
        <time>2019-05-04T12:54:19Z</time>
      </trkpt>
      <trkpt lat="39.058350" lon="-6.096483">
        <ele>1646.0</ele>
        <time>2019-05-04T12:54:20Z</time>
      </trkpt>
      <trkpt lat="39.058317" lon="-6.096583">
        <ele>1649.0</ele>
        <time>2019-05-04T12:54:21Z</time>
      </trkpt>
      <trkpt lat="39.058267" lon="-6.096683">
        <ele>1651.0</ele>
        <time>2019-05-04T12:54:22Z</time>
      </trkpt>
      <trkpt lat="39.058217" lon="-6.096800">
        <ele>1652.0</ele>
        <time>2019-05-04T12:54:23Z</time>
      </trkpt>
      <trkpt lat="39.058117" lon="-6.096883">
        <ele>1654.0</ele>
        <time>2019-05-04T12:54:24Z</time>
      </trkpt>
      <trkpt lat="39.058017" lon="-6.096933">
        <ele>1657.0</ele>
        <time>2019-05-04T12:54:25Z</time>
      </trkpt>
      <trkpt lat="39.057900" lon="-6.096950">
        <ele>1660.0</ele>
        <time>2019-05-04T12:54:26Z</time>
      </trkpt>
      <trkpt lat="39.057800" lon="-6.096933">
        <ele>1665.0</ele>
        <time>2019-05-04T12:54:27Z</time>
      </trkpt>
      <trkpt lat="39.057717" lon="-6.096900">
        <ele>1669.0</ele>
        <time>2019-05-04T12:54:28Z</time>
      </trkpt>
      <trkpt lat="39.057633" lon="-6.096867">
        <ele>1673.0</ele>
        <time>2019-05-04T12:54:29Z</time>
      </trkpt>
      <trkpt lat="39.057550" lon="-6.096817">
        <ele>1676.0</ele>
        <time>2019-05-04T12:54:30Z</time>
      </trkpt>
      <trkpt lat="39.057467" lon="-6.096750">
        <ele>1678.0</ele>
        <time>2019-05-04T12:54:31Z</time>
      </trkpt>
      <trkpt lat="39.057400" lon="-6.096667">
        <ele>1680.0</ele>
        <time>2019-05-04T12:54:32Z</time>
      </trkpt>
      <trkpt lat="39.057367" lon="-6.096567">
        <ele>1682.0</ele>
        <time>2019-05-04T12:54:33Z</time>
      </trkpt>
      <trkpt lat="39.057350" lon="-6.096450">
        <ele>1684.0</ele>
        <time>2019-05-04T12:54:34Z</time>
      </trkpt>
      <trkpt lat="39.057350" lon="-6.096350">
        <ele>1687.0</ele>
        <time>2019-05-04T12:54:35Z</time>
      </trkpt>
      <trkpt lat="39.057350" lon="-6.096267">
        <ele>1691.0</ele>
        <time>2019-05-04T12:54:36Z</time>
      </trkpt>
      <trkpt lat="39.057367" lon="-6.096183">
        <ele>1695.0</ele>
        <time>2019-05-04T12:54:37Z</time>
      </trkpt>
      <trkpt lat="39.057383" lon="-6.096100">
        <ele>1698.0</ele>
        <time>2019-05-04T12:54:38Z</time>
      </trkpt>
      <trkpt lat="39.057417" lon="-6.096017">
        <ele>1700.0</ele>
        <time>2019-05-04T12:54:39Z</time>
      </trkpt>
      <trkpt lat="39.057483" lon="-6.095950">
        <ele>1701.0</ele>
        <time>2019-05-04T12:54:40Z</time>
      </trkpt>
      <trkpt lat="39.057550" lon="-6.095900">
        <ele>1703.0</ele>
        <time>2019-05-04T12:54:41Z</time>
      </trkpt>
      <trkpt lat="39.057650" lon="-6.095900">
        <ele>1706.0</ele>
        <time>2019-05-04T12:54:42Z</time>
      </trkpt>
      <trkpt lat="39.057717" lon="-6.095967">
        <ele>1709.0</ele>
        <time>2019-05-04T12:54:43Z</time>
      </trkpt>
      <trkpt lat="39.057767" lon="-6.096050">
        <ele>1712.0</ele>
        <time>2019-05-04T12:54:44Z</time>
      </trkpt>
      <trkpt lat="39.057783" lon="-6.096167">
        <ele>1715.0</ele>
        <time>2019-05-04T12:54:45Z</time>
      </trkpt>
      <trkpt lat="39.057750" lon="-6.096283">
        <ele>1718.0</ele>
        <time>2019-05-04T12:54:46Z</time>
      </trkpt>
      <trkpt lat="39.057717" lon="-6.096383">
        <ele>1722.0</ele>
        <time>2019-05-04T12:54:47Z</time>
      </trkpt>
      <trkpt lat="39.057650" lon="-6.096483">
        <ele>1726.0</ele>
        <time>2019-05-04T12:54:48Z</time>
      </trkpt>
      <trkpt lat="39.057583" lon="-6.096550">
        <ele>1729.0</ele>
        <time>2019-05-04T12:54:49Z</time>
      </trkpt>
      <trkpt lat="39.057483" lon="-6.096600">
        <ele>1732.0</ele>
        <time>2019-05-04T12:54:50Z</time>
      </trkpt>
      <trkpt lat="39.057383" lon="-6.096633">
        <ele>1734.0</ele>
        <time>2019-05-04T12:54:51Z</time>
      </trkpt>
      <trkpt lat="39.057267" lon="-6.096633">
        <ele>1736.0</ele>
        <time>2019-05-04T12:54:52Z</time>
      </trkpt>
      <trkpt lat="39.057167" lon="-6.096600">
        <ele>1740.0</ele>
        <time>2019-05-04T12:54:53Z</time>
      </trkpt>
      <trkpt lat="39.057083" lon="-6.096517">
        <ele>1743.0</ele>
        <time>2019-05-04T12:54:54Z</time>
      </trkpt>
      <trkpt lat="39.057017" lon="-6.096433">
        <ele>1747.0</ele>
        <time>2019-05-04T12:54:55Z</time>
      </trkpt>
      <trkpt lat="39.056983" lon="-6.096350">
        <ele>1750.0</ele>
        <time>2019-05-04T12:54:56Z</time>
      </trkpt>
      <trkpt lat="39.056933" lon="-6.096267">
        <ele>1753.0</ele>
        <time>2019-05-04T12:54:57Z</time>
      </trkpt>
      <trkpt lat="39.056917" lon="-6.096167">
        <ele>1755.0</ele>
        <time>2019-05-04T12:54:58Z</time>
      </trkpt>
      <trkpt lat="39.056917" lon="-6.096050">
        <ele>1758.0</ele>
        <time>2019-05-04T12:54:59Z</time>
      </trkpt>
      <trkpt lat="39.056933" lon="-6.095950">
        <ele>1760.0</ele>
        <time>2019-05-04T12:55:00Z</time>
      </trkpt>
      <trkpt lat="39.056983" lon="-6.095883">
        <ele>1762.0</ele>
        <time>2019-05-04T12:55:01Z</time>
      </trkpt>
      <trkpt lat="39.057050" lon="-6.095833">
        <ele>1765.0</ele>
        <time>2019-05-04T12:55:02Z</time>
      </trkpt>
      <trkpt lat="39.057100" lon="-6.095783">
        <ele>1767.0</ele>
        <time>2019-05-04T12:55:03Z</time>
      </trkpt>
      <trkpt lat="39.057167" lon="-6.095750">
        <ele>1770.0</ele>
        <time>2019-05-04T12:55:04Z</time>
      </trkpt>
      <trkpt lat="39.057250" lon="-6.095750">
        <ele>1772.0</ele>
        <time>2019-05-04T12:55:05Z</time>
      </trkpt>
      <trkpt lat="39.057317" lon="-6.095750">
        <ele>1774.0</ele>
        <time>2019-05-04T12:55:06Z</time>
      </trkpt>
      <trkpt lat="39.057400" lon="-6.095817">
        <ele>1776.0</ele>
        <time>2019-05-04T12:55:07Z</time>
      </trkpt>
      <trkpt lat="39.057433" lon="-6.095917">
        <ele>1779.0</ele>
        <time>2019-05-04T12:55:08Z</time>
      </trkpt>
      <trkpt lat="39.057433" lon="-6.096033">
        <ele>1781.0</ele>
        <time>2019-05-04T12:55:09Z</time>
      </trkpt>
      <trkpt lat="39.057417" lon="-6.096150">
        <ele>1784.0</ele>
        <time>2019-05-04T12:55:10Z</time>
      </trkpt>
      <trkpt lat="39.057367" lon="-6.096250">
        <ele>1787.0</ele>
        <time>2019-05-04T12:55:11Z</time>
      </trkpt>
      <trkpt lat="39.057300" lon="-6.096333">
        <ele>1790.0</ele>
        <time>2019-05-04T12:55:12Z</time>
      </trkpt>
      <trkpt lat="39.057217" lon="-6.096400">
        <ele>1793.0</ele>
        <time>2019-05-04T12:55:13Z</time>
      </trkpt>
      <trkpt lat="39.057133" lon="-6.096450">
        <ele>1795.0</ele>
        <time>2019-05-04T12:55:14Z</time>
      </trkpt>
      <trkpt lat="39.057017" lon="-6.096483">
        <ele>1797.0</ele>
        <time>2019-05-04T12:55:15Z</time>
      </trkpt>
      <trkpt lat="39.056917" lon="-6.096483">
        <ele>1799.0</ele>
        <time>2019-05-04T12:55:16Z</time>
      </trkpt>
      <trkpt lat="39.056817" lon="-6.096433">
        <ele>1802.0</ele>
        <time>2019-05-04T12:55:17Z</time>
      </trkpt>
      <trkpt lat="39.056733" lon="-6.096367">
        <ele>1805.0</ele>
        <time>2019-05-04T12:55:18Z</time>
      </trkpt>
      <trkpt lat="39.056667" lon="-6.096267">
        <ele>1808.0</ele>
        <time>2019-05-04T12:55:19Z</time>
      </trkpt>
      <trkpt lat="39.056633" lon="-6.096167">
        <ele>1811.0</ele>
        <time>2019-05-04T12:55:20Z</time>
      </trkpt>
      <trkpt lat="39.056600" lon="-6.096067">
        <ele>1814.0</ele>
        <time>2019-05-04T12:55:21Z</time>
      </trkpt>
      <trkpt lat="39.056600" lon="-6.095967">
        <ele>1816.0</ele>
        <time>2019-05-04T12:55:22Z</time>
      </trkpt>
      <trkpt lat="39.056600" lon="-6.095850">
        <ele>1819.0</ele>
        <time>2019-05-04T12:55:23Z</time>
      </trkpt>
      <trkpt lat="39.056633" lon="-6.095767">
        <ele>1821.0</ele>
        <time>2019-05-04T12:55:24Z</time>
      </trkpt>
      <trkpt lat="39.056667" lon="-6.095700">
        <ele>1823.0</ele>
        <time>2019-05-04T12:55:25Z</time>
      </trkpt>
      <trkpt lat="39.056733" lon="-6.095650">
        <ele>1825.0</ele>
        <time>2019-05-04T12:55:26Z</time>
      </trkpt>
      <trkpt lat="39.056817" lon="-6.095617">
        <ele>1827.0</ele>
        <time>2019-05-04T12:55:27Z</time>
      </trkpt>
      <trkpt lat="39.056883" lon="-6.095617">
        <ele>1831.0</ele>
        <time>2019-05-04T12:55:28Z</time>
      </trkpt>
      <trkpt lat="39.056950" lon="-6.095650">
        <ele>1834.0</ele>
        <time>2019-05-04T12:55:29Z</time>
      </trkpt>
      <trkpt lat="39.057000" lon="-6.095717">
        <ele>1837.0</ele>
        <time>2019-05-04T12:55:30Z</time>
      </trkpt>
      <trkpt lat="39.057033" lon="-6.095783">
        <ele>1840.0</ele>
        <time>2019-05-04T12:55:31Z</time>
      </trkpt>
      <trkpt lat="39.057083" lon="-6.095867">
        <ele>1842.0</ele>
        <time>2019-05-04T12:55:32Z</time>
      </trkpt>
      <trkpt lat="39.057100" lon="-6.095967">
        <ele>1845.0</ele>
        <time>2019-05-04T12:55:33Z</time>
      </trkpt>
      <trkpt lat="39.057117" lon="-6.096067">
        <ele>1847.0</ele>
        <time>2019-05-04T12:55:34Z</time>
      </trkpt>
      <trkpt lat="39.057117" lon="-6.096167">
        <ele>1850.0</ele>
        <time>2019-05-04T12:55:35Z</time>
      </trkpt>
      <trkpt lat="39.057083" lon="-6.096283">
        <ele>1852.0</ele>
        <time>2019-05-04T12:55:36Z</time>
      </trkpt>
      <trkpt lat="39.057033" lon="-6.096383">
        <ele>1854.0</ele>
        <time>2019-05-04T12:55:37Z</time>
      </trkpt>
      <trkpt lat="39.056967" lon="-6.096500">
        <ele>1857.0</ele>
        <time>2019-05-04T12:55:38Z</time>
      </trkpt>
      <trkpt lat="39.056900" lon="-6.096583">
        <ele>1859.0</ele>
        <time>2019-05-04T12:55:39Z</time>
      </trkpt>
      <trkpt lat="39.056817" lon="-6.096667">
        <ele>1862.0</ele>
        <time>2019-05-04T12:55:40Z</time>
      </trkpt>
      <trkpt lat="39.056733" lon="-6.096717">
        <ele>1864.0</ele>
        <time>2019-05-04T12:55:41Z</time>
      </trkpt>
      <trkpt lat="39.056617" lon="-6.096733">
        <ele>1866.0</ele>
        <time>2019-05-04T12:55:42Z</time>
      </trkpt>
      <trkpt lat="39.056517" lon="-6.096733">
        <ele>1868.0</ele>
        <time>2019-05-04T12:55:43Z</time>
      </trkpt>
      <trkpt lat="39.056400" lon="-6.096700">
        <ele>1871.0</ele>
        <time>2019-05-04T12:55:44Z</time>
      </trkpt>
      <trkpt lat="39.056300" lon="-6.096667">
        <ele>1874.0</ele>
        <time>2019-05-04T12:55:45Z</time>
      </trkpt>
      <trkpt lat="39.056217" lon="-6.096600">
        <ele>1876.0</ele>
        <time>2019-05-04T12:55:46Z</time>
      </trkpt>
      <trkpt lat="39.056150" lon="-6.096500">
        <ele>1878.0</ele>
        <time>2019-05-04T12:55:47Z</time>
      </trkpt>
      <trkpt lat="39.056100" lon="-6.096400">
        <ele>1880.0</ele>
        <time>2019-05-04T12:55:48Z</time>
      </trkpt>
      <trkpt lat="39.056067" lon="-6.096283">
        <ele>1881.0</ele>
        <time>2019-05-04T12:55:49Z</time>
      </trkpt>
      <trkpt lat="39.056067" lon="-6.096167">
        <ele>1883.0</ele>
        <time>2019-05-04T12:55:50Z</time>
      </trkpt>
      <trkpt lat="39.056083" lon="-6.096083">
        <ele>1885.0</ele>
        <time>2019-05-04T12:55:51Z</time>
      </trkpt>
      <trkpt lat="39.056117" lon="-6.096000">
        <ele>1887.0</ele>
        <time>2019-05-04T12:55:52Z</time>
      </trkpt>
      <trkpt lat="39.056167" lon="-6.095933">
        <ele>1889.0</ele>
        <time>2019-05-04T12:55:53Z</time>
      </trkpt>
      <trkpt lat="39.056217" lon="-6.095900">
        <ele>1890.0</ele>
        <time>2019-05-04T12:55:54Z</time>
      </trkpt>
      <trkpt lat="39.056283" lon="-6.095883">
        <ele>1892.0</ele>
        <time>2019-05-04T12:55:55Z</time>
      </trkpt>
      <trkpt lat="39.056350" lon="-6.095900">
        <ele>1894.0</ele>
        <time>2019-05-04T12:55:56Z</time>
      </trkpt>
      <trkpt lat="39.056400" lon="-6.095950">
        <ele>1896.0</ele>
        <time>2019-05-04T12:55:57Z</time>
      </trkpt>
      <trkpt lat="39.056450" lon="-6.096017">
        <ele>1898.0</ele>
        <time>2019-05-04T12:55:58Z</time>
      </trkpt>
      <trkpt lat="39.056467" lon="-6.096117">
        <ele>1900.0</ele>
        <time>2019-05-04T12:55:59Z</time>
      </trkpt>
      <trkpt lat="39.056483" lon="-6.096217">
        <ele>1901.0</ele>
        <time>2019-05-04T12:56:00Z</time>
      </trkpt>
      <trkpt lat="39.056467" lon="-6.096333">
        <ele>1902.0</ele>
        <time>2019-05-04T12:56:01Z</time>
      </trkpt>
      <trkpt lat="39.056433" lon="-6.096467">
        <ele>1903.0</ele>
        <time>2019-05-04T12:56:02Z</time>
      </trkpt>
      <trkpt lat="39.056367" lon="-6.096583">
        <ele>1905.0</ele>
        <time>2019-05-04T12:56:03Z</time>
      </trkpt>
      <trkpt lat="39.056283" lon="-6.096667">
        <ele>1906.0</ele>
        <time>2019-05-04T12:56:04Z</time>
      </trkpt>
      <trkpt lat="39.056183" lon="-6.096717">
        <ele>1908.0</ele>
        <time>2019-05-04T12:56:05Z</time>
      </trkpt>
      <trkpt lat="39.056067" lon="-6.096750">
        <ele>1909.0</ele>
        <time>2019-05-04T12:56:06Z</time>
      </trkpt>
      <trkpt lat="39.055967" lon="-6.096767">
        <ele>1912.0</ele>
        <time>2019-05-04T12:56:07Z</time>
      </trkpt>
      <trkpt lat="39.055850" lon="-6.096767">
        <ele>1914.0</ele>
        <time>2019-05-04T12:56:08Z</time>
      </trkpt>
      <trkpt lat="39.055733" lon="-6.096733">
        <ele>1916.0</ele>
        <time>2019-05-04T12:56:09Z</time>
      </trkpt>
      <trkpt lat="39.055633" lon="-6.096683">
        <ele>1917.0</ele>
        <time>2019-05-04T12:56:10Z</time>
      </trkpt>
      <trkpt lat="39.055517" lon="-6.096617">
        <ele>1919.0</ele>
        <time>2019-05-04T12:56:11Z</time>
      </trkpt>
      <trkpt lat="39.055433" lon="-6.096533">
        <ele>1921.0</ele>
        <time>2019-05-04T12:56:12Z</time>
      </trkpt>
      <trkpt lat="39.055383" lon="-6.096433">
        <ele>1923.0</ele>
        <time>2019-05-04T12:56:13Z</time>
      </trkpt>
      <trkpt lat="39.055367" lon="-6.096317">
        <ele>1925.0</ele>
        <time>2019-05-04T12:56:14Z</time>
      </trkpt>
      <trkpt lat="39.055383" lon="-6.096233">
        <ele>1926.0</ele>
        <time>2019-05-04T12:56:15Z</time>
      </trkpt>
      <trkpt lat="39.055400" lon="-6.096133">
        <ele>1928.0</ele>
        <time>2019-05-04T12:56:16Z</time>
      </trkpt>
      <trkpt lat="39.055433" lon="-6.096067">
        <ele>1929.0</ele>
        <time>2019-05-04T12:56:17Z</time>
      </trkpt>
      <trkpt lat="39.055467" lon="-6.096000">
        <ele>1931.0</ele>
        <time>2019-05-04T12:56:18Z</time>
      </trkpt>
      <trkpt lat="39.055533" lon="-6.095967">
        <ele>1931.0</ele>
        <time>2019-05-04T12:56:19Z</time>
      </trkpt>
      <trkpt lat="39.055600" lon="-6.095983">
        <ele>1931.0</ele>
        <time>2019-05-04T12:56:20Z</time>
      </trkpt>
      <trkpt lat="39.055667" lon="-6.096017">
        <ele>1933.0</ele>
        <time>2019-05-04T12:56:21Z</time>
      </trkpt>
      <trkpt lat="39.055733" lon="-6.096083">
        <ele>1934.0</ele>
        <time>2019-05-04T12:56:22Z</time>
      </trkpt>
      <trkpt lat="39.055750" lon="-6.096150">
        <ele>1936.0</ele>
        <time>2019-05-04T12:56:23Z</time>
      </trkpt>
      <trkpt lat="39.055767" lon="-6.096250">
        <ele>1938.0</ele>
        <time>2019-05-04T12:56:24Z</time>
      </trkpt>
      <trkpt lat="39.055767" lon="-6.096333">
        <ele>1939.0</ele>
        <time>2019-05-04T12:56:25Z</time>
      </trkpt>
      <trkpt lat="39.055767" lon="-6.096450">
        <ele>1940.0</ele>
        <time>2019-05-04T12:56:26Z</time>
      </trkpt>
      <trkpt lat="39.055733" lon="-6.096583">
        <ele>1940.0</ele>
        <time>2019-05-04T12:56:27Z</time>
      </trkpt>
      <trkpt lat="39.055683" lon="-6.096700">
        <ele>1940.0</ele>
        <time>2019-05-04T12:56:28Z</time>
      </trkpt>
      <trkpt lat="39.055617" lon="-6.096800">
        <ele>1940.0</ele>
        <time>2019-05-04T12:56:29Z</time>
      </trkpt>
      <trkpt lat="39.055533" lon="-6.096867">
        <ele>1941.0</ele>
        <time>2019-05-04T12:56:30Z</time>
      </trkpt>
      <trkpt lat="39.055433" lon="-6.096917">
        <ele>1942.0</ele>
        <time>2019-05-04T12:56:31Z</time>
      </trkpt>
      <trkpt lat="39.055333" lon="-6.096950">
        <ele>1943.0</ele>
        <time>2019-05-04T12:56:32Z</time>
      </trkpt>
      <trkpt lat="39.055217" lon="-6.096967">
        <ele>1944.0</ele>
        <time>2019-05-04T12:56:33Z</time>
      </trkpt>
      <trkpt lat="39.055117" lon="-6.097000">
        <ele>1944.0</ele>
        <time>2019-05-04T12:56:34Z</time>
      </trkpt>
      <trkpt lat="39.055000" lon="-6.097000">
        <ele>1944.0</ele>
        <time>2019-05-04T12:56:35Z</time>
      </trkpt>
      <trkpt lat="39.054883" lon="-6.096967">
        <ele>1944.0</ele>
        <time>2019-05-04T12:56:36Z</time>
      </trkpt>
      <trkpt lat="39.054767" lon="-6.096900">
        <ele>1944.0</ele>
        <time>2019-05-04T12:56:37Z</time>
      </trkpt>
      <trkpt lat="39.054683" lon="-6.096817">
        <ele>1944.0</ele>
        <time>2019-05-04T12:56:38Z</time>
      </trkpt>
      <trkpt lat="39.054600" lon="-6.096717">
        <ele>1945.0</ele>
        <time>2019-05-04T12:56:39Z</time>
      </trkpt>
      <trkpt lat="39.054533" lon="-6.096617">
        <ele>1947.0</ele>
        <time>2019-05-04T12:56:40Z</time>
      </trkpt>
      <trkpt lat="39.054467" lon="-6.096533">
        <ele>1949.0</ele>
        <time>2019-05-04T12:56:41Z</time>
      </trkpt>
      <trkpt lat="39.054400" lon="-6.096450">
        <ele>1950.0</ele>
        <time>2019-05-04T12:56:42Z</time>
      </trkpt>
      <trkpt lat="39.054333" lon="-6.096367">
        <ele>1950.0</ele>
        <time>2019-05-04T12:56:43Z</time>
      </trkpt>
      <trkpt lat="39.054300" lon="-6.096250">
        <ele>1951.0</ele>
        <time>2019-05-04T12:56:44Z</time>
      </trkpt>
      <trkpt lat="39.054300" lon="-6.096150">
        <ele>1950.0</ele>
        <time>2019-05-04T12:56:45Z</time>
      </trkpt>
      <trkpt lat="39.054317" lon="-6.096050">
        <ele>1949.0</ele>
        <time>2019-05-04T12:56:46Z</time>
      </trkpt>
      <trkpt lat="39.054367" lon="-6.095983">
        <ele>1949.0</ele>
        <time>2019-05-04T12:56:47Z</time>
      </trkpt>
      <trkpt lat="39.054400" lon="-6.095950">
        <ele>1950.0</ele>
        <time>2019-05-04T12:56:48Z</time>
      </trkpt>
      <trkpt lat="39.054433" lon="-6.095917">
        <ele>1954.0</ele>
        <time>2019-05-04T12:56:49Z</time>
      </trkpt>
      <trkpt lat="39.054467" lon="-6.095900">
        <ele>1958.0</ele>
        <time>2019-05-04T12:56:50Z</time>
      </trkpt>
      <trkpt lat="39.054500" lon="-6.095883">
        <ele>1959.0</ele>
        <time>2019-05-04T12:56:51Z</time>
      </trkpt>
      <trkpt lat="39.054550" lon="-6.095867">
        <ele>1959.0</ele>
        <time>2019-05-04T12:56:52Z</time>
      </trkpt>
      <trkpt lat="39.054600" lon="-6.095833">
        <ele>1960.0</ele>
        <time>2019-05-04T12:56:53Z</time>
      </trkpt>
      <trkpt lat="39.054633" lon="-6.095783">
        <ele>1961.0</ele>
        <time>2019-05-04T12:56:54Z</time>
      </trkpt>
      <trkpt lat="39.054667" lon="-6.095700">
        <ele>1962.0</ele>
        <time>2019-05-04T12:56:55Z</time>
      </trkpt>
      <trkpt lat="39.054667" lon="-6.095617">
        <ele>1962.0</ele>
        <time>2019-05-04T12:56:56Z</time>
      </trkpt>
      <trkpt lat="39.054667" lon="-6.095533">
        <ele>1963.0</ele>
        <time>2019-05-04T12:56:57Z</time>
      </trkpt>
      <trkpt lat="39.054650" lon="-6.095450">
        <ele>1964.0</ele>
        <time>2019-05-04T12:56:58Z</time>
      </trkpt>
      <trkpt lat="39.054633" lon="-6.095350">
        <ele>1964.0</ele>
        <time>2019-05-04T12:56:59Z</time>
      </trkpt>
      <trkpt lat="39.054583" lon="-6.095250">
        <ele>1964.0</ele>
        <time>2019-05-04T12:57:00Z</time>
      </trkpt>
      <trkpt lat="39.054517" lon="-6.095150">
        <ele>1964.0</ele>
        <time>2019-05-04T12:57:01Z</time>
      </trkpt>
      <trkpt lat="39.054433" lon="-6.095067">
        <ele>1964.0</ele>
        <time>2019-05-04T12:57:02Z</time>
      </trkpt>
      <trkpt lat="39.054333" lon="-6.095017">
        <ele>1963.0</ele>
        <time>2019-05-04T12:57:03Z</time>
      </trkpt>
      <trkpt lat="39.054233" lon="-6.095000">
        <ele>1963.0</ele>
        <time>2019-05-04T12:57:04Z</time>
      </trkpt>
      <trkpt lat="39.054117" lon="-6.095000">
        <ele>1964.0</ele>
        <time>2019-05-04T12:57:05Z</time>
      </trkpt>
      <trkpt lat="39.054000" lon="-6.095017">
        <ele>1964.0</ele>
        <time>2019-05-04T12:57:06Z</time>
      </trkpt>
      <trkpt lat="39.053883" lon="-6.095067">
        <ele>1963.0</ele>
        <time>2019-05-04T12:57:07Z</time>
      </trkpt>
      <trkpt lat="39.053783" lon="-6.095117">
        <ele>1963.0</ele>
        <time>2019-05-04T12:57:08Z</time>
      </trkpt>
      <trkpt lat="39.053683" lon="-6.095200">
        <ele>1963.0</ele>
        <time>2019-05-04T12:57:09Z</time>
      </trkpt>
      <trkpt lat="39.053600" lon="-6.095283">
        <ele>1963.0</ele>
        <time>2019-05-04T12:57:10Z</time>
      </trkpt>
      <trkpt lat="39.053517" lon="-6.095383">
        <ele>1964.0</ele>
        <time>2019-05-04T12:57:11Z</time>
      </trkpt>
      <trkpt lat="39.053433" lon="-6.095483">
        <ele>1965.0</ele>
        <time>2019-05-04T12:57:12Z</time>
      </trkpt>
      <trkpt lat="39.053367" lon="-6.095583">
        <ele>1966.0</ele>
        <time>2019-05-04T12:57:13Z</time>
      </trkpt>
      <trkpt lat="39.053300" lon="-6.095683">
        <ele>1967.0</ele>
        <time>2019-05-04T12:57:14Z</time>
      </trkpt>
      <trkpt lat="39.053233" lon="-6.095783">
        <ele>1967.0</ele>
        <time>2019-05-04T12:57:15Z</time>
      </trkpt>
      <trkpt lat="39.053183" lon="-6.095900">
        <ele>1968.0</ele>
        <time>2019-05-04T12:57:16Z</time>
      </trkpt>
      <trkpt lat="39.053167" lon="-6.096033">
        <ele>1968.0</ele>
        <time>2019-05-04T12:57:17Z</time>
      </trkpt>
      <trkpt lat="39.053167" lon="-6.096150">
        <ele>1966.0</ele>
        <time>2019-05-04T12:57:18Z</time>
      </trkpt>
      <trkpt lat="39.053183" lon="-6.096250">
        <ele>1966.0</ele>
        <time>2019-05-04T12:57:19Z</time>
      </trkpt>
      <trkpt lat="39.053200" lon="-6.096333">
        <ele>1965.0</ele>
        <time>2019-05-04T12:57:20Z</time>
      </trkpt>
      <trkpt lat="39.053233" lon="-6.096400">
        <ele>1965.0</ele>
        <time>2019-05-04T12:57:21Z</time>
      </trkpt>
      <trkpt lat="39.053283" lon="-6.096450">
        <ele>1964.0</ele>
        <time>2019-05-04T12:57:22Z</time>
      </trkpt>
      <trkpt lat="39.053333" lon="-6.096483">
        <ele>1963.0</ele>
        <time>2019-05-04T12:57:23Z</time>
      </trkpt>
      <trkpt lat="39.053383" lon="-6.096500">
        <ele>1962.0</ele>
        <time>2019-05-04T12:57:24Z</time>
      </trkpt>
      <trkpt lat="39.053450" lon="-6.096500">
        <ele>1961.0</ele>
        <time>2019-05-04T12:57:25Z</time>
      </trkpt>
      <trkpt lat="39.053500" lon="-6.096467">
        <ele>1961.0</ele>
        <time>2019-05-04T12:57:26Z</time>
      </trkpt>
      <trkpt lat="39.053550" lon="-6.096433">
        <ele>1962.0</ele>
        <time>2019-05-04T12:57:27Z</time>
      </trkpt>
      <trkpt lat="39.053567" lon="-6.096400">
        <ele>1963.0</ele>
        <time>2019-05-04T12:57:28Z</time>
      </trkpt>
      <trkpt lat="39.053600" lon="-6.096367">
        <ele>1964.0</ele>
        <time>2019-05-04T12:57:29Z</time>
      </trkpt>
      <trkpt lat="39.053617" lon="-6.096317">
        <ele>1965.0</ele>
        <time>2019-05-04T12:57:30Z</time>
      </trkpt>
      <trkpt lat="39.053650" lon="-6.096267">
        <ele>1964.0</ele>
        <time>2019-05-04T12:57:31Z</time>
      </trkpt>
      <trkpt lat="39.053667" lon="-6.096200">
        <ele>1964.0</ele>
        <time>2019-05-04T12:57:32Z</time>
      </trkpt>
      <trkpt lat="39.053700" lon="-6.096133">
        <ele>1963.0</ele>
        <time>2019-05-04T12:57:33Z</time>
      </trkpt>
      <trkpt lat="39.053700" lon="-6.096050">
        <ele>1963.0</ele>
        <time>2019-05-04T12:57:34Z</time>
      </trkpt>
      <trkpt lat="39.053683" lon="-6.095950">
        <ele>1963.0</ele>
        <time>2019-05-04T12:57:35Z</time>
      </trkpt>
      <trkpt lat="39.053667" lon="-6.095850">
        <ele>1963.0</ele>
        <time>2019-05-04T12:57:36Z</time>
      </trkpt>
      <trkpt lat="39.053617" lon="-6.095750">
        <ele>1963.0</ele>
        <time>2019-05-04T12:57:37Z</time>
      </trkpt>
      <trkpt lat="39.053567" lon="-6.095650">
        <ele>1963.0</ele>
        <time>2019-05-04T12:57:38Z</time>
      </trkpt>
      <trkpt lat="39.053483" lon="-6.095567">
        <ele>1963.0</ele>
        <time>2019-05-04T12:57:39Z</time>
      </trkpt>
      <trkpt lat="39.053383" lon="-6.095500">
        <ele>1964.0</ele>
        <time>2019-05-04T12:57:40Z</time>
      </trkpt>
      <trkpt lat="39.053283" lon="-6.095450">
        <ele>1964.0</ele>
        <time>2019-05-04T12:57:41Z</time>
      </trkpt>
      <trkpt lat="39.053183" lon="-6.095400">
        <ele>1965.0</ele>
        <time>2019-05-04T12:57:42Z</time>
      </trkpt>
      <trkpt lat="39.053083" lon="-6.095367">
        <ele>1965.0</ele>
        <time>2019-05-04T12:57:43Z</time>
      </trkpt>
      <trkpt lat="39.052967" lon="-6.095350">
        <ele>1965.0</ele>
        <time>2019-05-04T12:57:44Z</time>
      </trkpt>
      <trkpt lat="39.052833" lon="-6.095350">
        <ele>1965.0</ele>
        <time>2019-05-04T12:57:45Z</time>
      </trkpt>
      <trkpt lat="39.052717" lon="-6.095367">
        <ele>1965.0</ele>
        <time>2019-05-04T12:57:46Z</time>
      </trkpt>
      <trkpt lat="39.052600" lon="-6.095400">
        <ele>1965.0</ele>
        <time>2019-05-04T12:57:47Z</time>
      </trkpt>
      <trkpt lat="39.052500" lon="-6.095467">
        <ele>1964.0</ele>
        <time>2019-05-04T12:57:48Z</time>
      </trkpt>
      <trkpt lat="39.052400" lon="-6.095533">
        <ele>1964.0</ele>
        <time>2019-05-04T12:57:49Z</time>
      </trkpt>
      <trkpt lat="39.052300" lon="-6.095617">
        <ele>1964.0</ele>
        <time>2019-05-04T12:57:50Z</time>
      </trkpt>
      <trkpt lat="39.052217" lon="-6.095717">
        <ele>1964.0</ele>
        <time>2019-05-04T12:57:51Z</time>
      </trkpt>
      <trkpt lat="39.052167" lon="-6.095833">
        <ele>1964.0</ele>
        <time>2019-05-04T12:57:52Z</time>
      </trkpt>
      <trkpt lat="39.052133" lon="-6.095933">
        <ele>1965.0</ele>
        <time>2019-05-04T12:57:53Z</time>
      </trkpt>
      <trkpt lat="39.052100" lon="-6.096033">
        <ele>1965.0</ele>
        <time>2019-05-04T12:57:54Z</time>
      </trkpt>
      <trkpt lat="39.052100" lon="-6.096133">
        <ele>1965.0</ele>
        <time>2019-05-04T12:57:55Z</time>
      </trkpt>
      <trkpt lat="39.052100" lon="-6.096233">
        <ele>1965.0</ele>
        <time>2019-05-04T12:57:56Z</time>
      </trkpt>
      <trkpt lat="39.052117" lon="-6.096317">
        <ele>1964.0</ele>
        <time>2019-05-04T12:57:57Z</time>
      </trkpt>
      <trkpt lat="39.052150" lon="-6.096417">
        <ele>1962.0</ele>
        <time>2019-05-04T12:57:58Z</time>
      </trkpt>
      <trkpt lat="39.052183" lon="-6.096500">
        <ele>1962.0</ele>
        <time>2019-05-04T12:57:59Z</time>
      </trkpt>
      <trkpt lat="39.052217" lon="-6.096583">
        <ele>1963.0</ele>
        <time>2019-05-04T12:58:00Z</time>
      </trkpt>
      <trkpt lat="39.052233" lon="-6.096650">
        <ele>1964.0</ele>
        <time>2019-05-04T12:58:01Z</time>
      </trkpt>
      <trkpt lat="39.052250" lon="-6.096717">
        <ele>1964.0</ele>
        <time>2019-05-04T12:58:02Z</time>
      </trkpt>
      <trkpt lat="39.052283" lon="-6.096767">
        <ele>1963.0</ele>
        <time>2019-05-04T12:58:03Z</time>
      </trkpt>
      <trkpt lat="39.052333" lon="-6.096833">
        <ele>1962.0</ele>
        <time>2019-05-04T12:58:04Z</time>
      </trkpt>
      <trkpt lat="39.052367" lon="-6.096883">
        <ele>1961.0</ele>
        <time>2019-05-04T12:58:05Z</time>
      </trkpt>
      <trkpt lat="39.052417" lon="-6.096917">
        <ele>1960.0</ele>
        <time>2019-05-04T12:58:06Z</time>
      </trkpt>
      <trkpt lat="39.052450" lon="-6.096933">
        <ele>1960.0</ele>
        <time>2019-05-04T12:58:07Z</time>
      </trkpt>
      <trkpt lat="39.052500" lon="-6.096950">
        <ele>1959.0</ele>
        <time>2019-05-04T12:58:08Z</time>
      </trkpt>
      <trkpt lat="39.052550" lon="-6.096933">
        <ele>1958.0</ele>
        <time>2019-05-04T12:58:09Z</time>
      </trkpt>
      <trkpt lat="39.052600" lon="-6.096917">
        <ele>1957.0</ele>
        <time>2019-05-04T12:58:10Z</time>
      </trkpt>
      <trkpt lat="39.052650" lon="-6.096883">
        <ele>1955.0</ele>
        <time>2019-05-04T12:58:11Z</time>
      </trkpt>
      <trkpt lat="39.052683" lon="-6.096833">
        <ele>1955.0</ele>
        <time>2019-05-04T12:58:12Z</time>
      </trkpt>
      <trkpt lat="39.052700" lon="-6.096767">
        <ele>1954.0</ele>
        <time>2019-05-04T12:58:13Z</time>
      </trkpt>
      <trkpt lat="39.052717" lon="-6.096683">
        <ele>1953.0</ele>
        <time>2019-05-04T12:58:14Z</time>
      </trkpt>
      <trkpt lat="39.052700" lon="-6.096583">
        <ele>1952.0</ele>
        <time>2019-05-04T12:58:15Z</time>
      </trkpt>
      <trkpt lat="39.052667" lon="-6.096483">
        <ele>1951.0</ele>
        <time>2019-05-04T12:58:16Z</time>
      </trkpt>
      <trkpt lat="39.052633" lon="-6.096383">
        <ele>1950.0</ele>
        <time>2019-05-04T12:58:17Z</time>
      </trkpt>
      <trkpt lat="39.052567" lon="-6.096300">
        <ele>1950.0</ele>
        <time>2019-05-04T12:58:18Z</time>
      </trkpt>
      <trkpt lat="39.052467" lon="-6.096217">
        <ele>1949.0</ele>
        <time>2019-05-04T12:58:19Z</time>
      </trkpt>
      <trkpt lat="39.052367" lon="-6.096133">
        <ele>1947.0</ele>
        <time>2019-05-04T12:58:20Z</time>
      </trkpt>
      <trkpt lat="39.052267" lon="-6.096067">
        <ele>1946.0</ele>
        <time>2019-05-04T12:58:21Z</time>
      </trkpt>
      <trkpt lat="39.052150" lon="-6.096000">
        <ele>1945.0</ele>
        <time>2019-05-04T12:58:22Z</time>
      </trkpt>
      <trkpt lat="39.052033" lon="-6.095933">
        <ele>1944.0</ele>
        <time>2019-05-04T12:58:23Z</time>
      </trkpt>
      <trkpt lat="39.051900" lon="-6.095867">
        <ele>1944.0</ele>
        <time>2019-05-04T12:58:24Z</time>
      </trkpt>
      <trkpt lat="39.051783" lon="-6.095817">
        <ele>1944.0</ele>
        <time>2019-05-04T12:58:25Z</time>
      </trkpt>
      <trkpt lat="39.051667" lon="-6.095767">
        <ele>1944.0</ele>
        <time>2019-05-04T12:58:26Z</time>
      </trkpt>
      <trkpt lat="39.051550" lon="-6.095733">
        <ele>1943.0</ele>
        <time>2019-05-04T12:58:27Z</time>
      </trkpt>
      <trkpt lat="39.051417" lon="-6.095700">
        <ele>1942.0</ele>
        <time>2019-05-04T12:58:28Z</time>
      </trkpt>
      <trkpt lat="39.051283" lon="-6.095667">
        <ele>1941.0</ele>
        <time>2019-05-04T12:58:29Z</time>
      </trkpt>
      <trkpt lat="39.051167" lon="-6.095650">
        <ele>1940.0</ele>
        <time>2019-05-04T12:58:30Z</time>
      </trkpt>
      <trkpt lat="39.051033" lon="-6.095617">
        <ele>1940.0</ele>
        <time>2019-05-04T12:58:31Z</time>
      </trkpt>
      <trkpt lat="39.050933" lon="-6.095600">
        <ele>1941.0</ele>
        <time>2019-05-04T12:58:32Z</time>
      </trkpt>
      <trkpt lat="39.050817" lon="-6.095567">
        <ele>1941.0</ele>
        <time>2019-05-04T12:58:33Z</time>
      </trkpt>
      <trkpt lat="39.050700" lon="-6.095550">
        <ele>1940.0</ele>
        <time>2019-05-04T12:58:34Z</time>
      </trkpt>
      <trkpt lat="39.050583" lon="-6.095533">
        <ele>1940.0</ele>
        <time>2019-05-04T12:58:35Z</time>
      </trkpt>
      <trkpt lat="39.050467" lon="-6.095517">
        <ele>1939.0</ele>
        <time>2019-05-04T12:58:36Z</time>
      </trkpt>
      <trkpt lat="39.050350" lon="-6.095500">
        <ele>1939.0</ele>
        <time>2019-05-04T12:58:37Z</time>
      </trkpt>
      <trkpt lat="39.050233" lon="-6.095467">
        <ele>1939.0</ele>
        <time>2019-05-04T12:58:38Z</time>
      </trkpt>
      <trkpt lat="39.050133" lon="-6.095450">
        <ele>1938.0</ele>
        <time>2019-05-04T12:58:39Z</time>
      </trkpt>
      <trkpt lat="39.050017" lon="-6.095433">
        <ele>1937.0</ele>
        <time>2019-05-04T12:58:40Z</time>
      </trkpt>
      <trkpt lat="39.049883" lon="-6.095433">
        <ele>1936.0</ele>
        <time>2019-05-04T12:58:41Z</time>
      </trkpt>
      <trkpt lat="39.049767" lon="-6.095417">
        <ele>1935.0</ele>
        <time>2019-05-04T12:58:42Z</time>
      </trkpt>
      <trkpt lat="39.049633" lon="-6.095400">
        <ele>1934.0</ele>
        <time>2019-05-04T12:58:43Z</time>
      </trkpt>
      <trkpt lat="39.049500" lon="-6.095383">
        <ele>1933.0</ele>
        <time>2019-05-04T12:58:44Z</time>
      </trkpt>
      <trkpt lat="39.049383" lon="-6.095350">
        <ele>1932.0</ele>
        <time>2019-05-04T12:58:45Z</time>
      </trkpt>
      <trkpt lat="39.049267" lon="-6.095317">
        <ele>1930.0</ele>
        <time>2019-05-04T12:58:46Z</time>
      </trkpt>
      <trkpt lat="39.049150" lon="-6.095283">
        <ele>1928.0</ele>
        <time>2019-05-04T12:58:47Z</time>
      </trkpt>
      <trkpt lat="39.049017" lon="-6.095250">
        <ele>1925.0</ele>
        <time>2019-05-04T12:58:48Z</time>
      </trkpt>
      <trkpt lat="39.048900" lon="-6.095217">
        <ele>1923.0</ele>
        <time>2019-05-04T12:58:49Z</time>
      </trkpt>
      <trkpt lat="39.048783" lon="-6.095183">
        <ele>1923.0</ele>
        <time>2019-05-04T12:58:50Z</time>
      </trkpt>
      <trkpt lat="39.048683" lon="-6.095150">
        <ele>1924.0</ele>
        <time>2019-05-04T12:58:51Z</time>
      </trkpt>
      <trkpt lat="39.048583" lon="-6.095133">
        <ele>1924.0</ele>
        <time>2019-05-04T12:58:52Z</time>
      </trkpt>
      <trkpt lat="39.048483" lon="-6.095100">
        <ele>1923.0</ele>
        <time>2019-05-04T12:58:53Z</time>
      </trkpt>
      <trkpt lat="39.048383" lon="-6.095083">
        <ele>1922.0</ele>
        <time>2019-05-04T12:58:54Z</time>
      </trkpt>
      <trkpt lat="39.048250" lon="-6.095067">
        <ele>1921.0</ele>
        <time>2019-05-04T12:58:55Z</time>
      </trkpt>
      <trkpt lat="39.048133" lon="-6.095050">
        <ele>1920.0</ele>
        <time>2019-05-04T12:58:56Z</time>
      </trkpt>
      <trkpt lat="39.048017" lon="-6.095033">
        <ele>1921.0</ele>
        <time>2019-05-04T12:58:57Z</time>
      </trkpt>
      <trkpt lat="39.047900" lon="-6.095017">
        <ele>1923.0</ele>
        <time>2019-05-04T12:58:58Z</time>
      </trkpt>
      <trkpt lat="39.047817" lon="-6.095000">
        <ele>1925.0</ele>
        <time>2019-05-04T12:58:59Z</time>
      </trkpt>
      <trkpt lat="39.047717" lon="-6.094983">
        <ele>1926.0</ele>
        <time>2019-05-04T12:59:00Z</time>
      </trkpt>
      <trkpt lat="39.047617" lon="-6.094967">
        <ele>1927.0</ele>
        <time>2019-05-04T12:59:01Z</time>
      </trkpt>
      <trkpt lat="39.047533" lon="-6.094933">
        <ele>1927.0</ele>
        <time>2019-05-04T12:59:02Z</time>
      </trkpt>
      <trkpt lat="39.047450" lon="-6.094883">
        <ele>1926.0</ele>
        <time>2019-05-04T12:59:03Z</time>
      </trkpt>
      <trkpt lat="39.047400" lon="-6.094800">
        <ele>1925.0</ele>
        <time>2019-05-04T12:59:04Z</time>
      </trkpt>
      <trkpt lat="39.047367" lon="-6.094700">
        <ele>1923.0</ele>
        <time>2019-05-04T12:59:05Z</time>
      </trkpt>
      <trkpt lat="39.047333" lon="-6.094583">
        <ele>1922.0</ele>
        <time>2019-05-04T12:59:06Z</time>
      </trkpt>
      <trkpt lat="39.047350" lon="-6.094500">
        <ele>1922.0</ele>
        <time>2019-05-04T12:59:07Z</time>
      </trkpt>
      <trkpt lat="39.047383" lon="-6.094417">
        <ele>1923.0</ele>
        <time>2019-05-04T12:59:08Z</time>
      </trkpt>
      <trkpt lat="39.047433" lon="-6.094383">
        <ele>1923.0</ele>
        <time>2019-05-04T12:59:09Z</time>
      </trkpt>
      <trkpt lat="39.047483" lon="-6.094383">
        <ele>1922.0</ele>
        <time>2019-05-04T12:59:10Z</time>
      </trkpt>
      <trkpt lat="39.047567" lon="-6.094383">
        <ele>1921.0</ele>
        <time>2019-05-04T12:59:11Z</time>
      </trkpt>
      <trkpt lat="39.047633" lon="-6.094400">
        <ele>1920.0</ele>
        <time>2019-05-04T12:59:12Z</time>
      </trkpt>
      <trkpt lat="39.047700" lon="-6.094467">
        <ele>1920.0</ele>
        <time>2019-05-04T12:59:13Z</time>
      </trkpt>
      <trkpt lat="39.047750" lon="-6.094550">
        <ele>1920.0</ele>
        <time>2019-05-04T12:59:14Z</time>
      </trkpt>
      <trkpt lat="39.047783" lon="-6.094633">
        <ele>1920.0</ele>
        <time>2019-05-04T12:59:15Z</time>
      </trkpt>
      <trkpt lat="39.047800" lon="-6.094733">
        <ele>1920.0</ele>
        <time>2019-05-04T12:59:16Z</time>
      </trkpt>
      <trkpt lat="39.047800" lon="-6.094833">
        <ele>1921.0</ele>
        <time>2019-05-04T12:59:17Z</time>
      </trkpt>
      <trkpt lat="39.047817" lon="-6.094917">
        <ele>1922.0</ele>
        <time>2019-05-04T12:59:18Z</time>
      </trkpt>
      <trkpt lat="39.047817" lon="-6.095017">
        <ele>1923.0</ele>
        <time>2019-05-04T12:59:19Z</time>
      </trkpt>
      <trkpt lat="39.047800" lon="-6.095100">
        <ele>1922.0</ele>
        <time>2019-05-04T12:59:20Z</time>
      </trkpt>
      <trkpt lat="39.047783" lon="-6.095217">
        <ele>1920.0</ele>
        <time>2019-05-04T12:59:21Z</time>
      </trkpt>
      <trkpt lat="39.047750" lon="-6.095333">
        <ele>1918.0</ele>
        <time>2019-05-04T12:59:22Z</time>
      </trkpt>
      <trkpt lat="39.047717" lon="-6.095450">
        <ele>1917.0</ele>
        <time>2019-05-04T12:59:23Z</time>
      </trkpt>
      <trkpt lat="39.047667" lon="-6.095567">
        <ele>1915.0</ele>
        <time>2019-05-04T12:59:24Z</time>
      </trkpt>
      <trkpt lat="39.047567" lon="-6.095667">
        <ele>1914.0</ele>
        <time>2019-05-04T12:59:25Z</time>
      </trkpt>
      <trkpt lat="39.047467" lon="-6.095750">
        <ele>1913.0</ele>
        <time>2019-05-04T12:59:26Z</time>
      </trkpt>
      <trkpt lat="39.047367" lon="-6.095817">
        <ele>1912.0</ele>
        <time>2019-05-04T12:59:27Z</time>
      </trkpt>
      <trkpt lat="39.047283" lon="-6.095883">
        <ele>1911.0</ele>
        <time>2019-05-04T12:59:28Z</time>
      </trkpt>
      <trkpt lat="39.047183" lon="-6.095933">
        <ele>1910.0</ele>
        <time>2019-05-04T12:59:29Z</time>
      </trkpt>
      <trkpt lat="39.047067" lon="-6.096000">
        <ele>1909.0</ele>
        <time>2019-05-04T12:59:30Z</time>
      </trkpt>
      <trkpt lat="39.046933" lon="-6.096050">
        <ele>1907.0</ele>
        <time>2019-05-04T12:59:31Z</time>
      </trkpt>
      <trkpt lat="39.046817" lon="-6.096083">
        <ele>1906.0</ele>
        <time>2019-05-04T12:59:32Z</time>
      </trkpt>
      <trkpt lat="39.046683" lon="-6.096117">
        <ele>1906.0</ele>
        <time>2019-05-04T12:59:33Z</time>
      </trkpt>
      <trkpt lat="39.046567" lon="-6.096150">
        <ele>1906.0</ele>
        <time>2019-05-04T12:59:34Z</time>
      </trkpt>
      <trkpt lat="39.046467" lon="-6.096183">
        <ele>1906.0</ele>
        <time>2019-05-04T12:59:35Z</time>
      </trkpt>
      <trkpt lat="39.046350" lon="-6.096217">
        <ele>1905.0</ele>
        <time>2019-05-04T12:59:36Z</time>
      </trkpt>
      <trkpt lat="39.046233" lon="-6.096250">
        <ele>1904.0</ele>
        <time>2019-05-04T12:59:37Z</time>
      </trkpt>
      <trkpt lat="39.046100" lon="-6.096267">
        <ele>1902.0</ele>
        <time>2019-05-04T12:59:38Z</time>
      </trkpt>
      <trkpt lat="39.045967" lon="-6.096300">
        <ele>1900.0</ele>
        <time>2019-05-04T12:59:39Z</time>
      </trkpt>
      <trkpt lat="39.045817" lon="-6.096333">
        <ele>1898.0</ele>
        <time>2019-05-04T12:59:40Z</time>
      </trkpt>
      <trkpt lat="39.045683" lon="-6.096350">
        <ele>1897.0</ele>
        <time>2019-05-04T12:59:41Z</time>
      </trkpt>
      <trkpt lat="39.045567" lon="-6.096350">
        <ele>1898.0</ele>
        <time>2019-05-04T12:59:42Z</time>
      </trkpt>
      <trkpt lat="39.045450" lon="-6.096350">
        <ele>1899.0</ele>
        <time>2019-05-04T12:59:43Z</time>
      </trkpt>
      <trkpt lat="39.045350" lon="-6.096350">
        <ele>1900.0</ele>
        <time>2019-05-04T12:59:44Z</time>
      </trkpt>
      <trkpt lat="39.045233" lon="-6.096367">
        <ele>1901.0</ele>
        <time>2019-05-04T12:59:45Z</time>
      </trkpt>
      <trkpt lat="39.045150" lon="-6.096367">
        <ele>1900.0</ele>
        <time>2019-05-04T12:59:46Z</time>
      </trkpt>
      <trkpt lat="39.045050" lon="-6.096367">
        <ele>1899.0</ele>
        <time>2019-05-04T12:59:47Z</time>
      </trkpt>
      <trkpt lat="39.044933" lon="-6.096367">
        <ele>1898.0</ele>
        <time>2019-05-04T12:59:48Z</time>
      </trkpt>
      <trkpt lat="39.044817" lon="-6.096367">
        <ele>1896.0</ele>
        <time>2019-05-04T12:59:49Z</time>
      </trkpt>
      <trkpt lat="39.044700" lon="-6.096350">
        <ele>1895.0</ele>
        <time>2019-05-04T12:59:50Z</time>
      </trkpt>
      <trkpt lat="39.044600" lon="-6.096350">
        <ele>1895.0</ele>
        <time>2019-05-04T12:59:51Z</time>
      </trkpt>
      <trkpt lat="39.044500" lon="-6.096333">
        <ele>1896.0</ele>
        <time>2019-05-04T12:59:52Z</time>
      </trkpt>
      <trkpt lat="39.044400" lon="-6.096317">
        <ele>1895.0</ele>
        <time>2019-05-04T12:59:53Z</time>
      </trkpt>
      <trkpt lat="39.044300" lon="-6.096333">
        <ele>1893.0</ele>
        <time>2019-05-04T12:59:54Z</time>
      </trkpt>
      <trkpt lat="39.044167" lon="-6.096333">
        <ele>1890.0</ele>
        <time>2019-05-04T12:59:55Z</time>
      </trkpt>
      <trkpt lat="39.044033" lon="-6.096333">
        <ele>1888.0</ele>
        <time>2019-05-04T12:59:56Z</time>
      </trkpt>
      <trkpt lat="39.043917" lon="-6.096317">
        <ele>1887.0</ele>
        <time>2019-05-04T12:59:57Z</time>
      </trkpt>
      <trkpt lat="39.043800" lon="-6.096300">
        <ele>1886.0</ele>
        <time>2019-05-04T12:59:58Z</time>
      </trkpt>
      <trkpt lat="39.043700" lon="-6.096300">
        <ele>1886.0</ele>
        <time>2019-05-04T12:59:59Z</time>
      </trkpt>
      <trkpt lat="39.043583" lon="-6.096283">
        <ele>1885.0</ele>
        <time>2019-05-04T13:00:00Z</time>
      </trkpt>
      <trkpt lat="39.043450" lon="-6.096283">
        <ele>1882.0</ele>
        <time>2019-05-04T13:00:01Z</time>
      </trkpt>
      <trkpt lat="39.043317" lon="-6.096283">
        <ele>1880.0</ele>
        <time>2019-05-04T13:00:02Z</time>
      </trkpt>
      <trkpt lat="39.043200" lon="-6.096283">
        <ele>1879.0</ele>
        <time>2019-05-04T13:00:03Z</time>
      </trkpt>
      <trkpt lat="39.043083" lon="-6.096283">
        <ele>1878.0</ele>
        <time>2019-05-04T13:00:04Z</time>
      </trkpt>
      <trkpt lat="39.042967" lon="-6.096300">
        <ele>1878.0</ele>
        <time>2019-05-04T13:00:05Z</time>
      </trkpt>
      <trkpt lat="39.042867" lon="-6.096317">
        <ele>1877.0</ele>
        <time>2019-05-04T13:00:06Z</time>
      </trkpt>
      <trkpt lat="39.042750" lon="-6.096333">
        <ele>1876.0</ele>
        <time>2019-05-04T13:00:07Z</time>
      </trkpt>
      <trkpt lat="39.042633" lon="-6.096333">
        <ele>1874.0</ele>
        <time>2019-05-04T13:00:08Z</time>
      </trkpt>
      <trkpt lat="39.042517" lon="-6.096350">
        <ele>1874.0</ele>
        <time>2019-05-04T13:00:09Z</time>
      </trkpt>
      <trkpt lat="39.042400" lon="-6.096367">
        <ele>1873.0</ele>
        <time>2019-05-04T13:00:10Z</time>
      </trkpt>
      <trkpt lat="39.042300" lon="-6.096383">
        <ele>1874.0</ele>
        <time>2019-05-04T13:00:11Z</time>
      </trkpt>
      <trkpt lat="39.042217" lon="-6.096417">
        <ele>1876.0</ele>
        <time>2019-05-04T13:00:12Z</time>
      </trkpt>
      <trkpt lat="39.042150" lon="-6.096450">
        <ele>1876.0</ele>
        <time>2019-05-04T13:00:13Z</time>
      </trkpt>
      <trkpt lat="39.042050" lon="-6.096450">
        <ele>1875.0</ele>
        <time>2019-05-04T13:00:14Z</time>
      </trkpt>
      <trkpt lat="39.041950" lon="-6.096467">
        <ele>1874.0</ele>
        <time>2019-05-04T13:00:15Z</time>
      </trkpt>
      <trkpt lat="39.041833" lon="-6.096467">
        <ele>1872.0</ele>
        <time>2019-05-04T13:00:16Z</time>
      </trkpt>
      <trkpt lat="39.041733" lon="-6.096467">
        <ele>1871.0</ele>
        <time>2019-05-04T13:00:17Z</time>
      </trkpt>
      <trkpt lat="39.041650" lon="-6.096467">
        <ele>1871.0</ele>
        <time>2019-05-04T13:00:18Z</time>
      </trkpt>
      <trkpt lat="39.041567" lon="-6.096450">
        <ele>1871.0</ele>
        <time>2019-05-04T13:00:19Z</time>
      </trkpt>
      <trkpt lat="39.041483" lon="-6.096450">
        <ele>1869.0</ele>
        <time>2019-05-04T13:00:20Z</time>
      </trkpt>
      <trkpt lat="39.041383" lon="-6.096433">
        <ele>1866.0</ele>
        <time>2019-05-04T13:00:21Z</time>
      </trkpt>
      <trkpt lat="39.041283" lon="-6.096417">
        <ele>1864.0</ele>
        <time>2019-05-04T13:00:22Z</time>
      </trkpt>
      <trkpt lat="39.041183" lon="-6.096400">
        <ele>1861.0</ele>
        <time>2019-05-04T13:00:23Z</time>
      </trkpt>
      <trkpt lat="39.041083" lon="-6.096383">
        <ele>1859.0</ele>
        <time>2019-05-04T13:00:24Z</time>
      </trkpt>
      <trkpt lat="39.041000" lon="-6.096383">
        <ele>1858.0</ele>
        <time>2019-05-04T13:00:25Z</time>
      </trkpt>
      <trkpt lat="39.040917" lon="-6.096367">
        <ele>1856.0</ele>
        <time>2019-05-04T13:00:26Z</time>
      </trkpt>
      <trkpt lat="39.040833" lon="-6.096350">
        <ele>1854.0</ele>
        <time>2019-05-04T13:00:27Z</time>
      </trkpt>
      <trkpt lat="39.040733" lon="-6.096333">
        <ele>1852.0</ele>
        <time>2019-05-04T13:00:28Z</time>
      </trkpt>
      <trkpt lat="39.040617" lon="-6.096317">
        <ele>1850.0</ele>
        <time>2019-05-04T13:00:29Z</time>
      </trkpt>
      <trkpt lat="39.040517" lon="-6.096283">
        <ele>1849.0</ele>
        <time>2019-05-04T13:00:30Z</time>
      </trkpt>
      <trkpt lat="39.040417" lon="-6.096250">
        <ele>1849.0</ele>
        <time>2019-05-04T13:00:31Z</time>
      </trkpt>
      <trkpt lat="39.040333" lon="-6.096233">
        <ele>1849.0</ele>
        <time>2019-05-04T13:00:32Z</time>
      </trkpt>
      <trkpt lat="39.040250" lon="-6.096200">
        <ele>1848.0</ele>
        <time>2019-05-04T13:00:33Z</time>
      </trkpt>
      <trkpt lat="39.040167" lon="-6.096183">
        <ele>1847.0</ele>
        <time>2019-05-04T13:00:34Z</time>
      </trkpt>
      <trkpt lat="39.040050" lon="-6.096167">
        <ele>1846.0</ele>
        <time>2019-05-04T13:00:35Z</time>
      </trkpt>
      <trkpt lat="39.039950" lon="-6.096150">
        <ele>1845.0</ele>
        <time>2019-05-04T13:00:36Z</time>
      </trkpt>
      <trkpt lat="39.039850" lon="-6.096133">
        <ele>1845.0</ele>
        <time>2019-05-04T13:00:37Z</time>
      </trkpt>
      <trkpt lat="39.039767" lon="-6.096100">
        <ele>1846.0</ele>
        <time>2019-05-04T13:00:38Z</time>
      </trkpt>
      <trkpt lat="39.039667" lon="-6.096083">
        <ele>1847.0</ele>
        <time>2019-05-04T13:00:39Z</time>
      </trkpt>
      <trkpt lat="39.039567" lon="-6.096050">
        <ele>1847.0</ele>
        <time>2019-05-04T13:00:40Z</time>
      </trkpt>
      <trkpt lat="39.039467" lon="-6.096033">
        <ele>1848.0</ele>
        <time>2019-05-04T13:00:41Z</time>
      </trkpt>
      <trkpt lat="39.039383" lon="-6.096017">
        <ele>1850.0</ele>
        <time>2019-05-04T13:00:42Z</time>
      </trkpt>
      <trkpt lat="39.039300" lon="-6.096000">
        <ele>1851.0</ele>
        <time>2019-05-04T13:00:43Z</time>
      </trkpt>
      <trkpt lat="39.039217" lon="-6.095983">
        <ele>1853.0</ele>
        <time>2019-05-04T13:00:44Z</time>
      </trkpt>
      <trkpt lat="39.039133" lon="-6.095983">
        <ele>1853.0</ele>
        <time>2019-05-04T13:00:45Z</time>
      </trkpt>
      <trkpt lat="39.039050" lon="-6.095967">
        <ele>1854.0</ele>
        <time>2019-05-04T13:00:46Z</time>
      </trkpt>
      <trkpt lat="39.038967" lon="-6.095950">
        <ele>1854.0</ele>
        <time>2019-05-04T13:00:47Z</time>
      </trkpt>
      <trkpt lat="39.038883" lon="-6.095933">
        <ele>1854.0</ele>
        <time>2019-05-04T13:00:48Z</time>
      </trkpt>
      <trkpt lat="39.038783" lon="-6.095917">
        <ele>1854.0</ele>
        <time>2019-05-04T13:00:49Z</time>
      </trkpt>
      <trkpt lat="39.038700" lon="-6.095900">
        <ele>1854.0</ele>
        <time>2019-05-04T13:00:50Z</time>
      </trkpt>
      <trkpt lat="39.038617" lon="-6.095883">
        <ele>1855.0</ele>
        <time>2019-05-04T13:00:51Z</time>
      </trkpt>
      <trkpt lat="39.038550" lon="-6.095867">
        <ele>1855.0</ele>
        <time>2019-05-04T13:00:52Z</time>
      </trkpt>
      <trkpt lat="39.038467" lon="-6.095867">
        <ele>1855.0</ele>
        <time>2019-05-04T13:00:53Z</time>
      </trkpt>
      <trkpt lat="39.038383" lon="-6.095850">
        <ele>1855.0</ele>
        <time>2019-05-04T13:00:54Z</time>
      </trkpt>
      <trkpt lat="39.038283" lon="-6.095833">
        <ele>1854.0</ele>
        <time>2019-05-04T13:00:55Z</time>
      </trkpt>
      <trkpt lat="39.038183" lon="-6.095833">
        <ele>1853.0</ele>
        <time>2019-05-04T13:00:56Z</time>
      </trkpt>
      <trkpt lat="39.038083" lon="-6.095850">
        <ele>1853.0</ele>
        <time>2019-05-04T13:00:57Z</time>
      </trkpt>
      <trkpt lat="39.037983" lon="-6.095833">
        <ele>1855.0</ele>
        <time>2019-05-04T13:00:58Z</time>
      </trkpt>
      <trkpt lat="39.037900" lon="-6.095817">
        <ele>1857.0</ele>
        <time>2019-05-04T13:00:59Z</time>
      </trkpt>
      <trkpt lat="39.037833" lon="-6.095783">
        <ele>1858.0</ele>
        <time>2019-05-04T13:01:00Z</time>
      </trkpt>
      <trkpt lat="39.037750" lon="-6.095767">
        <ele>1860.0</ele>
        <time>2019-05-04T13:01:01Z</time>
      </trkpt>
      <trkpt lat="39.037667" lon="-6.095767">
        <ele>1861.0</ele>
        <time>2019-05-04T13:01:02Z</time>
      </trkpt>
      <trkpt lat="39.037583" lon="-6.095750">
        <ele>1862.0</ele>
        <time>2019-05-04T13:01:03Z</time>
      </trkpt>
      <trkpt lat="39.037500" lon="-6.095750">
        <ele>1862.0</ele>
        <time>2019-05-04T13:01:04Z</time>
      </trkpt>
      <trkpt lat="39.037417" lon="-6.095733">
        <ele>1863.0</ele>
        <time>2019-05-04T13:01:05Z</time>
      </trkpt>
      <trkpt lat="39.037317" lon="-6.095733">
        <ele>1864.0</ele>
        <time>2019-05-04T13:01:06Z</time>
      </trkpt>
      <trkpt lat="39.037233" lon="-6.095733">
        <ele>1864.0</ele>
        <time>2019-05-04T13:01:07Z</time>
      </trkpt>
      <trkpt lat="39.037133" lon="-6.095717">
        <ele>1865.0</ele>
        <time>2019-05-04T13:01:08Z</time>
      </trkpt>
      <trkpt lat="39.037050" lon="-6.095717">
        <ele>1865.0</ele>
        <time>2019-05-04T13:01:09Z</time>
      </trkpt>
      <trkpt lat="39.036967" lon="-6.095700">
        <ele>1866.0</ele>
        <time>2019-05-04T13:01:10Z</time>
      </trkpt>
      <trkpt lat="39.036883" lon="-6.095700">
        <ele>1866.0</ele>
        <time>2019-05-04T13:01:11Z</time>
      </trkpt>
      <trkpt lat="39.036800" lon="-6.095700">
        <ele>1866.0</ele>
        <time>2019-05-04T13:01:12Z</time>
      </trkpt>
      <trkpt lat="39.036700" lon="-6.095700">
        <ele>1865.0</ele>
        <time>2019-05-04T13:01:13Z</time>
      </trkpt>
      <trkpt lat="39.036600" lon="-6.095700">
        <ele>1864.0</ele>
        <time>2019-05-04T13:01:14Z</time>
      </trkpt>
      <trkpt lat="39.036500" lon="-6.095700">
        <ele>1863.0</ele>
        <time>2019-05-04T13:01:15Z</time>
      </trkpt>
      <trkpt lat="39.036417" lon="-6.095700">
        <ele>1862.0</ele>
        <time>2019-05-04T13:01:16Z</time>
      </trkpt>
      <trkpt lat="39.036317" lon="-6.095683">
        <ele>1861.0</ele>
        <time>2019-05-04T13:01:17Z</time>
      </trkpt>
      <trkpt lat="39.036217" lon="-6.095683">
        <ele>1860.0</ele>
        <time>2019-05-04T13:01:18Z</time>
      </trkpt>
      <trkpt lat="39.036117" lon="-6.095683">
        <ele>1858.0</ele>
        <time>2019-05-04T13:01:19Z</time>
      </trkpt>
      <trkpt lat="39.036017" lon="-6.095683">
        <ele>1856.0</ele>
        <time>2019-05-04T13:01:20Z</time>
      </trkpt>
      <trkpt lat="39.035917" lon="-6.095683">
        <ele>1854.0</ele>
        <time>2019-05-04T13:01:21Z</time>
      </trkpt>
      <trkpt lat="39.035800" lon="-6.095667">
        <ele>1853.0</ele>
        <time>2019-05-04T13:01:22Z</time>
      </trkpt>
      <trkpt lat="39.035683" lon="-6.095667">
        <ele>1852.0</ele>
        <time>2019-05-04T13:01:23Z</time>
      </trkpt>
      <trkpt lat="39.035583" lon="-6.095667">
        <ele>1852.0</ele>
        <time>2019-05-04T13:01:24Z</time>
      </trkpt>
      <trkpt lat="39.035483" lon="-6.095650">
        <ele>1852.0</ele>
        <time>2019-05-04T13:01:25Z</time>
      </trkpt>
      <trkpt lat="39.035367" lon="-6.095633">
        <ele>1852.0</ele>
        <time>2019-05-04T13:01:26Z</time>
      </trkpt>
      <trkpt lat="39.035267" lon="-6.095617">
        <ele>1852.0</ele>
        <time>2019-05-04T13:01:27Z</time>
      </trkpt>
      <trkpt lat="39.035167" lon="-6.095600">
        <ele>1852.0</ele>
        <time>2019-05-04T13:01:28Z</time>
      </trkpt>
      <trkpt lat="39.035050" lon="-6.095600">
        <ele>1851.0</ele>
        <time>2019-05-04T13:01:29Z</time>
      </trkpt>
      <trkpt lat="39.034950" lon="-6.095583">
        <ele>1852.0</ele>
        <time>2019-05-04T13:01:30Z</time>
      </trkpt>
      <trkpt lat="39.034867" lon="-6.095567">
        <ele>1852.0</ele>
        <time>2019-05-04T13:01:31Z</time>
      </trkpt>
      <trkpt lat="39.034767" lon="-6.095550">
        <ele>1853.0</ele>
        <time>2019-05-04T13:01:32Z</time>
      </trkpt>
      <trkpt lat="39.034683" lon="-6.095550">
        <ele>1852.0</ele>
        <time>2019-05-04T13:01:33Z</time>
      </trkpt>
      <trkpt lat="39.034583" lon="-6.095533">
        <ele>1851.0</ele>
        <time>2019-05-04T13:01:34Z</time>
      </trkpt>
      <trkpt lat="39.034483" lon="-6.095517">
        <ele>1851.0</ele>
        <time>2019-05-04T13:01:35Z</time>
      </trkpt>
      <trkpt lat="39.034383" lon="-6.095500">
        <ele>1851.0</ele>
        <time>2019-05-04T13:01:36Z</time>
      </trkpt>
      <trkpt lat="39.034283" lon="-6.095483">
        <ele>1851.0</ele>
        <time>2019-05-04T13:01:37Z</time>
      </trkpt>
      <trkpt lat="39.034183" lon="-6.095483">
        <ele>1851.0</ele>
        <time>2019-05-04T13:01:38Z</time>
      </trkpt>
      <trkpt lat="39.034083" lon="-6.095467">
        <ele>1852.0</ele>
        <time>2019-05-04T13:01:39Z</time>
      </trkpt>
      <trkpt lat="39.033983" lon="-6.095467">
        <ele>1852.0</ele>
        <time>2019-05-04T13:01:40Z</time>
      </trkpt>
      <trkpt lat="39.033883" lon="-6.095467">
        <ele>1852.0</ele>
        <time>2019-05-04T13:01:41Z</time>
      </trkpt>
      <trkpt lat="39.033783" lon="-6.095450">
        <ele>1852.0</ele>
        <time>2019-05-04T13:01:42Z</time>
      </trkpt>
      <trkpt lat="39.033700" lon="-6.095433">
        <ele>1852.0</ele>
        <time>2019-05-04T13:01:43Z</time>
      </trkpt>
      <trkpt lat="39.033600" lon="-6.095417">
        <ele>1853.0</ele>
        <time>2019-05-04T13:01:44Z</time>
      </trkpt>
      <trkpt lat="39.033500" lon="-6.095417">
        <ele>1853.0</ele>
        <time>2019-05-04T13:01:45Z</time>
      </trkpt>
      <trkpt lat="39.033400" lon="-6.095417">
        <ele>1854.0</ele>
        <time>2019-05-04T13:01:46Z</time>
      </trkpt>
      <trkpt lat="39.033317" lon="-6.095400">
        <ele>1854.0</ele>
        <time>2019-05-04T13:01:47Z</time>
      </trkpt>
      <trkpt lat="39.033217" lon="-6.095383">
        <ele>1854.0</ele>
        <time>2019-05-04T13:01:48Z</time>
      </trkpt>
      <trkpt lat="39.033117" lon="-6.095383">
        <ele>1855.0</ele>
        <time>2019-05-04T13:01:49Z</time>
      </trkpt>
      <trkpt lat="39.033017" lon="-6.095383">
        <ele>1856.0</ele>
        <time>2019-05-04T13:01:50Z</time>
      </trkpt>
      <trkpt lat="39.032933" lon="-6.095367">
        <ele>1855.0</ele>
        <time>2019-05-04T13:01:51Z</time>
      </trkpt>
      <trkpt lat="39.032833" lon="-6.095350">
        <ele>1855.0</ele>
        <time>2019-05-04T13:01:52Z</time>
      </trkpt>
      <trkpt lat="39.032750" lon="-6.095333">
        <ele>1855.0</ele>
        <time>2019-05-04T13:01:53Z</time>
      </trkpt>
      <trkpt lat="39.032650" lon="-6.095317">
        <ele>1854.0</ele>
        <time>2019-05-04T13:01:54Z</time>
      </trkpt>
      <trkpt lat="39.032550" lon="-6.095333">
        <ele>1853.0</ele>
        <time>2019-05-04T13:01:55Z</time>
      </trkpt>
      <trkpt lat="39.032450" lon="-6.095333">
        <ele>1853.0</ele>
        <time>2019-05-04T13:01:56Z</time>
      </trkpt>
      <trkpt lat="39.032367" lon="-6.095333">
        <ele>1853.0</ele>
        <time>2019-05-04T13:01:57Z</time>
      </trkpt>
      <trkpt lat="39.032267" lon="-6.095333">
        <ele>1852.0</ele>
        <time>2019-05-04T13:01:58Z</time>
      </trkpt>
      <trkpt lat="39.032183" lon="-6.095333">
        <ele>1852.0</ele>
        <time>2019-05-04T13:01:59Z</time>
      </trkpt>
      <trkpt lat="39.032083" lon="-6.095350">
        <ele>1852.0</ele>
        <time>2019-05-04T13:02:00Z</time>
      </trkpt>
      <trkpt lat="39.031983" lon="-6.095350">
        <ele>1851.0</ele>
        <time>2019-05-04T13:02:01Z</time>
      </trkpt>
      <trkpt lat="39.031900" lon="-6.095350">
        <ele>1850.0</ele>
        <time>2019-05-04T13:02:02Z</time>
      </trkpt>
      <trkpt lat="39.031800" lon="-6.095367">
        <ele>1850.0</ele>
        <time>2019-05-04T13:02:03Z</time>
      </trkpt>
      <trkpt lat="39.031700" lon="-6.095367">
        <ele>1849.0</ele>
        <time>2019-05-04T13:02:04Z</time>
      </trkpt>
      <trkpt lat="39.031600" lon="-6.095367">
        <ele>1848.0</ele>
        <time>2019-05-04T13:02:05Z</time>
      </trkpt>
      <trkpt lat="39.031500" lon="-6.095367">
        <ele>1847.0</ele>
        <time>2019-05-04T13:02:06Z</time>
      </trkpt>
      <trkpt lat="39.031400" lon="-6.095367">
        <ele>1847.0</ele>
        <time>2019-05-04T13:02:07Z</time>
      </trkpt>
      <trkpt lat="39.031300" lon="-6.095350">
        <ele>1846.0</ele>
        <time>2019-05-04T13:02:08Z</time>
      </trkpt>
      <trkpt lat="39.031200" lon="-6.095350">
        <ele>1846.0</ele>
        <time>2019-05-04T13:02:09Z</time>
      </trkpt>
      <trkpt lat="39.031117" lon="-6.095350">
        <ele>1845.0</ele>
        <time>2019-05-04T13:02:10Z</time>
      </trkpt>
      <trkpt lat="39.031017" lon="-6.095333">
        <ele>1844.0</ele>
        <time>2019-05-04T13:02:11Z</time>
      </trkpt>
      <trkpt lat="39.030917" lon="-6.095333">
        <ele>1842.0</ele>
        <time>2019-05-04T13:02:12Z</time>
      </trkpt>
      <trkpt lat="39.030800" lon="-6.095317">
        <ele>1840.0</ele>
        <time>2019-05-04T13:02:13Z</time>
      </trkpt>
      <trkpt lat="39.030683" lon="-6.095317">
        <ele>1838.0</ele>
        <time>2019-05-04T13:02:14Z</time>
      </trkpt>
      <trkpt lat="39.030583" lon="-6.095317">
        <ele>1837.0</ele>
        <time>2019-05-04T13:02:15Z</time>
      </trkpt>
      <trkpt lat="39.030483" lon="-6.095317">
        <ele>1836.0</ele>
        <time>2019-05-04T13:02:16Z</time>
      </trkpt>
      <trkpt lat="39.030383" lon="-6.095317">
        <ele>1834.0</ele>
        <time>2019-05-04T13:02:17Z</time>
      </trkpt>
      <trkpt lat="39.030267" lon="-6.095300">
        <ele>1831.0</ele>
        <time>2019-05-04T13:02:18Z</time>
      </trkpt>
      <trkpt lat="39.030150" lon="-6.095300">
        <ele>1829.0</ele>
        <time>2019-05-04T13:02:19Z</time>
      </trkpt>
      <trkpt lat="39.030033" lon="-6.095300">
        <ele>1826.0</ele>
        <time>2019-05-04T13:02:20Z</time>
      </trkpt>
      <trkpt lat="39.029917" lon="-6.095317">
        <ele>1824.0</ele>
        <time>2019-05-04T13:02:21Z</time>
      </trkpt>
      <trkpt lat="39.029800" lon="-6.095317">
        <ele>1822.0</ele>
        <time>2019-05-04T13:02:22Z</time>
      </trkpt>
      <trkpt lat="39.029683" lon="-6.095317">
        <ele>1821.0</ele>
        <time>2019-05-04T13:02:23Z</time>
      </trkpt>
      <trkpt lat="39.029567" lon="-6.095317">
        <ele>1819.0</ele>
        <time>2019-05-04T13:02:24Z</time>
      </trkpt>
      <trkpt lat="39.029433" lon="-6.095350">
        <ele>1817.0</ele>
        <time>2019-05-04T13:02:25Z</time>
      </trkpt>
      <trkpt lat="39.029317" lon="-6.095367">
        <ele>1822.0</ele>
        <time>2019-05-04T13:02:26Z</time>
      </trkpt>
      <trkpt lat="39.029200" lon="-6.095350">
        <ele>1814.0</ele>
        <time>2019-05-04T13:02:27Z</time>
      </trkpt>
      <trkpt lat="39.029083" lon="-6.095317">
        <ele>1814.0</ele>
        <time>2019-05-04T13:02:28Z</time>
      </trkpt>
      <trkpt lat="39.028967" lon="-6.095300">
        <ele>1813.0</ele>
        <time>2019-05-04T13:02:29Z</time>
      </trkpt>
      <trkpt lat="39.028850" lon="-6.095283">
        <ele>1811.0</ele>
        <time>2019-05-04T13:02:30Z</time>
      </trkpt>
      <trkpt lat="39.028733" lon="-6.095267">
        <ele>1809.0</ele>
        <time>2019-05-04T13:02:31Z</time>
      </trkpt>
      <trkpt lat="39.028617" lon="-6.095267">
        <ele>1807.0</ele>
        <time>2019-05-04T13:02:32Z</time>
      </trkpt>
      <trkpt lat="39.028500" lon="-6.095250">
        <ele>1805.0</ele>
        <time>2019-05-04T13:02:33Z</time>
      </trkpt>
      <trkpt lat="39.028383" lon="-6.095233">
        <ele>1803.0</ele>
        <time>2019-05-04T13:02:34Z</time>
      </trkpt>
      <trkpt lat="39.028267" lon="-6.095233">
        <ele>1801.0</ele>
        <time>2019-05-04T13:02:35Z</time>
      </trkpt>
      <trkpt lat="39.028167" lon="-6.095250">
        <ele>1800.0</ele>
        <time>2019-05-04T13:02:36Z</time>
      </trkpt>
      <trkpt lat="39.027717" lon="-6.095333">
        <ele>0.0</ele>
        <time>2019-05-04T13:02:40Z</time>
      </trkpt>
      <trkpt lat="39.027617" lon="-6.095350">
        <ele>1793.0</ele>
        <time>2019-05-04T13:02:41Z</time>
      </trkpt>
      <trkpt lat="39.027517" lon="-6.095367">
        <ele>1792.0</ele>
        <time>2019-05-04T13:02:42Z</time>
      </trkpt>
      <trkpt lat="39.027417" lon="-6.095383">
        <ele>1791.0</ele>
        <time>2019-05-04T13:02:43Z</time>
      </trkpt>
      <trkpt lat="39.027300" lon="-6.095417">
        <ele>1789.0</ele>
        <time>2019-05-04T13:02:44Z</time>
      </trkpt>
      <trkpt lat="39.027183" lon="-6.095450">
        <ele>1787.0</ele>
        <time>2019-05-04T13:02:45Z</time>
      </trkpt>
      <trkpt lat="39.027083" lon="-6.095467">
        <ele>1786.0</ele>
        <time>2019-05-04T13:02:46Z</time>
      </trkpt>
      <trkpt lat="39.026983" lon="-6.095483">
        <ele>1786.0</ele>
        <time>2019-05-04T13:02:47Z</time>
      </trkpt>
      <trkpt lat="39.026417" lon="-6.095500">
        <ele>0.0</ele>
        <time>2019-05-04T13:02:53Z</time>
      </trkpt>
      <trkpt lat="39.026250" lon="-6.095550">
        <ele>1787.0</ele>
        <time>2019-05-04T13:02:54Z</time>
      </trkpt>
      <trkpt lat="39.026133" lon="-6.095583">
        <ele>1786.0</ele>
        <time>2019-05-04T13:02:55Z</time>
      </trkpt>
      <trkpt lat="39.026017" lon="-6.095600">
        <ele>1782.0</ele>
        <time>2019-05-04T13:02:56Z</time>
      </trkpt>
      <trkpt lat="39.025900" lon="-6.095617">
        <ele>1780.0</ele>
        <time>2019-05-04T13:02:57Z</time>
      </trkpt>
      <trkpt lat="39.025783" lon="-6.095617">
        <ele>1778.0</ele>
        <time>2019-05-04T13:02:58Z</time>
      </trkpt>
      <trkpt lat="39.025683" lon="-6.095633">
        <ele>1776.0</ele>
        <time>2019-05-04T13:02:59Z</time>
      </trkpt>
      <trkpt lat="39.025583" lon="-6.095633">
        <ele>1775.0</ele>
        <time>2019-05-04T13:03:00Z</time>
      </trkpt>
      <trkpt lat="39.025483" lon="-6.095650">
        <ele>1774.0</ele>
        <time>2019-05-04T13:03:01Z</time>
      </trkpt>
      <trkpt lat="39.025383" lon="-6.095667">
        <ele>1772.0</ele>
        <time>2019-05-04T13:03:02Z</time>
      </trkpt>
      <trkpt lat="39.025267" lon="-6.095667">
        <ele>1771.0</ele>
        <time>2019-05-04T13:03:03Z</time>
      </trkpt>
      <trkpt lat="39.025167" lon="-6.095683">
        <ele>1769.0</ele>
        <time>2019-05-04T13:03:04Z</time>
      </trkpt>
      <trkpt lat="39.025050" lon="-6.095683">
        <ele>1767.0</ele>
        <time>2019-05-04T13:03:05Z</time>
      </trkpt>
      <trkpt lat="39.024950" lon="-6.095683">
        <ele>1765.0</ele>
        <time>2019-05-04T13:03:06Z</time>
      </trkpt>
      <trkpt lat="39.024833" lon="-6.095700">
        <ele>1764.0</ele>
        <time>2019-05-04T13:03:07Z</time>
      </trkpt>
      <trkpt lat="39.024717" lon="-6.095700">
        <ele>1762.0</ele>
        <time>2019-05-04T13:03:08Z</time>
      </trkpt>
      <trkpt lat="39.024617" lon="-6.095717">
        <ele>1761.0</ele>
        <time>2019-05-04T13:03:09Z</time>
      </trkpt>
      <trkpt lat="39.024500" lon="-6.095733">
        <ele>1760.0</ele>
        <time>2019-05-04T13:03:10Z</time>
      </trkpt>
      <trkpt lat="39.024383" lon="-6.095733">
        <ele>1759.0</ele>
        <time>2019-05-04T13:03:11Z</time>
      </trkpt>
      <trkpt lat="39.024267" lon="-6.095750">
        <ele>1757.0</ele>
        <time>2019-05-04T13:03:12Z</time>
      </trkpt>
      <trkpt lat="39.024167" lon="-6.095750">
        <ele>1756.0</ele>
        <time>2019-05-04T13:03:13Z</time>
      </trkpt>
      <trkpt lat="39.024050" lon="-6.095750">
        <ele>1756.0</ele>
        <time>2019-05-04T13:03:14Z</time>
      </trkpt>
      <trkpt lat="39.023950" lon="-6.095750">
        <ele>1755.0</ele>
        <time>2019-05-04T13:03:15Z</time>
      </trkpt>
      <trkpt lat="39.023833" lon="-6.095750">
        <ele>1753.0</ele>
        <time>2019-05-04T13:03:16Z</time>
      </trkpt>
      <trkpt lat="39.023717" lon="-6.095783">
        <ele>1752.0</ele>
        <time>2019-05-04T13:03:17Z</time>
      </trkpt>
      <trkpt lat="39.023600" lon="-6.095817">
        <ele>1750.0</ele>
        <time>2019-05-04T13:03:18Z</time>
      </trkpt>
      <trkpt lat="39.023483" lon="-6.095867">
        <ele>1750.0</ele>
        <time>2019-05-04T13:03:19Z</time>
      </trkpt>
      <trkpt lat="39.023383" lon="-6.095900">
        <ele>1750.0</ele>
        <time>2019-05-04T13:03:20Z</time>
      </trkpt>
      <trkpt lat="39.023283" lon="-6.095933">
        <ele>1751.0</ele>
        <time>2019-05-04T13:03:21Z</time>
      </trkpt>
      <trkpt lat="39.023183" lon="-6.095950">
        <ele>1751.0</ele>
        <time>2019-05-04T13:03:22Z</time>
      </trkpt>
      <trkpt lat="39.023083" lon="-6.095983">
        <ele>1750.0</ele>
        <time>2019-05-04T13:03:23Z</time>
      </trkpt>
      <trkpt lat="39.022983" lon="-6.096033">
        <ele>1749.0</ele>
        <time>2019-05-04T13:03:24Z</time>
      </trkpt>
      <trkpt lat="39.022867" lon="-6.096067">
        <ele>1748.0</ele>
        <time>2019-05-04T13:03:25Z</time>
      </trkpt>
      <trkpt lat="39.022750" lon="-6.096100">
        <ele>1747.0</ele>
        <time>2019-05-04T13:03:26Z</time>
      </trkpt>
      <trkpt lat="39.022650" lon="-6.096133">
        <ele>1746.0</ele>
        <time>2019-05-04T13:03:27Z</time>
      </trkpt>
      <trkpt lat="39.022533" lon="-6.096150">
        <ele>1746.0</ele>
        <time>2019-05-04T13:03:28Z</time>
      </trkpt>
      <trkpt lat="39.022433" lon="-6.096183">
        <ele>1744.0</ele>
        <time>2019-05-04T13:03:29Z</time>
      </trkpt>
      <trkpt lat="39.022317" lon="-6.096200">
        <ele>1742.0</ele>
        <time>2019-05-04T13:03:30Z</time>
      </trkpt>
      <trkpt lat="39.022200" lon="-6.096233">
        <ele>1740.0</ele>
        <time>2019-05-04T13:03:31Z</time>
      </trkpt>
      <trkpt lat="39.022083" lon="-6.096250">
        <ele>1739.0</ele>
        <time>2019-05-04T13:03:32Z</time>
      </trkpt>
      <trkpt lat="39.021967" lon="-6.096267">
        <ele>1737.0</ele>
        <time>2019-05-04T13:03:33Z</time>
      </trkpt>
      <trkpt lat="39.021850" lon="-6.096283">
        <ele>1736.0</ele>
        <time>2019-05-04T13:03:34Z</time>
      </trkpt>
      <trkpt lat="39.021717" lon="-6.096300">
        <ele>1735.0</ele>
        <time>2019-05-04T13:03:35Z</time>
      </trkpt>
      <trkpt lat="39.021600" lon="-6.096317">
        <ele>1732.0</ele>
        <time>2019-05-04T13:03:36Z</time>
      </trkpt>
      <trkpt lat="39.021467" lon="-6.096333">
        <ele>1731.0</ele>
        <time>2019-05-04T13:03:37Z</time>
      </trkpt>
      <trkpt lat="39.021367" lon="-6.096350">
        <ele>1730.0</ele>
        <time>2019-05-04T13:03:38Z</time>
      </trkpt>
      <trkpt lat="39.021267" lon="-6.096367">
        <ele>1729.0</ele>
        <time>2019-05-04T13:03:39Z</time>
      </trkpt>
      <trkpt lat="39.021150" lon="-6.096367">
        <ele>1727.0</ele>
        <time>2019-05-04T13:03:40Z</time>
      </trkpt>
      <trkpt lat="39.021017" lon="-6.096367">
        <ele>1724.0</ele>
        <time>2019-05-04T13:03:41Z</time>
      </trkpt>
      <trkpt lat="39.020883" lon="-6.096383">
        <ele>1721.0</ele>
        <time>2019-05-04T13:03:42Z</time>
      </trkpt>
      <trkpt lat="39.020750" lon="-6.096400">
        <ele>1719.0</ele>
        <time>2019-05-04T13:03:43Z</time>
      </trkpt>
      <trkpt lat="39.020633" lon="-6.096417">
        <ele>1718.0</ele>
        <time>2019-05-04T13:03:44Z</time>
      </trkpt>
      <trkpt lat="39.020517" lon="-6.096417">
        <ele>1717.0</ele>
        <time>2019-05-04T13:03:45Z</time>
      </trkpt>
      <trkpt lat="39.020400" lon="-6.096433">
        <ele>1715.0</ele>
        <time>2019-05-04T13:03:46Z</time>
      </trkpt>
      <trkpt lat="39.020283" lon="-6.096433">
        <ele>1713.0</ele>
        <time>2019-05-04T13:03:47Z</time>
      </trkpt>
      <trkpt lat="39.020150" lon="-6.096450">
        <ele>1711.0</ele>
        <time>2019-05-04T13:03:48Z</time>
      </trkpt>
      <trkpt lat="39.020033" lon="-6.096450">
        <ele>1709.0</ele>
        <time>2019-05-04T13:03:49Z</time>
      </trkpt>
      <trkpt lat="39.019933" lon="-6.096467">
        <ele>1708.0</ele>
        <time>2019-05-04T13:03:50Z</time>
      </trkpt>
      <trkpt lat="39.019833" lon="-6.096483">
        <ele>1707.0</ele>
        <time>2019-05-04T13:03:51Z</time>
      </trkpt>
      <trkpt lat="39.019717" lon="-6.096500">
        <ele>1705.0</ele>
        <time>2019-05-04T13:03:52Z</time>
      </trkpt>
      <trkpt lat="39.019617" lon="-6.096517">
        <ele>1703.0</ele>
        <time>2019-05-04T13:03:53Z</time>
      </trkpt>
      <trkpt lat="39.019500" lon="-6.096517">
        <ele>1700.0</ele>
        <time>2019-05-04T13:03:54Z</time>
      </trkpt>
      <trkpt lat="39.019383" lon="-6.096517">
        <ele>1698.0</ele>
        <time>2019-05-04T13:03:55Z</time>
      </trkpt>
      <trkpt lat="39.019267" lon="-6.096517">
        <ele>1696.0</ele>
        <time>2019-05-04T13:03:56Z</time>
      </trkpt>
      <trkpt lat="39.019167" lon="-6.096533">
        <ele>1694.0</ele>
        <time>2019-05-04T13:03:57Z</time>
      </trkpt>
      <trkpt lat="39.019083" lon="-6.096550">
        <ele>1692.0</ele>
        <time>2019-05-04T13:03:58Z</time>
      </trkpt>
      <trkpt lat="39.018983" lon="-6.096567">
        <ele>1690.0</ele>
        <time>2019-05-04T13:03:59Z</time>
      </trkpt>
      <trkpt lat="39.018883" lon="-6.096583">
        <ele>1687.0</ele>
        <time>2019-05-04T13:04:00Z</time>
      </trkpt>
      <trkpt lat="39.018767" lon="-6.096583">
        <ele>1684.0</ele>
        <time>2019-05-04T13:04:01Z</time>
      </trkpt>
      <trkpt lat="39.018667" lon="-6.096600">
        <ele>1681.0</ele>
        <time>2019-05-04T13:04:02Z</time>
      </trkpt>
      <trkpt lat="39.018550" lon="-6.096617">
        <ele>1678.0</ele>
        <time>2019-05-04T13:04:03Z</time>
      </trkpt>
      <trkpt lat="39.018450" lon="-6.096633">
        <ele>1676.0</ele>
        <time>2019-05-04T13:04:04Z</time>
      </trkpt>
      <trkpt lat="39.018333" lon="-6.096650">
        <ele>1674.0</ele>
        <time>2019-05-04T13:04:05Z</time>
      </trkpt>
      <trkpt lat="39.018233" lon="-6.096650">
        <ele>1671.0</ele>
        <time>2019-05-04T13:04:06Z</time>
      </trkpt>
      <trkpt lat="39.018117" lon="-6.096650">
        <ele>1669.0</ele>
        <time>2019-05-04T13:04:07Z</time>
      </trkpt>
      <trkpt lat="39.018000" lon="-6.096650">
        <ele>1666.0</ele>
        <time>2019-05-04T13:04:08Z</time>
      </trkpt>
      <trkpt lat="39.017883" lon="-6.096650">
        <ele>1662.0</ele>
        <time>2019-05-04T13:04:09Z</time>
      </trkpt>
      <trkpt lat="39.017767" lon="-6.096650">
        <ele>1659.0</ele>
        <time>2019-05-04T13:04:10Z</time>
      </trkpt>
      <trkpt lat="39.017650" lon="-6.096667">
        <ele>1655.0</ele>
        <time>2019-05-04T13:04:11Z</time>
      </trkpt>
      <trkpt lat="39.017533" lon="-6.096683">
        <ele>1652.0</ele>
        <time>2019-05-04T13:04:12Z</time>
      </trkpt>
      <trkpt lat="39.017417" lon="-6.096733">
        <ele>1649.0</ele>
        <time>2019-05-04T13:04:13Z</time>
      </trkpt>
      <trkpt lat="39.017300" lon="-6.096783">
        <ele>1646.0</ele>
        <time>2019-05-04T13:04:14Z</time>
      </trkpt>
      <trkpt lat="39.017200" lon="-6.096833">
        <ele>1643.0</ele>
        <time>2019-05-04T13:04:15Z</time>
      </trkpt>
      <trkpt lat="39.017100" lon="-6.096883">
        <ele>1641.0</ele>
        <time>2019-05-04T13:04:16Z</time>
      </trkpt>
      <trkpt lat="39.016983" lon="-6.096933">
        <ele>1638.0</ele>
        <time>2019-05-04T13:04:17Z</time>
      </trkpt>
      <trkpt lat="39.016883" lon="-6.096983">
        <ele>1636.0</ele>
        <time>2019-05-04T13:04:18Z</time>
      </trkpt>
      <trkpt lat="39.016783" lon="-6.097050">
        <ele>1634.0</ele>
        <time>2019-05-04T13:04:19Z</time>
      </trkpt>
      <trkpt lat="39.016700" lon="-6.097100">
        <ele>1632.0</ele>
        <time>2019-05-04T13:04:20Z</time>
      </trkpt>
      <trkpt lat="39.016600" lon="-6.097167">
        <ele>1630.0</ele>
        <time>2019-05-04T13:04:21Z</time>
      </trkpt>
      <trkpt lat="39.016517" lon="-6.097233">
        <ele>1627.0</ele>
        <time>2019-05-04T13:04:22Z</time>
      </trkpt>
      <trkpt lat="39.016417" lon="-6.097300">
        <ele>1625.0</ele>
        <time>2019-05-04T13:04:23Z</time>
      </trkpt>
      <trkpt lat="39.016317" lon="-6.097367">
        <ele>1622.0</ele>
        <time>2019-05-04T13:04:24Z</time>
      </trkpt>
      <trkpt lat="39.016217" lon="-6.097433">
        <ele>1620.0</ele>
        <time>2019-05-04T13:04:25Z</time>
      </trkpt>
      <trkpt lat="39.016117" lon="-6.097483">
        <ele>1617.0</ele>
        <time>2019-05-04T13:04:26Z</time>
      </trkpt>
      <trkpt lat="39.016017" lon="-6.097533">
        <ele>1615.0</ele>
        <time>2019-05-04T13:04:27Z</time>
      </trkpt>
      <trkpt lat="39.015900" lon="-6.097583">
        <ele>1612.0</ele>
        <time>2019-05-04T13:04:28Z</time>
      </trkpt>
      <trkpt lat="39.015800" lon="-6.097633">
        <ele>1610.0</ele>
        <time>2019-05-04T13:04:29Z</time>
      </trkpt>
      <trkpt lat="39.015683" lon="-6.097667">
        <ele>1607.0</ele>
        <time>2019-05-04T13:04:30Z</time>
      </trkpt>
      <trkpt lat="39.015567" lon="-6.097700">
        <ele>1605.0</ele>
        <time>2019-05-04T13:04:31Z</time>
      </trkpt>
      <trkpt lat="39.015450" lon="-6.097750">
        <ele>1603.0</ele>
        <time>2019-05-04T13:04:32Z</time>
      </trkpt>
      <trkpt lat="39.015350" lon="-6.097800">
        <ele>1601.0</ele>
        <time>2019-05-04T13:04:33Z</time>
      </trkpt>
      <trkpt lat="39.015233" lon="-6.097850">
        <ele>1599.0</ele>
        <time>2019-05-04T13:04:34Z</time>
      </trkpt>
      <trkpt lat="39.015133" lon="-6.097900">
        <ele>1597.0</ele>
        <time>2019-05-04T13:04:35Z</time>
      </trkpt>
      <trkpt lat="39.015017" lon="-6.097950">
        <ele>1595.0</ele>
        <time>2019-05-04T13:04:36Z</time>
      </trkpt>
      <trkpt lat="39.014917" lon="-6.098017">
        <ele>1593.0</ele>
        <time>2019-05-04T13:04:37Z</time>
      </trkpt>
      <trkpt lat="39.014817" lon="-6.098067">
        <ele>1590.0</ele>
        <time>2019-05-04T13:04:38Z</time>
      </trkpt>
      <trkpt lat="39.014717" lon="-6.098133">
        <ele>1587.0</ele>
        <time>2019-05-04T13:04:39Z</time>
      </trkpt>
      <trkpt lat="39.014633" lon="-6.098200">
        <ele>1585.0</ele>
        <time>2019-05-04T13:04:40Z</time>
      </trkpt>
      <trkpt lat="39.014533" lon="-6.098267">
        <ele>1582.0</ele>
        <time>2019-05-04T13:04:41Z</time>
      </trkpt>
      <trkpt lat="39.014433" lon="-6.098317">
        <ele>1580.0</ele>
        <time>2019-05-04T13:04:42Z</time>
      </trkpt>
      <trkpt lat="39.014333" lon="-6.098367">
        <ele>1577.0</ele>
        <time>2019-05-04T13:04:43Z</time>
      </trkpt>
      <trkpt lat="39.014233" lon="-6.098417">
        <ele>1574.0</ele>
        <time>2019-05-04T13:04:44Z</time>
      </trkpt>
      <trkpt lat="39.014133" lon="-6.098483">
        <ele>1571.0</ele>
        <time>2019-05-04T13:04:45Z</time>
      </trkpt>
      <trkpt lat="39.014017" lon="-6.098533">
        <ele>1568.0</ele>
        <time>2019-05-04T13:04:46Z</time>
      </trkpt>
      <trkpt lat="39.013917" lon="-6.098567">
        <ele>1566.0</ele>
        <time>2019-05-04T13:04:47Z</time>
      </trkpt>
      <trkpt lat="39.013800" lon="-6.098583">
        <ele>1564.0</ele>
        <time>2019-05-04T13:04:48Z</time>
      </trkpt>
      <trkpt lat="39.013683" lon="-6.098600">
        <ele>1562.0</ele>
        <time>2019-05-04T13:04:49Z</time>
      </trkpt>
      <trkpt lat="39.013567" lon="-6.098633">
        <ele>1559.0</ele>
        <time>2019-05-04T13:04:50Z</time>
      </trkpt>
      <trkpt lat="39.013450" lon="-6.098667">
        <ele>1557.0</ele>
        <time>2019-05-04T13:04:51Z</time>
      </trkpt>
      <trkpt lat="39.013333" lon="-6.098700">
        <ele>1555.0</ele>
        <time>2019-05-04T13:04:52Z</time>
      </trkpt>
      <trkpt lat="39.013233" lon="-6.098717">
        <ele>1553.0</ele>
        <time>2019-05-04T13:04:53Z</time>
      </trkpt>
      <trkpt lat="39.013117" lon="-6.098750">
        <ele>1551.0</ele>
        <time>2019-05-04T13:04:54Z</time>
      </trkpt>
      <trkpt lat="39.013000" lon="-6.098767">
        <ele>1549.0</ele>
        <time>2019-05-04T13:04:55Z</time>
      </trkpt>
      <trkpt lat="39.012883" lon="-6.098800">
        <ele>1546.0</ele>
        <time>2019-05-04T13:04:56Z</time>
      </trkpt>
      <trkpt lat="39.012767" lon="-6.098833">
        <ele>1545.0</ele>
        <time>2019-05-04T13:04:57Z</time>
      </trkpt>
      <trkpt lat="39.012650" lon="-6.098867">
        <ele>1542.0</ele>
        <time>2019-05-04T13:04:58Z</time>
      </trkpt>
      <trkpt lat="39.012533" lon="-6.098917">
        <ele>1540.0</ele>
        <time>2019-05-04T13:04:59Z</time>
      </trkpt>
      <trkpt lat="39.012433" lon="-6.098950">
        <ele>1538.0</ele>
        <time>2019-05-04T13:05:00Z</time>
      </trkpt>
      <trkpt lat="39.012317" lon="-6.098983">
        <ele>1536.0</ele>
        <time>2019-05-04T13:05:01Z</time>
      </trkpt>
      <trkpt lat="39.012217" lon="-6.099000">
        <ele>1534.0</ele>
        <time>2019-05-04T13:05:02Z</time>
      </trkpt>
      <trkpt lat="39.012100" lon="-6.099033">
        <ele>1532.0</ele>
        <time>2019-05-04T13:05:03Z</time>
      </trkpt>
      <trkpt lat="39.011983" lon="-6.099083">
        <ele>1529.0</ele>
        <time>2019-05-04T13:05:04Z</time>
      </trkpt>
      <trkpt lat="39.011883" lon="-6.099117">
        <ele>1527.0</ele>
        <time>2019-05-04T13:05:05Z</time>
      </trkpt>
      <trkpt lat="39.011767" lon="-6.099167">
        <ele>1525.0</ele>
        <time>2019-05-04T13:05:06Z</time>
      </trkpt>
      <trkpt lat="39.011667" lon="-6.099217">
        <ele>1522.0</ele>
        <time>2019-05-04T13:05:07Z</time>
      </trkpt>
      <trkpt lat="39.011567" lon="-6.099267">
        <ele>1521.0</ele>
        <time>2019-05-04T13:05:08Z</time>
      </trkpt>
      <trkpt lat="39.011467" lon="-6.099300">
        <ele>1519.0</ele>
        <time>2019-05-04T13:05:09Z</time>
      </trkpt>
      <trkpt lat="39.011350" lon="-6.099350">
        <ele>1517.0</ele>
        <time>2019-05-04T13:05:10Z</time>
      </trkpt>
      <trkpt lat="39.011250" lon="-6.099367">
        <ele>1515.0</ele>
        <time>2019-05-04T13:05:11Z</time>
      </trkpt>
      <trkpt lat="39.011150" lon="-6.099400">
        <ele>1513.0</ele>
        <time>2019-05-04T13:05:12Z</time>
      </trkpt>
      <trkpt lat="39.011033" lon="-6.099417">
        <ele>1510.0</ele>
        <time>2019-05-04T13:05:13Z</time>
      </trkpt>
      <trkpt lat="39.010917" lon="-6.099467">
        <ele>1508.0</ele>
        <time>2019-05-04T13:05:14Z</time>
      </trkpt>
      <trkpt lat="39.010817" lon="-6.099500">
        <ele>1505.0</ele>
        <time>2019-05-04T13:05:15Z</time>
      </trkpt>
      <trkpt lat="39.010717" lon="-6.099533">
        <ele>1502.0</ele>
        <time>2019-05-04T13:05:16Z</time>
      </trkpt>
      <trkpt lat="39.010600" lon="-6.099567">
        <ele>1500.0</ele>
        <time>2019-05-04T13:05:17Z</time>
      </trkpt>
      <trkpt lat="39.010483" lon="-6.099583">
        <ele>1498.0</ele>
        <time>2019-05-04T13:05:18Z</time>
      </trkpt>
      <trkpt lat="39.010367" lon="-6.099583">
        <ele>1496.0</ele>
        <time>2019-05-04T13:05:19Z</time>
      </trkpt>
      <trkpt lat="39.010250" lon="-6.099600">
        <ele>1494.0</ele>
        <time>2019-05-04T13:05:20Z</time>
      </trkpt>
      <trkpt lat="39.010150" lon="-6.099617">
        <ele>1492.0</ele>
        <time>2019-05-04T13:05:21Z</time>
      </trkpt>
      <trkpt lat="39.010033" lon="-6.099617">
        <ele>1489.0</ele>
        <time>2019-05-04T13:05:22Z</time>
      </trkpt>
      <trkpt lat="39.009917" lon="-6.099633">
        <ele>1487.0</ele>
        <time>2019-05-04T13:05:23Z</time>
      </trkpt>
      <trkpt lat="39.009800" lon="-6.099633">
        <ele>1484.0</ele>
        <time>2019-05-04T13:05:24Z</time>
      </trkpt>
      <trkpt lat="39.009683" lon="-6.099650">
        <ele>1481.0</ele>
        <time>2019-05-04T13:05:25Z</time>
      </trkpt>
      <trkpt lat="39.009583" lon="-6.099683">
        <ele>1477.0</ele>
        <time>2019-05-04T13:05:26Z</time>
      </trkpt>
      <trkpt lat="39.009483" lon="-6.099700">
        <ele>1474.0</ele>
        <time>2019-05-04T13:05:27Z</time>
      </trkpt>
      <trkpt lat="39.009367" lon="-6.099733">
        <ele>1470.0</ele>
        <time>2019-05-04T13:05:28Z</time>
      </trkpt>
      <trkpt lat="39.009250" lon="-6.099733">
        <ele>1466.0</ele>
        <time>2019-05-04T13:05:29Z</time>
      </trkpt>
      <trkpt lat="39.009150" lon="-6.099750">
        <ele>1463.0</ele>
        <time>2019-05-04T13:05:30Z</time>
      </trkpt>
      <trkpt lat="39.009033" lon="-6.099750">
        <ele>1460.0</ele>
        <time>2019-05-04T13:05:31Z</time>
      </trkpt>
      <trkpt lat="39.008933" lon="-6.099750">
        <ele>1458.0</ele>
        <time>2019-05-04T13:05:32Z</time>
      </trkpt>
      <trkpt lat="39.008833" lon="-6.099750">
        <ele>1456.0</ele>
        <time>2019-05-04T13:05:33Z</time>
      </trkpt>
      <trkpt lat="39.008733" lon="-6.099750">
        <ele>1454.0</ele>
        <time>2019-05-04T13:05:34Z</time>
      </trkpt>
      <trkpt lat="39.008617" lon="-6.099750">
        <ele>1451.0</ele>
        <time>2019-05-04T13:05:35Z</time>
      </trkpt>
      <trkpt lat="39.008500" lon="-6.099733">
        <ele>1449.0</ele>
        <time>2019-05-04T13:05:36Z</time>
      </trkpt>
      <trkpt lat="39.008383" lon="-6.099733">
        <ele>1448.0</ele>
        <time>2019-05-04T13:05:37Z</time>
      </trkpt>
      <trkpt lat="39.008283" lon="-6.099717">
        <ele>1447.0</ele>
        <time>2019-05-04T13:05:38Z</time>
      </trkpt>
      <trkpt lat="39.008167" lon="-6.099683">
        <ele>1446.0</ele>
        <time>2019-05-04T13:05:39Z</time>
      </trkpt>
      <trkpt lat="39.008050" lon="-6.099667">
        <ele>1445.0</ele>
        <time>2019-05-04T13:05:40Z</time>
      </trkpt>
      <trkpt lat="39.007950" lon="-6.099667">
        <ele>1443.0</ele>
        <time>2019-05-04T13:05:41Z</time>
      </trkpt>
      <trkpt lat="39.007833" lon="-6.099667">
        <ele>1443.0</ele>
        <time>2019-05-04T13:05:42Z</time>
      </trkpt>
      <trkpt lat="39.007733" lon="-6.099667">
        <ele>1442.0</ele>
        <time>2019-05-04T13:05:43Z</time>
      </trkpt>
      <trkpt lat="39.007633" lon="-6.099667">
        <ele>1441.0</ele>
        <time>2019-05-04T13:05:44Z</time>
      </trkpt>
      <trkpt lat="39.007533" lon="-6.099667">
        <ele>1441.0</ele>
        <time>2019-05-04T13:05:45Z</time>
      </trkpt>
      <trkpt lat="39.007417" lon="-6.099667">
        <ele>1439.0</ele>
        <time>2019-05-04T13:05:46Z</time>
      </trkpt>
      <trkpt lat="39.007300" lon="-6.099667">
        <ele>1438.0</ele>
        <time>2019-05-04T13:05:47Z</time>
      </trkpt>
      <trkpt lat="39.007183" lon="-6.099683">
        <ele>1437.0</ele>
        <time>2019-05-04T13:05:48Z</time>
      </trkpt>
      <trkpt lat="39.007083" lon="-6.099683">
        <ele>1437.0</ele>
        <time>2019-05-04T13:05:49Z</time>
      </trkpt>
      <trkpt lat="39.006967" lon="-6.099700">
        <ele>1437.0</ele>
        <time>2019-05-04T13:05:50Z</time>
      </trkpt>
      <trkpt lat="39.006867" lon="-6.099700">
        <ele>1436.0</ele>
        <time>2019-05-04T13:05:51Z</time>
      </trkpt>
      <trkpt lat="39.006750" lon="-6.099717">
        <ele>1434.0</ele>
        <time>2019-05-04T13:05:52Z</time>
      </trkpt>
      <trkpt lat="39.006633" lon="-6.099750">
        <ele>1432.0</ele>
        <time>2019-05-04T13:05:53Z</time>
      </trkpt>
      <trkpt lat="39.006517" lon="-6.099767">
        <ele>1429.0</ele>
        <time>2019-05-04T13:05:54Z</time>
      </trkpt>
      <trkpt lat="39.006400" lon="-6.099783">
        <ele>1427.0</ele>
        <time>2019-05-04T13:05:55Z</time>
      </trkpt>
      <trkpt lat="39.006267" lon="-6.099800">
        <ele>1426.0</ele>
        <time>2019-05-04T13:05:56Z</time>
      </trkpt>
      <trkpt lat="39.006150" lon="-6.099817">
        <ele>1424.0</ele>
        <time>2019-05-04T13:05:57Z</time>
      </trkpt>
      <trkpt lat="39.006033" lon="-6.099850">
        <ele>1423.0</ele>
        <time>2019-05-04T13:05:58Z</time>
      </trkpt>
      <trkpt lat="39.005917" lon="-6.099883">
        <ele>1421.0</ele>
        <time>2019-05-04T13:05:59Z</time>
      </trkpt>
      <trkpt lat="39.005800" lon="-6.099917">
        <ele>1420.0</ele>
        <time>2019-05-04T13:06:00Z</time>
      </trkpt>
      <trkpt lat="39.005683" lon="-6.099950">
        <ele>1419.0</ele>
        <time>2019-05-04T13:06:01Z</time>
      </trkpt>
      <trkpt lat="39.005567" lon="-6.099967">
        <ele>1417.0</ele>
        <time>2019-05-04T13:06:02Z</time>
      </trkpt>
      <trkpt lat="39.005467" lon="-6.099983">
        <ele>1416.0</ele>
        <time>2019-05-04T13:06:03Z</time>
      </trkpt>
      <trkpt lat="39.005350" lon="-6.100000">
        <ele>1415.0</ele>
        <time>2019-05-04T13:06:04Z</time>
      </trkpt>
      <trkpt lat="39.005233" lon="-6.100017">
        <ele>1413.0</ele>
        <time>2019-05-04T13:06:05Z</time>
      </trkpt>
      <trkpt lat="39.005117" lon="-6.100033">
        <ele>1411.0</ele>
        <time>2019-05-04T13:06:06Z</time>
      </trkpt>
      <trkpt lat="39.005000" lon="-6.100033">
        <ele>1409.0</ele>
        <time>2019-05-04T13:06:07Z</time>
      </trkpt>
      <trkpt lat="39.004883" lon="-6.100050">
        <ele>1408.0</ele>
        <time>2019-05-04T13:06:08Z</time>
      </trkpt>
      <trkpt lat="39.004767" lon="-6.100050">
        <ele>1407.0</ele>
        <time>2019-05-04T13:06:09Z</time>
      </trkpt>
      <trkpt lat="39.004667" lon="-6.100050">
        <ele>1405.0</ele>
        <time>2019-05-04T13:06:10Z</time>
      </trkpt>
      <trkpt lat="39.004550" lon="-6.100050">
        <ele>1403.0</ele>
        <time>2019-05-04T13:06:11Z</time>
      </trkpt>
      <trkpt lat="39.004450" lon="-6.100067">
        <ele>1402.0</ele>
        <time>2019-05-04T13:06:12Z</time>
      </trkpt>
      <trkpt lat="39.004350" lon="-6.100067">
        <ele>1400.0</ele>
        <time>2019-05-04T13:06:13Z</time>
      </trkpt>
      <trkpt lat="39.004233" lon="-6.100067">
        <ele>1399.0</ele>
        <time>2019-05-04T13:06:14Z</time>
      </trkpt>
      <trkpt lat="39.004133" lon="-6.100083">
        <ele>1397.0</ele>
        <time>2019-05-04T13:06:15Z</time>
      </trkpt>
      <trkpt lat="39.004033" lon="-6.100083">
        <ele>1395.0</ele>
        <time>2019-05-04T13:06:16Z</time>
      </trkpt>
      <trkpt lat="39.003933" lon="-6.100100">
        <ele>1393.0</ele>
        <time>2019-05-04T13:06:17Z</time>
      </trkpt>
      <trkpt lat="39.003833" lon="-6.100117">
        <ele>1391.0</ele>
        <time>2019-05-04T13:06:18Z</time>
      </trkpt>
      <trkpt lat="39.003733" lon="-6.100117">
        <ele>1389.0</ele>
        <time>2019-05-04T13:06:19Z</time>
      </trkpt>
      <trkpt lat="39.003633" lon="-6.100133">
        <ele>1386.0</ele>
        <time>2019-05-04T13:06:20Z</time>
      </trkpt>
      <trkpt lat="39.003533" lon="-6.100133">
        <ele>1384.0</ele>
        <time>2019-05-04T13:06:21Z</time>
      </trkpt>
      <trkpt lat="39.003433" lon="-6.100150">
        <ele>1382.0</ele>
        <time>2019-05-04T13:06:22Z</time>
      </trkpt>
      <trkpt lat="39.003350" lon="-6.100150">
        <ele>1380.0</ele>
        <time>2019-05-04T13:06:23Z</time>
      </trkpt>
      <trkpt lat="39.003250" lon="-6.100167">
        <ele>1377.0</ele>
        <time>2019-05-04T13:06:24Z</time>
      </trkpt>
      <trkpt lat="39.003150" lon="-6.100183">
        <ele>1375.0</ele>
        <time>2019-05-04T13:06:25Z</time>
      </trkpt>
      <trkpt lat="39.003050" lon="-6.100200">
        <ele>1372.0</ele>
        <time>2019-05-04T13:06:26Z</time>
      </trkpt>
      <trkpt lat="39.002950" lon="-6.100200">
        <ele>1370.0</ele>
        <time>2019-05-04T13:06:27Z</time>
      </trkpt>
      <trkpt lat="39.002850" lon="-6.100200">
        <ele>1368.0</ele>
        <time>2019-05-04T13:06:28Z</time>
      </trkpt>
      <trkpt lat="39.002767" lon="-6.100200">
        <ele>1367.0</ele>
        <time>2019-05-04T13:06:29Z</time>
      </trkpt>
      <trkpt lat="39.002683" lon="-6.100217">
        <ele>1366.0</ele>
        <time>2019-05-04T13:06:30Z</time>
      </trkpt>
      <trkpt lat="39.002583" lon="-6.100233">
        <ele>1364.0</ele>
        <time>2019-05-04T13:06:31Z</time>
      </trkpt>
      <trkpt lat="39.002483" lon="-6.100250">
        <ele>1362.0</ele>
        <time>2019-05-04T13:06:32Z</time>
      </trkpt>
      <trkpt lat="39.002400" lon="-6.100267">
        <ele>1360.0</ele>
        <time>2019-05-04T13:06:33Z</time>
      </trkpt>
      <trkpt lat="39.002317" lon="-6.100283">
        <ele>1358.0</ele>
        <time>2019-05-04T13:06:34Z</time>
      </trkpt>
      <trkpt lat="39.002217" lon="-6.100300">
        <ele>1356.0</ele>
        <time>2019-05-04T13:06:35Z</time>
      </trkpt>
      <trkpt lat="39.002117" lon="-6.100333">
        <ele>1355.0</ele>
        <time>2019-05-04T13:06:36Z</time>
      </trkpt>
      <trkpt lat="39.002033" lon="-6.100350">
        <ele>1353.0</ele>
        <time>2019-05-04T13:06:37Z</time>
      </trkpt>
      <trkpt lat="39.001950" lon="-6.100367">
        <ele>1351.0</ele>
        <time>2019-05-04T13:06:38Z</time>
      </trkpt>
      <trkpt lat="39.001850" lon="-6.100383">
        <ele>1349.0</ele>
        <time>2019-05-04T13:06:39Z</time>
      </trkpt>
      <trkpt lat="39.001750" lon="-6.100417">
        <ele>1348.0</ele>
        <time>2019-05-04T13:06:40Z</time>
      </trkpt>
      <trkpt lat="39.001667" lon="-6.100433">
        <ele>1347.0</ele>
        <time>2019-05-04T13:06:41Z</time>
      </trkpt>
      <trkpt lat="39.001567" lon="-6.100433">
        <ele>1346.0</ele>
        <time>2019-05-04T13:06:42Z</time>
      </trkpt>
      <trkpt lat="39.001483" lon="-6.100450">
        <ele>1345.0</ele>
        <time>2019-05-04T13:06:43Z</time>
      </trkpt>
      <trkpt lat="39.001383" lon="-6.100450">
        <ele>1344.0</ele>
        <time>2019-05-04T13:06:44Z</time>
      </trkpt>
      <trkpt lat="39.001283" lon="-6.100467">
        <ele>1341.0</ele>
        <time>2019-05-04T13:06:45Z</time>
      </trkpt>
      <trkpt lat="39.001183" lon="-6.100483">
        <ele>1340.0</ele>
        <time>2019-05-04T13:06:46Z</time>
      </trkpt>
      <trkpt lat="39.001067" lon="-6.100483">
        <ele>1338.0</ele>
        <time>2019-05-04T13:06:47Z</time>
      </trkpt>
      <trkpt lat="39.000967" lon="-6.100483">
        <ele>1337.0</ele>
        <time>2019-05-04T13:06:48Z</time>
      </trkpt>
      <trkpt lat="39.000883" lon="-6.100467">
        <ele>1337.0</ele>
        <time>2019-05-04T13:06:49Z</time>
      </trkpt>
      <trkpt lat="39.000783" lon="-6.100433">
        <ele>1337.0</ele>
        <time>2019-05-04T13:06:50Z</time>
      </trkpt>
      <trkpt lat="39.000700" lon="-6.100400">
        <ele>1336.0</ele>
        <time>2019-05-04T13:06:51Z</time>
      </trkpt>
      <trkpt lat="39.000583" lon="-6.100367">
        <ele>1334.0</ele>
        <time>2019-05-04T13:06:52Z</time>
      </trkpt>
      <trkpt lat="39.000483" lon="-6.100333">
        <ele>1333.0</ele>
        <time>2019-05-04T13:06:53Z</time>
      </trkpt>
      <trkpt lat="39.000383" lon="-6.100317">
        <ele>1334.0</ele>
        <time>2019-05-04T13:06:54Z</time>
      </trkpt>
      <trkpt lat="39.000300" lon="-6.100283">
        <ele>1336.0</ele>
        <time>2019-05-04T13:06:55Z</time>
      </trkpt>
      <trkpt lat="39.000217" lon="-6.100250">
        <ele>1338.0</ele>
        <time>2019-05-04T13:06:56Z</time>
      </trkpt>
      <trkpt lat="39.000133" lon="-6.100217">
        <ele>1340.0</ele>
        <time>2019-05-04T13:06:57Z</time>
      </trkpt>
      <trkpt lat="39.000067" lon="-6.100183">
        <ele>1341.0</ele>
        <time>2019-05-04T13:06:58Z</time>
      </trkpt>
      <trkpt lat="38.999983" lon="-6.100150">
        <ele>1343.0</ele>
        <time>2019-05-04T13:06:59Z</time>
      </trkpt>
      <trkpt lat="38.999900" lon="-6.100150">
        <ele>1344.0</ele>
        <time>2019-05-04T13:07:00Z</time>
      </trkpt>
      <trkpt lat="38.999833" lon="-6.100200">
        <ele>1346.0</ele>
        <time>2019-05-04T13:07:01Z</time>
      </trkpt>
      <trkpt lat="38.999800" lon="-6.100283">
        <ele>1347.0</ele>
        <time>2019-05-04T13:07:02Z</time>
      </trkpt>
      <trkpt lat="38.999783" lon="-6.100383">
        <ele>1348.0</ele>
        <time>2019-05-04T13:07:03Z</time>
      </trkpt>
      <trkpt lat="38.999800" lon="-6.100483">
        <ele>1349.0</ele>
        <time>2019-05-04T13:07:04Z</time>
      </trkpt>
      <trkpt lat="38.999850" lon="-6.100550">
        <ele>1348.0</ele>
        <time>2019-05-04T13:07:05Z</time>
      </trkpt>
      <trkpt lat="38.999917" lon="-6.100600">
        <ele>1347.0</ele>
        <time>2019-05-04T13:07:06Z</time>
      </trkpt>
      <trkpt lat="38.999983" lon="-6.100617">
        <ele>1347.0</ele>
        <time>2019-05-04T13:07:07Z</time>
      </trkpt>
      <trkpt lat="39.000067" lon="-6.100633">
        <ele>1346.0</ele>
        <time>2019-05-04T13:07:08Z</time>
      </trkpt>
      <trkpt lat="39.000150" lon="-6.100617">
        <ele>1346.0</ele>
        <time>2019-05-04T13:07:09Z</time>
      </trkpt>
      <trkpt lat="39.000217" lon="-6.100550">
        <ele>1346.0</ele>
        <time>2019-05-04T13:07:10Z</time>
      </trkpt>
      <trkpt lat="39.000267" lon="-6.100433">
        <ele>1346.0</ele>
        <time>2019-05-04T13:07:11Z</time>
      </trkpt>
      <trkpt lat="39.000283" lon="-6.100317">
        <ele>1347.0</ele>
        <time>2019-05-04T13:07:12Z</time>
      </trkpt>
      <trkpt lat="39.000267" lon="-6.100200">
        <ele>1347.0</ele>
        <time>2019-05-04T13:07:13Z</time>
      </trkpt>
      <trkpt lat="39.000250" lon="-6.100100">
        <ele>1349.0</ele>
        <time>2019-05-04T13:07:14Z</time>
      </trkpt>
      <trkpt lat="39.000233" lon="-6.100000">
        <ele>1350.0</ele>
        <time>2019-05-04T13:07:15Z</time>
      </trkpt>
      <trkpt lat="39.000200" lon="-6.099917">
        <ele>1351.0</ele>
        <time>2019-05-04T13:07:16Z</time>
      </trkpt>
      <trkpt lat="39.000150" lon="-6.099817">
        <ele>1351.0</ele>
        <time>2019-05-04T13:07:17Z</time>
      </trkpt>
      <trkpt lat="39.000083" lon="-6.099717">
        <ele>1350.0</ele>
        <time>2019-05-04T13:07:18Z</time>
      </trkpt>
      <trkpt lat="39.000000" lon="-6.099650">
        <ele>1348.0</ele>
        <time>2019-05-04T13:07:19Z</time>
      </trkpt>
      <trkpt lat="38.999917" lon="-6.099600">
        <ele>1346.0</ele>
        <time>2019-05-04T13:07:20Z</time>
      </trkpt>
      <trkpt lat="38.999833" lon="-6.099567">
        <ele>1345.0</ele>
        <time>2019-05-04T13:07:21Z</time>
      </trkpt>
      <trkpt lat="38.999733" lon="-6.099550">
        <ele>1344.0</ele>
        <time>2019-05-04T13:07:22Z</time>
      </trkpt>
      <trkpt lat="38.999650" lon="-6.099533">
        <ele>1343.0</ele>
        <time>2019-05-04T13:07:23Z</time>
      </trkpt>
      <trkpt lat="38.999550" lon="-6.099517">
        <ele>1342.0</ele>
        <time>2019-05-04T13:07:24Z</time>
      </trkpt>
      <trkpt lat="38.999467" lon="-6.099500">
        <ele>1342.0</ele>
        <time>2019-05-04T13:07:25Z</time>
      </trkpt>
      <trkpt lat="38.999350" lon="-6.099417">
        <ele>1341.0</ele>
        <time>2019-05-04T13:07:26Z</time>
      </trkpt>
      <trkpt lat="38.998917" lon="-6.099333">
        <ele>0.0</ele>
        <time>2019-05-04T13:07:29Z</time>
      </trkpt>
      <trkpt lat="38.998867" lon="-6.099350">
        <ele>1341.0</ele>
        <time>2019-05-04T13:07:30Z</time>
      </trkpt>
      <trkpt lat="38.998800" lon="-6.099300">
        <ele>1341.0</ele>
        <time>2019-05-04T13:07:31Z</time>
      </trkpt>
      <trkpt lat="38.998733" lon="-6.099250">
        <ele>1338.0</ele>
        <time>2019-05-04T13:07:32Z</time>
      </trkpt>
      <trkpt lat="38.998633" lon="-6.099200">
        <ele>1336.0</ele>
        <time>2019-05-04T13:07:33Z</time>
      </trkpt>
      <trkpt lat="38.998517" lon="-6.099167">
        <ele>1334.0</ele>
        <time>2019-05-04T13:07:34Z</time>
      </trkpt>
      <trkpt lat="38.998417" lon="-6.099133">
        <ele>1333.0</ele>
        <time>2019-05-04T13:07:35Z</time>
      </trkpt>
      <trkpt lat="38.998333" lon="-6.099117">
        <ele>1332.0</ele>
        <time>2019-05-04T13:07:36Z</time>
      </trkpt>
      <trkpt lat="38.998250" lon="-6.099100">
        <ele>1331.0</ele>
        <time>2019-05-04T13:07:37Z</time>
      </trkpt>
      <trkpt lat="38.998183" lon="-6.099067">
        <ele>1329.0</ele>
        <time>2019-05-04T13:07:38Z</time>
      </trkpt>
      <trkpt lat="38.998117" lon="-6.099033">
        <ele>1326.0</ele>
        <time>2019-05-04T13:07:39Z</time>
      </trkpt>
      <trkpt lat="38.998017" lon="-6.098983">
        <ele>1324.0</ele>
        <time>2019-05-04T13:07:40Z</time>
      </trkpt>
      <trkpt lat="38.997917" lon="-6.098950">
        <ele>1319.0</ele>
        <time>2019-05-04T13:07:41Z</time>
      </trkpt>
      <trkpt lat="38.997817" lon="-6.098917">
        <ele>1314.0</ele>
        <time>2019-05-04T13:07:42Z</time>
      </trkpt>
      <trkpt lat="38.997717" lon="-6.098883">
        <ele>1312.0</ele>
        <time>2019-05-04T13:07:43Z</time>
      </trkpt>
      <trkpt lat="38.997633" lon="-6.098867">
        <ele>1311.0</ele>
        <time>2019-05-04T13:07:44Z</time>
      </trkpt>
      <trkpt lat="38.997567" lon="-6.098833">
        <ele>1309.0</ele>
        <time>2019-05-04T13:07:45Z</time>
      </trkpt>
      <trkpt lat="38.997483" lon="-6.098817">
        <ele>1306.0</ele>
        <time>2019-05-04T13:07:46Z</time>
      </trkpt>
      <trkpt lat="38.997383" lon="-6.098767">
        <ele>1302.0</ele>
        <time>2019-05-04T13:07:47Z</time>
      </trkpt>
      <trkpt lat="38.997283" lon="-6.098717">
        <ele>1298.0</ele>
        <time>2019-05-04T13:07:48Z</time>
      </trkpt>
      <trkpt lat="38.997200" lon="-6.098667">
        <ele>1296.0</ele>
        <time>2019-05-04T13:07:49Z</time>
      </trkpt>
      <trkpt lat="38.997100" lon="-6.098633">
        <ele>1294.0</ele>
        <time>2019-05-04T13:07:50Z</time>
      </trkpt>
      <trkpt lat="38.997017" lon="-6.098600">
        <ele>1292.0</ele>
        <time>2019-05-04T13:07:51Z</time>
      </trkpt>
      <trkpt lat="38.996933" lon="-6.098567">
        <ele>1289.0</ele>
        <time>2019-05-04T13:07:52Z</time>
      </trkpt>
      <trkpt lat="38.996850" lon="-6.098517">
        <ele>1285.0</ele>
        <time>2019-05-04T13:07:53Z</time>
      </trkpt>
      <trkpt lat="38.996750" lon="-6.098483">
        <ele>1281.0</ele>
        <time>2019-05-04T13:07:54Z</time>
      </trkpt>
      <trkpt lat="38.996650" lon="-6.098433">
        <ele>1278.0</ele>
        <time>2019-05-04T13:07:55Z</time>
      </trkpt>
      <trkpt lat="38.996567" lon="-6.098383">
        <ele>1276.0</ele>
        <time>2019-05-04T13:07:56Z</time>
      </trkpt>
      <trkpt lat="38.996500" lon="-6.098333">
        <ele>1273.0</ele>
        <time>2019-05-04T13:07:57Z</time>
      </trkpt>
      <trkpt lat="38.996417" lon="-6.098283">
        <ele>1270.0</ele>
        <time>2019-05-04T13:07:58Z</time>
      </trkpt>
      <trkpt lat="38.996333" lon="-6.098217">
        <ele>1267.0</ele>
        <time>2019-05-04T13:07:59Z</time>
      </trkpt>
      <trkpt lat="38.996233" lon="-6.098150">
        <ele>1264.0</ele>
        <time>2019-05-04T13:08:00Z</time>
      </trkpt>
      <trkpt lat="38.996133" lon="-6.098100">
        <ele>1262.0</ele>
        <time>2019-05-04T13:08:01Z</time>
      </trkpt>
      <trkpt lat="38.996050" lon="-6.098050">
        <ele>1261.0</ele>
        <time>2019-05-04T13:08:02Z</time>
      </trkpt>
      <trkpt lat="38.995967" lon="-6.098000">
        <ele>1262.0</ele>
        <time>2019-05-04T13:08:03Z</time>
      </trkpt>
      <trkpt lat="38.995883" lon="-6.097950">
        <ele>1263.0</ele>
        <time>2019-05-04T13:08:04Z</time>
      </trkpt>
      <trkpt lat="38.995800" lon="-6.097883">
        <ele>1265.0</ele>
        <time>2019-05-04T13:08:05Z</time>
      </trkpt>
      <trkpt lat="38.995717" lon="-6.097850">
        <ele>1266.0</ele>
        <time>2019-05-04T13:08:06Z</time>
      </trkpt>
      <trkpt lat="38.995633" lon="-6.097800">
        <ele>1268.0</ele>
        <time>2019-05-04T13:08:07Z</time>
      </trkpt>
      <trkpt lat="38.995567" lon="-6.097783">
        <ele>1269.0</ele>
        <time>2019-05-04T13:08:08Z</time>
      </trkpt>
      <trkpt lat="38.995483" lon="-6.097750">
        <ele>1271.0</ele>
        <time>2019-05-04T13:08:09Z</time>
      </trkpt>
      <trkpt lat="38.995400" lon="-6.097733">
        <ele>1271.0</ele>
        <time>2019-05-04T13:08:10Z</time>
      </trkpt>
      <trkpt lat="38.995317" lon="-6.097733">
        <ele>1272.0</ele>
        <time>2019-05-04T13:08:11Z</time>
      </trkpt>
      <trkpt lat="38.995233" lon="-6.097767">
        <ele>1272.0</ele>
        <time>2019-05-04T13:08:12Z</time>
      </trkpt>
      <trkpt lat="38.995167" lon="-6.097817">
        <ele>1273.0</ele>
        <time>2019-05-04T13:08:13Z</time>
      </trkpt>
      <trkpt lat="38.995133" lon="-6.097917">
        <ele>1274.0</ele>
        <time>2019-05-04T13:08:14Z</time>
      </trkpt>
      <trkpt lat="38.995133" lon="-6.098017">
        <ele>1275.0</ele>
        <time>2019-05-04T13:08:15Z</time>
      </trkpt>
      <trkpt lat="38.995167" lon="-6.098083">
        <ele>1275.0</ele>
        <time>2019-05-04T13:08:16Z</time>
      </trkpt>
      <trkpt lat="38.995250" lon="-6.098133">
        <ele>1276.0</ele>
        <time>2019-05-04T13:08:17Z</time>
      </trkpt>
      <trkpt lat="38.995333" lon="-6.098117">
        <ele>1276.0</ele>
        <time>2019-05-04T13:08:18Z</time>
      </trkpt>
      <trkpt lat="38.995400" lon="-6.098067">
        <ele>1276.0</ele>
        <time>2019-05-04T13:08:19Z</time>
      </trkpt>
      <trkpt lat="38.995450" lon="-6.097983">
        <ele>1277.0</ele>
        <time>2019-05-04T13:08:20Z</time>
      </trkpt>
      <trkpt lat="38.995467" lon="-6.097883">
        <ele>1278.0</ele>
        <time>2019-05-04T13:08:21Z</time>
      </trkpt>
      <trkpt lat="38.995467" lon="-6.097783">
        <ele>1279.0</ele>
        <time>2019-05-04T13:08:22Z</time>
      </trkpt>
      <trkpt lat="38.995433" lon="-6.097683">
        <ele>1280.0</ele>
        <time>2019-05-04T13:08:23Z</time>
      </trkpt>
      <trkpt lat="38.995400" lon="-6.097583">
        <ele>1280.0</ele>
        <time>2019-05-04T13:08:24Z</time>
      </trkpt>
      <trkpt lat="38.995317" lon="-6.097500">
        <ele>1280.0</ele>
        <time>2019-05-04T13:08:25Z</time>
      </trkpt>
      <trkpt lat="38.995233" lon="-6.097433">
        <ele>1280.0</ele>
        <time>2019-05-04T13:08:26Z</time>
      </trkpt>
      <trkpt lat="38.995150" lon="-6.097417">
        <ele>1281.0</ele>
        <time>2019-05-04T13:08:27Z</time>
      </trkpt>
      <trkpt lat="38.995067" lon="-6.097417">
        <ele>1282.0</ele>
        <time>2019-05-04T13:08:28Z</time>
      </trkpt>
      <trkpt lat="38.995000" lon="-6.097400">
        <ele>1283.0</ele>
        <time>2019-05-04T13:08:29Z</time>
      </trkpt>
      <trkpt lat="38.994917" lon="-6.097383">
        <ele>1285.0</ele>
        <time>2019-05-04T13:08:30Z</time>
      </trkpt>
      <trkpt lat="38.994850" lon="-6.097383">
        <ele>1286.0</ele>
        <time>2019-05-04T13:08:31Z</time>
      </trkpt>
      <trkpt lat="38.994750" lon="-6.097400">
        <ele>1286.0</ele>
        <time>2019-05-04T13:08:32Z</time>
      </trkpt>
      <trkpt lat="38.994667" lon="-6.097433">
        <ele>1286.0</ele>
        <time>2019-05-04T13:08:33Z</time>
      </trkpt>
      <trkpt lat="38.994567" lon="-6.097450">
        <ele>1286.0</ele>
        <time>2019-05-04T13:08:34Z</time>
      </trkpt>
      <trkpt lat="38.994483" lon="-6.097483">
        <ele>1287.0</ele>
        <time>2019-05-04T13:08:35Z</time>
      </trkpt>
      <trkpt lat="38.994400" lon="-6.097500">
        <ele>1288.0</ele>
        <time>2019-05-04T13:08:36Z</time>
      </trkpt>
      <trkpt lat="38.994300" lon="-6.097517">
        <ele>1288.0</ele>
        <time>2019-05-04T13:08:37Z</time>
      </trkpt>
      <trkpt lat="38.994200" lon="-6.097533">
        <ele>1287.0</ele>
        <time>2019-05-04T13:08:38Z</time>
      </trkpt>
      <trkpt lat="38.994100" lon="-6.097550">
        <ele>1286.0</ele>
        <time>2019-05-04T13:08:39Z</time>
      </trkpt>
      <trkpt lat="38.994017" lon="-6.097583">
        <ele>1286.0</ele>
        <time>2019-05-04T13:08:40Z</time>
      </trkpt>
      <trkpt lat="38.993917" lon="-6.097600">
        <ele>1286.0</ele>
        <time>2019-05-04T13:08:41Z</time>
      </trkpt>
      <trkpt lat="38.993833" lon="-6.097617">
        <ele>1286.0</ele>
        <time>2019-05-04T13:08:42Z</time>
      </trkpt>
      <trkpt lat="38.993750" lon="-6.097617">
        <ele>1285.0</ele>
        <time>2019-05-04T13:08:43Z</time>
      </trkpt>
      <trkpt lat="38.993667" lon="-6.097617">
        <ele>1283.0</ele>
        <time>2019-05-04T13:08:44Z</time>
      </trkpt>
      <trkpt lat="38.993567" lon="-6.097600">
        <ele>1280.0</ele>
        <time>2019-05-04T13:08:45Z</time>
      </trkpt>
      <trkpt lat="38.993467" lon="-6.097583">
        <ele>1278.0</ele>
        <time>2019-05-04T13:08:46Z</time>
      </trkpt>
      <trkpt lat="38.993367" lon="-6.097583">
        <ele>1276.0</ele>
        <time>2019-05-04T13:08:47Z</time>
      </trkpt>
      <trkpt lat="38.993267" lon="-6.097567">
        <ele>1276.0</ele>
        <time>2019-05-04T13:08:48Z</time>
      </trkpt>
      <trkpt lat="38.993183" lon="-6.097533">
        <ele>1274.0</ele>
        <time>2019-05-04T13:08:49Z</time>
      </trkpt>
      <trkpt lat="38.993100" lon="-6.097483">
        <ele>1272.0</ele>
        <time>2019-05-04T13:08:50Z</time>
      </trkpt>
      <trkpt lat="38.993000" lon="-6.097433">
        <ele>1269.0</ele>
        <time>2019-05-04T13:08:51Z</time>
      </trkpt>
      <trkpt lat="38.992917" lon="-6.097383">
        <ele>1267.0</ele>
        <time>2019-05-04T13:08:52Z</time>
      </trkpt>
      <trkpt lat="38.992817" lon="-6.097350">
        <ele>1265.0</ele>
        <time>2019-05-04T13:08:53Z</time>
      </trkpt>
      <trkpt lat="38.992717" lon="-6.097317">
        <ele>1263.0</ele>
        <time>2019-05-04T13:08:54Z</time>
      </trkpt>
      <trkpt lat="38.992633" lon="-6.097283">
        <ele>1262.0</ele>
        <time>2019-05-04T13:08:55Z</time>
      </trkpt>
      <trkpt lat="38.992550" lon="-6.097233">
        <ele>1260.0</ele>
        <time>2019-05-04T13:08:56Z</time>
      </trkpt>
      <trkpt lat="38.992450" lon="-6.097167">
        <ele>1257.0</ele>
        <time>2019-05-04T13:08:57Z</time>
      </trkpt>
      <trkpt lat="38.992367" lon="-6.097117">
        <ele>1255.0</ele>
        <time>2019-05-04T13:08:58Z</time>
      </trkpt>
      <trkpt lat="38.992267" lon="-6.097083">
        <ele>1253.0</ele>
        <time>2019-05-04T13:08:59Z</time>
      </trkpt>
      <trkpt lat="38.992183" lon="-6.097050">
        <ele>1251.0</ele>
        <time>2019-05-04T13:09:00Z</time>
      </trkpt>
      <trkpt lat="38.992100" lon="-6.097017">
        <ele>1249.0</ele>
        <time>2019-05-04T13:09:01Z</time>
      </trkpt>
      <trkpt lat="38.992017" lon="-6.096983">
        <ele>1246.0</ele>
        <time>2019-05-04T13:09:02Z</time>
      </trkpt>
      <trkpt lat="38.991917" lon="-6.096933">
        <ele>1243.0</ele>
        <time>2019-05-04T13:09:03Z</time>
      </trkpt>
      <trkpt lat="38.991817" lon="-6.096867">
        <ele>1240.0</ele>
        <time>2019-05-04T13:09:04Z</time>
      </trkpt>
      <trkpt lat="38.991717" lon="-6.096800">
        <ele>1239.0</ele>
        <time>2019-05-04T13:09:05Z</time>
      </trkpt>
      <trkpt lat="38.991633" lon="-6.096750">
        <ele>1237.0</ele>
        <time>2019-05-04T13:09:06Z</time>
      </trkpt>
      <trkpt lat="38.991550" lon="-6.096717">
        <ele>1237.0</ele>
        <time>2019-05-04T13:09:07Z</time>
      </trkpt>
      <trkpt lat="38.991467" lon="-6.096683">
        <ele>1235.0</ele>
        <time>2019-05-04T13:09:08Z</time>
      </trkpt>
      <trkpt lat="38.991383" lon="-6.096633">
        <ele>1232.0</ele>
        <time>2019-05-04T13:09:09Z</time>
      </trkpt>
      <trkpt lat="38.991300" lon="-6.096583">
        <ele>1229.0</ele>
        <time>2019-05-04T13:09:10Z</time>
      </trkpt>
      <trkpt lat="38.991183" lon="-6.096517">
        <ele>1225.0</ele>
        <time>2019-05-04T13:09:11Z</time>
      </trkpt>
      <trkpt lat="38.991083" lon="-6.096450">
        <ele>1222.0</ele>
        <time>2019-05-04T13:09:12Z</time>
      </trkpt>
      <trkpt lat="38.991000" lon="-6.096367">
        <ele>1221.0</ele>
        <time>2019-05-04T13:09:13Z</time>
      </trkpt>
      <trkpt lat="38.990933" lon="-6.096317">
        <ele>1220.0</ele>
        <time>2019-05-04T13:09:14Z</time>
      </trkpt>
      <trkpt lat="38.990867" lon="-6.096250">
        <ele>1218.0</ele>
        <time>2019-05-04T13:09:15Z</time>
      </trkpt>
      <trkpt lat="38.990783" lon="-6.096200">
        <ele>1216.0</ele>
        <time>2019-05-04T13:09:16Z</time>
      </trkpt>
      <trkpt lat="38.990700" lon="-6.096150">
        <ele>1213.0</ele>
        <time>2019-05-04T13:09:17Z</time>
      </trkpt>
      <trkpt lat="38.990617" lon="-6.096100">
        <ele>1209.0</ele>
        <time>2019-05-04T13:09:18Z</time>
      </trkpt>
      <trkpt lat="38.990517" lon="-6.096050">
        <ele>1206.0</ele>
        <time>2019-05-04T13:09:19Z</time>
      </trkpt>
      <trkpt lat="38.990433" lon="-6.096017">
        <ele>1204.0</ele>
        <time>2019-05-04T13:09:20Z</time>
      </trkpt>
      <trkpt lat="38.990367" lon="-6.095983">
        <ele>1203.0</ele>
        <time>2019-05-04T13:09:21Z</time>
      </trkpt>
      <trkpt lat="38.990300" lon="-6.095950">
        <ele>1201.0</ele>
        <time>2019-05-04T13:09:22Z</time>
      </trkpt>
      <trkpt lat="38.990233" lon="-6.095900">
        <ele>1199.0</ele>
        <time>2019-05-04T13:09:23Z</time>
      </trkpt>
      <trkpt lat="38.990150" lon="-6.095833">
        <ele>1196.0</ele>
        <time>2019-05-04T13:09:24Z</time>
      </trkpt>
      <trkpt lat="38.990083" lon="-6.095783">
        <ele>1193.0</ele>
        <time>2019-05-04T13:09:25Z</time>
      </trkpt>
      <trkpt lat="38.990000" lon="-6.095717">
        <ele>1191.0</ele>
        <time>2019-05-04T13:09:26Z</time>
      </trkpt>
      <trkpt lat="38.989933" lon="-6.095683">
        <ele>1190.0</ele>
        <time>2019-05-04T13:09:27Z</time>
      </trkpt>
      <trkpt lat="38.989867" lon="-6.095633">
        <ele>1188.0</ele>
        <time>2019-05-04T13:09:28Z</time>
      </trkpt>
      <trkpt lat="38.989783" lon="-6.095600">
        <ele>1186.0</ele>
        <time>2019-05-04T13:09:29Z</time>
      </trkpt>
      <trkpt lat="38.989700" lon="-6.095550">
        <ele>1182.0</ele>
        <time>2019-05-04T13:09:30Z</time>
      </trkpt>
      <trkpt lat="38.989617" lon="-6.095500">
        <ele>1180.0</ele>
        <time>2019-05-04T13:09:31Z</time>
      </trkpt>
      <trkpt lat="38.989533" lon="-6.095450">
        <ele>1177.0</ele>
        <time>2019-05-04T13:09:32Z</time>
      </trkpt>
      <trkpt lat="38.989450" lon="-6.095400">
        <ele>1174.0</ele>
        <time>2019-05-04T13:09:33Z</time>
      </trkpt>
      <trkpt lat="38.989383" lon="-6.095367">
        <ele>1173.0</ele>
        <time>2019-05-04T13:09:34Z</time>
      </trkpt>
      <trkpt lat="38.989283" lon="-6.095317">
        <ele>1170.0</ele>
        <time>2019-05-04T13:09:35Z</time>
      </trkpt>
      <trkpt lat="38.989183" lon="-6.095267">
        <ele>1167.0</ele>
        <time>2019-05-04T13:09:36Z</time>
      </trkpt>
      <trkpt lat="38.989083" lon="-6.095217">
        <ele>1164.0</ele>
        <time>2019-05-04T13:09:37Z</time>
      </trkpt>
      <trkpt lat="38.988983" lon="-6.095167">
        <ele>1162.0</ele>
        <time>2019-05-04T13:09:38Z</time>
      </trkpt>
      <trkpt lat="38.988883" lon="-6.095133">
        <ele>1161.0</ele>
        <time>2019-05-04T13:09:39Z</time>
      </trkpt>
      <trkpt lat="38.988800" lon="-6.095100">
        <ele>1160.0</ele>
        <time>2019-05-04T13:09:40Z</time>
      </trkpt>
      <trkpt lat="38.988717" lon="-6.095067">
        <ele>1159.0</ele>
        <time>2019-05-04T13:09:41Z</time>
      </trkpt>
      <trkpt lat="38.988633" lon="-6.095033">
        <ele>1158.0</ele>
        <time>2019-05-04T13:09:42Z</time>
      </trkpt>
      <trkpt lat="38.988550" lon="-6.095000">
        <ele>1156.0</ele>
        <time>2019-05-04T13:09:43Z</time>
      </trkpt>
      <trkpt lat="38.988467" lon="-6.094950">
        <ele>1154.0</ele>
        <time>2019-05-04T13:09:44Z</time>
      </trkpt>
      <trkpt lat="38.988383" lon="-6.094900">
        <ele>1152.0</ele>
        <time>2019-05-04T13:09:45Z</time>
      </trkpt>
      <trkpt lat="38.988300" lon="-6.094867">
        <ele>1149.0</ele>
        <time>2019-05-04T13:09:46Z</time>
      </trkpt>
      <trkpt lat="38.988217" lon="-6.094833">
        <ele>1147.0</ele>
        <time>2019-05-04T13:09:47Z</time>
      </trkpt>
      <trkpt lat="38.988133" lon="-6.094783">
        <ele>1145.0</ele>
        <time>2019-05-04T13:09:48Z</time>
      </trkpt>
      <trkpt lat="38.988050" lon="-6.094733">
        <ele>1143.0</ele>
        <time>2019-05-04T13:09:49Z</time>
      </trkpt>
      <trkpt lat="38.987950" lon="-6.094683">
        <ele>1142.0</ele>
        <time>2019-05-04T13:09:50Z</time>
      </trkpt>
      <trkpt lat="38.987867" lon="-6.094650">
        <ele>1140.0</ele>
        <time>2019-05-04T13:09:51Z</time>
      </trkpt>
      <trkpt lat="38.987800" lon="-6.094617">
        <ele>1139.0</ele>
        <time>2019-05-04T13:09:52Z</time>
      </trkpt>
      <trkpt lat="38.987700" lon="-6.094567">
        <ele>1137.0</ele>
        <time>2019-05-04T13:09:53Z</time>
      </trkpt>
      <trkpt lat="38.987617" lon="-6.094517">
        <ele>1134.0</ele>
        <time>2019-05-04T13:09:54Z</time>
      </trkpt>
      <trkpt lat="38.987517" lon="-6.094483">
        <ele>1131.0</ele>
        <time>2019-05-04T13:09:55Z</time>
      </trkpt>
      <trkpt lat="38.987417" lon="-6.094433">
        <ele>1129.0</ele>
        <time>2019-05-04T13:09:56Z</time>
      </trkpt>
      <trkpt lat="38.987333" lon="-6.094400">
        <ele>1126.0</ele>
        <time>2019-05-04T13:09:57Z</time>
      </trkpt>
      <trkpt lat="38.987250" lon="-6.094350">
        <ele>1124.0</ele>
        <time>2019-05-04T13:09:58Z</time>
      </trkpt>
      <trkpt lat="38.987150" lon="-6.094317">
        <ele>1120.0</ele>
        <time>2019-05-04T13:09:59Z</time>
      </trkpt>
      <trkpt lat="38.987050" lon="-6.094267">
        <ele>1117.0</ele>
        <time>2019-05-04T13:10:00Z</time>
      </trkpt>
      <trkpt lat="38.986950" lon="-6.094233">
        <ele>1113.0</ele>
        <time>2019-05-04T13:10:01Z</time>
      </trkpt>
      <trkpt lat="38.986833" lon="-6.094200">
        <ele>1110.0</ele>
        <time>2019-05-04T13:10:02Z</time>
      </trkpt>
      <trkpt lat="38.986733" lon="-6.094167">
        <ele>1109.0</ele>
        <time>2019-05-04T13:10:03Z</time>
      </trkpt>
      <trkpt lat="38.986650" lon="-6.094150">
        <ele>1108.0</ele>
        <time>2019-05-04T13:10:04Z</time>
      </trkpt>
      <trkpt lat="38.986583" lon="-6.094150">
        <ele>1107.0</ele>
        <time>2019-05-04T13:10:05Z</time>
      </trkpt>
      <trkpt lat="38.986517" lon="-6.094133">
        <ele>1105.0</ele>
        <time>2019-05-04T13:10:06Z</time>
      </trkpt>
      <trkpt lat="38.986433" lon="-6.094117">
        <ele>1102.0</ele>
        <time>2019-05-04T13:10:07Z</time>
      </trkpt>
      <trkpt lat="38.986333" lon="-6.094100">
        <ele>1099.0</ele>
        <time>2019-05-04T13:10:08Z</time>
      </trkpt>
      <trkpt lat="38.986250" lon="-6.094083">
        <ele>1096.0</ele>
        <time>2019-05-04T13:10:09Z</time>
      </trkpt>
      <trkpt lat="38.986183" lon="-6.094033">
        <ele>1093.0</ele>
        <time>2019-05-04T13:10:10Z</time>
      </trkpt>
      <trkpt lat="38.986117" lon="-6.094000">
        <ele>1091.0</ele>
        <time>2019-05-04T13:10:11Z</time>
      </trkpt>
      <trkpt lat="38.986050" lon="-6.093967">
        <ele>1089.0</ele>
        <time>2019-05-04T13:10:12Z</time>
      </trkpt>
      <trkpt lat="38.985967" lon="-6.093950">
        <ele>1087.0</ele>
        <time>2019-05-04T13:10:13Z</time>
      </trkpt>
      <trkpt lat="38.985900" lon="-6.093917">
        <ele>1085.0</ele>
        <time>2019-05-04T13:10:14Z</time>
      </trkpt>
      <trkpt lat="38.985817" lon="-6.093900">
        <ele>1081.0</ele>
        <time>2019-05-04T13:10:15Z</time>
      </trkpt>
      <trkpt lat="38.985750" lon="-6.093883">
        <ele>1078.0</ele>
        <time>2019-05-04T13:10:16Z</time>
      </trkpt>
      <trkpt lat="38.985667" lon="-6.093850">
        <ele>1075.0</ele>
        <time>2019-05-04T13:10:17Z</time>
      </trkpt>
      <trkpt lat="38.985600" lon="-6.093833">
        <ele>1073.0</ele>
        <time>2019-05-04T13:10:18Z</time>
      </trkpt>
      <trkpt lat="38.985517" lon="-6.093817">
        <ele>1070.0</ele>
        <time>2019-05-04T13:10:19Z</time>
      </trkpt>
      <trkpt lat="38.985450" lon="-6.093767">
        <ele>1071.0</ele>
        <time>2019-05-04T13:10:20Z</time>
      </trkpt>
      <trkpt lat="38.985350" lon="-6.093717">
        <ele>1071.0</ele>
        <time>2019-05-04T13:10:21Z</time>
      </trkpt>
      <trkpt lat="38.985300" lon="-6.093700">
        <ele>1069.0</ele>
        <time>2019-05-04T13:10:22Z</time>
      </trkpt>
      <trkpt lat="38.985217" lon="-6.093667">
        <ele>1068.0</ele>
        <time>2019-05-04T13:10:23Z</time>
      </trkpt>
      <trkpt lat="38.985167" lon="-6.093633">
        <ele>1064.0</ele>
        <time>2019-05-04T13:10:24Z</time>
      </trkpt>
      <trkpt lat="38.985100" lon="-6.093600">
        <ele>1061.0</ele>
        <time>2019-05-04T13:10:25Z</time>
      </trkpt>
      <trkpt lat="38.985033" lon="-6.093567">
        <ele>1059.0</ele>
        <time>2019-05-04T13:10:26Z</time>
      </trkpt>
      <trkpt lat="38.984967" lon="-6.093517">
        <ele>1056.0</ele>
        <time>2019-05-04T13:10:27Z</time>
      </trkpt>
      <trkpt lat="38.984883" lon="-6.093467">
        <ele>1052.0</ele>
        <time>2019-05-04T13:10:28Z</time>
      </trkpt>
      <trkpt lat="38.984817" lon="-6.093433">
        <ele>1049.0</ele>
        <time>2019-05-04T13:10:29Z</time>
      </trkpt>
      <trkpt lat="38.984733" lon="-6.093383">
        <ele>1045.0</ele>
        <time>2019-05-04T13:10:30Z</time>
      </trkpt>
      <trkpt lat="38.984667" lon="-6.093350">
        <ele>1042.0</ele>
        <time>2019-05-04T13:10:31Z</time>
      </trkpt>
      <trkpt lat="38.984600" lon="-6.093300">
        <ele>1040.0</ele>
        <time>2019-05-04T13:10:32Z</time>
      </trkpt>
      <trkpt lat="38.984533" lon="-6.093250">
        <ele>1037.0</ele>
        <time>2019-05-04T13:10:33Z</time>
      </trkpt>
      <trkpt lat="38.984450" lon="-6.093183">
        <ele>1034.0</ele>
        <time>2019-05-04T13:10:34Z</time>
      </trkpt>
      <trkpt lat="38.984367" lon="-6.093150">
        <ele>1031.0</ele>
        <time>2019-05-04T13:10:35Z</time>
      </trkpt>
      <trkpt lat="38.984283" lon="-6.093100">
        <ele>1029.0</ele>
        <time>2019-05-04T13:10:36Z</time>
      </trkpt>
      <trkpt lat="38.984217" lon="-6.093050">
        <ele>1027.0</ele>
        <time>2019-05-04T13:10:37Z</time>
      </trkpt>
      <trkpt lat="38.984150" lon="-6.093017">
        <ele>1026.0</ele>
        <time>2019-05-04T13:10:38Z</time>
      </trkpt>
      <trkpt lat="38.984083" lon="-6.092983">
        <ele>1024.0</ele>
        <time>2019-05-04T13:10:39Z</time>
      </trkpt>
      <trkpt lat="38.984000" lon="-6.092933">
        <ele>1022.0</ele>
        <time>2019-05-04T13:10:40Z</time>
      </trkpt>
      <trkpt lat="38.983933" lon="-6.092883">
        <ele>1020.0</ele>
        <time>2019-05-04T13:10:41Z</time>
      </trkpt>
      <trkpt lat="38.983850" lon="-6.092833">
        <ele>1017.0</ele>
        <time>2019-05-04T13:10:42Z</time>
      </trkpt>
      <trkpt lat="38.983767" lon="-6.092767">
        <ele>1014.0</ele>
        <time>2019-05-04T13:10:43Z</time>
      </trkpt>
      <trkpt lat="38.983700" lon="-6.092717">
        <ele>1012.0</ele>
        <time>2019-05-04T13:10:44Z</time>
      </trkpt>
      <trkpt lat="38.983633" lon="-6.092683">
        <ele>1011.0</ele>
        <time>2019-05-04T13:10:45Z</time>
      </trkpt>
      <trkpt lat="38.983550" lon="-6.092650">
        <ele>1010.0</ele>
        <time>2019-05-04T13:10:46Z</time>
      </trkpt>
      <trkpt lat="38.983483" lon="-6.092617">
        <ele>1008.0</ele>
        <time>2019-05-04T13:10:47Z</time>
      </trkpt>
      <trkpt lat="38.983400" lon="-6.092567">
        <ele>1005.0</ele>
        <time>2019-05-04T13:10:48Z</time>
      </trkpt>
      <trkpt lat="38.983333" lon="-6.092517">
        <ele>1002.0</ele>
        <time>2019-05-04T13:10:49Z</time>
      </trkpt>
      <trkpt lat="38.983267" lon="-6.092450">
        <ele>999.0</ele>
        <time>2019-05-04T13:10:50Z</time>
      </trkpt>
      <trkpt lat="38.983200" lon="-6.092400">
        <ele>997.0</ele>
        <time>2019-05-04T13:10:51Z</time>
      </trkpt>
      <trkpt lat="38.983133" lon="-6.092350">
        <ele>994.0</ele>
        <time>2019-05-04T13:10:52Z</time>
      </trkpt>
      <trkpt lat="38.983067" lon="-6.092300">
        <ele>991.0</ele>
        <time>2019-05-04T13:10:53Z</time>
      </trkpt>
      <trkpt lat="38.982983" lon="-6.092250">
        <ele>988.0</ele>
        <time>2019-05-04T13:10:54Z</time>
      </trkpt>
      <trkpt lat="38.982917" lon="-6.092183">
        <ele>984.0</ele>
        <time>2019-05-04T13:10:55Z</time>
      </trkpt>
      <trkpt lat="38.982850" lon="-6.092100">
        <ele>980.0</ele>
        <time>2019-05-04T13:10:56Z</time>
      </trkpt>
      <trkpt lat="38.982767" lon="-6.092050">
        <ele>977.0</ele>
        <time>2019-05-04T13:10:57Z</time>
      </trkpt>
      <trkpt lat="38.982700" lon="-6.091983">
        <ele>975.0</ele>
        <time>2019-05-04T13:10:58Z</time>
      </trkpt>
      <trkpt lat="38.982633" lon="-6.091933">
        <ele>972.0</ele>
        <time>2019-05-04T13:10:59Z</time>
      </trkpt>
      <trkpt lat="38.982550" lon="-6.091883">
        <ele>969.0</ele>
        <time>2019-05-04T13:11:00Z</time>
      </trkpt>
      <trkpt lat="38.982500" lon="-6.091817">
        <ele>966.0</ele>
        <time>2019-05-04T13:11:01Z</time>
      </trkpt>
      <trkpt lat="38.982433" lon="-6.091767">
        <ele>963.0</ele>
        <time>2019-05-04T13:11:02Z</time>
      </trkpt>
      <trkpt lat="38.982367" lon="-6.091700">
        <ele>960.0</ele>
        <time>2019-05-04T13:11:03Z</time>
      </trkpt>
      <trkpt lat="38.982300" lon="-6.091650">
        <ele>956.0</ele>
        <time>2019-05-04T13:11:04Z</time>
      </trkpt>
      <trkpt lat="38.982233" lon="-6.091583">
        <ele>953.0</ele>
        <time>2019-05-04T13:11:05Z</time>
      </trkpt>
      <trkpt lat="38.982150" lon="-6.091517">
        <ele>951.0</ele>
        <time>2019-05-04T13:11:06Z</time>
      </trkpt>
      <trkpt lat="38.982100" lon="-6.091467">
        <ele>949.0</ele>
        <time>2019-05-04T13:11:07Z</time>
      </trkpt>
      <trkpt lat="38.982033" lon="-6.091400">
        <ele>947.0</ele>
        <time>2019-05-04T13:11:08Z</time>
      </trkpt>
      <trkpt lat="38.981967" lon="-6.091350">
        <ele>945.0</ele>
        <time>2019-05-04T13:11:09Z</time>
      </trkpt>
      <trkpt lat="38.981900" lon="-6.091300">
        <ele>942.0</ele>
        <time>2019-05-04T13:11:10Z</time>
      </trkpt>
      <trkpt lat="38.981833" lon="-6.091233">
        <ele>940.0</ele>
        <time>2019-05-04T13:11:11Z</time>
      </trkpt>
      <trkpt lat="38.981767" lon="-6.091167">
        <ele>938.0</ele>
        <time>2019-05-04T13:11:12Z</time>
      </trkpt>
      <trkpt lat="38.981700" lon="-6.091117">
        <ele>937.0</ele>
        <time>2019-05-04T13:11:13Z</time>
      </trkpt>
      <trkpt lat="38.981633" lon="-6.091067">
        <ele>936.0</ele>
        <time>2019-05-04T13:11:14Z</time>
      </trkpt>
      <trkpt lat="38.981567" lon="-6.091017">
        <ele>935.0</ele>
        <time>2019-05-04T13:11:15Z</time>
      </trkpt>
      <trkpt lat="38.981483" lon="-6.090950">
        <ele>934.0</ele>
        <time>2019-05-04T13:11:16Z</time>
      </trkpt>
      <trkpt lat="38.981400" lon="-6.090883">
        <ele>933.0</ele>
        <time>2019-05-04T13:11:17Z</time>
      </trkpt>
      <trkpt lat="38.981317" lon="-6.090817">
        <ele>933.0</ele>
        <time>2019-05-04T13:11:18Z</time>
      </trkpt>
      <trkpt lat="38.981250" lon="-6.090767">
        <ele>933.0</ele>
        <time>2019-05-04T13:11:19Z</time>
      </trkpt>
      <trkpt lat="38.981167" lon="-6.090717">
        <ele>934.0</ele>
        <time>2019-05-04T13:11:20Z</time>
      </trkpt>
      <trkpt lat="38.981100" lon="-6.090683">
        <ele>934.0</ele>
        <time>2019-05-04T13:11:21Z</time>
      </trkpt>
      <trkpt lat="38.981017" lon="-6.090650">
        <ele>934.0</ele>
        <time>2019-05-04T13:11:22Z</time>
      </trkpt>
      <trkpt lat="38.980933" lon="-6.090600">
        <ele>934.0</ele>
        <time>2019-05-04T13:11:23Z</time>
      </trkpt>
      <trkpt lat="38.980850" lon="-6.090567">
        <ele>935.0</ele>
        <time>2019-05-04T13:11:24Z</time>
      </trkpt>
      <trkpt lat="38.980783" lon="-6.090517">
        <ele>935.0</ele>
        <time>2019-05-04T13:11:25Z</time>
      </trkpt>
      <trkpt lat="38.980700" lon="-6.090467">
        <ele>936.0</ele>
        <time>2019-05-04T13:11:26Z</time>
      </trkpt>
      <trkpt lat="38.980617" lon="-6.090433">
        <ele>937.0</ele>
        <time>2019-05-04T13:11:27Z</time>
      </trkpt>
      <trkpt lat="38.980567" lon="-6.090383">
        <ele>938.0</ele>
        <time>2019-05-04T13:11:28Z</time>
      </trkpt>
      <trkpt lat="38.980500" lon="-6.090350">
        <ele>937.0</ele>
        <time>2019-05-04T13:11:29Z</time>
      </trkpt>
      <trkpt lat="38.980417" lon="-6.090317">
        <ele>936.0</ele>
        <time>2019-05-04T13:11:30Z</time>
      </trkpt>
      <trkpt lat="38.980333" lon="-6.090283">
        <ele>935.0</ele>
        <time>2019-05-04T13:11:31Z</time>
      </trkpt>
      <trkpt lat="38.980250" lon="-6.090233">
        <ele>934.0</ele>
        <time>2019-05-04T13:11:32Z</time>
      </trkpt>
      <trkpt lat="38.980167" lon="-6.090217">
        <ele>933.0</ele>
        <time>2019-05-04T13:11:33Z</time>
      </trkpt>
      <trkpt lat="38.980083" lon="-6.090200">
        <ele>934.0</ele>
        <time>2019-05-04T13:11:34Z</time>
      </trkpt>
      <trkpt lat="38.980000" lon="-6.090200">
        <ele>934.0</ele>
        <time>2019-05-04T13:11:35Z</time>
      </trkpt>
      <trkpt lat="38.979917" lon="-6.090167">
        <ele>933.0</ele>
        <time>2019-05-04T13:11:36Z</time>
      </trkpt>
      <trkpt lat="38.979833" lon="-6.090133">
        <ele>932.0</ele>
        <time>2019-05-04T13:11:37Z</time>
      </trkpt>
      <trkpt lat="38.979750" lon="-6.090117">
        <ele>932.0</ele>
        <time>2019-05-04T13:11:38Z</time>
      </trkpt>
      <trkpt lat="38.979683" lon="-6.090100">
        <ele>932.0</ele>
        <time>2019-05-04T13:11:39Z</time>
      </trkpt>
      <trkpt lat="38.979600" lon="-6.090083">
        <ele>932.0</ele>
        <time>2019-05-04T13:11:40Z</time>
      </trkpt>
      <trkpt lat="38.979517" lon="-6.090067">
        <ele>931.0</ele>
        <time>2019-05-04T13:11:41Z</time>
      </trkpt>
      <trkpt lat="38.979433" lon="-6.090050">
        <ele>931.0</ele>
        <time>2019-05-04T13:11:42Z</time>
      </trkpt>
      <trkpt lat="38.979333" lon="-6.090033">
        <ele>931.0</ele>
        <time>2019-05-04T13:11:43Z</time>
      </trkpt>
      <trkpt lat="38.979233" lon="-6.090033">
        <ele>932.0</ele>
        <time>2019-05-04T13:11:44Z</time>
      </trkpt>
      <trkpt lat="38.979150" lon="-6.090050">
        <ele>933.0</ele>
        <time>2019-05-04T13:11:45Z</time>
      </trkpt>
      <trkpt lat="38.979067" lon="-6.090067">
        <ele>935.0</ele>
        <time>2019-05-04T13:11:46Z</time>
      </trkpt>
      <trkpt lat="38.978983" lon="-6.090083">
        <ele>936.0</ele>
        <time>2019-05-04T13:11:47Z</time>
      </trkpt>
      <trkpt lat="38.978883" lon="-6.090083">
        <ele>937.0</ele>
        <time>2019-05-04T13:11:48Z</time>
      </trkpt>
      <trkpt lat="38.978800" lon="-6.090083">
        <ele>939.0</ele>
        <time>2019-05-04T13:11:49Z</time>
      </trkpt>
      <trkpt lat="38.978717" lon="-6.090083">
        <ele>941.0</ele>
        <time>2019-05-04T13:11:50Z</time>
      </trkpt>
      <trkpt lat="38.978633" lon="-6.090083">
        <ele>944.0</ele>
        <time>2019-05-04T13:11:51Z</time>
      </trkpt>
      <trkpt lat="38.978567" lon="-6.090083">
        <ele>949.0</ele>
        <time>2019-05-04T13:11:52Z</time>
      </trkpt>
      <trkpt lat="38.978483" lon="-6.090067">
        <ele>954.0</ele>
        <time>2019-05-04T13:11:53Z</time>
      </trkpt>
      <trkpt lat="38.978400" lon="-6.090050">
        <ele>957.0</ele>
        <time>2019-05-04T13:11:54Z</time>
      </trkpt>
      <trkpt lat="38.978300" lon="-6.090067">
        <ele>960.0</ele>
        <time>2019-05-04T13:11:55Z</time>
      </trkpt>
      <trkpt lat="38.978233" lon="-6.090117">
        <ele>963.0</ele>
        <time>2019-05-04T13:11:56Z</time>
      </trkpt>
      <trkpt lat="38.978167" lon="-6.090200">
        <ele>966.0</ele>
        <time>2019-05-04T13:11:57Z</time>
      </trkpt>
      <trkpt lat="38.978150" lon="-6.090300">
        <ele>969.0</ele>
        <time>2019-05-04T13:11:58Z</time>
      </trkpt>
      <trkpt lat="38.978150" lon="-6.090400">
        <ele>972.0</ele>
        <time>2019-05-04T13:11:59Z</time>
      </trkpt>
      <trkpt lat="38.978183" lon="-6.090500">
        <ele>974.0</ele>
        <time>2019-05-04T13:12:00Z</time>
      </trkpt>
      <trkpt lat="38.978233" lon="-6.090583">
        <ele>976.0</ele>
        <time>2019-05-04T13:12:01Z</time>
      </trkpt>
      <trkpt lat="38.978283" lon="-6.090633">
        <ele>979.0</ele>
        <time>2019-05-04T13:12:02Z</time>
      </trkpt>
      <trkpt lat="38.978367" lon="-6.090667">
        <ele>981.0</ele>
        <time>2019-05-04T13:12:03Z</time>
      </trkpt>
      <trkpt lat="38.978450" lon="-6.090650">
        <ele>983.0</ele>
        <time>2019-05-04T13:12:04Z</time>
      </trkpt>
      <trkpt lat="38.978533" lon="-6.090600">
        <ele>985.0</ele>
        <time>2019-05-04T13:12:05Z</time>
      </trkpt>
      <trkpt lat="38.978583" lon="-6.090517">
        <ele>987.0</ele>
        <time>2019-05-04T13:12:06Z</time>
      </trkpt>
      <trkpt lat="38.978617" lon="-6.090400">
        <ele>986.0</ele>
        <time>2019-05-04T13:12:07Z</time>
      </trkpt>
      <trkpt lat="38.978583" lon="-6.090283">
        <ele>986.0</ele>
        <time>2019-05-04T13:12:08Z</time>
      </trkpt>
      <trkpt lat="38.978550" lon="-6.090183">
        <ele>987.0</ele>
        <time>2019-05-04T13:12:09Z</time>
      </trkpt>
      <trkpt lat="38.978483" lon="-6.090083">
        <ele>990.0</ele>
        <time>2019-05-04T13:12:10Z</time>
      </trkpt>
      <trkpt lat="38.978400" lon="-6.090033">
        <ele>994.0</ele>
        <time>2019-05-04T13:12:11Z</time>
      </trkpt>
      <trkpt lat="38.978300" lon="-6.090017">
        <ele>997.0</ele>
        <time>2019-05-04T13:12:12Z</time>
      </trkpt>
      <trkpt lat="38.978217" lon="-6.090033">
        <ele>1001.0</ele>
        <time>2019-05-04T13:12:13Z</time>
      </trkpt>
      <trkpt lat="38.978133" lon="-6.090067">
        <ele>1004.0</ele>
        <time>2019-05-04T13:12:14Z</time>
      </trkpt>
      <trkpt lat="38.978083" lon="-6.090150">
        <ele>1008.0</ele>
        <time>2019-05-04T13:12:15Z</time>
      </trkpt>
      <trkpt lat="38.978067" lon="-6.090233">
        <ele>1011.0</ele>
        <time>2019-05-04T13:12:16Z</time>
      </trkpt>
      <trkpt lat="38.978067" lon="-6.090317">
        <ele>1013.0</ele>
        <time>2019-05-04T13:12:17Z</time>
      </trkpt>
      <trkpt lat="38.978083" lon="-6.090417">
        <ele>1015.0</ele>
        <time>2019-05-04T13:12:18Z</time>
      </trkpt>
      <trkpt lat="38.978133" lon="-6.090483">
        <ele>1019.0</ele>
        <time>2019-05-04T13:12:19Z</time>
      </trkpt>
      <trkpt lat="38.978200" lon="-6.090517">
        <ele>1022.0</ele>
        <time>2019-05-04T13:12:20Z</time>
      </trkpt>
      <trkpt lat="38.978283" lon="-6.090517">
        <ele>1024.0</ele>
        <time>2019-05-04T13:12:21Z</time>
      </trkpt>
      <trkpt lat="38.978367" lon="-6.090467">
        <ele>1027.0</ele>
        <time>2019-05-04T13:12:22Z</time>
      </trkpt>
      <trkpt lat="38.978433" lon="-6.090367">
        <ele>1030.0</ele>
        <time>2019-05-04T13:12:23Z</time>
      </trkpt>
      <trkpt lat="38.978467" lon="-6.090267">
        <ele>1033.0</ele>
        <time>2019-05-04T13:12:24Z</time>
      </trkpt>
      <trkpt lat="38.978467" lon="-6.090150">
        <ele>1036.0</ele>
        <time>2019-05-04T13:12:25Z</time>
      </trkpt>
      <trkpt lat="38.978433" lon="-6.090033">
        <ele>1039.0</ele>
        <time>2019-05-04T13:12:26Z</time>
      </trkpt>
      <trkpt lat="38.978367" lon="-6.089933">
        <ele>1042.0</ele>
        <time>2019-05-04T13:12:27Z</time>
      </trkpt>
      <trkpt lat="38.978267" lon="-6.089867">
        <ele>1045.0</ele>
        <time>2019-05-04T13:12:28Z</time>
      </trkpt>
      <trkpt lat="38.978167" lon="-6.089883">
        <ele>1048.0</ele>
        <time>2019-05-04T13:12:29Z</time>
      </trkpt>
      <trkpt lat="38.978100" lon="-6.089950">
        <ele>1051.0</ele>
        <time>2019-05-04T13:12:30Z</time>
      </trkpt>
      <trkpt lat="38.978050" lon="-6.090000">
        <ele>1054.0</ele>
        <time>2019-05-04T13:12:31Z</time>
      </trkpt>
      <trkpt lat="38.978033" lon="-6.090050">
        <ele>1059.0</ele>
        <time>2019-05-04T13:12:32Z</time>
      </trkpt>
      <trkpt lat="38.978000" lon="-6.090100">
        <ele>1062.0</ele>
        <time>2019-05-04T13:12:33Z</time>
      </trkpt>
      <trkpt lat="38.977983" lon="-6.090167">
        <ele>1066.0</ele>
        <time>2019-05-04T13:12:34Z</time>
      </trkpt>
      <trkpt lat="38.977967" lon="-6.090250">
        <ele>1069.0</ele>
        <time>2019-05-04T13:12:35Z</time>
      </trkpt>
      <trkpt lat="38.977983" lon="-6.090350">
        <ele>1069.0</ele>
        <time>2019-05-04T13:12:36Z</time>
      </trkpt>
      <trkpt lat="38.978033" lon="-6.090417">
        <ele>1071.0</ele>
        <time>2019-05-04T13:12:37Z</time>
      </trkpt>
      <trkpt lat="38.978100" lon="-6.090483">
        <ele>1073.0</ele>
        <time>2019-05-04T13:12:38Z</time>
      </trkpt>
      <trkpt lat="38.978167" lon="-6.090500">
        <ele>1077.0</ele>
        <time>2019-05-04T13:12:39Z</time>
      </trkpt>
      <trkpt lat="38.978233" lon="-6.090467">
        <ele>1081.0</ele>
        <time>2019-05-04T13:12:40Z</time>
      </trkpt>
      <trkpt lat="38.978300" lon="-6.090367">
        <ele>1083.0</ele>
        <time>2019-05-04T13:12:41Z</time>
      </trkpt>
      <trkpt lat="38.978317" lon="-6.090250">
        <ele>1085.0</ele>
        <time>2019-05-04T13:12:42Z</time>
      </trkpt>
      <trkpt lat="38.978283" lon="-6.090133">
        <ele>1087.0</ele>
        <time>2019-05-04T13:12:43Z</time>
      </trkpt>
      <trkpt lat="38.978233" lon="-6.090017">
        <ele>1089.0</ele>
        <time>2019-05-04T13:12:44Z</time>
      </trkpt>
      <trkpt lat="38.978167" lon="-6.089933">
        <ele>1091.0</ele>
        <time>2019-05-04T13:12:45Z</time>
      </trkpt>
      <trkpt lat="38.978083" lon="-6.089883">
        <ele>1094.0</ele>
        <time>2019-05-04T13:12:46Z</time>
      </trkpt>
      <trkpt lat="38.978000" lon="-6.089883">
        <ele>1096.0</ele>
        <time>2019-05-04T13:12:47Z</time>
      </trkpt>
      <trkpt lat="38.977933" lon="-6.089933">
        <ele>1099.0</ele>
        <time>2019-05-04T13:12:48Z</time>
      </trkpt>
      <trkpt lat="38.977900" lon="-6.090017">
        <ele>1102.0</ele>
        <time>2019-05-04T13:12:49Z</time>
      </trkpt>
      <trkpt lat="38.977900" lon="-6.090100">
        <ele>1104.0</ele>
        <time>2019-05-04T13:12:50Z</time>
      </trkpt>
      <trkpt lat="38.977933" lon="-6.090183">
        <ele>1106.0</ele>
        <time>2019-05-04T13:12:51Z</time>
      </trkpt>
      <trkpt lat="38.977983" lon="-6.090233">
        <ele>1108.0</ele>
        <time>2019-05-04T13:12:52Z</time>
      </trkpt>
      <trkpt lat="38.978033" lon="-6.090283">
        <ele>1111.0</ele>
        <time>2019-05-04T13:12:53Z</time>
      </trkpt>
      <trkpt lat="38.978083" lon="-6.090300">
        <ele>1114.0</ele>
        <time>2019-05-04T13:12:54Z</time>
      </trkpt>
      <trkpt lat="38.978133" lon="-6.090267">
        <ele>1116.0</ele>
        <time>2019-05-04T13:12:55Z</time>
      </trkpt>
      <trkpt lat="38.978183" lon="-6.090217">
        <ele>1117.0</ele>
        <time>2019-05-04T13:12:56Z</time>
      </trkpt>
      <trkpt lat="38.978217" lon="-6.090117">
        <ele>1119.0</ele>
        <time>2019-05-04T13:12:57Z</time>
      </trkpt>
      <trkpt lat="38.978250" lon="-6.089983">
        <ele>1121.0</ele>
        <time>2019-05-04T13:12:58Z</time>
      </trkpt>
      <trkpt lat="38.978233" lon="-6.089867">
        <ele>1124.0</ele>
        <time>2019-05-04T13:12:59Z</time>
      </trkpt>
      <trkpt lat="38.978200" lon="-6.089750">
        <ele>1127.0</ele>
        <time>2019-05-04T13:13:00Z</time>
      </trkpt>
      <trkpt lat="38.978150" lon="-6.089650">
        <ele>1129.0</ele>
        <time>2019-05-04T13:13:01Z</time>
      </trkpt>
      <trkpt lat="38.978100" lon="-6.089550">
        <ele>1132.0</ele>
        <time>2019-05-04T13:13:02Z</time>
      </trkpt>
      <trkpt lat="38.978033" lon="-6.089450">
        <ele>1135.0</ele>
        <time>2019-05-04T13:13:03Z</time>
      </trkpt>
      <trkpt lat="38.977983" lon="-6.089383">
        <ele>1137.0</ele>
        <time>2019-05-04T13:13:04Z</time>
      </trkpt>
      <trkpt lat="38.977900" lon="-6.089350">
        <ele>1139.0</ele>
        <time>2019-05-04T13:13:05Z</time>
      </trkpt>
      <trkpt lat="38.977817" lon="-6.089333">
        <ele>1140.0</ele>
        <time>2019-05-04T13:13:06Z</time>
      </trkpt>
      <trkpt lat="38.977750" lon="-6.089350">
        <ele>1142.0</ele>
        <time>2019-05-04T13:13:07Z</time>
      </trkpt>
      <trkpt lat="38.977683" lon="-6.089400">
        <ele>1144.0</ele>
        <time>2019-05-04T13:13:08Z</time>
      </trkpt>
      <trkpt lat="38.977650" lon="-6.089467">
        <ele>1146.0</ele>
        <time>2019-05-04T13:13:09Z</time>
      </trkpt>
      <trkpt lat="38.977633" lon="-6.089550">
        <ele>1148.0</ele>
        <time>2019-05-04T13:13:10Z</time>
      </trkpt>
      <trkpt lat="38.977650" lon="-6.089633">
        <ele>1150.0</ele>
        <time>2019-05-04T13:13:11Z</time>
      </trkpt>
      <trkpt lat="38.977700" lon="-6.089700">
        <ele>1152.0</ele>
        <time>2019-05-04T13:13:12Z</time>
      </trkpt>
      <trkpt lat="38.977767" lon="-6.089733">
        <ele>1153.0</ele>
        <time>2019-05-04T13:13:13Z</time>
      </trkpt>
      <trkpt lat="38.977850" lon="-6.089767">
        <ele>1154.0</ele>
        <time>2019-05-04T13:13:14Z</time>
      </trkpt>
      <trkpt lat="38.977933" lon="-6.089767">
        <ele>1155.0</ele>
        <time>2019-05-04T13:13:15Z</time>
      </trkpt>
      <trkpt lat="38.978017" lon="-6.089750">
        <ele>1157.0</ele>
        <time>2019-05-04T13:13:16Z</time>
      </trkpt>
      <trkpt lat="38.978100" lon="-6.089717">
        <ele>1160.0</ele>
        <time>2019-05-04T13:13:17Z</time>
      </trkpt>
      <trkpt lat="38.978167" lon="-6.089633">
        <ele>1162.0</ele>
        <time>2019-05-04T13:13:18Z</time>
      </trkpt>
      <trkpt lat="38.978200" lon="-6.089533">
        <ele>1164.0</ele>
        <time>2019-05-04T13:13:19Z</time>
      </trkpt>
      <trkpt lat="38.978217" lon="-6.089400">
        <ele>1166.0</ele>
        <time>2019-05-04T13:13:20Z</time>
      </trkpt>
      <trkpt lat="38.978200" lon="-6.089283">
        <ele>1167.0</ele>
        <time>2019-05-04T13:13:21Z</time>
      </trkpt>
      <trkpt lat="38.978167" lon="-6.089167">
        <ele>1169.0</ele>
        <time>2019-05-04T13:13:22Z</time>
      </trkpt>
      <trkpt lat="38.978117" lon="-6.089083">
        <ele>1171.0</ele>
        <time>2019-05-04T13:13:23Z</time>
      </trkpt>
      <trkpt lat="38.978050" lon="-6.089017">
        <ele>1173.0</ele>
        <time>2019-05-04T13:13:24Z</time>
      </trkpt>
      <trkpt lat="38.977967" lon="-6.088983">
        <ele>1175.0</ele>
        <time>2019-05-04T13:13:25Z</time>
      </trkpt>
      <trkpt lat="38.977883" lon="-6.088950">
        <ele>1177.0</ele>
        <time>2019-05-04T13:13:26Z</time>
      </trkpt>
      <trkpt lat="38.977800" lon="-6.088933">
        <ele>1180.0</ele>
        <time>2019-05-04T13:13:27Z</time>
      </trkpt>
      <trkpt lat="38.977717" lon="-6.088933">
        <ele>1184.0</ele>
        <time>2019-05-04T13:13:28Z</time>
      </trkpt>
      <trkpt lat="38.977650" lon="-6.088950">
        <ele>1186.0</ele>
        <time>2019-05-04T13:13:29Z</time>
      </trkpt>
      <trkpt lat="38.977583" lon="-6.088983">
        <ele>1189.0</ele>
        <time>2019-05-04T13:13:30Z</time>
      </trkpt>
      <trkpt lat="38.977517" lon="-6.089033">
        <ele>1192.0</ele>
        <time>2019-05-04T13:13:31Z</time>
      </trkpt>
      <trkpt lat="38.977467" lon="-6.089117">
        <ele>1195.0</ele>
        <time>2019-05-04T13:13:32Z</time>
      </trkpt>
      <trkpt lat="38.977467" lon="-6.089217">
        <ele>1199.0</ele>
        <time>2019-05-04T13:13:33Z</time>
      </trkpt>
      <trkpt lat="38.977500" lon="-6.089300">
        <ele>1203.0</ele>
        <time>2019-05-04T13:13:34Z</time>
      </trkpt>
      <trkpt lat="38.977567" lon="-6.089350">
        <ele>1206.0</ele>
        <time>2019-05-04T13:13:35Z</time>
      </trkpt>
      <trkpt lat="38.977633" lon="-6.089367">
        <ele>1208.0</ele>
        <time>2019-05-04T13:13:36Z</time>
      </trkpt>
      <trkpt lat="38.977700" lon="-6.089383">
        <ele>1210.0</ele>
        <time>2019-05-04T13:13:37Z</time>
      </trkpt>
      <trkpt lat="38.977783" lon="-6.089383">
        <ele>1211.0</ele>
        <time>2019-05-04T13:13:38Z</time>
      </trkpt>
      <trkpt lat="38.977867" lon="-6.089350">
        <ele>1210.0</ele>
        <time>2019-05-04T13:13:39Z</time>
      </trkpt>
      <trkpt lat="38.977950" lon="-6.089283">
        <ele>1210.0</ele>
        <time>2019-05-04T13:13:40Z</time>
      </trkpt>
      <trkpt lat="38.978033" lon="-6.089183">
        <ele>1211.0</ele>
        <time>2019-05-04T13:13:41Z</time>
      </trkpt>
      <trkpt lat="38.978067" lon="-6.089067">
        <ele>1213.0</ele>
        <time>2019-05-04T13:13:42Z</time>
      </trkpt>
      <trkpt lat="38.978050" lon="-6.088917">
        <ele>1215.0</ele>
        <time>2019-05-04T13:13:43Z</time>
      </trkpt>
      <trkpt lat="38.978033" lon="-6.088783">
        <ele>1218.0</ele>
        <time>2019-05-04T13:13:44Z</time>
      </trkpt>
      <trkpt lat="38.978017" lon="-6.088667">
        <ele>1222.0</ele>
        <time>2019-05-04T13:13:45Z</time>
      </trkpt>
      <trkpt lat="38.977983" lon="-6.088533">
        <ele>1226.0</ele>
        <time>2019-05-04T13:13:46Z</time>
      </trkpt>
      <trkpt lat="38.977950" lon="-6.088417">
        <ele>1229.0</ele>
        <time>2019-05-04T13:13:47Z</time>
      </trkpt>
      <trkpt lat="38.977883" lon="-6.088317">
        <ele>1232.0</ele>
        <time>2019-05-04T13:13:48Z</time>
      </trkpt>
      <trkpt lat="38.977783" lon="-6.088233">
        <ele>1235.0</ele>
        <time>2019-05-04T13:13:49Z</time>
      </trkpt>
      <trkpt lat="38.977700" lon="-6.088183">
        <ele>1238.0</ele>
        <time>2019-05-04T13:13:50Z</time>
      </trkpt>
      <trkpt lat="38.977617" lon="-6.088167">
        <ele>1241.0</ele>
        <time>2019-05-04T13:13:51Z</time>
      </trkpt>
      <trkpt lat="38.977533" lon="-6.088150">
        <ele>1245.0</ele>
        <time>2019-05-04T13:13:52Z</time>
      </trkpt>
      <trkpt lat="38.977467" lon="-6.088150">
        <ele>1247.0</ele>
        <time>2019-05-04T13:13:53Z</time>
      </trkpt>
      <trkpt lat="38.977383" lon="-6.088150">
        <ele>1249.0</ele>
        <time>2019-05-04T13:13:54Z</time>
      </trkpt>
      <trkpt lat="38.977317" lon="-6.088183">
        <ele>1251.0</ele>
        <time>2019-05-04T13:13:55Z</time>
      </trkpt>
      <trkpt lat="38.977250" lon="-6.088250">
        <ele>1253.0</ele>
        <time>2019-05-04T13:13:56Z</time>
      </trkpt>
      <trkpt lat="38.977233" lon="-6.088333">
        <ele>1255.0</ele>
        <time>2019-05-04T13:13:57Z</time>
      </trkpt>
      <trkpt lat="38.977250" lon="-6.088417">
        <ele>1257.0</ele>
        <time>2019-05-04T13:13:58Z</time>
      </trkpt>
      <trkpt lat="38.977300" lon="-6.088483">
        <ele>1258.0</ele>
        <time>2019-05-04T13:13:59Z</time>
      </trkpt>
      <trkpt lat="38.977350" lon="-6.088500">
        <ele>1261.0</ele>
        <time>2019-05-04T13:14:00Z</time>
      </trkpt>
      <trkpt lat="38.977417" lon="-6.088500">
        <ele>1263.0</ele>
        <time>2019-05-04T13:14:01Z</time>
      </trkpt>
      <trkpt lat="38.977467" lon="-6.088467">
        <ele>1267.0</ele>
        <time>2019-05-04T13:14:02Z</time>
      </trkpt>
      <trkpt lat="38.977517" lon="-6.088417">
        <ele>1270.0</ele>
        <time>2019-05-04T13:14:03Z</time>
      </trkpt>
      <trkpt lat="38.977567" lon="-6.088317">
        <ele>1272.0</ele>
        <time>2019-05-04T13:14:04Z</time>
      </trkpt>
      <trkpt lat="38.977600" lon="-6.088183">
        <ele>1274.0</ele>
        <time>2019-05-04T13:14:05Z</time>
      </trkpt>
      <trkpt lat="38.977600" lon="-6.088050">
        <ele>1276.0</ele>
        <time>2019-05-04T13:14:06Z</time>
      </trkpt>
      <trkpt lat="38.977583" lon="-6.087917">
        <ele>1279.0</ele>
        <time>2019-05-04T13:14:07Z</time>
      </trkpt>
      <trkpt lat="38.977533" lon="-6.087817">
        <ele>1281.0</ele>
        <time>2019-05-04T13:14:08Z</time>
      </trkpt>
      <trkpt lat="38.977450" lon="-6.087733">
        <ele>1282.0</ele>
        <time>2019-05-04T13:14:09Z</time>
      </trkpt>
      <trkpt lat="38.977367" lon="-6.087700">
        <ele>1284.0</ele>
        <time>2019-05-04T13:14:10Z</time>
      </trkpt>
      <trkpt lat="38.977300" lon="-6.087667">
        <ele>1284.0</ele>
        <time>2019-05-04T13:14:11Z</time>
      </trkpt>
      <trkpt lat="38.977217" lon="-6.087667">
        <ele>1285.0</ele>
        <time>2019-05-04T13:14:12Z</time>
      </trkpt>
      <trkpt lat="38.977150" lon="-6.087683">
        <ele>1286.0</ele>
        <time>2019-05-04T13:14:13Z</time>
      </trkpt>
      <trkpt lat="38.977083" lon="-6.087717">
        <ele>1287.0</ele>
        <time>2019-05-04T13:14:14Z</time>
      </trkpt>
      <trkpt lat="38.977050" lon="-6.087800">
        <ele>1287.0</ele>
        <time>2019-05-04T13:14:15Z</time>
      </trkpt>
      <trkpt lat="38.977033" lon="-6.087867">
        <ele>1288.0</ele>
        <time>2019-05-04T13:14:16Z</time>
      </trkpt>
      <trkpt lat="38.977067" lon="-6.087933">
        <ele>1288.0</ele>
        <time>2019-05-04T13:14:17Z</time>
      </trkpt>
      <trkpt lat="38.977117" lon="-6.088000">
        <ele>1288.0</ele>
        <time>2019-05-04T13:14:18Z</time>
      </trkpt>
      <trkpt lat="38.977183" lon="-6.088067">
        <ele>1288.0</ele>
        <time>2019-05-04T13:14:19Z</time>
      </trkpt>
      <trkpt lat="38.977250" lon="-6.088100">
        <ele>1290.0</ele>
        <time>2019-05-04T13:14:20Z</time>
      </trkpt>
      <trkpt lat="38.977317" lon="-6.088117">
        <ele>1292.0</ele>
        <time>2019-05-04T13:14:21Z</time>
      </trkpt>
      <trkpt lat="38.977400" lon="-6.088117">
        <ele>1295.0</ele>
        <time>2019-05-04T13:14:22Z</time>
      </trkpt>
      <trkpt lat="38.977467" lon="-6.088117">
        <ele>1296.0</ele>
        <time>2019-05-04T13:14:23Z</time>
      </trkpt>
      <trkpt lat="38.977533" lon="-6.088117">
        <ele>1298.0</ele>
        <time>2019-05-04T13:14:24Z</time>
      </trkpt>
      <trkpt lat="38.977600" lon="-6.088100">
        <ele>1300.0</ele>
        <time>2019-05-04T13:14:25Z</time>
      </trkpt>
      <trkpt lat="38.977667" lon="-6.088067">
        <ele>1303.0</ele>
        <time>2019-05-04T13:14:26Z</time>
      </trkpt>
      <trkpt lat="38.977733" lon="-6.088017">
        <ele>1305.0</ele>
        <time>2019-05-04T13:14:27Z</time>
      </trkpt>
      <trkpt lat="38.977800" lon="-6.087967">
        <ele>1308.0</ele>
        <time>2019-05-04T13:14:28Z</time>
      </trkpt>
      <trkpt lat="38.977850" lon="-6.087900">
        <ele>1311.0</ele>
        <time>2019-05-04T13:14:29Z</time>
      </trkpt>
      <trkpt lat="38.977917" lon="-6.087833">
        <ele>1314.0</ele>
        <time>2019-05-04T13:14:30Z</time>
      </trkpt>
      <trkpt lat="38.977967" lon="-6.087750">
        <ele>1316.0</ele>
        <time>2019-05-04T13:14:31Z</time>
      </trkpt>
      <trkpt lat="38.978000" lon="-6.087650">
        <ele>1319.0</ele>
        <time>2019-05-04T13:14:32Z</time>
      </trkpt>
      <trkpt lat="38.978017" lon="-6.087533">
        <ele>1321.0</ele>
        <time>2019-05-04T13:14:33Z</time>
      </trkpt>
      <trkpt lat="38.978000" lon="-6.087417">
        <ele>1322.0</ele>
        <time>2019-05-04T13:14:34Z</time>
      </trkpt>
      <trkpt lat="38.977950" lon="-6.087300">
        <ele>1323.0</ele>
        <time>2019-05-04T13:14:35Z</time>
      </trkpt>
      <trkpt lat="38.977867" lon="-6.087233">
        <ele>1324.0</ele>
        <time>2019-05-04T13:14:36Z</time>
      </trkpt>
      <trkpt lat="38.977767" lon="-6.087200">
        <ele>1325.0</ele>
        <time>2019-05-04T13:14:37Z</time>
      </trkpt>
      <trkpt lat="38.977667" lon="-6.087233">
        <ele>1326.0</ele>
        <time>2019-05-04T13:14:38Z</time>
      </trkpt>
      <trkpt lat="38.977600" lon="-6.087300">
        <ele>1327.0</ele>
        <time>2019-05-04T13:14:39Z</time>
      </trkpt>
      <trkpt lat="38.977583" lon="-6.087383">
        <ele>1328.0</ele>
        <time>2019-05-04T13:14:40Z</time>
      </trkpt>
      <trkpt lat="38.977567" lon="-6.087467">
        <ele>1329.0</ele>
        <time>2019-05-04T13:14:41Z</time>
      </trkpt>
      <trkpt lat="38.977567" lon="-6.087550">
        <ele>1331.0</ele>
        <time>2019-05-04T13:14:42Z</time>
      </trkpt>
      <trkpt lat="38.977567" lon="-6.087650">
        <ele>1333.0</ele>
        <time>2019-05-04T13:14:43Z</time>
      </trkpt>
      <trkpt lat="38.977583" lon="-6.087717">
        <ele>1335.0</ele>
        <time>2019-05-04T13:14:44Z</time>
      </trkpt>
      <trkpt lat="38.977600" lon="-6.087800">
        <ele>1337.0</ele>
        <time>2019-05-04T13:14:45Z</time>
      </trkpt>
      <trkpt lat="38.977650" lon="-6.087850">
        <ele>1339.0</ele>
        <time>2019-05-04T13:14:46Z</time>
      </trkpt>
      <trkpt lat="38.977700" lon="-6.087900">
        <ele>1341.0</ele>
        <time>2019-05-04T13:14:47Z</time>
      </trkpt>
      <trkpt lat="38.977750" lon="-6.087917">
        <ele>1342.0</ele>
        <time>2019-05-04T13:14:48Z</time>
      </trkpt>
      <trkpt lat="38.977833" lon="-6.087933">
        <ele>1344.0</ele>
        <time>2019-05-04T13:14:49Z</time>
      </trkpt>
      <trkpt lat="38.977900" lon="-6.087900">
        <ele>1345.0</ele>
        <time>2019-05-04T13:14:50Z</time>
      </trkpt>
      <trkpt lat="38.977967" lon="-6.087833">
        <ele>1347.0</ele>
        <time>2019-05-04T13:14:51Z</time>
      </trkpt>
      <trkpt lat="38.978033" lon="-6.087750">
        <ele>1348.0</ele>
        <time>2019-05-04T13:14:52Z</time>
      </trkpt>
      <trkpt lat="38.978083" lon="-6.087650">
        <ele>1350.0</ele>
        <time>2019-05-04T13:14:53Z</time>
      </trkpt>
      <trkpt lat="38.978100" lon="-6.087533">
        <ele>1352.0</ele>
        <time>2019-05-04T13:14:54Z</time>
      </trkpt>
      <trkpt lat="38.978100" lon="-6.087400">
        <ele>1353.0</ele>
        <time>2019-05-04T13:14:55Z</time>
      </trkpt>
      <trkpt lat="38.978083" lon="-6.087267">
        <ele>1354.0</ele>
        <time>2019-05-04T13:14:56Z</time>
      </trkpt>
      <trkpt lat="38.978050" lon="-6.087150">
        <ele>1356.0</ele>
        <time>2019-05-04T13:14:57Z</time>
      </trkpt>
      <trkpt lat="38.978000" lon="-6.087050">
        <ele>1357.0</ele>
        <time>2019-05-04T13:14:58Z</time>
      </trkpt>
      <trkpt lat="38.977933" lon="-6.086983">
        <ele>1359.0</ele>
        <time>2019-05-04T13:14:59Z</time>
      </trkpt>
      <trkpt lat="38.977850" lon="-6.086933">
        <ele>1360.0</ele>
        <time>2019-05-04T13:15:00Z</time>
      </trkpt>
      <trkpt lat="38.977750" lon="-6.086917">
        <ele>1360.0</ele>
        <time>2019-05-04T13:15:01Z</time>
      </trkpt>
      <trkpt lat="38.977650" lon="-6.086917">
        <ele>1360.0</ele>
        <time>2019-05-04T13:15:02Z</time>
      </trkpt>
      <trkpt lat="38.977583" lon="-6.086967">
        <ele>1361.0</ele>
        <time>2019-05-04T13:15:03Z</time>
      </trkpt>
      <trkpt lat="38.977533" lon="-6.087033">
        <ele>1361.0</ele>
        <time>2019-05-04T13:15:04Z</time>
      </trkpt>
      <trkpt lat="38.977500" lon="-6.087133">
        <ele>1362.0</ele>
        <time>2019-05-04T13:15:05Z</time>
      </trkpt>
      <trkpt lat="38.977500" lon="-6.087200">
        <ele>1363.0</ele>
        <time>2019-05-04T13:15:06Z</time>
      </trkpt>
      <trkpt lat="38.977500" lon="-6.087267">
        <ele>1365.0</ele>
        <time>2019-05-04T13:15:07Z</time>
      </trkpt>
      <trkpt lat="38.977517" lon="-6.087317">
        <ele>1367.0</ele>
        <time>2019-05-04T13:15:08Z</time>
      </trkpt>
      <trkpt lat="38.977550" lon="-6.087367">
        <ele>1367.0</ele>
        <time>2019-05-04T13:15:09Z</time>
      </trkpt>
      <trkpt lat="38.977600" lon="-6.087433">
        <ele>1367.0</ele>
        <time>2019-05-04T13:15:10Z</time>
      </trkpt>
      <trkpt lat="38.977667" lon="-6.087450">
        <ele>1368.0</ele>
        <time>2019-05-04T13:15:11Z</time>
      </trkpt>
      <trkpt lat="38.977733" lon="-6.087450">
        <ele>1368.0</ele>
        <time>2019-05-04T13:15:12Z</time>
      </trkpt>
      <trkpt lat="38.977800" lon="-6.087417">
        <ele>1369.0</ele>
        <time>2019-05-04T13:15:13Z</time>
      </trkpt>
      <trkpt lat="38.977867" lon="-6.087350">
        <ele>1371.0</ele>
        <time>2019-05-04T13:15:14Z</time>
      </trkpt>
      <trkpt lat="38.977917" lon="-6.087250">
        <ele>1373.0</ele>
        <time>2019-05-04T13:15:15Z</time>
      </trkpt>
      <trkpt lat="38.977950" lon="-6.087167">
        <ele>1374.0</ele>
        <time>2019-05-04T13:15:16Z</time>
      </trkpt>
      <trkpt lat="38.978000" lon="-6.087067">
        <ele>1376.0</ele>
        <time>2019-05-04T13:15:17Z</time>
      </trkpt>
      <trkpt lat="38.978050" lon="-6.086983">
        <ele>1377.0</ele>
        <time>2019-05-04T13:15:18Z</time>
      </trkpt>
      <trkpt lat="38.978083" lon="-6.086883">
        <ele>1378.0</ele>
        <time>2019-05-04T13:15:19Z</time>
      </trkpt>
      <trkpt lat="38.978100" lon="-6.086783">
        <ele>1378.0</ele>
        <time>2019-05-04T13:15:20Z</time>
      </trkpt>
      <trkpt lat="38.978100" lon="-6.086650">
        <ele>1378.0</ele>
        <time>2019-05-04T13:15:21Z</time>
      </trkpt>
      <trkpt lat="38.978083" lon="-6.086517">
        <ele>1376.0</ele>
        <time>2019-05-04T13:15:22Z</time>
      </trkpt>
      <trkpt lat="38.978050" lon="-6.086383">
        <ele>1376.0</ele>
        <time>2019-05-04T13:15:23Z</time>
      </trkpt>
      <trkpt lat="38.978000" lon="-6.086267">
        <ele>1376.0</ele>
        <time>2019-05-04T13:15:24Z</time>
      </trkpt>
      <trkpt lat="38.977933" lon="-6.086150">
        <ele>1376.0</ele>
        <time>2019-05-04T13:15:25Z</time>
      </trkpt>
      <trkpt lat="38.977867" lon="-6.086067">
        <ele>1375.0</ele>
        <time>2019-05-04T13:15:26Z</time>
      </trkpt>
      <trkpt lat="38.977783" lon="-6.086000">
        <ele>1374.0</ele>
        <time>2019-05-04T13:15:27Z</time>
      </trkpt>
      <trkpt lat="38.977700" lon="-6.085950">
        <ele>1373.0</ele>
        <time>2019-05-04T13:15:28Z</time>
      </trkpt>
      <trkpt lat="38.977617" lon="-6.085933">
        <ele>1372.0</ele>
        <time>2019-05-04T13:15:29Z</time>
      </trkpt>
      <trkpt lat="38.977517" lon="-6.085950">
        <ele>1370.0</ele>
        <time>2019-05-04T13:15:30Z</time>
      </trkpt>
      <trkpt lat="38.977433" lon="-6.085967">
        <ele>1369.0</ele>
        <time>2019-05-04T13:15:31Z</time>
      </trkpt>
      <trkpt lat="38.977350" lon="-6.086000">
        <ele>1368.0</ele>
        <time>2019-05-04T13:15:32Z</time>
      </trkpt>
      <trkpt lat="38.977267" lon="-6.086050">
        <ele>1367.0</ele>
        <time>2019-05-04T13:15:33Z</time>
      </trkpt>
      <trkpt lat="38.977217" lon="-6.086117">
        <ele>1365.0</ele>
        <time>2019-05-04T13:15:34Z</time>
      </trkpt>
      <trkpt lat="38.977167" lon="-6.086200">
        <ele>1364.0</ele>
        <time>2019-05-04T13:15:35Z</time>
      </trkpt>
      <trkpt lat="38.977150" lon="-6.086300">
        <ele>1362.0</ele>
        <time>2019-05-04T13:15:36Z</time>
      </trkpt>
      <trkpt lat="38.977167" lon="-6.086400">
        <ele>1360.0</ele>
        <time>2019-05-04T13:15:37Z</time>
      </trkpt>
      <trkpt lat="38.977200" lon="-6.086483">
        <ele>1359.0</ele>
        <time>2019-05-04T13:15:38Z</time>
      </trkpt>
      <trkpt lat="38.977233" lon="-6.086567">
        <ele>1358.0</ele>
        <time>2019-05-04T13:15:39Z</time>
      </trkpt>
      <trkpt lat="38.977283" lon="-6.086650">
        <ele>1357.0</ele>
        <time>2019-05-04T13:15:40Z</time>
      </trkpt>
      <trkpt lat="38.977333" lon="-6.086717">
        <ele>1357.0</ele>
        <time>2019-05-04T13:15:41Z</time>
      </trkpt>
      <trkpt lat="38.977383" lon="-6.086800">
        <ele>1356.0</ele>
        <time>2019-05-04T13:15:42Z</time>
      </trkpt>
      <trkpt lat="38.977433" lon="-6.086883">
        <ele>1355.0</ele>
        <time>2019-05-04T13:15:43Z</time>
      </trkpt>
      <trkpt lat="38.977483" lon="-6.086950">
        <ele>1355.0</ele>
        <time>2019-05-04T13:15:44Z</time>
      </trkpt>
      <trkpt lat="38.977550" lon="-6.087017">
        <ele>1355.0</ele>
        <time>2019-05-04T13:15:45Z</time>
      </trkpt>
      <trkpt lat="38.977600" lon="-6.087083">
        <ele>1355.0</ele>
        <time>2019-05-04T13:15:46Z</time>
      </trkpt>
      <trkpt lat="38.977650" lon="-6.087150">
        <ele>1355.0</ele>
        <time>2019-05-04T13:15:47Z</time>
      </trkpt>
      <trkpt lat="38.977717" lon="-6.087217">
        <ele>1355.0</ele>
        <time>2019-05-04T13:15:48Z</time>
      </trkpt>
      <trkpt lat="38.977783" lon="-6.087267">
        <ele>1354.0</ele>
        <time>2019-05-04T13:15:49Z</time>
      </trkpt>
      <trkpt lat="38.977867" lon="-6.087333">
        <ele>1354.0</ele>
        <time>2019-05-04T13:15:50Z</time>
      </trkpt>
      <trkpt lat="38.977933" lon="-6.087383">
        <ele>1355.0</ele>
        <time>2019-05-04T13:15:51Z</time>
      </trkpt>
      <trkpt lat="38.978000" lon="-6.087450">
        <ele>1357.0</ele>
        <time>2019-05-04T13:15:52Z</time>
      </trkpt>
      <trkpt lat="38.978050" lon="-6.087500">
        <ele>1358.0</ele>
        <time>2019-05-04T13:15:53Z</time>
      </trkpt>
      <trkpt lat="38.978117" lon="-6.087567">
        <ele>1359.0</ele>
        <time>2019-05-04T13:15:54Z</time>
      </trkpt>
      <trkpt lat="38.978183" lon="-6.087617">
        <ele>1361.0</ele>
        <time>2019-05-04T13:15:55Z</time>
      </trkpt>
      <trkpt lat="38.978250" lon="-6.087683">
        <ele>1362.0</ele>
        <time>2019-05-04T13:15:56Z</time>
      </trkpt>
      <trkpt lat="38.978317" lon="-6.087750">
        <ele>1365.0</ele>
        <time>2019-05-04T13:15:57Z</time>
      </trkpt>
      <trkpt lat="38.978383" lon="-6.087817">
        <ele>1367.0</ele>
        <time>2019-05-04T13:15:58Z</time>
      </trkpt>
      <trkpt lat="38.978450" lon="-6.087883">
        <ele>1370.0</ele>
        <time>2019-05-04T13:15:59Z</time>
      </trkpt>
      <trkpt lat="38.978517" lon="-6.087933">
        <ele>1373.0</ele>
        <time>2019-05-04T13:16:00Z</time>
      </trkpt>
      <trkpt lat="38.978583" lon="-6.087983">
        <ele>1377.0</ele>
        <time>2019-05-04T13:16:01Z</time>
      </trkpt>
      <trkpt lat="38.978650" lon="-6.088017">
        <ele>1379.0</ele>
        <time>2019-05-04T13:16:02Z</time>
      </trkpt>
      <trkpt lat="38.978750" lon="-6.088067">
        <ele>1382.0</ele>
        <time>2019-05-04T13:16:03Z</time>
      </trkpt>
      <trkpt lat="38.978833" lon="-6.088067">
        <ele>1384.0</ele>
        <time>2019-05-04T13:16:04Z</time>
      </trkpt>
      <trkpt lat="38.978950" lon="-6.088050">
        <ele>1387.0</ele>
        <time>2019-05-04T13:16:05Z</time>
      </trkpt>
      <trkpt lat="38.979033" lon="-6.087983">
        <ele>1390.0</ele>
        <time>2019-05-04T13:16:06Z</time>
      </trkpt>
      <trkpt lat="38.979083" lon="-6.087883">
        <ele>1393.0</ele>
        <time>2019-05-04T13:16:07Z</time>
      </trkpt>
      <trkpt lat="38.979117" lon="-6.087767">
        <ele>1396.0</ele>
        <time>2019-05-04T13:16:08Z</time>
      </trkpt>
      <trkpt lat="38.979133" lon="-6.087667">
        <ele>1398.0</ele>
        <time>2019-05-04T13:16:09Z</time>
      </trkpt>
      <trkpt lat="38.979100" lon="-6.087550">
        <ele>1400.0</ele>
        <time>2019-05-04T13:16:10Z</time>
      </trkpt>
      <trkpt lat="38.979067" lon="-6.087450">
        <ele>1401.0</ele>
        <time>2019-05-04T13:16:11Z</time>
      </trkpt>
      <trkpt lat="38.979000" lon="-6.087383">
        <ele>1403.0</ele>
        <time>2019-05-04T13:16:12Z</time>
      </trkpt>
      <trkpt lat="38.978917" lon="-6.087367">
        <ele>1404.0</ele>
        <time>2019-05-04T13:16:13Z</time>
      </trkpt>
      <trkpt lat="38.978850" lon="-6.087383">
        <ele>1405.0</ele>
        <time>2019-05-04T13:16:14Z</time>
      </trkpt>
      <trkpt lat="38.978783" lon="-6.087417">
        <ele>1407.0</ele>
        <time>2019-05-04T13:16:15Z</time>
      </trkpt>
      <trkpt lat="38.978750" lon="-6.087500">
        <ele>1408.0</ele>
        <time>2019-05-04T13:16:16Z</time>
      </trkpt>
      <trkpt lat="38.978733" lon="-6.087583">
        <ele>1410.0</ele>
        <time>2019-05-04T13:16:17Z</time>
      </trkpt>
      <trkpt lat="38.978733" lon="-6.087683">
        <ele>1413.0</ele>
        <time>2019-05-04T13:16:18Z</time>
      </trkpt>
      <trkpt lat="38.978767" lon="-6.087767">
        <ele>1415.0</ele>
        <time>2019-05-04T13:16:19Z</time>
      </trkpt>
      <trkpt lat="38.978833" lon="-6.087833">
        <ele>1418.0</ele>
        <time>2019-05-04T13:16:20Z</time>
      </trkpt>
      <trkpt lat="38.978917" lon="-6.087867">
        <ele>1420.0</ele>
        <time>2019-05-04T13:16:21Z</time>
      </trkpt>
      <trkpt lat="38.979017" lon="-6.087850">
        <ele>1420.0</ele>
        <time>2019-05-04T13:16:22Z</time>
      </trkpt>
      <trkpt lat="38.979117" lon="-6.087817">
        <ele>1422.0</ele>
        <time>2019-05-04T13:16:23Z</time>
      </trkpt>
      <trkpt lat="38.979183" lon="-6.087733">
        <ele>1424.0</ele>
        <time>2019-05-04T13:16:24Z</time>
      </trkpt>
      <trkpt lat="38.979233" lon="-6.087633">
        <ele>1426.0</ele>
        <time>2019-05-04T13:16:25Z</time>
      </trkpt>
      <trkpt lat="38.979250" lon="-6.087533">
        <ele>1427.0</ele>
        <time>2019-05-04T13:16:26Z</time>
      </trkpt>
      <trkpt lat="38.979250" lon="-6.087417">
        <ele>1429.0</ele>
        <time>2019-05-04T13:16:27Z</time>
      </trkpt>
      <trkpt lat="38.979233" lon="-6.087300">
        <ele>1430.0</ele>
        <time>2019-05-04T13:16:28Z</time>
      </trkpt>
      <trkpt lat="38.979183" lon="-6.087200">
        <ele>1431.0</ele>
        <time>2019-05-04T13:16:29Z</time>
      </trkpt>
      <trkpt lat="38.979117" lon="-6.087133">
        <ele>1432.0</ele>
        <time>2019-05-04T13:16:30Z</time>
      </trkpt>
      <trkpt lat="38.979050" lon="-6.087117">
        <ele>1432.0</ele>
        <time>2019-05-04T13:16:31Z</time>
      </trkpt>
      <trkpt lat="38.978967" lon="-6.087150">
        <ele>1433.0</ele>
        <time>2019-05-04T13:16:32Z</time>
      </trkpt>
      <trkpt lat="38.978917" lon="-6.087217">
        <ele>1434.0</ele>
        <time>2019-05-04T13:16:33Z</time>
      </trkpt>
      <trkpt lat="38.978900" lon="-6.087317">
        <ele>1435.0</ele>
        <time>2019-05-04T13:16:34Z</time>
      </trkpt>
      <trkpt lat="38.978883" lon="-6.087400">
        <ele>1436.0</ele>
        <time>2019-05-04T13:16:35Z</time>
      </trkpt>
      <trkpt lat="38.978883" lon="-6.087483">
        <ele>1441.0</ele>
        <time>2019-05-04T13:16:36Z</time>
      </trkpt>
      <trkpt lat="38.978867" lon="-6.087550">
        <ele>1444.0</ele>
        <time>2019-05-04T13:16:37Z</time>
      </trkpt>
      <trkpt lat="38.978883" lon="-6.087650">
        <ele>1446.0</ele>
        <time>2019-05-04T13:16:38Z</time>
      </trkpt>
      <trkpt lat="38.978900" lon="-6.087733">
        <ele>1448.0</ele>
        <time>2019-05-04T13:16:39Z</time>
      </trkpt>
      <trkpt lat="38.978950" lon="-6.087817">
        <ele>1450.0</ele>
        <time>2019-05-04T13:16:40Z</time>
      </trkpt>
      <trkpt lat="38.978983" lon="-6.087883">
        <ele>1452.0</ele>
        <time>2019-05-04T13:16:41Z</time>
      </trkpt>
      <trkpt lat="38.979050" lon="-6.087950">
        <ele>1453.0</ele>
        <time>2019-05-04T13:16:42Z</time>
      </trkpt>
      <trkpt lat="38.979117" lon="-6.088000">
        <ele>1454.0</ele>
        <time>2019-05-04T13:16:43Z</time>
      </trkpt>
      <trkpt lat="38.979200" lon="-6.088017">
        <ele>1454.0</ele>
        <time>2019-05-04T13:16:44Z</time>
      </trkpt>
      <trkpt lat="38.979300" lon="-6.088017">
        <ele>1455.0</ele>
        <time>2019-05-04T13:16:45Z</time>
      </trkpt>
      <trkpt lat="38.979383" lon="-6.087983">
        <ele>1455.0</ele>
        <time>2019-05-04T13:16:46Z</time>
      </trkpt>
      <trkpt lat="38.979467" lon="-6.087917">
        <ele>1456.0</ele>
        <time>2019-05-04T13:16:47Z</time>
      </trkpt>
      <trkpt lat="38.979533" lon="-6.087817">
        <ele>1457.0</ele>
        <time>2019-05-04T13:16:48Z</time>
      </trkpt>
      <trkpt lat="38.979583" lon="-6.087717">
        <ele>1458.0</ele>
        <time>2019-05-04T13:16:49Z</time>
      </trkpt>
      <trkpt lat="38.979583" lon="-6.087600">
        <ele>1460.0</ele>
        <time>2019-05-04T13:16:50Z</time>
      </trkpt>
      <trkpt lat="38.979583" lon="-6.087500">
        <ele>1461.0</ele>
        <time>2019-05-04T13:16:51Z</time>
      </trkpt>
      <trkpt lat="38.979567" lon="-6.087383">
        <ele>1462.0</ele>
        <time>2019-05-04T13:16:52Z</time>
      </trkpt>
      <trkpt lat="38.979517" lon="-6.087283">
        <ele>1462.0</ele>
        <time>2019-05-04T13:16:53Z</time>
      </trkpt>
      <trkpt lat="38.979450" lon="-6.087217">
        <ele>1463.0</ele>
        <time>2019-05-04T13:16:54Z</time>
      </trkpt>
      <trkpt lat="38.979367" lon="-6.087183">
        <ele>1463.0</ele>
        <time>2019-05-04T13:16:55Z</time>
      </trkpt>
      <trkpt lat="38.979283" lon="-6.087183">
        <ele>1463.0</ele>
        <time>2019-05-04T13:16:56Z</time>
      </trkpt>
      <trkpt lat="38.979200" lon="-6.087217">
        <ele>1463.0</ele>
        <time>2019-05-04T13:16:57Z</time>
      </trkpt>
      <trkpt lat="38.979150" lon="-6.087283">
        <ele>1464.0</ele>
        <time>2019-05-04T13:16:58Z</time>
      </trkpt>
      <trkpt lat="38.979117" lon="-6.087367">
        <ele>1465.0</ele>
        <time>2019-05-04T13:16:59Z</time>
      </trkpt>
      <trkpt lat="38.979100" lon="-6.087450">
        <ele>1466.0</ele>
        <time>2019-05-04T13:17:00Z</time>
      </trkpt>
      <trkpt lat="38.979100" lon="-6.087550">
        <ele>1467.0</ele>
        <time>2019-05-04T13:17:01Z</time>
      </trkpt>
      <trkpt lat="38.979133" lon="-6.087650">
        <ele>1468.0</ele>
        <time>2019-05-04T13:17:02Z</time>
      </trkpt>
      <trkpt lat="38.979167" lon="-6.087733">
        <ele>1469.0</ele>
        <time>2019-05-04T13:17:03Z</time>
      </trkpt>
      <trkpt lat="38.979217" lon="-6.087800">
        <ele>1471.0</ele>
        <time>2019-05-04T13:17:04Z</time>
      </trkpt>
      <trkpt lat="38.979283" lon="-6.087883">
        <ele>1472.0</ele>
        <time>2019-05-04T13:17:05Z</time>
      </trkpt>
      <trkpt lat="38.979350" lon="-6.087950">
        <ele>1472.0</ele>
        <time>2019-05-04T13:17:06Z</time>
      </trkpt>
      <trkpt lat="38.979417" lon="-6.088000">
        <ele>1473.0</ele>
        <time>2019-05-04T13:17:07Z</time>
      </trkpt>
      <trkpt lat="38.979500" lon="-6.088033">
        <ele>1474.0</ele>
        <time>2019-05-04T13:17:08Z</time>
      </trkpt>
      <trkpt lat="38.979583" lon="-6.088067">
        <ele>1474.0</ele>
        <time>2019-05-04T13:17:09Z</time>
      </trkpt>
      <trkpt lat="38.979667" lon="-6.088100">
        <ele>1476.0</ele>
        <time>2019-05-04T13:17:10Z</time>
      </trkpt>
      <trkpt lat="38.979733" lon="-6.088133">
        <ele>1477.0</ele>
        <time>2019-05-04T13:17:11Z</time>
      </trkpt>
      <trkpt lat="38.979800" lon="-6.088167">
        <ele>1478.0</ele>
        <time>2019-05-04T13:17:12Z</time>
      </trkpt>
      <trkpt lat="38.979900" lon="-6.088183">
        <ele>1479.0</ele>
        <time>2019-05-04T13:17:13Z</time>
      </trkpt>
      <trkpt lat="38.979983" lon="-6.088200">
        <ele>1480.0</ele>
        <time>2019-05-04T13:17:14Z</time>
      </trkpt>
      <trkpt lat="38.980050" lon="-6.088217">
        <ele>1480.0</ele>
        <time>2019-05-04T13:17:15Z</time>
      </trkpt>
      <trkpt lat="38.980133" lon="-6.088217">
        <ele>1481.0</ele>
        <time>2019-05-04T13:17:16Z</time>
      </trkpt>
      <trkpt lat="38.980200" lon="-6.088183">
        <ele>1482.0</ele>
        <time>2019-05-04T13:17:17Z</time>
      </trkpt>
      <trkpt lat="38.980283" lon="-6.088133">
        <ele>1482.0</ele>
        <time>2019-05-04T13:17:18Z</time>
      </trkpt>
      <trkpt lat="38.980367" lon="-6.088067">
        <ele>1482.0</ele>
        <time>2019-05-04T13:17:19Z</time>
      </trkpt>
      <trkpt lat="38.980433" lon="-6.087983">
        <ele>1482.0</ele>
        <time>2019-05-04T13:17:20Z</time>
      </trkpt>
      <trkpt lat="38.980483" lon="-6.087900">
        <ele>1483.0</ele>
        <time>2019-05-04T13:17:21Z</time>
      </trkpt>
      <trkpt lat="38.980517" lon="-6.087800">
        <ele>1484.0</ele>
        <time>2019-05-04T13:17:22Z</time>
      </trkpt>
      <trkpt lat="38.980533" lon="-6.087700">
        <ele>1484.0</ele>
        <time>2019-05-04T13:17:23Z</time>
      </trkpt>
      <trkpt lat="38.980550" lon="-6.087583">
        <ele>1485.0</ele>
        <time>2019-05-04T13:17:24Z</time>
      </trkpt>
      <trkpt lat="38.980567" lon="-6.087483">
        <ele>1486.0</ele>
        <time>2019-05-04T13:17:25Z</time>
      </trkpt>
      <trkpt lat="38.980550" lon="-6.087383">
        <ele>1487.0</ele>
        <time>2019-05-04T13:17:26Z</time>
      </trkpt>
      <trkpt lat="38.980533" lon="-6.087283">
        <ele>1488.0</ele>
        <time>2019-05-04T13:17:27Z</time>
      </trkpt>
      <trkpt lat="38.980533" lon="-6.087200">
        <ele>1489.0</ele>
        <time>2019-05-04T13:17:28Z</time>
      </trkpt>
      <trkpt lat="38.980550" lon="-6.087100">
        <ele>1489.0</ele>
        <time>2019-05-04T13:17:29Z</time>
      </trkpt>
      <trkpt lat="38.980567" lon="-6.086983">
        <ele>1488.0</ele>
        <time>2019-05-04T13:17:30Z</time>
      </trkpt>
      <trkpt lat="38.980617" lon="-6.086867">
        <ele>1488.0</ele>
        <time>2019-05-04T13:17:31Z</time>
      </trkpt>
      <trkpt lat="38.980667" lon="-6.086783">
        <ele>1488.0</ele>
        <time>2019-05-04T13:17:32Z</time>
      </trkpt>
      <trkpt lat="38.980733" lon="-6.086717">
        <ele>1489.0</ele>
        <time>2019-05-04T13:17:33Z</time>
      </trkpt>
      <trkpt lat="38.980817" lon="-6.086667">
        <ele>1489.0</ele>
        <time>2019-05-04T13:17:34Z</time>
      </trkpt>
      <trkpt lat="38.980900" lon="-6.086633">
        <ele>1489.0</ele>
        <time>2019-05-04T13:17:35Z</time>
      </trkpt>
      <trkpt lat="38.981000" lon="-6.086633">
        <ele>1488.0</ele>
        <time>2019-05-04T13:17:36Z</time>
      </trkpt>
      <trkpt lat="38.981083" lon="-6.086667">
        <ele>1488.0</ele>
        <time>2019-05-04T13:17:37Z</time>
      </trkpt>
      <trkpt lat="38.981167" lon="-6.086733">
        <ele>1488.0</ele>
        <time>2019-05-04T13:17:38Z</time>
      </trkpt>
      <trkpt lat="38.981217" lon="-6.086817">
        <ele>1489.0</ele>
        <time>2019-05-04T13:17:39Z</time>
      </trkpt>
      <trkpt lat="38.981250" lon="-6.086900">
        <ele>1490.0</ele>
        <time>2019-05-04T13:17:40Z</time>
      </trkpt>
      <trkpt lat="38.981267" lon="-6.086983">
        <ele>1491.0</ele>
        <time>2019-05-04T13:17:41Z</time>
      </trkpt>
      <trkpt lat="38.981283" lon="-6.087067">
        <ele>1492.0</ele>
        <time>2019-05-04T13:17:42Z</time>
      </trkpt>
      <trkpt lat="38.981267" lon="-6.087167">
        <ele>1493.0</ele>
        <time>2019-05-04T13:17:43Z</time>
      </trkpt>
      <trkpt lat="38.981250" lon="-6.087250">
        <ele>1493.0</ele>
        <time>2019-05-04T13:17:44Z</time>
      </trkpt>
      <trkpt lat="38.981200" lon="-6.087317">
        <ele>1493.0</ele>
        <time>2019-05-04T13:17:45Z</time>
      </trkpt>
      <trkpt lat="38.981167" lon="-6.087400">
        <ele>1493.0</ele>
        <time>2019-05-04T13:17:46Z</time>
      </trkpt>
      <trkpt lat="38.981100" lon="-6.087483">
        <ele>1492.0</ele>
        <time>2019-05-04T13:17:47Z</time>
      </trkpt>
      <trkpt lat="38.981033" lon="-6.087550">
        <ele>1493.0</ele>
        <time>2019-05-04T13:17:48Z</time>
      </trkpt>
      <trkpt lat="38.980967" lon="-6.087600">
        <ele>1493.0</ele>
        <time>2019-05-04T13:17:49Z</time>
      </trkpt>
      <trkpt lat="38.980900" lon="-6.087617">
        <ele>1495.0</ele>
        <time>2019-05-04T13:17:50Z</time>
      </trkpt>
      <trkpt lat="38.980833" lon="-6.087650">
        <ele>1496.0</ele>
        <time>2019-05-04T13:17:51Z</time>
      </trkpt>
      <trkpt lat="38.980783" lon="-6.087700">
        <ele>1497.0</ele>
        <time>2019-05-04T13:17:52Z</time>
      </trkpt>
      <trkpt lat="38.980717" lon="-6.087750">
        <ele>1497.0</ele>
        <time>2019-05-04T13:17:53Z</time>
      </trkpt>
      <trkpt lat="38.980650" lon="-6.087800">
        <ele>1498.0</ele>
        <time>2019-05-04T13:17:54Z</time>
      </trkpt>
      <trkpt lat="38.980600" lon="-6.087867">
        <ele>1498.0</ele>
        <time>2019-05-04T13:17:55Z</time>
      </trkpt>
      <trkpt lat="38.980567" lon="-6.087950">
        <ele>1499.0</ele>
        <time>2019-05-04T13:17:56Z</time>
      </trkpt>
      <trkpt lat="38.980550" lon="-6.088033">
        <ele>1498.0</ele>
        <time>2019-05-04T13:17:57Z</time>
      </trkpt>
      <trkpt lat="38.980550" lon="-6.088117">
        <ele>1497.0</ele>
        <time>2019-05-04T13:17:58Z</time>
      </trkpt>
      <trkpt lat="38.980567" lon="-6.088217">
        <ele>1497.0</ele>
        <time>2019-05-04T13:17:59Z</time>
      </trkpt>
      <trkpt lat="38.980583" lon="-6.088300">
        <ele>1497.0</ele>
        <time>2019-05-04T13:18:00Z</time>
      </trkpt>
      <trkpt lat="38.980633" lon="-6.088367">
        <ele>1497.0</ele>
        <time>2019-05-04T13:18:01Z</time>
      </trkpt>
      <trkpt lat="38.980717" lon="-6.088433">
        <ele>1497.0</ele>
        <time>2019-05-04T13:18:02Z</time>
      </trkpt>
      <trkpt lat="38.980800" lon="-6.088483">
        <ele>1497.0</ele>
        <time>2019-05-04T13:18:03Z</time>
      </trkpt>
      <trkpt lat="38.980883" lon="-6.088500">
        <ele>1497.0</ele>
        <time>2019-05-04T13:18:04Z</time>
      </trkpt>
      <trkpt lat="38.980967" lon="-6.088500">
        <ele>1497.0</ele>
        <time>2019-05-04T13:18:05Z</time>
      </trkpt>
      <trkpt lat="38.981033" lon="-6.088483">
        <ele>1496.0</ele>
        <time>2019-05-04T13:18:06Z</time>
      </trkpt>
      <trkpt lat="38.981117" lon="-6.088450">
        <ele>1496.0</ele>
        <time>2019-05-04T13:18:07Z</time>
      </trkpt>
      <trkpt lat="38.981200" lon="-6.088400">
        <ele>1494.0</ele>
        <time>2019-05-04T13:18:08Z</time>
      </trkpt>
      <trkpt lat="38.981283" lon="-6.088333">
        <ele>1492.0</ele>
        <time>2019-05-04T13:18:09Z</time>
      </trkpt>
      <trkpt lat="38.981350" lon="-6.088250">
        <ele>1490.0</ele>
        <time>2019-05-04T13:18:10Z</time>
      </trkpt>
      <trkpt lat="38.981400" lon="-6.088150">
        <ele>1488.0</ele>
        <time>2019-05-04T13:18:11Z</time>
      </trkpt>
      <trkpt lat="38.981433" lon="-6.088033">
        <ele>1487.0</ele>
        <time>2019-05-04T13:18:12Z</time>
      </trkpt>
      <trkpt lat="38.981467" lon="-6.087917">
        <ele>1484.0</ele>
        <time>2019-05-04T13:18:13Z</time>
      </trkpt>
      <trkpt lat="38.981500" lon="-6.087783">
        <ele>1483.0</ele>
        <time>2019-05-04T13:18:14Z</time>
      </trkpt>
      <trkpt lat="38.981517" lon="-6.087650">
        <ele>1482.0</ele>
        <time>2019-05-04T13:18:15Z</time>
      </trkpt>
      <trkpt lat="38.981517" lon="-6.087517">
        <ele>1481.0</ele>
        <time>2019-05-04T13:18:16Z</time>
      </trkpt>
      <trkpt lat="38.981533" lon="-6.087383">
        <ele>1480.0</ele>
        <time>2019-05-04T13:18:17Z</time>
      </trkpt>
      <trkpt lat="38.981550" lon="-6.087267">
        <ele>1480.0</ele>
        <time>2019-05-04T13:18:18Z</time>
      </trkpt>
      <trkpt lat="38.981567" lon="-6.087150">
        <ele>1481.0</ele>
        <time>2019-05-04T13:18:19Z</time>
      </trkpt>
      <trkpt lat="38.981583" lon="-6.087033">
        <ele>1480.0</ele>
        <time>2019-05-04T13:18:20Z</time>
      </trkpt>
      <trkpt lat="38.981567" lon="-6.086900">
        <ele>1480.0</ele>
        <time>2019-05-04T13:18:21Z</time>
      </trkpt>
      <trkpt lat="38.981550" lon="-6.086783">
        <ele>1479.0</ele>
        <time>2019-05-04T13:18:22Z</time>
      </trkpt>
      <trkpt lat="38.981500" lon="-6.086667">
        <ele>1479.0</ele>
        <time>2019-05-04T13:18:23Z</time>
      </trkpt>
      <trkpt lat="38.981467" lon="-6.086567">
        <ele>1479.0</ele>
        <time>2019-05-04T13:18:24Z</time>
      </trkpt>
      <trkpt lat="38.981417" lon="-6.086483">
        <ele>1480.0</ele>
        <time>2019-05-04T13:18:25Z</time>
      </trkpt>
      <trkpt lat="38.981350" lon="-6.086417">
        <ele>1481.0</ele>
        <time>2019-05-04T13:18:26Z</time>
      </trkpt>
      <trkpt lat="38.981283" lon="-6.086367">
        <ele>1481.0</ele>
        <time>2019-05-04T13:18:27Z</time>
      </trkpt>
      <trkpt lat="38.981200" lon="-6.086333">
        <ele>1481.0</ele>
        <time>2019-05-04T13:18:28Z</time>
      </trkpt>
      <trkpt lat="38.981117" lon="-6.086317">
        <ele>1481.0</ele>
        <time>2019-05-04T13:18:29Z</time>
      </trkpt>
      <trkpt lat="38.981033" lon="-6.086317">
        <ele>1481.0</ele>
        <time>2019-05-04T13:18:30Z</time>
      </trkpt>
      <trkpt lat="38.980967" lon="-6.086317">
        <ele>1480.0</ele>
        <time>2019-05-04T13:18:31Z</time>
      </trkpt>
      <trkpt lat="38.980883" lon="-6.086300">
        <ele>1480.0</ele>
        <time>2019-05-04T13:18:32Z</time>
      </trkpt>
      <trkpt lat="38.980800" lon="-6.086300">
        <ele>1480.0</ele>
        <time>2019-05-04T13:18:33Z</time>
      </trkpt>
      <trkpt lat="38.980700" lon="-6.086283">
        <ele>1479.0</ele>
        <time>2019-05-04T13:18:34Z</time>
      </trkpt>
      <trkpt lat="38.980617" lon="-6.086267">
        <ele>1479.0</ele>
        <time>2019-05-04T13:18:35Z</time>
      </trkpt>
      <trkpt lat="38.980533" lon="-6.086267">
        <ele>1478.0</ele>
        <time>2019-05-04T13:18:36Z</time>
      </trkpt>
      <trkpt lat="38.980433" lon="-6.086267">
        <ele>1478.0</ele>
        <time>2019-05-04T13:18:37Z</time>
      </trkpt>
      <trkpt lat="38.980350" lon="-6.086283">
        <ele>1477.0</ele>
        <time>2019-05-04T13:18:38Z</time>
      </trkpt>
      <trkpt lat="38.980267" lon="-6.086283">
        <ele>1477.0</ele>
        <time>2019-05-04T13:18:39Z</time>
      </trkpt>
      <trkpt lat="38.980183" lon="-6.086283">
        <ele>1477.0</ele>
        <time>2019-05-04T13:18:40Z</time>
      </trkpt>
      <trkpt lat="38.980100" lon="-6.086283">
        <ele>1477.0</ele>
        <time>2019-05-04T13:18:41Z</time>
      </trkpt>
      <trkpt lat="38.980017" lon="-6.086283">
        <ele>1476.0</ele>
        <time>2019-05-04T13:18:42Z</time>
      </trkpt>
      <trkpt lat="38.979950" lon="-6.086300">
        <ele>1475.0</ele>
        <time>2019-05-04T13:18:43Z</time>
      </trkpt>
      <trkpt lat="38.979867" lon="-6.086333">
        <ele>1473.0</ele>
        <time>2019-05-04T13:18:44Z</time>
      </trkpt>
      <trkpt lat="38.979767" lon="-6.086350">
        <ele>1472.0</ele>
        <time>2019-05-04T13:18:45Z</time>
      </trkpt>
      <trkpt lat="38.979683" lon="-6.086383">
        <ele>1471.0</ele>
        <time>2019-05-04T13:18:46Z</time>
      </trkpt>
      <trkpt lat="38.979600" lon="-6.086383">
        <ele>1472.0</ele>
        <time>2019-05-04T13:18:47Z</time>
      </trkpt>
      <trkpt lat="38.979517" lon="-6.086400">
        <ele>1471.0</ele>
        <time>2019-05-04T13:18:48Z</time>
      </trkpt>
      <trkpt lat="38.979433" lon="-6.086433">
        <ele>1471.0</ele>
        <time>2019-05-04T13:18:49Z</time>
      </trkpt>
      <trkpt lat="38.979350" lon="-6.086450">
        <ele>1471.0</ele>
        <time>2019-05-04T13:18:50Z</time>
      </trkpt>
      <trkpt lat="38.979267" lon="-6.086467">
        <ele>1470.0</ele>
        <time>2019-05-04T13:18:51Z</time>
      </trkpt>
      <trkpt lat="38.979183" lon="-6.086483">
        <ele>1469.0</ele>
        <time>2019-05-04T13:18:52Z</time>
      </trkpt>
      <trkpt lat="38.979100" lon="-6.086483">
        <ele>1467.0</ele>
        <time>2019-05-04T13:18:53Z</time>
      </trkpt>
      <trkpt lat="38.979017" lon="-6.086500">
        <ele>1466.0</ele>
        <time>2019-05-04T13:18:54Z</time>
      </trkpt>
      <trkpt lat="38.978933" lon="-6.086517">
        <ele>1465.0</ele>
        <time>2019-05-04T13:18:55Z</time>
      </trkpt>
      <trkpt lat="38.978833" lon="-6.086550">
        <ele>1463.0</ele>
        <time>2019-05-04T13:18:56Z</time>
      </trkpt>
      <trkpt lat="38.978733" lon="-6.086567">
        <ele>1462.0</ele>
        <time>2019-05-04T13:18:57Z</time>
      </trkpt>
      <trkpt lat="38.978633" lon="-6.086583">
        <ele>1461.0</ele>
        <time>2019-05-04T13:18:58Z</time>
      </trkpt>
      <trkpt lat="38.978550" lon="-6.086600">
        <ele>1461.0</ele>
        <time>2019-05-04T13:18:59Z</time>
      </trkpt>
      <trkpt lat="38.978450" lon="-6.086600">
        <ele>1461.0</ele>
        <time>2019-05-04T13:19:00Z</time>
      </trkpt>
      <trkpt lat="38.978350" lon="-6.086617">
        <ele>1460.0</ele>
        <time>2019-05-04T13:19:01Z</time>
      </trkpt>
      <trkpt lat="38.978250" lon="-6.086650">
        <ele>1461.0</ele>
        <time>2019-05-04T13:19:02Z</time>
      </trkpt>
      <trkpt lat="38.978167" lon="-6.086683">
        <ele>1462.0</ele>
        <time>2019-05-04T13:19:03Z</time>
      </trkpt>
      <trkpt lat="38.978083" lon="-6.086717">
        <ele>1463.0</ele>
        <time>2019-05-04T13:19:04Z</time>
      </trkpt>
      <trkpt lat="38.978000" lon="-6.086733">
        <ele>1465.0</ele>
        <time>2019-05-04T13:19:05Z</time>
      </trkpt>
      <trkpt lat="38.977917" lon="-6.086767">
        <ele>1466.0</ele>
        <time>2019-05-04T13:19:06Z</time>
      </trkpt>
      <trkpt lat="38.977833" lon="-6.086800">
        <ele>1468.0</ele>
        <time>2019-05-04T13:19:07Z</time>
      </trkpt>
      <trkpt lat="38.977783" lon="-6.086850">
        <ele>1469.0</ele>
        <time>2019-05-04T13:19:08Z</time>
      </trkpt>
      <trkpt lat="38.977717" lon="-6.086917">
        <ele>1470.0</ele>
        <time>2019-05-04T13:19:09Z</time>
      </trkpt>
      <trkpt lat="38.977667" lon="-6.087000">
        <ele>1472.0</ele>
        <time>2019-05-04T13:19:10Z</time>
      </trkpt>
      <trkpt lat="38.977633" lon="-6.087100">
        <ele>1473.0</ele>
        <time>2019-05-04T13:19:11Z</time>
      </trkpt>
      <trkpt lat="38.977633" lon="-6.087217">
        <ele>1474.0</ele>
        <time>2019-05-04T13:19:12Z</time>
      </trkpt>
      <trkpt lat="38.977650" lon="-6.087333">
        <ele>1475.0</ele>
        <time>2019-05-04T13:19:13Z</time>
      </trkpt>
      <trkpt lat="38.977700" lon="-6.087433">
        <ele>1476.0</ele>
        <time>2019-05-04T13:19:14Z</time>
      </trkpt>
      <trkpt lat="38.977783" lon="-6.087533">
        <ele>1477.0</ele>
        <time>2019-05-04T13:19:15Z</time>
      </trkpt>
      <trkpt lat="38.977867" lon="-6.087617">
        <ele>1478.0</ele>
        <time>2019-05-04T13:19:16Z</time>
      </trkpt>
      <trkpt lat="38.977983" lon="-6.087650">
        <ele>1480.0</ele>
        <time>2019-05-04T13:19:17Z</time>
      </trkpt>
      <trkpt lat="38.978083" lon="-6.087650">
        <ele>1483.0</ele>
        <time>2019-05-04T13:19:18Z</time>
      </trkpt>
      <trkpt lat="38.978183" lon="-6.087617">
        <ele>1485.0</ele>
        <time>2019-05-04T13:19:19Z</time>
      </trkpt>
      <trkpt lat="38.978250" lon="-6.087533">
        <ele>1487.0</ele>
        <time>2019-05-04T13:19:20Z</time>
      </trkpt>
      <trkpt lat="38.978300" lon="-6.087450">
        <ele>1490.0</ele>
        <time>2019-05-04T13:19:21Z</time>
      </trkpt>
      <trkpt lat="38.978300" lon="-6.087350">
        <ele>1492.0</ele>
        <time>2019-05-04T13:19:22Z</time>
      </trkpt>
      <trkpt lat="38.978300" lon="-6.087250">
        <ele>1494.0</ele>
        <time>2019-05-04T13:19:23Z</time>
      </trkpt>
      <trkpt lat="38.978283" lon="-6.087150">
        <ele>1497.0</ele>
        <time>2019-05-04T13:19:24Z</time>
      </trkpt>
      <trkpt lat="38.978250" lon="-6.087067">
        <ele>1499.0</ele>
        <time>2019-05-04T13:19:25Z</time>
      </trkpt>
      <trkpt lat="38.978200" lon="-6.087000">
        <ele>1500.0</ele>
        <time>2019-05-04T13:19:26Z</time>
      </trkpt>
      <trkpt lat="38.978133" lon="-6.086983">
        <ele>1501.0</ele>
        <time>2019-05-04T13:19:27Z</time>
      </trkpt>
      <trkpt lat="38.978067" lon="-6.087000">
        <ele>1502.0</ele>
        <time>2019-05-04T13:19:28Z</time>
      </trkpt>
      <trkpt lat="38.978000" lon="-6.087033">
        <ele>1503.0</ele>
        <time>2019-05-04T13:19:29Z</time>
      </trkpt>
      <trkpt lat="38.977933" lon="-6.087083">
        <ele>1505.0</ele>
        <time>2019-05-04T13:19:30Z</time>
      </trkpt>
      <trkpt lat="38.977883" lon="-6.087167">
        <ele>1506.0</ele>
        <time>2019-05-04T13:19:31Z</time>
      </trkpt>
      <trkpt lat="38.977867" lon="-6.087283">
        <ele>1508.0</ele>
        <time>2019-05-04T13:19:32Z</time>
      </trkpt>
      <trkpt lat="38.977850" lon="-6.087400">
        <ele>1511.0</ele>
        <time>2019-05-04T13:19:33Z</time>
      </trkpt>
      <trkpt lat="38.977850" lon="-6.087517">
        <ele>1514.0</ele>
        <time>2019-05-04T13:19:34Z</time>
      </trkpt>
      <trkpt lat="38.977833" lon="-6.087617">
        <ele>1518.0</ele>
        <time>2019-05-04T13:19:35Z</time>
      </trkpt>
      <trkpt lat="38.977833" lon="-6.087717">
        <ele>1520.0</ele>
        <time>2019-05-04T13:19:36Z</time>
      </trkpt>
      <trkpt lat="38.977833" lon="-6.087850">
        <ele>1522.0</ele>
        <time>2019-05-04T13:19:37Z</time>
      </trkpt>
      <trkpt lat="38.977883" lon="-6.087983">
        <ele>1522.0</ele>
        <time>2019-05-04T13:19:38Z</time>
      </trkpt>
      <trkpt lat="38.977967" lon="-6.088100">
        <ele>1523.0</ele>
        <time>2019-05-04T13:19:39Z</time>
      </trkpt>
      <trkpt lat="38.978083" lon="-6.088150">
        <ele>1525.0</ele>
        <time>2019-05-04T13:19:40Z</time>
      </trkpt>
      <trkpt lat="38.978200" lon="-6.088150">
        <ele>1527.0</ele>
        <time>2019-05-04T13:19:41Z</time>
      </trkpt>
      <trkpt lat="38.978300" lon="-6.088100">
        <ele>1530.0</ele>
        <time>2019-05-04T13:19:42Z</time>
      </trkpt>
      <trkpt lat="38.978367" lon="-6.088017">
        <ele>1532.0</ele>
        <time>2019-05-04T13:19:43Z</time>
      </trkpt>
      <trkpt lat="38.978383" lon="-6.087933">
        <ele>1535.0</ele>
        <time>2019-05-04T13:19:44Z</time>
      </trkpt>
      <trkpt lat="38.978400" lon="-6.087850">
        <ele>1539.0</ele>
        <time>2019-05-04T13:19:45Z</time>
      </trkpt>
      <trkpt lat="38.978383" lon="-6.087783">
        <ele>1542.0</ele>
        <time>2019-05-04T13:19:46Z</time>
      </trkpt>
      <trkpt lat="38.978367" lon="-6.087717">
        <ele>1544.0</ele>
        <time>2019-05-04T13:19:47Z</time>
      </trkpt>
      <trkpt lat="38.978317" lon="-6.087650">
        <ele>1546.0</ele>
        <time>2019-05-04T13:19:48Z</time>
      </trkpt>
      <trkpt lat="38.978233" lon="-6.087617">
        <ele>1548.0</ele>
        <time>2019-05-04T13:19:49Z</time>
      </trkpt>
      <trkpt lat="38.978167" lon="-6.087617">
        <ele>1549.0</ele>
        <time>2019-05-04T13:19:50Z</time>
      </trkpt>
      <trkpt lat="38.978083" lon="-6.087667">
        <ele>1551.0</ele>
        <time>2019-05-04T13:19:51Z</time>
      </trkpt>
      <trkpt lat="38.978033" lon="-6.087750">
        <ele>1553.0</ele>
        <time>2019-05-04T13:19:52Z</time>
      </trkpt>
      <trkpt lat="38.978017" lon="-6.087867">
        <ele>1555.0</ele>
        <time>2019-05-04T13:19:53Z</time>
      </trkpt>
      <trkpt lat="38.978017" lon="-6.087967">
        <ele>1558.0</ele>
        <time>2019-05-04T13:19:54Z</time>
      </trkpt>
      <trkpt lat="38.978033" lon="-6.088067">
        <ele>1559.0</ele>
        <time>2019-05-04T13:19:55Z</time>
      </trkpt>
      <trkpt lat="38.978083" lon="-6.088167">
        <ele>1561.0</ele>
        <time>2019-05-04T13:19:56Z</time>
      </trkpt>
      <trkpt lat="38.978150" lon="-6.088267">
        <ele>1562.0</ele>
        <time>2019-05-04T13:19:57Z</time>
      </trkpt>
      <trkpt lat="38.978233" lon="-6.088350">
        <ele>1564.0</ele>
        <time>2019-05-04T13:19:58Z</time>
      </trkpt>
      <trkpt lat="38.978333" lon="-6.088383">
        <ele>1566.0</ele>
        <time>2019-05-04T13:19:59Z</time>
      </trkpt>
      <trkpt lat="38.978417" lon="-6.088367">
        <ele>1571.0</ele>
        <time>2019-05-04T13:20:00Z</time>
      </trkpt>
      <trkpt lat="38.978500" lon="-6.088333">
        <ele>1575.0</ele>
        <time>2019-05-04T13:20:01Z</time>
      </trkpt>
      <trkpt lat="38.978583" lon="-6.088300">
        <ele>1579.0</ele>
        <time>2019-05-04T13:20:02Z</time>
      </trkpt>
      <trkpt lat="38.978667" lon="-6.088267">
        <ele>1582.0</ele>
        <time>2019-05-04T13:20:03Z</time>
      </trkpt>
      <trkpt lat="38.978767" lon="-6.088200">
        <ele>1585.0</ele>
        <time>2019-05-04T13:20:04Z</time>
      </trkpt>
      <trkpt lat="38.978833" lon="-6.088100">
        <ele>1588.0</ele>
        <time>2019-05-04T13:20:05Z</time>
      </trkpt>
      <trkpt lat="38.978850" lon="-6.087983">
        <ele>1591.0</ele>
        <time>2019-05-04T13:20:06Z</time>
      </trkpt>
      <trkpt lat="38.978833" lon="-6.087867">
        <ele>1593.0</ele>
        <time>2019-05-04T13:20:07Z</time>
      </trkpt>
      <trkpt lat="38.978783" lon="-6.087800">
        <ele>1594.0</ele>
        <time>2019-05-04T13:20:08Z</time>
      </trkpt>
      <trkpt lat="38.978700" lon="-6.087767">
        <ele>1596.0</ele>
        <time>2019-05-04T13:20:09Z</time>
      </trkpt>
      <trkpt lat="38.978633" lon="-6.087767">
        <ele>1598.0</ele>
        <time>2019-05-04T13:20:10Z</time>
      </trkpt>
      <trkpt lat="38.978567" lon="-6.087817">
        <ele>1600.0</ele>
        <time>2019-05-04T13:20:11Z</time>
      </trkpt>
      <trkpt lat="38.978533" lon="-6.087883">
        <ele>1602.0</ele>
        <time>2019-05-04T13:20:12Z</time>
      </trkpt>
      <trkpt lat="38.978500" lon="-6.087950">
        <ele>1604.0</ele>
        <time>2019-05-04T13:20:13Z</time>
      </trkpt>
      <trkpt lat="38.978500" lon="-6.088033">
        <ele>1605.0</ele>
        <time>2019-05-04T13:20:14Z</time>
      </trkpt>
      <trkpt lat="38.978500" lon="-6.088117">
        <ele>1606.0</ele>
        <time>2019-05-04T13:20:15Z</time>
      </trkpt>
      <trkpt lat="38.978550" lon="-6.088200">
        <ele>1607.0</ele>
        <time>2019-05-04T13:20:16Z</time>
      </trkpt>
      <trkpt lat="38.978617" lon="-6.088283">
        <ele>1608.0</ele>
        <time>2019-05-04T13:20:17Z</time>
      </trkpt>
      <trkpt lat="38.978717" lon="-6.088317">
        <ele>1609.0</ele>
        <time>2019-05-04T13:20:18Z</time>
      </trkpt>
      <trkpt lat="38.978817" lon="-6.088283">
        <ele>1612.0</ele>
        <time>2019-05-04T13:20:19Z</time>
      </trkpt>
      <trkpt lat="38.978900" lon="-6.088217">
        <ele>1616.0</ele>
        <time>2019-05-04T13:20:20Z</time>
      </trkpt>
      <trkpt lat="38.978983" lon="-6.088150">
        <ele>1619.0</ele>
        <time>2019-05-04T13:20:21Z</time>
      </trkpt>
      <trkpt lat="38.979067" lon="-6.088100">
        <ele>1622.0</ele>
        <time>2019-05-04T13:20:22Z</time>
      </trkpt>
      <trkpt lat="38.979133" lon="-6.088067">
        <ele>1625.0</ele>
        <time>2019-05-04T13:20:23Z</time>
      </trkpt>
      <trkpt lat="38.979200" lon="-6.088000">
        <ele>1627.0</ele>
        <time>2019-05-04T13:20:24Z</time>
      </trkpt>
      <trkpt lat="38.979267" lon="-6.087933">
        <ele>1629.0</ele>
        <time>2019-05-04T13:20:25Z</time>
      </trkpt>
      <trkpt lat="38.979300" lon="-6.087817">
        <ele>1629.0</ele>
        <time>2019-05-04T13:20:26Z</time>
      </trkpt>
      <trkpt lat="38.979283" lon="-6.087717">
        <ele>1628.0</ele>
        <time>2019-05-04T13:20:27Z</time>
      </trkpt>
      <trkpt lat="38.979233" lon="-6.087650">
        <ele>1628.0</ele>
        <time>2019-05-04T13:20:28Z</time>
      </trkpt>
      <trkpt lat="38.979183" lon="-6.087600">
        <ele>1629.0</ele>
        <time>2019-05-04T13:20:29Z</time>
      </trkpt>
      <trkpt lat="38.979100" lon="-6.087600">
        <ele>1630.0</ele>
        <time>2019-05-04T13:20:30Z</time>
      </trkpt>
      <trkpt lat="38.979033" lon="-6.087633">
        <ele>1631.0</ele>
        <time>2019-05-04T13:20:31Z</time>
      </trkpt>
      <trkpt lat="38.978983" lon="-6.087683">
        <ele>1632.0</ele>
        <time>2019-05-04T13:20:32Z</time>
      </trkpt>
      <trkpt lat="38.978950" lon="-6.087767">
        <ele>1632.0</ele>
        <time>2019-05-04T13:20:33Z</time>
      </trkpt>
      <trkpt lat="38.978933" lon="-6.087867">
        <ele>1634.0</ele>
        <time>2019-05-04T13:20:34Z</time>
      </trkpt>
      <trkpt lat="38.978950" lon="-6.087967">
        <ele>1635.0</ele>
        <time>2019-05-04T13:20:35Z</time>
      </trkpt>
      <trkpt lat="38.978983" lon="-6.088050">
        <ele>1637.0</ele>
        <time>2019-05-04T13:20:36Z</time>
      </trkpt>
      <trkpt lat="38.979033" lon="-6.088150">
        <ele>1638.0</ele>
        <time>2019-05-04T13:20:37Z</time>
      </trkpt>
      <trkpt lat="38.979067" lon="-6.088233">
        <ele>1639.0</ele>
        <time>2019-05-04T13:20:38Z</time>
      </trkpt>
      <trkpt lat="38.979100" lon="-6.088317">
        <ele>1640.0</ele>
        <time>2019-05-04T13:20:39Z</time>
      </trkpt>
      <trkpt lat="38.979133" lon="-6.088400">
        <ele>1640.0</ele>
        <time>2019-05-04T13:20:40Z</time>
      </trkpt>
      <trkpt lat="38.979183" lon="-6.088500">
        <ele>1641.0</ele>
        <time>2019-05-04T13:20:41Z</time>
      </trkpt>
      <trkpt lat="38.979233" lon="-6.088583">
        <ele>1641.0</ele>
        <time>2019-05-04T13:20:42Z</time>
      </trkpt>
      <trkpt lat="38.979300" lon="-6.088633">
        <ele>1643.0</ele>
        <time>2019-05-04T13:20:43Z</time>
      </trkpt>
      <trkpt lat="38.979383" lon="-6.088667">
        <ele>1645.0</ele>
        <time>2019-05-04T13:20:44Z</time>
      </trkpt>
      <trkpt lat="38.979467" lon="-6.088667">
        <ele>1646.0</ele>
        <time>2019-05-04T13:20:45Z</time>
      </trkpt>
      <trkpt lat="38.979567" lon="-6.088633">
        <ele>1647.0</ele>
        <time>2019-05-04T13:20:46Z</time>
      </trkpt>
      <trkpt lat="38.979667" lon="-6.088583">
        <ele>1647.0</ele>
        <time>2019-05-04T13:20:47Z</time>
      </trkpt>
      <trkpt lat="38.979767" lon="-6.088533">
        <ele>1648.0</ele>
        <time>2019-05-04T13:20:48Z</time>
      </trkpt>
      <trkpt lat="38.979833" lon="-6.088500">
        <ele>1653.0</ele>
        <time>2019-05-04T13:20:49Z</time>
      </trkpt>
      <trkpt lat="38.979900" lon="-6.088450">
        <ele>1658.0</ele>
        <time>2019-05-04T13:20:50Z</time>
      </trkpt>
      <trkpt lat="38.979933" lon="-6.088400">
        <ele>1661.0</ele>
        <time>2019-05-04T13:20:51Z</time>
      </trkpt>
      <trkpt lat="38.979967" lon="-6.088317">
        <ele>1663.0</ele>
        <time>2019-05-04T13:20:52Z</time>
      </trkpt>
      <trkpt lat="38.980017" lon="-6.088200">
        <ele>1663.0</ele>
        <time>2019-05-04T13:20:53Z</time>
      </trkpt>
      <trkpt lat="38.980050" lon="-6.088083">
        <ele>1664.0</ele>
        <time>2019-05-04T13:20:54Z</time>
      </trkpt>
      <trkpt lat="38.980050" lon="-6.087950">
        <ele>1664.0</ele>
        <time>2019-05-04T13:20:55Z</time>
      </trkpt>
      <trkpt lat="38.980017" lon="-6.087850">
        <ele>1665.0</ele>
        <time>2019-05-04T13:20:56Z</time>
      </trkpt>
      <trkpt lat="38.979933" lon="-6.087767">
        <ele>1664.0</ele>
        <time>2019-05-04T13:20:57Z</time>
      </trkpt>
      <trkpt lat="38.979867" lon="-6.087717">
        <ele>1664.0</ele>
        <time>2019-05-04T13:20:58Z</time>
      </trkpt>
      <trkpt lat="38.979783" lon="-6.087717">
        <ele>1665.0</ele>
        <time>2019-05-04T13:20:59Z</time>
      </trkpt>
      <trkpt lat="38.979717" lon="-6.087733">
        <ele>1665.0</ele>
        <time>2019-05-04T13:21:00Z</time>
      </trkpt>
      <trkpt lat="38.979633" lon="-6.087767">
        <ele>1666.0</ele>
        <time>2019-05-04T13:21:01Z</time>
      </trkpt>
      <trkpt lat="38.979567" lon="-6.087817">
        <ele>1665.0</ele>
        <time>2019-05-04T13:21:02Z</time>
      </trkpt>
      <trkpt lat="38.979500" lon="-6.087900">
        <ele>1665.0</ele>
        <time>2019-05-04T13:21:03Z</time>
      </trkpt>
      <trkpt lat="38.979467" lon="-6.088017">
        <ele>1665.0</ele>
        <time>2019-05-04T13:21:04Z</time>
      </trkpt>
      <trkpt lat="38.979467" lon="-6.088133">
        <ele>1665.0</ele>
        <time>2019-05-04T13:21:05Z</time>
      </trkpt>
      <trkpt lat="38.979500" lon="-6.088233">
        <ele>1665.0</ele>
        <time>2019-05-04T13:21:06Z</time>
      </trkpt>
      <trkpt lat="38.979550" lon="-6.088333">
        <ele>1665.0</ele>
        <time>2019-05-04T13:21:07Z</time>
      </trkpt>
      <trkpt lat="38.979617" lon="-6.088383">
        <ele>1667.0</ele>
        <time>2019-05-04T13:21:08Z</time>
      </trkpt>
      <trkpt lat="38.979667" lon="-6.088433">
        <ele>1671.0</ele>
        <time>2019-05-04T13:21:09Z</time>
      </trkpt>
      <trkpt lat="38.979750" lon="-6.088467">
        <ele>1672.0</ele>
        <time>2019-05-04T13:21:10Z</time>
      </trkpt>
      <trkpt lat="38.979833" lon="-6.088483">
        <ele>1673.0</ele>
        <time>2019-05-04T13:21:11Z</time>
      </trkpt>
      <trkpt lat="38.979933" lon="-6.088500">
        <ele>1673.0</ele>
        <time>2019-05-04T13:21:12Z</time>
      </trkpt>
      <trkpt lat="38.980017" lon="-6.088467">
        <ele>1674.0</ele>
        <time>2019-05-04T13:21:13Z</time>
      </trkpt>
      <trkpt lat="38.980100" lon="-6.088417">
        <ele>1675.0</ele>
        <time>2019-05-04T13:21:14Z</time>
      </trkpt>
      <trkpt lat="38.980167" lon="-6.088367">
        <ele>1677.0</ele>
        <time>2019-05-04T13:21:15Z</time>
      </trkpt>
      <trkpt lat="38.980233" lon="-6.088300">
        <ele>1678.0</ele>
        <time>2019-05-04T13:21:16Z</time>
      </trkpt>
      <trkpt lat="38.980283" lon="-6.088233">
        <ele>1678.0</ele>
        <time>2019-05-04T13:21:17Z</time>
      </trkpt>
      <trkpt lat="38.980350" lon="-6.088133">
        <ele>1679.0</ele>
        <time>2019-05-04T13:21:18Z</time>
      </trkpt>
      <trkpt lat="38.980400" lon="-6.088033">
        <ele>1678.0</ele>
        <time>2019-05-04T13:21:19Z</time>
      </trkpt>
      <trkpt lat="38.980433" lon="-6.087900">
        <ele>1677.0</ele>
        <time>2019-05-04T13:21:20Z</time>
      </trkpt>
      <trkpt lat="38.980433" lon="-6.087767">
        <ele>1676.0</ele>
        <time>2019-05-04T13:21:21Z</time>
      </trkpt>
      <trkpt lat="38.980417" lon="-6.087667">
        <ele>1675.0</ele>
        <time>2019-05-04T13:21:22Z</time>
      </trkpt>
      <trkpt lat="38.980367" lon="-6.087567">
        <ele>1674.0</ele>
        <time>2019-05-04T13:21:23Z</time>
      </trkpt>
      <trkpt lat="38.980300" lon="-6.087483">
        <ele>1672.0</ele>
        <time>2019-05-04T13:21:24Z</time>
      </trkpt>
      <trkpt lat="38.980233" lon="-6.087417">
        <ele>1670.0</ele>
        <time>2019-05-04T13:21:25Z</time>
      </trkpt>
      <trkpt lat="38.980150" lon="-6.087383">
        <ele>1668.0</ele>
        <time>2019-05-04T13:21:26Z</time>
      </trkpt>
      <trkpt lat="38.980067" lon="-6.087367">
        <ele>1667.0</ele>
        <time>2019-05-04T13:21:27Z</time>
      </trkpt>
      <trkpt lat="38.979983" lon="-6.087400">
        <ele>1665.0</ele>
        <time>2019-05-04T13:21:28Z</time>
      </trkpt>
      <trkpt lat="38.979900" lon="-6.087417">
        <ele>1664.0</ele>
        <time>2019-05-04T13:21:29Z</time>
      </trkpt>
      <trkpt lat="38.979817" lon="-6.087450">
        <ele>1664.0</ele>
        <time>2019-05-04T13:21:30Z</time>
      </trkpt>
      <trkpt lat="38.979733" lon="-6.087467">
        <ele>1664.0</ele>
        <time>2019-05-04T13:21:31Z</time>
      </trkpt>
      <trkpt lat="38.979667" lon="-6.087483">
        <ele>1664.0</ele>
        <time>2019-05-04T13:21:32Z</time>
      </trkpt>
      <trkpt lat="38.979583" lon="-6.087533">
        <ele>1664.0</ele>
        <time>2019-05-04T13:21:33Z</time>
      </trkpt>
      <trkpt lat="38.979517" lon="-6.087583">
        <ele>1664.0</ele>
        <time>2019-05-04T13:21:34Z</time>
      </trkpt>
      <trkpt lat="38.979450" lon="-6.087633">
        <ele>1664.0</ele>
        <time>2019-05-04T13:21:35Z</time>
      </trkpt>
      <trkpt lat="38.979367" lon="-6.087683">
        <ele>1663.0</ele>
        <time>2019-05-04T13:21:36Z</time>
      </trkpt>
      <trkpt lat="38.979300" lon="-6.087733">
        <ele>1663.0</ele>
        <time>2019-05-04T13:21:37Z</time>
      </trkpt>
      <trkpt lat="38.979217" lon="-6.087800">
        <ele>1662.0</ele>
        <time>2019-05-04T13:21:38Z</time>
      </trkpt>
      <trkpt lat="38.979133" lon="-6.087850">
        <ele>1661.0</ele>
        <time>2019-05-04T13:21:39Z</time>
      </trkpt>
      <trkpt lat="38.979050" lon="-6.087917">
        <ele>1660.0</ele>
        <time>2019-05-04T13:21:40Z</time>
      </trkpt>
      <trkpt lat="38.978967" lon="-6.087983">
        <ele>1659.0</ele>
        <time>2019-05-04T13:21:41Z</time>
      </trkpt>
      <trkpt lat="38.978867" lon="-6.088050">
        <ele>1658.0</ele>
        <time>2019-05-04T13:21:42Z</time>
      </trkpt>
      <trkpt lat="38.978783" lon="-6.088100">
        <ele>1657.0</ele>
        <time>2019-05-04T13:21:43Z</time>
      </trkpt>
      <trkpt lat="38.978683" lon="-6.088150">
        <ele>1657.0</ele>
        <time>2019-05-04T13:21:44Z</time>
      </trkpt>
      <trkpt lat="38.978600" lon="-6.088167">
        <ele>1658.0</ele>
        <time>2019-05-04T13:21:45Z</time>
      </trkpt>
      <trkpt lat="38.978517" lon="-6.088183">
        <ele>1658.0</ele>
        <time>2019-05-04T13:21:46Z</time>
      </trkpt>
      <trkpt lat="38.978417" lon="-6.088200">
        <ele>1658.0</ele>
        <time>2019-05-04T13:21:47Z</time>
      </trkpt>
      <trkpt lat="38.978317" lon="-6.088217">
        <ele>1657.0</ele>
        <time>2019-05-04T13:21:48Z</time>
      </trkpt>
      <trkpt lat="38.978217" lon="-6.088233">
        <ele>1656.0</ele>
        <time>2019-05-04T13:21:49Z</time>
      </trkpt>
      <trkpt lat="38.978117" lon="-6.088250">
        <ele>1656.0</ele>
        <time>2019-05-04T13:21:50Z</time>
      </trkpt>
      <trkpt lat="38.978033" lon="-6.088300">
        <ele>1657.0</ele>
        <time>2019-05-04T13:21:51Z</time>
      </trkpt>
      <trkpt lat="38.977950" lon="-6.088333">
        <ele>1659.0</ele>
        <time>2019-05-04T13:21:52Z</time>
      </trkpt>
      <trkpt lat="38.977850" lon="-6.088367">
        <ele>1661.0</ele>
        <time>2019-05-04T13:21:53Z</time>
      </trkpt>
      <trkpt lat="38.977750" lon="-6.088383">
        <ele>1662.0</ele>
        <time>2019-05-04T13:21:54Z</time>
      </trkpt>
      <trkpt lat="38.977650" lon="-6.088417">
        <ele>1664.0</ele>
        <time>2019-05-04T13:21:55Z</time>
      </trkpt>
      <trkpt lat="38.977567" lon="-6.088467">
        <ele>1665.0</ele>
        <time>2019-05-04T13:21:56Z</time>
      </trkpt>
      <trkpt lat="38.977500" lon="-6.088550">
        <ele>1666.0</ele>
        <time>2019-05-04T13:21:57Z</time>
      </trkpt>
      <trkpt lat="38.977467" lon="-6.088667">
        <ele>1666.0</ele>
        <time>2019-05-04T13:21:58Z</time>
      </trkpt>
      <trkpt lat="38.977467" lon="-6.088767">
        <ele>1667.0</ele>
        <time>2019-05-04T13:21:59Z</time>
      </trkpt>
      <trkpt lat="38.977467" lon="-6.088867">
        <ele>1669.0</ele>
        <time>2019-05-04T13:22:00Z</time>
      </trkpt>
      <trkpt lat="38.977483" lon="-6.088933">
        <ele>1671.0</ele>
        <time>2019-05-04T13:22:01Z</time>
      </trkpt>
      <trkpt lat="38.977533" lon="-6.088983">
        <ele>1673.0</ele>
        <time>2019-05-04T13:22:02Z</time>
      </trkpt>
      <trkpt lat="38.977583" lon="-6.089000">
        <ele>1674.0</ele>
        <time>2019-05-04T13:22:03Z</time>
      </trkpt>
      <trkpt lat="38.977667" lon="-6.089000">
        <ele>1675.0</ele>
        <time>2019-05-04T13:22:04Z</time>
      </trkpt>
      <trkpt lat="38.977733" lon="-6.088933">
        <ele>1677.0</ele>
        <time>2019-05-04T13:22:05Z</time>
      </trkpt>
      <trkpt lat="38.977783" lon="-6.088817">
        <ele>1678.0</ele>
        <time>2019-05-04T13:22:06Z</time>
      </trkpt>
      <trkpt lat="38.977783" lon="-6.088700">
        <ele>1679.0</ele>
        <time>2019-05-04T13:22:07Z</time>
      </trkpt>
      <trkpt lat="38.977750" lon="-6.088567">
        <ele>1680.0</ele>
        <time>2019-05-04T13:22:08Z</time>
      </trkpt>
      <trkpt lat="38.977683" lon="-6.088467">
        <ele>1681.0</ele>
        <time>2019-05-04T13:22:09Z</time>
      </trkpt>
      <trkpt lat="38.977617" lon="-6.088400">
        <ele>1682.0</ele>
        <time>2019-05-04T13:22:10Z</time>
      </trkpt>
      <trkpt lat="38.977550" lon="-6.088350">
        <ele>1683.0</ele>
        <time>2019-05-04T13:22:11Z</time>
      </trkpt>
      <trkpt lat="38.977450" lon="-6.088317">
        <ele>1684.0</ele>
        <time>2019-05-04T13:22:12Z</time>
      </trkpt>
      <trkpt lat="38.977350" lon="-6.088317">
        <ele>1684.0</ele>
        <time>2019-05-04T13:22:13Z</time>
      </trkpt>
      <trkpt lat="38.977250" lon="-6.088350">
        <ele>1685.0</ele>
        <time>2019-05-04T13:22:14Z</time>
      </trkpt>
      <trkpt lat="38.977183" lon="-6.088400">
        <ele>1685.0</ele>
        <time>2019-05-04T13:22:15Z</time>
      </trkpt>
      <trkpt lat="38.977100" lon="-6.088450">
        <ele>1686.0</ele>
        <time>2019-05-04T13:22:16Z</time>
      </trkpt>
      <trkpt lat="38.977033" lon="-6.088517">
        <ele>1686.0</ele>
        <time>2019-05-04T13:22:17Z</time>
      </trkpt>
      <trkpt lat="38.976950" lon="-6.088583">
        <ele>1686.0</ele>
        <time>2019-05-04T13:22:18Z</time>
      </trkpt>
      <trkpt lat="38.976900" lon="-6.088667">
        <ele>1686.0</ele>
        <time>2019-05-04T13:22:19Z</time>
      </trkpt>
      <trkpt lat="38.976867" lon="-6.088783">
        <ele>1687.0</ele>
        <time>2019-05-04T13:22:20Z</time>
      </trkpt>
      <trkpt lat="38.976850" lon="-6.088900">
        <ele>1688.0</ele>
        <time>2019-05-04T13:22:21Z</time>
      </trkpt>
      <trkpt lat="38.976833" lon="-6.089000">
        <ele>1691.0</ele>
        <time>2019-05-04T13:22:22Z</time>
      </trkpt>
      <trkpt lat="38.976833" lon="-6.089083">
        <ele>1693.0</ele>
        <time>2019-05-04T13:22:23Z</time>
      </trkpt>
      <trkpt lat="38.976817" lon="-6.089183">
        <ele>1694.0</ele>
        <time>2019-05-04T13:22:24Z</time>
      </trkpt>
      <trkpt lat="38.976817" lon="-6.089267">
        <ele>1695.0</ele>
        <time>2019-05-04T13:22:25Z</time>
      </trkpt>
      <trkpt lat="38.976833" lon="-6.089367">
        <ele>1693.0</ele>
        <time>2019-05-04T13:22:26Z</time>
      </trkpt>
      <trkpt lat="38.976883" lon="-6.089450">
        <ele>1693.0</ele>
        <time>2019-05-04T13:22:27Z</time>
      </trkpt>
      <trkpt lat="38.976950" lon="-6.089483">
        <ele>1693.0</ele>
        <time>2019-05-04T13:22:28Z</time>
      </trkpt>
      <trkpt lat="38.977033" lon="-6.089483">
        <ele>1694.0</ele>
        <time>2019-05-04T13:22:29Z</time>
      </trkpt>
      <trkpt lat="38.977100" lon="-6.089450">
        <ele>1694.0</ele>
        <time>2019-05-04T13:22:30Z</time>
      </trkpt>
      <trkpt lat="38.977167" lon="-6.089400">
        <ele>1695.0</ele>
        <time>2019-05-04T13:22:31Z</time>
      </trkpt>
      <trkpt lat="38.977233" lon="-6.089317">
        <ele>1695.0</ele>
        <time>2019-05-04T13:22:32Z</time>
      </trkpt>
      <trkpt lat="38.977283" lon="-6.089233">
        <ele>1696.0</ele>
        <time>2019-05-04T13:22:33Z</time>
      </trkpt>
      <trkpt lat="38.977317" lon="-6.089117">
        <ele>1697.0</ele>
        <time>2019-05-04T13:22:34Z</time>
      </trkpt>
      <trkpt lat="38.977333" lon="-6.089000">
        <ele>1697.0</ele>
        <time>2019-05-04T13:22:35Z</time>
      </trkpt>
      <trkpt lat="38.977317" lon="-6.088867">
        <ele>1698.0</ele>
        <time>2019-05-04T13:22:36Z</time>
      </trkpt>
      <trkpt lat="38.977283" lon="-6.088750">
        <ele>1698.0</ele>
        <time>2019-05-04T13:22:37Z</time>
      </trkpt>
      <trkpt lat="38.977217" lon="-6.088633">
        <ele>1699.0</ele>
        <time>2019-05-04T13:22:38Z</time>
      </trkpt>
      <trkpt lat="38.977150" lon="-6.088550">
        <ele>1701.0</ele>
        <time>2019-05-04T13:22:39Z</time>
      </trkpt>
      <trkpt lat="38.977067" lon="-6.088500">
        <ele>1702.0</ele>
        <time>2019-05-04T13:22:40Z</time>
      </trkpt>
      <trkpt lat="38.976983" lon="-6.088467">
        <ele>1704.0</ele>
        <time>2019-05-04T13:22:41Z</time>
      </trkpt>
      <trkpt lat="38.976917" lon="-6.088467">
        <ele>1705.0</ele>
        <time>2019-05-04T13:22:42Z</time>
      </trkpt>
      <trkpt lat="38.976833" lon="-6.088483">
        <ele>1706.0</ele>
        <time>2019-05-04T13:22:43Z</time>
      </trkpt>
      <trkpt lat="38.976767" lon="-6.088517">
        <ele>1706.0</ele>
        <time>2019-05-04T13:22:44Z</time>
      </trkpt>
      <trkpt lat="38.976700" lon="-6.088583">
        <ele>1706.0</ele>
        <time>2019-05-04T13:22:45Z</time>
      </trkpt>
      <trkpt lat="38.976617" lon="-6.088667">
        <ele>1705.0</ele>
        <time>2019-05-04T13:22:46Z</time>
      </trkpt>
      <trkpt lat="38.976550" lon="-6.088733">
        <ele>1704.0</ele>
        <time>2019-05-04T13:22:47Z</time>
      </trkpt>
      <trkpt lat="38.976467" lon="-6.088817">
        <ele>1704.0</ele>
        <time>2019-05-04T13:22:48Z</time>
      </trkpt>
      <trkpt lat="38.976383" lon="-6.088883">
        <ele>1704.0</ele>
        <time>2019-05-04T13:22:49Z</time>
      </trkpt>
      <trkpt lat="38.976317" lon="-6.088933">
        <ele>1704.0</ele>
        <time>2019-05-04T13:22:50Z</time>
      </trkpt>
      <trkpt lat="38.976233" lon="-6.089000">
        <ele>1705.0</ele>
        <time>2019-05-04T13:22:51Z</time>
      </trkpt>
      <trkpt lat="38.976150" lon="-6.089033">
        <ele>1704.0</ele>
        <time>2019-05-04T13:22:52Z</time>
      </trkpt>
      <trkpt lat="38.976067" lon="-6.089083">
        <ele>1704.0</ele>
        <time>2019-05-04T13:22:53Z</time>
      </trkpt>
      <trkpt lat="38.975967" lon="-6.089117">
        <ele>1704.0</ele>
        <time>2019-05-04T13:22:54Z</time>
      </trkpt>
      <trkpt lat="38.975883" lon="-6.089150">
        <ele>1704.0</ele>
        <time>2019-05-04T13:22:55Z</time>
      </trkpt>
      <trkpt lat="38.975817" lon="-6.089200">
        <ele>1705.0</ele>
        <time>2019-05-04T13:22:56Z</time>
      </trkpt>
      <trkpt lat="38.975733" lon="-6.089250">
        <ele>1705.0</ele>
        <time>2019-05-04T13:22:57Z</time>
      </trkpt>
      <trkpt lat="38.975667" lon="-6.089300">
        <ele>1705.0</ele>
        <time>2019-05-04T13:22:58Z</time>
      </trkpt>
      <trkpt lat="38.975583" lon="-6.089333">
        <ele>1705.0</ele>
        <time>2019-05-04T13:22:59Z</time>
      </trkpt>
      <trkpt lat="38.975500" lon="-6.089383">
        <ele>1706.0</ele>
        <time>2019-05-04T13:23:00Z</time>
      </trkpt>
      <trkpt lat="38.975433" lon="-6.089417">
        <ele>1707.0</ele>
        <time>2019-05-04T13:23:01Z</time>
      </trkpt>
      <trkpt lat="38.975367" lon="-6.089483">
        <ele>1707.0</ele>
        <time>2019-05-04T13:23:02Z</time>
      </trkpt>
      <trkpt lat="38.975300" lon="-6.089533">
        <ele>1708.0</ele>
        <time>2019-05-04T13:23:03Z</time>
      </trkpt>
      <trkpt lat="38.975217" lon="-6.089600">
        <ele>1708.0</ele>
        <time>2019-05-04T13:23:04Z</time>
      </trkpt>
      <trkpt lat="38.975150" lon="-6.089650">
        <ele>1709.0</ele>
        <time>2019-05-04T13:23:05Z</time>
      </trkpt>
      <trkpt lat="38.975083" lon="-6.089700">
        <ele>1710.0</ele>
        <time>2019-05-04T13:23:06Z</time>
      </trkpt>
      <trkpt lat="38.975000" lon="-6.089750">
        <ele>1710.0</ele>
        <time>2019-05-04T13:23:07Z</time>
      </trkpt>
      <trkpt lat="38.974917" lon="-6.089817">
        <ele>1710.0</ele>
        <time>2019-05-04T13:23:08Z</time>
      </trkpt>
      <trkpt lat="38.974850" lon="-6.089867">
        <ele>1710.0</ele>
        <time>2019-05-04T13:23:09Z</time>
      </trkpt>
      <trkpt lat="38.974767" lon="-6.089917">
        <ele>1711.0</ele>
        <time>2019-05-04T13:23:10Z</time>
      </trkpt>
      <trkpt lat="38.974683" lon="-6.089967">
        <ele>1712.0</ele>
        <time>2019-05-04T13:23:11Z</time>
      </trkpt>
      <trkpt lat="38.974617" lon="-6.090017">
        <ele>1714.0</ele>
        <time>2019-05-04T13:23:12Z</time>
      </trkpt>
      <trkpt lat="38.974550" lon="-6.090067">
        <ele>1716.0</ele>
        <time>2019-05-04T13:23:13Z</time>
      </trkpt>
      <trkpt lat="38.974483" lon="-6.090117">
        <ele>1718.0</ele>
        <time>2019-05-04T13:23:14Z</time>
      </trkpt>
      <trkpt lat="38.974400" lon="-6.090167">
        <ele>1718.0</ele>
        <time>2019-05-04T13:23:15Z</time>
      </trkpt>
      <trkpt lat="38.974333" lon="-6.090233">
        <ele>1719.0</ele>
        <time>2019-05-04T13:23:16Z</time>
      </trkpt>
      <trkpt lat="38.974267" lon="-6.090317">
        <ele>1719.0</ele>
        <time>2019-05-04T13:23:17Z</time>
      </trkpt>
      <trkpt lat="38.974233" lon="-6.090417">
        <ele>1719.0</ele>
        <time>2019-05-04T13:23:18Z</time>
      </trkpt>
      <trkpt lat="38.974217" lon="-6.090517">
        <ele>1720.0</ele>
        <time>2019-05-04T13:23:19Z</time>
      </trkpt>
      <trkpt lat="38.974217" lon="-6.090600">
        <ele>1721.0</ele>
        <time>2019-05-04T13:23:20Z</time>
      </trkpt>
      <trkpt lat="38.974233" lon="-6.090683">
        <ele>1722.0</ele>
        <time>2019-05-04T13:23:21Z</time>
      </trkpt>
      <trkpt lat="38.974267" lon="-6.090767">
        <ele>1722.0</ele>
        <time>2019-05-04T13:23:22Z</time>
      </trkpt>
      <trkpt lat="38.974300" lon="-6.090833">
        <ele>1722.0</ele>
        <time>2019-05-04T13:23:23Z</time>
      </trkpt>
      <trkpt lat="38.974367" lon="-6.090883">
        <ele>1721.0</ele>
        <time>2019-05-04T13:23:24Z</time>
      </trkpt>
      <trkpt lat="38.974433" lon="-6.090933">
        <ele>1719.0</ele>
        <time>2019-05-04T13:23:25Z</time>
      </trkpt>
      <trkpt lat="38.974517" lon="-6.090917">
        <ele>1718.0</ele>
        <time>2019-05-04T13:23:26Z</time>
      </trkpt>
      <trkpt lat="38.974583" lon="-6.090867">
        <ele>1717.0</ele>
        <time>2019-05-04T13:23:27Z</time>
      </trkpt>
      <trkpt lat="38.974633" lon="-6.090783">
        <ele>1716.0</ele>
        <time>2019-05-04T13:23:28Z</time>
      </trkpt>
      <trkpt lat="38.974683" lon="-6.090700">
        <ele>1715.0</ele>
        <time>2019-05-04T13:23:29Z</time>
      </trkpt>
      <trkpt lat="38.974717" lon="-6.090600">
        <ele>1714.0</ele>
        <time>2019-05-04T13:23:30Z</time>
      </trkpt>
      <trkpt lat="38.974733" lon="-6.090483">
        <ele>1711.0</ele>
        <time>2019-05-04T13:23:31Z</time>
      </trkpt>
      <trkpt lat="38.974733" lon="-6.090367">
        <ele>1709.0</ele>
        <time>2019-05-04T13:23:32Z</time>
      </trkpt>
      <trkpt lat="38.974717" lon="-6.090233">
        <ele>1707.0</ele>
        <time>2019-05-04T13:23:33Z</time>
      </trkpt>
      <trkpt lat="38.974667" lon="-6.090100">
        <ele>1705.0</ele>
        <time>2019-05-04T13:23:34Z</time>
      </trkpt>
      <trkpt lat="38.974583" lon="-6.090000">
        <ele>1705.0</ele>
        <time>2019-05-04T13:23:35Z</time>
      </trkpt>
      <trkpt lat="38.974500" lon="-6.089950">
        <ele>1704.0</ele>
        <time>2019-05-04T13:23:36Z</time>
      </trkpt>
      <trkpt lat="38.974400" lon="-6.089900">
        <ele>1703.0</ele>
        <time>2019-05-04T13:23:37Z</time>
      </trkpt>
      <trkpt lat="38.974300" lon="-6.089867">
        <ele>1704.0</ele>
        <time>2019-05-04T13:23:38Z</time>
      </trkpt>
      <trkpt lat="38.974200" lon="-6.089850">
        <ele>1704.0</ele>
        <time>2019-05-04T13:23:39Z</time>
      </trkpt>
      <trkpt lat="38.974117" lon="-6.089817">
        <ele>1705.0</ele>
        <time>2019-05-04T13:23:40Z</time>
      </trkpt>
      <trkpt lat="38.974033" lon="-6.089767">
        <ele>1706.0</ele>
        <time>2019-05-04T13:23:41Z</time>
      </trkpt>
      <trkpt lat="38.973967" lon="-6.089717">
        <ele>1708.0</ele>
        <time>2019-05-04T13:23:42Z</time>
      </trkpt>
      <trkpt lat="38.973900" lon="-6.089683">
        <ele>1709.0</ele>
        <time>2019-05-04T13:23:43Z</time>
      </trkpt>
      <trkpt lat="38.973800" lon="-6.089650">
        <ele>1710.0</ele>
        <time>2019-05-04T13:23:44Z</time>
      </trkpt>
      <trkpt lat="38.973717" lon="-6.089600">
        <ele>1710.0</ele>
        <time>2019-05-04T13:23:45Z</time>
      </trkpt>
      <trkpt lat="38.973617" lon="-6.089567">
        <ele>1712.0</ele>
        <time>2019-05-04T13:23:46Z</time>
      </trkpt>
      <trkpt lat="38.973533" lon="-6.089533">
        <ele>1715.0</ele>
        <time>2019-05-04T13:23:47Z</time>
      </trkpt>
      <trkpt lat="38.973467" lon="-6.089483">
        <ele>1719.0</ele>
        <time>2019-05-04T13:23:48Z</time>
      </trkpt>
      <trkpt lat="38.973400" lon="-6.089433">
        <ele>1722.0</ele>
        <time>2019-05-04T13:23:49Z</time>
      </trkpt>
      <trkpt lat="38.973317" lon="-6.089383">
        <ele>1724.0</ele>
        <time>2019-05-04T13:23:50Z</time>
      </trkpt>
      <trkpt lat="38.973233" lon="-6.089350">
        <ele>1726.0</ele>
        <time>2019-05-04T13:23:51Z</time>
      </trkpt>
      <trkpt lat="38.973167" lon="-6.089350">
        <ele>1729.0</ele>
        <time>2019-05-04T13:23:52Z</time>
      </trkpt>
      <trkpt lat="38.973083" lon="-6.089383">
        <ele>1731.0</ele>
        <time>2019-05-04T13:23:53Z</time>
      </trkpt>
      <trkpt lat="38.973033" lon="-6.089450">
        <ele>1733.0</ele>
        <time>2019-05-04T13:23:54Z</time>
      </trkpt>
      <trkpt lat="38.973000" lon="-6.089533">
        <ele>1735.0</ele>
        <time>2019-05-04T13:23:55Z</time>
      </trkpt>
      <trkpt lat="38.973000" lon="-6.089617">
        <ele>1736.0</ele>
        <time>2019-05-04T13:23:56Z</time>
      </trkpt>
      <trkpt lat="38.973033" lon="-6.089700">
        <ele>1737.0</ele>
        <time>2019-05-04T13:23:57Z</time>
      </trkpt>
      <trkpt lat="38.973100" lon="-6.089750">
        <ele>1737.0</ele>
        <time>2019-05-04T13:23:58Z</time>
      </trkpt>
      <trkpt lat="38.973183" lon="-6.089783">
        <ele>1738.0</ele>
        <time>2019-05-04T13:23:59Z</time>
      </trkpt>
      <trkpt lat="38.973283" lon="-6.089783">
        <ele>1740.0</ele>
        <time>2019-05-04T13:24:00Z</time>
      </trkpt>
      <trkpt lat="38.973383" lon="-6.089750">
        <ele>1743.0</ele>
        <time>2019-05-04T13:24:01Z</time>
      </trkpt>
      <trkpt lat="38.973433" lon="-6.089700">
        <ele>1747.0</ele>
        <time>2019-05-04T13:24:02Z</time>
      </trkpt>
      <trkpt lat="38.973500" lon="-6.089633">
        <ele>1750.0</ele>
        <time>2019-05-04T13:24:03Z</time>
      </trkpt>
      <trkpt lat="38.973550" lon="-6.089550">
        <ele>1752.0</ele>
        <time>2019-05-04T13:24:04Z</time>
      </trkpt>
      <trkpt lat="38.973600" lon="-6.089450">
        <ele>1754.0</ele>
        <time>2019-05-04T13:24:05Z</time>
      </trkpt>
      <trkpt lat="38.973633" lon="-6.089333">
        <ele>1756.0</ele>
        <time>2019-05-04T13:24:06Z</time>
      </trkpt>
      <trkpt lat="38.973650" lon="-6.089200">
        <ele>1757.0</ele>
        <time>2019-05-04T13:24:07Z</time>
      </trkpt>
      <trkpt lat="38.973617" lon="-6.089067">
        <ele>1758.0</ele>
        <time>2019-05-04T13:24:08Z</time>
      </trkpt>
      <trkpt lat="38.973550" lon="-6.088983">
        <ele>1758.0</ele>
        <time>2019-05-04T13:24:09Z</time>
      </trkpt>
      <trkpt lat="38.973467" lon="-6.088917">
        <ele>1758.0</ele>
        <time>2019-05-04T13:24:10Z</time>
      </trkpt>
      <trkpt lat="38.973383" lon="-6.088917">
        <ele>1758.0</ele>
        <time>2019-05-04T13:24:11Z</time>
      </trkpt>
      <trkpt lat="38.973300" lon="-6.088950">
        <ele>1759.0</ele>
        <time>2019-05-04T13:24:12Z</time>
      </trkpt>
      <trkpt lat="38.973233" lon="-6.089017">
        <ele>1759.0</ele>
        <time>2019-05-04T13:24:13Z</time>
      </trkpt>
      <trkpt lat="38.973200" lon="-6.089117">
        <ele>1760.0</ele>
        <time>2019-05-04T13:24:14Z</time>
      </trkpt>
      <trkpt lat="38.973200" lon="-6.089217">
        <ele>1762.0</ele>
        <time>2019-05-04T13:24:15Z</time>
      </trkpt>
      <trkpt lat="38.973217" lon="-6.089317">
        <ele>1764.0</ele>
        <time>2019-05-04T13:24:16Z</time>
      </trkpt>
      <trkpt lat="38.973267" lon="-6.089383">
        <ele>1767.0</ele>
        <time>2019-05-04T13:24:17Z</time>
      </trkpt>
      <trkpt lat="38.973300" lon="-6.089467">
        <ele>1769.0</ele>
        <time>2019-05-04T13:24:18Z</time>
      </trkpt>
      <trkpt lat="38.973333" lon="-6.089533">
        <ele>1771.0</ele>
        <time>2019-05-04T13:24:19Z</time>
      </trkpt>
      <trkpt lat="38.973400" lon="-6.089600">
        <ele>1773.0</ele>
        <time>2019-05-04T13:24:20Z</time>
      </trkpt>
      <trkpt lat="38.973467" lon="-6.089633">
        <ele>1773.0</ele>
        <time>2019-05-04T13:24:21Z</time>
      </trkpt>
      <trkpt lat="38.973550" lon="-6.089617">
        <ele>1774.0</ele>
        <time>2019-05-04T13:24:22Z</time>
      </trkpt>
      <trkpt lat="38.973633" lon="-6.089567">
        <ele>1775.0</ele>
        <time>2019-05-04T13:24:23Z</time>
      </trkpt>
      <trkpt lat="38.973700" lon="-6.089483">
        <ele>1776.0</ele>
        <time>2019-05-04T13:24:24Z</time>
      </trkpt>
      <trkpt lat="38.973767" lon="-6.089367">
        <ele>1777.0</ele>
        <time>2019-05-04T13:24:25Z</time>
      </trkpt>
      <trkpt lat="38.973800" lon="-6.089250">
        <ele>1779.0</ele>
        <time>2019-05-04T13:24:26Z</time>
      </trkpt>
      <trkpt lat="38.973800" lon="-6.089117">
        <ele>1780.0</ele>
        <time>2019-05-04T13:24:27Z</time>
      </trkpt>
      <trkpt lat="38.973783" lon="-6.089000">
        <ele>1781.0</ele>
        <time>2019-05-04T13:24:28Z</time>
      </trkpt>
      <trkpt lat="38.973733" lon="-6.088883">
        <ele>1782.0</ele>
        <time>2019-05-04T13:24:29Z</time>
      </trkpt>
      <trkpt lat="38.973667" lon="-6.088800">
        <ele>1782.0</ele>
        <time>2019-05-04T13:24:30Z</time>
      </trkpt>
      <trkpt lat="38.973567" lon="-6.088733">
        <ele>1781.0</ele>
        <time>2019-05-04T13:24:31Z</time>
      </trkpt>
      <trkpt lat="38.973467" lon="-6.088717">
        <ele>1782.0</ele>
        <time>2019-05-04T13:24:32Z</time>
      </trkpt>
      <trkpt lat="38.973367" lon="-6.088733">
        <ele>1783.0</ele>
        <time>2019-05-04T13:24:33Z</time>
      </trkpt>
      <trkpt lat="38.973300" lon="-6.088800">
        <ele>1784.0</ele>
        <time>2019-05-04T13:24:34Z</time>
      </trkpt>
      <trkpt lat="38.973267" lon="-6.088883">
        <ele>1784.0</ele>
        <time>2019-05-04T13:24:35Z</time>
      </trkpt>
      <trkpt lat="38.973233" lon="-6.088983">
        <ele>1784.0</ele>
        <time>2019-05-04T13:24:36Z</time>
      </trkpt>
      <trkpt lat="38.973233" lon="-6.089100">
        <ele>1785.0</ele>
        <time>2019-05-04T13:24:37Z</time>
      </trkpt>
      <trkpt lat="38.973250" lon="-6.089183">
        <ele>1785.0</ele>
        <time>2019-05-04T13:24:38Z</time>
      </trkpt>
      <trkpt lat="38.973317" lon="-6.089250">
        <ele>1786.0</ele>
        <time>2019-05-04T13:24:39Z</time>
      </trkpt>
      <trkpt lat="38.973383" lon="-6.089267">
        <ele>1786.0</ele>
        <time>2019-05-04T13:24:40Z</time>
      </trkpt>
      <trkpt lat="38.973450" lon="-6.089267">
        <ele>1786.0</ele>
        <time>2019-05-04T13:24:41Z</time>
      </trkpt>
      <trkpt lat="38.973517" lon="-6.089250">
        <ele>1786.0</ele>
        <time>2019-05-04T13:24:42Z</time>
      </trkpt>
      <trkpt lat="38.973600" lon="-6.089200">
        <ele>1786.0</ele>
        <time>2019-05-04T13:24:43Z</time>
      </trkpt>
      <trkpt lat="38.973667" lon="-6.089117">
        <ele>1786.0</ele>
        <time>2019-05-04T13:24:44Z</time>
      </trkpt>
      <trkpt lat="38.973733" lon="-6.089017">
        <ele>1786.0</ele>
        <time>2019-05-04T13:24:45Z</time>
      </trkpt>
      <trkpt lat="38.973750" lon="-6.088883">
        <ele>1785.0</ele>
        <time>2019-05-04T13:24:46Z</time>
      </trkpt>
      <trkpt lat="38.973733" lon="-6.088767">
        <ele>1785.0</ele>
        <time>2019-05-04T13:24:47Z</time>
      </trkpt>
      <trkpt lat="38.973683" lon="-6.088650">
        <ele>1785.0</ele>
        <time>2019-05-04T13:24:48Z</time>
      </trkpt>
      <trkpt lat="38.973633" lon="-6.088567">
        <ele>1786.0</ele>
        <time>2019-05-04T13:24:49Z</time>
      </trkpt>
      <trkpt lat="38.973567" lon="-6.088483">
        <ele>1786.0</ele>
        <time>2019-05-04T13:24:50Z</time>
      </trkpt>
      <trkpt lat="38.973483" lon="-6.088417">
        <ele>1786.0</ele>
        <time>2019-05-04T13:24:51Z</time>
      </trkpt>
      <trkpt lat="38.973400" lon="-6.088367">
        <ele>1785.0</ele>
        <time>2019-05-04T13:24:52Z</time>
      </trkpt>
      <trkpt lat="38.973300" lon="-6.088333">
        <ele>1785.0</ele>
        <time>2019-05-04T13:24:53Z</time>
      </trkpt>
      <trkpt lat="38.973183" lon="-6.088317">
        <ele>1785.0</ele>
        <time>2019-05-04T13:24:54Z</time>
      </trkpt>
      <trkpt lat="38.973083" lon="-6.088317">
        <ele>1786.0</ele>
        <time>2019-05-04T13:24:55Z</time>
      </trkpt>
      <trkpt lat="38.972983" lon="-6.088300">
        <ele>1787.0</ele>
        <time>2019-05-04T13:24:56Z</time>
      </trkpt>
      <trkpt lat="38.972883" lon="-6.088283">
        <ele>1789.0</ele>
        <time>2019-05-04T13:24:57Z</time>
      </trkpt>
      <trkpt lat="38.972783" lon="-6.088283">
        <ele>1790.0</ele>
        <time>2019-05-04T13:24:58Z</time>
      </trkpt>
      <trkpt lat="38.972700" lon="-6.088300">
        <ele>1791.0</ele>
        <time>2019-05-04T13:24:59Z</time>
      </trkpt>
      <trkpt lat="38.972600" lon="-6.088317">
        <ele>1792.0</ele>
        <time>2019-05-04T13:25:00Z</time>
      </trkpt>
      <trkpt lat="38.972500" lon="-6.088317">
        <ele>1794.0</ele>
        <time>2019-05-04T13:25:01Z</time>
      </trkpt>
      <trkpt lat="38.972417" lon="-6.088317">
        <ele>1797.0</ele>
        <time>2019-05-04T13:25:02Z</time>
      </trkpt>
      <trkpt lat="38.972350" lon="-6.088333">
        <ele>1799.0</ele>
        <time>2019-05-04T13:25:03Z</time>
      </trkpt>
      <trkpt lat="38.972267" lon="-6.088350">
        <ele>1801.0</ele>
        <time>2019-05-04T13:25:04Z</time>
      </trkpt>
      <trkpt lat="38.972167" lon="-6.088367">
        <ele>1802.0</ele>
        <time>2019-05-04T13:25:05Z</time>
      </trkpt>
      <trkpt lat="38.972100" lon="-6.088433">
        <ele>1803.0</ele>
        <time>2019-05-04T13:25:06Z</time>
      </trkpt>
      <trkpt lat="38.972067" lon="-6.088517">
        <ele>1804.0</ele>
        <time>2019-05-04T13:25:07Z</time>
      </trkpt>
      <trkpt lat="38.972067" lon="-6.088617">
        <ele>1805.0</ele>
        <time>2019-05-04T13:25:08Z</time>
      </trkpt>
      <trkpt lat="38.972083" lon="-6.088700">
        <ele>1806.0</ele>
        <time>2019-05-04T13:25:09Z</time>
      </trkpt>
      <trkpt lat="38.972133" lon="-6.088783">
        <ele>1808.0</ele>
        <time>2019-05-04T13:25:10Z</time>
      </trkpt>
      <trkpt lat="38.972200" lon="-6.088833">
        <ele>1810.0</ele>
        <time>2019-05-04T13:25:11Z</time>
      </trkpt>
      <trkpt lat="38.972267" lon="-6.088867">
        <ele>1812.0</ele>
        <time>2019-05-04T13:25:12Z</time>
      </trkpt>
      <trkpt lat="38.972350" lon="-6.088867">
        <ele>1814.0</ele>
        <time>2019-05-04T13:25:13Z</time>
      </trkpt>
      <trkpt lat="38.972433" lon="-6.088817">
        <ele>1815.0</ele>
        <time>2019-05-04T13:25:14Z</time>
      </trkpt>
      <trkpt lat="38.972500" lon="-6.088750">
        <ele>1816.0</ele>
        <time>2019-05-04T13:25:15Z</time>
      </trkpt>
      <trkpt lat="38.972550" lon="-6.088650">
        <ele>1817.0</ele>
        <time>2019-05-04T13:25:16Z</time>
      </trkpt>
      <trkpt lat="38.972567" lon="-6.088567">
        <ele>1819.0</ele>
        <time>2019-05-04T13:25:17Z</time>
      </trkpt>
      <trkpt lat="38.972550" lon="-6.088467">
        <ele>1821.0</ele>
        <time>2019-05-04T13:25:18Z</time>
      </trkpt>
      <trkpt lat="38.972517" lon="-6.088350">
        <ele>1822.0</ele>
        <time>2019-05-04T13:25:19Z</time>
      </trkpt>
      <trkpt lat="38.972467" lon="-6.088233">
        <ele>1821.0</ele>
        <time>2019-05-04T13:25:20Z</time>
      </trkpt>
      <trkpt lat="38.972367" lon="-6.088133">
        <ele>1821.0</ele>
        <time>2019-05-04T13:25:21Z</time>
      </trkpt>
      <trkpt lat="38.972267" lon="-6.088067">
        <ele>1822.0</ele>
        <time>2019-05-04T13:25:22Z</time>
      </trkpt>
      <trkpt lat="38.972167" lon="-6.088050">
        <ele>1824.0</ele>
        <time>2019-05-04T13:25:23Z</time>
      </trkpt>
      <trkpt lat="38.972067" lon="-6.088067">
        <ele>1826.0</ele>
        <time>2019-05-04T13:25:24Z</time>
      </trkpt>
      <trkpt lat="38.972000" lon="-6.088100">
        <ele>1827.0</ele>
        <time>2019-05-04T13:25:25Z</time>
      </trkpt>
      <trkpt lat="38.971917" lon="-6.088133">
        <ele>1829.0</ele>
        <time>2019-05-04T13:25:26Z</time>
      </trkpt>
      <trkpt lat="38.971833" lon="-6.088167">
        <ele>1830.0</ele>
        <time>2019-05-04T13:25:27Z</time>
      </trkpt>
      <trkpt lat="38.971750" lon="-6.088200">
        <ele>1831.0</ele>
        <time>2019-05-04T13:25:28Z</time>
      </trkpt>
      <trkpt lat="38.971683" lon="-6.088267">
        <ele>1832.0</ele>
        <time>2019-05-04T13:25:29Z</time>
      </trkpt>
      <trkpt lat="38.971633" lon="-6.088333">
        <ele>1832.0</ele>
        <time>2019-05-04T13:25:30Z</time>
      </trkpt>
      <trkpt lat="38.971617" lon="-6.088433">
        <ele>1831.0</ele>
        <time>2019-05-04T13:25:31Z</time>
      </trkpt>
      <trkpt lat="38.971633" lon="-6.088550">
        <ele>1831.0</ele>
        <time>2019-05-04T13:25:32Z</time>
      </trkpt>
      <trkpt lat="38.971650" lon="-6.088650">
        <ele>1832.0</ele>
        <time>2019-05-04T13:25:33Z</time>
      </trkpt>
      <trkpt lat="38.971700" lon="-6.088733">
        <ele>1834.0</ele>
        <time>2019-05-04T13:25:34Z</time>
      </trkpt>
      <trkpt lat="38.971750" lon="-6.088783">
        <ele>1836.0</ele>
        <time>2019-05-04T13:25:35Z</time>
      </trkpt>
      <trkpt lat="38.971817" lon="-6.088817">
        <ele>1837.0</ele>
        <time>2019-05-04T13:25:36Z</time>
      </trkpt>
      <trkpt lat="38.971883" lon="-6.088833">
        <ele>1838.0</ele>
        <time>2019-05-04T13:25:37Z</time>
      </trkpt>
      <trkpt lat="38.971950" lon="-6.088817">
        <ele>1838.0</ele>
        <time>2019-05-04T13:25:38Z</time>
      </trkpt>
      <trkpt lat="38.972033" lon="-6.088783">
        <ele>1839.0</ele>
        <time>2019-05-04T13:25:39Z</time>
      </trkpt>
      <trkpt lat="38.972083" lon="-6.088733">
        <ele>1840.0</ele>
        <time>2019-05-04T13:25:40Z</time>
      </trkpt>
      <trkpt lat="38.972133" lon="-6.088650">
        <ele>1842.0</ele>
        <time>2019-05-04T13:25:41Z</time>
      </trkpt>
      <trkpt lat="38.972150" lon="-6.088567">
        <ele>1842.0</ele>
        <time>2019-05-04T13:25:42Z</time>
      </trkpt>
      <trkpt lat="38.972167" lon="-6.088483">
        <ele>1843.0</ele>
        <time>2019-05-04T13:25:43Z</time>
      </trkpt>
      <trkpt lat="38.972183" lon="-6.088367">
        <ele>1844.0</ele>
        <time>2019-05-04T13:25:44Z</time>
      </trkpt>
      <trkpt lat="38.972167" lon="-6.088267">
        <ele>1845.0</ele>
        <time>2019-05-04T13:25:45Z</time>
      </trkpt>
      <trkpt lat="38.972150" lon="-6.088150">
        <ele>1846.0</ele>
        <time>2019-05-04T13:25:46Z</time>
      </trkpt>
      <trkpt lat="38.972083" lon="-6.088050">
        <ele>1847.0</ele>
        <time>2019-05-04T13:25:47Z</time>
      </trkpt>
      <trkpt lat="38.972017" lon="-6.087967">
        <ele>1847.0</ele>
        <time>2019-05-04T13:25:48Z</time>
      </trkpt>
      <trkpt lat="38.971950" lon="-6.087900">
        <ele>1848.0</ele>
        <time>2019-05-04T13:25:49Z</time>
      </trkpt>
      <trkpt lat="38.971867" lon="-6.087850">
        <ele>1848.0</ele>
        <time>2019-05-04T13:25:50Z</time>
      </trkpt>
      <trkpt lat="38.971767" lon="-6.087833">
        <ele>1849.0</ele>
        <time>2019-05-04T13:25:51Z</time>
      </trkpt>
      <trkpt lat="38.971667" lon="-6.087833">
        <ele>1849.0</ele>
        <time>2019-05-04T13:25:52Z</time>
      </trkpt>
      <trkpt lat="38.971583" lon="-6.087850">
        <ele>1851.0</ele>
        <time>2019-05-04T13:25:53Z</time>
      </trkpt>
      <trkpt lat="38.971517" lon="-6.087883">
        <ele>1852.0</ele>
        <time>2019-05-04T13:25:54Z</time>
      </trkpt>
      <trkpt lat="38.971450" lon="-6.087900">
        <ele>1854.0</ele>
        <time>2019-05-04T13:25:55Z</time>
      </trkpt>
      <trkpt lat="38.971367" lon="-6.087933">
        <ele>1855.0</ele>
        <time>2019-05-04T13:25:56Z</time>
      </trkpt>
      <trkpt lat="38.971283" lon="-6.087967">
        <ele>1855.0</ele>
        <time>2019-05-04T13:25:57Z</time>
      </trkpt>
      <trkpt lat="38.971183" lon="-6.088017">
        <ele>1854.0</ele>
        <time>2019-05-04T13:25:58Z</time>
      </trkpt>
      <trkpt lat="38.971083" lon="-6.088050">
        <ele>1854.0</ele>
        <time>2019-05-04T13:25:59Z</time>
      </trkpt>
      <trkpt lat="38.970983" lon="-6.088067">
        <ele>1856.0</ele>
        <time>2019-05-04T13:26:00Z</time>
      </trkpt>
      <trkpt lat="38.970900" lon="-6.088083">
        <ele>1858.0</ele>
        <time>2019-05-04T13:26:01Z</time>
      </trkpt>
      <trkpt lat="38.970817" lon="-6.088100">
        <ele>1860.0</ele>
        <time>2019-05-04T13:26:02Z</time>
      </trkpt>
      <trkpt lat="38.970733" lon="-6.088133">
        <ele>1860.0</ele>
        <time>2019-05-04T13:26:03Z</time>
      </trkpt>
      <trkpt lat="38.970650" lon="-6.088150">
        <ele>1861.0</ele>
        <time>2019-05-04T13:26:04Z</time>
      </trkpt>
      <trkpt lat="38.970567" lon="-6.088200">
        <ele>1861.0</ele>
        <time>2019-05-04T13:26:05Z</time>
      </trkpt>
      <trkpt lat="38.970483" lon="-6.088233">
        <ele>1863.0</ele>
        <time>2019-05-04T13:26:06Z</time>
      </trkpt>
      <trkpt lat="38.970417" lon="-6.088283">
        <ele>1864.0</ele>
        <time>2019-05-04T13:26:07Z</time>
      </trkpt>
      <trkpt lat="38.970333" lon="-6.088317">
        <ele>1866.0</ele>
        <time>2019-05-04T13:26:08Z</time>
      </trkpt>
      <trkpt lat="38.970267" lon="-6.088350">
        <ele>1867.0</ele>
        <time>2019-05-04T13:26:09Z</time>
      </trkpt>
      <trkpt lat="38.970183" lon="-6.088400">
        <ele>1868.0</ele>
        <time>2019-05-04T13:26:10Z</time>
      </trkpt>
      <trkpt lat="38.970117" lon="-6.088450">
        <ele>1868.0</ele>
        <time>2019-05-04T13:26:11Z</time>
      </trkpt>
      <trkpt lat="38.970050" lon="-6.088550">
        <ele>1868.0</ele>
        <time>2019-05-04T13:26:12Z</time>
      </trkpt>
      <trkpt lat="38.970000" lon="-6.088667">
        <ele>1868.0</ele>
        <time>2019-05-04T13:26:13Z</time>
      </trkpt>
      <trkpt lat="38.969967" lon="-6.088767">
        <ele>1870.0</ele>
        <time>2019-05-04T13:26:14Z</time>
      </trkpt>
      <trkpt lat="38.969950" lon="-6.088833">
        <ele>1873.0</ele>
        <time>2019-05-04T13:26:15Z</time>
      </trkpt>
      <trkpt lat="38.969933" lon="-6.088917">
        <ele>1874.0</ele>
        <time>2019-05-04T13:26:16Z</time>
      </trkpt>
      <trkpt lat="38.969917" lon="-6.089000">
        <ele>1875.0</ele>
        <time>2019-05-04T13:26:17Z</time>
      </trkpt>
      <trkpt lat="38.969917" lon="-6.089117">
        <ele>1874.0</ele>
        <time>2019-05-04T13:26:18Z</time>
      </trkpt>
      <trkpt lat="38.969933" lon="-6.089217">
        <ele>1874.0</ele>
        <time>2019-05-04T13:26:19Z</time>
      </trkpt>
      <trkpt lat="38.969967" lon="-6.089283">
        <ele>1874.0</ele>
        <time>2019-05-04T13:26:20Z</time>
      </trkpt>
      <trkpt lat="38.970017" lon="-6.089317">
        <ele>1874.0</ele>
        <time>2019-05-04T13:26:21Z</time>
      </trkpt>
      <trkpt lat="38.970067" lon="-6.089333">
        <ele>1875.0</ele>
        <time>2019-05-04T13:26:22Z</time>
      </trkpt>
      <trkpt lat="38.970133" lon="-6.089333">
        <ele>1875.0</ele>
        <time>2019-05-04T13:26:23Z</time>
      </trkpt>
      <trkpt lat="38.970200" lon="-6.089300">
        <ele>1875.0</ele>
        <time>2019-05-04T13:26:24Z</time>
      </trkpt>
      <trkpt lat="38.970250" lon="-6.089250">
        <ele>1874.0</ele>
        <time>2019-05-04T13:26:25Z</time>
      </trkpt>
      <trkpt lat="38.970317" lon="-6.089183">
        <ele>1874.0</ele>
        <time>2019-05-04T13:26:26Z</time>
      </trkpt>
      <trkpt lat="38.970367" lon="-6.089100">
        <ele>1873.0</ele>
        <time>2019-05-04T13:26:27Z</time>
      </trkpt>
      <trkpt lat="38.970400" lon="-6.088967">
        <ele>1873.0</ele>
        <time>2019-05-04T13:26:28Z</time>
      </trkpt>
      <trkpt lat="38.970400" lon="-6.088850">
        <ele>1873.0</ele>
        <time>2019-05-04T13:26:29Z</time>
      </trkpt>
      <trkpt lat="38.970367" lon="-6.088717">
        <ele>1874.0</ele>
        <time>2019-05-04T13:26:30Z</time>
      </trkpt>
      <trkpt lat="38.970333" lon="-6.088617">
        <ele>1874.0</ele>
        <time>2019-05-04T13:26:31Z</time>
      </trkpt>
      <trkpt lat="38.970267" lon="-6.088517">
        <ele>1875.0</ele>
        <time>2019-05-04T13:26:32Z</time>
      </trkpt>
      <trkpt lat="38.970200" lon="-6.088417">
        <ele>1875.0</ele>
        <time>2019-05-04T13:26:33Z</time>
      </trkpt>
      <trkpt lat="38.970100" lon="-6.088350">
        <ele>1875.0</ele>
        <time>2019-05-04T13:26:34Z</time>
      </trkpt>
      <trkpt lat="38.970000" lon="-6.088300">
        <ele>1875.0</ele>
        <time>2019-05-04T13:26:35Z</time>
      </trkpt>
      <trkpt lat="38.969883" lon="-6.088283">
        <ele>1874.0</ele>
        <time>2019-05-04T13:26:36Z</time>
      </trkpt>
      <trkpt lat="38.969767" lon="-6.088283">
        <ele>1875.0</ele>
        <time>2019-05-04T13:26:37Z</time>
      </trkpt>
      <trkpt lat="38.969667" lon="-6.088300">
        <ele>1875.0</ele>
        <time>2019-05-04T13:26:38Z</time>
      </trkpt>
      <trkpt lat="38.969550" lon="-6.088317">
        <ele>1875.0</ele>
        <time>2019-05-04T13:26:39Z</time>
      </trkpt>
      <trkpt lat="38.969433" lon="-6.088333">
        <ele>1875.0</ele>
        <time>2019-05-04T13:26:40Z</time>
      </trkpt>
      <trkpt lat="38.969333" lon="-6.088317">
        <ele>1875.0</ele>
        <time>2019-05-04T13:26:41Z</time>
      </trkpt>
      <trkpt lat="38.969217" lon="-6.088300">
        <ele>1875.0</ele>
        <time>2019-05-04T13:26:42Z</time>
      </trkpt>
      <trkpt lat="38.969100" lon="-6.088283">
        <ele>1875.0</ele>
        <time>2019-05-04T13:26:43Z</time>
      </trkpt>
      <trkpt lat="38.969000" lon="-6.088267">
        <ele>1877.0</ele>
        <time>2019-05-04T13:26:44Z</time>
      </trkpt>
      <trkpt lat="38.968883" lon="-6.088267">
        <ele>1878.0</ele>
        <time>2019-05-04T13:26:45Z</time>
      </trkpt>
      <trkpt lat="38.968767" lon="-6.088267">
        <ele>1879.0</ele>
        <time>2019-05-04T13:26:46Z</time>
      </trkpt>
      <trkpt lat="38.968667" lon="-6.088283">
        <ele>1880.0</ele>
        <time>2019-05-04T13:26:47Z</time>
      </trkpt>
      <trkpt lat="38.968567" lon="-6.088283">
        <ele>1881.0</ele>
        <time>2019-05-04T13:26:48Z</time>
      </trkpt>
      <trkpt lat="38.968467" lon="-6.088300">
        <ele>1881.0</ele>
        <time>2019-05-04T13:26:49Z</time>
      </trkpt>
      <trkpt lat="38.968367" lon="-6.088333">
        <ele>1881.0</ele>
        <time>2019-05-04T13:26:50Z</time>
      </trkpt>
      <trkpt lat="38.968267" lon="-6.088350">
        <ele>1881.0</ele>
        <time>2019-05-04T13:26:51Z</time>
      </trkpt>
      <trkpt lat="38.968167" lon="-6.088367">
        <ele>1881.0</ele>
        <time>2019-05-04T13:26:52Z</time>
      </trkpt>
      <trkpt lat="38.968067" lon="-6.088367">
        <ele>1881.0</ele>
        <time>2019-05-04T13:26:53Z</time>
      </trkpt>
      <trkpt lat="38.967967" lon="-6.088350">
        <ele>1881.0</ele>
        <time>2019-05-04T13:26:54Z</time>
      </trkpt>
      <trkpt lat="38.967867" lon="-6.088317">
        <ele>1880.0</ele>
        <time>2019-05-04T13:26:55Z</time>
      </trkpt>
      <trkpt lat="38.967783" lon="-6.088267">
        <ele>1879.0</ele>
        <time>2019-05-04T13:26:56Z</time>
      </trkpt>
      <trkpt lat="38.967700" lon="-6.088217">
        <ele>1878.0</ele>
        <time>2019-05-04T13:26:57Z</time>
      </trkpt>
      <trkpt lat="38.967617" lon="-6.088133">
        <ele>1876.0</ele>
        <time>2019-05-04T13:26:58Z</time>
      </trkpt>
      <trkpt lat="38.967517" lon="-6.088067">
        <ele>1874.0</ele>
        <time>2019-05-04T13:26:59Z</time>
      </trkpt>
      <trkpt lat="38.967417" lon="-6.088000">
        <ele>1872.0</ele>
        <time>2019-05-04T13:27:00Z</time>
      </trkpt>
      <trkpt lat="38.967317" lon="-6.087950">
        <ele>1870.0</ele>
        <time>2019-05-04T13:27:01Z</time>
      </trkpt>
      <trkpt lat="38.967200" lon="-6.087933">
        <ele>1868.0</ele>
        <time>2019-05-04T13:27:02Z</time>
      </trkpt>
      <trkpt lat="38.967100" lon="-6.087917">
        <ele>1866.0</ele>
        <time>2019-05-04T13:27:03Z</time>
      </trkpt>
      <trkpt lat="38.967000" lon="-6.087900">
        <ele>1864.0</ele>
        <time>2019-05-04T13:27:04Z</time>
      </trkpt>
      <trkpt lat="38.966883" lon="-6.087883">
        <ele>1861.0</ele>
        <time>2019-05-04T13:27:05Z</time>
      </trkpt>
      <trkpt lat="38.966783" lon="-6.087883">
        <ele>1859.0</ele>
        <time>2019-05-04T13:27:06Z</time>
      </trkpt>
      <trkpt lat="38.966667" lon="-6.087883">
        <ele>1857.0</ele>
        <time>2019-05-04T13:27:07Z</time>
      </trkpt>
      <trkpt lat="38.966567" lon="-6.087883">
        <ele>1856.0</ele>
        <time>2019-05-04T13:27:08Z</time>
      </trkpt>
      <trkpt lat="38.966467" lon="-6.087883">
        <ele>1854.0</ele>
        <time>2019-05-04T13:27:09Z</time>
      </trkpt>
      <trkpt lat="38.966350" lon="-6.087883">
        <ele>1853.0</ele>
        <time>2019-05-04T13:27:10Z</time>
      </trkpt>
      <trkpt lat="38.966250" lon="-6.087900">
        <ele>1852.0</ele>
        <time>2019-05-04T13:27:11Z</time>
      </trkpt>
      <trkpt lat="38.966133" lon="-6.087900">
        <ele>1850.0</ele>
        <time>2019-05-04T13:27:12Z</time>
      </trkpt>
      <trkpt lat="38.966033" lon="-6.087917">
        <ele>1848.0</ele>
        <time>2019-05-04T13:27:13Z</time>
      </trkpt>
      <trkpt lat="38.965933" lon="-6.087933">
        <ele>1847.0</ele>
        <time>2019-05-04T13:27:14Z</time>
      </trkpt>
      <trkpt lat="38.965817" lon="-6.087933">
        <ele>1845.0</ele>
        <time>2019-05-04T13:27:15Z</time>
      </trkpt>
      <trkpt lat="38.965717" lon="-6.087933">
        <ele>1844.0</ele>
        <time>2019-05-04T13:27:16Z</time>
      </trkpt>
      <trkpt lat="38.965617" lon="-6.087950">
        <ele>1843.0</ele>
        <time>2019-05-04T13:27:17Z</time>
      </trkpt>
      <trkpt lat="38.965517" lon="-6.087950">
        <ele>1842.0</ele>
        <time>2019-05-04T13:27:18Z</time>
      </trkpt>
      <trkpt lat="38.965433" lon="-6.087967">
        <ele>1840.0</ele>
        <time>2019-05-04T13:27:19Z</time>
      </trkpt>
      <trkpt lat="38.965333" lon="-6.088000">
        <ele>1839.0</ele>
        <time>2019-05-04T13:27:20Z</time>
      </trkpt>
      <trkpt lat="38.965233" lon="-6.088017">
        <ele>1837.0</ele>
        <time>2019-05-04T13:27:21Z</time>
      </trkpt>
      <trkpt lat="38.965133" lon="-6.088033">
        <ele>1836.0</ele>
        <time>2019-05-04T13:27:22Z</time>
      </trkpt>
      <trkpt lat="38.965033" lon="-6.088050">
        <ele>1834.0</ele>
        <time>2019-05-04T13:27:23Z</time>
      </trkpt>
      <trkpt lat="38.964933" lon="-6.088067">
        <ele>1833.0</ele>
        <time>2019-05-04T13:27:24Z</time>
      </trkpt>
      <trkpt lat="38.964833" lon="-6.088100">
        <ele>1831.0</ele>
        <time>2019-05-04T13:27:25Z</time>
      </trkpt>
      <trkpt lat="38.964750" lon="-6.088117">
        <ele>1829.0</ele>
        <time>2019-05-04T13:27:26Z</time>
      </trkpt>
      <trkpt lat="38.964650" lon="-6.088150">
        <ele>1828.0</ele>
        <time>2019-05-04T13:27:27Z</time>
      </trkpt>
      <trkpt lat="38.964567" lon="-6.088183">
        <ele>1828.0</ele>
        <time>2019-05-04T13:27:28Z</time>
      </trkpt>
      <trkpt lat="38.964483" lon="-6.088200">
        <ele>1826.0</ele>
        <time>2019-05-04T13:27:29Z</time>
      </trkpt>
      <trkpt lat="38.964383" lon="-6.088233">
        <ele>1824.0</ele>
        <time>2019-05-04T13:27:30Z</time>
      </trkpt>
      <trkpt lat="38.964283" lon="-6.088267">
        <ele>1822.0</ele>
        <time>2019-05-04T13:27:31Z</time>
      </trkpt>
      <trkpt lat="38.964183" lon="-6.088300">
        <ele>1819.0</ele>
        <time>2019-05-04T13:27:32Z</time>
      </trkpt>
      <trkpt lat="38.964083" lon="-6.088333">
        <ele>1818.0</ele>
        <time>2019-05-04T13:27:33Z</time>
      </trkpt>
      <trkpt lat="38.964000" lon="-6.088367">
        <ele>1817.0</ele>
        <time>2019-05-04T13:27:34Z</time>
      </trkpt>
      <trkpt lat="38.963917" lon="-6.088400">
        <ele>1815.0</ele>
        <time>2019-05-04T13:27:35Z</time>
      </trkpt>
      <trkpt lat="38.963833" lon="-6.088433">
        <ele>1814.0</ele>
        <time>2019-05-04T13:27:36Z</time>
      </trkpt>
      <trkpt lat="38.963733" lon="-6.088467">
        <ele>1812.0</ele>
        <time>2019-05-04T13:27:37Z</time>
      </trkpt>
      <trkpt lat="38.963650" lon="-6.088483">
        <ele>1809.0</ele>
        <time>2019-05-04T13:27:38Z</time>
      </trkpt>
      <trkpt lat="38.963550" lon="-6.088517">
        <ele>1807.0</ele>
        <time>2019-05-04T13:27:39Z</time>
      </trkpt>
      <trkpt lat="38.963450" lon="-6.088533">
        <ele>1805.0</ele>
        <time>2019-05-04T13:27:40Z</time>
      </trkpt>
      <trkpt lat="38.963350" lon="-6.088567">
        <ele>1803.0</ele>
        <time>2019-05-04T13:27:41Z</time>
      </trkpt>
      <trkpt lat="38.963267" lon="-6.088583">
        <ele>1800.0</ele>
        <time>2019-05-04T13:27:42Z</time>
      </trkpt>
      <trkpt lat="38.963167" lon="-6.088600">
        <ele>1798.0</ele>
        <time>2019-05-04T13:27:43Z</time>
      </trkpt>
      <trkpt lat="38.963067" lon="-6.088633">
        <ele>1796.0</ele>
        <time>2019-05-04T13:27:44Z</time>
      </trkpt>
      <trkpt lat="38.962967" lon="-6.088650">
        <ele>1794.0</ele>
        <time>2019-05-04T13:27:45Z</time>
      </trkpt>
      <trkpt lat="38.962883" lon="-6.088667">
        <ele>1792.0</ele>
        <time>2019-05-04T13:27:46Z</time>
      </trkpt>
      <trkpt lat="38.962783" lon="-6.088683">
        <ele>1793.0</ele>
        <time>2019-05-04T13:27:47Z</time>
      </trkpt>
      <trkpt lat="38.962717" lon="-6.088717">
        <ele>1794.0</ele>
        <time>2019-05-04T13:27:48Z</time>
      </trkpt>
      <trkpt lat="38.962633" lon="-6.088733">
        <ele>1794.0</ele>
        <time>2019-05-04T13:27:49Z</time>
      </trkpt>
      <trkpt lat="38.962550" lon="-6.088767">
        <ele>1793.0</ele>
        <time>2019-05-04T13:27:50Z</time>
      </trkpt>
      <trkpt lat="38.962450" lon="-6.088800">
        <ele>1793.0</ele>
        <time>2019-05-04T13:27:51Z</time>
      </trkpt>
      <trkpt lat="38.962367" lon="-6.088833">
        <ele>1793.0</ele>
        <time>2019-05-04T13:27:52Z</time>
      </trkpt>
      <trkpt lat="38.962283" lon="-6.088867">
        <ele>1793.0</ele>
        <time>2019-05-04T13:27:53Z</time>
      </trkpt>
      <trkpt lat="38.962200" lon="-6.088900">
        <ele>1793.0</ele>
        <time>2019-05-04T13:27:54Z</time>
      </trkpt>
      <trkpt lat="38.962133" lon="-6.088950">
        <ele>1794.0</ele>
        <time>2019-05-04T13:27:55Z</time>
      </trkpt>
      <trkpt lat="38.962050" lon="-6.089000">
        <ele>1794.0</ele>
        <time>2019-05-04T13:27:56Z</time>
      </trkpt>
      <trkpt lat="38.961983" lon="-6.089050">
        <ele>1795.0</ele>
        <time>2019-05-04T13:27:57Z</time>
      </trkpt>
      <trkpt lat="38.961900" lon="-6.089100">
        <ele>1796.0</ele>
        <time>2019-05-04T13:27:58Z</time>
      </trkpt>
      <trkpt lat="38.961833" lon="-6.089150">
        <ele>1796.0</ele>
        <time>2019-05-04T13:27:59Z</time>
      </trkpt>
      <trkpt lat="38.961767" lon="-6.089200">
        <ele>1797.0</ele>
        <time>2019-05-04T13:28:00Z</time>
      </trkpt>
      <trkpt lat="38.961700" lon="-6.089233">
        <ele>1797.0</ele>
        <time>2019-05-04T13:28:01Z</time>
      </trkpt>
      <trkpt lat="38.961617" lon="-6.089283">
        <ele>1798.0</ele>
        <time>2019-05-04T13:28:02Z</time>
      </trkpt>
      <trkpt lat="38.961533" lon="-6.089317">
        <ele>1797.0</ele>
        <time>2019-05-04T13:28:03Z</time>
      </trkpt>
      <trkpt lat="38.961450" lon="-6.089350">
        <ele>1797.0</ele>
        <time>2019-05-04T13:28:04Z</time>
      </trkpt>
      <trkpt lat="38.961383" lon="-6.089400">
        <ele>1798.0</ele>
        <time>2019-05-04T13:28:05Z</time>
      </trkpt>
      <trkpt lat="38.961300" lon="-6.089433">
        <ele>1798.0</ele>
        <time>2019-05-04T13:28:06Z</time>
      </trkpt>
      <trkpt lat="38.961250" lon="-6.089483">
        <ele>1798.0</ele>
        <time>2019-05-04T13:28:07Z</time>
      </trkpt>
      <trkpt lat="38.961167" lon="-6.089517">
        <ele>1797.0</ele>
        <time>2019-05-04T13:28:08Z</time>
      </trkpt>
      <trkpt lat="38.961083" lon="-6.089583">
        <ele>1793.0</ele>
        <time>2019-05-04T13:28:09Z</time>
      </trkpt>
      <trkpt lat="38.961000" lon="-6.089633">
        <ele>1791.0</ele>
        <time>2019-05-04T13:28:10Z</time>
      </trkpt>
      <trkpt lat="38.960900" lon="-6.089683">
        <ele>1790.0</ele>
        <time>2019-05-04T13:28:11Z</time>
      </trkpt>
      <trkpt lat="38.960817" lon="-6.089717">
        <ele>1789.0</ele>
        <time>2019-05-04T13:28:12Z</time>
      </trkpt>
      <trkpt lat="38.960717" lon="-6.089733">
        <ele>1788.0</ele>
        <time>2019-05-04T13:28:13Z</time>
      </trkpt>
      <trkpt lat="38.960633" lon="-6.089750">
        <ele>1787.0</ele>
        <time>2019-05-04T13:28:14Z</time>
      </trkpt>
      <trkpt lat="38.960533" lon="-6.089767">
        <ele>1785.0</ele>
        <time>2019-05-04T13:28:15Z</time>
      </trkpt>
      <trkpt lat="38.960450" lon="-6.089783">
        <ele>1783.0</ele>
        <time>2019-05-04T13:28:16Z</time>
      </trkpt>
      <trkpt lat="38.960350" lon="-6.089800">
        <ele>1780.0</ele>
        <time>2019-05-04T13:28:17Z</time>
      </trkpt>
      <trkpt lat="38.960250" lon="-6.089800">
        <ele>1779.0</ele>
        <time>2019-05-04T13:28:18Z</time>
      </trkpt>
      <trkpt lat="38.960150" lon="-6.089800">
        <ele>1777.0</ele>
        <time>2019-05-04T13:28:19Z</time>
      </trkpt>
      <trkpt lat="38.960050" lon="-6.089817">
        <ele>1776.0</ele>
        <time>2019-05-04T13:28:20Z</time>
      </trkpt>
      <trkpt lat="38.959950" lon="-6.089833">
        <ele>1774.0</ele>
        <time>2019-05-04T13:28:21Z</time>
      </trkpt>
      <trkpt lat="38.959850" lon="-6.089833">
        <ele>1772.0</ele>
        <time>2019-05-04T13:28:22Z</time>
      </trkpt>
      <trkpt lat="38.959750" lon="-6.089817">
        <ele>1770.0</ele>
        <time>2019-05-04T13:28:23Z</time>
      </trkpt>
      <trkpt lat="38.959650" lon="-6.089800">
        <ele>1768.0</ele>
        <time>2019-05-04T13:28:24Z</time>
      </trkpt>
      <trkpt lat="38.959550" lon="-6.089783">
        <ele>1766.0</ele>
        <time>2019-05-04T13:28:25Z</time>
      </trkpt>
      <trkpt lat="38.959450" lon="-6.089783">
        <ele>1764.0</ele>
        <time>2019-05-04T13:28:26Z</time>
      </trkpt>
      <trkpt lat="38.959350" lon="-6.089767">
        <ele>1762.0</ele>
        <time>2019-05-04T13:28:27Z</time>
      </trkpt>
      <trkpt lat="38.959250" lon="-6.089767">
        <ele>1760.0</ele>
        <time>2019-05-04T13:28:28Z</time>
      </trkpt>
      <trkpt lat="38.959150" lon="-6.089750">
        <ele>1759.0</ele>
        <time>2019-05-04T13:28:29Z</time>
      </trkpt>
      <trkpt lat="38.959050" lon="-6.089733">
        <ele>1757.0</ele>
        <time>2019-05-04T13:28:30Z</time>
      </trkpt>
      <trkpt lat="38.958967" lon="-6.089733">
        <ele>1756.0</ele>
        <time>2019-05-04T13:28:31Z</time>
      </trkpt>
      <trkpt lat="38.958867" lon="-6.089717">
        <ele>1753.0</ele>
        <time>2019-05-04T13:28:32Z</time>
      </trkpt>
      <trkpt lat="38.958783" lon="-6.089700">
        <ele>1751.0</ele>
        <time>2019-05-04T13:28:33Z</time>
      </trkpt>
      <trkpt lat="38.958683" lon="-6.089667">
        <ele>1748.0</ele>
        <time>2019-05-04T13:28:34Z</time>
      </trkpt>
      <trkpt lat="38.958600" lon="-6.089617">
        <ele>1745.0</ele>
        <time>2019-05-04T13:28:35Z</time>
      </trkpt>
      <trkpt lat="38.958500" lon="-6.089567">
        <ele>1742.0</ele>
        <time>2019-05-04T13:28:36Z</time>
      </trkpt>
      <trkpt lat="38.958400" lon="-6.089517">
        <ele>1740.0</ele>
        <time>2019-05-04T13:28:37Z</time>
      </trkpt>
      <trkpt lat="38.958317" lon="-6.089483">
        <ele>1738.0</ele>
        <time>2019-05-04T13:28:38Z</time>
      </trkpt>
      <trkpt lat="38.958233" lon="-6.089450">
        <ele>1737.0</ele>
        <time>2019-05-04T13:28:39Z</time>
      </trkpt>
      <trkpt lat="38.958150" lon="-6.089417">
        <ele>1735.0</ele>
        <time>2019-05-04T13:28:40Z</time>
      </trkpt>
      <trkpt lat="38.958050" lon="-6.089367">
        <ele>1732.0</ele>
        <time>2019-05-04T13:28:41Z</time>
      </trkpt>
      <trkpt lat="38.957967" lon="-6.089333">
        <ele>1729.0</ele>
        <time>2019-05-04T13:28:42Z</time>
      </trkpt>
      <trkpt lat="38.957867" lon="-6.089283">
        <ele>1727.0</ele>
        <time>2019-05-04T13:28:43Z</time>
      </trkpt>
      <trkpt lat="38.957767" lon="-6.089250">
        <ele>1727.0</ele>
        <time>2019-05-04T13:28:44Z</time>
      </trkpt>
      <trkpt lat="38.957667" lon="-6.089217">
        <ele>1726.0</ele>
        <time>2019-05-04T13:28:45Z</time>
      </trkpt>
      <trkpt lat="38.957583" lon="-6.089200">
        <ele>1726.0</ele>
        <time>2019-05-04T13:28:46Z</time>
      </trkpt>
      <trkpt lat="38.957483" lon="-6.089167">
        <ele>1725.0</ele>
        <time>2019-05-04T13:28:47Z</time>
      </trkpt>
      <trkpt lat="38.957400" lon="-6.089150">
        <ele>1722.0</ele>
        <time>2019-05-04T13:28:48Z</time>
      </trkpt>
      <trkpt lat="38.957283" lon="-6.089133">
        <ele>1720.0</ele>
        <time>2019-05-04T13:28:49Z</time>
      </trkpt>
      <trkpt lat="38.957183" lon="-6.089117">
        <ele>1718.0</ele>
        <time>2019-05-04T13:28:50Z</time>
      </trkpt>
      <trkpt lat="38.957067" lon="-6.089100">
        <ele>1716.0</ele>
        <time>2019-05-04T13:28:51Z</time>
      </trkpt>
      <trkpt lat="38.956517" lon="-6.089033">
        <ele>0.0</ele>
        <time>2019-05-04T13:28:56Z</time>
      </trkpt>
      <trkpt lat="38.956450" lon="-6.089017">
        <ele>1705.0</ele>
        <time>2019-05-04T13:28:57Z</time>
      </trkpt>
      <trkpt lat="38.956367" lon="-6.089017">
        <ele>1704.0</ele>
        <time>2019-05-04T13:28:58Z</time>
      </trkpt>
      <trkpt lat="38.956267" lon="-6.089000">
        <ele>1703.0</ele>
        <time>2019-05-04T13:28:59Z</time>
      </trkpt>
      <trkpt lat="38.956167" lon="-6.088983">
        <ele>1701.0</ele>
        <time>2019-05-04T13:29:00Z</time>
      </trkpt>
      <trkpt lat="38.956050" lon="-6.088967">
        <ele>1697.0</ele>
        <time>2019-05-04T13:29:01Z</time>
      </trkpt>
      <trkpt lat="38.955933" lon="-6.088967">
        <ele>1694.0</ele>
        <time>2019-05-04T13:29:02Z</time>
      </trkpt>
      <trkpt lat="38.955817" lon="-6.088967">
        <ele>1692.0</ele>
        <time>2019-05-04T13:29:03Z</time>
      </trkpt>
      <trkpt lat="38.955717" lon="-6.088950">
        <ele>1691.0</ele>
        <time>2019-05-04T13:29:04Z</time>
      </trkpt>
      <trkpt lat="38.955617" lon="-6.088950">
        <ele>1690.0</ele>
        <time>2019-05-04T13:29:05Z</time>
      </trkpt>
      <trkpt lat="38.955500" lon="-6.088933">
        <ele>1689.0</ele>
        <time>2019-05-04T13:29:06Z</time>
      </trkpt>
      <trkpt lat="38.955400" lon="-6.088917">
        <ele>1688.0</ele>
        <time>2019-05-04T13:29:07Z</time>
      </trkpt>
      <trkpt lat="38.955300" lon="-6.088900">
        <ele>1686.0</ele>
        <time>2019-05-04T13:29:08Z</time>
      </trkpt>
      <trkpt lat="38.955200" lon="-6.088883">
        <ele>1685.0</ele>
        <time>2019-05-04T13:29:09Z</time>
      </trkpt>
      <trkpt lat="38.955100" lon="-6.088867">
        <ele>1684.0</ele>
        <time>2019-05-04T13:29:10Z</time>
      </trkpt>
      <trkpt lat="38.955000" lon="-6.088833">
        <ele>1683.0</ele>
        <time>2019-05-04T13:29:11Z</time>
      </trkpt>
      <trkpt lat="38.954900" lon="-6.088800">
        <ele>1681.0</ele>
        <time>2019-05-04T13:29:12Z</time>
      </trkpt>
      <trkpt lat="38.954800" lon="-6.088783">
        <ele>1679.0</ele>
        <time>2019-05-04T13:29:13Z</time>
      </trkpt>
      <trkpt lat="38.954700" lon="-6.088750">
        <ele>1677.0</ele>
        <time>2019-05-04T13:29:14Z</time>
      </trkpt>
      <trkpt lat="38.954583" lon="-6.088717">
        <ele>1675.0</ele>
        <time>2019-05-04T13:29:15Z</time>
      </trkpt>
      <trkpt lat="38.954467" lon="-6.088667">
        <ele>1673.0</ele>
        <time>2019-05-04T13:29:16Z</time>
      </trkpt>
      <trkpt lat="38.954367" lon="-6.088633">
        <ele>1672.0</ele>
        <time>2019-05-04T13:29:17Z</time>
      </trkpt>
      <trkpt lat="38.954267" lon="-6.088600">
        <ele>1671.0</ele>
        <time>2019-05-04T13:29:18Z</time>
      </trkpt>
      <trkpt lat="38.954167" lon="-6.088567">
        <ele>1670.0</ele>
        <time>2019-05-04T13:29:19Z</time>
      </trkpt>
      <trkpt lat="38.954083" lon="-6.088533">
        <ele>1669.0</ele>
        <time>2019-05-04T13:29:20Z</time>
      </trkpt>
      <trkpt lat="38.953983" lon="-6.088500">
        <ele>1668.0</ele>
        <time>2019-05-04T13:29:21Z</time>
      </trkpt>
      <trkpt lat="38.953867" lon="-6.088450">
        <ele>1666.0</ele>
        <time>2019-05-04T13:29:22Z</time>
      </trkpt>
      <trkpt lat="38.953767" lon="-6.088417">
        <ele>1664.0</ele>
        <time>2019-05-04T13:29:23Z</time>
      </trkpt>
      <trkpt lat="38.953683" lon="-6.088367">
        <ele>1662.0</ele>
        <time>2019-05-04T13:29:24Z</time>
      </trkpt>
      <trkpt lat="38.953583" lon="-6.088333">
        <ele>1660.0</ele>
        <time>2019-05-04T13:29:25Z</time>
      </trkpt>
      <trkpt lat="38.953483" lon="-6.088283">
        <ele>1658.0</ele>
        <time>2019-05-04T13:29:26Z</time>
      </trkpt>
      <trkpt lat="38.953383" lon="-6.088233">
        <ele>1656.0</ele>
        <time>2019-05-04T13:29:27Z</time>
      </trkpt>
      <trkpt lat="38.953300" lon="-6.088183">
        <ele>1654.0</ele>
        <time>2019-05-04T13:29:28Z</time>
      </trkpt>
      <trkpt lat="38.953200" lon="-6.088150">
        <ele>1652.0</ele>
        <time>2019-05-04T13:29:29Z</time>
      </trkpt>
      <trkpt lat="38.953100" lon="-6.088100">
        <ele>1651.0</ele>
        <time>2019-05-04T13:29:30Z</time>
      </trkpt>
      <trkpt lat="38.953017" lon="-6.088067">
        <ele>1649.0</ele>
        <time>2019-05-04T13:29:31Z</time>
      </trkpt>
      <trkpt lat="38.952917" lon="-6.088033">
        <ele>1648.0</ele>
        <time>2019-05-04T13:29:32Z</time>
      </trkpt>
      <trkpt lat="38.952817" lon="-6.088000">
        <ele>1646.0</ele>
        <time>2019-05-04T13:29:33Z</time>
      </trkpt>
      <trkpt lat="38.952717" lon="-6.087950">
        <ele>1645.0</ele>
        <time>2019-05-04T13:29:34Z</time>
      </trkpt>
      <trkpt lat="38.952633" lon="-6.087917">
        <ele>1643.0</ele>
        <time>2019-05-04T13:29:35Z</time>
      </trkpt>
      <trkpt lat="38.952533" lon="-6.087883">
        <ele>1642.0</ele>
        <time>2019-05-04T13:29:36Z</time>
      </trkpt>
      <trkpt lat="38.952433" lon="-6.087850">
        <ele>1640.0</ele>
        <time>2019-05-04T13:29:37Z</time>
      </trkpt>
      <trkpt lat="38.952333" lon="-6.087800">
        <ele>1639.0</ele>
        <time>2019-05-04T13:29:38Z</time>
      </trkpt>
      <trkpt lat="38.952233" lon="-6.087750">
        <ele>1637.0</ele>
        <time>2019-05-04T13:29:39Z</time>
      </trkpt>
      <trkpt lat="38.952150" lon="-6.087700">
        <ele>1635.0</ele>
        <time>2019-05-04T13:29:40Z</time>
      </trkpt>
      <trkpt lat="38.952050" lon="-6.087667">
        <ele>1634.0</ele>
        <time>2019-05-04T13:29:41Z</time>
      </trkpt>
      <trkpt lat="38.951950" lon="-6.087617">
        <ele>1632.0</ele>
        <time>2019-05-04T13:29:42Z</time>
      </trkpt>
      <trkpt lat="38.951850" lon="-6.087583">
        <ele>1630.0</ele>
        <time>2019-05-04T13:29:43Z</time>
      </trkpt>
      <trkpt lat="38.951750" lon="-6.087533">
        <ele>1628.0</ele>
        <time>2019-05-04T13:29:44Z</time>
      </trkpt>
      <trkpt lat="38.951667" lon="-6.087483">
        <ele>1626.0</ele>
        <time>2019-05-04T13:29:45Z</time>
      </trkpt>
      <trkpt lat="38.951567" lon="-6.087433">
        <ele>1625.0</ele>
        <time>2019-05-04T13:29:46Z</time>
      </trkpt>
      <trkpt lat="38.951483" lon="-6.087400">
        <ele>1625.0</ele>
        <time>2019-05-04T13:29:47Z</time>
      </trkpt>
      <trkpt lat="38.951400" lon="-6.087350">
        <ele>1624.0</ele>
        <time>2019-05-04T13:29:48Z</time>
      </trkpt>
      <trkpt lat="38.951317" lon="-6.087317">
        <ele>1623.0</ele>
        <time>2019-05-04T13:29:49Z</time>
      </trkpt>
      <trkpt lat="38.951233" lon="-6.087267">
        <ele>1621.0</ele>
        <time>2019-05-04T13:29:50Z</time>
      </trkpt>
      <trkpt lat="38.951150" lon="-6.087217">
        <ele>1620.0</ele>
        <time>2019-05-04T13:29:51Z</time>
      </trkpt>
      <trkpt lat="38.951050" lon="-6.087167">
        <ele>1619.0</ele>
        <time>2019-05-04T13:29:52Z</time>
      </trkpt>
      <trkpt lat="38.950967" lon="-6.087117">
        <ele>1618.0</ele>
        <time>2019-05-04T13:29:53Z</time>
      </trkpt>
      <trkpt lat="38.950883" lon="-6.087067">
        <ele>1616.0</ele>
        <time>2019-05-04T13:29:54Z</time>
      </trkpt>
      <trkpt lat="38.950800" lon="-6.087033">
        <ele>1615.0</ele>
        <time>2019-05-04T13:29:55Z</time>
      </trkpt>
      <trkpt lat="38.950717" lon="-6.086983">
        <ele>1614.0</ele>
        <time>2019-05-04T13:29:56Z</time>
      </trkpt>
      <trkpt lat="38.950617" lon="-6.086950">
        <ele>1612.0</ele>
        <time>2019-05-04T13:29:57Z</time>
      </trkpt>
      <trkpt lat="38.950533" lon="-6.086900">
        <ele>1610.0</ele>
        <time>2019-05-04T13:29:58Z</time>
      </trkpt>
      <trkpt lat="38.950433" lon="-6.086867">
        <ele>1608.0</ele>
        <time>2019-05-04T13:29:59Z</time>
      </trkpt>
      <trkpt lat="38.950333" lon="-6.086833">
        <ele>1605.0</ele>
        <time>2019-05-04T13:30:00Z</time>
      </trkpt>
      <trkpt lat="38.950233" lon="-6.086800">
        <ele>1603.0</ele>
        <time>2019-05-04T13:30:01Z</time>
      </trkpt>
      <trkpt lat="38.950133" lon="-6.086750">
        <ele>1601.0</ele>
        <time>2019-05-04T13:30:02Z</time>
      </trkpt>
      <trkpt lat="38.950033" lon="-6.086700">
        <ele>1598.0</ele>
        <time>2019-05-04T13:30:03Z</time>
      </trkpt>
      <trkpt lat="38.949933" lon="-6.086667">
        <ele>1596.0</ele>
        <time>2019-05-04T13:30:04Z</time>
      </trkpt>
      <trkpt lat="38.949833" lon="-6.086633">
        <ele>1594.0</ele>
        <time>2019-05-04T13:30:05Z</time>
      </trkpt>
      <trkpt lat="38.949750" lon="-6.086583">
        <ele>1593.0</ele>
        <time>2019-05-04T13:30:06Z</time>
      </trkpt>
      <trkpt lat="38.949667" lon="-6.086533">
        <ele>1591.0</ele>
        <time>2019-05-04T13:30:07Z</time>
      </trkpt>
      <trkpt lat="38.949567" lon="-6.086483">
        <ele>1590.0</ele>
        <time>2019-05-04T13:30:08Z</time>
      </trkpt>
      <trkpt lat="38.949483" lon="-6.086433">
        <ele>1588.0</ele>
        <time>2019-05-04T13:30:09Z</time>
      </trkpt>
      <trkpt lat="38.949367" lon="-6.086383">
        <ele>1585.0</ele>
        <time>2019-05-04T13:30:10Z</time>
      </trkpt>
      <trkpt lat="38.949267" lon="-6.086333">
        <ele>1583.0</ele>
        <time>2019-05-04T13:30:11Z</time>
      </trkpt>
      <trkpt lat="38.949183" lon="-6.086283">
        <ele>1582.0</ele>
        <time>2019-05-04T13:30:12Z</time>
      </trkpt>
      <trkpt lat="38.949083" lon="-6.086250">
        <ele>1582.0</ele>
        <time>2019-05-04T13:30:13Z</time>
      </trkpt>
      <trkpt lat="38.949000" lon="-6.086200">
        <ele>1581.0</ele>
        <time>2019-05-04T13:30:14Z</time>
      </trkpt>
      <trkpt lat="38.948917" lon="-6.086167">
        <ele>1580.0</ele>
        <time>2019-05-04T13:30:15Z</time>
      </trkpt>
      <trkpt lat="38.948833" lon="-6.086133">
        <ele>1579.0</ele>
        <time>2019-05-04T13:30:16Z</time>
      </trkpt>
      <trkpt lat="38.948733" lon="-6.086100">
        <ele>1577.0</ele>
        <time>2019-05-04T13:30:17Z</time>
      </trkpt>
      <trkpt lat="38.948650" lon="-6.086050">
        <ele>1576.0</ele>
        <time>2019-05-04T13:30:18Z</time>
      </trkpt>
      <trkpt lat="38.948567" lon="-6.086000">
        <ele>1575.0</ele>
        <time>2019-05-04T13:30:19Z</time>
      </trkpt>
      <trkpt lat="38.948483" lon="-6.085950">
        <ele>1574.0</ele>
        <time>2019-05-04T13:30:20Z</time>
      </trkpt>
      <trkpt lat="38.948417" lon="-6.085883">
        <ele>1572.0</ele>
        <time>2019-05-04T13:30:21Z</time>
      </trkpt>
      <trkpt lat="38.948333" lon="-6.085833">
        <ele>1571.0</ele>
        <time>2019-05-04T13:30:22Z</time>
      </trkpt>
      <trkpt lat="38.948250" lon="-6.085783">
        <ele>1570.0</ele>
        <time>2019-05-04T13:30:23Z</time>
      </trkpt>
      <trkpt lat="38.948150" lon="-6.085717">
        <ele>1568.0</ele>
        <time>2019-05-04T13:30:24Z</time>
      </trkpt>
      <trkpt lat="38.948067" lon="-6.085667">
        <ele>1567.0</ele>
        <time>2019-05-04T13:30:25Z</time>
      </trkpt>
      <trkpt lat="38.947983" lon="-6.085600">
        <ele>1567.0</ele>
        <time>2019-05-04T13:30:26Z</time>
      </trkpt>
      <trkpt lat="38.947900" lon="-6.085550">
        <ele>1566.0</ele>
        <time>2019-05-04T13:30:27Z</time>
      </trkpt>
      <trkpt lat="38.947833" lon="-6.085500">
        <ele>1565.0</ele>
        <time>2019-05-04T13:30:28Z</time>
      </trkpt>
      <trkpt lat="38.947750" lon="-6.085450">
        <ele>1563.0</ele>
        <time>2019-05-04T13:30:29Z</time>
      </trkpt>
      <trkpt lat="38.947650" lon="-6.085417">
        <ele>1561.0</ele>
        <time>2019-05-04T13:30:30Z</time>
      </trkpt>
      <trkpt lat="38.947567" lon="-6.085383">
        <ele>1559.0</ele>
        <time>2019-05-04T13:30:31Z</time>
      </trkpt>
      <trkpt lat="38.947500" lon="-6.085333">
        <ele>1558.0</ele>
        <time>2019-05-04T13:30:32Z</time>
      </trkpt>
      <trkpt lat="38.947417" lon="-6.085283">
        <ele>1556.0</ele>
        <time>2019-05-04T13:30:33Z</time>
      </trkpt>
      <trkpt lat="38.947333" lon="-6.085250">
        <ele>1554.0</ele>
        <time>2019-05-04T13:30:34Z</time>
      </trkpt>
      <trkpt lat="38.947250" lon="-6.085217">
        <ele>1552.0</ele>
        <time>2019-05-04T13:30:35Z</time>
      </trkpt>
      <trkpt lat="38.947167" lon="-6.085183">
        <ele>1550.0</ele>
        <time>2019-05-04T13:30:36Z</time>
      </trkpt>
      <trkpt lat="38.947067" lon="-6.085133">
        <ele>1548.0</ele>
        <time>2019-05-04T13:30:37Z</time>
      </trkpt>
      <trkpt lat="38.946983" lon="-6.085100">
        <ele>1546.0</ele>
        <time>2019-05-04T13:30:38Z</time>
      </trkpt>
      <trkpt lat="38.946900" lon="-6.085050">
        <ele>1545.0</ele>
        <time>2019-05-04T13:30:39Z</time>
      </trkpt>
      <trkpt lat="38.946817" lon="-6.085017">
        <ele>1543.0</ele>
        <time>2019-05-04T13:30:40Z</time>
      </trkpt>
      <trkpt lat="38.946733" lon="-6.084983">
        <ele>1541.0</ele>
        <time>2019-05-04T13:30:41Z</time>
      </trkpt>
      <trkpt lat="38.946650" lon="-6.084950">
        <ele>1539.0</ele>
        <time>2019-05-04T13:30:42Z</time>
      </trkpt>
      <trkpt lat="38.946550" lon="-6.084917">
        <ele>1536.0</ele>
        <time>2019-05-04T13:30:43Z</time>
      </trkpt>
      <trkpt lat="38.946467" lon="-6.084883">
        <ele>1534.0</ele>
        <time>2019-05-04T13:30:44Z</time>
      </trkpt>
      <trkpt lat="38.946383" lon="-6.084850">
        <ele>1531.0</ele>
        <time>2019-05-04T13:30:45Z</time>
      </trkpt>
      <trkpt lat="38.946283" lon="-6.084817">
        <ele>1529.0</ele>
        <time>2019-05-04T13:30:46Z</time>
      </trkpt>
      <trkpt lat="38.946200" lon="-6.084783">
        <ele>1526.0</ele>
        <time>2019-05-04T13:30:47Z</time>
      </trkpt>
      <trkpt lat="38.946117" lon="-6.084733">
        <ele>1523.0</ele>
        <time>2019-05-04T13:30:48Z</time>
      </trkpt>
      <trkpt lat="38.946033" lon="-6.084700">
        <ele>1521.0</ele>
        <time>2019-05-04T13:30:49Z</time>
      </trkpt>
      <trkpt lat="38.945950" lon="-6.084650">
        <ele>1519.0</ele>
        <time>2019-05-04T13:30:50Z</time>
      </trkpt>
      <trkpt lat="38.945867" lon="-6.084600">
        <ele>1516.0</ele>
        <time>2019-05-04T13:30:51Z</time>
      </trkpt>
      <trkpt lat="38.945783" lon="-6.084550">
        <ele>1513.0</ele>
        <time>2019-05-04T13:30:52Z</time>
      </trkpt>
      <trkpt lat="38.945700" lon="-6.084517">
        <ele>1510.0</ele>
        <time>2019-05-04T13:30:53Z</time>
      </trkpt>
      <trkpt lat="38.945600" lon="-6.084467">
        <ele>1507.0</ele>
        <time>2019-05-04T13:30:54Z</time>
      </trkpt>
      <trkpt lat="38.945517" lon="-6.084433">
        <ele>1505.0</ele>
        <time>2019-05-04T13:30:55Z</time>
      </trkpt>
      <trkpt lat="38.945450" lon="-6.084383">
        <ele>1502.0</ele>
        <time>2019-05-04T13:30:56Z</time>
      </trkpt>
      <trkpt lat="38.945367" lon="-6.084333">
        <ele>1500.0</ele>
        <time>2019-05-04T13:30:57Z</time>
      </trkpt>
      <trkpt lat="38.945267" lon="-6.084300">
        <ele>1497.0</ele>
        <time>2019-05-04T13:30:58Z</time>
      </trkpt>
      <trkpt lat="38.945183" lon="-6.084267">
        <ele>1494.0</ele>
        <time>2019-05-04T13:30:59Z</time>
      </trkpt>
      <trkpt lat="38.945083" lon="-6.084250">
        <ele>1492.0</ele>
        <time>2019-05-04T13:31:00Z</time>
      </trkpt>
      <trkpt lat="38.945000" lon="-6.084200">
        <ele>1490.0</ele>
        <time>2019-05-04T13:31:01Z</time>
      </trkpt>
      <trkpt lat="38.944933" lon="-6.084167">
        <ele>1489.0</ele>
        <time>2019-05-04T13:31:02Z</time>
      </trkpt>
      <trkpt lat="38.944850" lon="-6.084100">
        <ele>1488.0</ele>
        <time>2019-05-04T13:31:03Z</time>
      </trkpt>
      <trkpt lat="38.944783" lon="-6.084067">
        <ele>1486.0</ele>
        <time>2019-05-04T13:31:04Z</time>
      </trkpt>
      <trkpt lat="38.944683" lon="-6.084033">
        <ele>1484.0</ele>
        <time>2019-05-04T13:31:05Z</time>
      </trkpt>
      <trkpt lat="38.944600" lon="-6.084017">
        <ele>1482.0</ele>
        <time>2019-05-04T13:31:06Z</time>
      </trkpt>
      <trkpt lat="38.944517" lon="-6.083983">
        <ele>1480.0</ele>
        <time>2019-05-04T13:31:07Z</time>
      </trkpt>
      <trkpt lat="38.944433" lon="-6.083933">
        <ele>1478.0</ele>
        <time>2019-05-04T13:31:08Z</time>
      </trkpt>
      <trkpt lat="38.944350" lon="-6.083900">
        <ele>1476.0</ele>
        <time>2019-05-04T13:31:09Z</time>
      </trkpt>
      <trkpt lat="38.944267" lon="-6.083850">
        <ele>1473.0</ele>
        <time>2019-05-04T13:31:10Z</time>
      </trkpt>
      <trkpt lat="38.944183" lon="-6.083817">
        <ele>1469.0</ele>
        <time>2019-05-04T13:31:11Z</time>
      </trkpt>
      <trkpt lat="38.944083" lon="-6.083767">
        <ele>1466.0</ele>
        <time>2019-05-04T13:31:12Z</time>
      </trkpt>
      <trkpt lat="38.944000" lon="-6.083700">
        <ele>1464.0</ele>
        <time>2019-05-04T13:31:13Z</time>
      </trkpt>
      <trkpt lat="38.943900" lon="-6.083650">
        <ele>1461.0</ele>
        <time>2019-05-04T13:31:14Z</time>
      </trkpt>
      <trkpt lat="38.943817" lon="-6.083600">
        <ele>1459.0</ele>
        <time>2019-05-04T13:31:15Z</time>
      </trkpt>
      <trkpt lat="38.943733" lon="-6.083550">
        <ele>1457.0</ele>
        <time>2019-05-04T13:31:16Z</time>
      </trkpt>
      <trkpt lat="38.943650" lon="-6.083517">
        <ele>1454.0</ele>
        <time>2019-05-04T13:31:17Z</time>
      </trkpt>
      <trkpt lat="38.943567" lon="-6.083467">
        <ele>1451.0</ele>
        <time>2019-05-04T13:31:18Z</time>
      </trkpt>
      <trkpt lat="38.943467" lon="-6.083417">
        <ele>1447.0</ele>
        <time>2019-05-04T13:31:19Z</time>
      </trkpt>
      <trkpt lat="38.943383" lon="-6.083367">
        <ele>1443.0</ele>
        <time>2019-05-04T13:31:20Z</time>
      </trkpt>
      <trkpt lat="38.943283" lon="-6.083317">
        <ele>1439.0</ele>
        <time>2019-05-04T13:31:21Z</time>
      </trkpt>
      <trkpt lat="38.943200" lon="-6.083250">
        <ele>1436.0</ele>
        <time>2019-05-04T13:31:22Z</time>
      </trkpt>
      <trkpt lat="38.943117" lon="-6.083183">
        <ele>1433.0</ele>
        <time>2019-05-04T13:31:23Z</time>
      </trkpt>
      <trkpt lat="38.943033" lon="-6.083133">
        <ele>1430.0</ele>
        <time>2019-05-04T13:31:24Z</time>
      </trkpt>
      <trkpt lat="38.942950" lon="-6.083083">
        <ele>1426.0</ele>
        <time>2019-05-04T13:31:25Z</time>
      </trkpt>
      <trkpt lat="38.942867" lon="-6.083017">
        <ele>1422.0</ele>
        <time>2019-05-04T13:31:26Z</time>
      </trkpt>
      <trkpt lat="38.942783" lon="-6.082950">
        <ele>1418.0</ele>
        <time>2019-05-04T13:31:27Z</time>
      </trkpt>
      <trkpt lat="38.942683" lon="-6.082900">
        <ele>1414.0</ele>
        <time>2019-05-04T13:31:28Z</time>
      </trkpt>
      <trkpt lat="38.942600" lon="-6.082850">
        <ele>1411.0</ele>
        <time>2019-05-04T13:31:29Z</time>
      </trkpt>
      <trkpt lat="38.942517" lon="-6.082800">
        <ele>1409.0</ele>
        <time>2019-05-04T13:31:30Z</time>
      </trkpt>
      <trkpt lat="38.942433" lon="-6.082750">
        <ele>1406.0</ele>
        <time>2019-05-04T13:31:31Z</time>
      </trkpt>
      <trkpt lat="38.942350" lon="-6.082683">
        <ele>1403.0</ele>
        <time>2019-05-04T13:31:32Z</time>
      </trkpt>
      <trkpt lat="38.942250" lon="-6.082633">
        <ele>1401.0</ele>
        <time>2019-05-04T13:31:33Z</time>
      </trkpt>
      <trkpt lat="38.942167" lon="-6.082583">
        <ele>1398.0</ele>
        <time>2019-05-04T13:31:34Z</time>
      </trkpt>
      <trkpt lat="38.942083" lon="-6.082533">
        <ele>1396.0</ele>
        <time>2019-05-04T13:31:35Z</time>
      </trkpt>
      <trkpt lat="38.941983" lon="-6.082467">
        <ele>1394.0</ele>
        <time>2019-05-04T13:31:36Z</time>
      </trkpt>
      <trkpt lat="38.941900" lon="-6.082417">
        <ele>1392.0</ele>
        <time>2019-05-04T13:31:37Z</time>
      </trkpt>
      <trkpt lat="38.941817" lon="-6.082367">
        <ele>1389.0</ele>
        <time>2019-05-04T13:31:38Z</time>
      </trkpt>
      <trkpt lat="38.941717" lon="-6.082317">
        <ele>1387.0</ele>
        <time>2019-05-04T13:31:39Z</time>
      </trkpt>
      <trkpt lat="38.941633" lon="-6.082250">
        <ele>1384.0</ele>
        <time>2019-05-04T13:31:40Z</time>
      </trkpt>
      <trkpt lat="38.941533" lon="-6.082183">
        <ele>1382.0</ele>
        <time>2019-05-04T13:31:41Z</time>
      </trkpt>
      <trkpt lat="38.941450" lon="-6.082133">
        <ele>1380.0</ele>
        <time>2019-05-04T13:31:42Z</time>
      </trkpt>
      <trkpt lat="38.941350" lon="-6.082067">
        <ele>1378.0</ele>
        <time>2019-05-04T13:31:43Z</time>
      </trkpt>
      <trkpt lat="38.941267" lon="-6.082017">
        <ele>1376.0</ele>
        <time>2019-05-04T13:31:44Z</time>
      </trkpt>
      <trkpt lat="38.941167" lon="-6.081967">
        <ele>1374.0</ele>
        <time>2019-05-04T13:31:45Z</time>
      </trkpt>
      <trkpt lat="38.941067" lon="-6.081900">
        <ele>1371.0</ele>
        <time>2019-05-04T13:31:46Z</time>
      </trkpt>
      <trkpt lat="38.940983" lon="-6.081833">
        <ele>1369.0</ele>
        <time>2019-05-04T13:31:47Z</time>
      </trkpt>
      <trkpt lat="38.940883" lon="-6.081767">
        <ele>1366.0</ele>
        <time>2019-05-04T13:31:48Z</time>
      </trkpt>
      <trkpt lat="38.940800" lon="-6.081700">
        <ele>1364.0</ele>
        <time>2019-05-04T13:31:49Z</time>
      </trkpt>
      <trkpt lat="38.940717" lon="-6.081667">
        <ele>1362.0</ele>
        <time>2019-05-04T13:31:50Z</time>
      </trkpt>
      <trkpt lat="38.940633" lon="-6.081617">
        <ele>1359.0</ele>
        <time>2019-05-04T13:31:51Z</time>
      </trkpt>
      <trkpt lat="38.940533" lon="-6.081567">
        <ele>1355.0</ele>
        <time>2019-05-04T13:31:52Z</time>
      </trkpt>
      <trkpt lat="38.940450" lon="-6.081500">
        <ele>1351.0</ele>
        <time>2019-05-04T13:31:53Z</time>
      </trkpt>
      <trkpt lat="38.940367" lon="-6.081433">
        <ele>1347.0</ele>
        <time>2019-05-04T13:31:54Z</time>
      </trkpt>
      <trkpt lat="38.940267" lon="-6.081367">
        <ele>1344.0</ele>
        <time>2019-05-04T13:31:55Z</time>
      </trkpt>
      <trkpt lat="38.940183" lon="-6.081317">
        <ele>1341.0</ele>
        <time>2019-05-04T13:31:56Z</time>
      </trkpt>
      <trkpt lat="38.940117" lon="-6.081267">
        <ele>1338.0</ele>
        <time>2019-05-04T13:31:57Z</time>
      </trkpt>
      <trkpt lat="38.940033" lon="-6.081217">
        <ele>1335.0</ele>
        <time>2019-05-04T13:31:58Z</time>
      </trkpt>
      <trkpt lat="38.939950" lon="-6.081167">
        <ele>1331.0</ele>
        <time>2019-05-04T13:31:59Z</time>
      </trkpt>
      <trkpt lat="38.939867" lon="-6.081100">
        <ele>1327.0</ele>
        <time>2019-05-04T13:32:00Z</time>
      </trkpt>
      <trkpt lat="38.939767" lon="-6.081033">
        <ele>1322.0</ele>
        <time>2019-05-04T13:32:01Z</time>
      </trkpt>
      <trkpt lat="38.939667" lon="-6.080967">
        <ele>1317.0</ele>
        <time>2019-05-04T13:32:02Z</time>
      </trkpt>
      <trkpt lat="38.939567" lon="-6.080900">
        <ele>1312.0</ele>
        <time>2019-05-04T13:32:03Z</time>
      </trkpt>
      <trkpt lat="38.939467" lon="-6.080817">
        <ele>1308.0</ele>
        <time>2019-05-04T13:32:04Z</time>
      </trkpt>
      <trkpt lat="38.939383" lon="-6.080750">
        <ele>1304.0</ele>
        <time>2019-05-04T13:32:05Z</time>
      </trkpt>
      <trkpt lat="38.939300" lon="-6.080667">
        <ele>1301.0</ele>
        <time>2019-05-04T13:32:06Z</time>
      </trkpt>
      <trkpt lat="38.939200" lon="-6.080600">
        <ele>1297.0</ele>
        <time>2019-05-04T13:32:07Z</time>
      </trkpt>
      <trkpt lat="38.939117" lon="-6.080533">
        <ele>1293.0</ele>
        <time>2019-05-04T13:32:08Z</time>
      </trkpt>
      <trkpt lat="38.939017" lon="-6.080467">
        <ele>1288.0</ele>
        <time>2019-05-04T13:32:09Z</time>
      </trkpt>
      <trkpt lat="38.938933" lon="-6.080383">
        <ele>1284.0</ele>
        <time>2019-05-04T13:32:10Z</time>
      </trkpt>
      <trkpt lat="38.938833" lon="-6.080317">
        <ele>1279.0</ele>
        <time>2019-05-04T13:32:11Z</time>
      </trkpt>
      <trkpt lat="38.938733" lon="-6.080233">
        <ele>1275.0</ele>
        <time>2019-05-04T13:32:12Z</time>
      </trkpt>
      <trkpt lat="38.938633" lon="-6.080150">
        <ele>1271.0</ele>
        <time>2019-05-04T13:32:13Z</time>
      </trkpt>
      <trkpt lat="38.938550" lon="-6.080083">
        <ele>1267.0</ele>
        <time>2019-05-04T13:32:14Z</time>
      </trkpt>
      <trkpt lat="38.938450" lon="-6.080000">
        <ele>1264.0</ele>
        <time>2019-05-04T13:32:15Z</time>
      </trkpt>
      <trkpt lat="38.938350" lon="-6.079917">
        <ele>1260.0</ele>
        <time>2019-05-04T13:32:16Z</time>
      </trkpt>
      <trkpt lat="38.938267" lon="-6.079850">
        <ele>1257.0</ele>
        <time>2019-05-04T13:32:17Z</time>
      </trkpt>
      <trkpt lat="38.938183" lon="-6.079767">
        <ele>1254.0</ele>
        <time>2019-05-04T13:32:18Z</time>
      </trkpt>
      <trkpt lat="38.938083" lon="-6.079700">
        <ele>1250.0</ele>
        <time>2019-05-04T13:32:19Z</time>
      </trkpt>
      <trkpt lat="38.937983" lon="-6.079617">
        <ele>1247.0</ele>
        <time>2019-05-04T13:32:20Z</time>
      </trkpt>
      <trkpt lat="38.937900" lon="-6.079550">
        <ele>1243.0</ele>
        <time>2019-05-04T13:32:21Z</time>
      </trkpt>
      <trkpt lat="38.937800" lon="-6.079483">
        <ele>1240.0</ele>
        <time>2019-05-04T13:32:22Z</time>
      </trkpt>
      <trkpt lat="38.937717" lon="-6.079417">
        <ele>1237.0</ele>
        <time>2019-05-04T13:32:23Z</time>
      </trkpt>
      <trkpt lat="38.937617" lon="-6.079367">
        <ele>1233.0</ele>
        <time>2019-05-04T13:32:24Z</time>
      </trkpt>
      <trkpt lat="38.937517" lon="-6.079300">
        <ele>1230.0</ele>
        <time>2019-05-04T13:32:25Z</time>
      </trkpt>
      <trkpt lat="38.937417" lon="-6.079250">
        <ele>1226.0</ele>
        <time>2019-05-04T13:32:26Z</time>
      </trkpt>
      <trkpt lat="38.937317" lon="-6.079183">
        <ele>1223.0</ele>
        <time>2019-05-04T13:32:27Z</time>
      </trkpt>
      <trkpt lat="38.937217" lon="-6.079133">
        <ele>1219.0</ele>
        <time>2019-05-04T13:32:28Z</time>
      </trkpt>
      <trkpt lat="38.937117" lon="-6.079067">
        <ele>1216.0</ele>
        <time>2019-05-04T13:32:29Z</time>
      </trkpt>
      <trkpt lat="38.937017" lon="-6.079000">
        <ele>1213.0</ele>
        <time>2019-05-04T13:32:30Z</time>
      </trkpt>
      <trkpt lat="38.936917" lon="-6.078933">
        <ele>1211.0</ele>
        <time>2019-05-04T13:32:31Z</time>
      </trkpt>
      <trkpt lat="38.936817" lon="-6.078867">
        <ele>1209.0</ele>
        <time>2019-05-04T13:32:32Z</time>
      </trkpt>
      <trkpt lat="38.936717" lon="-6.078817">
        <ele>1208.0</ele>
        <time>2019-05-04T13:32:33Z</time>
      </trkpt>
      <trkpt lat="38.936617" lon="-6.078750">
        <ele>1207.0</ele>
        <time>2019-05-04T13:32:34Z</time>
      </trkpt>
      <trkpt lat="38.936517" lon="-6.078683">
        <ele>1206.0</ele>
        <time>2019-05-04T13:32:35Z</time>
      </trkpt>
      <trkpt lat="38.936433" lon="-6.078617">
        <ele>1207.0</ele>
        <time>2019-05-04T13:32:36Z</time>
      </trkpt>
      <trkpt lat="38.936367" lon="-6.078550">
        <ele>1208.0</ele>
        <time>2019-05-04T13:32:37Z</time>
      </trkpt>
      <trkpt lat="38.936300" lon="-6.078483">
        <ele>1209.0</ele>
        <time>2019-05-04T13:32:38Z</time>
      </trkpt>
      <trkpt lat="38.936233" lon="-6.078433">
        <ele>1209.0</ele>
        <time>2019-05-04T13:32:39Z</time>
      </trkpt>
      <trkpt lat="38.936150" lon="-6.078367">
        <ele>1208.0</ele>
        <time>2019-05-04T13:32:40Z</time>
      </trkpt>
      <trkpt lat="38.936083" lon="-6.078317">
        <ele>1208.0</ele>
        <time>2019-05-04T13:32:41Z</time>
      </trkpt>
      <trkpt lat="38.936000" lon="-6.078267">
        <ele>1208.0</ele>
        <time>2019-05-04T13:32:42Z</time>
      </trkpt>
      <trkpt lat="38.935933" lon="-6.078183">
        <ele>1208.0</ele>
        <time>2019-05-04T13:32:43Z</time>
      </trkpt>
      <trkpt lat="38.935850" lon="-6.078117">
        <ele>1208.0</ele>
        <time>2019-05-04T13:32:44Z</time>
      </trkpt>
      <trkpt lat="38.935767" lon="-6.078050">
        <ele>1209.0</ele>
        <time>2019-05-04T13:32:45Z</time>
      </trkpt>
      <trkpt lat="38.935667" lon="-6.078033">
        <ele>1209.0</ele>
        <time>2019-05-04T13:32:46Z</time>
      </trkpt>
      <trkpt lat="38.935583" lon="-6.078017">
        <ele>1209.0</ele>
        <time>2019-05-04T13:32:47Z</time>
      </trkpt>
      <trkpt lat="38.935500" lon="-6.077983">
        <ele>1209.0</ele>
        <time>2019-05-04T13:32:48Z</time>
      </trkpt>
      <trkpt lat="38.935400" lon="-6.077933">
        <ele>1209.0</ele>
        <time>2019-05-04T13:32:49Z</time>
      </trkpt>
      <trkpt lat="38.935300" lon="-6.077867">
        <ele>1208.0</ele>
        <time>2019-05-04T13:32:50Z</time>
      </trkpt>
      <trkpt lat="38.935217" lon="-6.077817">
        <ele>1206.0</ele>
        <time>2019-05-04T13:32:51Z</time>
      </trkpt>
      <trkpt lat="38.935133" lon="-6.077767">
        <ele>1205.0</ele>
        <time>2019-05-04T13:32:52Z</time>
      </trkpt>
      <trkpt lat="38.935050" lon="-6.077733">
        <ele>1203.0</ele>
        <time>2019-05-04T13:32:53Z</time>
      </trkpt>
      <trkpt lat="38.934950" lon="-6.077683">
        <ele>1202.0</ele>
        <time>2019-05-04T13:32:54Z</time>
      </trkpt>
      <trkpt lat="38.934833" lon="-6.077633">
        <ele>1200.0</ele>
        <time>2019-05-04T13:32:55Z</time>
      </trkpt>
      <trkpt lat="38.934733" lon="-6.077550">
        <ele>1198.0</ele>
        <time>2019-05-04T13:32:56Z</time>
      </trkpt>
      <trkpt lat="38.934650" lon="-6.077483">
        <ele>1196.0</ele>
        <time>2019-05-04T13:32:57Z</time>
      </trkpt>
      <trkpt lat="38.934567" lon="-6.077417">
        <ele>1196.0</ele>
        <time>2019-05-04T13:32:58Z</time>
      </trkpt>
      <trkpt lat="38.934500" lon="-6.077350">
        <ele>1193.0</ele>
        <time>2019-05-04T13:32:59Z</time>
      </trkpt>
      <trkpt lat="38.934400" lon="-6.077300">
        <ele>1190.0</ele>
        <time>2019-05-04T13:33:00Z</time>
      </trkpt>
      <trkpt lat="38.934300" lon="-6.077233">
        <ele>1186.0</ele>
        <time>2019-05-04T13:33:01Z</time>
      </trkpt>
      <trkpt lat="38.934200" lon="-6.077167">
        <ele>1183.0</ele>
        <time>2019-05-04T13:33:02Z</time>
      </trkpt>
      <trkpt lat="38.934100" lon="-6.077083">
        <ele>1181.0</ele>
        <time>2019-05-04T13:33:03Z</time>
      </trkpt>
      <trkpt lat="38.934000" lon="-6.077017">
        <ele>1179.0</ele>
        <time>2019-05-04T13:33:04Z</time>
      </trkpt>
      <trkpt lat="38.933917" lon="-6.076950">
        <ele>1178.0</ele>
        <time>2019-05-04T13:33:05Z</time>
      </trkpt>
      <trkpt lat="38.933817" lon="-6.076900">
        <ele>1175.0</ele>
        <time>2019-05-04T13:33:06Z</time>
      </trkpt>
      <trkpt lat="38.933717" lon="-6.076833">
        <ele>1173.0</ele>
        <time>2019-05-04T13:33:07Z</time>
      </trkpt>
      <trkpt lat="38.933617" lon="-6.076767">
        <ele>1170.0</ele>
        <time>2019-05-04T13:33:08Z</time>
      </trkpt>
      <trkpt lat="38.933517" lon="-6.076683">
        <ele>1169.0</ele>
        <time>2019-05-04T13:33:09Z</time>
      </trkpt>
      <trkpt lat="38.933417" lon="-6.076633">
        <ele>1167.0</ele>
        <time>2019-05-04T13:33:10Z</time>
      </trkpt>
      <trkpt lat="38.933317" lon="-6.076583">
        <ele>1166.0</ele>
        <time>2019-05-04T13:33:11Z</time>
      </trkpt>
      <trkpt lat="38.933217" lon="-6.076533">
        <ele>1164.0</ele>
        <time>2019-05-04T13:33:12Z</time>
      </trkpt>
      <trkpt lat="38.933117" lon="-6.076467">
        <ele>1163.0</ele>
        <time>2019-05-04T13:33:13Z</time>
      </trkpt>
      <trkpt lat="38.933017" lon="-6.076383">
        <ele>1161.0</ele>
        <time>2019-05-04T13:33:14Z</time>
      </trkpt>
      <trkpt lat="38.932917" lon="-6.076283">
        <ele>1159.0</ele>
        <time>2019-05-04T13:33:15Z</time>
      </trkpt>
      <trkpt lat="38.932817" lon="-6.076200">
        <ele>1156.0</ele>
        <time>2019-05-04T13:33:16Z</time>
      </trkpt>
      <trkpt lat="38.932733" lon="-6.076133">
        <ele>1154.0</ele>
        <time>2019-05-04T13:33:17Z</time>
      </trkpt>
      <trkpt lat="38.932650" lon="-6.076050">
        <ele>1151.0</ele>
        <time>2019-05-04T13:33:18Z</time>
      </trkpt>
      <trkpt lat="38.932583" lon="-6.075967">
        <ele>1149.0</ele>
        <time>2019-05-04T13:33:19Z</time>
      </trkpt>
      <trkpt lat="38.932500" lon="-6.075883">
        <ele>1146.0</ele>
        <time>2019-05-04T13:33:20Z</time>
      </trkpt>
      <trkpt lat="38.932400" lon="-6.075817">
        <ele>1143.0</ele>
        <time>2019-05-04T13:33:21Z</time>
      </trkpt>
      <trkpt lat="38.932283" lon="-6.075733">
        <ele>1140.0</ele>
        <time>2019-05-04T13:33:22Z</time>
      </trkpt>
      <trkpt lat="38.932183" lon="-6.075650">
        <ele>1138.0</ele>
        <time>2019-05-04T13:33:23Z</time>
      </trkpt>
      <trkpt lat="38.932100" lon="-6.075567">
        <ele>1137.0</ele>
        <time>2019-05-04T13:33:24Z</time>
      </trkpt>
      <trkpt lat="38.932017" lon="-6.075500">
        <ele>1135.0</ele>
        <time>2019-05-04T13:33:25Z</time>
      </trkpt>
      <trkpt lat="38.931917" lon="-6.075433">
        <ele>1134.0</ele>
        <time>2019-05-04T13:33:26Z</time>
      </trkpt>
      <trkpt lat="38.931833" lon="-6.075367">
        <ele>1131.0</ele>
        <time>2019-05-04T13:33:27Z</time>
      </trkpt>
      <trkpt lat="38.931750" lon="-6.075300">
        <ele>1129.0</ele>
        <time>2019-05-04T13:33:28Z</time>
      </trkpt>
      <trkpt lat="38.931650" lon="-6.075233">
        <ele>1127.0</ele>
        <time>2019-05-04T13:33:29Z</time>
      </trkpt>
      <trkpt lat="38.931533" lon="-6.075150">
        <ele>1124.0</ele>
        <time>2019-05-04T13:33:30Z</time>
      </trkpt>
      <trkpt lat="38.931450" lon="-6.075100">
        <ele>1122.0</ele>
        <time>2019-05-04T13:33:31Z</time>
      </trkpt>
      <trkpt lat="38.931350" lon="-6.075033">
        <ele>1121.0</ele>
        <time>2019-05-04T13:33:32Z</time>
      </trkpt>
      <trkpt lat="38.931250" lon="-6.074983">
        <ele>1119.0</ele>
        <time>2019-05-04T13:33:33Z</time>
      </trkpt>
      <trkpt lat="38.931167" lon="-6.074917">
        <ele>1116.0</ele>
        <time>2019-05-04T13:33:34Z</time>
      </trkpt>
      <trkpt lat="38.931067" lon="-6.074850">
        <ele>1113.0</ele>
        <time>2019-05-04T13:33:35Z</time>
      </trkpt>
      <trkpt lat="38.930950" lon="-6.074783">
        <ele>1110.0</ele>
        <time>2019-05-04T13:33:36Z</time>
      </trkpt>
      <trkpt lat="38.930850" lon="-6.074750">
        <ele>1108.0</ele>
        <time>2019-05-04T13:33:37Z</time>
      </trkpt>
      <trkpt lat="38.930767" lon="-6.074717">
        <ele>1106.0</ele>
        <time>2019-05-04T13:33:38Z</time>
      </trkpt>
      <trkpt lat="38.930700" lon="-6.074667">
        <ele>1104.0</ele>
        <time>2019-05-04T13:33:39Z</time>
      </trkpt>
      <trkpt lat="38.930617" lon="-6.074633">
        <ele>1101.0</ele>
        <time>2019-05-04T13:33:40Z</time>
      </trkpt>
      <trkpt lat="38.930517" lon="-6.074567">
        <ele>1097.0</ele>
        <time>2019-05-04T13:33:41Z</time>
      </trkpt>
      <trkpt lat="38.930433" lon="-6.074517">
        <ele>1093.0</ele>
        <time>2019-05-04T13:33:42Z</time>
      </trkpt>
      <trkpt lat="38.930333" lon="-6.074450">
        <ele>1090.0</ele>
        <time>2019-05-04T13:33:43Z</time>
      </trkpt>
      <trkpt lat="38.930250" lon="-6.074400">
        <ele>1087.0</ele>
        <time>2019-05-04T13:33:44Z</time>
      </trkpt>
      <trkpt lat="38.930167" lon="-6.074333">
        <ele>1084.0</ele>
        <time>2019-05-04T13:33:45Z</time>
      </trkpt>
      <trkpt lat="38.930083" lon="-6.074283">
        <ele>1080.0</ele>
        <time>2019-05-04T13:33:46Z</time>
      </trkpt>
      <trkpt lat="38.929983" lon="-6.074233">
        <ele>1077.0</ele>
        <time>2019-05-04T13:33:47Z</time>
      </trkpt>
      <trkpt lat="38.929900" lon="-6.074167">
        <ele>1074.0</ele>
        <time>2019-05-04T13:33:48Z</time>
      </trkpt>
      <trkpt lat="38.929817" lon="-6.074117">
        <ele>1071.0</ele>
        <time>2019-05-04T13:33:49Z</time>
      </trkpt>
      <trkpt lat="38.929733" lon="-6.074067">
        <ele>1068.0</ele>
        <time>2019-05-04T13:33:50Z</time>
      </trkpt>
      <trkpt lat="38.929650" lon="-6.074000">
        <ele>1065.0</ele>
        <time>2019-05-04T13:33:51Z</time>
      </trkpt>
      <trkpt lat="38.929567" lon="-6.073950">
        <ele>1061.0</ele>
        <time>2019-05-04T13:33:52Z</time>
      </trkpt>
      <trkpt lat="38.929483" lon="-6.073900">
        <ele>1058.0</ele>
        <time>2019-05-04T13:33:53Z</time>
      </trkpt>
      <trkpt lat="38.929400" lon="-6.073850">
        <ele>1054.0</ele>
        <time>2019-05-04T13:33:54Z</time>
      </trkpt>
      <trkpt lat="38.929300" lon="-6.073800">
        <ele>1051.0</ele>
        <time>2019-05-04T13:33:55Z</time>
      </trkpt>
      <trkpt lat="38.929217" lon="-6.073750">
        <ele>1047.0</ele>
        <time>2019-05-04T13:33:56Z</time>
      </trkpt>
      <trkpt lat="38.929133" lon="-6.073700">
        <ele>1044.0</ele>
        <time>2019-05-04T13:33:57Z</time>
      </trkpt>
      <trkpt lat="38.929050" lon="-6.073650">
        <ele>1041.0</ele>
        <time>2019-05-04T13:33:58Z</time>
      </trkpt>
      <trkpt lat="38.928967" lon="-6.073617">
        <ele>1037.0</ele>
        <time>2019-05-04T13:33:59Z</time>
      </trkpt>
      <trkpt lat="38.928867" lon="-6.073567">
        <ele>1032.0</ele>
        <time>2019-05-04T13:34:00Z</time>
      </trkpt>
      <trkpt lat="38.928767" lon="-6.073533">
        <ele>1028.0</ele>
        <time>2019-05-04T13:34:01Z</time>
      </trkpt>
      <trkpt lat="38.928667" lon="-6.073500">
        <ele>1024.0</ele>
        <time>2019-05-04T13:34:02Z</time>
      </trkpt>
      <trkpt lat="38.928583" lon="-6.073467">
        <ele>1019.0</ele>
        <time>2019-05-04T13:34:03Z</time>
      </trkpt>
      <trkpt lat="38.928483" lon="-6.073417">
        <ele>1014.0</ele>
        <time>2019-05-04T13:34:04Z</time>
      </trkpt>
      <trkpt lat="38.928383" lon="-6.073383">
        <ele>1010.0</ele>
        <time>2019-05-04T13:34:05Z</time>
      </trkpt>
      <trkpt lat="38.928283" lon="-6.073350">
        <ele>1005.0</ele>
        <time>2019-05-04T13:34:06Z</time>
      </trkpt>
      <trkpt lat="38.928167" lon="-6.073317">
        <ele>1001.0</ele>
        <time>2019-05-04T13:34:07Z</time>
      </trkpt>
      <trkpt lat="38.928050" lon="-6.073267">
        <ele>998.0</ele>
        <time>2019-05-04T13:34:08Z</time>
      </trkpt>
      <trkpt lat="38.927950" lon="-6.073217">
        <ele>996.0</ele>
        <time>2019-05-04T13:34:09Z</time>
      </trkpt>
      <trkpt lat="38.927850" lon="-6.073167">
        <ele>994.0</ele>
        <time>2019-05-04T13:34:10Z</time>
      </trkpt>
      <trkpt lat="38.927750" lon="-6.073117">
        <ele>993.0</ele>
        <time>2019-05-04T13:34:11Z</time>
      </trkpt>
      <trkpt lat="38.927650" lon="-6.073067">
        <ele>993.0</ele>
        <time>2019-05-04T13:34:12Z</time>
      </trkpt>
      <trkpt lat="38.927550" lon="-6.073017">
        <ele>992.0</ele>
        <time>2019-05-04T13:34:13Z</time>
      </trkpt>
      <trkpt lat="38.927467" lon="-6.072983">
        <ele>992.0</ele>
        <time>2019-05-04T13:34:14Z</time>
      </trkpt>
      <trkpt lat="38.927367" lon="-6.072933">
        <ele>992.0</ele>
        <time>2019-05-04T13:34:15Z</time>
      </trkpt>
      <trkpt lat="38.927283" lon="-6.072883">
        <ele>991.0</ele>
        <time>2019-05-04T13:34:16Z</time>
      </trkpt>
      <trkpt lat="38.927217" lon="-6.072833">
        <ele>991.0</ele>
        <time>2019-05-04T13:34:17Z</time>
      </trkpt>
      <trkpt lat="38.927133" lon="-6.072783">
        <ele>991.0</ele>
        <time>2019-05-04T13:34:18Z</time>
      </trkpt>
      <trkpt lat="38.927050" lon="-6.072733">
        <ele>991.0</ele>
        <time>2019-05-04T13:34:19Z</time>
      </trkpt>
      <trkpt lat="38.926967" lon="-6.072683">
        <ele>991.0</ele>
        <time>2019-05-04T13:34:20Z</time>
      </trkpt>
      <trkpt lat="38.926900" lon="-6.072633">
        <ele>991.0</ele>
        <time>2019-05-04T13:34:21Z</time>
      </trkpt>
      <trkpt lat="38.926817" lon="-6.072583">
        <ele>991.0</ele>
        <time>2019-05-04T13:34:22Z</time>
      </trkpt>
      <trkpt lat="38.926750" lon="-6.072550">
        <ele>992.0</ele>
        <time>2019-05-04T13:34:23Z</time>
      </trkpt>
      <trkpt lat="38.926667" lon="-6.072517">
        <ele>991.0</ele>
        <time>2019-05-04T13:34:24Z</time>
      </trkpt>
      <trkpt lat="38.926583" lon="-6.072483">
        <ele>990.0</ele>
        <time>2019-05-04T13:34:25Z</time>
      </trkpt>
      <trkpt lat="38.926500" lon="-6.072433">
        <ele>989.0</ele>
        <time>2019-05-04T13:34:26Z</time>
      </trkpt>
      <trkpt lat="38.926400" lon="-6.072383">
        <ele>987.0</ele>
        <time>2019-05-04T13:34:27Z</time>
      </trkpt>
      <trkpt lat="38.926317" lon="-6.072333">
        <ele>987.0</ele>
        <time>2019-05-04T13:34:28Z</time>
      </trkpt>
      <trkpt lat="38.926233" lon="-6.072283">
        <ele>988.0</ele>
        <time>2019-05-04T13:34:29Z</time>
      </trkpt>
      <trkpt lat="38.926150" lon="-6.072250">
        <ele>988.0</ele>
        <time>2019-05-04T13:34:30Z</time>
      </trkpt>
      <trkpt lat="38.926083" lon="-6.072200">
        <ele>989.0</ele>
        <time>2019-05-04T13:34:31Z</time>
      </trkpt>
      <trkpt lat="38.926000" lon="-6.072183">
        <ele>989.0</ele>
        <time>2019-05-04T13:34:32Z</time>
      </trkpt>
      <trkpt lat="38.925933" lon="-6.072150">
        <ele>989.0</ele>
        <time>2019-05-04T13:34:33Z</time>
      </trkpt>
      <trkpt lat="38.925867" lon="-6.072117">
        <ele>989.0</ele>
        <time>2019-05-04T13:34:34Z</time>
      </trkpt>
      <trkpt lat="38.925800" lon="-6.072083">
        <ele>989.0</ele>
        <time>2019-05-04T13:34:35Z</time>
      </trkpt>
      <trkpt lat="38.925717" lon="-6.072050">
        <ele>989.0</ele>
        <time>2019-05-04T13:34:36Z</time>
      </trkpt>
      <trkpt lat="38.925633" lon="-6.072017">
        <ele>989.0</ele>
        <time>2019-05-04T13:34:37Z</time>
      </trkpt>
      <trkpt lat="38.925567" lon="-6.071983">
        <ele>990.0</ele>
        <time>2019-05-04T13:34:38Z</time>
      </trkpt>
      <trkpt lat="38.925500" lon="-6.071933">
        <ele>991.0</ele>
        <time>2019-05-04T13:34:39Z</time>
      </trkpt>
      <trkpt lat="38.925433" lon="-6.071900">
        <ele>992.0</ele>
        <time>2019-05-04T13:34:40Z</time>
      </trkpt>
      <trkpt lat="38.925350" lon="-6.071867">
        <ele>994.0</ele>
        <time>2019-05-04T13:34:41Z</time>
      </trkpt>
      <trkpt lat="38.925283" lon="-6.071833">
        <ele>995.0</ele>
        <time>2019-05-04T13:34:42Z</time>
      </trkpt>
      <trkpt lat="38.925217" lon="-6.071817">
        <ele>997.0</ele>
        <time>2019-05-04T13:34:43Z</time>
      </trkpt>
      <trkpt lat="38.925167" lon="-6.071783">
        <ele>998.0</ele>
        <time>2019-05-04T13:34:44Z</time>
      </trkpt>
      <trkpt lat="38.925100" lon="-6.071750">
        <ele>1000.0</ele>
        <time>2019-05-04T13:34:45Z</time>
      </trkpt>
      <trkpt lat="38.925033" lon="-6.071717">
        <ele>1001.0</ele>
        <time>2019-05-04T13:34:46Z</time>
      </trkpt>
      <trkpt lat="38.924950" lon="-6.071683">
        <ele>1002.0</ele>
        <time>2019-05-04T13:34:47Z</time>
      </trkpt>
      <trkpt lat="38.924883" lon="-6.071667">
        <ele>1003.0</ele>
        <time>2019-05-04T13:34:48Z</time>
      </trkpt>
      <trkpt lat="38.924817" lon="-6.071633">
        <ele>1006.0</ele>
        <time>2019-05-04T13:34:49Z</time>
      </trkpt>
      <trkpt lat="38.924767" lon="-6.071600">
        <ele>1007.0</ele>
        <time>2019-05-04T13:34:50Z</time>
      </trkpt>
      <trkpt lat="38.924717" lon="-6.071583">
        <ele>1008.0</ele>
        <time>2019-05-04T13:34:51Z</time>
      </trkpt>
      <trkpt lat="38.924650" lon="-6.071550">
        <ele>1009.0</ele>
        <time>2019-05-04T13:34:52Z</time>
      </trkpt>
      <trkpt lat="38.924583" lon="-6.071533">
        <ele>1010.0</ele>
        <time>2019-05-04T13:34:53Z</time>
      </trkpt>
      <trkpt lat="38.924500" lon="-6.071483">
        <ele>1011.0</ele>
        <time>2019-05-04T13:34:54Z</time>
      </trkpt>
      <trkpt lat="38.924433" lon="-6.071433">
        <ele>1013.0</ele>
        <time>2019-05-04T13:34:55Z</time>
      </trkpt>
      <trkpt lat="38.924383" lon="-6.071383">
        <ele>1016.0</ele>
        <time>2019-05-04T13:34:56Z</time>
      </trkpt>
      <trkpt lat="38.924333" lon="-6.071333">
        <ele>1019.0</ele>
        <time>2019-05-04T13:34:57Z</time>
      </trkpt>
      <trkpt lat="38.924283" lon="-6.071300">
        <ele>1021.0</ele>
        <time>2019-05-04T13:34:58Z</time>
      </trkpt>
      <trkpt lat="38.924217" lon="-6.071267">
        <ele>1022.0</ele>
        <time>2019-05-04T13:34:59Z</time>
      </trkpt>
      <trkpt lat="38.924167" lon="-6.071217">
        <ele>1022.0</ele>
        <time>2019-05-04T13:35:00Z</time>
      </trkpt>
      <trkpt lat="38.924100" lon="-6.071167">
        <ele>1024.0</ele>
        <time>2019-05-04T13:35:01Z</time>
      </trkpt>
      <trkpt lat="38.924050" lon="-6.071117">
        <ele>1025.0</ele>
        <time>2019-05-04T13:35:02Z</time>
      </trkpt>
      <trkpt lat="38.923983" lon="-6.071083">
        <ele>1027.0</ele>
        <time>2019-05-04T13:35:03Z</time>
      </trkpt>
      <trkpt lat="38.923933" lon="-6.071033">
        <ele>1028.0</ele>
        <time>2019-05-04T13:35:04Z</time>
      </trkpt>
      <trkpt lat="38.923867" lon="-6.071000">
        <ele>1029.0</ele>
        <time>2019-05-04T13:35:05Z</time>
      </trkpt>
      <trkpt lat="38.923800" lon="-6.070967">
        <ele>1032.0</ele>
        <time>2019-05-04T13:35:06Z</time>
      </trkpt>
      <trkpt lat="38.923733" lon="-6.070933">
        <ele>1034.0</ele>
        <time>2019-05-04T13:35:07Z</time>
      </trkpt>
      <trkpt lat="38.923683" lon="-6.070900">
        <ele>1037.0</ele>
        <time>2019-05-04T13:35:08Z</time>
      </trkpt>
      <trkpt lat="38.923617" lon="-6.070867">
        <ele>1039.0</ele>
        <time>2019-05-04T13:35:09Z</time>
      </trkpt>
      <trkpt lat="38.923567" lon="-6.070850">
        <ele>1042.0</ele>
        <time>2019-05-04T13:35:10Z</time>
      </trkpt>
      <trkpt lat="38.923500" lon="-6.070833">
        <ele>1044.0</ele>
        <time>2019-05-04T13:35:11Z</time>
      </trkpt>
      <trkpt lat="38.923450" lon="-6.070800">
        <ele>1046.0</ele>
        <time>2019-05-04T13:35:12Z</time>
      </trkpt>
      <trkpt lat="38.923383" lon="-6.070733">
        <ele>1048.0</ele>
        <time>2019-05-04T13:35:13Z</time>
      </trkpt>
      <trkpt lat="38.923317" lon="-6.070650">
        <ele>1050.0</ele>
        <time>2019-05-04T13:35:14Z</time>
      </trkpt>
      <trkpt lat="38.923283" lon="-6.070533">
        <ele>1053.0</ele>
        <time>2019-05-04T13:35:15Z</time>
      </trkpt>
      <trkpt lat="38.923267" lon="-6.070400">
        <ele>1055.0</ele>
        <time>2019-05-04T13:35:16Z</time>
      </trkpt>
      <trkpt lat="38.923267" lon="-6.070267">
        <ele>1058.0</ele>
        <time>2019-05-04T13:35:17Z</time>
      </trkpt>
      <trkpt lat="38.923283" lon="-6.070133">
        <ele>1060.0</ele>
        <time>2019-05-04T13:35:18Z</time>
      </trkpt>
      <trkpt lat="38.923333" lon="-6.070000">
        <ele>1063.0</ele>
        <time>2019-05-04T13:35:19Z</time>
      </trkpt>
      <trkpt lat="38.923400" lon="-6.069900">
        <ele>1066.0</ele>
        <time>2019-05-04T13:35:20Z</time>
      </trkpt>
      <trkpt lat="38.923483" lon="-6.069833">
        <ele>1067.0</ele>
        <time>2019-05-04T13:35:21Z</time>
      </trkpt>
      <trkpt lat="38.923583" lon="-6.069800">
        <ele>1068.0</ele>
        <time>2019-05-04T13:35:22Z</time>
      </trkpt>
      <trkpt lat="38.923683" lon="-6.069800">
        <ele>1069.0</ele>
        <time>2019-05-04T13:35:23Z</time>
      </trkpt>
      <trkpt lat="38.923767" lon="-6.069850">
        <ele>1071.0</ele>
        <time>2019-05-04T13:35:24Z</time>
      </trkpt>
      <trkpt lat="38.923817" lon="-6.069933">
        <ele>1073.0</ele>
        <time>2019-05-04T13:35:25Z</time>
      </trkpt>
      <trkpt lat="38.923850" lon="-6.070017">
        <ele>1076.0</ele>
        <time>2019-05-04T13:35:26Z</time>
      </trkpt>
      <trkpt lat="38.923850" lon="-6.070083">
        <ele>1080.0</ele>
        <time>2019-05-04T13:35:27Z</time>
      </trkpt>
      <trkpt lat="38.923850" lon="-6.070133">
        <ele>1084.0</ele>
        <time>2019-05-04T13:35:28Z</time>
      </trkpt>
      <trkpt lat="38.923833" lon="-6.070183">
        <ele>1087.0</ele>
        <time>2019-05-04T13:35:29Z</time>
      </trkpt>
      <trkpt lat="38.923817" lon="-6.070233">
        <ele>1089.0</ele>
        <time>2019-05-04T13:35:30Z</time>
      </trkpt>
      <trkpt lat="38.923783" lon="-6.070300">
        <ele>1090.0</ele>
        <time>2019-05-04T13:35:31Z</time>
      </trkpt>
      <trkpt lat="38.923733" lon="-6.070333">
        <ele>1091.0</ele>
        <time>2019-05-04T13:35:32Z</time>
      </trkpt>
      <trkpt lat="38.923650" lon="-6.070350">
        <ele>1093.0</ele>
        <time>2019-05-04T13:35:33Z</time>
      </trkpt>
      <trkpt lat="38.923583" lon="-6.070317">
        <ele>1095.0</ele>
        <time>2019-05-04T13:35:34Z</time>
      </trkpt>
      <trkpt lat="38.923517" lon="-6.070250">
        <ele>1097.0</ele>
        <time>2019-05-04T13:35:35Z</time>
      </trkpt>
      <trkpt lat="38.923450" lon="-6.070167">
        <ele>1099.0</ele>
        <time>2019-05-04T13:35:36Z</time>
      </trkpt>
      <trkpt lat="38.923400" lon="-6.070083">
        <ele>1101.0</ele>
        <time>2019-05-04T13:35:37Z</time>
      </trkpt>
      <trkpt lat="38.923367" lon="-6.069967">
        <ele>1104.0</ele>
        <time>2019-05-04T13:35:38Z</time>
      </trkpt>
      <trkpt lat="38.923333" lon="-6.069850">
        <ele>1106.0</ele>
        <time>2019-05-04T13:35:39Z</time>
      </trkpt>
      <trkpt lat="38.923300" lon="-6.069717">
        <ele>1108.0</ele>
        <time>2019-05-04T13:35:40Z</time>
      </trkpt>
      <trkpt lat="38.923300" lon="-6.069583">
        <ele>1111.0</ele>
        <time>2019-05-04T13:35:41Z</time>
      </trkpt>
      <trkpt lat="38.923333" lon="-6.069450">
        <ele>1113.0</ele>
        <time>2019-05-04T13:35:42Z</time>
      </trkpt>
      <trkpt lat="38.923383" lon="-6.069333">
        <ele>1116.0</ele>
        <time>2019-05-04T13:35:43Z</time>
      </trkpt>
      <trkpt lat="38.923467" lon="-6.069233">
        <ele>1117.0</ele>
        <time>2019-05-04T13:35:44Z</time>
      </trkpt>
      <trkpt lat="38.923550" lon="-6.069150">
        <ele>1118.0</ele>
        <time>2019-05-04T13:35:45Z</time>
      </trkpt>
      <trkpt lat="38.923633" lon="-6.069083">
        <ele>1119.0</ele>
        <time>2019-05-04T13:35:46Z</time>
      </trkpt>
      <trkpt lat="38.923733" lon="-6.069050">
        <ele>1121.0</ele>
        <time>2019-05-04T13:35:47Z</time>
      </trkpt>
      <trkpt lat="38.923833" lon="-6.069050">
        <ele>1121.0</ele>
        <time>2019-05-04T13:35:48Z</time>
      </trkpt>
      <trkpt lat="38.923933" lon="-6.069083">
        <ele>1121.0</ele>
        <time>2019-05-04T13:35:49Z</time>
      </trkpt>
      <trkpt lat="38.924000" lon="-6.069133">
        <ele>1121.0</ele>
        <time>2019-05-04T13:35:50Z</time>
      </trkpt>
      <trkpt lat="38.924033" lon="-6.069217">
        <ele>1121.0</ele>
        <time>2019-05-04T13:35:51Z</time>
      </trkpt>
      <trkpt lat="38.924067" lon="-6.069300">
        <ele>1122.0</ele>
        <time>2019-05-04T13:35:52Z</time>
      </trkpt>
      <trkpt lat="38.924067" lon="-6.069383">
        <ele>1124.0</ele>
        <time>2019-05-04T13:35:53Z</time>
      </trkpt>
      <trkpt lat="38.924067" lon="-6.069450">
        <ele>1125.0</ele>
        <time>2019-05-04T13:35:54Z</time>
      </trkpt>
      <trkpt lat="38.924050" lon="-6.069500">
        <ele>1126.0</ele>
        <time>2019-05-04T13:35:55Z</time>
      </trkpt>
      <trkpt lat="38.924033" lon="-6.069567">
        <ele>1127.0</ele>
        <time>2019-05-04T13:35:56Z</time>
      </trkpt>
      <trkpt lat="38.924000" lon="-6.069617">
        <ele>1128.0</ele>
        <time>2019-05-04T13:35:57Z</time>
      </trkpt>
      <trkpt lat="38.923967" lon="-6.069667">
        <ele>1129.0</ele>
        <time>2019-05-04T13:35:58Z</time>
      </trkpt>
      <trkpt lat="38.923917" lon="-6.069700">
        <ele>1130.0</ele>
        <time>2019-05-04T13:35:59Z</time>
      </trkpt>
      <trkpt lat="38.923883" lon="-6.069733">
        <ele>1131.0</ele>
        <time>2019-05-04T13:36:00Z</time>
      </trkpt>
      <trkpt lat="38.923833" lon="-6.069767">
        <ele>1132.0</ele>
        <time>2019-05-04T13:36:01Z</time>
      </trkpt>
      <trkpt lat="38.923800" lon="-6.069783">
        <ele>1133.0</ele>
        <time>2019-05-04T13:36:02Z</time>
      </trkpt>
      <trkpt lat="38.923750" lon="-6.069800">
        <ele>1134.0</ele>
        <time>2019-05-04T13:36:03Z</time>
      </trkpt>
      <trkpt lat="38.923683" lon="-6.069833">
        <ele>1136.0</ele>
        <time>2019-05-04T13:36:04Z</time>
      </trkpt>
      <trkpt lat="38.923633" lon="-6.069833">
        <ele>1138.0</ele>
        <time>2019-05-04T13:36:05Z</time>
      </trkpt>
      <trkpt lat="38.923583" lon="-6.069833">
        <ele>1141.0</ele>
        <time>2019-05-04T13:36:06Z</time>
      </trkpt>
      <trkpt lat="38.923550" lon="-6.069817">
        <ele>1143.0</ele>
        <time>2019-05-04T13:36:07Z</time>
      </trkpt>
      <trkpt lat="38.923483" lon="-6.069817">
        <ele>1144.0</ele>
        <time>2019-05-04T13:36:08Z</time>
      </trkpt>
      <trkpt lat="38.923417" lon="-6.069833">
        <ele>1142.0</ele>
        <time>2019-05-04T13:36:09Z</time>
      </trkpt>
      <trkpt lat="38.923317" lon="-6.069833">
        <ele>1141.0</ele>
        <time>2019-05-04T13:36:10Z</time>
      </trkpt>
      <trkpt lat="38.923233" lon="-6.069817">
        <ele>1140.0</ele>
        <time>2019-05-04T13:36:11Z</time>
      </trkpt>
      <trkpt lat="38.923167" lon="-6.069800">
        <ele>1140.0</ele>
        <time>2019-05-04T13:36:12Z</time>
      </trkpt>
      <trkpt lat="38.923083" lon="-6.069767">
        <ele>1141.0</ele>
        <time>2019-05-04T13:36:13Z</time>
      </trkpt>
      <trkpt lat="38.923017" lon="-6.069733">
        <ele>1141.0</ele>
        <time>2019-05-04T13:36:14Z</time>
      </trkpt>
      <trkpt lat="38.922950" lon="-6.069683">
        <ele>1142.0</ele>
        <time>2019-05-04T13:36:15Z</time>
      </trkpt>
      <trkpt lat="38.922883" lon="-6.069650">
        <ele>1144.0</ele>
        <time>2019-05-04T13:36:16Z</time>
      </trkpt>
      <trkpt lat="38.922817" lon="-6.069617">
        <ele>1146.0</ele>
        <time>2019-05-04T13:36:17Z</time>
      </trkpt>
      <trkpt lat="38.922767" lon="-6.069600">
        <ele>1148.0</ele>
        <time>2019-05-04T13:36:18Z</time>
      </trkpt>
      <trkpt lat="38.922700" lon="-6.069567">
        <ele>1149.0</ele>
        <time>2019-05-04T13:36:19Z</time>
      </trkpt>
      <trkpt lat="38.922633" lon="-6.069533">
        <ele>1151.0</ele>
        <time>2019-05-04T13:36:20Z</time>
      </trkpt>
      <trkpt lat="38.922567" lon="-6.069500">
        <ele>1152.0</ele>
        <time>2019-05-04T13:36:21Z</time>
      </trkpt>
      <trkpt lat="38.922483" lon="-6.069450">
        <ele>1153.0</ele>
        <time>2019-05-04T13:36:22Z</time>
      </trkpt>
      <trkpt lat="38.922383" lon="-6.069417">
        <ele>1154.0</ele>
        <time>2019-05-04T13:36:23Z</time>
      </trkpt>
      <trkpt lat="38.922300" lon="-6.069350">
        <ele>1155.0</ele>
        <time>2019-05-04T13:36:24Z</time>
      </trkpt>
      <trkpt lat="38.922217" lon="-6.069267">
        <ele>1154.0</ele>
        <time>2019-05-04T13:36:25Z</time>
      </trkpt>
      <trkpt lat="38.922150" lon="-6.069133">
        <ele>1154.0</ele>
        <time>2019-05-04T13:36:26Z</time>
      </trkpt>
      <trkpt lat="38.922083" lon="-6.069000">
        <ele>1154.0</ele>
        <time>2019-05-04T13:36:27Z</time>
      </trkpt>
      <trkpt lat="38.922033" lon="-6.068833">
        <ele>1153.0</ele>
        <time>2019-05-04T13:36:28Z</time>
      </trkpt>
      <trkpt lat="38.922017" lon="-6.068667">
        <ele>1153.0</ele>
        <time>2019-05-04T13:36:29Z</time>
      </trkpt>
      <trkpt lat="38.922017" lon="-6.068500">
        <ele>1154.0</ele>
        <time>2019-05-04T13:36:30Z</time>
      </trkpt>
      <trkpt lat="38.922050" lon="-6.068350">
        <ele>1155.0</ele>
        <time>2019-05-04T13:36:31Z</time>
      </trkpt>
      <trkpt lat="38.922117" lon="-6.068233">
        <ele>1157.0</ele>
        <time>2019-05-04T13:36:32Z</time>
      </trkpt>
      <trkpt lat="38.922183" lon="-6.068133">
        <ele>1160.0</ele>
        <time>2019-05-04T13:36:33Z</time>
      </trkpt>
      <trkpt lat="38.922267" lon="-6.068050">
        <ele>1163.0</ele>
        <time>2019-05-04T13:36:34Z</time>
      </trkpt>
      <trkpt lat="38.922333" lon="-6.067983">
        <ele>1165.0</ele>
        <time>2019-05-04T13:36:35Z</time>
      </trkpt>
      <trkpt lat="38.922417" lon="-6.067933">
        <ele>1166.0</ele>
        <time>2019-05-04T13:36:36Z</time>
      </trkpt>
      <trkpt lat="38.922517" lon="-6.067900">
        <ele>1167.0</ele>
        <time>2019-05-04T13:36:37Z</time>
      </trkpt>
      <trkpt lat="38.922617" lon="-6.067900">
        <ele>1168.0</ele>
        <time>2019-05-04T13:36:38Z</time>
      </trkpt>
      <trkpt lat="38.922700" lon="-6.067917">
        <ele>1169.0</ele>
        <time>2019-05-04T13:36:39Z</time>
      </trkpt>
      <trkpt lat="38.922767" lon="-6.067967">
        <ele>1170.0</ele>
        <time>2019-05-04T13:36:40Z</time>
      </trkpt>
      <trkpt lat="38.922783" lon="-6.068033">
        <ele>1172.0</ele>
        <time>2019-05-04T13:36:41Z</time>
      </trkpt>
      <trkpt lat="38.922767" lon="-6.068083">
        <ele>1174.0</ele>
        <time>2019-05-04T13:36:42Z</time>
      </trkpt>
      <trkpt lat="38.922750" lon="-6.068133">
        <ele>1175.0</ele>
        <time>2019-05-04T13:36:43Z</time>
      </trkpt>
      <trkpt lat="38.922717" lon="-6.068167">
        <ele>1176.0</ele>
        <time>2019-05-04T13:36:44Z</time>
      </trkpt>
      <trkpt lat="38.922683" lon="-6.068217">
        <ele>1177.0</ele>
        <time>2019-05-04T13:36:45Z</time>
      </trkpt>
      <trkpt lat="38.922633" lon="-6.068233">
        <ele>1178.0</ele>
        <time>2019-05-04T13:36:46Z</time>
      </trkpt>
      <trkpt lat="38.922567" lon="-6.068217">
        <ele>1180.0</ele>
        <time>2019-05-04T13:36:47Z</time>
      </trkpt>
      <trkpt lat="38.922500" lon="-6.068183">
        <ele>1182.0</ele>
        <time>2019-05-04T13:36:48Z</time>
      </trkpt>
      <trkpt lat="38.922433" lon="-6.068117">
        <ele>1184.0</ele>
        <time>2019-05-04T13:36:49Z</time>
      </trkpt>
      <trkpt lat="38.922383" lon="-6.068017">
        <ele>1185.0</ele>
        <time>2019-05-04T13:36:50Z</time>
      </trkpt>
      <trkpt lat="38.922317" lon="-6.067900">
        <ele>1186.0</ele>
        <time>2019-05-04T13:36:51Z</time>
      </trkpt>
      <trkpt lat="38.922267" lon="-6.067783">
        <ele>1188.0</ele>
        <time>2019-05-04T13:36:52Z</time>
      </trkpt>
      <trkpt lat="38.922233" lon="-6.067633">
        <ele>1189.0</ele>
        <time>2019-05-04T13:36:53Z</time>
      </trkpt>
      <trkpt lat="38.922217" lon="-6.067467">
        <ele>1191.0</ele>
        <time>2019-05-04T13:36:54Z</time>
      </trkpt>
      <trkpt lat="38.922233" lon="-6.067317">
        <ele>1193.0</ele>
        <time>2019-05-04T13:36:55Z</time>
      </trkpt>
      <trkpt lat="38.922250" lon="-6.067167">
        <ele>1194.0</ele>
        <time>2019-05-04T13:36:56Z</time>
      </trkpt>
      <trkpt lat="38.922300" lon="-6.067017">
        <ele>1196.0</ele>
        <time>2019-05-04T13:36:57Z</time>
      </trkpt>
      <trkpt lat="38.922367" lon="-6.066900">
        <ele>1198.0</ele>
        <time>2019-05-04T13:36:58Z</time>
      </trkpt>
      <trkpt lat="38.922467" lon="-6.066783">
        <ele>1199.0</ele>
        <time>2019-05-04T13:36:59Z</time>
      </trkpt>
      <trkpt lat="38.922550" lon="-6.066700">
        <ele>1201.0</ele>
        <time>2019-05-04T13:37:00Z</time>
      </trkpt>
      <trkpt lat="38.922650" lon="-6.066633">
        <ele>1203.0</ele>
        <time>2019-05-04T13:37:01Z</time>
      </trkpt>
      <trkpt lat="38.922750" lon="-6.066583">
        <ele>1204.0</ele>
        <time>2019-05-04T13:37:02Z</time>
      </trkpt>
      <trkpt lat="38.922850" lon="-6.066550">
        <ele>1206.0</ele>
        <time>2019-05-04T13:37:03Z</time>
      </trkpt>
      <trkpt lat="38.922933" lon="-6.066550">
        <ele>1206.0</ele>
        <time>2019-05-04T13:37:04Z</time>
      </trkpt>
      <trkpt lat="38.923033" lon="-6.066583">
        <ele>1206.0</ele>
        <time>2019-05-04T13:37:05Z</time>
      </trkpt>
      <trkpt lat="38.923100" lon="-6.066617">
        <ele>1206.0</ele>
        <time>2019-05-04T13:37:06Z</time>
      </trkpt>
      <trkpt lat="38.923150" lon="-6.066683">
        <ele>1206.0</ele>
        <time>2019-05-04T13:37:07Z</time>
      </trkpt>
      <trkpt lat="38.923167" lon="-6.066750">
        <ele>1206.0</ele>
        <time>2019-05-04T13:37:08Z</time>
      </trkpt>
      <trkpt lat="38.923167" lon="-6.066817">
        <ele>1207.0</ele>
        <time>2019-05-04T13:37:09Z</time>
      </trkpt>
      <trkpt lat="38.923133" lon="-6.066867">
        <ele>1207.0</ele>
        <time>2019-05-04T13:37:10Z</time>
      </trkpt>
      <trkpt lat="38.923100" lon="-6.066900">
        <ele>1207.0</ele>
        <time>2019-05-04T13:37:11Z</time>
      </trkpt>
      <trkpt lat="38.923050" lon="-6.066933">
        <ele>1207.0</ele>
        <time>2019-05-04T13:37:12Z</time>
      </trkpt>
      <trkpt lat="38.923000" lon="-6.066950">
        <ele>1206.0</ele>
        <time>2019-05-04T13:37:13Z</time>
      </trkpt>
      <trkpt lat="38.922917" lon="-6.066967">
        <ele>1206.0</ele>
        <time>2019-05-04T13:37:14Z</time>
      </trkpt>
      <trkpt lat="38.922850" lon="-6.066967">
        <ele>1205.0</ele>
        <time>2019-05-04T13:37:15Z</time>
      </trkpt>
      <trkpt lat="38.922767" lon="-6.066933">
        <ele>1206.0</ele>
        <time>2019-05-04T13:37:16Z</time>
      </trkpt>
      <trkpt lat="38.922700" lon="-6.066917">
        <ele>1206.0</ele>
        <time>2019-05-04T13:37:17Z</time>
      </trkpt>
      <trkpt lat="38.922617" lon="-6.066883">
        <ele>1207.0</ele>
        <time>2019-05-04T13:37:18Z</time>
      </trkpt>
      <trkpt lat="38.922550" lon="-6.066850">
        <ele>1208.0</ele>
        <time>2019-05-04T13:37:19Z</time>
      </trkpt>
      <trkpt lat="38.922483" lon="-6.066817">
        <ele>1208.0</ele>
        <time>2019-05-04T13:37:20Z</time>
      </trkpt>
      <trkpt lat="38.922400" lon="-6.066800">
        <ele>1209.0</ele>
        <time>2019-05-04T13:37:21Z</time>
      </trkpt>
      <trkpt lat="38.922333" lon="-6.066783">
        <ele>1210.0</ele>
        <time>2019-05-04T13:37:22Z</time>
      </trkpt>
      <trkpt lat="38.922267" lon="-6.066767">
        <ele>1213.0</ele>
        <time>2019-05-04T13:37:23Z</time>
      </trkpt>
      <trkpt lat="38.922200" lon="-6.066733">
        <ele>1215.0</ele>
        <time>2019-05-04T13:37:24Z</time>
      </trkpt>
      <trkpt lat="38.922133" lon="-6.066700">
        <ele>1217.0</ele>
        <time>2019-05-04T13:37:25Z</time>
      </trkpt>
      <trkpt lat="38.922083" lon="-6.066667">
        <ele>1219.0</ele>
        <time>2019-05-04T13:37:26Z</time>
      </trkpt>
      <trkpt lat="38.922033" lon="-6.066650">
        <ele>1221.0</ele>
        <time>2019-05-04T13:37:27Z</time>
      </trkpt>
      <trkpt lat="38.921967" lon="-6.066600">
        <ele>1222.0</ele>
        <time>2019-05-04T13:37:28Z</time>
      </trkpt>
      <trkpt lat="38.921900" lon="-6.066567">
        <ele>1221.0</ele>
        <time>2019-05-04T13:37:29Z</time>
      </trkpt>
      <trkpt lat="38.921833" lon="-6.066567">
        <ele>1221.0</ele>
        <time>2019-05-04T13:37:30Z</time>
      </trkpt>
      <trkpt lat="38.921783" lon="-6.066583">
        <ele>1222.0</ele>
        <time>2019-05-04T13:37:31Z</time>
      </trkpt>
      <trkpt lat="38.921750" lon="-6.066617">
        <ele>1223.0</ele>
        <time>2019-05-04T13:37:32Z</time>
      </trkpt>
      <trkpt lat="38.921700" lon="-6.066650">
        <ele>1224.0</ele>
        <time>2019-05-04T13:37:33Z</time>
      </trkpt>
      <trkpt lat="38.921650" lon="-6.066683">
        <ele>1225.0</ele>
        <time>2019-05-04T13:37:34Z</time>
      </trkpt>
      <trkpt lat="38.921617" lon="-6.066700">
        <ele>1227.0</ele>
        <time>2019-05-04T13:37:35Z</time>
      </trkpt>
      <trkpt lat="38.921567" lon="-6.066717">
        <ele>1229.0</ele>
        <time>2019-05-04T13:37:36Z</time>
      </trkpt>
      <trkpt lat="38.921517" lon="-6.066750">
        <ele>1229.0</ele>
        <time>2019-05-04T13:37:37Z</time>
      </trkpt>
      <trkpt lat="38.921467" lon="-6.066800">
        <ele>1228.0</ele>
        <time>2019-05-04T13:37:38Z</time>
      </trkpt>
      <trkpt lat="38.921433" lon="-6.066850">
        <ele>1228.0</ele>
        <time>2019-05-04T13:37:39Z</time>
      </trkpt>
      <trkpt lat="38.921383" lon="-6.066900">
        <ele>1228.0</ele>
        <time>2019-05-04T13:37:40Z</time>
      </trkpt>
      <trkpt lat="38.921333" lon="-6.066950">
        <ele>1230.0</ele>
        <time>2019-05-04T13:37:41Z</time>
      </trkpt>
      <trkpt lat="38.921283" lon="-6.066983">
        <ele>1231.0</ele>
        <time>2019-05-04T13:37:42Z</time>
      </trkpt>
      <trkpt lat="38.921233" lon="-6.067000">
        <ele>1231.0</ele>
        <time>2019-05-04T13:37:43Z</time>
      </trkpt>
      <trkpt lat="38.921167" lon="-6.067033">
        <ele>1230.0</ele>
        <time>2019-05-04T13:37:44Z</time>
      </trkpt>
      <trkpt lat="38.921083" lon="-6.067050">
        <ele>1229.0</ele>
        <time>2019-05-04T13:37:45Z</time>
      </trkpt>
      <trkpt lat="38.921000" lon="-6.067050">
        <ele>1229.0</ele>
        <time>2019-05-04T13:37:46Z</time>
      </trkpt>
      <trkpt lat="38.920917" lon="-6.067017">
        <ele>1230.0</ele>
        <time>2019-05-04T13:37:47Z</time>
      </trkpt>
      <trkpt lat="38.920833" lon="-6.066933">
        <ele>1230.0</ele>
        <time>2019-05-04T13:37:48Z</time>
      </trkpt>
      <trkpt lat="38.920767" lon="-6.066850">
        <ele>1231.0</ele>
        <time>2019-05-04T13:37:49Z</time>
      </trkpt>
      <trkpt lat="38.920700" lon="-6.066733">
        <ele>1233.0</ele>
        <time>2019-05-04T13:37:50Z</time>
      </trkpt>
      <trkpt lat="38.920650" lon="-6.066650">
        <ele>1234.0</ele>
        <time>2019-05-04T13:37:51Z</time>
      </trkpt>
      <trkpt lat="38.920583" lon="-6.066567">
        <ele>1236.0</ele>
        <time>2019-05-04T13:37:52Z</time>
      </trkpt>
      <trkpt lat="38.920517" lon="-6.066500">
        <ele>1238.0</ele>
        <time>2019-05-04T13:37:53Z</time>
      </trkpt>
      <trkpt lat="38.920433" lon="-6.066450">
        <ele>1239.0</ele>
        <time>2019-05-04T13:37:54Z</time>
      </trkpt>
      <trkpt lat="38.920350" lon="-6.066433">
        <ele>1240.0</ele>
        <time>2019-05-04T13:37:55Z</time>
      </trkpt>
      <trkpt lat="38.920267" lon="-6.066467">
        <ele>1241.0</ele>
        <time>2019-05-04T13:37:56Z</time>
      </trkpt>
      <trkpt lat="38.920200" lon="-6.066533">
        <ele>1241.0</ele>
        <time>2019-05-04T13:37:57Z</time>
      </trkpt>
      <trkpt lat="38.920167" lon="-6.066617">
        <ele>1240.0</ele>
        <time>2019-05-04T13:37:58Z</time>
      </trkpt>
      <trkpt lat="38.920167" lon="-6.066717">
        <ele>1240.0</ele>
        <time>2019-05-04T13:37:59Z</time>
      </trkpt>
      <trkpt lat="38.920183" lon="-6.066800">
        <ele>1241.0</ele>
        <time>2019-05-04T13:38:00Z</time>
      </trkpt>
      <trkpt lat="38.920250" lon="-6.066867">
        <ele>1242.0</ele>
        <time>2019-05-04T13:38:01Z</time>
      </trkpt>
      <trkpt lat="38.920317" lon="-6.066900">
        <ele>1244.0</ele>
        <time>2019-05-04T13:38:02Z</time>
      </trkpt>
      <trkpt lat="38.920383" lon="-6.066900">
        <ele>1246.0</ele>
        <time>2019-05-04T13:38:03Z</time>
      </trkpt>
      <trkpt lat="38.920450" lon="-6.066883">
        <ele>1248.0</ele>
        <time>2019-05-04T13:38:04Z</time>
      </trkpt>
      <trkpt lat="38.920533" lon="-6.066833">
        <ele>1250.0</ele>
        <time>2019-05-04T13:38:05Z</time>
      </trkpt>
      <trkpt lat="38.920600" lon="-6.066783">
        <ele>1248.0</ele>
        <time>2019-05-04T13:38:06Z</time>
      </trkpt>
      <trkpt lat="38.920683" lon="-6.066717">
        <ele>1248.0</ele>
        <time>2019-05-04T13:38:07Z</time>
      </trkpt>
      <trkpt lat="38.920733" lon="-6.066633">
        <ele>1248.0</ele>
        <time>2019-05-04T13:38:08Z</time>
      </trkpt>
      <trkpt lat="38.920767" lon="-6.066500">
        <ele>1248.0</ele>
        <time>2019-05-04T13:38:09Z</time>
      </trkpt>
      <trkpt lat="38.920767" lon="-6.066367">
        <ele>1248.0</ele>
        <time>2019-05-04T13:38:10Z</time>
      </trkpt>
      <trkpt lat="38.920767" lon="-6.066250">
        <ele>1248.0</ele>
        <time>2019-05-04T13:38:11Z</time>
      </trkpt>
      <trkpt lat="38.920750" lon="-6.066117">
        <ele>1249.0</ele>
        <time>2019-05-04T13:38:12Z</time>
      </trkpt>
      <trkpt lat="38.920717" lon="-6.065983">
        <ele>1249.0</ele>
        <time>2019-05-04T13:38:13Z</time>
      </trkpt>
      <trkpt lat="38.920650" lon="-6.065867">
        <ele>1251.0</ele>
        <time>2019-05-04T13:38:14Z</time>
      </trkpt>
      <trkpt lat="38.920583" lon="-6.065783">
        <ele>1252.0</ele>
        <time>2019-05-04T13:38:15Z</time>
      </trkpt>
      <trkpt lat="38.920500" lon="-6.065750">
        <ele>1254.0</ele>
        <time>2019-05-04T13:38:16Z</time>
      </trkpt>
      <trkpt lat="38.920417" lon="-6.065733">
        <ele>1257.0</ele>
        <time>2019-05-04T13:38:17Z</time>
      </trkpt>
      <trkpt lat="38.920350" lon="-6.065717">
        <ele>1259.0</ele>
        <time>2019-05-04T13:38:18Z</time>
      </trkpt>
      <trkpt lat="38.920283" lon="-6.065733">
        <ele>1260.0</ele>
        <time>2019-05-04T13:38:19Z</time>
      </trkpt>
      <trkpt lat="38.920233" lon="-6.065783">
        <ele>1258.0</ele>
        <time>2019-05-04T13:38:20Z</time>
      </trkpt>
      <trkpt lat="38.920183" lon="-6.065850">
        <ele>1258.0</ele>
        <time>2019-05-04T13:38:21Z</time>
      </trkpt>
      <trkpt lat="38.920133" lon="-6.065917">
        <ele>1257.0</ele>
        <time>2019-05-04T13:38:22Z</time>
      </trkpt>
      <trkpt lat="38.920117" lon="-6.066000">
        <ele>1256.0</ele>
        <time>2019-05-04T13:38:23Z</time>
      </trkpt>
      <trkpt lat="38.920133" lon="-6.066100">
        <ele>1256.0</ele>
        <time>2019-05-04T13:38:24Z</time>
      </trkpt>
      <trkpt lat="38.920150" lon="-6.066183">
        <ele>1256.0</ele>
        <time>2019-05-04T13:38:25Z</time>
      </trkpt>
      <trkpt lat="38.920183" lon="-6.066250">
        <ele>1257.0</ele>
        <time>2019-05-04T13:38:26Z</time>
      </trkpt>
      <trkpt lat="38.920200" lon="-6.066333">
        <ele>1258.0</ele>
        <time>2019-05-04T13:38:27Z</time>
      </trkpt>
      <trkpt lat="38.920233" lon="-6.066417">
        <ele>1260.0</ele>
        <time>2019-05-04T13:38:28Z</time>
      </trkpt>
      <trkpt lat="38.920267" lon="-6.066500">
        <ele>1262.0</ele>
        <time>2019-05-04T13:38:29Z</time>
      </trkpt>
      <trkpt lat="38.920300" lon="-6.066567">
        <ele>1264.0</ele>
        <time>2019-05-04T13:38:30Z</time>
      </trkpt>
      <trkpt lat="38.920350" lon="-6.066617">
        <ele>1266.0</ele>
        <time>2019-05-04T13:38:31Z</time>
      </trkpt>
      <trkpt lat="38.920400" lon="-6.066667">
        <ele>1268.0</ele>
        <time>2019-05-04T13:38:32Z</time>
      </trkpt>
      <trkpt lat="38.920450" lon="-6.066717">
        <ele>1270.0</ele>
        <time>2019-05-04T13:38:33Z</time>
      </trkpt>
      <trkpt lat="38.920500" lon="-6.066767">
        <ele>1271.0</ele>
        <time>2019-05-04T13:38:34Z</time>
      </trkpt>
      <trkpt lat="38.920567" lon="-6.066800">
        <ele>1273.0</ele>
        <time>2019-05-04T13:38:35Z</time>
      </trkpt>
      <trkpt lat="38.920633" lon="-6.066800">
        <ele>1274.0</ele>
        <time>2019-05-04T13:38:36Z</time>
      </trkpt>
      <trkpt lat="38.920717" lon="-6.066767">
        <ele>1274.0</ele>
        <time>2019-05-04T13:38:37Z</time>
      </trkpt>
      <trkpt lat="38.920783" lon="-6.066717">
        <ele>1275.0</ele>
        <time>2019-05-04T13:38:38Z</time>
      </trkpt>
      <trkpt lat="38.920850" lon="-6.066617">
        <ele>1276.0</ele>
        <time>2019-05-04T13:38:39Z</time>
      </trkpt>
      <trkpt lat="38.920900" lon="-6.066500">
        <ele>1276.0</ele>
        <time>2019-05-04T13:38:40Z</time>
      </trkpt>
      <trkpt lat="38.920917" lon="-6.066383">
        <ele>1276.0</ele>
        <time>2019-05-04T13:38:41Z</time>
      </trkpt>
      <trkpt lat="38.920900" lon="-6.066250">
        <ele>1277.0</ele>
        <time>2019-05-04T13:38:42Z</time>
      </trkpt>
      <trkpt lat="38.920867" lon="-6.066150">
        <ele>1278.0</ele>
        <time>2019-05-04T13:38:43Z</time>
      </trkpt>
      <trkpt lat="38.920800" lon="-6.066067">
        <ele>1278.0</ele>
        <time>2019-05-04T13:38:44Z</time>
      </trkpt>
      <trkpt lat="38.920733" lon="-6.066017">
        <ele>1278.0</ele>
        <time>2019-05-04T13:38:45Z</time>
      </trkpt>
      <trkpt lat="38.920650" lon="-6.065983">
        <ele>1279.0</ele>
        <time>2019-05-04T13:38:46Z</time>
      </trkpt>
      <trkpt lat="38.920567" lon="-6.065983">
        <ele>1280.0</ele>
        <time>2019-05-04T13:38:47Z</time>
      </trkpt>
      <trkpt lat="38.920500" lon="-6.066017">
        <ele>1282.0</ele>
        <time>2019-05-04T13:38:48Z</time>
      </trkpt>
      <trkpt lat="38.920450" lon="-6.066083">
        <ele>1282.0</ele>
        <time>2019-05-04T13:38:49Z</time>
      </trkpt>
      <trkpt lat="38.920417" lon="-6.066167">
        <ele>1284.0</ele>
        <time>2019-05-04T13:38:50Z</time>
      </trkpt>
      <trkpt lat="38.920433" lon="-6.066250">
        <ele>1286.0</ele>
        <time>2019-05-04T13:38:51Z</time>
      </trkpt>
      <trkpt lat="38.920450" lon="-6.066317">
        <ele>1287.0</ele>
        <time>2019-05-04T13:38:52Z</time>
      </trkpt>
      <trkpt lat="38.920500" lon="-6.066367">
        <ele>1288.0</ele>
        <time>2019-05-04T13:38:53Z</time>
      </trkpt>
      <trkpt lat="38.920550" lon="-6.066400">
        <ele>1289.0</ele>
        <time>2019-05-04T13:38:54Z</time>
      </trkpt>
      <trkpt lat="38.920633" lon="-6.066417">
        <ele>1289.0</ele>
        <time>2019-05-04T13:38:55Z</time>
      </trkpt>
      <trkpt lat="38.920700" lon="-6.066417">
        <ele>1289.0</ele>
        <time>2019-05-04T13:38:56Z</time>
      </trkpt>
      <trkpt lat="38.920783" lon="-6.066367">
        <ele>1290.0</ele>
        <time>2019-05-04T13:38:57Z</time>
      </trkpt>
      <trkpt lat="38.920867" lon="-6.066300">
        <ele>1290.0</ele>
        <time>2019-05-04T13:38:58Z</time>
      </trkpt>
      <trkpt lat="38.920917" lon="-6.066200">
        <ele>1290.0</ele>
        <time>2019-05-04T13:38:59Z</time>
      </trkpt>
      <trkpt lat="38.920950" lon="-6.066067">
        <ele>1289.0</ele>
        <time>2019-05-04T13:39:00Z</time>
      </trkpt>
      <trkpt lat="38.920950" lon="-6.065933">
        <ele>1289.0</ele>
        <time>2019-05-04T13:39:01Z</time>
      </trkpt>
      <trkpt lat="38.920917" lon="-6.065817">
        <ele>1289.0</ele>
        <time>2019-05-04T13:39:02Z</time>
      </trkpt>
      <trkpt lat="38.920850" lon="-6.065717">
        <ele>1289.0</ele>
        <time>2019-05-04T13:39:03Z</time>
      </trkpt>
      <trkpt lat="38.920783" lon="-6.065650">
        <ele>1288.0</ele>
        <time>2019-05-04T13:39:04Z</time>
      </trkpt>
      <trkpt lat="38.920700" lon="-6.065600">
        <ele>1290.0</ele>
        <time>2019-05-04T13:39:05Z</time>
      </trkpt>
      <trkpt lat="38.920617" lon="-6.065567">
        <ele>1291.0</ele>
        <time>2019-05-04T13:39:06Z</time>
      </trkpt>
      <trkpt lat="38.920550" lon="-6.065550">
        <ele>1292.0</ele>
        <time>2019-05-04T13:39:07Z</time>
      </trkpt>
      <trkpt lat="38.920467" lon="-6.065550">
        <ele>1293.0</ele>
        <time>2019-05-04T13:39:08Z</time>
      </trkpt>
      <trkpt lat="38.920400" lon="-6.065533">
        <ele>1294.0</ele>
        <time>2019-05-04T13:39:09Z</time>
      </trkpt>
      <trkpt lat="38.920317" lon="-6.065517">
        <ele>1295.0</ele>
        <time>2019-05-04T13:39:10Z</time>
      </trkpt>
      <trkpt lat="38.920233" lon="-6.065517">
        <ele>1296.0</ele>
        <time>2019-05-04T13:39:11Z</time>
      </trkpt>
      <trkpt lat="38.920167" lon="-6.065533">
        <ele>1297.0</ele>
        <time>2019-05-04T13:39:12Z</time>
      </trkpt>
      <trkpt lat="38.920083" lon="-6.065550">
        <ele>1298.0</ele>
        <time>2019-05-04T13:39:13Z</time>
      </trkpt>
      <trkpt lat="38.920017" lon="-6.065600">
        <ele>1299.0</ele>
        <time>2019-05-04T13:39:14Z</time>
      </trkpt>
      <trkpt lat="38.919967" lon="-6.065633">
        <ele>1300.0</ele>
        <time>2019-05-04T13:39:15Z</time>
      </trkpt>
      <trkpt lat="38.919900" lon="-6.065683">
        <ele>1300.0</ele>
        <time>2019-05-04T13:39:16Z</time>
      </trkpt>
      <trkpt lat="38.919850" lon="-6.065717">
        <ele>1301.0</ele>
        <time>2019-05-04T13:39:17Z</time>
      </trkpt>
      <trkpt lat="38.919800" lon="-6.065767">
        <ele>1302.0</ele>
        <time>2019-05-04T13:39:18Z</time>
      </trkpt>
      <trkpt lat="38.919750" lon="-6.065833">
        <ele>1303.0</ele>
        <time>2019-05-04T13:39:19Z</time>
      </trkpt>
      <trkpt lat="38.919717" lon="-6.065900">
        <ele>1304.0</ele>
        <time>2019-05-04T13:39:20Z</time>
      </trkpt>
      <trkpt lat="38.919683" lon="-6.065967">
        <ele>1305.0</ele>
        <time>2019-05-04T13:39:21Z</time>
      </trkpt>
      <trkpt lat="38.919633" lon="-6.066033">
        <ele>1306.0</ele>
        <time>2019-05-04T13:39:22Z</time>
      </trkpt>
      <trkpt lat="38.919600" lon="-6.066117">
        <ele>1308.0</ele>
        <time>2019-05-04T13:39:23Z</time>
      </trkpt>
      <trkpt lat="38.919567" lon="-6.066183">
        <ele>1310.0</ele>
        <time>2019-05-04T13:39:24Z</time>
      </trkpt>
      <trkpt lat="38.919533" lon="-6.066250">
        <ele>1313.0</ele>
        <time>2019-05-04T13:39:25Z</time>
      </trkpt>
      <trkpt lat="38.919517" lon="-6.066317">
        <ele>1315.0</ele>
        <time>2019-05-04T13:39:26Z</time>
      </trkpt>
      <trkpt lat="38.919483" lon="-6.066383">
        <ele>1316.0</ele>
        <time>2019-05-04T13:39:27Z</time>
      </trkpt>
      <trkpt lat="38.919467" lon="-6.066467">
        <ele>1317.0</ele>
        <time>2019-05-04T13:39:28Z</time>
      </trkpt>
      <trkpt lat="38.919450" lon="-6.066550">
        <ele>1319.0</ele>
        <time>2019-05-04T13:39:29Z</time>
      </trkpt>
      <trkpt lat="38.919467" lon="-6.066617">
        <ele>1320.0</ele>
        <time>2019-05-04T13:39:30Z</time>
      </trkpt>
      <trkpt lat="38.919517" lon="-6.066683">
        <ele>1322.0</ele>
        <time>2019-05-04T13:39:31Z</time>
      </trkpt>
      <trkpt lat="38.919567" lon="-6.066717">
        <ele>1323.0</ele>
        <time>2019-05-04T13:39:32Z</time>
      </trkpt>
      <trkpt lat="38.919650" lon="-6.066733">
        <ele>1324.0</ele>
        <time>2019-05-04T13:39:33Z</time>
      </trkpt>
      <trkpt lat="38.919733" lon="-6.066733">
        <ele>1325.0</ele>
        <time>2019-05-04T13:39:34Z</time>
      </trkpt>
      <trkpt lat="38.919800" lon="-6.066683">
        <ele>1327.0</ele>
        <time>2019-05-04T13:39:35Z</time>
      </trkpt>
      <trkpt lat="38.919867" lon="-6.066617">
        <ele>1328.0</ele>
        <time>2019-05-04T13:39:36Z</time>
      </trkpt>
      <trkpt lat="38.919917" lon="-6.066533">
        <ele>1329.0</ele>
        <time>2019-05-04T13:39:37Z</time>
      </trkpt>
      <trkpt lat="38.919950" lon="-6.066417">
        <ele>1330.0</ele>
        <time>2019-05-04T13:39:38Z</time>
      </trkpt>
      <trkpt lat="38.919983" lon="-6.066267">
        <ele>1331.0</ele>
        <time>2019-05-04T13:39:39Z</time>
      </trkpt>
      <trkpt lat="38.919967" lon="-6.066150">
        <ele>1332.0</ele>
        <time>2019-05-04T13:39:40Z</time>
      </trkpt>
      <trkpt lat="38.919933" lon="-6.066033">
        <ele>1333.0</ele>
        <time>2019-05-04T13:39:41Z</time>
      </trkpt>
      <trkpt lat="38.919900" lon="-6.065917">
        <ele>1334.0</ele>
        <time>2019-05-04T13:39:42Z</time>
      </trkpt>
      <trkpt lat="38.919833" lon="-6.065833">
        <ele>1334.0</ele>
        <time>2019-05-04T13:39:43Z</time>
      </trkpt>
      <trkpt lat="38.919767" lon="-6.065750">
        <ele>1333.0</ele>
        <time>2019-05-04T13:39:44Z</time>
      </trkpt>
      <trkpt lat="38.919683" lon="-6.065700">
        <ele>1334.0</ele>
        <time>2019-05-04T13:39:45Z</time>
      </trkpt>
      <trkpt lat="38.919600" lon="-6.065683">
        <ele>1334.0</ele>
        <time>2019-05-04T13:39:46Z</time>
      </trkpt>
      <trkpt lat="38.919533" lon="-6.065700">
        <ele>1334.0</ele>
        <time>2019-05-04T13:39:47Z</time>
      </trkpt>
      <trkpt lat="38.919450" lon="-6.065717">
        <ele>1335.0</ele>
        <time>2019-05-04T13:39:48Z</time>
      </trkpt>
      <trkpt lat="38.919383" lon="-6.065767">
        <ele>1336.0</ele>
        <time>2019-05-04T13:39:49Z</time>
      </trkpt>
      <trkpt lat="38.919333" lon="-6.065817">
        <ele>1337.0</ele>
        <time>2019-05-04T13:39:50Z</time>
      </trkpt>
      <trkpt lat="38.919283" lon="-6.065883">
        <ele>1338.0</ele>
        <time>2019-05-04T13:39:51Z</time>
      </trkpt>
      <trkpt lat="38.919250" lon="-6.065967">
        <ele>1339.0</ele>
        <time>2019-05-04T13:39:52Z</time>
      </trkpt>
      <trkpt lat="38.919233" lon="-6.066067">
        <ele>1341.0</ele>
        <time>2019-05-04T13:39:53Z</time>
      </trkpt>
      <trkpt lat="38.919233" lon="-6.066150">
        <ele>1343.0</ele>
        <time>2019-05-04T13:39:54Z</time>
      </trkpt>
      <trkpt lat="38.919233" lon="-6.066233">
        <ele>1346.0</ele>
        <time>2019-05-04T13:39:55Z</time>
      </trkpt>
      <trkpt lat="38.919250" lon="-6.066300">
        <ele>1349.0</ele>
        <time>2019-05-04T13:39:56Z</time>
      </trkpt>
      <trkpt lat="38.919267" lon="-6.066367">
        <ele>1351.0</ele>
        <time>2019-05-04T13:39:57Z</time>
      </trkpt>
      <trkpt lat="38.919300" lon="-6.066450">
        <ele>1353.0</ele>
        <time>2019-05-04T13:39:58Z</time>
      </trkpt>
      <trkpt lat="38.919350" lon="-6.066517">
        <ele>1354.0</ele>
        <time>2019-05-04T13:39:59Z</time>
      </trkpt>
      <trkpt lat="38.919417" lon="-6.066567">
        <ele>1356.0</ele>
        <time>2019-05-04T13:40:00Z</time>
      </trkpt>
      <trkpt lat="38.919500" lon="-6.066567">
        <ele>1358.0</ele>
        <time>2019-05-04T13:40:01Z</time>
      </trkpt>
      <trkpt lat="38.919583" lon="-6.066533">
        <ele>1360.0</ele>
        <time>2019-05-04T13:40:02Z</time>
      </trkpt>
      <trkpt lat="38.919667" lon="-6.066467">
        <ele>1361.0</ele>
        <time>2019-05-04T13:40:03Z</time>
      </trkpt>
      <trkpt lat="38.919733" lon="-6.066383">
        <ele>1363.0</ele>
        <time>2019-05-04T13:40:04Z</time>
      </trkpt>
      <trkpt lat="38.919783" lon="-6.066283">
        <ele>1364.0</ele>
        <time>2019-05-04T13:40:05Z</time>
      </trkpt>
      <trkpt lat="38.919833" lon="-6.066183">
        <ele>1365.0</ele>
        <time>2019-05-04T13:40:06Z</time>
      </trkpt>
      <trkpt lat="38.919850" lon="-6.066050">
        <ele>1367.0</ele>
        <time>2019-05-04T13:40:07Z</time>
      </trkpt>
      <trkpt lat="38.919833" lon="-6.065933">
        <ele>1368.0</ele>
        <time>2019-05-04T13:40:08Z</time>
      </trkpt>
      <trkpt lat="38.919800" lon="-6.065817">
        <ele>1369.0</ele>
        <time>2019-05-04T13:40:09Z</time>
      </trkpt>
      <trkpt lat="38.919750" lon="-6.065717">
        <ele>1369.0</ele>
        <time>2019-05-04T13:40:10Z</time>
      </trkpt>
      <trkpt lat="38.919683" lon="-6.065633">
        <ele>1369.0</ele>
        <time>2019-05-04T13:40:11Z</time>
      </trkpt>
      <trkpt lat="38.919617" lon="-6.065567">
        <ele>1369.0</ele>
        <time>2019-05-04T13:40:12Z</time>
      </trkpt>
      <trkpt lat="38.919533" lon="-6.065533">
        <ele>1369.0</ele>
        <time>2019-05-04T13:40:13Z</time>
      </trkpt>
      <trkpt lat="38.919433" lon="-6.065550">
        <ele>1369.0</ele>
        <time>2019-05-04T13:40:14Z</time>
      </trkpt>
      <trkpt lat="38.919350" lon="-6.065567">
        <ele>1371.0</ele>
        <time>2019-05-04T13:40:15Z</time>
      </trkpt>
      <trkpt lat="38.919283" lon="-6.065600">
        <ele>1373.0</ele>
        <time>2019-05-04T13:40:16Z</time>
      </trkpt>
      <trkpt lat="38.919217" lon="-6.065633">
        <ele>1374.0</ele>
        <time>2019-05-04T13:40:17Z</time>
      </trkpt>
      <trkpt lat="38.919167" lon="-6.065667">
        <ele>1376.0</ele>
        <time>2019-05-04T13:40:18Z</time>
      </trkpt>
      <trkpt lat="38.919117" lon="-6.065733">
        <ele>1377.0</ele>
        <time>2019-05-04T13:40:19Z</time>
      </trkpt>
      <trkpt lat="38.919067" lon="-6.065800">
        <ele>1378.0</ele>
        <time>2019-05-04T13:40:20Z</time>
      </trkpt>
      <trkpt lat="38.919033" lon="-6.065900">
        <ele>1379.0</ele>
        <time>2019-05-04T13:40:21Z</time>
      </trkpt>
      <trkpt lat="38.919017" lon="-6.065983">
        <ele>1382.0</ele>
        <time>2019-05-04T13:40:22Z</time>
      </trkpt>
      <trkpt lat="38.919017" lon="-6.066083">
        <ele>1384.0</ele>
        <time>2019-05-04T13:40:23Z</time>
      </trkpt>
      <trkpt lat="38.919033" lon="-6.066183">
        <ele>1386.0</ele>
        <time>2019-05-04T13:40:24Z</time>
      </trkpt>
      <trkpt lat="38.919083" lon="-6.066267">
        <ele>1387.0</ele>
        <time>2019-05-04T13:40:25Z</time>
      </trkpt>
      <trkpt lat="38.919133" lon="-6.066333">
        <ele>1389.0</ele>
        <time>2019-05-04T13:40:26Z</time>
      </trkpt>
      <trkpt lat="38.919217" lon="-6.066383">
        <ele>1391.0</ele>
        <time>2019-05-04T13:40:27Z</time>
      </trkpt>
      <trkpt lat="38.919300" lon="-6.066383">
        <ele>1392.0</ele>
        <time>2019-05-04T13:40:28Z</time>
      </trkpt>
      <trkpt lat="38.919383" lon="-6.066333">
        <ele>1394.0</ele>
        <time>2019-05-04T13:40:29Z</time>
      </trkpt>
      <trkpt lat="38.919467" lon="-6.066250">
        <ele>1395.0</ele>
        <time>2019-05-04T13:40:30Z</time>
      </trkpt>
      <trkpt lat="38.919533" lon="-6.066150">
        <ele>1397.0</ele>
        <time>2019-05-04T13:40:31Z</time>
      </trkpt>
      <trkpt lat="38.919583" lon="-6.066050">
        <ele>1398.0</ele>
        <time>2019-05-04T13:40:32Z</time>
      </trkpt>
      <trkpt lat="38.919600" lon="-6.065950">
        <ele>1399.0</ele>
        <time>2019-05-04T13:40:33Z</time>
      </trkpt>
      <trkpt lat="38.919617" lon="-6.065833">
        <ele>1401.0</ele>
        <time>2019-05-04T13:40:34Z</time>
      </trkpt>
      <trkpt lat="38.919617" lon="-6.065700">
        <ele>1401.0</ele>
        <time>2019-05-04T13:40:35Z</time>
      </trkpt>
      <trkpt lat="38.919583" lon="-6.065567">
        <ele>1401.0</ele>
        <time>2019-05-04T13:40:36Z</time>
      </trkpt>
      <trkpt lat="38.919517" lon="-6.065467">
        <ele>1402.0</ele>
        <time>2019-05-04T13:40:37Z</time>
      </trkpt>
      <trkpt lat="38.919467" lon="-6.065383">
        <ele>1403.0</ele>
        <time>2019-05-04T13:40:38Z</time>
      </trkpt>
      <trkpt lat="38.919400" lon="-6.065300">
        <ele>1407.0</ele>
        <time>2019-05-04T13:40:39Z</time>
      </trkpt>
      <trkpt lat="38.919350" lon="-6.065250">
        <ele>1410.0</ele>
        <time>2019-05-04T13:40:40Z</time>
      </trkpt>
      <trkpt lat="38.919300" lon="-6.065200">
        <ele>1411.0</ele>
        <time>2019-05-04T13:40:41Z</time>
      </trkpt>
      <trkpt lat="38.919233" lon="-6.065150">
        <ele>1411.0</ele>
        <time>2019-05-04T13:40:42Z</time>
      </trkpt>
      <trkpt lat="38.919167" lon="-6.065117">
        <ele>1411.0</ele>
        <time>2019-05-04T13:40:43Z</time>
      </trkpt>
      <trkpt lat="38.919083" lon="-6.065117">
        <ele>1410.0</ele>
        <time>2019-05-04T13:40:44Z</time>
      </trkpt>
      <trkpt lat="38.919000" lon="-6.065150">
        <ele>1411.0</ele>
        <time>2019-05-04T13:40:45Z</time>
      </trkpt>
      <trkpt lat="38.918933" lon="-6.065200">
        <ele>1411.0</ele>
        <time>2019-05-04T13:40:46Z</time>
      </trkpt>
      <trkpt lat="38.918900" lon="-6.065267">
        <ele>1412.0</ele>
        <time>2019-05-04T13:40:47Z</time>
      </trkpt>
      <trkpt lat="38.918850" lon="-6.065333">
        <ele>1412.0</ele>
        <time>2019-05-04T13:40:48Z</time>
      </trkpt>
      <trkpt lat="38.918817" lon="-6.065417">
        <ele>1413.0</ele>
        <time>2019-05-04T13:40:49Z</time>
      </trkpt>
      <trkpt lat="38.918800" lon="-6.065517">
        <ele>1413.0</ele>
        <time>2019-05-04T13:40:50Z</time>
      </trkpt>
      <trkpt lat="38.918817" lon="-6.065617">
        <ele>1413.0</ele>
        <time>2019-05-04T13:40:51Z</time>
      </trkpt>
      <trkpt lat="38.918850" lon="-6.065700">
        <ele>1414.0</ele>
        <time>2019-05-04T13:40:52Z</time>
      </trkpt>
      <trkpt lat="38.918900" lon="-6.065767">
        <ele>1415.0</ele>
        <time>2019-05-04T13:40:53Z</time>
      </trkpt>
      <trkpt lat="38.918950" lon="-6.065817">
        <ele>1416.0</ele>
        <time>2019-05-04T13:40:54Z</time>
      </trkpt>
      <trkpt lat="38.919000" lon="-6.065867">
        <ele>1419.0</ele>
        <time>2019-05-04T13:40:55Z</time>
      </trkpt>
      <trkpt lat="38.919050" lon="-6.065883">
        <ele>1421.0</ele>
        <time>2019-05-04T13:40:56Z</time>
      </trkpt>
      <trkpt lat="38.919100" lon="-6.065917">
        <ele>1423.0</ele>
        <time>2019-05-04T13:40:57Z</time>
      </trkpt>
      <trkpt lat="38.919150" lon="-6.065950">
        <ele>1424.0</ele>
        <time>2019-05-04T13:40:58Z</time>
      </trkpt>
      <trkpt lat="38.919217" lon="-6.065950">
        <ele>1425.0</ele>
        <time>2019-05-04T13:40:59Z</time>
      </trkpt>
      <trkpt lat="38.919283" lon="-6.065933">
        <ele>1426.0</ele>
        <time>2019-05-04T13:41:00Z</time>
      </trkpt>
      <trkpt lat="38.919367" lon="-6.065883">
        <ele>1426.0</ele>
        <time>2019-05-04T13:41:01Z</time>
      </trkpt>
      <trkpt lat="38.919433" lon="-6.065800">
        <ele>1427.0</ele>
        <time>2019-05-04T13:41:02Z</time>
      </trkpt>
      <trkpt lat="38.919483" lon="-6.065700">
        <ele>1428.0</ele>
        <time>2019-05-04T13:41:03Z</time>
      </trkpt>
      <trkpt lat="38.919517" lon="-6.065600">
        <ele>1429.0</ele>
        <time>2019-05-04T13:41:04Z</time>
      </trkpt>
      <trkpt lat="38.919517" lon="-6.065500">
        <ele>1430.0</ele>
        <time>2019-05-04T13:41:05Z</time>
      </trkpt>
      <trkpt lat="38.919500" lon="-6.065383">
        <ele>1431.0</ele>
        <time>2019-05-04T13:41:06Z</time>
      </trkpt>
      <trkpt lat="38.919467" lon="-6.065267">
        <ele>1432.0</ele>
        <time>2019-05-04T13:41:07Z</time>
      </trkpt>
      <trkpt lat="38.919433" lon="-6.065167">
        <ele>1433.0</ele>
        <time>2019-05-04T13:41:08Z</time>
      </trkpt>
      <trkpt lat="38.919367" lon="-6.065067">
        <ele>1435.0</ele>
        <time>2019-05-04T13:41:09Z</time>
      </trkpt>
      <trkpt lat="38.919283" lon="-6.065017">
        <ele>1435.0</ele>
        <time>2019-05-04T13:41:10Z</time>
      </trkpt>
      <trkpt lat="38.919200" lon="-6.064983">
        <ele>1436.0</ele>
        <time>2019-05-04T13:41:11Z</time>
      </trkpt>
      <trkpt lat="38.919117" lon="-6.064983">
        <ele>1437.0</ele>
        <time>2019-05-04T13:41:12Z</time>
      </trkpt>
      <trkpt lat="38.919050" lon="-6.065017">
        <ele>1438.0</ele>
        <time>2019-05-04T13:41:13Z</time>
      </trkpt>
      <trkpt lat="38.919000" lon="-6.065050">
        <ele>1439.0</ele>
        <time>2019-05-04T13:41:14Z</time>
      </trkpt>
      <trkpt lat="38.918950" lon="-6.065117">
        <ele>1440.0</ele>
        <time>2019-05-04T13:41:15Z</time>
      </trkpt>
      <trkpt lat="38.918917" lon="-6.065200">
        <ele>1440.0</ele>
        <time>2019-05-04T13:41:16Z</time>
      </trkpt>
      <trkpt lat="38.918900" lon="-6.065283">
        <ele>1441.0</ele>
        <time>2019-05-04T13:41:17Z</time>
      </trkpt>
      <trkpt lat="38.918933" lon="-6.065367">
        <ele>1442.0</ele>
        <time>2019-05-04T13:41:18Z</time>
      </trkpt>
      <trkpt lat="38.918967" lon="-6.065433">
        <ele>1443.0</ele>
        <time>2019-05-04T13:41:19Z</time>
      </trkpt>
      <trkpt lat="38.919017" lon="-6.065483">
        <ele>1444.0</ele>
        <time>2019-05-04T13:41:20Z</time>
      </trkpt>
      <trkpt lat="38.919067" lon="-6.065517">
        <ele>1444.0</ele>
        <time>2019-05-04T13:41:21Z</time>
      </trkpt>
      <trkpt lat="38.919150" lon="-6.065517">
        <ele>1445.0</ele>
        <time>2019-05-04T13:41:22Z</time>
      </trkpt>
      <trkpt lat="38.919217" lon="-6.065467">
        <ele>1445.0</ele>
        <time>2019-05-04T13:41:23Z</time>
      </trkpt>
      <trkpt lat="38.919283" lon="-6.065400">
        <ele>1446.0</ele>
        <time>2019-05-04T13:41:24Z</time>
      </trkpt>
      <trkpt lat="38.919317" lon="-6.065317">
        <ele>1446.0</ele>
        <time>2019-05-04T13:41:25Z</time>
      </trkpt>
      <trkpt lat="38.919350" lon="-6.065217">
        <ele>1447.0</ele>
        <time>2019-05-04T13:41:26Z</time>
      </trkpt>
      <trkpt lat="38.919367" lon="-6.065100">
        <ele>1448.0</ele>
        <time>2019-05-04T13:41:27Z</time>
      </trkpt>
      <trkpt lat="38.919350" lon="-6.064983">
        <ele>1449.0</ele>
        <time>2019-05-04T13:41:28Z</time>
      </trkpt>
      <trkpt lat="38.919333" lon="-6.064883">
        <ele>1449.0</ele>
        <time>2019-05-04T13:41:29Z</time>
      </trkpt>
      <trkpt lat="38.919300" lon="-6.064767">
        <ele>1450.0</ele>
        <time>2019-05-04T13:41:30Z</time>
      </trkpt>
      <trkpt lat="38.919233" lon="-6.064683">
        <ele>1450.0</ele>
        <time>2019-05-04T13:41:31Z</time>
      </trkpt>
      <trkpt lat="38.919167" lon="-6.064617">
        <ele>1451.0</ele>
        <time>2019-05-04T13:41:32Z</time>
      </trkpt>
      <trkpt lat="38.919100" lon="-6.064583">
        <ele>1451.0</ele>
        <time>2019-05-04T13:41:33Z</time>
      </trkpt>
      <trkpt lat="38.919017" lon="-6.064567">
        <ele>1451.0</ele>
        <time>2019-05-04T13:41:34Z</time>
      </trkpt>
      <trkpt lat="38.918933" lon="-6.064583">
        <ele>1451.0</ele>
        <time>2019-05-04T13:41:35Z</time>
      </trkpt>
      <trkpt lat="38.918867" lon="-6.064600">
        <ele>1450.0</ele>
        <time>2019-05-04T13:41:36Z</time>
      </trkpt>
      <trkpt lat="38.918800" lon="-6.064650">
        <ele>1450.0</ele>
        <time>2019-05-04T13:41:37Z</time>
      </trkpt>
      <trkpt lat="38.918750" lon="-6.064717">
        <ele>1449.0</ele>
        <time>2019-05-04T13:41:38Z</time>
      </trkpt>
      <trkpt lat="38.918700" lon="-6.064767">
        <ele>1448.0</ele>
        <time>2019-05-04T13:41:39Z</time>
      </trkpt>
      <trkpt lat="38.918667" lon="-6.064833">
        <ele>1448.0</ele>
        <time>2019-05-04T13:41:40Z</time>
      </trkpt>
      <trkpt lat="38.918633" lon="-6.064917">
        <ele>1447.0</ele>
        <time>2019-05-04T13:41:41Z</time>
      </trkpt>
      <trkpt lat="38.918600" lon="-6.065000">
        <ele>1447.0</ele>
        <time>2019-05-04T13:41:42Z</time>
      </trkpt>
      <trkpt lat="38.918567" lon="-6.065083">
        <ele>1446.0</ele>
        <time>2019-05-04T13:41:43Z</time>
      </trkpt>
      <trkpt lat="38.918517" lon="-6.065167">
        <ele>1446.0</ele>
        <time>2019-05-04T13:41:44Z</time>
      </trkpt>
      <trkpt lat="38.918467" lon="-6.065267">
        <ele>1447.0</ele>
        <time>2019-05-04T13:41:45Z</time>
      </trkpt>
      <trkpt lat="38.918417" lon="-6.065350">
        <ele>1449.0</ele>
        <time>2019-05-04T13:41:46Z</time>
      </trkpt>
      <trkpt lat="38.918367" lon="-6.065433">
        <ele>1450.0</ele>
        <time>2019-05-04T13:41:47Z</time>
      </trkpt>
      <trkpt lat="38.918317" lon="-6.065500">
        <ele>1451.0</ele>
        <time>2019-05-04T13:41:48Z</time>
      </trkpt>
      <trkpt lat="38.918267" lon="-6.065583">
        <ele>1452.0</ele>
        <time>2019-05-04T13:41:49Z</time>
      </trkpt>
      <trkpt lat="38.918217" lon="-6.065667">
        <ele>1452.0</ele>
        <time>2019-05-04T13:41:50Z</time>
      </trkpt>
      <trkpt lat="38.918183" lon="-6.065767">
        <ele>1453.0</ele>
        <time>2019-05-04T13:41:51Z</time>
      </trkpt>
      <trkpt lat="38.918150" lon="-6.065850">
        <ele>1455.0</ele>
        <time>2019-05-04T13:41:52Z</time>
      </trkpt>
      <trkpt lat="38.918133" lon="-6.065950">
        <ele>1456.0</ele>
        <time>2019-05-04T13:41:53Z</time>
      </trkpt>
      <trkpt lat="38.918117" lon="-6.066033">
        <ele>1458.0</ele>
        <time>2019-05-04T13:41:54Z</time>
      </trkpt>
      <trkpt lat="38.918100" lon="-6.066117">
        <ele>1459.0</ele>
        <time>2019-05-04T13:41:55Z</time>
      </trkpt>
      <trkpt lat="38.918083" lon="-6.066200">
        <ele>1460.0</ele>
        <time>2019-05-04T13:41:56Z</time>
      </trkpt>
      <trkpt lat="38.918067" lon="-6.066283">
        <ele>1460.0</ele>
        <time>2019-05-04T13:41:57Z</time>
      </trkpt>
      <trkpt lat="38.918067" lon="-6.066383">
        <ele>1460.0</ele>
        <time>2019-05-04T13:41:58Z</time>
      </trkpt>
      <trkpt lat="38.918100" lon="-6.066467">
        <ele>1461.0</ele>
        <time>2019-05-04T13:41:59Z</time>
      </trkpt>
      <trkpt lat="38.918133" lon="-6.066550">
        <ele>1461.0</ele>
        <time>2019-05-04T13:42:00Z</time>
      </trkpt>
      <trkpt lat="38.918183" lon="-6.066617">
        <ele>1461.0</ele>
        <time>2019-05-04T13:42:01Z</time>
      </trkpt>
      <trkpt lat="38.918250" lon="-6.066667">
        <ele>1462.0</ele>
        <time>2019-05-04T13:42:02Z</time>
      </trkpt>
      <trkpt lat="38.918333" lon="-6.066683">
        <ele>1461.0</ele>
        <time>2019-05-04T13:42:03Z</time>
      </trkpt>
      <trkpt lat="38.918417" lon="-6.066700">
        <ele>1461.0</ele>
        <time>2019-05-04T13:42:04Z</time>
      </trkpt>
      <trkpt lat="38.918517" lon="-6.066683">
        <ele>1461.0</ele>
        <time>2019-05-04T13:42:05Z</time>
      </trkpt>
      <trkpt lat="38.918600" lon="-6.066633">
        <ele>1460.0</ele>
        <time>2019-05-04T13:42:06Z</time>
      </trkpt>
      <trkpt lat="38.918667" lon="-6.066567">
        <ele>1459.0</ele>
        <time>2019-05-04T13:42:07Z</time>
      </trkpt>
      <trkpt lat="38.918733" lon="-6.066467">
        <ele>1458.0</ele>
        <time>2019-05-04T13:42:08Z</time>
      </trkpt>
      <trkpt lat="38.918783" lon="-6.066367">
        <ele>1457.0</ele>
        <time>2019-05-04T13:42:09Z</time>
      </trkpt>
      <trkpt lat="38.918817" lon="-6.066250">
        <ele>1456.0</ele>
        <time>2019-05-04T13:42:10Z</time>
      </trkpt>
      <trkpt lat="38.918833" lon="-6.066117">
        <ele>1455.0</ele>
        <time>2019-05-04T13:42:11Z</time>
      </trkpt>
      <trkpt lat="38.918817" lon="-6.065983">
        <ele>1454.0</ele>
        <time>2019-05-04T13:42:12Z</time>
      </trkpt>
      <trkpt lat="38.918767" lon="-6.065867">
        <ele>1451.0</ele>
        <time>2019-05-04T13:42:13Z</time>
      </trkpt>
      <trkpt lat="38.918683" lon="-6.065767">
        <ele>1450.0</ele>
        <time>2019-05-04T13:42:14Z</time>
      </trkpt>
      <trkpt lat="38.918617" lon="-6.065700">
        <ele>1450.0</ele>
        <time>2019-05-04T13:42:15Z</time>
      </trkpt>
      <trkpt lat="38.918533" lon="-6.065667">
        <ele>1450.0</ele>
        <time>2019-05-04T13:42:16Z</time>
      </trkpt>
      <trkpt lat="38.918450" lon="-6.065650">
        <ele>1449.0</ele>
        <time>2019-05-04T13:42:17Z</time>
      </trkpt>
      <trkpt lat="38.918350" lon="-6.065650">
        <ele>1448.0</ele>
        <time>2019-05-04T13:42:18Z</time>
      </trkpt>
      <trkpt lat="38.918250" lon="-6.065700">
        <ele>1448.0</ele>
        <time>2019-05-04T13:42:19Z</time>
      </trkpt>
      <trkpt lat="38.918150" lon="-6.065750">
        <ele>1447.0</ele>
        <time>2019-05-04T13:42:20Z</time>
      </trkpt>
      <trkpt lat="38.918083" lon="-6.065800">
        <ele>1447.0</ele>
        <time>2019-05-04T13:42:21Z</time>
      </trkpt>
      <trkpt lat="38.918033" lon="-6.065850">
        <ele>1448.0</ele>
        <time>2019-05-04T13:42:22Z</time>
      </trkpt>
      <trkpt lat="38.917967" lon="-6.065917">
        <ele>1448.0</ele>
        <time>2019-05-04T13:42:23Z</time>
      </trkpt>
      <trkpt lat="38.917917" lon="-6.066000">
        <ele>1448.0</ele>
        <time>2019-05-04T13:42:24Z</time>
      </trkpt>
      <trkpt lat="38.917883" lon="-6.066100">
        <ele>1448.0</ele>
        <time>2019-05-04T13:42:25Z</time>
      </trkpt>
      <trkpt lat="38.917833" lon="-6.066183">
        <ele>1447.0</ele>
        <time>2019-05-04T13:42:26Z</time>
      </trkpt>
      <trkpt lat="38.917783" lon="-6.066283">
        <ele>1447.0</ele>
        <time>2019-05-04T13:42:27Z</time>
      </trkpt>
      <trkpt lat="38.917750" lon="-6.066367">
        <ele>1448.0</ele>
        <time>2019-05-04T13:42:28Z</time>
      </trkpt>
      <trkpt lat="38.917700" lon="-6.066433">
        <ele>1448.0</ele>
        <time>2019-05-04T13:42:29Z</time>
      </trkpt>
      <trkpt lat="38.917667" lon="-6.066517">
        <ele>1448.0</ele>
        <time>2019-05-04T13:42:30Z</time>
      </trkpt>
      <trkpt lat="38.917617" lon="-6.066583">
        <ele>1447.0</ele>
        <time>2019-05-04T13:42:31Z</time>
      </trkpt>
      <trkpt lat="38.917583" lon="-6.066650">
        <ele>1446.0</ele>
        <time>2019-05-04T13:42:32Z</time>
      </trkpt>
      <trkpt lat="38.917533" lon="-6.066733">
        <ele>1445.0</ele>
        <time>2019-05-04T13:42:33Z</time>
      </trkpt>
      <trkpt lat="38.917500" lon="-6.066817">
        <ele>1444.0</ele>
        <time>2019-05-04T13:42:34Z</time>
      </trkpt>
      <trkpt lat="38.917467" lon="-6.066900">
        <ele>1442.0</ele>
        <time>2019-05-04T13:42:35Z</time>
      </trkpt>
      <trkpt lat="38.917433" lon="-6.066967">
        <ele>1439.0</ele>
        <time>2019-05-04T13:42:36Z</time>
      </trkpt>
      <trkpt lat="38.917417" lon="-6.067033">
        <ele>1437.0</ele>
        <time>2019-05-04T13:42:37Z</time>
      </trkpt>
      <trkpt lat="38.917383" lon="-6.067117">
        <ele>1435.0</ele>
        <time>2019-05-04T13:42:38Z</time>
      </trkpt>
      <trkpt lat="38.917333" lon="-6.067183">
        <ele>1432.0</ele>
        <time>2019-05-04T13:42:39Z</time>
      </trkpt>
      <trkpt lat="38.917283" lon="-6.067267">
        <ele>1430.0</ele>
        <time>2019-05-04T13:42:40Z</time>
      </trkpt>
      <trkpt lat="38.917250" lon="-6.067333">
        <ele>1427.0</ele>
        <time>2019-05-04T13:42:41Z</time>
      </trkpt>
      <trkpt lat="38.917200" lon="-6.067400">
        <ele>1425.0</ele>
        <time>2019-05-04T13:42:42Z</time>
      </trkpt>
      <trkpt lat="38.917167" lon="-6.067467">
        <ele>1422.0</ele>
        <time>2019-05-04T13:42:43Z</time>
      </trkpt>
      <trkpt lat="38.917117" lon="-6.067533">
        <ele>1419.0</ele>
        <time>2019-05-04T13:42:44Z</time>
      </trkpt>
      <trkpt lat="38.917067" lon="-6.067600">
        <ele>1416.0</ele>
        <time>2019-05-04T13:42:45Z</time>
      </trkpt>
      <trkpt lat="38.917050" lon="-6.067683">
        <ele>1413.0</ele>
        <time>2019-05-04T13:42:46Z</time>
      </trkpt>
      <trkpt lat="38.917067" lon="-6.067767">
        <ele>1410.0</ele>
        <time>2019-05-04T13:42:47Z</time>
      </trkpt>
      <trkpt lat="38.917083" lon="-6.067833">
        <ele>1407.0</ele>
        <time>2019-05-04T13:42:48Z</time>
      </trkpt>
      <trkpt lat="38.917117" lon="-6.067900">
        <ele>1404.0</ele>
        <time>2019-05-04T13:42:49Z</time>
      </trkpt>
      <trkpt lat="38.917150" lon="-6.067967">
        <ele>1401.0</ele>
        <time>2019-05-04T13:42:50Z</time>
      </trkpt>
      <trkpt lat="38.917200" lon="-6.068017">
        <ele>1399.0</ele>
        <time>2019-05-04T13:42:51Z</time>
      </trkpt>
      <trkpt lat="38.917267" lon="-6.068017">
        <ele>1397.0</ele>
        <time>2019-05-04T13:42:52Z</time>
      </trkpt>
      <trkpt lat="38.917350" lon="-6.068017">
        <ele>1395.0</ele>
        <time>2019-05-04T13:42:53Z</time>
      </trkpt>
      <trkpt lat="38.917433" lon="-6.067983">
        <ele>1392.0</ele>
        <time>2019-05-04T13:42:54Z</time>
      </trkpt>
      <trkpt lat="38.917517" lon="-6.067950">
        <ele>1390.0</ele>
        <time>2019-05-04T13:42:55Z</time>
      </trkpt>
      <trkpt lat="38.917583" lon="-6.067867">
        <ele>1389.0</ele>
        <time>2019-05-04T13:42:56Z</time>
      </trkpt>
      <trkpt lat="38.917633" lon="-6.067783">
        <ele>1389.0</ele>
        <time>2019-05-04T13:42:57Z</time>
      </trkpt>
      <trkpt lat="38.917700" lon="-6.067700">
        <ele>1388.0</ele>
        <time>2019-05-04T13:42:58Z</time>
      </trkpt>
      <trkpt lat="38.917733" lon="-6.067617">
        <ele>1387.0</ele>
        <time>2019-05-04T13:42:59Z</time>
      </trkpt>
      <trkpt lat="38.917783" lon="-6.067500">
        <ele>1386.0</ele>
        <time>2019-05-04T13:43:00Z</time>
      </trkpt>
      <trkpt lat="38.917817" lon="-6.067367">
        <ele>1385.0</ele>
        <time>2019-05-04T13:43:01Z</time>
      </trkpt>
      <trkpt lat="38.917850" lon="-6.067233">
        <ele>1385.0</ele>
        <time>2019-05-04T13:43:02Z</time>
      </trkpt>
      <trkpt lat="38.917833" lon="-6.067083">
        <ele>1384.0</ele>
        <time>2019-05-04T13:43:03Z</time>
      </trkpt>
      <trkpt lat="38.917800" lon="-6.066950">
        <ele>1383.0</ele>
        <time>2019-05-04T13:43:04Z</time>
      </trkpt>
      <trkpt lat="38.917767" lon="-6.066800">
        <ele>1383.0</ele>
        <time>2019-05-04T13:43:05Z</time>
      </trkpt>
      <trkpt lat="38.917733" lon="-6.066667">
        <ele>1382.0</ele>
        <time>2019-05-04T13:43:06Z</time>
      </trkpt>
      <trkpt lat="38.917700" lon="-6.066533">
        <ele>1381.0</ele>
        <time>2019-05-04T13:43:07Z</time>
      </trkpt>
      <trkpt lat="38.917650" lon="-6.066400">
        <ele>1379.0</ele>
        <time>2019-05-04T13:43:08Z</time>
      </trkpt>
      <trkpt lat="38.917600" lon="-6.066267">
        <ele>1378.0</ele>
        <time>2019-05-04T13:43:09Z</time>
      </trkpt>
      <trkpt lat="38.917550" lon="-6.066133">
        <ele>1377.0</ele>
        <time>2019-05-04T13:43:10Z</time>
      </trkpt>
      <trkpt lat="38.917500" lon="-6.066017">
        <ele>1375.0</ele>
        <time>2019-05-04T13:43:11Z</time>
      </trkpt>
      <trkpt lat="38.917450" lon="-6.065917">
        <ele>1374.0</ele>
        <time>2019-05-04T13:43:12Z</time>
      </trkpt>
      <trkpt lat="38.917400" lon="-6.065833">
        <ele>1372.0</ele>
        <time>2019-05-04T13:43:13Z</time>
      </trkpt>
      <trkpt lat="38.917333" lon="-6.065733">
        <ele>1365.0</ele>
        <time>2019-05-04T13:43:14Z</time>
      </trkpt>
      <trkpt lat="38.917250" lon="-6.065617">
        <ele>1361.0</ele>
        <time>2019-05-04T13:43:15Z</time>
      </trkpt>
      <trkpt lat="38.917183" lon="-6.065500">
        <ele>1358.0</ele>
        <time>2019-05-04T13:43:16Z</time>
      </trkpt>
      <trkpt lat="38.917117" lon="-6.065400">
        <ele>1356.0</ele>
        <time>2019-05-04T13:43:17Z</time>
      </trkpt>
      <trkpt lat="38.917050" lon="-6.065300">
        <ele>1355.0</ele>
        <time>2019-05-04T13:43:18Z</time>
      </trkpt>
      <trkpt lat="38.916950" lon="-6.065183">
        <ele>1352.0</ele>
        <time>2019-05-04T13:43:19Z</time>
      </trkpt>
      <trkpt lat="38.916867" lon="-6.065083">
        <ele>1350.0</ele>
        <time>2019-05-04T13:43:20Z</time>
      </trkpt>
      <trkpt lat="38.916783" lon="-6.064967">
        <ele>1348.0</ele>
        <time>2019-05-04T13:43:21Z</time>
      </trkpt>
      <trkpt lat="38.916683" lon="-6.064867">
        <ele>1346.0</ele>
        <time>2019-05-04T13:43:22Z</time>
      </trkpt>
      <trkpt lat="38.916600" lon="-6.064750">
        <ele>1344.0</ele>
        <time>2019-05-04T13:43:23Z</time>
      </trkpt>
      <trkpt lat="38.916533" lon="-6.064633">
        <ele>1343.0</ele>
        <time>2019-05-04T13:43:24Z</time>
      </trkpt>
      <trkpt lat="38.916450" lon="-6.064517">
        <ele>1341.0</ele>
        <time>2019-05-04T13:43:25Z</time>
      </trkpt>
      <trkpt lat="38.916350" lon="-6.064383">
        <ele>1338.0</ele>
        <time>2019-05-04T13:43:26Z</time>
      </trkpt>
      <trkpt lat="38.916267" lon="-6.064250">
        <ele>1336.0</ele>
        <time>2019-05-04T13:43:27Z</time>
      </trkpt>
      <trkpt lat="38.916167" lon="-6.064117">
        <ele>1335.0</ele>
        <time>2019-05-04T13:43:28Z</time>
      </trkpt>
      <trkpt lat="38.916083" lon="-6.064000">
        <ele>1335.0</ele>
        <time>2019-05-04T13:43:29Z</time>
      </trkpt>
      <trkpt lat="38.916000" lon="-6.063867">
        <ele>1335.0</ele>
        <time>2019-05-04T13:43:30Z</time>
      </trkpt>
      <trkpt lat="38.915933" lon="-6.063733">
        <ele>1337.0</ele>
        <time>2019-05-04T13:43:31Z</time>
      </trkpt>
      <trkpt lat="38.915867" lon="-6.063600">
        <ele>1338.0</ele>
        <time>2019-05-04T13:43:32Z</time>
      </trkpt>
      <trkpt lat="38.915800" lon="-6.063483">
        <ele>1339.0</ele>
        <time>2019-05-04T13:43:33Z</time>
      </trkpt>
      <trkpt lat="38.915733" lon="-6.063367">
        <ele>1341.0</ele>
        <time>2019-05-04T13:43:34Z</time>
      </trkpt>
      <trkpt lat="38.915650" lon="-6.063267">
        <ele>1342.0</ele>
        <time>2019-05-04T13:43:35Z</time>
      </trkpt>
      <trkpt lat="38.915567" lon="-6.063167">
        <ele>1343.0</ele>
        <time>2019-05-04T13:43:36Z</time>
      </trkpt>
      <trkpt lat="38.915483" lon="-6.063100">
        <ele>1344.0</ele>
        <time>2019-05-04T13:43:37Z</time>
      </trkpt>
      <trkpt lat="38.915400" lon="-6.063050">
        <ele>1345.0</ele>
        <time>2019-05-04T13:43:38Z</time>
      </trkpt>
      <trkpt lat="38.915317" lon="-6.063017">
        <ele>1345.0</ele>
        <time>2019-05-04T13:43:39Z</time>
      </trkpt>
      <trkpt lat="38.915250" lon="-6.063017">
        <ele>1346.0</ele>
        <time>2019-05-04T13:43:40Z</time>
      </trkpt>
      <trkpt lat="38.915200" lon="-6.063017">
        <ele>1346.0</ele>
        <time>2019-05-04T13:43:41Z</time>
      </trkpt>
      <trkpt lat="38.915117" lon="-6.063050">
        <ele>1346.0</ele>
        <time>2019-05-04T13:43:42Z</time>
      </trkpt>
      <trkpt lat="38.915050" lon="-6.063100">
        <ele>1345.0</ele>
        <time>2019-05-04T13:43:43Z</time>
      </trkpt>
      <trkpt lat="38.914983" lon="-6.063167">
        <ele>1344.0</ele>
        <time>2019-05-04T13:43:44Z</time>
      </trkpt>
      <trkpt lat="38.914933" lon="-6.063267">
        <ele>1342.0</ele>
        <time>2019-05-04T13:43:45Z</time>
      </trkpt>
      <trkpt lat="38.914917" lon="-6.063367">
        <ele>1341.0</ele>
        <time>2019-05-04T13:43:46Z</time>
      </trkpt>
      <trkpt lat="38.914917" lon="-6.063450">
        <ele>1339.0</ele>
        <time>2019-05-04T13:43:47Z</time>
      </trkpt>
      <trkpt lat="38.914967" lon="-6.063533">
        <ele>1339.0</ele>
        <time>2019-05-04T13:43:48Z</time>
      </trkpt>
      <trkpt lat="38.915017" lon="-6.063600">
        <ele>1338.0</ele>
        <time>2019-05-04T13:43:49Z</time>
      </trkpt>
      <trkpt lat="38.915100" lon="-6.063617">
        <ele>1338.0</ele>
        <time>2019-05-04T13:43:50Z</time>
      </trkpt>
      <trkpt lat="38.915167" lon="-6.063617">
        <ele>1338.0</ele>
        <time>2019-05-04T13:43:51Z</time>
      </trkpt>
      <trkpt lat="38.915250" lon="-6.063600">
        <ele>1338.0</ele>
        <time>2019-05-04T13:43:52Z</time>
      </trkpt>
      <trkpt lat="38.915317" lon="-6.063550">
        <ele>1338.0</ele>
        <time>2019-05-04T13:43:53Z</time>
      </trkpt>
      <trkpt lat="38.915383" lon="-6.063467">
        <ele>1338.0</ele>
        <time>2019-05-04T13:43:54Z</time>
      </trkpt>
      <trkpt lat="38.915450" lon="-6.063383">
        <ele>1338.0</ele>
        <time>2019-05-04T13:43:55Z</time>
      </trkpt>
      <trkpt lat="38.915517" lon="-6.063267">
        <ele>1338.0</ele>
        <time>2019-05-04T13:43:56Z</time>
      </trkpt>
      <trkpt lat="38.915567" lon="-6.063150">
        <ele>1338.0</ele>
        <time>2019-05-04T13:43:57Z</time>
      </trkpt>
      <trkpt lat="38.915600" lon="-6.063017">
        <ele>1337.0</ele>
        <time>2019-05-04T13:43:58Z</time>
      </trkpt>
      <trkpt lat="38.915617" lon="-6.062850">
        <ele>1337.0</ele>
        <time>2019-05-04T13:43:59Z</time>
      </trkpt>
      <trkpt lat="38.915633" lon="-6.062700">
        <ele>1336.0</ele>
        <time>2019-05-04T13:44:00Z</time>
      </trkpt>
      <trkpt lat="38.915650" lon="-6.062550">
        <ele>1336.0</ele>
        <time>2019-05-04T13:44:01Z</time>
      </trkpt>
      <trkpt lat="38.915650" lon="-6.062417">
        <ele>1336.0</ele>
        <time>2019-05-04T13:44:02Z</time>
      </trkpt>
      <trkpt lat="38.915650" lon="-6.062283">
        <ele>1336.0</ele>
        <time>2019-05-04T13:44:03Z</time>
      </trkpt>
      <trkpt lat="38.915650" lon="-6.062150">
        <ele>1336.0</ele>
        <time>2019-05-04T13:44:04Z</time>
      </trkpt>
      <trkpt lat="38.915633" lon="-6.062000">
        <ele>1336.0</ele>
        <time>2019-05-04T13:44:05Z</time>
      </trkpt>
      <trkpt lat="38.915583" lon="-6.061867">
        <ele>1335.0</ele>
        <time>2019-05-04T13:44:06Z</time>
      </trkpt>
      <trkpt lat="38.915550" lon="-6.061733">
        <ele>1334.0</ele>
        <time>2019-05-04T13:44:07Z</time>
      </trkpt>
      <trkpt lat="38.915483" lon="-6.061633">
        <ele>1332.0</ele>
        <time>2019-05-04T13:44:08Z</time>
      </trkpt>
      <trkpt lat="38.915400" lon="-6.061533">
        <ele>1332.0</ele>
        <time>2019-05-04T13:44:09Z</time>
      </trkpt>
      <trkpt lat="38.915317" lon="-6.061467">
        <ele>1333.0</ele>
        <time>2019-05-04T13:44:10Z</time>
      </trkpt>
      <trkpt lat="38.915217" lon="-6.061450">
        <ele>1333.0</ele>
        <time>2019-05-04T13:44:11Z</time>
      </trkpt>
      <trkpt lat="38.915133" lon="-6.061433">
        <ele>1333.0</ele>
        <time>2019-05-04T13:44:12Z</time>
      </trkpt>
      <trkpt lat="38.915050" lon="-6.061467">
        <ele>1333.0</ele>
        <time>2019-05-04T13:44:13Z</time>
      </trkpt>
      <trkpt lat="38.914967" lon="-6.061500">
        <ele>1332.0</ele>
        <time>2019-05-04T13:44:14Z</time>
      </trkpt>
      <trkpt lat="38.914900" lon="-6.061567">
        <ele>1331.0</ele>
        <time>2019-05-04T13:44:15Z</time>
      </trkpt>
      <trkpt lat="38.914850" lon="-6.061667">
        <ele>1330.0</ele>
        <time>2019-05-04T13:44:16Z</time>
      </trkpt>
      <trkpt lat="38.914817" lon="-6.061783">
        <ele>1329.0</ele>
        <time>2019-05-04T13:44:17Z</time>
      </trkpt>
      <trkpt lat="38.914817" lon="-6.061883">
        <ele>1326.0</ele>
        <time>2019-05-04T13:44:18Z</time>
      </trkpt>
      <trkpt lat="38.914850" lon="-6.061983">
        <ele>1325.0</ele>
        <time>2019-05-04T13:44:19Z</time>
      </trkpt>
      <trkpt lat="38.914883" lon="-6.062067">
        <ele>1324.0</ele>
        <time>2019-05-04T13:44:20Z</time>
      </trkpt>
      <trkpt lat="38.914917" lon="-6.062133">
        <ele>1323.0</ele>
        <time>2019-05-04T13:44:21Z</time>
      </trkpt>
      <trkpt lat="38.914950" lon="-6.062200">
        <ele>1322.0</ele>
        <time>2019-05-04T13:44:22Z</time>
      </trkpt>
      <trkpt lat="38.915000" lon="-6.062267">
        <ele>1322.0</ele>
        <time>2019-05-04T13:44:23Z</time>
      </trkpt>
      <trkpt lat="38.915050" lon="-6.062317">
        <ele>1322.0</ele>
        <time>2019-05-04T13:44:24Z</time>
      </trkpt>
      <trkpt lat="38.915117" lon="-6.062367">
        <ele>1322.0</ele>
        <time>2019-05-04T13:44:25Z</time>
      </trkpt>
      <trkpt lat="38.915167" lon="-6.062400">
        <ele>1321.0</ele>
        <time>2019-05-04T13:44:26Z</time>
      </trkpt>
      <trkpt lat="38.915250" lon="-6.062433">
        <ele>1321.0</ele>
        <time>2019-05-04T13:44:27Z</time>
      </trkpt>
      <trkpt lat="38.915333" lon="-6.062467">
        <ele>1321.0</ele>
        <time>2019-05-04T13:44:28Z</time>
      </trkpt>
      <trkpt lat="38.915283" lon="-6.062500">
        <ele>0.0</ele>
        <time>2019-05-04T13:44:31Z</time>
      </trkpt>
      <trkpt lat="38.915633" lon="-6.062400">
        <ele>1321.0</ele>
        <time>2019-05-04T13:44:32Z</time>
      </trkpt>
      <trkpt lat="38.915767" lon="-6.062367">
        <ele>1315.0</ele>
        <time>2019-05-04T13:44:33Z</time>
      </trkpt>
      <trkpt lat="38.915850" lon="-6.062333">
        <ele>1314.0</ele>
        <time>2019-05-04T13:44:34Z</time>
      </trkpt>
      <trkpt lat="38.915933" lon="-6.062283">
        <ele>1316.0</ele>
        <time>2019-05-04T13:44:35Z</time>
      </trkpt>
      <trkpt lat="38.916000" lon="-6.062217">
        <ele>1316.0</ele>
        <time>2019-05-04T13:44:36Z</time>
      </trkpt>
      <trkpt lat="38.916067" lon="-6.062150">
        <ele>1317.0</ele>
        <time>2019-05-04T13:44:37Z</time>
      </trkpt>
      <trkpt lat="38.916133" lon="-6.062050">
        <ele>1317.0</ele>
        <time>2019-05-04T13:44:38Z</time>
      </trkpt>
      <trkpt lat="38.916217" lon="-6.061950">
        <ele>1317.0</ele>
        <time>2019-05-04T13:44:39Z</time>
      </trkpt>
      <trkpt lat="38.916267" lon="-6.061817">
        <ele>1317.0</ele>
        <time>2019-05-04T13:44:40Z</time>
      </trkpt>
      <trkpt lat="38.916300" lon="-6.061667">
        <ele>1317.0</ele>
        <time>2019-05-04T13:44:41Z</time>
      </trkpt>
      <trkpt lat="38.916317" lon="-6.061500">
        <ele>1316.0</ele>
        <time>2019-05-04T13:44:42Z</time>
      </trkpt>
      <trkpt lat="38.916300" lon="-6.061333">
        <ele>1316.0</ele>
        <time>2019-05-04T13:44:43Z</time>
      </trkpt>
      <trkpt lat="38.916300" lon="-6.061167">
        <ele>1315.0</ele>
        <time>2019-05-04T13:44:44Z</time>
      </trkpt>
      <trkpt lat="38.916283" lon="-6.061017">
        <ele>1314.0</ele>
        <time>2019-05-04T13:44:45Z</time>
      </trkpt>
      <trkpt lat="38.916267" lon="-6.060867">
        <ele>1313.0</ele>
        <time>2019-05-04T13:44:46Z</time>
      </trkpt>
      <trkpt lat="38.916267" lon="-6.060700">
        <ele>1313.0</ele>
        <time>2019-05-04T13:44:47Z</time>
      </trkpt>
      <trkpt lat="38.916250" lon="-6.060500">
        <ele>1311.0</ele>
        <time>2019-05-04T13:44:48Z</time>
      </trkpt>
      <trkpt lat="38.916250" lon="-6.060317">
        <ele>1309.0</ele>
        <time>2019-05-04T13:44:49Z</time>
      </trkpt>
      <trkpt lat="38.916217" lon="-6.060167">
        <ele>1309.0</ele>
        <time>2019-05-04T13:44:50Z</time>
      </trkpt>
      <trkpt lat="38.916200" lon="-6.060033">
        <ele>1310.0</ele>
        <time>2019-05-04T13:44:51Z</time>
      </trkpt>
      <trkpt lat="38.916200" lon="-6.059917">
        <ele>1311.0</ele>
        <time>2019-05-04T13:44:52Z</time>
      </trkpt>
      <trkpt lat="38.916200" lon="-6.059800">
        <ele>1311.0</ele>
        <time>2019-05-04T13:44:53Z</time>
      </trkpt>
      <trkpt lat="38.916200" lon="-6.059683">
        <ele>1310.0</ele>
        <time>2019-05-04T13:44:54Z</time>
      </trkpt>
      <trkpt lat="38.916183" lon="-6.059533">
        <ele>1309.0</ele>
        <time>2019-05-04T13:44:55Z</time>
      </trkpt>
      <trkpt lat="38.916150" lon="-6.059417">
        <ele>1307.0</ele>
        <time>2019-05-04T13:44:56Z</time>
      </trkpt>
      <trkpt lat="38.916067" lon="-6.059333">
        <ele>1306.0</ele>
        <time>2019-05-04T13:44:57Z</time>
      </trkpt>
      <trkpt lat="38.916000" lon="-6.059267">
        <ele>1305.0</ele>
        <time>2019-05-04T13:44:58Z</time>
      </trkpt>
      <trkpt lat="38.915917" lon="-6.059233">
        <ele>1304.0</ele>
        <time>2019-05-04T13:44:59Z</time>
      </trkpt>
      <trkpt lat="38.915833" lon="-6.059217">
        <ele>1303.0</ele>
        <time>2019-05-04T13:45:00Z</time>
      </trkpt>
      <trkpt lat="38.915750" lon="-6.059233">
        <ele>1301.0</ele>
        <time>2019-05-04T13:45:01Z</time>
      </trkpt>
      <trkpt lat="38.915667" lon="-6.059283">
        <ele>1299.0</ele>
        <time>2019-05-04T13:45:02Z</time>
      </trkpt>
      <trkpt lat="38.915617" lon="-6.059367">
        <ele>1297.0</ele>
        <time>2019-05-04T13:45:03Z</time>
      </trkpt>
      <trkpt lat="38.915600" lon="-6.059450">
        <ele>1295.0</ele>
        <time>2019-05-04T13:45:04Z</time>
      </trkpt>
      <trkpt lat="38.915600" lon="-6.059533">
        <ele>1293.0</ele>
        <time>2019-05-04T13:45:05Z</time>
      </trkpt>
      <trkpt lat="38.915633" lon="-6.059600">
        <ele>1292.0</ele>
        <time>2019-05-04T13:45:06Z</time>
      </trkpt>
      <trkpt lat="38.915667" lon="-6.059650">
        <ele>1291.0</ele>
        <time>2019-05-04T13:45:07Z</time>
      </trkpt>
      <trkpt lat="38.915717" lon="-6.059700">
        <ele>1290.0</ele>
        <time>2019-05-04T13:45:08Z</time>
      </trkpt>
      <trkpt lat="38.915767" lon="-6.059717">
        <ele>1288.0</ele>
        <time>2019-05-04T13:45:09Z</time>
      </trkpt>
      <trkpt lat="38.915833" lon="-6.059733">
        <ele>1287.0</ele>
        <time>2019-05-04T13:45:10Z</time>
      </trkpt>
      <trkpt lat="38.915917" lon="-6.059700">
        <ele>1285.0</ele>
        <time>2019-05-04T13:45:11Z</time>
      </trkpt>
      <trkpt lat="38.915967" lon="-6.059633">
        <ele>1283.0</ele>
        <time>2019-05-04T13:45:12Z</time>
      </trkpt>
      <trkpt lat="38.916017" lon="-6.059517">
        <ele>1281.0</ele>
        <time>2019-05-04T13:45:13Z</time>
      </trkpt>
      <trkpt lat="38.916050" lon="-6.059383">
        <ele>1279.0</ele>
        <time>2019-05-04T13:45:14Z</time>
      </trkpt>
      <trkpt lat="38.916083" lon="-6.059233">
        <ele>1276.0</ele>
        <time>2019-05-04T13:45:15Z</time>
      </trkpt>
      <trkpt lat="38.916100" lon="-6.059100">
        <ele>1274.0</ele>
        <time>2019-05-04T13:45:16Z</time>
      </trkpt>
      <trkpt lat="38.916133" lon="-6.058967">
        <ele>1273.0</ele>
        <time>2019-05-04T13:45:17Z</time>
      </trkpt>
      <trkpt lat="38.916167" lon="-6.058850">
        <ele>1271.0</ele>
        <time>2019-05-04T13:45:18Z</time>
      </trkpt>
      <trkpt lat="38.916217" lon="-6.058733">
        <ele>1269.0</ele>
        <time>2019-05-04T13:45:19Z</time>
      </trkpt>
      <trkpt lat="38.916283" lon="-6.058633">
        <ele>1267.0</ele>
        <time>2019-05-04T13:45:20Z</time>
      </trkpt>
      <trkpt lat="38.916317" lon="-6.058517">
        <ele>1265.0</ele>
        <time>2019-05-04T13:45:21Z</time>
      </trkpt>
      <trkpt lat="38.916350" lon="-6.058417">
        <ele>1263.0</ele>
        <time>2019-05-04T13:45:22Z</time>
      </trkpt>
      <trkpt lat="38.916383" lon="-6.058317">
        <ele>1261.0</ele>
        <time>2019-05-04T13:45:23Z</time>
      </trkpt>
      <trkpt lat="38.916417" lon="-6.058200">
        <ele>1260.0</ele>
        <time>2019-05-04T13:45:24Z</time>
      </trkpt>
      <trkpt lat="38.916433" lon="-6.058083">
        <ele>1258.0</ele>
        <time>2019-05-04T13:45:25Z</time>
      </trkpt>
      <trkpt lat="38.916467" lon="-6.057967">
        <ele>1256.0</ele>
        <time>2019-05-04T13:45:26Z</time>
      </trkpt>
      <trkpt lat="38.916483" lon="-6.057850">
        <ele>1254.0</ele>
        <time>2019-05-04T13:45:27Z</time>
      </trkpt>
      <trkpt lat="38.916483" lon="-6.057733">
        <ele>1253.0</ele>
        <time>2019-05-04T13:45:28Z</time>
      </trkpt>
      <trkpt lat="38.916500" lon="-6.057633">
        <ele>1251.0</ele>
        <time>2019-05-04T13:45:29Z</time>
      </trkpt>
      <trkpt lat="38.916500" lon="-6.057533">
        <ele>1250.0</ele>
        <time>2019-05-04T13:45:30Z</time>
      </trkpt>
      <trkpt lat="38.916517" lon="-6.057417">
        <ele>1246.0</ele>
        <time>2019-05-04T13:45:31Z</time>
      </trkpt>
      <trkpt lat="38.916517" lon="-6.057300">
        <ele>1243.0</ele>
        <time>2019-05-04T13:45:32Z</time>
      </trkpt>
      <trkpt lat="38.916533" lon="-6.057183">
        <ele>1241.0</ele>
        <time>2019-05-04T13:45:33Z</time>
      </trkpt>
      <trkpt lat="38.916533" lon="-6.057050">
        <ele>1238.0</ele>
        <time>2019-05-04T13:45:34Z</time>
      </trkpt>
      <trkpt lat="38.916550" lon="-6.056933">
        <ele>1236.0</ele>
        <time>2019-05-04T13:45:35Z</time>
      </trkpt>
      <trkpt lat="38.916533" lon="-6.056817">
        <ele>1234.0</ele>
        <time>2019-05-04T13:45:36Z</time>
      </trkpt>
      <trkpt lat="38.916517" lon="-6.056700">
        <ele>1231.0</ele>
        <time>2019-05-04T13:45:37Z</time>
      </trkpt>
      <trkpt lat="38.916483" lon="-6.056583">
        <ele>1228.0</ele>
        <time>2019-05-04T13:45:38Z</time>
      </trkpt>
      <trkpt lat="38.916450" lon="-6.056467">
        <ele>1224.0</ele>
        <time>2019-05-04T13:45:39Z</time>
      </trkpt>
      <trkpt lat="38.916417" lon="-6.056350">
        <ele>1221.0</ele>
        <time>2019-05-04T13:45:40Z</time>
      </trkpt>
      <trkpt lat="38.916383" lon="-6.056217">
        <ele>1219.0</ele>
        <time>2019-05-04T13:45:41Z</time>
      </trkpt>
      <trkpt lat="38.916367" lon="-6.056100">
        <ele>1217.0</ele>
        <time>2019-05-04T13:45:42Z</time>
      </trkpt>
      <trkpt lat="38.916350" lon="-6.055983">
        <ele>1214.0</ele>
        <time>2019-05-04T13:45:43Z</time>
      </trkpt>
      <trkpt lat="38.916317" lon="-6.055867">
        <ele>1211.0</ele>
        <time>2019-05-04T13:45:44Z</time>
      </trkpt>
      <trkpt lat="38.916300" lon="-6.055750">
        <ele>1209.0</ele>
        <time>2019-05-04T13:45:45Z</time>
      </trkpt>
      <trkpt lat="38.916283" lon="-6.055650">
        <ele>1206.0</ele>
        <time>2019-05-04T13:45:46Z</time>
      </trkpt>
      <trkpt lat="38.916267" lon="-6.055517">
        <ele>1203.0</ele>
        <time>2019-05-04T13:45:47Z</time>
      </trkpt>
      <trkpt lat="38.916267" lon="-6.055400">
        <ele>1200.0</ele>
        <time>2019-05-04T13:45:48Z</time>
      </trkpt>
      <trkpt lat="38.916267" lon="-6.055267">
        <ele>1196.0</ele>
        <time>2019-05-04T13:45:49Z</time>
      </trkpt>
      <trkpt lat="38.916250" lon="-6.055133">
        <ele>1192.0</ele>
        <time>2019-05-04T13:45:50Z</time>
      </trkpt>
      <trkpt lat="38.916233" lon="-6.055017">
        <ele>1189.0</ele>
        <time>2019-05-04T13:45:51Z</time>
      </trkpt>
      <trkpt lat="38.916217" lon="-6.054917">
        <ele>1186.0</ele>
        <time>2019-05-04T13:45:52Z</time>
      </trkpt>
      <trkpt lat="38.916200" lon="-6.054800">
        <ele>1183.0</ele>
        <time>2019-05-04T13:45:53Z</time>
      </trkpt>
      <trkpt lat="38.916183" lon="-6.054700">
        <ele>1180.0</ele>
        <time>2019-05-04T13:45:54Z</time>
      </trkpt>
      <trkpt lat="38.916150" lon="-6.054583">
        <ele>1177.0</ele>
        <time>2019-05-04T13:45:55Z</time>
      </trkpt>
      <trkpt lat="38.916100" lon="-6.054500">
        <ele>1174.0</ele>
        <time>2019-05-04T13:45:56Z</time>
      </trkpt>
      <trkpt lat="38.916050" lon="-6.054400">
        <ele>1171.0</ele>
        <time>2019-05-04T13:45:57Z</time>
      </trkpt>
      <trkpt lat="38.916000" lon="-6.054317">
        <ele>1170.0</ele>
        <time>2019-05-04T13:45:58Z</time>
      </trkpt>
      <trkpt lat="38.915967" lon="-6.054233">
        <ele>1167.0</ele>
        <time>2019-05-04T13:45:59Z</time>
      </trkpt>
      <trkpt lat="38.915917" lon="-6.054150">
        <ele>1164.0</ele>
        <time>2019-05-04T13:46:00Z</time>
      </trkpt>
      <trkpt lat="38.915867" lon="-6.054050">
        <ele>1161.0</ele>
        <time>2019-05-04T13:46:01Z</time>
      </trkpt>
      <trkpt lat="38.915800" lon="-6.053950">
        <ele>1159.0</ele>
        <time>2019-05-04T13:46:02Z</time>
      </trkpt>
      <trkpt lat="38.915750" lon="-6.053850">
        <ele>1157.0</ele>
        <time>2019-05-04T13:46:03Z</time>
      </trkpt>
      <trkpt lat="38.915717" lon="-6.053767">
        <ele>1156.0</ele>
        <time>2019-05-04T13:46:04Z</time>
      </trkpt>
      <trkpt lat="38.915683" lon="-6.053683">
        <ele>1155.0</ele>
        <time>2019-05-04T13:46:05Z</time>
      </trkpt>
      <trkpt lat="38.915650" lon="-6.053600">
        <ele>1153.0</ele>
        <time>2019-05-04T13:46:06Z</time>
      </trkpt>
      <trkpt lat="38.915617" lon="-6.053500">
        <ele>1151.0</ele>
        <time>2019-05-04T13:46:07Z</time>
      </trkpt>
      <trkpt lat="38.915567" lon="-6.053383">
        <ele>1149.0</ele>
        <time>2019-05-04T13:46:08Z</time>
      </trkpt>
      <trkpt lat="38.915517" lon="-6.053283">
        <ele>1146.0</ele>
        <time>2019-05-04T13:46:09Z</time>
      </trkpt>
      <trkpt lat="38.915483" lon="-6.053183">
        <ele>1144.0</ele>
        <time>2019-05-04T13:46:10Z</time>
      </trkpt>
      <trkpt lat="38.915450" lon="-6.053083">
        <ele>1143.0</ele>
        <time>2019-05-04T13:46:11Z</time>
      </trkpt>
      <trkpt lat="38.915417" lon="-6.052983">
        <ele>1142.0</ele>
        <time>2019-05-04T13:46:12Z</time>
      </trkpt>
      <trkpt lat="38.915367" lon="-6.052883">
        <ele>1140.0</ele>
        <time>2019-05-04T13:46:13Z</time>
      </trkpt>
      <trkpt lat="38.915333" lon="-6.052783">
        <ele>1138.0</ele>
        <time>2019-05-04T13:46:14Z</time>
      </trkpt>
      <trkpt lat="38.915283" lon="-6.052667">
        <ele>1136.0</ele>
        <time>2019-05-04T13:46:15Z</time>
      </trkpt>
      <trkpt lat="38.915250" lon="-6.052567">
        <ele>1136.0</ele>
        <time>2019-05-04T13:46:16Z</time>
      </trkpt>
      <trkpt lat="38.915217" lon="-6.052483">
        <ele>1136.0</ele>
        <time>2019-05-04T13:46:17Z</time>
      </trkpt>
      <trkpt lat="38.915183" lon="-6.052417">
        <ele>1136.0</ele>
        <time>2019-05-04T13:46:18Z</time>
      </trkpt>
      <trkpt lat="38.915167" lon="-6.052350">
        <ele>1136.0</ele>
        <time>2019-05-04T13:46:19Z</time>
      </trkpt>
      <trkpt lat="38.915150" lon="-6.052283">
        <ele>1134.0</ele>
        <time>2019-05-04T13:46:20Z</time>
      </trkpt>
      <trkpt lat="38.915133" lon="-6.052200">
        <ele>1132.0</ele>
        <time>2019-05-04T13:46:21Z</time>
      </trkpt>
      <trkpt lat="38.915117" lon="-6.052117">
        <ele>1129.0</ele>
        <time>2019-05-04T13:46:22Z</time>
      </trkpt>
      <trkpt lat="38.915100" lon="-6.052017">
        <ele>1127.0</ele>
        <time>2019-05-04T13:46:23Z</time>
      </trkpt>
      <trkpt lat="38.915083" lon="-6.051950">
        <ele>1126.0</ele>
        <time>2019-05-04T13:46:24Z</time>
      </trkpt>
      <trkpt lat="38.915067" lon="-6.051867">
        <ele>1125.0</ele>
        <time>2019-05-04T13:46:25Z</time>
      </trkpt>
      <trkpt lat="38.915050" lon="-6.051800">
        <ele>1124.0</ele>
        <time>2019-05-04T13:46:26Z</time>
      </trkpt>
      <trkpt lat="38.915033" lon="-6.051717">
        <ele>1124.0</ele>
        <time>2019-05-04T13:46:27Z</time>
      </trkpt>
      <trkpt lat="38.915000" lon="-6.051650">
        <ele>1123.0</ele>
        <time>2019-05-04T13:46:28Z</time>
      </trkpt>
      <trkpt lat="38.914967" lon="-6.051583">
        <ele>1123.0</ele>
        <time>2019-05-04T13:46:29Z</time>
      </trkpt>
      <trkpt lat="38.914917" lon="-6.051500">
        <ele>1122.0</ele>
        <time>2019-05-04T13:46:30Z</time>
      </trkpt>
      <trkpt lat="38.914883" lon="-6.051433">
        <ele>1121.0</ele>
        <time>2019-05-04T13:46:31Z</time>
      </trkpt>
      <trkpt lat="38.914833" lon="-6.051350">
        <ele>1120.0</ele>
        <time>2019-05-04T13:46:32Z</time>
      </trkpt>
      <trkpt lat="38.914783" lon="-6.051267">
        <ele>1118.0</ele>
        <time>2019-05-04T13:46:33Z</time>
      </trkpt>
      <trkpt lat="38.914733" lon="-6.051167">
        <ele>1117.0</ele>
        <time>2019-05-04T13:46:34Z</time>
      </trkpt>
      <trkpt lat="38.914683" lon="-6.051083">
        <ele>1117.0</ele>
        <time>2019-05-04T13:46:35Z</time>
      </trkpt>
      <trkpt lat="38.914650" lon="-6.051017">
        <ele>1119.0</ele>
        <time>2019-05-04T13:46:36Z</time>
      </trkpt>
      <trkpt lat="38.914617" lon="-6.050967">
        <ele>1120.0</ele>
        <time>2019-05-04T13:46:37Z</time>
      </trkpt>
      <trkpt lat="38.914583" lon="-6.050900">
        <ele>1120.0</ele>
        <time>2019-05-04T13:46:38Z</time>
      </trkpt>
      <trkpt lat="38.914550" lon="-6.050833">
        <ele>1120.0</ele>
        <time>2019-05-04T13:46:39Z</time>
      </trkpt>
      <trkpt lat="38.914500" lon="-6.050750">
        <ele>1120.0</ele>
        <time>2019-05-04T13:46:40Z</time>
      </trkpt>
      <trkpt lat="38.914450" lon="-6.050667">
        <ele>1119.0</ele>
        <time>2019-05-04T13:46:41Z</time>
      </trkpt>
      <trkpt lat="38.914400" lon="-6.050600">
        <ele>1119.0</ele>
        <time>2019-05-04T13:46:42Z</time>
      </trkpt>
      <trkpt lat="38.914367" lon="-6.050533">
        <ele>1120.0</ele>
        <time>2019-05-04T13:46:43Z</time>
      </trkpt>
      <trkpt lat="38.914317" lon="-6.050483">
        <ele>1119.0</ele>
        <time>2019-05-04T13:46:44Z</time>
      </trkpt>
      <trkpt lat="38.914267" lon="-6.050417">
        <ele>1118.0</ele>
        <time>2019-05-04T13:46:45Z</time>
      </trkpt>
      <trkpt lat="38.914217" lon="-6.050350">
        <ele>1117.0</ele>
        <time>2019-05-04T13:46:46Z</time>
      </trkpt>
      <trkpt lat="38.914150" lon="-6.050267">
        <ele>1116.0</ele>
        <time>2019-05-04T13:46:47Z</time>
      </trkpt>
      <trkpt lat="38.914100" lon="-6.050200">
        <ele>1116.0</ele>
        <time>2019-05-04T13:46:48Z</time>
      </trkpt>
      <trkpt lat="38.914050" lon="-6.050150">
        <ele>1116.0</ele>
        <time>2019-05-04T13:46:49Z</time>
      </trkpt>
      <trkpt lat="38.914017" lon="-6.050100">
        <ele>1116.0</ele>
        <time>2019-05-04T13:46:50Z</time>
      </trkpt>
      <trkpt lat="38.913983" lon="-6.050033">
        <ele>1115.0</ele>
        <time>2019-05-04T13:46:51Z</time>
      </trkpt>
      <trkpt lat="38.913933" lon="-6.049983">
        <ele>1113.0</ele>
        <time>2019-05-04T13:46:52Z</time>
      </trkpt>
      <trkpt lat="38.913883" lon="-6.049917">
        <ele>1112.0</ele>
        <time>2019-05-04T13:46:53Z</time>
      </trkpt>
      <trkpt lat="38.913833" lon="-6.049833">
        <ele>1110.0</ele>
        <time>2019-05-04T13:46:54Z</time>
      </trkpt>
      <trkpt lat="38.913767" lon="-6.049767">
        <ele>1109.0</ele>
        <time>2019-05-04T13:46:55Z</time>
      </trkpt>
      <trkpt lat="38.913717" lon="-6.049700">
        <ele>1108.0</ele>
        <time>2019-05-04T13:46:56Z</time>
      </trkpt>
      <trkpt lat="38.913667" lon="-6.049633">
        <ele>1106.0</ele>
        <time>2019-05-04T13:46:57Z</time>
      </trkpt>
      <trkpt lat="38.913617" lon="-6.049567">
        <ele>1104.0</ele>
        <time>2019-05-04T13:46:58Z</time>
      </trkpt>
      <trkpt lat="38.913567" lon="-6.049500">
        <ele>1102.0</ele>
        <time>2019-05-04T13:46:59Z</time>
      </trkpt>
      <trkpt lat="38.913517" lon="-6.049417">
        <ele>1100.0</ele>
        <time>2019-05-04T13:47:00Z</time>
      </trkpt>
      <trkpt lat="38.913467" lon="-6.049333">
        <ele>1099.0</ele>
        <time>2019-05-04T13:47:01Z</time>
      </trkpt>
      <trkpt lat="38.913417" lon="-6.049267">
        <ele>1097.0</ele>
        <time>2019-05-04T13:47:02Z</time>
      </trkpt>
      <trkpt lat="38.913367" lon="-6.049200">
        <ele>1096.0</ele>
        <time>2019-05-04T13:47:03Z</time>
      </trkpt>
      <trkpt lat="38.913317" lon="-6.049117">
        <ele>1094.0</ele>
        <time>2019-05-04T13:47:04Z</time>
      </trkpt>
      <trkpt lat="38.913267" lon="-6.049033">
        <ele>1092.0</ele>
        <time>2019-05-04T13:47:05Z</time>
      </trkpt>
      <trkpt lat="38.913217" lon="-6.048950">
        <ele>1091.0</ele>
        <time>2019-05-04T13:47:06Z</time>
      </trkpt>
      <trkpt lat="38.913167" lon="-6.048867">
        <ele>1090.0</ele>
        <time>2019-05-04T13:47:07Z</time>
      </trkpt>
      <trkpt lat="38.913117" lon="-6.048767">
        <ele>1088.0</ele>
        <time>2019-05-04T13:47:08Z</time>
      </trkpt>
      <trkpt lat="38.913083" lon="-6.048667">
        <ele>1087.0</ele>
        <time>2019-05-04T13:47:09Z</time>
      </trkpt>
      <trkpt lat="38.913050" lon="-6.048567">
        <ele>1085.0</ele>
        <time>2019-05-04T13:47:10Z</time>
      </trkpt>
      <trkpt lat="38.913017" lon="-6.048467">
        <ele>1084.0</ele>
        <time>2019-05-04T13:47:11Z</time>
      </trkpt>
      <trkpt lat="38.913000" lon="-6.048367">
        <ele>1082.0</ele>
        <time>2019-05-04T13:47:12Z</time>
      </trkpt>
      <trkpt lat="38.912983" lon="-6.048267">
        <ele>1081.0</ele>
        <time>2019-05-04T13:47:13Z</time>
      </trkpt>
      <trkpt lat="38.912950" lon="-6.048167">
        <ele>1080.0</ele>
        <time>2019-05-04T13:47:14Z</time>
      </trkpt>
      <trkpt lat="38.912933" lon="-6.048067">
        <ele>1079.0</ele>
        <time>2019-05-04T13:47:15Z</time>
      </trkpt>
      <trkpt lat="38.912917" lon="-6.047950">
        <ele>1077.0</ele>
        <time>2019-05-04T13:47:16Z</time>
      </trkpt>
      <trkpt lat="38.912883" lon="-6.047850">
        <ele>1076.0</ele>
        <time>2019-05-04T13:47:17Z</time>
      </trkpt>
      <trkpt lat="38.912867" lon="-6.047733">
        <ele>1075.0</ele>
        <time>2019-05-04T13:47:18Z</time>
      </trkpt>
      <trkpt lat="38.912850" lon="-6.047617">
        <ele>1074.0</ele>
        <time>2019-05-04T13:47:19Z</time>
      </trkpt>
      <trkpt lat="38.912833" lon="-6.047517">
        <ele>1073.0</ele>
        <time>2019-05-04T13:47:20Z</time>
      </trkpt>
      <trkpt lat="38.912817" lon="-6.047433">
        <ele>1073.0</ele>
        <time>2019-05-04T13:47:21Z</time>
      </trkpt>
      <trkpt lat="38.912800" lon="-6.047333">
        <ele>1071.0</ele>
        <time>2019-05-04T13:47:22Z</time>
      </trkpt>
      <trkpt lat="38.912783" lon="-6.047233">
        <ele>1070.0</ele>
        <time>2019-05-04T13:47:23Z</time>
      </trkpt>
      <trkpt lat="38.912767" lon="-6.047117">
        <ele>1067.0</ele>
        <time>2019-05-04T13:47:24Z</time>
      </trkpt>
      <trkpt lat="38.912767" lon="-6.047000">
        <ele>1065.0</ele>
        <time>2019-05-04T13:47:25Z</time>
      </trkpt>
      <trkpt lat="38.912750" lon="-6.046900">
        <ele>1064.0</ele>
        <time>2019-05-04T13:47:26Z</time>
      </trkpt>
      <trkpt lat="38.912750" lon="-6.046800">
        <ele>1063.0</ele>
        <time>2019-05-04T13:47:27Z</time>
      </trkpt>
      <trkpt lat="38.912733" lon="-6.046700">
        <ele>1061.0</ele>
        <time>2019-05-04T13:47:28Z</time>
      </trkpt>
      <trkpt lat="38.912733" lon="-6.046583">
        <ele>1059.0</ele>
        <time>2019-05-04T13:47:29Z</time>
      </trkpt>
      <trkpt lat="38.912733" lon="-6.046483">
        <ele>1057.0</ele>
        <time>2019-05-04T13:47:30Z</time>
      </trkpt>
      <trkpt lat="38.912733" lon="-6.046367">
        <ele>1055.0</ele>
        <time>2019-05-04T13:47:31Z</time>
      </trkpt>
      <trkpt lat="38.912717" lon="-6.046267">
        <ele>1053.0</ele>
        <time>2019-05-04T13:47:32Z</time>
      </trkpt>
      <trkpt lat="38.912717" lon="-6.046150">
        <ele>1051.0</ele>
        <time>2019-05-04T13:47:33Z</time>
      </trkpt>
      <trkpt lat="38.912717" lon="-6.046033">
        <ele>1049.0</ele>
        <time>2019-05-04T13:47:34Z</time>
      </trkpt>
      <trkpt lat="38.912717" lon="-6.045933">
        <ele>1047.0</ele>
        <time>2019-05-04T13:47:35Z</time>
      </trkpt>
      <trkpt lat="38.912700" lon="-6.045817">
        <ele>1045.0</ele>
        <time>2019-05-04T13:47:36Z</time>
      </trkpt>
      <trkpt lat="38.912700" lon="-6.045700">
        <ele>1044.0</ele>
        <time>2019-05-04T13:47:37Z</time>
      </trkpt>
      <trkpt lat="38.912700" lon="-6.045583">
        <ele>1042.0</ele>
        <time>2019-05-04T13:47:38Z</time>
      </trkpt>
      <trkpt lat="38.912700" lon="-6.045467">
        <ele>1040.0</ele>
        <time>2019-05-04T13:47:39Z</time>
      </trkpt>
      <trkpt lat="38.912700" lon="-6.045350">
        <ele>1038.0</ele>
        <time>2019-05-04T13:47:40Z</time>
      </trkpt>
      <trkpt lat="38.912683" lon="-6.045233">
        <ele>1036.0</ele>
        <time>2019-05-04T13:47:41Z</time>
      </trkpt>
      <trkpt lat="38.912683" lon="-6.045117">
        <ele>1034.0</ele>
        <time>2019-05-04T13:47:42Z</time>
      </trkpt>
      <trkpt lat="38.912683" lon="-6.045000">
        <ele>1033.0</ele>
        <time>2019-05-04T13:47:43Z</time>
      </trkpt>
      <trkpt lat="38.912683" lon="-6.044883">
        <ele>1031.0</ele>
        <time>2019-05-04T13:47:44Z</time>
      </trkpt>
      <trkpt lat="38.912683" lon="-6.044767">
        <ele>1029.0</ele>
        <time>2019-05-04T13:47:45Z</time>
      </trkpt>
      <trkpt lat="38.912667" lon="-6.044650">
        <ele>1026.0</ele>
        <time>2019-05-04T13:47:46Z</time>
      </trkpt>
      <trkpt lat="38.912667" lon="-6.044533">
        <ele>1023.0</ele>
        <time>2019-05-04T13:47:47Z</time>
      </trkpt>
      <trkpt lat="38.912650" lon="-6.044400">
        <ele>1020.0</ele>
        <time>2019-05-04T13:47:48Z</time>
      </trkpt>
      <trkpt lat="38.912650" lon="-6.044283">
        <ele>1018.0</ele>
        <time>2019-05-04T13:47:49Z</time>
      </trkpt>
      <trkpt lat="38.912650" lon="-6.044167">
        <ele>1016.0</ele>
        <time>2019-05-04T13:47:50Z</time>
      </trkpt>
      <trkpt lat="38.912650" lon="-6.044050">
        <ele>1014.0</ele>
        <time>2019-05-04T13:47:51Z</time>
      </trkpt>
      <trkpt lat="38.912650" lon="-6.043933">
        <ele>1012.0</ele>
        <time>2019-05-04T13:47:52Z</time>
      </trkpt>
      <trkpt lat="38.912633" lon="-6.043833">
        <ele>1011.0</ele>
        <time>2019-05-04T13:47:53Z</time>
      </trkpt>
      <trkpt lat="38.912617" lon="-6.043733">
        <ele>1010.0</ele>
        <time>2019-05-04T13:47:54Z</time>
      </trkpt>
      <trkpt lat="38.912617" lon="-6.043650">
        <ele>1010.0</ele>
        <time>2019-05-04T13:47:55Z</time>
      </trkpt>
      <trkpt lat="38.912617" lon="-6.043550">
        <ele>1008.0</ele>
        <time>2019-05-04T13:47:56Z</time>
      </trkpt>
      <trkpt lat="38.912600" lon="-6.043433">
        <ele>1007.0</ele>
        <time>2019-05-04T13:47:57Z</time>
      </trkpt>
      <trkpt lat="38.912583" lon="-6.043317">
        <ele>1005.0</ele>
        <time>2019-05-04T13:47:58Z</time>
      </trkpt>
      <trkpt lat="38.912550" lon="-6.043183">
        <ele>1003.0</ele>
        <time>2019-05-04T13:47:59Z</time>
      </trkpt>
      <trkpt lat="38.912517" lon="-6.043050">
        <ele>1002.0</ele>
        <time>2019-05-04T13:48:00Z</time>
      </trkpt>
      <trkpt lat="38.912500" lon="-6.042933">
        <ele>1003.0</ele>
        <time>2019-05-04T13:48:01Z</time>
      </trkpt>
      <trkpt lat="38.912467" lon="-6.042833">
        <ele>1003.0</ele>
        <time>2019-05-04T13:48:02Z</time>
      </trkpt>
      <trkpt lat="38.912450" lon="-6.042717">
        <ele>1003.0</ele>
        <time>2019-05-04T13:48:03Z</time>
      </trkpt>
      <trkpt lat="38.912417" lon="-6.042617">
        <ele>1002.0</ele>
        <time>2019-05-04T13:48:04Z</time>
      </trkpt>
      <trkpt lat="38.912367" lon="-6.042500">
        <ele>1000.0</ele>
        <time>2019-05-04T13:48:05Z</time>
      </trkpt>
      <trkpt lat="38.912333" lon="-6.042367">
        <ele>998.0</ele>
        <time>2019-05-04T13:48:06Z</time>
      </trkpt>
      <trkpt lat="38.912300" lon="-6.042233">
        <ele>996.0</ele>
        <time>2019-05-04T13:48:07Z</time>
      </trkpt>
      <trkpt lat="38.912283" lon="-6.042083">
        <ele>994.0</ele>
        <time>2019-05-04T13:48:08Z</time>
      </trkpt>
      <trkpt lat="38.912267" lon="-6.041933">
        <ele>993.0</ele>
        <time>2019-05-04T13:48:09Z</time>
      </trkpt>
      <trkpt lat="38.912250" lon="-6.041817">
        <ele>993.0</ele>
        <time>2019-05-04T13:48:10Z</time>
      </trkpt>
      <trkpt lat="38.912233" lon="-6.041700">
        <ele>992.0</ele>
        <time>2019-05-04T13:48:11Z</time>
      </trkpt>
      <trkpt lat="38.912233" lon="-6.041583">
        <ele>991.0</ele>
        <time>2019-05-04T13:48:12Z</time>
      </trkpt>
      <trkpt lat="38.912217" lon="-6.041450">
        <ele>990.0</ele>
        <time>2019-05-04T13:48:13Z</time>
      </trkpt>
      <trkpt lat="38.912200" lon="-6.041317">
        <ele>988.0</ele>
        <time>2019-05-04T13:48:14Z</time>
      </trkpt>
      <trkpt lat="38.912200" lon="-6.041183">
        <ele>986.0</ele>
        <time>2019-05-04T13:48:15Z</time>
      </trkpt>
      <trkpt lat="38.912183" lon="-6.041050">
        <ele>984.0</ele>
        <time>2019-05-04T13:48:16Z</time>
      </trkpt>
      <trkpt lat="38.912183" lon="-6.040900">
        <ele>982.0</ele>
        <time>2019-05-04T13:48:17Z</time>
      </trkpt>
      <trkpt lat="38.912183" lon="-6.040767">
        <ele>981.0</ele>
        <time>2019-05-04T13:48:18Z</time>
      </trkpt>
      <trkpt lat="38.912183" lon="-6.040617">
        <ele>979.0</ele>
        <time>2019-05-04T13:48:19Z</time>
      </trkpt>
      <trkpt lat="38.912183" lon="-6.040483">
        <ele>977.0</ele>
        <time>2019-05-04T13:48:20Z</time>
      </trkpt>
      <trkpt lat="38.912183" lon="-6.040350">
        <ele>975.0</ele>
        <time>2019-05-04T13:48:21Z</time>
      </trkpt>
      <trkpt lat="38.912183" lon="-6.040217">
        <ele>974.0</ele>
        <time>2019-05-04T13:48:22Z</time>
      </trkpt>
      <trkpt lat="38.912183" lon="-6.040083">
        <ele>974.0</ele>
        <time>2019-05-04T13:48:23Z</time>
      </trkpt>
      <trkpt lat="38.912167" lon="-6.039967">
        <ele>974.0</ele>
        <time>2019-05-04T13:48:24Z</time>
      </trkpt>
      <trkpt lat="38.912167" lon="-6.039850">
        <ele>973.0</ele>
        <time>2019-05-04T13:48:25Z</time>
      </trkpt>
      <trkpt lat="38.912150" lon="-6.039717">
        <ele>972.0</ele>
        <time>2019-05-04T13:48:26Z</time>
      </trkpt>
      <trkpt lat="38.912133" lon="-6.039583">
        <ele>972.0</ele>
        <time>2019-05-04T13:48:27Z</time>
      </trkpt>
      <trkpt lat="38.912100" lon="-6.039450">
        <ele>972.0</ele>
        <time>2019-05-04T13:48:28Z</time>
      </trkpt>
      <trkpt lat="38.912083" lon="-6.039333">
        <ele>974.0</ele>
        <time>2019-05-04T13:48:29Z</time>
      </trkpt>
      <trkpt lat="38.912050" lon="-6.039217">
        <ele>974.0</ele>
        <time>2019-05-04T13:48:30Z</time>
      </trkpt>
      <trkpt lat="38.912017" lon="-6.039083">
        <ele>974.0</ele>
        <time>2019-05-04T13:48:31Z</time>
      </trkpt>
      <trkpt lat="38.912000" lon="-6.038967">
        <ele>975.0</ele>
        <time>2019-05-04T13:48:32Z</time>
      </trkpt>
      <trkpt lat="38.911967" lon="-6.038867">
        <ele>975.0</ele>
        <time>2019-05-04T13:48:33Z</time>
      </trkpt>
      <trkpt lat="38.911950" lon="-6.038750">
        <ele>975.0</ele>
        <time>2019-05-04T13:48:34Z</time>
      </trkpt>
      <trkpt lat="38.911933" lon="-6.038617">
        <ele>974.0</ele>
        <time>2019-05-04T13:48:35Z</time>
      </trkpt>
      <trkpt lat="38.911900" lon="-6.038483">
        <ele>974.0</ele>
        <time>2019-05-04T13:48:36Z</time>
      </trkpt>
      <trkpt lat="38.911850" lon="-6.038350">
        <ele>974.0</ele>
        <time>2019-05-04T13:48:37Z</time>
      </trkpt>
      <trkpt lat="38.911833" lon="-6.038217">
        <ele>974.0</ele>
        <time>2019-05-04T13:48:38Z</time>
      </trkpt>
      <trkpt lat="38.911817" lon="-6.038067">
        <ele>973.0</ele>
        <time>2019-05-04T13:48:39Z</time>
      </trkpt>
      <trkpt lat="38.911800" lon="-6.037950">
        <ele>973.0</ele>
        <time>2019-05-04T13:48:40Z</time>
      </trkpt>
      <trkpt lat="38.911800" lon="-6.037817">
        <ele>973.0</ele>
        <time>2019-05-04T13:48:41Z</time>
      </trkpt>
      <trkpt lat="38.911783" lon="-6.037700">
        <ele>973.0</ele>
        <time>2019-05-04T13:48:42Z</time>
      </trkpt>
      <trkpt lat="38.911767" lon="-6.037567">
        <ele>971.0</ele>
        <time>2019-05-04T13:48:43Z</time>
      </trkpt>
      <trkpt lat="38.911750" lon="-6.037433">
        <ele>970.0</ele>
        <time>2019-05-04T13:48:44Z</time>
      </trkpt>
      <trkpt lat="38.911750" lon="-6.037300">
        <ele>968.0</ele>
        <time>2019-05-04T13:48:45Z</time>
      </trkpt>
      <trkpt lat="38.911733" lon="-6.037167">
        <ele>967.0</ele>
        <time>2019-05-04T13:48:46Z</time>
      </trkpt>
      <trkpt lat="38.911717" lon="-6.037050">
        <ele>967.0</ele>
        <time>2019-05-04T13:48:47Z</time>
      </trkpt>
      <trkpt lat="38.911700" lon="-6.036950">
        <ele>966.0</ele>
        <time>2019-05-04T13:48:48Z</time>
      </trkpt>
      <trkpt lat="38.911683" lon="-6.036850">
        <ele>964.0</ele>
        <time>2019-05-04T13:48:49Z</time>
      </trkpt>
      <trkpt lat="38.911667" lon="-6.036733">
        <ele>962.0</ele>
        <time>2019-05-04T13:48:50Z</time>
      </trkpt>
      <trkpt lat="38.911650" lon="-6.036617">
        <ele>960.0</ele>
        <time>2019-05-04T13:48:51Z</time>
      </trkpt>
      <trkpt lat="38.911633" lon="-6.036500">
        <ele>957.0</ele>
        <time>2019-05-04T13:48:52Z</time>
      </trkpt>
      <trkpt lat="38.911617" lon="-6.036383">
        <ele>955.0</ele>
        <time>2019-05-04T13:48:53Z</time>
      </trkpt>
      <trkpt lat="38.911617" lon="-6.036283">
        <ele>952.0</ele>
        <time>2019-05-04T13:48:54Z</time>
      </trkpt>
      <trkpt lat="38.911617" lon="-6.036167">
        <ele>949.0</ele>
        <time>2019-05-04T13:48:55Z</time>
      </trkpt>
      <trkpt lat="38.911617" lon="-6.036067">
        <ele>946.0</ele>
        <time>2019-05-04T13:48:56Z</time>
      </trkpt>
      <trkpt lat="38.911617" lon="-6.035950">
        <ele>943.0</ele>
        <time>2019-05-04T13:48:57Z</time>
      </trkpt>
      <trkpt lat="38.911617" lon="-6.035850">
        <ele>941.0</ele>
        <time>2019-05-04T13:48:58Z</time>
      </trkpt>
      <trkpt lat="38.911617" lon="-6.035750">
        <ele>938.0</ele>
        <time>2019-05-04T13:48:59Z</time>
      </trkpt>
      <trkpt lat="38.911600" lon="-6.035633">
        <ele>935.0</ele>
        <time>2019-05-04T13:49:00Z</time>
      </trkpt>
      <trkpt lat="38.911617" lon="-6.035533">
        <ele>932.0</ele>
        <time>2019-05-04T13:49:01Z</time>
      </trkpt>
      <trkpt lat="38.911617" lon="-6.035417">
        <ele>928.0</ele>
        <time>2019-05-04T13:49:02Z</time>
      </trkpt>
      <trkpt lat="38.911617" lon="-6.035300">
        <ele>925.0</ele>
        <time>2019-05-04T13:49:03Z</time>
      </trkpt>
      <trkpt lat="38.911617" lon="-6.035183">
        <ele>922.0</ele>
        <time>2019-05-04T13:49:04Z</time>
      </trkpt>
      <trkpt lat="38.911617" lon="-6.035083">
        <ele>919.0</ele>
        <time>2019-05-04T13:49:05Z</time>
      </trkpt>
      <trkpt lat="38.911617" lon="-6.034983">
        <ele>917.0</ele>
        <time>2019-05-04T13:49:06Z</time>
      </trkpt>
      <trkpt lat="38.911617" lon="-6.034867">
        <ele>914.0</ele>
        <time>2019-05-04T13:49:07Z</time>
      </trkpt>
      <trkpt lat="38.911633" lon="-6.034767">
        <ele>911.0</ele>
        <time>2019-05-04T13:49:08Z</time>
      </trkpt>
      <trkpt lat="38.911633" lon="-6.034650">
        <ele>907.0</ele>
        <time>2019-05-04T13:49:09Z</time>
      </trkpt>
      <trkpt lat="38.911650" lon="-6.034533">
        <ele>904.0</ele>
        <time>2019-05-04T13:49:10Z</time>
      </trkpt>
      <trkpt lat="38.911667" lon="-6.034450">
        <ele>902.0</ele>
        <time>2019-05-04T13:49:11Z</time>
      </trkpt>
      <trkpt lat="38.911667" lon="-6.034350">
        <ele>900.0</ele>
        <time>2019-05-04T13:49:12Z</time>
      </trkpt>
      <trkpt lat="38.911683" lon="-6.034250">
        <ele>898.0</ele>
        <time>2019-05-04T13:49:13Z</time>
      </trkpt>
      <trkpt lat="38.911683" lon="-6.034167">
        <ele>896.0</ele>
        <time>2019-05-04T13:49:14Z</time>
      </trkpt>
      <trkpt lat="38.911700" lon="-6.034050">
        <ele>894.0</ele>
        <time>2019-05-04T13:49:15Z</time>
      </trkpt>
      <trkpt lat="38.911717" lon="-6.033967">
        <ele>892.0</ele>
        <time>2019-05-04T13:49:16Z</time>
      </trkpt>
      <trkpt lat="38.911733" lon="-6.033867">
        <ele>891.0</ele>
        <time>2019-05-04T13:49:17Z</time>
      </trkpt>
      <trkpt lat="38.911733" lon="-6.033783">
        <ele>889.0</ele>
        <time>2019-05-04T13:49:18Z</time>
      </trkpt>
      <trkpt lat="38.911750" lon="-6.033683">
        <ele>887.0</ele>
        <time>2019-05-04T13:49:19Z</time>
      </trkpt>
      <trkpt lat="38.911750" lon="-6.033583">
        <ele>885.0</ele>
        <time>2019-05-04T13:49:20Z</time>
      </trkpt>
      <trkpt lat="38.911767" lon="-6.033483">
        <ele>881.0</ele>
        <time>2019-05-04T13:49:21Z</time>
      </trkpt>
      <trkpt lat="38.911783" lon="-6.033383">
        <ele>878.0</ele>
        <time>2019-05-04T13:49:22Z</time>
      </trkpt>
      <trkpt lat="38.911800" lon="-6.033267">
        <ele>875.0</ele>
        <time>2019-05-04T13:49:23Z</time>
      </trkpt>
      <trkpt lat="38.911800" lon="-6.033167">
        <ele>872.0</ele>
        <time>2019-05-04T13:49:24Z</time>
      </trkpt>
      <trkpt lat="38.911817" lon="-6.033050">
        <ele>869.0</ele>
        <time>2019-05-04T13:49:25Z</time>
      </trkpt>
      <trkpt lat="38.911833" lon="-6.032917">
        <ele>865.0</ele>
        <time>2019-05-04T13:49:26Z</time>
      </trkpt>
      <trkpt lat="38.911833" lon="-6.032783">
        <ele>860.0</ele>
        <time>2019-05-04T13:49:27Z</time>
      </trkpt>
      <trkpt lat="38.911833" lon="-6.032667">
        <ele>857.0</ele>
        <time>2019-05-04T13:49:28Z</time>
      </trkpt>
      <trkpt lat="38.911833" lon="-6.032533">
        <ele>855.0</ele>
        <time>2019-05-04T13:49:29Z</time>
      </trkpt>
      <trkpt lat="38.911817" lon="-6.032417">
        <ele>852.0</ele>
        <time>2019-05-04T13:49:30Z</time>
      </trkpt>
      <trkpt lat="38.911817" lon="-6.032283">
        <ele>849.0</ele>
        <time>2019-05-04T13:49:31Z</time>
      </trkpt>
      <trkpt lat="38.911817" lon="-6.032150">
        <ele>846.0</ele>
        <time>2019-05-04T13:49:32Z</time>
      </trkpt>
      <trkpt lat="38.911817" lon="-6.032000">
        <ele>842.0</ele>
        <time>2019-05-04T13:49:33Z</time>
      </trkpt>
      <trkpt lat="38.911800" lon="-6.031850">
        <ele>839.0</ele>
        <time>2019-05-04T13:49:34Z</time>
      </trkpt>
      <trkpt lat="38.911783" lon="-6.031717">
        <ele>838.0</ele>
        <time>2019-05-04T13:49:35Z</time>
      </trkpt>
      <trkpt lat="38.911767" lon="-6.031600">
        <ele>837.0</ele>
        <time>2019-05-04T13:49:36Z</time>
      </trkpt>
      <trkpt lat="38.911767" lon="-6.031500">
        <ele>835.0</ele>
        <time>2019-05-04T13:49:37Z</time>
      </trkpt>
      <trkpt lat="38.911750" lon="-6.031383">
        <ele>834.0</ele>
        <time>2019-05-04T13:49:38Z</time>
      </trkpt>
      <trkpt lat="38.911750" lon="-6.031267">
        <ele>832.0</ele>
        <time>2019-05-04T13:49:39Z</time>
      </trkpt>
      <trkpt lat="38.911750" lon="-6.031150">
        <ele>830.0</ele>
        <time>2019-05-04T13:49:40Z</time>
      </trkpt>
      <trkpt lat="38.911750" lon="-6.031017">
        <ele>828.0</ele>
        <time>2019-05-04T13:49:41Z</time>
      </trkpt>
      <trkpt lat="38.911767" lon="-6.030900">
        <ele>827.0</ele>
        <time>2019-05-04T13:49:42Z</time>
      </trkpt>
      <trkpt lat="38.911767" lon="-6.030783">
        <ele>825.0</ele>
        <time>2019-05-04T13:49:43Z</time>
      </trkpt>
      <trkpt lat="38.911767" lon="-6.030650">
        <ele>823.0</ele>
        <time>2019-05-04T13:49:44Z</time>
      </trkpt>
      <trkpt lat="38.911750" lon="-6.030517">
        <ele>820.0</ele>
        <time>2019-05-04T13:49:45Z</time>
      </trkpt>
      <trkpt lat="38.911750" lon="-6.030117">
        <ele>0.0</ele>
        <time>2019-05-04T13:49:47Z</time>
      </trkpt>
      <trkpt lat="38.911733" lon="-6.030000">
        <ele>819.0</ele>
        <time>2019-05-04T13:49:48Z</time>
      </trkpt>
      <trkpt lat="38.911733" lon="-6.029883">
        <ele>821.0</ele>
        <time>2019-05-04T13:49:49Z</time>
      </trkpt>
      <trkpt lat="38.911733" lon="-6.029750">
        <ele>818.0</ele>
        <time>2019-05-04T13:49:50Z</time>
      </trkpt>
      <trkpt lat="38.911733" lon="-6.029600">
        <ele>815.0</ele>
        <time>2019-05-04T13:49:51Z</time>
      </trkpt>
      <trkpt lat="38.911733" lon="-6.029450">
        <ele>813.0</ele>
        <time>2019-05-04T13:49:52Z</time>
      </trkpt>
      <trkpt lat="38.911750" lon="-6.029317">
        <ele>811.0</ele>
        <time>2019-05-04T13:49:53Z</time>
      </trkpt>
      <trkpt lat="38.911750" lon="-6.029167">
        <ele>810.0</ele>
        <time>2019-05-04T13:49:54Z</time>
      </trkpt>
      <trkpt lat="38.911750" lon="-6.029033">
        <ele>809.0</ele>
        <time>2019-05-04T13:49:55Z</time>
      </trkpt>
      <trkpt lat="38.911717" lon="-6.028917">
        <ele>808.0</ele>
        <time>2019-05-04T13:49:56Z</time>
      </trkpt>
      <trkpt lat="38.911700" lon="-6.028783">
        <ele>807.0</ele>
        <time>2019-05-04T13:49:57Z</time>
      </trkpt>
      <trkpt lat="38.911683" lon="-6.028667">
        <ele>806.0</ele>
        <time>2019-05-04T13:49:58Z</time>
      </trkpt>
      <trkpt lat="38.911667" lon="-6.028533">
        <ele>804.0</ele>
        <time>2019-05-04T13:49:59Z</time>
      </trkpt>
      <trkpt lat="38.911667" lon="-6.028417">
        <ele>801.0</ele>
        <time>2019-05-04T13:50:00Z</time>
      </trkpt>
      <trkpt lat="38.911667" lon="-6.028283">
        <ele>797.0</ele>
        <time>2019-05-04T13:50:01Z</time>
      </trkpt>
      <trkpt lat="38.911667" lon="-6.028150">
        <ele>795.0</ele>
        <time>2019-05-04T13:50:02Z</time>
      </trkpt>
      <trkpt lat="38.911667" lon="-6.028017">
        <ele>793.0</ele>
        <time>2019-05-04T13:50:03Z</time>
      </trkpt>
      <trkpt lat="38.911667" lon="-6.027883">
        <ele>791.0</ele>
        <time>2019-05-04T13:50:04Z</time>
      </trkpt>
      <trkpt lat="38.911683" lon="-6.027750">
        <ele>788.0</ele>
        <time>2019-05-04T13:50:05Z</time>
      </trkpt>
      <trkpt lat="38.911683" lon="-6.027617">
        <ele>785.0</ele>
        <time>2019-05-04T13:50:06Z</time>
      </trkpt>
      <trkpt lat="38.911683" lon="-6.027483">
        <ele>782.0</ele>
        <time>2019-05-04T13:50:07Z</time>
      </trkpt>
      <trkpt lat="38.911667" lon="-6.027333">
        <ele>780.0</ele>
        <time>2019-05-04T13:50:08Z</time>
      </trkpt>
      <trkpt lat="38.911667" lon="-6.027167">
        <ele>777.0</ele>
        <time>2019-05-04T13:50:09Z</time>
      </trkpt>
      <trkpt lat="38.911667" lon="-6.027000">
        <ele>775.0</ele>
        <time>2019-05-04T13:50:10Z</time>
      </trkpt>
      <trkpt lat="38.911667" lon="-6.026867">
        <ele>776.0</ele>
        <time>2019-05-04T13:50:11Z</time>
      </trkpt>
      <trkpt lat="38.911667" lon="-6.026750">
        <ele>778.0</ele>
        <time>2019-05-04T13:50:12Z</time>
      </trkpt>
      <trkpt lat="38.911667" lon="-6.026650">
        <ele>778.0</ele>
        <time>2019-05-04T13:50:13Z</time>
      </trkpt>
      <trkpt lat="38.911633" lon="-6.026550">
        <ele>777.0</ele>
        <time>2019-05-04T13:50:14Z</time>
      </trkpt>
      <trkpt lat="38.911617" lon="-6.026450">
        <ele>776.0</ele>
        <time>2019-05-04T13:50:15Z</time>
      </trkpt>
      <trkpt lat="38.911600" lon="-6.026333">
        <ele>773.0</ele>
        <time>2019-05-04T13:50:16Z</time>
      </trkpt>
      <trkpt lat="38.911600" lon="-6.026200">
        <ele>770.0</ele>
        <time>2019-05-04T13:50:17Z</time>
      </trkpt>
      <trkpt lat="38.911583" lon="-6.026067">
        <ele>768.0</ele>
        <time>2019-05-04T13:50:18Z</time>
      </trkpt>
      <trkpt lat="38.911567" lon="-6.025950">
        <ele>767.0</ele>
        <time>2019-05-04T13:50:19Z</time>
      </trkpt>
      <trkpt lat="38.911550" lon="-6.025833">
        <ele>766.0</ele>
        <time>2019-05-04T13:50:20Z</time>
      </trkpt>
      <trkpt lat="38.911533" lon="-6.025733">
        <ele>764.0</ele>
        <time>2019-05-04T13:50:21Z</time>
      </trkpt>
      <trkpt lat="38.911517" lon="-6.025600">
        <ele>762.0</ele>
        <time>2019-05-04T13:50:22Z</time>
      </trkpt>
      <trkpt lat="38.911500" lon="-6.025467">
        <ele>760.0</ele>
        <time>2019-05-04T13:50:23Z</time>
      </trkpt>
      <trkpt lat="38.911483" lon="-6.025350">
        <ele>758.0</ele>
        <time>2019-05-04T13:50:24Z</time>
      </trkpt>
      <trkpt lat="38.911483" lon="-6.025217">
        <ele>756.0</ele>
        <time>2019-05-04T13:50:25Z</time>
      </trkpt>
      <trkpt lat="38.911467" lon="-6.025100">
        <ele>754.0</ele>
        <time>2019-05-04T13:50:26Z</time>
      </trkpt>
      <trkpt lat="38.911467" lon="-6.024983">
        <ele>752.0</ele>
        <time>2019-05-04T13:50:27Z</time>
      </trkpt>
      <trkpt lat="38.911483" lon="-6.024850">
        <ele>750.0</ele>
        <time>2019-05-04T13:50:28Z</time>
      </trkpt>
      <trkpt lat="38.911483" lon="-6.024733">
        <ele>748.0</ele>
        <time>2019-05-04T13:50:29Z</time>
      </trkpt>
      <trkpt lat="38.911483" lon="-6.024600">
        <ele>745.0</ele>
        <time>2019-05-04T13:50:30Z</time>
      </trkpt>
      <trkpt lat="38.911483" lon="-6.024467">
        <ele>742.0</ele>
        <time>2019-05-04T13:50:31Z</time>
      </trkpt>
      <trkpt lat="38.911483" lon="-6.024350">
        <ele>740.0</ele>
        <time>2019-05-04T13:50:32Z</time>
      </trkpt>
      <trkpt lat="38.911483" lon="-6.024217">
        <ele>738.0</ele>
        <time>2019-05-04T13:50:33Z</time>
      </trkpt>
      <trkpt lat="38.911467" lon="-6.024100">
        <ele>736.0</ele>
        <time>2019-05-04T13:50:34Z</time>
      </trkpt>
      <trkpt lat="38.911467" lon="-6.023967">
        <ele>735.0</ele>
        <time>2019-05-04T13:50:35Z</time>
      </trkpt>
      <trkpt lat="38.911467" lon="-6.023833">
        <ele>733.0</ele>
        <time>2019-05-04T13:50:36Z</time>
      </trkpt>
      <trkpt lat="38.911483" lon="-6.023717">
        <ele>732.0</ele>
        <time>2019-05-04T13:50:37Z</time>
      </trkpt>
      <trkpt lat="38.911500" lon="-6.023583">
        <ele>731.0</ele>
        <time>2019-05-04T13:50:38Z</time>
      </trkpt>
      <trkpt lat="38.911500" lon="-6.023450">
        <ele>729.0</ele>
        <time>2019-05-04T13:50:39Z</time>
      </trkpt>
      <trkpt lat="38.911517" lon="-6.023317">
        <ele>728.0</ele>
        <time>2019-05-04T13:50:40Z</time>
      </trkpt>
      <trkpt lat="38.911533" lon="-6.023183">
        <ele>726.0</ele>
        <time>2019-05-04T13:50:41Z</time>
      </trkpt>
      <trkpt lat="38.911550" lon="-6.023033">
        <ele>724.0</ele>
        <time>2019-05-04T13:50:42Z</time>
      </trkpt>
      <trkpt lat="38.911550" lon="-6.022900">
        <ele>723.0</ele>
        <time>2019-05-04T13:50:43Z</time>
      </trkpt>
      <trkpt lat="38.911517" lon="-6.022783">
        <ele>722.0</ele>
        <time>2019-05-04T13:50:44Z</time>
      </trkpt>
      <trkpt lat="38.911483" lon="-6.022667">
        <ele>723.0</ele>
        <time>2019-05-04T13:50:45Z</time>
      </trkpt>
      <trkpt lat="38.911433" lon="-6.022533">
        <ele>723.0</ele>
        <time>2019-05-04T13:50:46Z</time>
      </trkpt>
      <trkpt lat="38.911400" lon="-6.022417">
        <ele>724.0</ele>
        <time>2019-05-04T13:50:47Z</time>
      </trkpt>
      <trkpt lat="38.911333" lon="-6.022283">
        <ele>724.0</ele>
        <time>2019-05-04T13:50:48Z</time>
      </trkpt>
      <trkpt lat="38.911283" lon="-6.022150">
        <ele>729.0</ele>
        <time>2019-05-04T13:50:49Z</time>
      </trkpt>
      <trkpt lat="38.911233" lon="-6.022033">
        <ele>734.0</ele>
        <time>2019-05-04T13:50:50Z</time>
      </trkpt>
      <trkpt lat="38.911183" lon="-6.021933">
        <ele>736.0</ele>
        <time>2019-05-04T13:50:51Z</time>
      </trkpt>
      <trkpt lat="38.911133" lon="-6.021833">
        <ele>737.0</ele>
        <time>2019-05-04T13:50:52Z</time>
      </trkpt>
      <trkpt lat="38.911083" lon="-6.021717">
        <ele>738.0</ele>
        <time>2019-05-04T13:50:53Z</time>
      </trkpt>
      <trkpt lat="38.911017" lon="-6.021617">
        <ele>739.0</ele>
        <time>2019-05-04T13:50:54Z</time>
      </trkpt>
      <trkpt lat="38.910950" lon="-6.021517">
        <ele>740.0</ele>
        <time>2019-05-04T13:50:55Z</time>
      </trkpt>
      <trkpt lat="38.910867" lon="-6.021467">
        <ele>741.0</ele>
        <time>2019-05-04T13:50:56Z</time>
      </trkpt>
      <trkpt lat="38.910783" lon="-6.021450">
        <ele>742.0</ele>
        <time>2019-05-04T13:50:57Z</time>
      </trkpt>
      <trkpt lat="38.910717" lon="-6.021467">
        <ele>742.0</ele>
        <time>2019-05-04T13:50:58Z</time>
      </trkpt>
      <trkpt lat="38.910650" lon="-6.021500">
        <ele>742.0</ele>
        <time>2019-05-04T13:50:59Z</time>
      </trkpt>
      <trkpt lat="38.910600" lon="-6.021533">
        <ele>742.0</ele>
        <time>2019-05-04T13:51:00Z</time>
      </trkpt>
      <trkpt lat="38.910567" lon="-6.021583">
        <ele>742.0</ele>
        <time>2019-05-04T13:51:01Z</time>
      </trkpt>
      <trkpt lat="38.910550" lon="-6.021650">
        <ele>742.0</ele>
        <time>2019-05-04T13:51:02Z</time>
      </trkpt>
      <trkpt lat="38.910550" lon="-6.021733">
        <ele>741.0</ele>
        <time>2019-05-04T13:51:03Z</time>
      </trkpt>
      <trkpt lat="38.910567" lon="-6.021833">
        <ele>741.0</ele>
        <time>2019-05-04T13:51:04Z</time>
      </trkpt>
      <trkpt lat="38.910600" lon="-6.021900">
        <ele>741.0</ele>
        <time>2019-05-04T13:51:05Z</time>
      </trkpt>
      <trkpt lat="38.910650" lon="-6.021950">
        <ele>740.0</ele>
        <time>2019-05-04T13:51:06Z</time>
      </trkpt>
      <trkpt lat="38.910733" lon="-6.021967">
        <ele>739.0</ele>
        <time>2019-05-04T13:51:07Z</time>
      </trkpt>
      <trkpt lat="38.910800" lon="-6.021983">
        <ele>738.0</ele>
        <time>2019-05-04T13:51:08Z</time>
      </trkpt>
      <trkpt lat="38.910883" lon="-6.021950">
        <ele>738.0</ele>
        <time>2019-05-04T13:51:09Z</time>
      </trkpt>
      <trkpt lat="38.910967" lon="-6.021900">
        <ele>737.0</ele>
        <time>2019-05-04T13:51:10Z</time>
      </trkpt>
      <trkpt lat="38.911033" lon="-6.021800">
        <ele>737.0</ele>
        <time>2019-05-04T13:51:11Z</time>
      </trkpt>
      <trkpt lat="38.911100" lon="-6.021700">
        <ele>737.0</ele>
        <time>2019-05-04T13:51:12Z</time>
      </trkpt>
      <trkpt lat="38.911150" lon="-6.021583">
        <ele>737.0</ele>
        <time>2019-05-04T13:51:13Z</time>
      </trkpt>
      <trkpt lat="38.911183" lon="-6.021483">
        <ele>738.0</ele>
        <time>2019-05-04T13:51:14Z</time>
      </trkpt>
      <trkpt lat="38.911200" lon="-6.021383">
        <ele>738.0</ele>
        <time>2019-05-04T13:51:15Z</time>
      </trkpt>
      <trkpt lat="38.911250" lon="-6.021267">
        <ele>737.0</ele>
        <time>2019-05-04T13:51:16Z</time>
      </trkpt>
      <trkpt lat="38.911283" lon="-6.021167">
        <ele>738.0</ele>
        <time>2019-05-04T13:51:17Z</time>
      </trkpt>
      <trkpt lat="38.911300" lon="-6.021067">
        <ele>738.0</ele>
        <time>2019-05-04T13:51:18Z</time>
      </trkpt>
      <trkpt lat="38.911300" lon="-6.020967">
        <ele>738.0</ele>
        <time>2019-05-04T13:51:19Z</time>
      </trkpt>
      <trkpt lat="38.911300" lon="-6.020867">
        <ele>739.0</ele>
        <time>2019-05-04T13:51:20Z</time>
      </trkpt>
      <trkpt lat="38.911283" lon="-6.020750">
        <ele>740.0</ele>
        <time>2019-05-04T13:51:21Z</time>
      </trkpt>
      <trkpt lat="38.911250" lon="-6.020633">
        <ele>741.0</ele>
        <time>2019-05-04T13:51:22Z</time>
      </trkpt>
      <trkpt lat="38.911183" lon="-6.020533">
        <ele>743.0</ele>
        <time>2019-05-04T13:51:23Z</time>
      </trkpt>
      <trkpt lat="38.911100" lon="-6.020467">
        <ele>745.0</ele>
        <time>2019-05-04T13:51:24Z</time>
      </trkpt>
      <trkpt lat="38.911000" lon="-6.020450">
        <ele>748.0</ele>
        <time>2019-05-04T13:51:25Z</time>
      </trkpt>
      <trkpt lat="38.910917" lon="-6.020450">
        <ele>752.0</ele>
        <time>2019-05-04T13:51:26Z</time>
      </trkpt>
      <trkpt lat="38.910867" lon="-6.020500">
        <ele>757.0</ele>
        <time>2019-05-04T13:51:27Z</time>
      </trkpt>
      <trkpt lat="38.910833" lon="-6.020567">
        <ele>760.0</ele>
        <time>2019-05-04T13:51:28Z</time>
      </trkpt>
      <trkpt lat="38.910833" lon="-6.020650">
        <ele>762.0</ele>
        <time>2019-05-04T13:51:29Z</time>
      </trkpt>
      <trkpt lat="38.910833" lon="-6.020717">
        <ele>764.0</ele>
        <time>2019-05-04T13:51:30Z</time>
      </trkpt>
      <trkpt lat="38.910883" lon="-6.020767">
        <ele>766.0</ele>
        <time>2019-05-04T13:51:31Z</time>
      </trkpt>
      <trkpt lat="38.910950" lon="-6.020800">
        <ele>767.0</ele>
        <time>2019-05-04T13:51:32Z</time>
      </trkpt>
      <trkpt lat="38.911033" lon="-6.020817">
        <ele>769.0</ele>
        <time>2019-05-04T13:51:33Z</time>
      </trkpt>
      <trkpt lat="38.911100" lon="-6.020783">
        <ele>771.0</ele>
        <time>2019-05-04T13:51:34Z</time>
      </trkpt>
      <trkpt lat="38.911167" lon="-6.020717">
        <ele>774.0</ele>
        <time>2019-05-04T13:51:35Z</time>
      </trkpt>
      <trkpt lat="38.911217" lon="-6.020650">
        <ele>776.0</ele>
        <time>2019-05-04T13:51:36Z</time>
      </trkpt>
      <trkpt lat="38.911267" lon="-6.020600">
        <ele>779.0</ele>
        <time>2019-05-04T13:51:37Z</time>
      </trkpt>
      <trkpt lat="38.911317" lon="-6.020533">
        <ele>782.0</ele>
        <time>2019-05-04T13:51:38Z</time>
      </trkpt>
      <trkpt lat="38.911383" lon="-6.020450">
        <ele>785.0</ele>
        <time>2019-05-04T13:51:39Z</time>
      </trkpt>
      <trkpt lat="38.911417" lon="-6.020333">
        <ele>787.0</ele>
        <time>2019-05-04T13:51:40Z</time>
      </trkpt>
      <trkpt lat="38.911417" lon="-6.020200">
        <ele>789.0</ele>
        <time>2019-05-04T13:51:41Z</time>
      </trkpt>
      <trkpt lat="38.911367" lon="-6.020083">
        <ele>792.0</ele>
        <time>2019-05-04T13:51:42Z</time>
      </trkpt>
      <trkpt lat="38.911267" lon="-6.020017">
        <ele>794.0</ele>
        <time>2019-05-04T13:51:43Z</time>
      </trkpt>
      <trkpt lat="38.911167" lon="-6.020000">
        <ele>798.0</ele>
        <time>2019-05-04T13:51:44Z</time>
      </trkpt>
      <trkpt lat="38.911100" lon="-6.020050">
        <ele>802.0</ele>
        <time>2019-05-04T13:51:45Z</time>
      </trkpt>
      <trkpt lat="38.911050" lon="-6.020117">
        <ele>805.0</ele>
        <time>2019-05-04T13:51:46Z</time>
      </trkpt>
      <trkpt lat="38.911033" lon="-6.020183">
        <ele>808.0</ele>
        <time>2019-05-04T13:51:47Z</time>
      </trkpt>
      <trkpt lat="38.911033" lon="-6.020267">
        <ele>811.0</ele>
        <time>2019-05-04T13:51:48Z</time>
      </trkpt>
      <trkpt lat="38.911050" lon="-6.020350">
        <ele>814.0</ele>
        <time>2019-05-04T13:51:49Z</time>
      </trkpt>
      <trkpt lat="38.911083" lon="-6.020417">
        <ele>817.0</ele>
        <time>2019-05-04T13:51:50Z</time>
      </trkpt>
      <trkpt lat="38.911150" lon="-6.020433">
        <ele>820.0</ele>
        <time>2019-05-04T13:51:51Z</time>
      </trkpt>
      <trkpt lat="38.911233" lon="-6.020417">
        <ele>823.0</ele>
        <time>2019-05-04T13:51:52Z</time>
      </trkpt>
      <trkpt lat="38.911283" lon="-6.020333">
        <ele>825.0</ele>
        <time>2019-05-04T13:51:53Z</time>
      </trkpt>
      <trkpt lat="38.911317" lon="-6.020217">
        <ele>828.0</ele>
        <time>2019-05-04T13:51:54Z</time>
      </trkpt>
      <trkpt lat="38.911333" lon="-6.020100">
        <ele>829.0</ele>
        <time>2019-05-04T13:51:55Z</time>
      </trkpt>
      <trkpt lat="38.911333" lon="-6.019967">
        <ele>832.0</ele>
        <time>2019-05-04T13:51:56Z</time>
      </trkpt>
      <trkpt lat="38.911300" lon="-6.019850">
        <ele>834.0</ele>
        <time>2019-05-04T13:51:57Z</time>
      </trkpt>
      <trkpt lat="38.911233" lon="-6.019750">
        <ele>837.0</ele>
        <time>2019-05-04T13:51:58Z</time>
      </trkpt>
      <trkpt lat="38.911167" lon="-6.019700">
        <ele>841.0</ele>
        <time>2019-05-04T13:51:59Z</time>
      </trkpt>
      <trkpt lat="38.911083" lon="-6.019667">
        <ele>845.0</ele>
        <time>2019-05-04T13:52:00Z</time>
      </trkpt>
      <trkpt lat="38.911017" lon="-6.019667">
        <ele>848.0</ele>
        <time>2019-05-04T13:52:01Z</time>
      </trkpt>
      <trkpt lat="38.910950" lon="-6.019683">
        <ele>850.0</ele>
        <time>2019-05-04T13:52:02Z</time>
      </trkpt>
      <trkpt lat="38.910883" lon="-6.019733">
        <ele>852.0</ele>
        <time>2019-05-04T13:52:03Z</time>
      </trkpt>
      <trkpt lat="38.910833" lon="-6.019783">
        <ele>854.0</ele>
        <time>2019-05-04T13:52:04Z</time>
      </trkpt>
      <trkpt lat="38.910800" lon="-6.019883">
        <ele>856.0</ele>
        <time>2019-05-04T13:52:05Z</time>
      </trkpt>
      <trkpt lat="38.910817" lon="-6.019967">
        <ele>851.0</ele>
        <time>2019-05-04T13:52:06Z</time>
      </trkpt>
      <trkpt lat="38.910867" lon="-6.020033">
        <ele>852.0</ele>
        <time>2019-05-04T13:52:07Z</time>
      </trkpt>
      <trkpt lat="38.910917" lon="-6.020067">
        <ele>853.0</ele>
        <time>2019-05-04T13:52:08Z</time>
      </trkpt>
      <trkpt lat="38.910983" lon="-6.020050">
        <ele>854.0</ele>
        <time>2019-05-04T13:52:09Z</time>
      </trkpt>
      <trkpt lat="38.911033" lon="-6.019983">
        <ele>855.0</ele>
        <time>2019-05-04T13:52:10Z</time>
      </trkpt>
      <trkpt lat="38.911083" lon="-6.019900">
        <ele>856.0</ele>
        <time>2019-05-04T13:52:11Z</time>
      </trkpt>
      <trkpt lat="38.911100" lon="-6.019783">
        <ele>858.0</ele>
        <time>2019-05-04T13:52:12Z</time>
      </trkpt>
      <trkpt lat="38.911083" lon="-6.019667">
        <ele>860.0</ele>
        <time>2019-05-04T13:52:13Z</time>
      </trkpt>
      <trkpt lat="38.911050" lon="-6.019550">
        <ele>863.0</ele>
        <time>2019-05-04T13:52:14Z</time>
      </trkpt>
      <trkpt lat="38.911000" lon="-6.019467">
        <ele>866.0</ele>
        <time>2019-05-04T13:52:15Z</time>
      </trkpt>
      <trkpt lat="38.910950" lon="-6.019400">
        <ele>870.0</ele>
        <time>2019-05-04T13:52:16Z</time>
      </trkpt>
      <trkpt lat="38.910867" lon="-6.019367">
        <ele>873.0</ele>
        <time>2019-05-04T13:52:17Z</time>
      </trkpt>
      <trkpt lat="38.910783" lon="-6.019350">
        <ele>876.0</ele>
        <time>2019-05-04T13:52:18Z</time>
      </trkpt>
      <trkpt lat="38.910700" lon="-6.019367">
        <ele>880.0</ele>
        <time>2019-05-04T13:52:19Z</time>
      </trkpt>
      <trkpt lat="38.910633" lon="-6.019433">
        <ele>886.0</ele>
        <time>2019-05-04T13:52:20Z</time>
      </trkpt>
      <trkpt lat="38.910600" lon="-6.019517">
        <ele>890.0</ele>
        <time>2019-05-04T13:52:21Z</time>
      </trkpt>
      <trkpt lat="38.910600" lon="-6.019617">
        <ele>894.0</ele>
        <time>2019-05-04T13:52:22Z</time>
      </trkpt>
      <trkpt lat="38.910617" lon="-6.019700">
        <ele>897.0</ele>
        <time>2019-05-04T13:52:23Z</time>
      </trkpt>
      <trkpt lat="38.910650" lon="-6.019767">
        <ele>900.0</ele>
        <time>2019-05-04T13:52:24Z</time>
      </trkpt>
      <trkpt lat="38.910700" lon="-6.019800">
        <ele>904.0</ele>
        <time>2019-05-04T13:52:25Z</time>
      </trkpt>
      <trkpt lat="38.910767" lon="-6.019817">
        <ele>907.0</ele>
        <time>2019-05-04T13:52:26Z</time>
      </trkpt>
      <trkpt lat="38.910833" lon="-6.019783">
        <ele>909.0</ele>
        <time>2019-05-04T13:52:27Z</time>
      </trkpt>
      <trkpt lat="38.910900" lon="-6.019717">
        <ele>912.0</ele>
        <time>2019-05-04T13:52:28Z</time>
      </trkpt>
      <trkpt lat="38.910933" lon="-6.019600">
        <ele>914.0</ele>
        <time>2019-05-04T13:52:29Z</time>
      </trkpt>
      <trkpt lat="38.910933" lon="-6.019483">
        <ele>916.0</ele>
        <time>2019-05-04T13:52:30Z</time>
      </trkpt>
      <trkpt lat="38.910883" lon="-6.019367">
        <ele>919.0</ele>
        <time>2019-05-04T13:52:31Z</time>
      </trkpt>
      <trkpt lat="38.910833" lon="-6.019283">
        <ele>922.0</ele>
        <time>2019-05-04T13:52:32Z</time>
      </trkpt>
      <trkpt lat="38.910767" lon="-6.019200">
        <ele>924.0</ele>
        <time>2019-05-04T13:52:33Z</time>
      </trkpt>
      <trkpt lat="38.910667" lon="-6.019200">
        <ele>926.0</ele>
        <time>2019-05-04T13:52:34Z</time>
      </trkpt>
      <trkpt lat="38.910600" lon="-6.019217">
        <ele>929.0</ele>
        <time>2019-05-04T13:52:35Z</time>
      </trkpt>
      <trkpt lat="38.910533" lon="-6.019300">
        <ele>932.0</ele>
        <time>2019-05-04T13:52:36Z</time>
      </trkpt>
      <trkpt lat="38.910483" lon="-6.019400">
        <ele>934.0</ele>
        <time>2019-05-04T13:52:37Z</time>
      </trkpt>
      <trkpt lat="38.910483" lon="-6.019500">
        <ele>939.0</ele>
        <time>2019-05-04T13:52:38Z</time>
      </trkpt>
      <trkpt lat="38.910500" lon="-6.019583">
        <ele>942.0</ele>
        <time>2019-05-04T13:52:39Z</time>
      </trkpt>
      <trkpt lat="38.910550" lon="-6.019633">
        <ele>944.0</ele>
        <time>2019-05-04T13:52:40Z</time>
      </trkpt>
      <trkpt lat="38.910617" lon="-6.019650">
        <ele>946.0</ele>
        <time>2019-05-04T13:52:41Z</time>
      </trkpt>
      <trkpt lat="38.910683" lon="-6.019667">
        <ele>947.0</ele>
        <time>2019-05-04T13:52:42Z</time>
      </trkpt>
      <trkpt lat="38.910750" lon="-6.019650">
        <ele>948.0</ele>
        <time>2019-05-04T13:52:43Z</time>
      </trkpt>
      <trkpt lat="38.910817" lon="-6.019600">
        <ele>949.0</ele>
        <time>2019-05-04T13:52:44Z</time>
      </trkpt>
      <trkpt lat="38.910883" lon="-6.019517">
        <ele>951.0</ele>
        <time>2019-05-04T13:52:45Z</time>
      </trkpt>
      <trkpt lat="38.910917" lon="-6.019400">
        <ele>952.0</ele>
        <time>2019-05-04T13:52:46Z</time>
      </trkpt>
      <trkpt lat="38.910917" lon="-6.019267">
        <ele>954.0</ele>
        <time>2019-05-04T13:52:47Z</time>
      </trkpt>
      <trkpt lat="38.910883" lon="-6.019150">
        <ele>956.0</ele>
        <time>2019-05-04T13:52:48Z</time>
      </trkpt>
      <trkpt lat="38.910817" lon="-6.019083">
        <ele>958.0</ele>
        <time>2019-05-04T13:52:49Z</time>
      </trkpt>
      <trkpt lat="38.910717" lon="-6.019050">
        <ele>960.0</ele>
        <time>2019-05-04T13:52:50Z</time>
      </trkpt>
      <trkpt lat="38.910633" lon="-6.019067">
        <ele>963.0</ele>
        <time>2019-05-04T13:52:51Z</time>
      </trkpt>
      <trkpt lat="38.910550" lon="-6.019117">
        <ele>964.0</ele>
        <time>2019-05-04T13:52:52Z</time>
      </trkpt>
      <trkpt lat="38.910517" lon="-6.019183">
        <ele>967.0</ele>
        <time>2019-05-04T13:52:53Z</time>
      </trkpt>
      <trkpt lat="38.910483" lon="-6.019283">
        <ele>969.0</ele>
        <time>2019-05-04T13:52:54Z</time>
      </trkpt>
      <trkpt lat="38.910500" lon="-6.019367">
        <ele>971.0</ele>
        <time>2019-05-04T13:52:55Z</time>
      </trkpt>
      <trkpt lat="38.910517" lon="-6.019433">
        <ele>973.0</ele>
        <time>2019-05-04T13:52:56Z</time>
      </trkpt>
      <trkpt lat="38.910567" lon="-6.019483">
        <ele>975.0</ele>
        <time>2019-05-04T13:52:57Z</time>
      </trkpt>
      <trkpt lat="38.910633" lon="-6.019500">
        <ele>976.0</ele>
        <time>2019-05-04T13:52:58Z</time>
      </trkpt>
      <trkpt lat="38.910717" lon="-6.019500">
        <ele>978.0</ele>
        <time>2019-05-04T13:52:59Z</time>
      </trkpt>
      <trkpt lat="38.910783" lon="-6.019467">
        <ele>979.0</ele>
        <time>2019-05-04T13:53:00Z</time>
      </trkpt>
      <trkpt lat="38.910850" lon="-6.019383">
        <ele>981.0</ele>
        <time>2019-05-04T13:53:01Z</time>
      </trkpt>
      <trkpt lat="38.910900" lon="-6.019283">
        <ele>982.0</ele>
        <time>2019-05-04T13:53:02Z</time>
      </trkpt>
      <trkpt lat="38.910917" lon="-6.019167">
        <ele>984.0</ele>
        <time>2019-05-04T13:53:03Z</time>
      </trkpt>
      <trkpt lat="38.910933" lon="-6.019067">
        <ele>986.0</ele>
        <time>2019-05-04T13:53:04Z</time>
      </trkpt>
      <trkpt lat="38.910933" lon="-6.018950">
        <ele>989.0</ele>
        <time>2019-05-04T13:53:05Z</time>
      </trkpt>
      <trkpt lat="38.910917" lon="-6.018850">
        <ele>991.0</ele>
        <time>2019-05-04T13:53:06Z</time>
      </trkpt>
      <trkpt lat="38.910867" lon="-6.018733">
        <ele>992.0</ele>
        <time>2019-05-04T13:53:07Z</time>
      </trkpt>
      <trkpt lat="38.910783" lon="-6.018650">
        <ele>993.0</ele>
        <time>2019-05-04T13:53:08Z</time>
      </trkpt>
      <trkpt lat="38.910683" lon="-6.018583">
        <ele>996.0</ele>
        <time>2019-05-04T13:53:09Z</time>
      </trkpt>
      <trkpt lat="38.910600" lon="-6.018550">
        <ele>999.0</ele>
        <time>2019-05-04T13:53:10Z</time>
      </trkpt>
      <trkpt lat="38.910533" lon="-6.018550">
        <ele>1002.0</ele>
        <time>2019-05-04T13:53:11Z</time>
      </trkpt>
      <trkpt lat="38.910467" lon="-6.018550">
        <ele>1006.0</ele>
        <time>2019-05-04T13:53:12Z</time>
      </trkpt>
      <trkpt lat="38.910400" lon="-6.018567">
        <ele>1008.0</ele>
        <time>2019-05-04T13:53:13Z</time>
      </trkpt>
      <trkpt lat="38.910333" lon="-6.018617">
        <ele>1011.0</ele>
        <time>2019-05-04T13:53:14Z</time>
      </trkpt>
      <trkpt lat="38.910300" lon="-6.018667">
        <ele>1013.0</ele>
        <time>2019-05-04T13:53:15Z</time>
      </trkpt>
      <trkpt lat="38.910300" lon="-6.018750">
        <ele>1009.0</ele>
        <time>2019-05-04T13:53:16Z</time>
      </trkpt>
      <trkpt lat="38.910333" lon="-6.018833">
        <ele>1009.0</ele>
        <time>2019-05-04T13:53:17Z</time>
      </trkpt>
      <trkpt lat="38.910383" lon="-6.018883">
        <ele>1010.0</ele>
        <time>2019-05-04T13:53:18Z</time>
      </trkpt>
      <trkpt lat="38.910450" lon="-6.018900">
        <ele>1012.0</ele>
        <time>2019-05-04T13:53:19Z</time>
      </trkpt>
      <trkpt lat="38.910517" lon="-6.018883">
        <ele>1014.0</ele>
        <time>2019-05-04T13:53:20Z</time>
      </trkpt>
      <trkpt lat="38.910583" lon="-6.018833">
        <ele>1015.0</ele>
        <time>2019-05-04T13:53:21Z</time>
      </trkpt>
      <trkpt lat="38.910650" lon="-6.018767">
        <ele>1017.0</ele>
        <time>2019-05-04T13:53:22Z</time>
      </trkpt>
      <trkpt lat="38.910700" lon="-6.018667">
        <ele>1018.0</ele>
        <time>2019-05-04T13:53:23Z</time>
      </trkpt>
      <trkpt lat="38.910733" lon="-6.018550">
        <ele>1020.0</ele>
        <time>2019-05-04T13:53:24Z</time>
      </trkpt>
      <trkpt lat="38.910750" lon="-6.018417">
        <ele>1022.0</ele>
        <time>2019-05-04T13:53:25Z</time>
      </trkpt>
      <trkpt lat="38.910717" lon="-6.018300">
        <ele>1024.0</ele>
        <time>2019-05-04T13:53:26Z</time>
      </trkpt>
      <trkpt lat="38.910650" lon="-6.018183">
        <ele>1026.0</ele>
        <time>2019-05-04T13:53:27Z</time>
      </trkpt>
      <trkpt lat="38.910550" lon="-6.018117">
        <ele>1029.0</ele>
        <time>2019-05-04T13:53:28Z</time>
      </trkpt>
      <trkpt lat="38.910467" lon="-6.018067">
        <ele>1033.0</ele>
        <time>2019-05-04T13:53:29Z</time>
      </trkpt>
      <trkpt lat="38.910383" lon="-6.018083">
        <ele>1038.0</ele>
        <time>2019-05-04T13:53:30Z</time>
      </trkpt>
      <trkpt lat="38.910300" lon="-6.018117">
        <ele>1041.0</ele>
        <time>2019-05-04T13:53:31Z</time>
      </trkpt>
      <trkpt lat="38.910217" lon="-6.018167">
        <ele>1036.0</ele>
        <time>2019-05-04T13:53:32Z</time>
      </trkpt>
      <trkpt lat="38.910183" lon="-6.018233">
        <ele>1039.0</ele>
        <time>2019-05-04T13:53:33Z</time>
      </trkpt>
      <trkpt lat="38.910183" lon="-6.018317">
        <ele>1041.0</ele>
        <time>2019-05-04T13:53:34Z</time>
      </trkpt>
      <trkpt lat="38.910200" lon="-6.018383">
        <ele>1043.0</ele>
        <time>2019-05-04T13:53:35Z</time>
      </trkpt>
      <trkpt lat="38.910267" lon="-6.018433">
        <ele>1044.0</ele>
        <time>2019-05-04T13:53:36Z</time>
      </trkpt>
      <trkpt lat="38.910350" lon="-6.018433">
        <ele>1046.0</ele>
        <time>2019-05-04T13:53:37Z</time>
      </trkpt>
      <trkpt lat="38.910433" lon="-6.018383">
        <ele>1049.0</ele>
        <time>2019-05-04T13:53:38Z</time>
      </trkpt>
      <trkpt lat="38.910483" lon="-6.018317">
        <ele>1051.0</ele>
        <time>2019-05-04T13:53:39Z</time>
      </trkpt>
      <trkpt lat="38.910533" lon="-6.018200">
        <ele>1054.0</ele>
        <time>2019-05-04T13:53:40Z</time>
      </trkpt>
      <trkpt lat="38.910567" lon="-6.018083">
        <ele>1056.0</ele>
        <time>2019-05-04T13:53:41Z</time>
      </trkpt>
      <trkpt lat="38.910550" lon="-6.017933">
        <ele>1059.0</ele>
        <time>2019-05-04T13:53:42Z</time>
      </trkpt>
      <trkpt lat="38.910500" lon="-6.017817">
        <ele>1061.0</ele>
        <time>2019-05-04T13:53:43Z</time>
      </trkpt>
      <trkpt lat="38.910433" lon="-6.017717">
        <ele>1064.0</ele>
        <time>2019-05-04T13:53:44Z</time>
      </trkpt>
      <trkpt lat="38.910350" lon="-6.017650">
        <ele>1068.0</ele>
        <time>2019-05-04T13:53:45Z</time>
      </trkpt>
      <trkpt lat="38.910267" lon="-6.017633">
        <ele>1071.0</ele>
        <time>2019-05-04T13:53:46Z</time>
      </trkpt>
      <trkpt lat="38.910167" lon="-6.017633">
        <ele>1075.0</ele>
        <time>2019-05-04T13:53:47Z</time>
      </trkpt>
      <trkpt lat="38.910100" lon="-6.017683">
        <ele>1078.0</ele>
        <time>2019-05-04T13:53:48Z</time>
      </trkpt>
      <trkpt lat="38.910067" lon="-6.017767">
        <ele>1081.0</ele>
        <time>2019-05-04T13:53:49Z</time>
      </trkpt>
      <trkpt lat="38.910067" lon="-6.017850">
        <ele>1084.0</ele>
        <time>2019-05-04T13:53:50Z</time>
      </trkpt>
      <trkpt lat="38.910117" lon="-6.017917">
        <ele>1086.0</ele>
        <time>2019-05-04T13:53:51Z</time>
      </trkpt>
      <trkpt lat="38.910183" lon="-6.017933">
        <ele>1088.0</ele>
        <time>2019-05-04T13:53:52Z</time>
      </trkpt>
      <trkpt lat="38.910267" lon="-6.017883">
        <ele>1091.0</ele>
        <time>2019-05-04T13:53:53Z</time>
      </trkpt>
      <trkpt lat="38.910300" lon="-6.017767">
        <ele>1094.0</ele>
        <time>2019-05-04T13:53:54Z</time>
      </trkpt>
      <trkpt lat="38.910317" lon="-6.017633">
        <ele>1096.0</ele>
        <time>2019-05-04T13:53:55Z</time>
      </trkpt>
      <trkpt lat="38.910300" lon="-6.017500">
        <ele>1099.0</ele>
        <time>2019-05-04T13:53:56Z</time>
      </trkpt>
      <trkpt lat="38.910233" lon="-6.017383">
        <ele>1101.0</ele>
        <time>2019-05-04T13:53:57Z</time>
      </trkpt>
      <trkpt lat="38.910133" lon="-6.017317">
        <ele>1104.0</ele>
        <time>2019-05-04T13:53:58Z</time>
      </trkpt>
      <trkpt lat="38.910050" lon="-6.017300">
        <ele>1108.0</ele>
        <time>2019-05-04T13:53:59Z</time>
      </trkpt>
      <trkpt lat="38.909950" lon="-6.017283">
        <ele>1114.0</ele>
        <time>2019-05-04T13:54:00Z</time>
      </trkpt>
      <trkpt lat="38.909867" lon="-6.017283">
        <ele>1118.0</ele>
        <time>2019-05-04T13:54:01Z</time>
      </trkpt>
      <trkpt lat="38.909800" lon="-6.017317">
        <ele>1121.0</ele>
        <time>2019-05-04T13:54:02Z</time>
      </trkpt>
      <trkpt lat="38.909750" lon="-6.017383">
        <ele>1125.0</ele>
        <time>2019-05-04T13:54:03Z</time>
      </trkpt>
      <trkpt lat="38.909733" lon="-6.017450">
        <ele>1128.0</ele>
        <time>2019-05-04T13:54:04Z</time>
      </trkpt>
      <trkpt lat="38.909750" lon="-6.017533">
        <ele>1130.0</ele>
        <time>2019-05-04T13:54:05Z</time>
      </trkpt>
      <trkpt lat="38.909800" lon="-6.017567">
        <ele>1132.0</ele>
        <time>2019-05-04T13:54:06Z</time>
      </trkpt>
      <trkpt lat="38.909867" lon="-6.017583">
        <ele>1134.0</ele>
        <time>2019-05-04T13:54:07Z</time>
      </trkpt>
      <trkpt lat="38.909933" lon="-6.017550">
        <ele>1136.0</ele>
        <time>2019-05-04T13:54:08Z</time>
      </trkpt>
      <trkpt lat="38.909983" lon="-6.017483">
        <ele>1139.0</ele>
        <time>2019-05-04T13:54:09Z</time>
      </trkpt>
      <trkpt lat="38.910033" lon="-6.017383">
        <ele>1141.0</ele>
        <time>2019-05-04T13:54:10Z</time>
      </trkpt>
      <trkpt lat="38.910033" lon="-6.017250">
        <ele>1144.0</ele>
        <time>2019-05-04T13:54:11Z</time>
      </trkpt>
      <trkpt lat="38.910000" lon="-6.017117">
        <ele>1147.0</ele>
        <time>2019-05-04T13:54:12Z</time>
      </trkpt>
      <trkpt lat="38.909933" lon="-6.017000">
        <ele>1150.0</ele>
        <time>2019-05-04T13:54:13Z</time>
      </trkpt>
      <trkpt lat="38.909850" lon="-6.016917">
        <ele>1154.0</ele>
        <time>2019-05-04T13:54:14Z</time>
      </trkpt>
      <trkpt lat="38.909750" lon="-6.016867">
        <ele>1157.0</ele>
        <time>2019-05-04T13:54:15Z</time>
      </trkpt>
      <trkpt lat="38.909650" lon="-6.016867">
        <ele>1159.0</ele>
        <time>2019-05-04T13:54:16Z</time>
      </trkpt>
      <trkpt lat="38.909567" lon="-6.016900">
        <ele>1162.0</ele>
        <time>2019-05-04T13:54:17Z</time>
      </trkpt>
      <trkpt lat="38.909500" lon="-6.016950">
        <ele>1164.0</ele>
        <time>2019-05-04T13:54:18Z</time>
      </trkpt>
      <trkpt lat="38.909467" lon="-6.017033">
        <ele>1166.0</ele>
        <time>2019-05-04T13:54:19Z</time>
      </trkpt>
      <trkpt lat="38.909467" lon="-6.017100">
        <ele>1160.0</ele>
        <time>2019-05-04T13:54:20Z</time>
      </trkpt>
      <trkpt lat="38.909500" lon="-6.017133">
        <ele>1160.0</ele>
        <time>2019-05-04T13:54:21Z</time>
      </trkpt>
      <trkpt lat="38.909550" lon="-6.017150">
        <ele>1161.0</ele>
        <time>2019-05-04T13:54:22Z</time>
      </trkpt>
      <trkpt lat="38.909633" lon="-6.017133">
        <ele>1163.0</ele>
        <time>2019-05-04T13:54:23Z</time>
      </trkpt>
      <trkpt lat="38.909700" lon="-6.017083">
        <ele>1164.0</ele>
        <time>2019-05-04T13:54:24Z</time>
      </trkpt>
      <trkpt lat="38.909767" lon="-6.017000">
        <ele>1166.0</ele>
        <time>2019-05-04T13:54:25Z</time>
      </trkpt>
      <trkpt lat="38.909800" lon="-6.016883">
        <ele>1168.0</ele>
        <time>2019-05-04T13:54:26Z</time>
      </trkpt>
      <trkpt lat="38.909783" lon="-6.016767">
        <ele>1170.0</ele>
        <time>2019-05-04T13:54:27Z</time>
      </trkpt>
      <trkpt lat="38.909733" lon="-6.016633">
        <ele>1172.0</ele>
        <time>2019-05-04T13:54:28Z</time>
      </trkpt>
      <trkpt lat="38.909683" lon="-6.016533">
        <ele>1175.0</ele>
        <time>2019-05-04T13:54:29Z</time>
      </trkpt>
      <trkpt lat="38.909617" lon="-6.016467">
        <ele>1179.0</ele>
        <time>2019-05-04T13:54:30Z</time>
      </trkpt>
      <trkpt lat="38.909533" lon="-6.016400">
        <ele>1184.0</ele>
        <time>2019-05-04T13:54:31Z</time>
      </trkpt>
      <trkpt lat="38.909433" lon="-6.016367">
        <ele>1187.0</ele>
        <time>2019-05-04T13:54:32Z</time>
      </trkpt>
      <trkpt lat="38.909317" lon="-6.016350">
        <ele>1192.0</ele>
        <time>2019-05-04T13:54:33Z</time>
      </trkpt>
      <trkpt lat="38.909233" lon="-6.016400">
        <ele>1196.0</ele>
        <time>2019-05-04T13:54:34Z</time>
      </trkpt>
      <trkpt lat="38.909183" lon="-6.016467">
        <ele>1199.0</ele>
        <time>2019-05-04T13:54:35Z</time>
      </trkpt>
      <trkpt lat="38.909150" lon="-6.016550">
        <ele>1201.0</ele>
        <time>2019-05-04T13:54:36Z</time>
      </trkpt>
      <trkpt lat="38.909150" lon="-6.016617">
        <ele>1204.0</ele>
        <time>2019-05-04T13:54:37Z</time>
      </trkpt>
      <trkpt lat="38.909167" lon="-6.016683">
        <ele>1207.0</ele>
        <time>2019-05-04T13:54:38Z</time>
      </trkpt>
      <trkpt lat="38.909200" lon="-6.016717">
        <ele>1210.0</ele>
        <time>2019-05-04T13:54:39Z</time>
      </trkpt>
      <trkpt lat="38.909267" lon="-6.016733">
        <ele>1212.0</ele>
        <time>2019-05-04T13:54:40Z</time>
      </trkpt>
      <trkpt lat="38.909333" lon="-6.016733">
        <ele>1214.0</ele>
        <time>2019-05-04T13:54:41Z</time>
      </trkpt>
      <trkpt lat="38.909400" lon="-6.016683">
        <ele>1216.0</ele>
        <time>2019-05-04T13:54:42Z</time>
      </trkpt>
      <trkpt lat="38.909450" lon="-6.016600">
        <ele>1218.0</ele>
        <time>2019-05-04T13:54:43Z</time>
      </trkpt>
      <trkpt lat="38.909467" lon="-6.016467">
        <ele>1219.0</ele>
        <time>2019-05-04T13:54:44Z</time>
      </trkpt>
      <trkpt lat="38.909450" lon="-6.016317">
        <ele>1221.0</ele>
        <time>2019-05-04T13:54:45Z</time>
      </trkpt>
      <trkpt lat="38.909417" lon="-6.016183">
        <ele>1224.0</ele>
        <time>2019-05-04T13:54:46Z</time>
      </trkpt>
      <trkpt lat="38.909333" lon="-6.016083">
        <ele>1227.0</ele>
        <time>2019-05-04T13:54:47Z</time>
      </trkpt>
      <trkpt lat="38.909250" lon="-6.016000">
        <ele>1231.0</ele>
        <time>2019-05-04T13:54:48Z</time>
      </trkpt>
      <trkpt lat="38.909150" lon="-6.015950">
        <ele>1234.0</ele>
        <time>2019-05-04T13:54:49Z</time>
      </trkpt>
      <trkpt lat="38.909067" lon="-6.015917">
        <ele>1238.0</ele>
        <time>2019-05-04T13:54:50Z</time>
      </trkpt>
      <trkpt lat="38.908967" lon="-6.015917">
        <ele>1242.0</ele>
        <time>2019-05-04T13:54:51Z</time>
      </trkpt>
      <trkpt lat="38.908867" lon="-6.015933">
        <ele>1244.0</ele>
        <time>2019-05-04T13:54:52Z</time>
      </trkpt>
      <trkpt lat="38.908800" lon="-6.016000">
        <ele>1246.0</ele>
        <time>2019-05-04T13:54:53Z</time>
      </trkpt>
      <trkpt lat="38.908767" lon="-6.016067">
        <ele>1248.0</ele>
        <time>2019-05-04T13:54:54Z</time>
      </trkpt>
      <trkpt lat="38.908750" lon="-6.016150">
        <ele>1249.0</ele>
        <time>2019-05-04T13:54:55Z</time>
      </trkpt>
      <trkpt lat="38.908767" lon="-6.016200">
        <ele>1251.0</ele>
        <time>2019-05-04T13:54:56Z</time>
      </trkpt>
      <trkpt lat="38.908817" lon="-6.016233">
        <ele>1253.0</ele>
        <time>2019-05-04T13:54:57Z</time>
      </trkpt>
      <trkpt lat="38.908883" lon="-6.016233">
        <ele>1254.0</ele>
        <time>2019-05-04T13:54:58Z</time>
      </trkpt>
      <trkpt lat="38.908933" lon="-6.016233">
        <ele>1255.0</ele>
        <time>2019-05-04T13:54:59Z</time>
      </trkpt>
      <trkpt lat="38.909000" lon="-6.016200">
        <ele>1257.0</ele>
        <time>2019-05-04T13:55:00Z</time>
      </trkpt>
      <trkpt lat="38.909067" lon="-6.016133">
        <ele>1258.0</ele>
        <time>2019-05-04T13:55:01Z</time>
      </trkpt>
      <trkpt lat="38.909117" lon="-6.016017">
        <ele>1259.0</ele>
        <time>2019-05-04T13:55:02Z</time>
      </trkpt>
      <trkpt lat="38.909150" lon="-6.015900">
        <ele>1260.0</ele>
        <time>2019-05-04T13:55:03Z</time>
      </trkpt>
      <trkpt lat="38.909183" lon="-6.015750">
        <ele>1261.0</ele>
        <time>2019-05-04T13:55:04Z</time>
      </trkpt>
      <trkpt lat="38.909167" lon="-6.015617">
        <ele>1263.0</ele>
        <time>2019-05-04T13:55:05Z</time>
      </trkpt>
      <trkpt lat="38.909133" lon="-6.015483">
        <ele>1266.0</ele>
        <time>2019-05-04T13:55:06Z</time>
      </trkpt>
      <trkpt lat="38.909050" lon="-6.015350">
        <ele>1268.0</ele>
        <time>2019-05-04T13:55:07Z</time>
      </trkpt>
      <trkpt lat="38.908967" lon="-6.015267">
        <ele>1271.0</ele>
        <time>2019-05-04T13:55:08Z</time>
      </trkpt>
      <trkpt lat="38.908867" lon="-6.015200">
        <ele>1273.0</ele>
        <time>2019-05-04T13:55:09Z</time>
      </trkpt>
      <trkpt lat="38.908767" lon="-6.015167">
        <ele>1276.0</ele>
        <time>2019-05-04T13:55:10Z</time>
      </trkpt>
      <trkpt lat="38.908650" lon="-6.015183">
        <ele>1279.0</ele>
        <time>2019-05-04T13:55:11Z</time>
      </trkpt>
      <trkpt lat="38.908567" lon="-6.015217">
        <ele>1282.0</ele>
        <time>2019-05-04T13:55:12Z</time>
      </trkpt>
      <trkpt lat="38.908533" lon="-6.015300">
        <ele>1286.0</ele>
        <time>2019-05-04T13:55:13Z</time>
      </trkpt>
      <trkpt lat="38.908517" lon="-6.015350">
        <ele>1289.0</ele>
        <time>2019-05-04T13:55:14Z</time>
      </trkpt>
      <trkpt lat="38.908533" lon="-6.015400">
        <ele>1291.0</ele>
        <time>2019-05-04T13:55:15Z</time>
      </trkpt>
      <trkpt lat="38.908550" lon="-6.015433">
        <ele>1291.0</ele>
        <time>2019-05-04T13:55:16Z</time>
      </trkpt>
      <trkpt lat="38.908600" lon="-6.015467">
        <ele>1292.0</ele>
        <time>2019-05-04T13:55:17Z</time>
      </trkpt>
      <trkpt lat="38.908650" lon="-6.015467">
        <ele>1292.0</ele>
        <time>2019-05-04T13:55:18Z</time>
      </trkpt>
      <trkpt lat="38.908733" lon="-6.015433">
        <ele>1293.0</ele>
        <time>2019-05-04T13:55:19Z</time>
      </trkpt>
      <trkpt lat="38.908800" lon="-6.015367">
        <ele>1294.0</ele>
        <time>2019-05-04T13:55:20Z</time>
      </trkpt>
      <trkpt lat="38.908850" lon="-6.015250">
        <ele>1295.0</ele>
        <time>2019-05-04T13:55:21Z</time>
      </trkpt>
      <trkpt lat="38.908867" lon="-6.015117">
        <ele>1297.0</ele>
        <time>2019-05-04T13:55:22Z</time>
      </trkpt>
      <trkpt lat="38.908833" lon="-6.014983">
        <ele>1299.0</ele>
        <time>2019-05-04T13:55:23Z</time>
      </trkpt>
      <trkpt lat="38.908783" lon="-6.014833">
        <ele>1301.0</ele>
        <time>2019-05-04T13:55:24Z</time>
      </trkpt>
      <trkpt lat="38.908683" lon="-6.014733">
        <ele>1303.0</ele>
        <time>2019-05-04T13:55:25Z</time>
      </trkpt>
      <trkpt lat="38.908583" lon="-6.014650">
        <ele>1305.0</ele>
        <time>2019-05-04T13:55:26Z</time>
      </trkpt>
      <trkpt lat="38.908450" lon="-6.014600">
        <ele>1308.0</ele>
        <time>2019-05-04T13:55:27Z</time>
      </trkpt>
      <trkpt lat="38.908367" lon="-6.014583">
        <ele>1311.0</ele>
        <time>2019-05-04T13:55:28Z</time>
      </trkpt>
      <trkpt lat="38.908283" lon="-6.014617">
        <ele>1313.0</ele>
        <time>2019-05-04T13:55:29Z</time>
      </trkpt>
      <trkpt lat="38.908250" lon="-6.014683">
        <ele>1315.0</ele>
        <time>2019-05-04T13:55:30Z</time>
      </trkpt>
      <trkpt lat="38.908233" lon="-6.014733">
        <ele>1311.0</ele>
        <time>2019-05-04T13:55:31Z</time>
      </trkpt>
      <trkpt lat="38.908250" lon="-6.014783">
        <ele>1313.0</ele>
        <time>2019-05-04T13:55:32Z</time>
      </trkpt>
      <trkpt lat="38.908267" lon="-6.014817">
        <ele>1316.0</ele>
        <time>2019-05-04T13:55:33Z</time>
      </trkpt>
      <trkpt lat="38.908300" lon="-6.014833">
        <ele>1318.0</ele>
        <time>2019-05-04T13:55:34Z</time>
      </trkpt>
      <trkpt lat="38.908367" lon="-6.014817">
        <ele>1319.0</ele>
        <time>2019-05-04T13:55:35Z</time>
      </trkpt>
      <trkpt lat="38.908433" lon="-6.014800">
        <ele>1321.0</ele>
        <time>2019-05-04T13:55:36Z</time>
      </trkpt>
      <trkpt lat="38.908517" lon="-6.014717">
        <ele>1322.0</ele>
        <time>2019-05-04T13:55:37Z</time>
      </trkpt>
      <trkpt lat="38.908567" lon="-6.014600">
        <ele>1324.0</ele>
        <time>2019-05-04T13:55:38Z</time>
      </trkpt>
      <trkpt lat="38.908600" lon="-6.014467">
        <ele>1325.0</ele>
        <time>2019-05-04T13:55:39Z</time>
      </trkpt>
      <trkpt lat="38.908583" lon="-6.014317">
        <ele>1328.0</ele>
        <time>2019-05-04T13:55:40Z</time>
      </trkpt>
      <trkpt lat="38.908550" lon="-6.014167">
        <ele>1331.0</ele>
        <time>2019-05-04T13:55:41Z</time>
      </trkpt>
      <trkpt lat="38.908483" lon="-6.014050">
        <ele>1333.0</ele>
        <time>2019-05-04T13:55:42Z</time>
      </trkpt>
      <trkpt lat="38.908417" lon="-6.013950">
        <ele>1336.0</ele>
        <time>2019-05-04T13:55:43Z</time>
      </trkpt>
      <trkpt lat="38.908317" lon="-6.013850">
        <ele>1339.0</ele>
        <time>2019-05-04T13:55:44Z</time>
      </trkpt>
      <trkpt lat="38.908217" lon="-6.013783">
        <ele>1342.0</ele>
        <time>2019-05-04T13:55:45Z</time>
      </trkpt>
      <trkpt lat="38.908117" lon="-6.013733">
        <ele>1344.0</ele>
        <time>2019-05-04T13:55:46Z</time>
      </trkpt>
      <trkpt lat="38.908033" lon="-6.013733">
        <ele>1347.0</ele>
        <time>2019-05-04T13:55:47Z</time>
      </trkpt>
      <trkpt lat="38.907967" lon="-6.013767">
        <ele>1349.0</ele>
        <time>2019-05-04T13:55:48Z</time>
      </trkpt>
      <trkpt lat="38.907933" lon="-6.013817">
        <ele>1350.0</ele>
        <time>2019-05-04T13:55:49Z</time>
      </trkpt>
      <trkpt lat="38.907900" lon="-6.013867">
        <ele>1353.0</ele>
        <time>2019-05-04T13:55:50Z</time>
      </trkpt>
      <trkpt lat="38.907883" lon="-6.013917">
        <ele>1355.0</ele>
        <time>2019-05-04T13:55:51Z</time>
      </trkpt>
      <trkpt lat="38.907883" lon="-6.013950">
        <ele>1358.0</ele>
        <time>2019-05-04T13:55:52Z</time>
      </trkpt>
      <trkpt lat="38.907917" lon="-6.013983">
        <ele>1360.0</ele>
        <time>2019-05-04T13:55:53Z</time>
      </trkpt>
      <trkpt lat="38.907967" lon="-6.014000">
        <ele>1361.0</ele>
        <time>2019-05-04T13:55:54Z</time>
      </trkpt>
      <trkpt lat="38.908033" lon="-6.013983">
        <ele>1363.0</ele>
        <time>2019-05-04T13:55:55Z</time>
      </trkpt>
      <trkpt lat="38.908100" lon="-6.013950">
        <ele>1365.0</ele>
        <time>2019-05-04T13:55:56Z</time>
      </trkpt>
      <trkpt lat="38.908167" lon="-6.013867">
        <ele>1366.0</ele>
        <time>2019-05-04T13:55:57Z</time>
      </trkpt>
      <trkpt lat="38.908217" lon="-6.013783">
        <ele>1369.0</ele>
        <time>2019-05-04T13:55:58Z</time>
      </trkpt>
      <trkpt lat="38.908233" lon="-6.013650">
        <ele>1371.0</ele>
        <time>2019-05-04T13:55:59Z</time>
      </trkpt>
      <trkpt lat="38.908233" lon="-6.013517">
        <ele>1374.0</ele>
        <time>2019-05-04T13:56:00Z</time>
      </trkpt>
      <trkpt lat="38.908217" lon="-6.013383">
        <ele>1376.0</ele>
        <time>2019-05-04T13:56:01Z</time>
      </trkpt>
      <trkpt lat="38.908183" lon="-6.013267">
        <ele>1379.0</ele>
        <time>2019-05-04T13:56:02Z</time>
      </trkpt>
      <trkpt lat="38.908133" lon="-6.013150">
        <ele>1382.0</ele>
        <time>2019-05-04T13:56:03Z</time>
      </trkpt>
      <trkpt lat="38.908067" lon="-6.013050">
        <ele>1386.0</ele>
        <time>2019-05-04T13:56:04Z</time>
      </trkpt>
      <trkpt lat="38.908000" lon="-6.012967">
        <ele>1390.0</ele>
        <time>2019-05-04T13:56:05Z</time>
      </trkpt>
      <trkpt lat="38.907933" lon="-6.012917">
        <ele>1393.0</ele>
        <time>2019-05-04T13:56:06Z</time>
      </trkpt>
      <trkpt lat="38.907850" lon="-6.012883">
        <ele>1395.0</ele>
        <time>2019-05-04T13:56:07Z</time>
      </trkpt>
      <trkpt lat="38.907767" lon="-6.012883">
        <ele>1394.0</ele>
        <time>2019-05-04T13:56:08Z</time>
      </trkpt>
      <trkpt lat="38.907683" lon="-6.012900">
        <ele>1394.0</ele>
        <time>2019-05-04T13:56:09Z</time>
      </trkpt>
      <trkpt lat="38.907600" lon="-6.012967">
        <ele>1395.0</ele>
        <time>2019-05-04T13:56:10Z</time>
      </trkpt>
      <trkpt lat="38.907567" lon="-6.013033">
        <ele>1396.0</ele>
        <time>2019-05-04T13:56:11Z</time>
      </trkpt>
      <trkpt lat="38.907550" lon="-6.013117">
        <ele>1397.0</ele>
        <time>2019-05-04T13:56:12Z</time>
      </trkpt>
      <trkpt lat="38.907533" lon="-6.013183">
        <ele>1400.0</ele>
        <time>2019-05-04T13:56:13Z</time>
      </trkpt>
      <trkpt lat="38.907517" lon="-6.013250">
        <ele>1404.0</ele>
        <time>2019-05-04T13:56:14Z</time>
      </trkpt>
      <trkpt lat="38.907500" lon="-6.013300">
        <ele>1407.0</ele>
        <time>2019-05-04T13:56:15Z</time>
      </trkpt>
      <trkpt lat="38.907500" lon="-6.013350">
        <ele>1410.0</ele>
        <time>2019-05-04T13:56:16Z</time>
      </trkpt>
      <trkpt lat="38.907517" lon="-6.013417">
        <ele>1411.0</ele>
        <time>2019-05-04T13:56:17Z</time>
      </trkpt>
      <trkpt lat="38.907567" lon="-6.013450">
        <ele>1413.0</ele>
        <time>2019-05-04T13:56:18Z</time>
      </trkpt>
      <trkpt lat="38.907633" lon="-6.013467">
        <ele>1415.0</ele>
        <time>2019-05-04T13:56:19Z</time>
      </trkpt>
      <trkpt lat="38.907700" lon="-6.013433">
        <ele>1416.0</ele>
        <time>2019-05-04T13:56:20Z</time>
      </trkpt>
      <trkpt lat="38.907767" lon="-6.013367">
        <ele>1418.0</ele>
        <time>2019-05-04T13:56:21Z</time>
      </trkpt>
      <trkpt lat="38.907817" lon="-6.013267">
        <ele>1420.0</ele>
        <time>2019-05-04T13:56:22Z</time>
      </trkpt>
      <trkpt lat="38.907867" lon="-6.013150">
        <ele>1422.0</ele>
        <time>2019-05-04T13:56:23Z</time>
      </trkpt>
      <trkpt lat="38.907883" lon="-6.013017">
        <ele>1424.0</ele>
        <time>2019-05-04T13:56:24Z</time>
      </trkpt>
      <trkpt lat="38.907883" lon="-6.012883">
        <ele>1427.0</ele>
        <time>2019-05-04T13:56:25Z</time>
      </trkpt>
      <trkpt lat="38.907850" lon="-6.012767">
        <ele>1430.0</ele>
        <time>2019-05-04T13:56:26Z</time>
      </trkpt>
      <trkpt lat="38.907783" lon="-6.012667">
        <ele>1434.0</ele>
        <time>2019-05-04T13:56:27Z</time>
      </trkpt>
      <trkpt lat="38.907717" lon="-6.012583">
        <ele>1438.0</ele>
        <time>2019-05-04T13:56:28Z</time>
      </trkpt>
      <trkpt lat="38.907633" lon="-6.012533">
        <ele>1443.0</ele>
        <time>2019-05-04T13:56:29Z</time>
      </trkpt>
      <trkpt lat="38.907567" lon="-6.012483">
        <ele>1446.0</ele>
        <time>2019-05-04T13:56:30Z</time>
      </trkpt>
      <trkpt lat="38.907500" lon="-6.012467">
        <ele>1448.0</ele>
        <time>2019-05-04T13:56:31Z</time>
      </trkpt>
      <trkpt lat="38.907400" lon="-6.012467">
        <ele>1451.0</ele>
        <time>2019-05-04T13:56:32Z</time>
      </trkpt>
      <trkpt lat="38.907317" lon="-6.012500">
        <ele>1446.0</ele>
        <time>2019-05-04T13:56:33Z</time>
      </trkpt>
      <trkpt lat="38.907250" lon="-6.012550">
        <ele>1447.0</ele>
        <time>2019-05-04T13:56:34Z</time>
      </trkpt>
      <trkpt lat="38.907217" lon="-6.012600">
        <ele>1448.0</ele>
        <time>2019-05-04T13:56:35Z</time>
      </trkpt>
      <trkpt lat="38.907200" lon="-6.012683">
        <ele>1450.0</ele>
        <time>2019-05-04T13:56:36Z</time>
      </trkpt>
      <trkpt lat="38.907217" lon="-6.012733">
        <ele>1452.0</ele>
        <time>2019-05-04T13:56:37Z</time>
      </trkpt>
      <trkpt lat="38.907250" lon="-6.012767">
        <ele>1454.0</ele>
        <time>2019-05-04T13:56:38Z</time>
      </trkpt>
      <trkpt lat="38.907300" lon="-6.012783">
        <ele>1456.0</ele>
        <time>2019-05-04T13:56:39Z</time>
      </trkpt>
      <trkpt lat="38.907367" lon="-6.012767">
        <ele>1458.0</ele>
        <time>2019-05-04T13:56:40Z</time>
      </trkpt>
      <trkpt lat="38.907433" lon="-6.012717">
        <ele>1460.0</ele>
        <time>2019-05-04T13:56:41Z</time>
      </trkpt>
      <trkpt lat="38.907500" lon="-6.012650">
        <ele>1461.0</ele>
        <time>2019-05-04T13:56:42Z</time>
      </trkpt>
      <trkpt lat="38.907550" lon="-6.012550">
        <ele>1464.0</ele>
        <time>2019-05-04T13:56:43Z</time>
      </trkpt>
      <trkpt lat="38.907567" lon="-6.012433">
        <ele>1466.0</ele>
        <time>2019-05-04T13:56:44Z</time>
      </trkpt>
      <trkpt lat="38.907550" lon="-6.012317">
        <ele>1468.0</ele>
        <time>2019-05-04T13:56:45Z</time>
      </trkpt>
      <trkpt lat="38.907500" lon="-6.012233">
        <ele>1471.0</ele>
        <time>2019-05-04T13:56:46Z</time>
      </trkpt>
      <trkpt lat="38.907433" lon="-6.012150">
        <ele>1474.0</ele>
        <time>2019-05-04T13:56:47Z</time>
      </trkpt>
      <trkpt lat="38.907350" lon="-6.012083">
        <ele>1477.0</ele>
        <time>2019-05-04T13:56:48Z</time>
      </trkpt>
      <trkpt lat="38.907267" lon="-6.012033">
        <ele>1480.0</ele>
        <time>2019-05-04T13:56:49Z</time>
      </trkpt>
      <trkpt lat="38.907150" lon="-6.012017">
        <ele>1483.0</ele>
        <time>2019-05-04T13:56:50Z</time>
      </trkpt>
      <trkpt lat="38.907033" lon="-6.012017">
        <ele>1487.0</ele>
        <time>2019-05-04T13:56:51Z</time>
      </trkpt>
      <trkpt lat="38.906950" lon="-6.012067">
        <ele>1490.0</ele>
        <time>2019-05-04T13:56:52Z</time>
      </trkpt>
      <trkpt lat="38.906917" lon="-6.012117">
        <ele>1493.0</ele>
        <time>2019-05-04T13:56:53Z</time>
      </trkpt>
      <trkpt lat="38.906900" lon="-6.012183">
        <ele>1496.0</ele>
        <time>2019-05-04T13:56:54Z</time>
      </trkpt>
      <trkpt lat="38.906900" lon="-6.012233">
        <ele>1498.0</ele>
        <time>2019-05-04T13:56:55Z</time>
      </trkpt>
      <trkpt lat="38.906933" lon="-6.012283">
        <ele>1500.0</ele>
        <time>2019-05-04T13:56:56Z</time>
      </trkpt>
      <trkpt lat="38.906967" lon="-6.012317">
        <ele>1503.0</ele>
        <time>2019-05-04T13:56:57Z</time>
      </trkpt>
      <trkpt lat="38.907017" lon="-6.012333">
        <ele>1504.0</ele>
        <time>2019-05-04T13:56:58Z</time>
      </trkpt>
      <trkpt lat="38.907067" lon="-6.012333">
        <ele>1506.0</ele>
        <time>2019-05-04T13:56:59Z</time>
      </trkpt>
      <trkpt lat="38.907133" lon="-6.012300">
        <ele>1507.0</ele>
        <time>2019-05-04T13:57:00Z</time>
      </trkpt>
      <trkpt lat="38.907200" lon="-6.012233">
        <ele>1508.0</ele>
        <time>2019-05-04T13:57:01Z</time>
      </trkpt>
      <trkpt lat="38.907250" lon="-6.012133">
        <ele>1510.0</ele>
        <time>2019-05-04T13:57:02Z</time>
      </trkpt>
      <trkpt lat="38.907267" lon="-6.012017">
        <ele>1511.0</ele>
        <time>2019-05-04T13:57:03Z</time>
      </trkpt>
      <trkpt lat="38.907250" lon="-6.011883">
        <ele>1513.0</ele>
        <time>2019-05-04T13:57:04Z</time>
      </trkpt>
      <trkpt lat="38.907200" lon="-6.011783">
        <ele>1515.0</ele>
        <time>2019-05-04T13:57:05Z</time>
      </trkpt>
      <trkpt lat="38.907133" lon="-6.011700">
        <ele>1517.0</ele>
        <time>2019-05-04T13:57:06Z</time>
      </trkpt>
      <trkpt lat="38.907050" lon="-6.011617">
        <ele>1518.0</ele>
        <time>2019-05-04T13:57:07Z</time>
      </trkpt>
      <trkpt lat="38.906967" lon="-6.011567">
        <ele>1521.0</ele>
        <time>2019-05-04T13:57:08Z</time>
      </trkpt>
      <trkpt lat="38.906867" lon="-6.011533">
        <ele>1524.0</ele>
        <time>2019-05-04T13:57:09Z</time>
      </trkpt>
      <trkpt lat="38.906783" lon="-6.011533">
        <ele>1527.0</ele>
        <time>2019-05-04T13:57:10Z</time>
      </trkpt>
      <trkpt lat="38.906717" lon="-6.011583">
        <ele>1528.0</ele>
        <time>2019-05-04T13:57:11Z</time>
      </trkpt>
      <trkpt lat="38.906667" lon="-6.011633">
        <ele>1529.0</ele>
        <time>2019-05-04T13:57:12Z</time>
      </trkpt>
      <trkpt lat="38.906633" lon="-6.011700">
        <ele>1532.0</ele>
        <time>2019-05-04T13:57:13Z</time>
      </trkpt>
      <trkpt lat="38.906633" lon="-6.011767">
        <ele>1535.0</ele>
        <time>2019-05-04T13:57:14Z</time>
      </trkpt>
      <trkpt lat="38.906650" lon="-6.011833">
        <ele>1537.0</ele>
        <time>2019-05-04T13:57:15Z</time>
      </trkpt>
      <trkpt lat="38.906700" lon="-6.011867">
        <ele>1539.0</ele>
        <time>2019-05-04T13:57:16Z</time>
      </trkpt>
      <trkpt lat="38.906750" lon="-6.011883">
        <ele>1540.0</ele>
        <time>2019-05-04T13:57:17Z</time>
      </trkpt>
      <trkpt lat="38.906817" lon="-6.011867">
        <ele>1538.0</ele>
        <time>2019-05-04T13:57:18Z</time>
      </trkpt>
      <trkpt lat="38.906900" lon="-6.011800">
        <ele>1538.0</ele>
        <time>2019-05-04T13:57:19Z</time>
      </trkpt>
      <trkpt lat="38.906950" lon="-6.011717">
        <ele>1539.0</ele>
        <time>2019-05-04T13:57:20Z</time>
      </trkpt>
      <trkpt lat="38.906983" lon="-6.011600">
        <ele>1539.0</ele>
        <time>2019-05-04T13:57:21Z</time>
      </trkpt>
      <trkpt lat="38.907017" lon="-6.011483">
        <ele>1540.0</ele>
        <time>2019-05-04T13:57:22Z</time>
      </trkpt>
      <trkpt lat="38.907017" lon="-6.011383">
        <ele>1540.0</ele>
        <time>2019-05-04T13:57:23Z</time>
      </trkpt>
      <trkpt lat="38.907017" lon="-6.011283">
        <ele>1541.0</ele>
        <time>2019-05-04T13:57:24Z</time>
      </trkpt>
      <trkpt lat="38.907000" lon="-6.011167">
        <ele>1542.0</ele>
        <time>2019-05-04T13:57:25Z</time>
      </trkpt>
      <trkpt lat="38.906983" lon="-6.011033">
        <ele>1543.0</ele>
        <time>2019-05-04T13:57:26Z</time>
      </trkpt>
      <trkpt lat="38.906933" lon="-6.010917">
        <ele>1544.0</ele>
        <time>2019-05-04T13:57:27Z</time>
      </trkpt>
      <trkpt lat="38.906867" lon="-6.010817">
        <ele>1545.0</ele>
        <time>2019-05-04T13:57:28Z</time>
      </trkpt>
      <trkpt lat="38.906767" lon="-6.010750">
        <ele>1549.0</ele>
        <time>2019-05-04T13:57:29Z</time>
      </trkpt>
      <trkpt lat="38.906683" lon="-6.010683">
        <ele>1553.0</ele>
        <time>2019-05-04T13:57:30Z</time>
      </trkpt>
      <trkpt lat="38.906600" lon="-6.010633">
        <ele>1558.0</ele>
        <time>2019-05-04T13:57:31Z</time>
      </trkpt>
      <trkpt lat="38.906533" lon="-6.010600">
        <ele>1562.0</ele>
        <time>2019-05-04T13:57:32Z</time>
      </trkpt>
      <trkpt lat="38.906467" lon="-6.010567">
        <ele>1565.0</ele>
        <time>2019-05-04T13:57:33Z</time>
      </trkpt>
      <trkpt lat="38.906383" lon="-6.010567">
        <ele>1568.0</ele>
        <time>2019-05-04T13:57:34Z</time>
      </trkpt>
      <trkpt lat="38.906317" lon="-6.010600">
        <ele>1568.0</ele>
        <time>2019-05-04T13:57:35Z</time>
      </trkpt>
      <trkpt lat="38.906250" lon="-6.010650">
        <ele>1569.0</ele>
        <time>2019-05-04T13:57:36Z</time>
      </trkpt>
      <trkpt lat="38.906200" lon="-6.010733">
        <ele>1569.0</ele>
        <time>2019-05-04T13:57:37Z</time>
      </trkpt>
      <trkpt lat="38.906167" lon="-6.010817">
        <ele>1570.0</ele>
        <time>2019-05-04T13:57:38Z</time>
      </trkpt>
      <trkpt lat="38.906167" lon="-6.010900">
        <ele>1570.0</ele>
        <time>2019-05-04T13:57:39Z</time>
      </trkpt>
      <trkpt lat="38.906200" lon="-6.010983">
        <ele>1571.0</ele>
        <time>2019-05-04T13:57:40Z</time>
      </trkpt>
      <trkpt lat="38.906267" lon="-6.011033">
        <ele>1573.0</ele>
        <time>2019-05-04T13:57:41Z</time>
      </trkpt>
      <trkpt lat="38.906333" lon="-6.011050">
        <ele>1574.0</ele>
        <time>2019-05-04T13:57:42Z</time>
      </trkpt>
      <trkpt lat="38.906400" lon="-6.011033">
        <ele>1576.0</ele>
        <time>2019-05-04T13:57:43Z</time>
      </trkpt>
      <trkpt lat="38.906467" lon="-6.011000">
        <ele>1579.0</ele>
        <time>2019-05-04T13:57:44Z</time>
      </trkpt>
      <trkpt lat="38.906533" lon="-6.010950">
        <ele>1581.0</ele>
        <time>2019-05-04T13:57:45Z</time>
      </trkpt>
      <trkpt lat="38.906567" lon="-6.010883">
        <ele>1583.0</ele>
        <time>2019-05-04T13:57:46Z</time>
      </trkpt>
      <trkpt lat="38.906633" lon="-6.010817">
        <ele>1580.0</ele>
        <time>2019-05-04T13:57:47Z</time>
      </trkpt>
      <trkpt lat="38.906700" lon="-6.010717">
        <ele>1580.0</ele>
        <time>2019-05-04T13:57:48Z</time>
      </trkpt>
      <trkpt lat="38.906733" lon="-6.010583">
        <ele>1581.0</ele>
        <time>2019-05-04T13:57:49Z</time>
      </trkpt>
      <trkpt lat="38.906767" lon="-6.010450">
        <ele>1581.0</ele>
        <time>2019-05-04T13:57:50Z</time>
      </trkpt>
      <trkpt lat="38.906750" lon="-6.010317">
        <ele>1581.0</ele>
        <time>2019-05-04T13:57:51Z</time>
      </trkpt>
      <trkpt lat="38.906733" lon="-6.010200">
        <ele>1582.0</ele>
        <time>2019-05-04T13:57:52Z</time>
      </trkpt>
      <trkpt lat="38.906683" lon="-6.010083">
        <ele>1583.0</ele>
        <time>2019-05-04T13:57:53Z</time>
      </trkpt>
      <trkpt lat="38.906617" lon="-6.009983">
        <ele>1584.0</ele>
        <time>2019-05-04T13:57:54Z</time>
      </trkpt>
      <trkpt lat="38.906550" lon="-6.009900">
        <ele>1586.0</ele>
        <time>2019-05-04T13:57:55Z</time>
      </trkpt>
      <trkpt lat="38.906467" lon="-6.009850">
        <ele>1587.0</ele>
        <time>2019-05-04T13:57:56Z</time>
      </trkpt>
      <trkpt lat="38.906367" lon="-6.009817">
        <ele>1589.0</ele>
        <time>2019-05-04T13:57:57Z</time>
      </trkpt>
      <trkpt lat="38.906283" lon="-6.009817">
        <ele>1590.0</ele>
        <time>2019-05-04T13:57:58Z</time>
      </trkpt>
      <trkpt lat="38.906200" lon="-6.009850">
        <ele>1591.0</ele>
        <time>2019-05-04T13:57:59Z</time>
      </trkpt>
      <trkpt lat="38.906133" lon="-6.009900">
        <ele>1592.0</ele>
        <time>2019-05-04T13:58:00Z</time>
      </trkpt>
      <trkpt lat="38.906083" lon="-6.009967">
        <ele>1593.0</ele>
        <time>2019-05-04T13:58:01Z</time>
      </trkpt>
      <trkpt lat="38.906050" lon="-6.010050">
        <ele>1594.0</ele>
        <time>2019-05-04T13:58:02Z</time>
      </trkpt>
      <trkpt lat="38.906050" lon="-6.010150">
        <ele>1594.0</ele>
        <time>2019-05-04T13:58:03Z</time>
      </trkpt>
      <trkpt lat="38.906067" lon="-6.010233">
        <ele>1595.0</ele>
        <time>2019-05-04T13:58:04Z</time>
      </trkpt>
      <trkpt lat="38.906117" lon="-6.010317">
        <ele>1596.0</ele>
        <time>2019-05-04T13:58:05Z</time>
      </trkpt>
      <trkpt lat="38.906167" lon="-6.010350">
        <ele>1596.0</ele>
        <time>2019-05-04T13:58:06Z</time>
      </trkpt>
      <trkpt lat="38.906250" lon="-6.010367">
        <ele>1597.0</ele>
        <time>2019-05-04T13:58:07Z</time>
      </trkpt>
      <trkpt lat="38.906317" lon="-6.010383">
        <ele>1599.0</ele>
        <time>2019-05-04T13:58:08Z</time>
      </trkpt>
      <trkpt lat="38.906400" lon="-6.010367">
        <ele>1601.0</ele>
        <time>2019-05-04T13:58:09Z</time>
      </trkpt>
      <trkpt lat="38.906467" lon="-6.010350">
        <ele>1603.0</ele>
        <time>2019-05-04T13:58:10Z</time>
      </trkpt>
      <trkpt lat="38.906533" lon="-6.010333">
        <ele>1604.0</ele>
        <time>2019-05-04T13:58:11Z</time>
      </trkpt>
      <trkpt lat="38.906617" lon="-6.010317">
        <ele>1606.0</ele>
        <time>2019-05-04T13:58:12Z</time>
      </trkpt>
      <trkpt lat="38.906683" lon="-6.010267">
        <ele>1607.0</ele>
        <time>2019-05-04T13:58:13Z</time>
      </trkpt>
      <trkpt lat="38.906733" lon="-6.010183">
        <ele>1609.0</ele>
        <time>2019-05-04T13:58:14Z</time>
      </trkpt>
      <trkpt lat="38.906783" lon="-6.010100">
        <ele>1610.0</ele>
        <time>2019-05-04T13:58:15Z</time>
      </trkpt>
      <trkpt lat="38.906817" lon="-6.010000">
        <ele>1612.0</ele>
        <time>2019-05-04T13:58:16Z</time>
      </trkpt>
      <trkpt lat="38.906833" lon="-6.009883">
        <ele>1613.0</ele>
        <time>2019-05-04T13:58:17Z</time>
      </trkpt>
      <trkpt lat="38.906850" lon="-6.009767">
        <ele>1615.0</ele>
        <time>2019-05-04T13:58:18Z</time>
      </trkpt>
      <trkpt lat="38.906850" lon="-6.009633">
        <ele>1615.0</ele>
        <time>2019-05-04T13:58:19Z</time>
      </trkpt>
      <trkpt lat="38.906817" lon="-6.009500">
        <ele>1616.0</ele>
        <time>2019-05-04T13:58:20Z</time>
      </trkpt>
      <trkpt lat="38.906767" lon="-6.009383">
        <ele>1615.0</ele>
        <time>2019-05-04T13:58:21Z</time>
      </trkpt>
      <trkpt lat="38.906700" lon="-6.009283">
        <ele>1615.0</ele>
        <time>2019-05-04T13:58:22Z</time>
      </trkpt>
      <trkpt lat="38.906617" lon="-6.009200">
        <ele>1616.0</ele>
        <time>2019-05-04T13:58:23Z</time>
      </trkpt>
      <trkpt lat="38.906517" lon="-6.009167">
        <ele>1616.0</ele>
        <time>2019-05-04T13:58:24Z</time>
      </trkpt>
      <trkpt lat="38.906433" lon="-6.009150">
        <ele>1617.0</ele>
        <time>2019-05-04T13:58:25Z</time>
      </trkpt>
      <trkpt lat="38.906350" lon="-6.009150">
        <ele>1618.0</ele>
        <time>2019-05-04T13:58:26Z</time>
      </trkpt>
      <trkpt lat="38.906267" lon="-6.009167">
        <ele>1619.0</ele>
        <time>2019-05-04T13:58:27Z</time>
      </trkpt>
      <trkpt lat="38.906200" lon="-6.009217">
        <ele>1619.0</ele>
        <time>2019-05-04T13:58:28Z</time>
      </trkpt>
      <trkpt lat="38.906150" lon="-6.009283">
        <ele>1620.0</ele>
        <time>2019-05-04T13:58:29Z</time>
      </trkpt>
      <trkpt lat="38.906133" lon="-6.009350">
        <ele>1620.0</ele>
        <time>2019-05-04T13:58:30Z</time>
      </trkpt>
      <trkpt lat="38.906150" lon="-6.009433">
        <ele>1621.0</ele>
        <time>2019-05-04T13:58:31Z</time>
      </trkpt>
      <trkpt lat="38.906167" lon="-6.009483">
        <ele>1622.0</ele>
        <time>2019-05-04T13:58:32Z</time>
      </trkpt>
      <trkpt lat="38.906183" lon="-6.009517">
        <ele>1623.0</ele>
        <time>2019-05-04T13:58:33Z</time>
      </trkpt>
      <trkpt lat="38.906217" lon="-6.009567">
        <ele>1625.0</ele>
        <time>2019-05-04T13:58:34Z</time>
      </trkpt>
      <trkpt lat="38.906250" lon="-6.009617">
        <ele>1626.0</ele>
        <time>2019-05-04T13:58:35Z</time>
      </trkpt>
      <trkpt lat="38.906300" lon="-6.009650">
        <ele>1626.0</ele>
        <time>2019-05-04T13:58:36Z</time>
      </trkpt>
      <trkpt lat="38.906367" lon="-6.009667">
        <ele>1626.0</ele>
        <time>2019-05-04T13:58:37Z</time>
      </trkpt>
      <trkpt lat="38.906450" lon="-6.009650">
        <ele>1627.0</ele>
        <time>2019-05-04T13:58:38Z</time>
      </trkpt>
      <trkpt lat="38.906533" lon="-6.009617">
        <ele>1628.0</ele>
        <time>2019-05-04T13:58:39Z</time>
      </trkpt>
      <trkpt lat="38.906600" lon="-6.009583">
        <ele>1630.0</ele>
        <time>2019-05-04T13:58:40Z</time>
      </trkpt>
      <trkpt lat="38.906650" lon="-6.009550">
        <ele>1631.0</ele>
        <time>2019-05-04T13:58:41Z</time>
      </trkpt>
      <trkpt lat="38.906700" lon="-6.009533">
        <ele>1633.0</ele>
        <time>2019-05-04T13:58:42Z</time>
      </trkpt>
      <trkpt lat="38.906750" lon="-6.009483">
        <ele>1632.0</ele>
        <time>2019-05-04T13:58:43Z</time>
      </trkpt>
      <trkpt lat="38.906817" lon="-6.009417">
        <ele>1632.0</ele>
        <time>2019-05-04T13:58:44Z</time>
      </trkpt>
      <trkpt lat="38.906883" lon="-6.009317">
        <ele>1632.0</ele>
        <time>2019-05-04T13:58:45Z</time>
      </trkpt>
      <trkpt lat="38.906900" lon="-6.009200">
        <ele>1632.0</ele>
        <time>2019-05-04T13:58:46Z</time>
      </trkpt>
      <trkpt lat="38.906883" lon="-6.009067">
        <ele>1632.0</ele>
        <time>2019-05-04T13:58:47Z</time>
      </trkpt>
      <trkpt lat="38.906833" lon="-6.008950">
        <ele>1634.0</ele>
        <time>2019-05-04T13:58:48Z</time>
      </trkpt>
      <trkpt lat="38.906783" lon="-6.008867">
        <ele>1635.0</ele>
        <time>2019-05-04T13:58:49Z</time>
      </trkpt>
      <trkpt lat="38.906700" lon="-6.008817">
        <ele>1637.0</ele>
        <time>2019-05-04T13:58:50Z</time>
      </trkpt>
      <trkpt lat="38.906617" lon="-6.008767">
        <ele>1638.0</ele>
        <time>2019-05-04T13:58:51Z</time>
      </trkpt>
      <trkpt lat="38.906550" lon="-6.008767">
        <ele>1640.0</ele>
        <time>2019-05-04T13:58:52Z</time>
      </trkpt>
      <trkpt lat="38.906467" lon="-6.008800">
        <ele>1641.0</ele>
        <time>2019-05-04T13:58:53Z</time>
      </trkpt>
      <trkpt lat="38.906417" lon="-6.008850">
        <ele>1642.0</ele>
        <time>2019-05-04T13:58:54Z</time>
      </trkpt>
      <trkpt lat="38.906383" lon="-6.008917">
        <ele>1643.0</ele>
        <time>2019-05-04T13:58:55Z</time>
      </trkpt>
      <trkpt lat="38.906367" lon="-6.008983">
        <ele>1644.0</ele>
        <time>2019-05-04T13:58:56Z</time>
      </trkpt>
      <trkpt lat="38.906367" lon="-6.009050">
        <ele>1644.0</ele>
        <time>2019-05-04T13:58:57Z</time>
      </trkpt>
      <trkpt lat="38.906400" lon="-6.009117">
        <ele>1645.0</ele>
        <time>2019-05-04T13:58:58Z</time>
      </trkpt>
      <trkpt lat="38.906433" lon="-6.009167">
        <ele>1646.0</ele>
        <time>2019-05-04T13:58:59Z</time>
      </trkpt>
      <trkpt lat="38.906483" lon="-6.009217">
        <ele>1647.0</ele>
        <time>2019-05-04T13:59:00Z</time>
      </trkpt>
      <trkpt lat="38.906567" lon="-6.009250">
        <ele>1647.0</ele>
        <time>2019-05-04T13:59:01Z</time>
      </trkpt>
      <trkpt lat="38.906650" lon="-6.009267">
        <ele>1648.0</ele>
        <time>2019-05-04T13:59:02Z</time>
      </trkpt>
      <trkpt lat="38.906733" lon="-6.009267">
        <ele>1650.0</ele>
        <time>2019-05-04T13:59:03Z</time>
      </trkpt>
      <trkpt lat="38.906817" lon="-6.009233">
        <ele>1653.0</ele>
        <time>2019-05-04T13:59:04Z</time>
      </trkpt>
      <trkpt lat="38.906883" lon="-6.009200">
        <ele>1656.0</ele>
        <time>2019-05-04T13:59:05Z</time>
      </trkpt>
      <trkpt lat="38.906950" lon="-6.009150">
        <ele>1659.0</ele>
        <time>2019-05-04T13:59:06Z</time>
      </trkpt>
      <trkpt lat="38.907017" lon="-6.009083">
        <ele>1661.0</ele>
        <time>2019-05-04T13:59:07Z</time>
      </trkpt>
      <trkpt lat="38.907083" lon="-6.009000">
        <ele>1662.0</ele>
        <time>2019-05-04T13:59:08Z</time>
      </trkpt>
      <trkpt lat="38.907133" lon="-6.008900">
        <ele>1664.0</ele>
        <time>2019-05-04T13:59:09Z</time>
      </trkpt>
      <trkpt lat="38.907150" lon="-6.008783">
        <ele>1666.0</ele>
        <time>2019-05-04T13:59:10Z</time>
      </trkpt>
      <trkpt lat="38.907150" lon="-6.008667">
        <ele>1668.0</ele>
        <time>2019-05-04T13:59:11Z</time>
      </trkpt>
      <trkpt lat="38.907133" lon="-6.008550">
        <ele>1669.0</ele>
        <time>2019-05-04T13:59:12Z</time>
      </trkpt>
      <trkpt lat="38.907083" lon="-6.008433">
        <ele>1671.0</ele>
        <time>2019-05-04T13:59:13Z</time>
      </trkpt>
      <trkpt lat="38.907017" lon="-6.008350">
        <ele>1671.0</ele>
        <time>2019-05-04T13:59:14Z</time>
      </trkpt>
      <trkpt lat="38.906933" lon="-6.008267">
        <ele>1673.0</ele>
        <time>2019-05-04T13:59:15Z</time>
      </trkpt>
      <trkpt lat="38.906833" lon="-6.008217">
        <ele>1674.0</ele>
        <time>2019-05-04T13:59:16Z</time>
      </trkpt>
      <trkpt lat="38.906750" lon="-6.008200">
        <ele>1675.0</ele>
        <time>2019-05-04T13:59:17Z</time>
      </trkpt>
      <trkpt lat="38.906667" lon="-6.008217">
        <ele>1675.0</ele>
        <time>2019-05-04T13:59:18Z</time>
      </trkpt>
      <trkpt lat="38.906600" lon="-6.008267">
        <ele>1676.0</ele>
        <time>2019-05-04T13:59:19Z</time>
      </trkpt>
      <trkpt lat="38.906550" lon="-6.008317">
        <ele>1677.0</ele>
        <time>2019-05-04T13:59:20Z</time>
      </trkpt>
      <trkpt lat="38.906517" lon="-6.008383">
        <ele>1677.0</ele>
        <time>2019-05-04T13:59:21Z</time>
      </trkpt>
      <trkpt lat="38.906533" lon="-6.008483">
        <ele>1678.0</ele>
        <time>2019-05-04T13:59:22Z</time>
      </trkpt>
      <trkpt lat="38.906550" lon="-6.008567">
        <ele>1679.0</ele>
        <time>2019-05-04T13:59:23Z</time>
      </trkpt>
      <trkpt lat="38.906567" lon="-6.008633">
        <ele>1681.0</ele>
        <time>2019-05-04T13:59:24Z</time>
      </trkpt>
      <trkpt lat="38.906600" lon="-6.008683">
        <ele>1686.0</ele>
        <time>2019-05-04T13:59:25Z</time>
      </trkpt>
      <trkpt lat="38.906617" lon="-6.008733">
        <ele>1688.0</ele>
        <time>2019-05-04T13:59:26Z</time>
      </trkpt>
      <trkpt lat="38.906650" lon="-6.008783">
        <ele>1690.0</ele>
        <time>2019-05-04T13:59:27Z</time>
      </trkpt>
      <trkpt lat="38.906700" lon="-6.008850">
        <ele>1691.0</ele>
        <time>2019-05-04T13:59:28Z</time>
      </trkpt>
      <trkpt lat="38.906783" lon="-6.008867">
        <ele>1692.0</ele>
        <time>2019-05-04T13:59:29Z</time>
      </trkpt>
      <trkpt lat="38.906883" lon="-6.008867">
        <ele>1693.0</ele>
        <time>2019-05-04T13:59:30Z</time>
      </trkpt>
      <trkpt lat="38.906967" lon="-6.008817">
        <ele>1695.0</ele>
        <time>2019-05-04T13:59:31Z</time>
      </trkpt>
      <trkpt lat="38.907033" lon="-6.008733">
        <ele>1697.0</ele>
        <time>2019-05-04T13:59:32Z</time>
      </trkpt>
      <trkpt lat="38.907083" lon="-6.008633">
        <ele>1698.0</ele>
        <time>2019-05-04T13:59:33Z</time>
      </trkpt>
      <trkpt lat="38.907117" lon="-6.008550">
        <ele>1700.0</ele>
        <time>2019-05-04T13:59:34Z</time>
      </trkpt>
      <trkpt lat="38.907150" lon="-6.008433">
        <ele>1701.0</ele>
        <time>2019-05-04T13:59:35Z</time>
      </trkpt>
      <trkpt lat="38.907167" lon="-6.008300">
        <ele>1703.0</ele>
        <time>2019-05-04T13:59:36Z</time>
      </trkpt>
      <trkpt lat="38.907150" lon="-6.008167">
        <ele>1704.0</ele>
        <time>2019-05-04T13:59:37Z</time>
      </trkpt>
      <trkpt lat="38.907100" lon="-6.008050">
        <ele>1704.0</ele>
        <time>2019-05-04T13:59:38Z</time>
      </trkpt>
      <trkpt lat="38.907033" lon="-6.007950">
        <ele>1704.0</ele>
        <time>2019-05-04T13:59:39Z</time>
      </trkpt>
      <trkpt lat="38.906950" lon="-6.007883">
        <ele>1705.0</ele>
        <time>2019-05-04T13:59:40Z</time>
      </trkpt>
      <trkpt lat="38.906833" lon="-6.007867">
        <ele>1706.0</ele>
        <time>2019-05-04T13:59:41Z</time>
      </trkpt>
      <trkpt lat="38.906750" lon="-6.007883">
        <ele>1706.0</ele>
        <time>2019-05-04T13:59:42Z</time>
      </trkpt>
      <trkpt lat="38.906683" lon="-6.007917">
        <ele>1708.0</ele>
        <time>2019-05-04T13:59:43Z</time>
      </trkpt>
      <trkpt lat="38.906633" lon="-6.007967">
        <ele>1710.0</ele>
        <time>2019-05-04T13:59:44Z</time>
      </trkpt>
      <trkpt lat="38.906583" lon="-6.008050">
        <ele>1711.0</ele>
        <time>2019-05-04T13:59:45Z</time>
      </trkpt>
      <trkpt lat="38.906567" lon="-6.008133">
        <ele>1712.0</ele>
        <time>2019-05-04T13:59:46Z</time>
      </trkpt>
      <trkpt lat="38.906550" lon="-6.008233">
        <ele>1713.0</ele>
        <time>2019-05-04T13:59:47Z</time>
      </trkpt>
      <trkpt lat="38.906567" lon="-6.008333">
        <ele>1715.0</ele>
        <time>2019-05-04T13:59:48Z</time>
      </trkpt>
      <trkpt lat="38.906617" lon="-6.008383">
        <ele>1718.0</ele>
        <time>2019-05-04T13:59:49Z</time>
      </trkpt>
      <trkpt lat="38.906650" lon="-6.008417">
        <ele>1720.0</ele>
        <time>2019-05-04T13:59:50Z</time>
      </trkpt>
      <trkpt lat="38.906700" lon="-6.008467">
        <ele>1722.0</ele>
        <time>2019-05-04T13:59:51Z</time>
      </trkpt>
      <trkpt lat="38.906750" lon="-6.008500">
        <ele>1724.0</ele>
        <time>2019-05-04T13:59:52Z</time>
      </trkpt>
      <trkpt lat="38.906800" lon="-6.008533">
        <ele>1726.0</ele>
        <time>2019-05-04T13:59:53Z</time>
      </trkpt>
      <trkpt lat="38.906883" lon="-6.008550">
        <ele>1727.0</ele>
        <time>2019-05-04T13:59:54Z</time>
      </trkpt>
      <trkpt lat="38.906967" lon="-6.008533">
        <ele>1728.0</ele>
        <time>2019-05-04T13:59:55Z</time>
      </trkpt>
      <trkpt lat="38.907033" lon="-6.008483">
        <ele>1729.0</ele>
        <time>2019-05-04T13:59:56Z</time>
      </trkpt>
      <trkpt lat="38.907100" lon="-6.008383">
        <ele>1730.0</ele>
        <time>2019-05-04T13:59:57Z</time>
      </trkpt>
      <trkpt lat="38.907133" lon="-6.008283">
        <ele>1732.0</ele>
        <time>2019-05-04T13:59:58Z</time>
      </trkpt>
      <trkpt lat="38.907150" lon="-6.008167">
        <ele>1733.0</ele>
        <time>2019-05-04T13:59:59Z</time>
      </trkpt>
      <trkpt lat="38.907150" lon="-6.008067">
        <ele>1735.0</ele>
        <time>2019-05-04T14:00:00Z</time>
      </trkpt>
      <trkpt lat="38.907133" lon="-6.007950">
        <ele>1737.0</ele>
        <time>2019-05-04T14:00:01Z</time>
      </trkpt>
      <trkpt lat="38.907083" lon="-6.007833">
        <ele>1738.0</ele>
        <time>2019-05-04T14:00:02Z</time>
      </trkpt>
      <trkpt lat="38.907017" lon="-6.007733">
        <ele>1739.0</ele>
        <time>2019-05-04T14:00:03Z</time>
      </trkpt>
      <trkpt lat="38.906933" lon="-6.007667">
        <ele>1741.0</ele>
        <time>2019-05-04T14:00:04Z</time>
      </trkpt>
      <trkpt lat="38.906850" lon="-6.007650">
        <ele>1742.0</ele>
        <time>2019-05-04T14:00:05Z</time>
      </trkpt>
      <trkpt lat="38.906767" lon="-6.007650">
        <ele>1745.0</ele>
        <time>2019-05-04T14:00:06Z</time>
      </trkpt>
      <trkpt lat="38.906717" lon="-6.007683">
        <ele>1747.0</ele>
        <time>2019-05-04T14:00:07Z</time>
      </trkpt>
      <trkpt lat="38.906650" lon="-6.007733">
        <ele>1749.0</ele>
        <time>2019-05-04T14:00:08Z</time>
      </trkpt>
      <trkpt lat="38.906617" lon="-6.007783">
        <ele>1750.0</ele>
        <time>2019-05-04T14:00:09Z</time>
      </trkpt>
      <trkpt lat="38.906583" lon="-6.007867">
        <ele>1751.0</ele>
        <time>2019-05-04T14:00:10Z</time>
      </trkpt>
      <trkpt lat="38.906567" lon="-6.007933">
        <ele>1752.0</ele>
        <time>2019-05-04T14:00:11Z</time>
      </trkpt>
      <trkpt lat="38.906600" lon="-6.008017">
        <ele>1754.0</ele>
        <time>2019-05-04T14:00:12Z</time>
      </trkpt>
      <trkpt lat="38.906650" lon="-6.008067">
        <ele>1755.0</ele>
        <time>2019-05-04T14:00:13Z</time>
      </trkpt>
      <trkpt lat="38.906717" lon="-6.008117">
        <ele>1755.0</ele>
        <time>2019-05-04T14:00:14Z</time>
      </trkpt>
      <trkpt lat="38.906800" lon="-6.008150">
        <ele>1755.0</ele>
        <time>2019-05-04T14:00:15Z</time>
      </trkpt>
      <trkpt lat="38.906883" lon="-6.008150">
        <ele>1756.0</ele>
        <time>2019-05-04T14:00:16Z</time>
      </trkpt>
      <trkpt lat="38.906967" lon="-6.008150">
        <ele>1757.0</ele>
        <time>2019-05-04T14:00:17Z</time>
      </trkpt>
      <trkpt lat="38.907050" lon="-6.008133">
        <ele>1758.0</ele>
        <time>2019-05-04T14:00:18Z</time>
      </trkpt>
      <trkpt lat="38.907133" lon="-6.008117">
        <ele>1759.0</ele>
        <time>2019-05-04T14:00:19Z</time>
      </trkpt>
      <trkpt lat="38.907217" lon="-6.008100">
        <ele>1759.0</ele>
        <time>2019-05-04T14:00:20Z</time>
      </trkpt>
      <trkpt lat="38.907300" lon="-6.008033">
        <ele>1760.0</ele>
        <time>2019-05-04T14:00:21Z</time>
      </trkpt>
      <trkpt lat="38.907367" lon="-6.007950">
        <ele>1760.0</ele>
        <time>2019-05-04T14:00:22Z</time>
      </trkpt>
      <trkpt lat="38.907433" lon="-6.007850">
        <ele>1761.0</ele>
        <time>2019-05-04T14:00:23Z</time>
      </trkpt>
      <trkpt lat="38.907450" lon="-6.007750">
        <ele>1762.0</ele>
        <time>2019-05-04T14:00:24Z</time>
      </trkpt>
      <trkpt lat="38.907467" lon="-6.007633">
        <ele>1763.0</ele>
        <time>2019-05-04T14:00:25Z</time>
      </trkpt>
      <trkpt lat="38.907450" lon="-6.007500">
        <ele>1764.0</ele>
        <time>2019-05-04T14:00:26Z</time>
      </trkpt>
      <trkpt lat="38.907450" lon="-6.007367">
        <ele>1765.0</ele>
        <time>2019-05-04T14:00:27Z</time>
      </trkpt>
      <trkpt lat="38.907417" lon="-6.007233">
        <ele>1766.0</ele>
        <time>2019-05-04T14:00:28Z</time>
      </trkpt>
      <trkpt lat="38.907350" lon="-6.007100">
        <ele>1767.0</ele>
        <time>2019-05-04T14:00:29Z</time>
      </trkpt>
      <trkpt lat="38.907267" lon="-6.007017">
        <ele>1768.0</ele>
        <time>2019-05-04T14:00:30Z</time>
      </trkpt>
      <trkpt lat="38.907183" lon="-6.006950">
        <ele>1770.0</ele>
        <time>2019-05-04T14:00:31Z</time>
      </trkpt>
      <trkpt lat="38.907100" lon="-6.006933">
        <ele>1775.0</ele>
        <time>2019-05-04T14:00:32Z</time>
      </trkpt>
      <trkpt lat="38.907033" lon="-6.006950">
        <ele>1778.0</ele>
        <time>2019-05-04T14:00:33Z</time>
      </trkpt>
      <trkpt lat="38.906983" lon="-6.006983">
        <ele>1780.0</ele>
        <time>2019-05-04T14:00:34Z</time>
      </trkpt>
      <trkpt lat="38.906967" lon="-6.007033">
        <ele>1782.0</ele>
        <time>2019-05-04T14:00:35Z</time>
      </trkpt>
      <trkpt lat="38.906950" lon="-6.007117">
        <ele>1784.0</ele>
        <time>2019-05-04T14:00:36Z</time>
      </trkpt>
      <trkpt lat="38.906983" lon="-6.007183">
        <ele>1784.0</ele>
        <time>2019-05-04T14:00:37Z</time>
      </trkpt>
      <trkpt lat="38.907033" lon="-6.007250">
        <ele>1784.0</ele>
        <time>2019-05-04T14:00:38Z</time>
      </trkpt>
      <trkpt lat="38.907117" lon="-6.007283">
        <ele>1785.0</ele>
        <time>2019-05-04T14:00:39Z</time>
      </trkpt>
      <trkpt lat="38.907200" lon="-6.007250">
        <ele>1785.0</ele>
        <time>2019-05-04T14:00:40Z</time>
      </trkpt>
      <trkpt lat="38.907283" lon="-6.007183">
        <ele>1786.0</ele>
        <time>2019-05-04T14:00:41Z</time>
      </trkpt>
      <trkpt lat="38.907333" lon="-6.007067">
        <ele>1787.0</ele>
        <time>2019-05-04T14:00:42Z</time>
      </trkpt>
      <trkpt lat="38.907383" lon="-6.006967">
        <ele>1788.0</ele>
        <time>2019-05-04T14:00:43Z</time>
      </trkpt>
      <trkpt lat="38.907400" lon="-6.006867">
        <ele>1789.0</ele>
        <time>2019-05-04T14:00:44Z</time>
      </trkpt>
      <trkpt lat="38.907417" lon="-6.006750">
        <ele>1790.0</ele>
        <time>2019-05-04T14:00:45Z</time>
      </trkpt>
      <trkpt lat="38.907400" lon="-6.006617">
        <ele>1790.0</ele>
        <time>2019-05-04T14:00:46Z</time>
      </trkpt>
      <trkpt lat="38.907350" lon="-6.006500">
        <ele>1789.0</ele>
        <time>2019-05-04T14:00:47Z</time>
      </trkpt>
      <trkpt lat="38.907283" lon="-6.006400">
        <ele>1788.0</ele>
        <time>2019-05-04T14:00:48Z</time>
      </trkpt>
      <trkpt lat="38.907217" lon="-6.006333">
        <ele>1789.0</ele>
        <time>2019-05-04T14:00:49Z</time>
      </trkpt>
      <trkpt lat="38.907133" lon="-6.006300">
        <ele>1790.0</ele>
        <time>2019-05-04T14:00:50Z</time>
      </trkpt>
      <trkpt lat="38.907050" lon="-6.006317">
        <ele>1792.0</ele>
        <time>2019-05-04T14:00:51Z</time>
      </trkpt>
      <trkpt lat="38.906983" lon="-6.006350">
        <ele>1792.0</ele>
        <time>2019-05-04T14:00:52Z</time>
      </trkpt>
      <trkpt lat="38.906950" lon="-6.006417">
        <ele>1792.0</ele>
        <time>2019-05-04T14:00:53Z</time>
      </trkpt>
      <trkpt lat="38.906917" lon="-6.006500">
        <ele>1792.0</ele>
        <time>2019-05-04T14:00:54Z</time>
      </trkpt>
      <trkpt lat="38.906933" lon="-6.006567">
        <ele>1792.0</ele>
        <time>2019-05-04T14:00:55Z</time>
      </trkpt>
      <trkpt lat="38.906967" lon="-6.006650">
        <ele>1793.0</ele>
        <time>2019-05-04T14:00:56Z</time>
      </trkpt>
      <trkpt lat="38.907017" lon="-6.006717">
        <ele>1794.0</ele>
        <time>2019-05-04T14:00:57Z</time>
      </trkpt>
      <trkpt lat="38.907083" lon="-6.006767">
        <ele>1795.0</ele>
        <time>2019-05-04T14:00:58Z</time>
      </trkpt>
      <trkpt lat="38.907150" lon="-6.006817">
        <ele>1796.0</ele>
        <time>2019-05-04T14:00:59Z</time>
      </trkpt>
      <trkpt lat="38.907233" lon="-6.006850">
        <ele>1797.0</ele>
        <time>2019-05-04T14:01:00Z</time>
      </trkpt>
      <trkpt lat="38.907317" lon="-6.006850">
        <ele>1797.0</ele>
        <time>2019-05-04T14:01:01Z</time>
      </trkpt>
      <trkpt lat="38.907417" lon="-6.006833">
        <ele>1798.0</ele>
        <time>2019-05-04T14:01:02Z</time>
      </trkpt>
      <trkpt lat="38.907500" lon="-6.006800">
        <ele>1799.0</ele>
        <time>2019-05-04T14:01:03Z</time>
      </trkpt>
      <trkpt lat="38.907550" lon="-6.006733">
        <ele>1800.0</ele>
        <time>2019-05-04T14:01:04Z</time>
      </trkpt>
      <trkpt lat="38.907617" lon="-6.006650">
        <ele>1801.0</ele>
        <time>2019-05-04T14:01:05Z</time>
      </trkpt>
      <trkpt lat="38.907667" lon="-6.006533">
        <ele>1801.0</ele>
        <time>2019-05-04T14:01:06Z</time>
      </trkpt>
      <trkpt lat="38.907717" lon="-6.006433">
        <ele>1802.0</ele>
        <time>2019-05-04T14:01:07Z</time>
      </trkpt>
      <trkpt lat="38.907750" lon="-6.006300">
        <ele>1802.0</ele>
        <time>2019-05-04T14:01:08Z</time>
      </trkpt>
      <trkpt lat="38.907750" lon="-6.006150">
        <ele>1802.0</ele>
        <time>2019-05-04T14:01:09Z</time>
      </trkpt>
      <trkpt lat="38.907717" lon="-6.006033">
        <ele>1803.0</ele>
        <time>2019-05-04T14:01:10Z</time>
      </trkpt>
      <trkpt lat="38.907667" lon="-6.005950">
        <ele>1803.0</ele>
        <time>2019-05-04T14:01:11Z</time>
      </trkpt>
      <trkpt lat="38.907600" lon="-6.005883">
        <ele>1803.0</ele>
        <time>2019-05-04T14:01:12Z</time>
      </trkpt>
      <trkpt lat="38.907517" lon="-6.005850">
        <ele>1803.0</ele>
        <time>2019-05-04T14:01:13Z</time>
      </trkpt>
      <trkpt lat="38.907433" lon="-6.005833">
        <ele>1802.0</ele>
        <time>2019-05-04T14:01:14Z</time>
      </trkpt>
      <trkpt lat="38.907367" lon="-6.005850">
        <ele>1802.0</ele>
        <time>2019-05-04T14:01:15Z</time>
      </trkpt>
      <trkpt lat="38.907317" lon="-6.005917">
        <ele>1801.0</ele>
        <time>2019-05-04T14:01:16Z</time>
      </trkpt>
      <trkpt lat="38.907300" lon="-6.006000">
        <ele>1801.0</ele>
        <time>2019-05-04T14:01:17Z</time>
      </trkpt>
      <trkpt lat="38.907300" lon="-6.006083">
        <ele>1801.0</ele>
        <time>2019-05-04T14:01:18Z</time>
      </trkpt>
      <trkpt lat="38.907300" lon="-6.006133">
        <ele>1802.0</ele>
        <time>2019-05-04T14:01:19Z</time>
      </trkpt>
      <trkpt lat="38.907317" lon="-6.006200">
        <ele>1802.0</ele>
        <time>2019-05-04T14:01:20Z</time>
      </trkpt>
      <trkpt lat="38.907317" lon="-6.006250">
        <ele>1803.0</ele>
        <time>2019-05-04T14:01:21Z</time>
      </trkpt>
      <trkpt lat="38.907333" lon="-6.006317">
        <ele>1801.0</ele>
        <time>2019-05-04T14:01:22Z</time>
      </trkpt>
      <trkpt lat="38.907367" lon="-6.006400">
        <ele>1799.0</ele>
        <time>2019-05-04T14:01:23Z</time>
      </trkpt>
      <trkpt lat="38.907400" lon="-6.006500">
        <ele>1798.0</ele>
        <time>2019-05-04T14:01:24Z</time>
      </trkpt>
      <trkpt lat="38.907433" lon="-6.006567">
        <ele>1798.0</ele>
        <time>2019-05-04T14:01:25Z</time>
      </trkpt>
      <trkpt lat="38.907450" lon="-6.006633">
        <ele>1799.0</ele>
        <time>2019-05-04T14:01:26Z</time>
      </trkpt>
      <trkpt lat="38.907450" lon="-6.006700">
        <ele>1800.0</ele>
        <time>2019-05-04T14:01:27Z</time>
      </trkpt>
      <trkpt lat="38.907467" lon="-6.006800">
        <ele>1800.0</ele>
        <time>2019-05-04T14:01:28Z</time>
      </trkpt>
      <trkpt lat="38.907483" lon="-6.006883">
        <ele>1799.0</ele>
        <time>2019-05-04T14:01:29Z</time>
      </trkpt>
      <trkpt lat="38.907517" lon="-6.006983">
        <ele>1798.0</ele>
        <time>2019-05-04T14:01:30Z</time>
      </trkpt>
      <trkpt lat="38.907550" lon="-6.007100">
        <ele>1799.0</ele>
        <time>2019-05-04T14:01:31Z</time>
      </trkpt>
      <trkpt lat="38.907583" lon="-6.007183">
        <ele>1799.0</ele>
        <time>2019-05-04T14:01:32Z</time>
      </trkpt>
      <trkpt lat="38.907600" lon="-6.007283">
        <ele>1800.0</ele>
        <time>2019-05-04T14:01:33Z</time>
      </trkpt>
      <trkpt lat="38.907617" lon="-6.007367">
        <ele>1801.0</ele>
        <time>2019-05-04T14:01:34Z</time>
      </trkpt>
      <trkpt lat="38.907667" lon="-6.007450">
        <ele>1802.0</ele>
        <time>2019-05-04T14:01:35Z</time>
      </trkpt>
      <trkpt lat="38.907717" lon="-6.007533">
        <ele>1802.0</ele>
        <time>2019-05-04T14:01:36Z</time>
      </trkpt>
      <trkpt lat="38.907767" lon="-6.007617">
        <ele>1803.0</ele>
        <time>2019-05-04T14:01:37Z</time>
      </trkpt>
      <trkpt lat="38.907817" lon="-6.007683">
        <ele>1804.0</ele>
        <time>2019-05-04T14:01:38Z</time>
      </trkpt>
      <trkpt lat="38.907867" lon="-6.007767">
        <ele>1803.0</ele>
        <time>2019-05-04T14:01:39Z</time>
      </trkpt>
      <trkpt lat="38.907933" lon="-6.007917">
        <ele>0.0</ele>
        <time>2019-05-04T14:01:41Z</time>
      </trkpt>
      <trkpt lat="38.907950" lon="-6.008017">
        <ele>1804.0</ele>
        <time>2019-05-04T14:01:42Z</time>
      </trkpt>
      <trkpt lat="38.907967" lon="-6.008100">
        <ele>1805.0</ele>
        <time>2019-05-04T14:01:43Z</time>
      </trkpt>
      <trkpt lat="38.907967" lon="-6.008183">
        <ele>1807.0</ele>
        <time>2019-05-04T14:01:44Z</time>
      </trkpt>
      <trkpt lat="38.907967" lon="-6.008267">
        <ele>1809.0</ele>
        <time>2019-05-04T14:01:45Z</time>
      </trkpt>
      <trkpt lat="38.907983" lon="-6.008350">
        <ele>1811.0</ele>
        <time>2019-05-04T14:01:46Z</time>
      </trkpt>
      <trkpt lat="38.908200" lon="-6.008617">
        <ele>0.0</ele>
        <time>2019-05-04T14:01:49Z</time>
      </trkpt>
      <trkpt lat="38.908150" lon="-6.008633">
        <ele>1805.0</ele>
        <time>2019-05-04T14:01:50Z</time>
      </trkpt>
      <trkpt lat="38.908183" lon="-6.008733">
        <ele>1818.0</ele>
        <time>2019-05-04T14:01:51Z</time>
      </trkpt>
      <trkpt lat="38.908233" lon="-6.008783">
        <ele>1825.0</ele>
        <time>2019-05-04T14:01:52Z</time>
      </trkpt>
      <trkpt lat="38.908300" lon="-6.008833">
        <ele>1828.0</ele>
        <time>2019-05-04T14:01:53Z</time>
      </trkpt>
      <trkpt lat="38.908383" lon="-6.008850">
        <ele>1830.0</ele>
        <time>2019-05-04T14:01:54Z</time>
      </trkpt>
      <trkpt lat="38.908450" lon="-6.008850">
        <ele>1832.0</ele>
        <time>2019-05-04T14:01:55Z</time>
      </trkpt>
      <trkpt lat="38.908533" lon="-6.008800">
        <ele>1834.0</ele>
        <time>2019-05-04T14:01:56Z</time>
      </trkpt>
      <trkpt lat="38.908617" lon="-6.008750">
        <ele>1836.0</ele>
        <time>2019-05-04T14:01:57Z</time>
      </trkpt>
      <trkpt lat="38.908683" lon="-6.008650">
        <ele>1838.0</ele>
        <time>2019-05-04T14:01:58Z</time>
      </trkpt>
      <trkpt lat="38.908750" lon="-6.008317">
        <ele>0.0</ele>
        <time>2019-05-04T14:02:01Z</time>
      </trkpt>
      <trkpt lat="38.908700" lon="-6.008183">
        <ele>1846.0</ele>
        <time>2019-05-04T14:02:02Z</time>
      </trkpt>
      <trkpt lat="38.908667" lon="-6.008033">
        <ele>1847.0</ele>
        <time>2019-05-04T14:02:03Z</time>
      </trkpt>
      <trkpt lat="38.908617" lon="-6.007917">
        <ele>1851.0</ele>
        <time>2019-05-04T14:02:04Z</time>
      </trkpt>
      <trkpt lat="38.908533" lon="-6.007817">
        <ele>1854.0</ele>
        <time>2019-05-04T14:02:05Z</time>
      </trkpt>
      <trkpt lat="38.908450" lon="-6.007750">
        <ele>1857.0</ele>
        <time>2019-05-04T14:02:06Z</time>
      </trkpt>
      <trkpt lat="38.908367" lon="-6.007700">
        <ele>1860.0</ele>
        <time>2019-05-04T14:02:07Z</time>
      </trkpt>
      <trkpt lat="38.908117" lon="-6.007700">
        <ele>0.0</ele>
        <time>2019-05-04T14:02:10Z</time>
      </trkpt>
      <trkpt lat="38.908033" lon="-6.007733">
        <ele>1861.0</ele>
        <time>2019-05-04T14:02:11Z</time>
      </trkpt>
      <trkpt lat="38.907967" lon="-6.007800">
        <ele>1864.0</ele>
        <time>2019-05-04T14:02:12Z</time>
      </trkpt>
      <trkpt lat="38.907917" lon="-6.007883">
        <ele>1866.0</ele>
        <time>2019-05-04T14:02:13Z</time>
      </trkpt>
      <trkpt lat="38.907900" lon="-6.007983">
        <ele>1868.0</ele>
        <time>2019-05-04T14:02:14Z</time>
      </trkpt>
      <trkpt lat="38.907883" lon="-6.008083">
        <ele>1870.0</ele>
        <time>2019-05-04T14:02:15Z</time>
      </trkpt>
      <trkpt lat="38.907867" lon="-6.008167">
        <ele>1872.0</ele>
        <time>2019-05-04T14:02:16Z</time>
      </trkpt>
      <trkpt lat="38.907867" lon="-6.008267">
        <ele>0.0</ele>
        <time>2019-05-04T14:02:18Z</time>
      </trkpt>
      <trkpt lat="38.908000" lon="-6.008400">
        <ele>1873.0</ele>
        <time>2019-05-04T14:02:19Z</time>
      </trkpt>
      <trkpt lat="38.907983" lon="-6.008500">
        <ele>1864.0</ele>
        <time>2019-05-04T14:02:20Z</time>
      </trkpt>
      <trkpt lat="38.908033" lon="-6.008567">
        <ele>1874.0</ele>
        <time>2019-05-04T14:02:21Z</time>
      </trkpt>
      <trkpt lat="38.908100" lon="-6.008600">
        <ele>1878.0</ele>
        <time>2019-05-04T14:02:22Z</time>
      </trkpt>
      <trkpt lat="38.908183" lon="-6.008617">
        <ele>1881.0</ele>
        <time>2019-05-04T14:02:23Z</time>
      </trkpt>
      <trkpt lat="38.908283" lon="-6.008617">
        <ele>1883.0</ele>
        <time>2019-05-04T14:02:24Z</time>
      </trkpt>
      <trkpt lat="38.908367" lon="-6.008600">
        <ele>1885.0</ele>
        <time>2019-05-04T14:02:25Z</time>
      </trkpt>
      <trkpt lat="38.908450" lon="-6.008567">
        <ele>1888.0</ele>
        <time>2019-05-04T14:02:26Z</time>
      </trkpt>
      <trkpt lat="38.908517" lon="-6.008517">
        <ele>1892.0</ele>
        <time>2019-05-04T14:02:27Z</time>
      </trkpt>
      <trkpt lat="38.908583" lon="-6.008433">
        <ele>1895.0</ele>
        <time>2019-05-04T14:02:28Z</time>
      </trkpt>
      <trkpt lat="38.908633" lon="-6.008350">
        <ele>1897.0</ele>
        <time>2019-05-04T14:02:29Z</time>
      </trkpt>
      <trkpt lat="38.908700" lon="-6.008250">
        <ele>1900.0</ele>
        <time>2019-05-04T14:02:30Z</time>
      </trkpt>
      <trkpt lat="38.908750" lon="-6.008167">
        <ele>1902.0</ele>
        <time>2019-05-04T14:02:31Z</time>
      </trkpt>
      <trkpt lat="38.909000" lon="-6.007533">
        <ele>0.0</ele>
        <time>2019-05-04T14:02:37Z</time>
      </trkpt>
      <trkpt lat="38.908983" lon="-6.007450">
        <ele>1900.0</ele>
        <time>2019-05-04T14:02:38Z</time>
      </trkpt>
      <trkpt lat="38.908950" lon="-6.007367">
        <ele>1906.0</ele>
        <time>2019-05-04T14:02:39Z</time>
      </trkpt>
      <trkpt lat="38.908900" lon="-6.007267">
        <ele>1909.0</ele>
        <time>2019-05-04T14:02:40Z</time>
      </trkpt>
      <trkpt lat="38.908850" lon="-6.007183">
        <ele>1913.0</ele>
        <time>2019-05-04T14:02:41Z</time>
      </trkpt>
      <trkpt lat="38.908783" lon="-6.007117">
        <ele>1916.0</ele>
        <time>2019-05-04T14:02:42Z</time>
      </trkpt>
      <trkpt lat="38.908717" lon="-6.007050">
        <ele>1917.0</ele>
        <time>2019-05-04T14:02:43Z</time>
      </trkpt>
      <trkpt lat="38.908633" lon="-6.007017">
        <ele>1917.0</ele>
        <time>2019-05-04T14:02:44Z</time>
      </trkpt>
      <trkpt lat="38.908550" lon="-6.007017">
        <ele>1918.0</ele>
        <time>2019-05-04T14:02:45Z</time>
      </trkpt>
      <trkpt lat="38.908467" lon="-6.007067">
        <ele>1919.0</ele>
        <time>2019-05-04T14:02:46Z</time>
      </trkpt>
      <trkpt lat="38.908400" lon="-6.007133">
        <ele>1919.0</ele>
        <time>2019-05-04T14:02:47Z</time>
      </trkpt>
      <trkpt lat="38.908367" lon="-6.007217">
        <ele>1919.0</ele>
        <time>2019-05-04T14:02:48Z</time>
      </trkpt>
      <trkpt lat="38.908350" lon="-6.007333">
        <ele>1920.0</ele>
        <time>2019-05-04T14:02:49Z</time>
      </trkpt>
      <trkpt lat="38.908350" lon="-6.007450">
        <ele>1920.0</ele>
        <time>2019-05-04T14:02:50Z</time>
      </trkpt>
      <trkpt lat="38.908367" lon="-6.007550">
        <ele>1921.0</ele>
        <time>2019-05-04T14:02:51Z</time>
      </trkpt>
      <trkpt lat="38.908367" lon="-6.007633">
        <ele>1922.0</ele>
        <time>2019-05-04T14:02:52Z</time>
      </trkpt>
      <trkpt lat="38.908367" lon="-6.007733">
        <ele>1924.0</ele>
        <time>2019-05-04T14:02:53Z</time>
      </trkpt>
      <trkpt lat="38.908350" lon="-6.007833">
        <ele>1927.0</ele>
        <time>2019-05-04T14:02:54Z</time>
      </trkpt>
      <trkpt lat="38.908350" lon="-6.007917">
        <ele>1930.0</ele>
        <time>2019-05-04T14:02:55Z</time>
      </trkpt>
      <trkpt lat="38.908350" lon="-6.008000">
        <ele>1933.0</ele>
        <time>2019-05-04T14:02:56Z</time>
      </trkpt>
      <trkpt lat="38.908383" lon="-6.008117">
        <ele>1934.0</ele>
        <time>2019-05-04T14:02:57Z</time>
      </trkpt>
      <trkpt lat="38.908450" lon="-6.008200">
        <ele>1936.0</ele>
        <time>2019-05-04T14:02:58Z</time>
      </trkpt>
      <trkpt lat="38.908517" lon="-6.008250">
        <ele>1938.0</ele>
        <time>2019-05-04T14:02:59Z</time>
      </trkpt>
      <trkpt lat="38.908600" lon="-6.008250">
        <ele>1940.0</ele>
        <time>2019-05-04T14:03:00Z</time>
      </trkpt>
      <trkpt lat="38.908667" lon="-6.008217">
        <ele>1942.0</ele>
        <time>2019-05-04T14:03:01Z</time>
      </trkpt>
      <trkpt lat="38.908733" lon="-6.008150">
        <ele>1944.0</ele>
        <time>2019-05-04T14:03:02Z</time>
      </trkpt>
      <trkpt lat="38.908767" lon="-6.008050">
        <ele>1945.0</ele>
        <time>2019-05-04T14:03:03Z</time>
      </trkpt>
      <trkpt lat="38.908767" lon="-6.007933">
        <ele>1947.0</ele>
        <time>2019-05-04T14:03:04Z</time>
      </trkpt>
      <trkpt lat="38.908733" lon="-6.007817">
        <ele>1949.0</ele>
        <time>2019-05-04T14:03:05Z</time>
      </trkpt>
      <trkpt lat="38.908667" lon="-6.007733">
        <ele>1949.0</ele>
        <time>2019-05-04T14:03:06Z</time>
      </trkpt>
      <trkpt lat="38.908567" lon="-6.007717">
        <ele>1949.0</ele>
        <time>2019-05-04T14:03:07Z</time>
      </trkpt>
      <trkpt lat="38.908483" lon="-6.007750">
        <ele>1950.0</ele>
        <time>2019-05-04T14:03:08Z</time>
      </trkpt>
      <trkpt lat="38.908417" lon="-6.007833">
        <ele>1951.0</ele>
        <time>2019-05-04T14:03:09Z</time>
      </trkpt>
      <trkpt lat="38.908400" lon="-6.007933">
        <ele>1952.0</ele>
        <time>2019-05-04T14:03:10Z</time>
      </trkpt>
      <trkpt lat="38.908383" lon="-6.008017">
        <ele>1953.0</ele>
        <time>2019-05-04T14:03:11Z</time>
      </trkpt>
      <trkpt lat="38.908400" lon="-6.008100">
        <ele>1955.0</ele>
        <time>2019-05-04T14:03:12Z</time>
      </trkpt>
      <trkpt lat="38.908433" lon="-6.008183">
        <ele>1955.0</ele>
        <time>2019-05-04T14:03:13Z</time>
      </trkpt>
      <trkpt lat="38.908467" lon="-6.008250">
        <ele>1955.0</ele>
        <time>2019-05-04T14:03:14Z</time>
      </trkpt>
      <trkpt lat="38.908500" lon="-6.008333">
        <ele>1956.0</ele>
        <time>2019-05-04T14:03:15Z</time>
      </trkpt>
      <trkpt lat="38.908533" lon="-6.008450">
        <ele>1957.0</ele>
        <time>2019-05-04T14:03:16Z</time>
      </trkpt>
      <trkpt lat="38.908583" lon="-6.008533">
        <ele>1960.0</ele>
        <time>2019-05-04T14:03:17Z</time>
      </trkpt>
      <trkpt lat="38.908650" lon="-6.008600">
        <ele>1962.0</ele>
        <time>2019-05-04T14:03:18Z</time>
      </trkpt>
      <trkpt lat="38.908733" lon="-6.008617">
        <ele>1963.0</ele>
        <time>2019-05-04T14:03:19Z</time>
      </trkpt>
      <trkpt lat="38.908817" lon="-6.008567">
        <ele>1963.0</ele>
        <time>2019-05-04T14:03:20Z</time>
      </trkpt>
      <trkpt lat="38.908900" lon="-6.008517">
        <ele>1963.0</ele>
        <time>2019-05-04T14:03:21Z</time>
      </trkpt>
      <trkpt lat="38.908950" lon="-6.008467">
        <ele>1964.0</ele>
        <time>2019-05-04T14:03:22Z</time>
      </trkpt>
      <trkpt lat="38.908967" lon="-6.008383">
        <ele>1965.0</ele>
        <time>2019-05-04T14:03:23Z</time>
      </trkpt>
      <trkpt lat="38.908967" lon="-6.008267">
        <ele>1966.0</ele>
        <time>2019-05-04T14:03:24Z</time>
      </trkpt>
      <trkpt lat="38.908917" lon="-6.008167">
        <ele>1968.0</ele>
        <time>2019-05-04T14:03:25Z</time>
      </trkpt>
      <trkpt lat="38.908867" lon="-6.008083">
        <ele>1969.0</ele>
        <time>2019-05-04T14:03:26Z</time>
      </trkpt>
      <trkpt lat="38.908783" lon="-6.008017">
        <ele>1970.0</ele>
        <time>2019-05-04T14:03:27Z</time>
      </trkpt>
      <trkpt lat="38.908700" lon="-6.007983">
        <ele>1973.0</ele>
        <time>2019-05-04T14:03:28Z</time>
      </trkpt>
      <trkpt lat="38.908633" lon="-6.007950">
        <ele>1976.0</ele>
        <time>2019-05-04T14:03:29Z</time>
      </trkpt>
      <trkpt lat="38.908550" lon="-6.007933">
        <ele>1982.0</ele>
        <time>2019-05-04T14:03:30Z</time>
      </trkpt>
      <trkpt lat="38.908483" lon="-6.007933">
        <ele>1986.0</ele>
        <time>2019-05-04T14:03:31Z</time>
      </trkpt>
      <trkpt lat="38.908400" lon="-6.007933">
        <ele>1989.0</ele>
        <time>2019-05-04T14:03:32Z</time>
      </trkpt>
      <trkpt lat="38.908317" lon="-6.007967">
        <ele>1992.0</ele>
        <time>2019-05-04T14:03:33Z</time>
      </trkpt>
      <trkpt lat="38.908233" lon="-6.008017">
        <ele>1994.0</ele>
        <time>2019-05-04T14:03:34Z</time>
      </trkpt>
      <trkpt lat="38.908183" lon="-6.008100">
        <ele>1997.0</ele>
        <time>2019-05-04T14:03:35Z</time>
      </trkpt>
      <trkpt lat="38.908150" lon="-6.008167">
        <ele>2001.0</ele>
        <time>2019-05-04T14:03:36Z</time>
      </trkpt>
      <trkpt lat="38.908133" lon="-6.008250">
        <ele>2003.0</ele>
        <time>2019-05-04T14:03:37Z</time>
      </trkpt>
      <trkpt lat="38.908133" lon="-6.008350">
        <ele>2004.0</ele>
        <time>2019-05-04T14:03:38Z</time>
      </trkpt>
      <trkpt lat="38.908117" lon="-6.008450">
        <ele>2006.0</ele>
        <time>2019-05-04T14:03:39Z</time>
      </trkpt>
      <trkpt lat="38.908133" lon="-6.008550">
        <ele>2008.0</ele>
        <time>2019-05-04T14:03:40Z</time>
      </trkpt>
      <trkpt lat="38.908167" lon="-6.008650">
        <ele>2009.0</ele>
        <time>2019-05-04T14:03:41Z</time>
      </trkpt>
      <trkpt lat="38.908217" lon="-6.008733">
        <ele>2010.0</ele>
        <time>2019-05-04T14:03:42Z</time>
      </trkpt>
      <trkpt lat="38.908283" lon="-6.008783">
        <ele>2012.0</ele>
        <time>2019-05-04T14:03:43Z</time>
      </trkpt>
      <trkpt lat="38.908350" lon="-6.008817">
        <ele>2014.0</ele>
        <time>2019-05-04T14:03:44Z</time>
      </trkpt>
      <trkpt lat="38.908417" lon="-6.008850">
        <ele>2016.0</ele>
        <time>2019-05-04T14:03:45Z</time>
      </trkpt>
      <trkpt lat="38.908483" lon="-6.008883">
        <ele>2018.0</ele>
        <time>2019-05-04T14:03:46Z</time>
      </trkpt>
      <trkpt lat="38.908567" lon="-6.008900">
        <ele>2019.0</ele>
        <time>2019-05-04T14:03:47Z</time>
      </trkpt>
      <trkpt lat="38.908633" lon="-6.008900">
        <ele>2019.0</ele>
        <time>2019-05-04T14:03:48Z</time>
      </trkpt>
      <trkpt lat="38.908717" lon="-6.008883">
        <ele>2020.0</ele>
        <time>2019-05-04T14:03:49Z</time>
      </trkpt>
      <trkpt lat="38.908800" lon="-6.008833">
        <ele>2021.0</ele>
        <time>2019-05-04T14:03:50Z</time>
      </trkpt>
      <trkpt lat="38.908833" lon="-6.008767">
        <ele>2023.0</ele>
        <time>2019-05-04T14:03:51Z</time>
      </trkpt>
      <trkpt lat="38.908867" lon="-6.008667">
        <ele>2024.0</ele>
        <time>2019-05-04T14:03:52Z</time>
      </trkpt>
      <trkpt lat="38.908883" lon="-6.008567">
        <ele>2026.0</ele>
        <time>2019-05-04T14:03:53Z</time>
      </trkpt>
      <trkpt lat="38.908883" lon="-6.008467">
        <ele>2027.0</ele>
        <time>2019-05-04T14:03:54Z</time>
      </trkpt>
      <trkpt lat="38.908867" lon="-6.008350">
        <ele>2025.0</ele>
        <time>2019-05-04T14:03:55Z</time>
      </trkpt>
      <trkpt lat="38.908817" lon="-6.008250">
        <ele>2025.0</ele>
        <time>2019-05-04T14:03:56Z</time>
      </trkpt>
      <trkpt lat="38.908750" lon="-6.008167">
        <ele>2026.0</ele>
        <time>2019-05-04T14:03:57Z</time>
      </trkpt>
      <trkpt lat="38.908667" lon="-6.008133">
        <ele>2028.0</ele>
        <time>2019-05-04T14:03:58Z</time>
      </trkpt>
      <trkpt lat="38.908583" lon="-6.008133">
        <ele>2031.0</ele>
        <time>2019-05-04T14:03:59Z</time>
      </trkpt>
      <trkpt lat="38.908500" lon="-6.008167">
        <ele>2034.0</ele>
        <time>2019-05-04T14:04:00Z</time>
      </trkpt>
      <trkpt lat="38.908433" lon="-6.008233">
        <ele>2036.0</ele>
        <time>2019-05-04T14:04:01Z</time>
      </trkpt>
      <trkpt lat="38.908383" lon="-6.008333">
        <ele>2037.0</ele>
        <time>2019-05-04T14:04:02Z</time>
      </trkpt>
      <trkpt lat="38.908367" lon="-6.008450">
        <ele>2037.0</ele>
        <time>2019-05-04T14:04:03Z</time>
      </trkpt>
      <trkpt lat="38.908400" lon="-6.008567">
        <ele>2038.0</ele>
        <time>2019-05-04T14:04:04Z</time>
      </trkpt>
      <trkpt lat="38.908450" lon="-6.008650">
        <ele>2039.0</ele>
        <time>2019-05-04T14:04:05Z</time>
      </trkpt>
      <trkpt lat="38.908517" lon="-6.008700">
        <ele>2040.0</ele>
        <time>2019-05-04T14:04:06Z</time>
      </trkpt>
      <trkpt lat="38.908583" lon="-6.008733">
        <ele>2041.0</ele>
        <time>2019-05-04T14:04:07Z</time>
      </trkpt>
      <trkpt lat="38.908650" lon="-6.008783">
        <ele>2042.0</ele>
        <time>2019-05-04T14:04:08Z</time>
      </trkpt>
      <trkpt lat="38.908733" lon="-6.008817">
        <ele>2042.0</ele>
        <time>2019-05-04T14:04:09Z</time>
      </trkpt>
      <trkpt lat="38.908800" lon="-6.008833">
        <ele>2044.0</ele>
        <time>2019-05-04T14:04:10Z</time>
      </trkpt>
      <trkpt lat="38.908867" lon="-6.008833">
        <ele>2045.0</ele>
        <time>2019-05-04T14:04:11Z</time>
      </trkpt>
      <trkpt lat="38.908933" lon="-6.008817">
        <ele>2047.0</ele>
        <time>2019-05-04T14:04:12Z</time>
      </trkpt>
      <trkpt lat="38.909000" lon="-6.008800">
        <ele>2048.0</ele>
        <time>2019-05-04T14:04:13Z</time>
      </trkpt>
      <trkpt lat="38.909050" lon="-6.008767">
        <ele>2049.0</ele>
        <time>2019-05-04T14:04:14Z</time>
      </trkpt>
      <trkpt lat="38.909083" lon="-6.008700">
        <ele>2049.0</ele>
        <time>2019-05-04T14:04:15Z</time>
      </trkpt>
      <trkpt lat="38.909117" lon="-6.008617">
        <ele>2049.0</ele>
        <time>2019-05-04T14:04:16Z</time>
      </trkpt>
      <trkpt lat="38.909117" lon="-6.008533">
        <ele>2050.0</ele>
        <time>2019-05-04T14:04:17Z</time>
      </trkpt>
      <trkpt lat="38.909083" lon="-6.008433">
        <ele>2050.0</ele>
        <time>2019-05-04T14:04:18Z</time>
      </trkpt>
      <trkpt lat="38.909017" lon="-6.008367">
        <ele>2050.0</ele>
        <time>2019-05-04T14:04:19Z</time>
      </trkpt>
      <trkpt lat="38.908933" lon="-6.008333">
        <ele>2049.0</ele>
        <time>2019-05-04T14:04:20Z</time>
      </trkpt>
      <trkpt lat="38.908833" lon="-6.008317">
        <ele>2049.0</ele>
        <time>2019-05-04T14:04:21Z</time>
      </trkpt>
      <trkpt lat="38.908750" lon="-6.008333">
        <ele>2050.0</ele>
        <time>2019-05-04T14:04:22Z</time>
      </trkpt>
      <trkpt lat="38.908650" lon="-6.008350">
        <ele>2051.0</ele>
        <time>2019-05-04T14:04:23Z</time>
      </trkpt>
      <trkpt lat="38.908550" lon="-6.008367">
        <ele>2051.0</ele>
        <time>2019-05-04T14:04:24Z</time>
      </trkpt>
      <trkpt lat="38.908467" lon="-6.008417">
        <ele>2052.0</ele>
        <time>2019-05-04T14:04:25Z</time>
      </trkpt>
      <trkpt lat="38.908400" lon="-6.008483">
        <ele>2054.0</ele>
        <time>2019-05-04T14:04:26Z</time>
      </trkpt>
      <trkpt lat="38.908333" lon="-6.008567">
        <ele>2055.0</ele>
        <time>2019-05-04T14:04:27Z</time>
      </trkpt>
      <trkpt lat="38.908283" lon="-6.008650">
        <ele>2056.0</ele>
        <time>2019-05-04T14:04:28Z</time>
      </trkpt>
      <trkpt lat="38.908233" lon="-6.008750">
        <ele>2057.0</ele>
        <time>2019-05-04T14:04:29Z</time>
      </trkpt>
      <trkpt lat="38.908200" lon="-6.008850">
        <ele>2057.0</ele>
        <time>2019-05-04T14:04:30Z</time>
      </trkpt>
      <trkpt lat="38.908183" lon="-6.008967">
        <ele>2057.0</ele>
        <time>2019-05-04T14:04:31Z</time>
      </trkpt>
      <trkpt lat="38.908183" lon="-6.009100">
        <ele>2056.0</ele>
        <time>2019-05-04T14:04:32Z</time>
      </trkpt>
      <trkpt lat="38.908217" lon="-6.009217">
        <ele>2055.0</ele>
        <time>2019-05-04T14:04:33Z</time>
      </trkpt>
      <trkpt lat="38.908250" lon="-6.009350">
        <ele>2054.0</ele>
        <time>2019-05-04T14:04:34Z</time>
      </trkpt>
      <trkpt lat="38.908317" lon="-6.009450">
        <ele>2054.0</ele>
        <time>2019-05-04T14:04:35Z</time>
      </trkpt>
      <trkpt lat="38.908383" lon="-6.009517">
        <ele>2054.0</ele>
        <time>2019-05-04T14:04:36Z</time>
      </trkpt>
      <trkpt lat="38.908450" lon="-6.009567">
        <ele>2055.0</ele>
        <time>2019-05-04T14:04:37Z</time>
      </trkpt>
      <trkpt lat="38.908533" lon="-6.009583">
        <ele>2055.0</ele>
        <time>2019-05-04T14:04:38Z</time>
      </trkpt>
      <trkpt lat="38.908600" lon="-6.009583">
        <ele>2054.0</ele>
        <time>2019-05-04T14:04:39Z</time>
      </trkpt>
      <trkpt lat="38.908650" lon="-6.009550">
        <ele>2054.0</ele>
        <time>2019-05-04T14:04:40Z</time>
      </trkpt>
      <trkpt lat="38.908700" lon="-6.009517">
        <ele>2053.0</ele>
        <time>2019-05-04T14:04:41Z</time>
      </trkpt>
      <trkpt lat="38.908733" lon="-6.009450">
        <ele>2053.0</ele>
        <time>2019-05-04T14:04:42Z</time>
      </trkpt>
      <trkpt lat="38.908783" lon="-6.009383">
        <ele>2053.0</ele>
        <time>2019-05-04T14:04:43Z</time>
      </trkpt>
      <trkpt lat="38.908833" lon="-6.009317">
        <ele>2052.0</ele>
        <time>2019-05-04T14:04:44Z</time>
      </trkpt>
      <trkpt lat="38.908900" lon="-6.009267">
        <ele>2052.0</ele>
        <time>2019-05-04T14:04:45Z</time>
      </trkpt>
      <trkpt lat="38.908950" lon="-6.009217">
        <ele>2052.0</ele>
        <time>2019-05-04T14:04:46Z</time>
      </trkpt>
      <trkpt lat="38.909017" lon="-6.009183">
        <ele>2051.0</ele>
        <time>2019-05-04T14:04:47Z</time>
      </trkpt>
      <trkpt lat="38.909050" lon="-6.009117">
        <ele>2051.0</ele>
        <time>2019-05-04T14:04:48Z</time>
      </trkpt>
      <trkpt lat="38.909100" lon="-6.009050">
        <ele>2050.0</ele>
        <time>2019-05-04T14:04:49Z</time>
      </trkpt>
      <trkpt lat="38.909133" lon="-6.008967">
        <ele>2049.0</ele>
        <time>2019-05-04T14:04:50Z</time>
      </trkpt>
      <trkpt lat="38.909167" lon="-6.008900">
        <ele>2049.0</ele>
        <time>2019-05-04T14:04:51Z</time>
      </trkpt>
      <trkpt lat="38.909200" lon="-6.008817">
        <ele>2048.0</ele>
        <time>2019-05-04T14:04:52Z</time>
      </trkpt>
      <trkpt lat="38.909200" lon="-6.008717">
        <ele>2048.0</ele>
        <time>2019-05-04T14:04:53Z</time>
      </trkpt>
      <trkpt lat="38.909217" lon="-6.008617">
        <ele>2046.0</ele>
        <time>2019-05-04T14:04:54Z</time>
      </trkpt>
      <trkpt lat="38.909217" lon="-6.008500">
        <ele>2044.0</ele>
        <time>2019-05-04T14:04:55Z</time>
      </trkpt>
      <trkpt lat="38.909200" lon="-6.008383">
        <ele>2044.0</ele>
        <time>2019-05-04T14:04:56Z</time>
      </trkpt>
      <trkpt lat="38.909183" lon="-6.008250">
        <ele>2044.0</ele>
        <time>2019-05-04T14:04:57Z</time>
      </trkpt>
      <trkpt lat="38.909150" lon="-6.008133">
        <ele>2046.0</ele>
        <time>2019-05-04T14:04:58Z</time>
      </trkpt>
      <trkpt lat="38.909133" lon="-6.008050">
        <ele>2048.0</ele>
        <time>2019-05-04T14:04:59Z</time>
      </trkpt>
      <trkpt lat="38.909100" lon="-6.007967">
        <ele>2049.0</ele>
        <time>2019-05-04T14:05:00Z</time>
      </trkpt>
      <trkpt lat="38.909083" lon="-6.007900">
        <ele>2049.0</ele>
        <time>2019-05-04T14:05:01Z</time>
      </trkpt>
      <trkpt lat="38.909033" lon="-6.007817">
        <ele>2049.0</ele>
        <time>2019-05-04T14:05:02Z</time>
      </trkpt>
      <trkpt lat="38.908983" lon="-6.007717">
        <ele>2048.0</ele>
        <time>2019-05-04T14:05:03Z</time>
      </trkpt>
      <trkpt lat="38.908933" lon="-6.007617">
        <ele>2047.0</ele>
        <time>2019-05-04T14:05:04Z</time>
      </trkpt>
      <trkpt lat="38.908883" lon="-6.007500">
        <ele>2047.0</ele>
        <time>2019-05-04T14:05:05Z</time>
      </trkpt>
      <trkpt lat="38.908817" lon="-6.007400">
        <ele>2048.0</ele>
        <time>2019-05-04T14:05:06Z</time>
      </trkpt>
      <trkpt lat="38.908767" lon="-6.007317">
        <ele>2049.0</ele>
        <time>2019-05-04T14:05:07Z</time>
      </trkpt>
      <trkpt lat="38.908733" lon="-6.007233">
        <ele>2051.0</ele>
        <time>2019-05-04T14:05:08Z</time>
      </trkpt>
      <trkpt lat="38.908683" lon="-6.007167">
        <ele>2052.0</ele>
        <time>2019-05-04T14:05:09Z</time>
      </trkpt>
      <trkpt lat="38.908633" lon="-6.007083">
        <ele>2051.0</ele>
        <time>2019-05-04T14:05:10Z</time>
      </trkpt>
      <trkpt lat="38.908583" lon="-6.006983">
        <ele>2049.0</ele>
        <time>2019-05-04T14:05:11Z</time>
      </trkpt>
      <trkpt lat="38.908533" lon="-6.006883">
        <ele>2048.0</ele>
        <time>2019-05-04T14:05:12Z</time>
      </trkpt>
      <trkpt lat="38.908467" lon="-6.006800">
        <ele>2048.0</ele>
        <time>2019-05-04T14:05:13Z</time>
      </trkpt>
      <trkpt lat="38.908400" lon="-6.006733">
        <ele>2048.0</ele>
        <time>2019-05-04T14:05:14Z</time>
      </trkpt>
      <trkpt lat="38.908333" lon="-6.006667">
        <ele>2048.0</ele>
        <time>2019-05-04T14:05:15Z</time>
      </trkpt>
      <trkpt lat="38.908283" lon="-6.006600">
        <ele>2047.0</ele>
        <time>2019-05-04T14:05:16Z</time>
      </trkpt>
      <trkpt lat="38.908217" lon="-6.006500">
        <ele>2046.0</ele>
        <time>2019-05-04T14:05:17Z</time>
      </trkpt>
      <trkpt lat="38.908150" lon="-6.006400">
        <ele>2044.0</ele>
        <time>2019-05-04T14:05:18Z</time>
      </trkpt>
      <trkpt lat="38.908083" lon="-6.006300">
        <ele>2043.0</ele>
        <time>2019-05-04T14:05:19Z</time>
      </trkpt>
      <trkpt lat="38.908017" lon="-6.006200">
        <ele>2042.0</ele>
        <time>2019-05-04T14:05:20Z</time>
      </trkpt>
      <trkpt lat="38.907967" lon="-6.006100">
        <ele>2043.0</ele>
        <time>2019-05-04T14:05:21Z</time>
      </trkpt>
      <trkpt lat="38.907917" lon="-6.006017">
        <ele>2043.0</ele>
        <time>2019-05-04T14:05:22Z</time>
      </trkpt>
      <trkpt lat="38.907850" lon="-6.005933">
        <ele>2044.0</ele>
        <time>2019-05-04T14:05:23Z</time>
      </trkpt>
      <trkpt lat="38.907800" lon="-6.005833">
        <ele>2044.0</ele>
        <time>2019-05-04T14:05:24Z</time>
      </trkpt>
      <trkpt lat="38.907750" lon="-6.005717">
        <ele>2043.0</ele>
        <time>2019-05-04T14:05:25Z</time>
      </trkpt>
      <trkpt lat="38.907700" lon="-6.005617">
        <ele>2042.0</ele>
        <time>2019-05-04T14:05:26Z</time>
      </trkpt>
      <trkpt lat="38.907650" lon="-6.005500">
        <ele>2042.0</ele>
        <time>2019-05-04T14:05:27Z</time>
      </trkpt>
      <trkpt lat="38.907600" lon="-6.005400">
        <ele>2042.0</ele>
        <time>2019-05-04T14:05:28Z</time>
      </trkpt>
      <trkpt lat="38.907550" lon="-6.005283">
        <ele>2042.0</ele>
        <time>2019-05-04T14:05:29Z</time>
      </trkpt>
      <trkpt lat="38.907500" lon="-6.005183">
        <ele>2041.0</ele>
        <time>2019-05-04T14:05:30Z</time>
      </trkpt>
      <trkpt lat="38.907467" lon="-6.005083">
        <ele>2040.0</ele>
        <time>2019-05-04T14:05:31Z</time>
      </trkpt>
      <trkpt lat="38.907417" lon="-6.004983">
        <ele>2039.0</ele>
        <time>2019-05-04T14:05:32Z</time>
      </trkpt>
      <trkpt lat="38.907383" lon="-6.004850">
        <ele>2037.0</ele>
        <time>2019-05-04T14:05:33Z</time>
      </trkpt>
      <trkpt lat="38.907333" lon="-6.004733">
        <ele>2035.0</ele>
        <time>2019-05-04T14:05:34Z</time>
      </trkpt>
      <trkpt lat="38.907267" lon="-6.004633">
        <ele>2033.0</ele>
        <time>2019-05-04T14:05:35Z</time>
      </trkpt>
      <trkpt lat="38.907217" lon="-6.004533">
        <ele>2032.0</ele>
        <time>2019-05-04T14:05:36Z</time>
      </trkpt>
      <trkpt lat="38.907167" lon="-6.004433">
        <ele>2030.0</ele>
        <time>2019-05-04T14:05:37Z</time>
      </trkpt>
      <trkpt lat="38.907117" lon="-6.004317">
        <ele>2028.0</ele>
        <time>2019-05-04T14:05:38Z</time>
      </trkpt>
      <trkpt lat="38.907083" lon="-6.004200">
        <ele>2026.0</ele>
        <time>2019-05-04T14:05:39Z</time>
      </trkpt>
      <trkpt lat="38.907017" lon="-6.004083">
        <ele>2024.0</ele>
        <time>2019-05-04T14:05:40Z</time>
      </trkpt>
      <trkpt lat="38.906967" lon="-6.003983">
        <ele>2023.0</ele>
        <time>2019-05-04T14:05:41Z</time>
      </trkpt>
      <trkpt lat="38.906917" lon="-6.003883">
        <ele>2022.0</ele>
        <time>2019-05-04T14:05:42Z</time>
      </trkpt>
      <trkpt lat="38.906867" lon="-6.003783">
        <ele>2021.0</ele>
        <time>2019-05-04T14:05:43Z</time>
      </trkpt>
      <trkpt lat="38.906833" lon="-6.003683">
        <ele>2019.0</ele>
        <time>2019-05-04T14:05:44Z</time>
      </trkpt>
      <trkpt lat="38.906783" lon="-6.003583">
        <ele>2017.0</ele>
        <time>2019-05-04T14:05:45Z</time>
      </trkpt>
      <trkpt lat="38.906733" lon="-6.003467">
        <ele>2014.0</ele>
        <time>2019-05-04T14:05:46Z</time>
      </trkpt>
      <trkpt lat="38.906683" lon="-6.003350">
        <ele>2011.0</ele>
        <time>2019-05-04T14:05:47Z</time>
      </trkpt>
      <trkpt lat="38.906633" lon="-6.003250">
        <ele>2009.0</ele>
        <time>2019-05-04T14:05:48Z</time>
      </trkpt>
      <trkpt lat="38.906583" lon="-6.003133">
        <ele>2007.0</ele>
        <time>2019-05-04T14:05:49Z</time>
      </trkpt>
      <trkpt lat="38.906533" lon="-6.003033">
        <ele>2005.0</ele>
        <time>2019-05-04T14:05:50Z</time>
      </trkpt>
      <trkpt lat="38.906500" lon="-6.002950">
        <ele>2002.0</ele>
        <time>2019-05-04T14:05:51Z</time>
      </trkpt>
      <trkpt lat="38.906450" lon="-6.002833">
        <ele>2000.0</ele>
        <time>2019-05-04T14:05:52Z</time>
      </trkpt>
      <trkpt lat="38.906417" lon="-6.002717">
        <ele>1997.0</ele>
        <time>2019-05-04T14:05:53Z</time>
      </trkpt>
      <trkpt lat="38.906367" lon="-6.002600">
        <ele>1993.0</ele>
        <time>2019-05-04T14:05:54Z</time>
      </trkpt>
      <trkpt lat="38.906317" lon="-6.002483">
        <ele>1990.0</ele>
        <time>2019-05-04T14:05:55Z</time>
      </trkpt>
      <trkpt lat="38.906267" lon="-6.002400">
        <ele>1987.0</ele>
        <time>2019-05-04T14:05:56Z</time>
      </trkpt>
      <trkpt lat="38.906217" lon="-6.002317">
        <ele>1983.0</ele>
        <time>2019-05-04T14:05:57Z</time>
      </trkpt>
      <trkpt lat="38.906183" lon="-6.002233">
        <ele>1981.0</ele>
        <time>2019-05-04T14:05:58Z</time>
      </trkpt>
      <trkpt lat="38.906133" lon="-6.002150">
        <ele>1979.0</ele>
        <time>2019-05-04T14:05:59Z</time>
      </trkpt>
      <trkpt lat="38.906100" lon="-6.002067">
        <ele>1976.0</ele>
        <time>2019-05-04T14:06:00Z</time>
      </trkpt>
      <trkpt lat="38.906067" lon="-6.001983">
        <ele>1974.0</ele>
        <time>2019-05-04T14:06:01Z</time>
      </trkpt>
      <trkpt lat="38.906033" lon="-6.001900">
        <ele>1971.0</ele>
        <time>2019-05-04T14:06:02Z</time>
      </trkpt>
      <trkpt lat="38.906000" lon="-6.001833">
        <ele>1969.0</ele>
        <time>2019-05-04T14:06:03Z</time>
      </trkpt>
      <trkpt lat="38.905950" lon="-6.001750">
        <ele>1967.0</ele>
        <time>2019-05-04T14:06:04Z</time>
      </trkpt>
      <trkpt lat="38.905917" lon="-6.001667">
        <ele>1965.0</ele>
        <time>2019-05-04T14:06:05Z</time>
      </trkpt>
      <trkpt lat="38.905850" lon="-6.001600">
        <ele>1962.0</ele>
        <time>2019-05-04T14:06:06Z</time>
      </trkpt>
      <trkpt lat="38.905800" lon="-6.001517">
        <ele>1960.0</ele>
        <time>2019-05-04T14:06:07Z</time>
      </trkpt>
      <trkpt lat="38.905750" lon="-6.001433">
        <ele>1957.0</ele>
        <time>2019-05-04T14:06:08Z</time>
      </trkpt>
      <trkpt lat="38.905700" lon="-6.001350">
        <ele>1955.0</ele>
        <time>2019-05-04T14:06:09Z</time>
      </trkpt>
      <trkpt lat="38.905650" lon="-6.001267">
        <ele>1953.0</ele>
        <time>2019-05-04T14:06:10Z</time>
      </trkpt>
      <trkpt lat="38.905600" lon="-6.001200">
        <ele>1951.0</ele>
        <time>2019-05-04T14:06:11Z</time>
      </trkpt>
      <trkpt lat="38.905533" lon="-6.001117">
        <ele>1948.0</ele>
        <time>2019-05-04T14:06:12Z</time>
      </trkpt>
      <trkpt lat="38.905483" lon="-6.001033">
        <ele>1945.0</ele>
        <time>2019-05-04T14:06:13Z</time>
      </trkpt>
      <trkpt lat="38.905433" lon="-6.000933">
        <ele>1943.0</ele>
        <time>2019-05-04T14:06:14Z</time>
      </trkpt>
      <trkpt lat="38.905383" lon="-6.000833">
        <ele>1940.0</ele>
        <time>2019-05-04T14:06:15Z</time>
      </trkpt>
      <trkpt lat="38.905333" lon="-6.000750">
        <ele>1938.0</ele>
        <time>2019-05-04T14:06:16Z</time>
      </trkpt>
      <trkpt lat="38.905267" lon="-6.000667">
        <ele>1935.0</ele>
        <time>2019-05-04T14:06:17Z</time>
      </trkpt>
      <trkpt lat="38.905217" lon="-6.000600">
        <ele>1933.0</ele>
        <time>2019-05-04T14:06:18Z</time>
      </trkpt>
      <trkpt lat="38.905167" lon="-6.000517">
        <ele>1930.0</ele>
        <time>2019-05-04T14:06:19Z</time>
      </trkpt>
      <trkpt lat="38.905117" lon="-6.000417">
        <ele>1928.0</ele>
        <time>2019-05-04T14:06:20Z</time>
      </trkpt>
      <trkpt lat="38.905067" lon="-6.000317">
        <ele>1925.0</ele>
        <time>2019-05-04T14:06:21Z</time>
      </trkpt>
      <trkpt lat="38.905017" lon="-6.000217">
        <ele>1922.0</ele>
        <time>2019-05-04T14:06:22Z</time>
      </trkpt>
      <trkpt lat="38.904950" lon="-6.000117">
        <ele>1920.0</ele>
        <time>2019-05-04T14:06:23Z</time>
      </trkpt>
      <trkpt lat="38.904900" lon="-6.000033">
        <ele>1917.0</ele>
        <time>2019-05-04T14:06:24Z</time>
      </trkpt>
      <trkpt lat="38.904833" lon="-5.999933">
        <ele>1914.0</ele>
        <time>2019-05-04T14:06:25Z</time>
      </trkpt>
      <trkpt lat="38.904783" lon="-5.999833">
        <ele>1912.0</ele>
        <time>2019-05-04T14:06:26Z</time>
      </trkpt>
      <trkpt lat="38.904733" lon="-5.999733">
        <ele>1909.0</ele>
        <time>2019-05-04T14:06:27Z</time>
      </trkpt>
      <trkpt lat="38.904683" lon="-5.999633">
        <ele>1906.0</ele>
        <time>2019-05-04T14:06:28Z</time>
      </trkpt>
      <trkpt lat="38.904633" lon="-5.999517">
        <ele>1903.0</ele>
        <time>2019-05-04T14:06:29Z</time>
      </trkpt>
      <trkpt lat="38.904567" lon="-5.999417">
        <ele>1900.0</ele>
        <time>2019-05-04T14:06:30Z</time>
      </trkpt>
      <trkpt lat="38.904517" lon="-5.999317">
        <ele>1898.0</ele>
        <time>2019-05-04T14:06:31Z</time>
      </trkpt>
      <trkpt lat="38.904467" lon="-5.999200">
        <ele>1895.0</ele>
        <time>2019-05-04T14:06:32Z</time>
      </trkpt>
      <trkpt lat="38.904400" lon="-5.999100">
        <ele>1894.0</ele>
        <time>2019-05-04T14:06:33Z</time>
      </trkpt>
      <trkpt lat="38.904350" lon="-5.999000">
        <ele>1892.0</ele>
        <time>2019-05-04T14:06:34Z</time>
      </trkpt>
      <trkpt lat="38.904300" lon="-5.998900">
        <ele>1891.0</ele>
        <time>2019-05-04T14:06:35Z</time>
      </trkpt>
      <trkpt lat="38.904250" lon="-5.998817">
        <ele>1891.0</ele>
        <time>2019-05-04T14:06:36Z</time>
      </trkpt>
      <trkpt lat="38.904200" lon="-5.998733">
        <ele>1889.0</ele>
        <time>2019-05-04T14:06:37Z</time>
      </trkpt>
      <trkpt lat="38.904133" lon="-5.998650">
        <ele>1888.0</ele>
        <time>2019-05-04T14:06:38Z</time>
      </trkpt>
      <trkpt lat="38.904083" lon="-5.998567">
        <ele>1886.0</ele>
        <time>2019-05-04T14:06:39Z</time>
      </trkpt>
      <trkpt lat="38.904017" lon="-5.998467">
        <ele>1884.0</ele>
        <time>2019-05-04T14:06:40Z</time>
      </trkpt>
      <trkpt lat="38.903950" lon="-5.998383">
        <ele>1883.0</ele>
        <time>2019-05-04T14:06:41Z</time>
      </trkpt>
      <trkpt lat="38.903883" lon="-5.998300">
        <ele>1883.0</ele>
        <time>2019-05-04T14:06:42Z</time>
      </trkpt>
      <trkpt lat="38.903833" lon="-5.998217">
        <ele>1883.0</ele>
        <time>2019-05-04T14:06:43Z</time>
      </trkpt>
      <trkpt lat="38.903783" lon="-5.998150">
        <ele>1883.0</ele>
        <time>2019-05-04T14:06:44Z</time>
      </trkpt>
      <trkpt lat="38.903717" lon="-5.998067">
        <ele>1883.0</ele>
        <time>2019-05-04T14:06:45Z</time>
      </trkpt>
      <trkpt lat="38.903650" lon="-5.997967">
        <ele>1882.0</ele>
        <time>2019-05-04T14:06:46Z</time>
      </trkpt>
      <trkpt lat="38.903583" lon="-5.997883">
        <ele>1881.0</ele>
        <time>2019-05-04T14:06:47Z</time>
      </trkpt>
      <trkpt lat="38.903517" lon="-5.997800">
        <ele>1881.0</ele>
        <time>2019-05-04T14:06:48Z</time>
      </trkpt>
      <trkpt lat="38.903450" lon="-5.997733">
        <ele>1883.0</ele>
        <time>2019-05-04T14:06:49Z</time>
      </trkpt>
      <trkpt lat="38.903383" lon="-5.997667">
        <ele>1883.0</ele>
        <time>2019-05-04T14:06:50Z</time>
      </trkpt>
      <trkpt lat="38.903317" lon="-5.997600">
        <ele>1883.0</ele>
        <time>2019-05-04T14:06:51Z</time>
      </trkpt>
      <trkpt lat="38.903233" lon="-5.997533">
        <ele>1883.0</ele>
        <time>2019-05-04T14:06:52Z</time>
      </trkpt>
      <trkpt lat="38.903167" lon="-5.997450">
        <ele>1882.0</ele>
        <time>2019-05-04T14:06:53Z</time>
      </trkpt>
      <trkpt lat="38.903100" lon="-5.997383">
        <ele>1882.0</ele>
        <time>2019-05-04T14:06:54Z</time>
      </trkpt>
      <trkpt lat="38.903033" lon="-5.997333">
        <ele>1883.0</ele>
        <time>2019-05-04T14:06:55Z</time>
      </trkpt>
      <trkpt lat="38.902983" lon="-5.997283">
        <ele>1884.0</ele>
        <time>2019-05-04T14:06:56Z</time>
      </trkpt>
      <trkpt lat="38.902933" lon="-5.997250">
        <ele>1884.0</ele>
        <time>2019-05-04T14:06:57Z</time>
      </trkpt>
      <trkpt lat="38.902883" lon="-5.997200">
        <ele>1883.0</ele>
        <time>2019-05-04T14:06:58Z</time>
      </trkpt>
      <trkpt lat="38.902817" lon="-5.997133">
        <ele>1880.0</ele>
        <time>2019-05-04T14:06:59Z</time>
      </trkpt>
      <trkpt lat="38.902750" lon="-5.997067">
        <ele>1877.0</ele>
        <time>2019-05-04T14:07:00Z</time>
      </trkpt>
      <trkpt lat="38.902683" lon="-5.997000">
        <ele>1876.0</ele>
        <time>2019-05-04T14:07:01Z</time>
      </trkpt>
      <trkpt lat="38.902633" lon="-5.996950">
        <ele>1875.0</ele>
        <time>2019-05-04T14:07:02Z</time>
      </trkpt>
      <trkpt lat="38.902567" lon="-5.996917">
        <ele>1874.0</ele>
        <time>2019-05-04T14:07:03Z</time>
      </trkpt>
      <trkpt lat="38.902517" lon="-5.996883">
        <ele>1872.0</ele>
        <time>2019-05-04T14:07:04Z</time>
      </trkpt>
      <trkpt lat="38.902467" lon="-5.996833">
        <ele>1869.0</ele>
        <time>2019-05-04T14:07:05Z</time>
      </trkpt>
      <trkpt lat="38.902400" lon="-5.996767">
        <ele>1864.0</ele>
        <time>2019-05-04T14:07:06Z</time>
      </trkpt>
      <trkpt lat="38.902333" lon="-5.996700">
        <ele>1861.0</ele>
        <time>2019-05-04T14:07:07Z</time>
      </trkpt>
      <trkpt lat="38.902283" lon="-5.996633">
        <ele>1858.0</ele>
        <time>2019-05-04T14:07:08Z</time>
      </trkpt>
      <trkpt lat="38.902233" lon="-5.996567">
        <ele>1856.0</ele>
        <time>2019-05-04T14:07:09Z</time>
      </trkpt>
      <trkpt lat="38.902200" lon="-5.996483">
        <ele>1853.0</ele>
        <time>2019-05-04T14:07:10Z</time>
      </trkpt>
      <trkpt lat="38.902150" lon="-5.996383">
        <ele>1850.0</ele>
        <time>2019-05-04T14:07:11Z</time>
      </trkpt>
      <trkpt lat="38.902100" lon="-5.996283">
        <ele>1847.0</ele>
        <time>2019-05-04T14:07:12Z</time>
      </trkpt>
      <trkpt lat="38.902067" lon="-5.996200">
        <ele>1845.0</ele>
        <time>2019-05-04T14:07:13Z</time>
      </trkpt>
      <trkpt lat="38.902033" lon="-5.996133">
        <ele>1844.0</ele>
        <time>2019-05-04T14:07:14Z</time>
      </trkpt>
      <trkpt lat="38.902000" lon="-5.996050">
        <ele>1842.0</ele>
        <time>2019-05-04T14:07:15Z</time>
      </trkpt>
      <trkpt lat="38.901967" lon="-5.995967">
        <ele>1840.0</ele>
        <time>2019-05-04T14:07:16Z</time>
      </trkpt>
      <trkpt lat="38.901933" lon="-5.995883">
        <ele>1837.0</ele>
        <time>2019-05-04T14:07:17Z</time>
      </trkpt>
      <trkpt lat="38.901900" lon="-5.995800">
        <ele>1834.0</ele>
        <time>2019-05-04T14:07:18Z</time>
      </trkpt>
      <trkpt lat="38.901867" lon="-5.995700">
        <ele>1832.0</ele>
        <time>2019-05-04T14:07:19Z</time>
      </trkpt>
      <trkpt lat="38.901833" lon="-5.995600">
        <ele>1829.0</ele>
        <time>2019-05-04T14:07:20Z</time>
      </trkpt>
      <trkpt lat="38.901817" lon="-5.995517">
        <ele>1828.0</ele>
        <time>2019-05-04T14:07:21Z</time>
      </trkpt>
      <trkpt lat="38.901783" lon="-5.995433">
        <ele>1826.0</ele>
        <time>2019-05-04T14:07:22Z</time>
      </trkpt>
      <trkpt lat="38.901767" lon="-5.995367">
        <ele>1824.0</ele>
        <time>2019-05-04T14:07:23Z</time>
      </trkpt>
      <trkpt lat="38.901750" lon="-5.995267">
        <ele>1821.0</ele>
        <time>2019-05-04T14:07:24Z</time>
      </trkpt>
      <trkpt lat="38.901733" lon="-5.995183">
        <ele>1818.0</ele>
        <time>2019-05-04T14:07:25Z</time>
      </trkpt>
      <trkpt lat="38.901717" lon="-5.995083">
        <ele>1816.0</ele>
        <time>2019-05-04T14:07:26Z</time>
      </trkpt>
      <trkpt lat="38.901683" lon="-5.995000">
        <ele>1814.0</ele>
        <time>2019-05-04T14:07:27Z</time>
      </trkpt>
      <trkpt lat="38.901667" lon="-5.994917">
        <ele>1812.0</ele>
        <time>2019-05-04T14:07:28Z</time>
      </trkpt>
      <trkpt lat="38.901650" lon="-5.994833">
        <ele>1810.0</ele>
        <time>2019-05-04T14:07:29Z</time>
      </trkpt>
      <trkpt lat="38.901633" lon="-5.994750">
        <ele>1808.0</ele>
        <time>2019-05-04T14:07:30Z</time>
      </trkpt>
      <trkpt lat="38.901600" lon="-5.994667">
        <ele>1806.0</ele>
        <time>2019-05-04T14:07:31Z</time>
      </trkpt>
      <trkpt lat="38.901583" lon="-5.994583">
        <ele>1803.0</ele>
        <time>2019-05-04T14:07:32Z</time>
      </trkpt>
      <trkpt lat="38.901550" lon="-5.994500">
        <ele>1802.0</ele>
        <time>2019-05-04T14:07:33Z</time>
      </trkpt>
      <trkpt lat="38.901533" lon="-5.994417">
        <ele>1800.0</ele>
        <time>2019-05-04T14:07:34Z</time>
      </trkpt>
      <trkpt lat="38.901500" lon="-5.994333">
        <ele>1799.0</ele>
        <time>2019-05-04T14:07:35Z</time>
      </trkpt>
      <trkpt lat="38.901467" lon="-5.994267">
        <ele>1797.0</ele>
        <time>2019-05-04T14:07:36Z</time>
      </trkpt>
      <trkpt lat="38.901450" lon="-5.994183">
        <ele>1795.0</ele>
        <time>2019-05-04T14:07:37Z</time>
      </trkpt>
      <trkpt lat="38.901417" lon="-5.994100">
        <ele>1793.0</ele>
        <time>2019-05-04T14:07:38Z</time>
      </trkpt>
      <trkpt lat="38.901383" lon="-5.994017">
        <ele>1791.0</ele>
        <time>2019-05-04T14:07:39Z</time>
      </trkpt>
      <trkpt lat="38.901350" lon="-5.993917">
        <ele>1789.0</ele>
        <time>2019-05-04T14:07:40Z</time>
      </trkpt>
      <trkpt lat="38.901333" lon="-5.993833">
        <ele>1787.0</ele>
        <time>2019-05-04T14:07:41Z</time>
      </trkpt>
      <trkpt lat="38.901317" lon="-5.993750">
        <ele>1786.0</ele>
        <time>2019-05-04T14:07:42Z</time>
      </trkpt>
      <trkpt lat="38.901300" lon="-5.993667">
        <ele>1785.0</ele>
        <time>2019-05-04T14:07:43Z</time>
      </trkpt>
      <trkpt lat="38.901267" lon="-5.993583">
        <ele>1783.0</ele>
        <time>2019-05-04T14:07:44Z</time>
      </trkpt>
      <trkpt lat="38.901250" lon="-5.993517">
        <ele>1782.0</ele>
        <time>2019-05-04T14:07:45Z</time>
      </trkpt>
      <trkpt lat="38.901233" lon="-5.993433">
        <ele>1780.0</ele>
        <time>2019-05-04T14:07:46Z</time>
      </trkpt>
      <trkpt lat="38.901200" lon="-5.993350">
        <ele>1778.0</ele>
        <time>2019-05-04T14:07:47Z</time>
      </trkpt>
      <trkpt lat="38.901167" lon="-5.993250">
        <ele>1777.0</ele>
        <time>2019-05-04T14:07:48Z</time>
      </trkpt>
      <trkpt lat="38.901150" lon="-5.993167">
        <ele>1775.0</ele>
        <time>2019-05-04T14:07:49Z</time>
      </trkpt>
      <trkpt lat="38.901133" lon="-5.993067">
        <ele>1774.0</ele>
        <time>2019-05-04T14:07:50Z</time>
      </trkpt>
      <trkpt lat="38.901117" lon="-5.992983">
        <ele>1773.0</ele>
        <time>2019-05-04T14:07:51Z</time>
      </trkpt>
      <trkpt lat="38.901083" lon="-5.992900">
        <ele>1771.0</ele>
        <time>2019-05-04T14:07:52Z</time>
      </trkpt>
      <trkpt lat="38.901067" lon="-5.992817">
        <ele>1770.0</ele>
        <time>2019-05-04T14:07:53Z</time>
      </trkpt>
      <trkpt lat="38.901033" lon="-5.992717">
        <ele>1768.0</ele>
        <time>2019-05-04T14:07:54Z</time>
      </trkpt>
      <trkpt lat="38.901017" lon="-5.992633">
        <ele>1767.0</ele>
        <time>2019-05-04T14:07:55Z</time>
      </trkpt>
      <trkpt lat="38.901000" lon="-5.992550">
        <ele>1765.0</ele>
        <time>2019-05-04T14:07:56Z</time>
      </trkpt>
      <trkpt lat="38.900983" lon="-5.992467">
        <ele>1764.0</ele>
        <time>2019-05-04T14:07:57Z</time>
      </trkpt>
      <trkpt lat="38.900967" lon="-5.992367">
        <ele>1763.0</ele>
        <time>2019-05-04T14:07:58Z</time>
      </trkpt>
      <trkpt lat="38.900933" lon="-5.992283">
        <ele>1762.0</ele>
        <time>2019-05-04T14:07:59Z</time>
      </trkpt>
      <trkpt lat="38.900917" lon="-5.992200">
        <ele>1761.0</ele>
        <time>2019-05-04T14:08:00Z</time>
      </trkpt>
      <trkpt lat="38.900883" lon="-5.992100">
        <ele>1759.0</ele>
        <time>2019-05-04T14:08:01Z</time>
      </trkpt>
      <trkpt lat="38.900850" lon="-5.992017">
        <ele>1758.0</ele>
        <time>2019-05-04T14:08:02Z</time>
      </trkpt>
      <trkpt lat="38.900833" lon="-5.991917">
        <ele>1757.0</ele>
        <time>2019-05-04T14:08:03Z</time>
      </trkpt>
      <trkpt lat="38.900817" lon="-5.991833">
        <ele>1756.0</ele>
        <time>2019-05-04T14:08:04Z</time>
      </trkpt>
      <trkpt lat="38.900800" lon="-5.991733">
        <ele>1755.0</ele>
        <time>2019-05-04T14:08:05Z</time>
      </trkpt>
      <trkpt lat="38.900767" lon="-5.991650">
        <ele>1753.0</ele>
        <time>2019-05-04T14:08:06Z</time>
      </trkpt>
      <trkpt lat="38.900750" lon="-5.991533">
        <ele>1752.0</ele>
        <time>2019-05-04T14:08:07Z</time>
      </trkpt>
      <trkpt lat="38.900733" lon="-5.991433">
        <ele>1750.0</ele>
        <time>2019-05-04T14:08:08Z</time>
      </trkpt>
      <trkpt lat="38.900717" lon="-5.991350">
        <ele>1750.0</ele>
        <time>2019-05-04T14:08:09Z</time>
      </trkpt>
      <trkpt lat="38.900700" lon="-5.991267">
        <ele>1750.0</ele>
        <time>2019-05-04T14:08:10Z</time>
      </trkpt>
      <trkpt lat="38.900683" lon="-5.991183">
        <ele>1749.0</ele>
        <time>2019-05-04T14:08:11Z</time>
      </trkpt>
      <trkpt lat="38.900667" lon="-5.991083">
        <ele>1748.0</ele>
        <time>2019-05-04T14:08:12Z</time>
      </trkpt>
      <trkpt lat="38.900633" lon="-5.990983">
        <ele>1746.0</ele>
        <time>2019-05-04T14:08:13Z</time>
      </trkpt>
      <trkpt lat="38.900600" lon="-5.990883">
        <ele>1745.0</ele>
        <time>2019-05-04T14:08:14Z</time>
      </trkpt>
      <trkpt lat="38.900567" lon="-5.990783">
        <ele>1745.0</ele>
        <time>2019-05-04T14:08:15Z</time>
      </trkpt>
      <trkpt lat="38.900550" lon="-5.990700">
        <ele>1745.0</ele>
        <time>2019-05-04T14:08:16Z</time>
      </trkpt>
      <trkpt lat="38.900517" lon="-5.990600">
        <ele>1746.0</ele>
        <time>2019-05-04T14:08:17Z</time>
      </trkpt>
      <trkpt lat="38.900500" lon="-5.990500">
        <ele>1745.0</ele>
        <time>2019-05-04T14:08:18Z</time>
      </trkpt>
      <trkpt lat="38.900467" lon="-5.990417">
        <ele>1745.0</ele>
        <time>2019-05-04T14:08:19Z</time>
      </trkpt>
      <trkpt lat="38.900450" lon="-5.990317">
        <ele>1745.0</ele>
        <time>2019-05-04T14:08:20Z</time>
      </trkpt>
      <trkpt lat="38.900433" lon="-5.990217">
        <ele>1745.0</ele>
        <time>2019-05-04T14:08:21Z</time>
      </trkpt>
      <trkpt lat="38.900417" lon="-5.990133">
        <ele>1745.0</ele>
        <time>2019-05-04T14:08:22Z</time>
      </trkpt>
      <trkpt lat="38.900400" lon="-5.990033">
        <ele>1745.0</ele>
        <time>2019-05-04T14:08:23Z</time>
      </trkpt>
      <trkpt lat="38.900367" lon="-5.989933">
        <ele>1745.0</ele>
        <time>2019-05-04T14:08:24Z</time>
      </trkpt>
      <trkpt lat="38.900350" lon="-5.989833">
        <ele>1745.0</ele>
        <time>2019-05-04T14:08:25Z</time>
      </trkpt>
      <trkpt lat="38.900333" lon="-5.989733">
        <ele>1744.0</ele>
        <time>2019-05-04T14:08:26Z</time>
      </trkpt>
      <trkpt lat="38.900317" lon="-5.989633">
        <ele>1745.0</ele>
        <time>2019-05-04T14:08:27Z</time>
      </trkpt>
      <trkpt lat="38.900300" lon="-5.989550">
        <ele>1745.0</ele>
        <time>2019-05-04T14:08:28Z</time>
      </trkpt>
      <trkpt lat="38.900283" lon="-5.989450">
        <ele>1745.0</ele>
        <time>2019-05-04T14:08:29Z</time>
      </trkpt>
      <trkpt lat="38.900267" lon="-5.989367">
        <ele>1745.0</ele>
        <time>2019-05-04T14:08:30Z</time>
      </trkpt>
      <trkpt lat="38.900250" lon="-5.989267">
        <ele>1744.0</ele>
        <time>2019-05-04T14:08:31Z</time>
      </trkpt>
      <trkpt lat="38.900217" lon="-5.989167">
        <ele>1742.0</ele>
        <time>2019-05-04T14:08:32Z</time>
      </trkpt>
      <trkpt lat="38.900200" lon="-5.989067">
        <ele>1741.0</ele>
        <time>2019-05-04T14:08:33Z</time>
      </trkpt>
      <trkpt lat="38.900167" lon="-5.988967">
        <ele>1741.0</ele>
        <time>2019-05-04T14:08:34Z</time>
      </trkpt>
      <trkpt lat="38.900150" lon="-5.988867">
        <ele>1740.0</ele>
        <time>2019-05-04T14:08:35Z</time>
      </trkpt>
      <trkpt lat="38.900117" lon="-5.988783">
        <ele>1739.0</ele>
        <time>2019-05-04T14:08:36Z</time>
      </trkpt>
      <trkpt lat="38.900100" lon="-5.988683">
        <ele>1738.0</ele>
        <time>2019-05-04T14:08:37Z</time>
      </trkpt>
      <trkpt lat="38.900067" lon="-5.988583">
        <ele>1737.0</ele>
        <time>2019-05-04T14:08:38Z</time>
      </trkpt>
      <trkpt lat="38.900050" lon="-5.988483">
        <ele>1736.0</ele>
        <time>2019-05-04T14:08:39Z</time>
      </trkpt>
      <trkpt lat="38.900033" lon="-5.988383">
        <ele>1735.0</ele>
        <time>2019-05-04T14:08:40Z</time>
      </trkpt>
      <trkpt lat="38.900000" lon="-5.988283">
        <ele>1734.0</ele>
        <time>2019-05-04T14:08:41Z</time>
      </trkpt>
      <trkpt lat="38.899983" lon="-5.988183">
        <ele>1733.0</ele>
        <time>2019-05-04T14:08:42Z</time>
      </trkpt>
      <trkpt lat="38.899967" lon="-5.988100">
        <ele>1733.0</ele>
        <time>2019-05-04T14:08:43Z</time>
      </trkpt>
      <trkpt lat="38.899950" lon="-5.988000">
        <ele>1732.0</ele>
        <time>2019-05-04T14:08:44Z</time>
      </trkpt>
      <trkpt lat="38.899933" lon="-5.987900">
        <ele>1730.0</ele>
        <time>2019-05-04T14:08:45Z</time>
      </trkpt>
      <trkpt lat="38.899900" lon="-5.987783">
        <ele>1728.0</ele>
        <time>2019-05-04T14:08:46Z</time>
      </trkpt>
      <trkpt lat="38.899883" lon="-5.987683">
        <ele>1726.0</ele>
        <time>2019-05-04T14:08:47Z</time>
      </trkpt>
      <trkpt lat="38.899883" lon="-5.987583">
        <ele>1726.0</ele>
        <time>2019-05-04T14:08:48Z</time>
      </trkpt>
      <trkpt lat="38.899867" lon="-5.987500">
        <ele>1725.0</ele>
        <time>2019-05-04T14:08:49Z</time>
      </trkpt>
      <trkpt lat="38.899867" lon="-5.987400">
        <ele>1724.0</ele>
        <time>2019-05-04T14:08:50Z</time>
      </trkpt>
      <trkpt lat="38.899850" lon="-5.987283">
        <ele>1721.0</ele>
        <time>2019-05-04T14:08:51Z</time>
      </trkpt>
      <trkpt lat="38.899833" lon="-5.987183">
        <ele>1719.0</ele>
        <time>2019-05-04T14:08:52Z</time>
      </trkpt>
      <trkpt lat="38.899817" lon="-5.987067">
        <ele>1717.0</ele>
        <time>2019-05-04T14:08:53Z</time>
      </trkpt>
      <trkpt lat="38.899800" lon="-5.986967">
        <ele>1717.0</ele>
        <time>2019-05-04T14:08:54Z</time>
      </trkpt>
      <trkpt lat="38.899800" lon="-5.986867">
        <ele>1717.0</ele>
        <time>2019-05-04T14:08:55Z</time>
      </trkpt>
      <trkpt lat="38.899783" lon="-5.986783">
        <ele>1716.0</ele>
        <time>2019-05-04T14:08:56Z</time>
      </trkpt>
      <trkpt lat="38.899767" lon="-5.986683">
        <ele>1714.0</ele>
        <time>2019-05-04T14:08:57Z</time>
      </trkpt>
      <trkpt lat="38.899750" lon="-5.986567">
        <ele>1712.0</ele>
        <time>2019-05-04T14:08:58Z</time>
      </trkpt>
      <trkpt lat="38.899750" lon="-5.986450">
        <ele>1710.0</ele>
        <time>2019-05-04T14:08:59Z</time>
      </trkpt>
      <trkpt lat="38.899733" lon="-5.986333">
        <ele>1709.0</ele>
        <time>2019-05-04T14:09:00Z</time>
      </trkpt>
      <trkpt lat="38.899717" lon="-5.986233">
        <ele>1709.0</ele>
        <time>2019-05-04T14:09:01Z</time>
      </trkpt>
      <trkpt lat="38.899700" lon="-5.986117">
        <ele>1708.0</ele>
        <time>2019-05-04T14:09:02Z</time>
      </trkpt>
      <trkpt lat="38.899683" lon="-5.986017">
        <ele>1708.0</ele>
        <time>2019-05-04T14:09:03Z</time>
      </trkpt>
      <trkpt lat="38.899667" lon="-5.985917">
        <ele>1708.0</ele>
        <time>2019-05-04T14:09:04Z</time>
      </trkpt>
      <trkpt lat="38.899650" lon="-5.985817">
        <ele>1707.0</ele>
        <time>2019-05-04T14:09:05Z</time>
      </trkpt>
      <trkpt lat="38.899633" lon="-5.985717">
        <ele>1707.0</ele>
        <time>2019-05-04T14:09:06Z</time>
      </trkpt>
      <trkpt lat="38.899633" lon="-5.985617">
        <ele>1707.0</ele>
        <time>2019-05-04T14:09:07Z</time>
      </trkpt>
      <trkpt lat="38.899617" lon="-5.985517">
        <ele>1706.0</ele>
        <time>2019-05-04T14:09:08Z</time>
      </trkpt>
      <trkpt lat="38.899600" lon="-5.985417">
        <ele>1704.0</ele>
        <time>2019-05-04T14:09:09Z</time>
      </trkpt>
      <trkpt lat="38.899583" lon="-5.985300">
        <ele>1703.0</ele>
        <time>2019-05-04T14:09:10Z</time>
      </trkpt>
      <trkpt lat="38.899567" lon="-5.985200">
        <ele>1701.0</ele>
        <time>2019-05-04T14:09:11Z</time>
      </trkpt>
      <trkpt lat="38.899550" lon="-5.985100">
        <ele>1701.0</ele>
        <time>2019-05-04T14:09:12Z</time>
      </trkpt>
      <trkpt lat="38.899550" lon="-5.984983">
        <ele>1700.0</ele>
        <time>2019-05-04T14:09:13Z</time>
      </trkpt>
      <trkpt lat="38.899533" lon="-5.984867">
        <ele>1701.0</ele>
        <time>2019-05-04T14:09:14Z</time>
      </trkpt>
      <trkpt lat="38.899533" lon="-5.984767">
        <ele>1700.0</ele>
        <time>2019-05-04T14:09:15Z</time>
      </trkpt>
      <trkpt lat="38.899517" lon="-5.984650">
        <ele>1701.0</ele>
        <time>2019-05-04T14:09:16Z</time>
      </trkpt>
      <trkpt lat="38.899500" lon="-5.984533">
        <ele>1700.0</ele>
        <time>2019-05-04T14:09:17Z</time>
      </trkpt>
      <trkpt lat="38.899500" lon="-5.984417">
        <ele>1700.0</ele>
        <time>2019-05-04T14:09:18Z</time>
      </trkpt>
      <trkpt lat="38.899500" lon="-5.984300">
        <ele>1700.0</ele>
        <time>2019-05-04T14:09:19Z</time>
      </trkpt>
      <trkpt lat="38.899500" lon="-5.984183">
        <ele>1699.0</ele>
        <time>2019-05-04T14:09:20Z</time>
      </trkpt>
      <trkpt lat="38.899500" lon="-5.984067">
        <ele>1698.0</ele>
        <time>2019-05-04T14:09:21Z</time>
      </trkpt>
      <trkpt lat="38.899500" lon="-5.983933">
        <ele>1696.0</ele>
        <time>2019-05-04T14:09:22Z</time>
      </trkpt>
      <trkpt lat="38.899500" lon="-5.983817">
        <ele>1695.0</ele>
        <time>2019-05-04T14:09:23Z</time>
      </trkpt>
      <trkpt lat="38.899483" lon="-5.983700">
        <ele>1693.0</ele>
        <time>2019-05-04T14:09:24Z</time>
      </trkpt>
      <trkpt lat="38.899483" lon="-5.983583">
        <ele>1691.0</ele>
        <time>2019-05-04T14:09:25Z</time>
      </trkpt>
      <trkpt lat="38.899483" lon="-5.983467">
        <ele>1690.0</ele>
        <time>2019-05-04T14:09:26Z</time>
      </trkpt>
      <trkpt lat="38.899500" lon="-5.983333">
        <ele>1693.0</ele>
        <time>2019-05-04T14:09:27Z</time>
      </trkpt>
      <trkpt lat="38.899500" lon="-5.983200">
        <ele>1692.0</ele>
        <time>2019-05-04T14:09:28Z</time>
      </trkpt>
      <trkpt lat="38.899500" lon="-5.983083">
        <ele>1691.0</ele>
        <time>2019-05-04T14:09:29Z</time>
      </trkpt>
      <trkpt lat="38.899483" lon="-5.982967">
        <ele>1689.0</ele>
        <time>2019-05-04T14:09:30Z</time>
      </trkpt>
      <trkpt lat="38.899483" lon="-5.982867">
        <ele>1688.0</ele>
        <time>2019-05-04T14:09:31Z</time>
      </trkpt>
      <trkpt lat="38.899467" lon="-5.982750">
        <ele>1686.0</ele>
        <time>2019-05-04T14:09:32Z</time>
      </trkpt>
      <trkpt lat="38.899450" lon="-5.982633">
        <ele>1684.0</ele>
        <time>2019-05-04T14:09:33Z</time>
      </trkpt>
      <trkpt lat="38.899450" lon="-5.982533">
        <ele>1681.0</ele>
        <time>2019-05-04T14:09:34Z</time>
      </trkpt>
      <trkpt lat="38.899433" lon="-5.982417">
        <ele>1679.0</ele>
        <time>2019-05-04T14:09:35Z</time>
      </trkpt>
      <trkpt lat="38.899433" lon="-5.982283">
        <ele>1676.0</ele>
        <time>2019-05-04T14:09:36Z</time>
      </trkpt>
      <trkpt lat="38.899433" lon="-5.982167">
        <ele>1678.0</ele>
        <time>2019-05-04T14:09:37Z</time>
      </trkpt>
      <trkpt lat="38.899417" lon="-5.982050">
        <ele>1676.0</ele>
        <time>2019-05-04T14:09:38Z</time>
      </trkpt>
      <trkpt lat="38.899400" lon="-5.981933">
        <ele>1674.0</ele>
        <time>2019-05-04T14:09:39Z</time>
      </trkpt>
      <trkpt lat="38.899383" lon="-5.981833">
        <ele>1672.0</ele>
        <time>2019-05-04T14:09:40Z</time>
      </trkpt>
      <trkpt lat="38.899367" lon="-5.981733">
        <ele>1669.0</ele>
        <time>2019-05-04T14:09:41Z</time>
      </trkpt>
      <trkpt lat="38.899350" lon="-5.981633">
        <ele>1666.0</ele>
        <time>2019-05-04T14:09:42Z</time>
      </trkpt>
      <trkpt lat="38.899333" lon="-5.981550">
        <ele>1664.0</ele>
        <time>2019-05-04T14:09:43Z</time>
      </trkpt>
      <trkpt lat="38.899317" lon="-5.981450">
        <ele>1661.0</ele>
        <time>2019-05-04T14:09:44Z</time>
      </trkpt>
      <trkpt lat="38.899283" lon="-5.981367">
        <ele>1657.0</ele>
        <time>2019-05-04T14:09:45Z</time>
      </trkpt>
      <trkpt lat="38.899267" lon="-5.981250">
        <ele>1653.0</ele>
        <time>2019-05-04T14:09:46Z</time>
      </trkpt>
      <trkpt lat="38.899250" lon="-5.981150">
        <ele>1650.0</ele>
        <time>2019-05-04T14:09:47Z</time>
      </trkpt>
      <trkpt lat="38.899217" lon="-5.981067">
        <ele>1647.0</ele>
        <time>2019-05-04T14:09:48Z</time>
      </trkpt>
      <trkpt lat="38.899200" lon="-5.980983">
        <ele>1645.0</ele>
        <time>2019-05-04T14:09:49Z</time>
      </trkpt>
      <trkpt lat="38.899167" lon="-5.980900">
        <ele>1642.0</ele>
        <time>2019-05-04T14:09:50Z</time>
      </trkpt>
      <trkpt lat="38.899133" lon="-5.980800">
        <ele>1639.0</ele>
        <time>2019-05-04T14:09:51Z</time>
      </trkpt>
      <trkpt lat="38.899100" lon="-5.980717">
        <ele>1636.0</ele>
        <time>2019-05-04T14:09:52Z</time>
      </trkpt>
      <trkpt lat="38.899067" lon="-5.980617">
        <ele>1633.0</ele>
        <time>2019-05-04T14:09:53Z</time>
      </trkpt>
      <trkpt lat="38.899050" lon="-5.980517">
        <ele>1630.0</ele>
        <time>2019-05-04T14:09:54Z</time>
      </trkpt>
      <trkpt lat="38.899017" lon="-5.980433">
        <ele>1627.0</ele>
        <time>2019-05-04T14:09:55Z</time>
      </trkpt>
      <trkpt lat="38.899000" lon="-5.980350">
        <ele>1624.0</ele>
        <time>2019-05-04T14:09:56Z</time>
      </trkpt>
      <trkpt lat="38.898967" lon="-5.980250">
        <ele>1621.0</ele>
        <time>2019-05-04T14:09:57Z</time>
      </trkpt>
      <trkpt lat="38.898933" lon="-5.980167">
        <ele>1619.0</ele>
        <time>2019-05-04T14:09:58Z</time>
      </trkpt>
      <trkpt lat="38.898917" lon="-5.980067">
        <ele>1615.0</ele>
        <time>2019-05-04T14:09:59Z</time>
      </trkpt>
      <trkpt lat="38.898883" lon="-5.979967">
        <ele>1612.0</ele>
        <time>2019-05-04T14:10:00Z</time>
      </trkpt>
      <trkpt lat="38.898850" lon="-5.979867">
        <ele>1609.0</ele>
        <time>2019-05-04T14:10:01Z</time>
      </trkpt>
      <trkpt lat="38.898817" lon="-5.979783">
        <ele>1616.0</ele>
        <time>2019-05-04T14:10:02Z</time>
      </trkpt>
      <trkpt lat="38.898783" lon="-5.979683">
        <ele>1615.0</ele>
        <time>2019-05-04T14:10:03Z</time>
      </trkpt>
      <trkpt lat="38.898767" lon="-5.979600">
        <ele>1612.0</ele>
        <time>2019-05-04T14:10:04Z</time>
      </trkpt>
      <trkpt lat="38.898717" lon="-5.979533">
        <ele>1609.0</ele>
        <time>2019-05-04T14:10:05Z</time>
      </trkpt>
      <trkpt lat="38.898667" lon="-5.979450">
        <ele>1605.0</ele>
        <time>2019-05-04T14:10:06Z</time>
      </trkpt>
      <trkpt lat="38.898633" lon="-5.979383">
        <ele>1602.0</ele>
        <time>2019-05-04T14:10:07Z</time>
      </trkpt>
      <trkpt lat="38.898583" lon="-5.979317">
        <ele>1600.0</ele>
        <time>2019-05-04T14:10:08Z</time>
      </trkpt>
      <trkpt lat="38.898550" lon="-5.979233">
        <ele>1597.0</ele>
        <time>2019-05-04T14:10:09Z</time>
      </trkpt>
      <trkpt lat="38.898517" lon="-5.979167">
        <ele>1593.0</ele>
        <time>2019-05-04T14:10:10Z</time>
      </trkpt>
      <trkpt lat="38.898483" lon="-5.979083">
        <ele>1589.0</ele>
        <time>2019-05-04T14:10:11Z</time>
      </trkpt>
      <trkpt lat="38.898417" lon="-5.979000">
        <ele>1586.0</ele>
        <time>2019-05-04T14:10:12Z</time>
      </trkpt>
      <trkpt lat="38.898383" lon="-5.978933">
        <ele>1584.0</ele>
        <time>2019-05-04T14:10:13Z</time>
      </trkpt>
      <trkpt lat="38.898333" lon="-5.978867">
        <ele>1582.0</ele>
        <time>2019-05-04T14:10:14Z</time>
      </trkpt>
      <trkpt lat="38.898300" lon="-5.978800">
        <ele>1579.0</ele>
        <time>2019-05-04T14:10:15Z</time>
      </trkpt>
      <trkpt lat="38.898267" lon="-5.978717">
        <ele>1576.0</ele>
        <time>2019-05-04T14:10:16Z</time>
      </trkpt>
      <trkpt lat="38.898217" lon="-5.978650">
        <ele>1572.0</ele>
        <time>2019-05-04T14:10:17Z</time>
      </trkpt>
      <trkpt lat="38.898167" lon="-5.978550">
        <ele>1567.0</ele>
        <time>2019-05-04T14:10:18Z</time>
      </trkpt>
      <trkpt lat="38.898117" lon="-5.978467">
        <ele>1564.0</ele>
        <time>2019-05-04T14:10:19Z</time>
      </trkpt>
      <trkpt lat="38.898083" lon="-5.978383">
        <ele>1561.0</ele>
        <time>2019-05-04T14:10:20Z</time>
      </trkpt>
      <trkpt lat="38.898033" lon="-5.978317">
        <ele>1558.0</ele>
        <time>2019-05-04T14:10:21Z</time>
      </trkpt>
      <trkpt lat="38.897983" lon="-5.978233">
        <ele>1555.0</ele>
        <time>2019-05-04T14:10:22Z</time>
      </trkpt>
      <trkpt lat="38.897933" lon="-5.978150">
        <ele>1552.0</ele>
        <time>2019-05-04T14:10:23Z</time>
      </trkpt>
      <trkpt lat="38.897900" lon="-5.978067">
        <ele>1549.0</ele>
        <time>2019-05-04T14:10:24Z</time>
      </trkpt>
      <trkpt lat="38.897867" lon="-5.977983">
        <ele>1546.0</ele>
        <time>2019-05-04T14:10:25Z</time>
      </trkpt>
      <trkpt lat="38.897850" lon="-5.977900">
        <ele>1543.0</ele>
        <time>2019-05-04T14:10:26Z</time>
      </trkpt>
      <trkpt lat="38.897833" lon="-5.977800">
        <ele>1540.0</ele>
        <time>2019-05-04T14:10:27Z</time>
      </trkpt>
      <trkpt lat="38.897800" lon="-5.977700">
        <ele>1536.0</ele>
        <time>2019-05-04T14:10:28Z</time>
      </trkpt>
      <trkpt lat="38.897767" lon="-5.977600">
        <ele>1532.0</ele>
        <time>2019-05-04T14:10:29Z</time>
      </trkpt>
      <trkpt lat="38.897733" lon="-5.977517">
        <ele>1530.0</ele>
        <time>2019-05-04T14:10:30Z</time>
      </trkpt>
      <trkpt lat="38.897717" lon="-5.977417">
        <ele>1528.0</ele>
        <time>2019-05-04T14:10:31Z</time>
      </trkpt>
      <trkpt lat="38.897700" lon="-5.977333">
        <ele>1525.0</ele>
        <time>2019-05-04T14:10:32Z</time>
      </trkpt>
      <trkpt lat="38.897667" lon="-5.977233">
        <ele>1522.0</ele>
        <time>2019-05-04T14:10:33Z</time>
      </trkpt>
      <trkpt lat="38.897633" lon="-5.977133">
        <ele>1519.0</ele>
        <time>2019-05-04T14:10:34Z</time>
      </trkpt>
      <trkpt lat="38.897600" lon="-5.977050">
        <ele>1515.0</ele>
        <time>2019-05-04T14:10:35Z</time>
      </trkpt>
      <trkpt lat="38.897567" lon="-5.976967">
        <ele>1512.0</ele>
        <time>2019-05-04T14:10:36Z</time>
      </trkpt>
      <trkpt lat="38.897517" lon="-5.976867">
        <ele>1509.0</ele>
        <time>2019-05-04T14:10:37Z</time>
      </trkpt>
      <trkpt lat="38.897500" lon="-5.976767">
        <ele>1506.0</ele>
        <time>2019-05-04T14:10:38Z</time>
      </trkpt>
      <trkpt lat="38.897467" lon="-5.976683">
        <ele>1504.0</ele>
        <time>2019-05-04T14:10:39Z</time>
      </trkpt>
      <trkpt lat="38.897450" lon="-5.976583">
        <ele>1501.0</ele>
        <time>2019-05-04T14:10:40Z</time>
      </trkpt>
      <trkpt lat="38.897417" lon="-5.976467">
        <ele>1499.0</ele>
        <time>2019-05-04T14:10:41Z</time>
      </trkpt>
      <trkpt lat="38.897400" lon="-5.976367">
        <ele>1496.0</ele>
        <time>2019-05-04T14:10:42Z</time>
      </trkpt>
      <trkpt lat="38.897383" lon="-5.976250">
        <ele>1493.0</ele>
        <time>2019-05-04T14:10:43Z</time>
      </trkpt>
      <trkpt lat="38.897350" lon="-5.976133">
        <ele>1489.0</ele>
        <time>2019-05-04T14:10:44Z</time>
      </trkpt>
      <trkpt lat="38.897333" lon="-5.976033">
        <ele>1487.0</ele>
        <time>2019-05-04T14:10:45Z</time>
      </trkpt>
      <trkpt lat="38.897300" lon="-5.975933">
        <ele>1484.0</ele>
        <time>2019-05-04T14:10:46Z</time>
      </trkpt>
      <trkpt lat="38.897267" lon="-5.975850">
        <ele>1482.0</ele>
        <time>2019-05-04T14:10:47Z</time>
      </trkpt>
      <trkpt lat="38.897233" lon="-5.975750">
        <ele>1479.0</ele>
        <time>2019-05-04T14:10:48Z</time>
      </trkpt>
      <trkpt lat="38.897183" lon="-5.975650">
        <ele>1475.0</ele>
        <time>2019-05-04T14:10:49Z</time>
      </trkpt>
      <trkpt lat="38.897150" lon="-5.975550">
        <ele>1472.0</ele>
        <time>2019-05-04T14:10:50Z</time>
      </trkpt>
      <trkpt lat="38.897100" lon="-5.975450">
        <ele>1469.0</ele>
        <time>2019-05-04T14:10:51Z</time>
      </trkpt>
      <trkpt lat="38.897050" lon="-5.975350">
        <ele>1466.0</ele>
        <time>2019-05-04T14:10:52Z</time>
      </trkpt>
      <trkpt lat="38.897000" lon="-5.975233">
        <ele>1463.0</ele>
        <time>2019-05-04T14:10:53Z</time>
      </trkpt>
      <trkpt lat="38.896967" lon="-5.975117">
        <ele>1460.0</ele>
        <time>2019-05-04T14:10:54Z</time>
      </trkpt>
      <trkpt lat="38.896917" lon="-5.975000">
        <ele>1457.0</ele>
        <time>2019-05-04T14:10:55Z</time>
      </trkpt>
      <trkpt lat="38.896867" lon="-5.974900">
        <ele>1455.0</ele>
        <time>2019-05-04T14:10:56Z</time>
      </trkpt>
      <trkpt lat="38.896817" lon="-5.974817">
        <ele>1453.0</ele>
        <time>2019-05-04T14:10:57Z</time>
      </trkpt>
      <trkpt lat="38.896767" lon="-5.974717">
        <ele>1451.0</ele>
        <time>2019-05-04T14:10:58Z</time>
      </trkpt>
      <trkpt lat="38.896733" lon="-5.974633">
        <ele>1448.0</ele>
        <time>2019-05-04T14:10:59Z</time>
      </trkpt>
      <trkpt lat="38.896683" lon="-5.974533">
        <ele>1445.0</ele>
        <time>2019-05-04T14:11:00Z</time>
      </trkpt>
      <trkpt lat="38.896650" lon="-5.974417">
        <ele>1441.0</ele>
        <time>2019-05-04T14:11:01Z</time>
      </trkpt>
      <trkpt lat="38.896600" lon="-5.974333">
        <ele>1438.0</ele>
        <time>2019-05-04T14:11:02Z</time>
      </trkpt>
      <trkpt lat="38.896550" lon="-5.974250">
        <ele>1435.0</ele>
        <time>2019-05-04T14:11:03Z</time>
      </trkpt>
      <trkpt lat="38.896500" lon="-5.974167">
        <ele>1432.0</ele>
        <time>2019-05-04T14:11:04Z</time>
      </trkpt>
      <trkpt lat="38.896450" lon="-5.974083">
        <ele>1430.0</ele>
        <time>2019-05-04T14:11:05Z</time>
      </trkpt>
      <trkpt lat="38.896400" lon="-5.974000">
        <ele>1427.0</ele>
        <time>2019-05-04T14:11:06Z</time>
      </trkpt>
      <trkpt lat="38.896350" lon="-5.973900">
        <ele>1424.0</ele>
        <time>2019-05-04T14:11:07Z</time>
      </trkpt>
      <trkpt lat="38.896317" lon="-5.973817">
        <ele>1421.0</ele>
        <time>2019-05-04T14:11:08Z</time>
      </trkpt>
      <trkpt lat="38.896267" lon="-5.973717">
        <ele>1418.0</ele>
        <time>2019-05-04T14:11:09Z</time>
      </trkpt>
      <trkpt lat="38.896233" lon="-5.973617">
        <ele>1415.0</ele>
        <time>2019-05-04T14:11:10Z</time>
      </trkpt>
      <trkpt lat="38.896200" lon="-5.973517">
        <ele>1413.0</ele>
        <time>2019-05-04T14:11:11Z</time>
      </trkpt>
      <trkpt lat="38.896167" lon="-5.973433">
        <ele>1410.0</ele>
        <time>2019-05-04T14:11:12Z</time>
      </trkpt>
      <trkpt lat="38.896133" lon="-5.973333">
        <ele>1408.0</ele>
        <time>2019-05-04T14:11:13Z</time>
      </trkpt>
      <trkpt lat="38.896100" lon="-5.973217">
        <ele>1404.0</ele>
        <time>2019-05-04T14:11:14Z</time>
      </trkpt>
      <trkpt lat="38.896067" lon="-5.973117">
        <ele>1401.0</ele>
        <time>2019-05-04T14:11:15Z</time>
      </trkpt>
      <trkpt lat="38.896050" lon="-5.973017">
        <ele>1398.0</ele>
        <time>2019-05-04T14:11:16Z</time>
      </trkpt>
      <trkpt lat="38.896017" lon="-5.972917">
        <ele>1396.0</ele>
        <time>2019-05-04T14:11:17Z</time>
      </trkpt>
      <trkpt lat="38.896000" lon="-5.972833">
        <ele>1393.0</ele>
        <time>2019-05-04T14:11:18Z</time>
      </trkpt>
      <trkpt lat="38.895983" lon="-5.972733">
        <ele>1390.0</ele>
        <time>2019-05-04T14:11:19Z</time>
      </trkpt>
      <trkpt lat="38.895967" lon="-5.972633">
        <ele>1386.0</ele>
        <time>2019-05-04T14:11:20Z</time>
      </trkpt>
      <trkpt lat="38.895933" lon="-5.972533">
        <ele>1382.0</ele>
        <time>2019-05-04T14:11:21Z</time>
      </trkpt>
      <trkpt lat="38.895900" lon="-5.972433">
        <ele>1378.0</ele>
        <time>2019-05-04T14:11:22Z</time>
      </trkpt>
      <trkpt lat="38.895867" lon="-5.972317">
        <ele>1374.0</ele>
        <time>2019-05-04T14:11:23Z</time>
      </trkpt>
      <trkpt lat="38.895833" lon="-5.972217">
        <ele>1370.0</ele>
        <time>2019-05-04T14:11:24Z</time>
      </trkpt>
      <trkpt lat="38.895800" lon="-5.972100">
        <ele>1366.0</ele>
        <time>2019-05-04T14:11:25Z</time>
      </trkpt>
      <trkpt lat="38.895783" lon="-5.971983">
        <ele>1362.0</ele>
        <time>2019-05-04T14:11:26Z</time>
      </trkpt>
      <trkpt lat="38.895767" lon="-5.971867">
        <ele>1358.0</ele>
        <time>2019-05-04T14:11:27Z</time>
      </trkpt>
      <trkpt lat="38.895750" lon="-5.971733">
        <ele>1353.0</ele>
        <time>2019-05-04T14:11:28Z</time>
      </trkpt>
      <trkpt lat="38.895733" lon="-5.971600">
        <ele>1348.0</ele>
        <time>2019-05-04T14:11:29Z</time>
      </trkpt>
      <trkpt lat="38.895717" lon="-5.971467">
        <ele>1344.0</ele>
        <time>2019-05-04T14:11:30Z</time>
      </trkpt>
      <trkpt lat="38.895700" lon="-5.971350">
        <ele>1339.0</ele>
        <time>2019-05-04T14:11:31Z</time>
      </trkpt>
      <trkpt lat="38.895683" lon="-5.971217">
        <ele>1335.0</ele>
        <time>2019-05-04T14:11:32Z</time>
      </trkpt>
      <trkpt lat="38.895667" lon="-5.971100">
        <ele>1331.0</ele>
        <time>2019-05-04T14:11:33Z</time>
      </trkpt>
      <trkpt lat="38.895650" lon="-5.970967">
        <ele>1327.0</ele>
        <time>2019-05-04T14:11:34Z</time>
      </trkpt>
      <trkpt lat="38.895633" lon="-5.970833">
        <ele>1322.0</ele>
        <time>2019-05-04T14:11:35Z</time>
      </trkpt>
      <trkpt lat="38.895617" lon="-5.970683">
        <ele>1317.0</ele>
        <time>2019-05-04T14:11:36Z</time>
      </trkpt>
      <trkpt lat="38.895583" lon="-5.970550">
        <ele>1312.0</ele>
        <time>2019-05-04T14:11:37Z</time>
      </trkpt>
      <trkpt lat="38.895550" lon="-5.970400">
        <ele>1308.0</ele>
        <time>2019-05-04T14:11:38Z</time>
      </trkpt>
      <trkpt lat="38.895517" lon="-5.970283">
        <ele>1304.0</ele>
        <time>2019-05-04T14:11:39Z</time>
      </trkpt>
      <trkpt lat="38.895483" lon="-5.970150">
        <ele>1300.0</ele>
        <time>2019-05-04T14:11:40Z</time>
      </trkpt>
      <trkpt lat="38.895450" lon="-5.970000">
        <ele>1296.0</ele>
        <time>2019-05-04T14:11:41Z</time>
      </trkpt>
      <trkpt lat="38.895417" lon="-5.969850">
        <ele>1291.0</ele>
        <time>2019-05-04T14:11:42Z</time>
      </trkpt>
      <trkpt lat="38.895367" lon="-5.969700">
        <ele>1286.0</ele>
        <time>2019-05-04T14:11:43Z</time>
      </trkpt>
      <trkpt lat="38.895317" lon="-5.969550">
        <ele>1281.0</ele>
        <time>2019-05-04T14:11:44Z</time>
      </trkpt>
      <trkpt lat="38.895283" lon="-5.969417">
        <ele>1278.0</ele>
        <time>2019-05-04T14:11:45Z</time>
      </trkpt>
      <trkpt lat="38.895250" lon="-5.969283">
        <ele>1275.0</ele>
        <time>2019-05-04T14:11:46Z</time>
      </trkpt>
      <trkpt lat="38.895217" lon="-5.969133">
        <ele>1271.0</ele>
        <time>2019-05-04T14:11:47Z</time>
      </trkpt>
      <trkpt lat="38.895183" lon="-5.969000">
        <ele>1266.0</ele>
        <time>2019-05-04T14:11:48Z</time>
      </trkpt>
      <trkpt lat="38.895133" lon="-5.968867">
        <ele>1261.0</ele>
        <time>2019-05-04T14:11:49Z</time>
      </trkpt>
      <trkpt lat="38.895083" lon="-5.968750">
        <ele>1257.0</ele>
        <time>2019-05-04T14:11:50Z</time>
      </trkpt>
      <trkpt lat="38.895050" lon="-5.968617">
        <ele>1252.0</ele>
        <time>2019-05-04T14:11:51Z</time>
      </trkpt>
      <trkpt lat="38.895033" lon="-5.968483">
        <ele>1248.0</ele>
        <time>2019-05-04T14:11:52Z</time>
      </trkpt>
      <trkpt lat="38.894983" lon="-5.968333">
        <ele>1243.0</ele>
        <time>2019-05-04T14:11:53Z</time>
      </trkpt>
      <trkpt lat="38.894950" lon="-5.968183">
        <ele>1238.0</ele>
        <time>2019-05-04T14:11:54Z</time>
      </trkpt>
      <trkpt lat="38.894917" lon="-5.968050">
        <ele>1234.0</ele>
        <time>2019-05-04T14:11:55Z</time>
      </trkpt>
      <trkpt lat="38.894867" lon="-5.967917">
        <ele>1230.0</ele>
        <time>2019-05-04T14:11:56Z</time>
      </trkpt>
      <trkpt lat="38.894833" lon="-5.967800">
        <ele>1227.0</ele>
        <time>2019-05-04T14:11:57Z</time>
      </trkpt>
      <trkpt lat="38.894800" lon="-5.967700">
        <ele>1223.0</ele>
        <time>2019-05-04T14:11:58Z</time>
      </trkpt>
      <trkpt lat="38.894750" lon="-5.967583">
        <ele>1219.0</ele>
        <time>2019-05-04T14:11:59Z</time>
      </trkpt>
      <trkpt lat="38.894717" lon="-5.967450">
        <ele>1214.0</ele>
        <time>2019-05-04T14:12:00Z</time>
      </trkpt>
      <trkpt lat="38.894683" lon="-5.967317">
        <ele>1208.0</ele>
        <time>2019-05-04T14:12:01Z</time>
      </trkpt>
      <trkpt lat="38.894633" lon="-5.967200">
        <ele>1202.0</ele>
        <time>2019-05-04T14:12:02Z</time>
      </trkpt>
      <trkpt lat="38.894583" lon="-5.967067">
        <ele>1197.0</ele>
        <time>2019-05-04T14:12:03Z</time>
      </trkpt>
      <trkpt lat="38.894550" lon="-5.966950">
        <ele>1192.0</ele>
        <time>2019-05-04T14:12:04Z</time>
      </trkpt>
      <trkpt lat="38.894517" lon="-5.966817">
        <ele>1187.0</ele>
        <time>2019-05-04T14:12:05Z</time>
      </trkpt>
      <trkpt lat="38.894467" lon="-5.966683">
        <ele>1182.0</ele>
        <time>2019-05-04T14:12:06Z</time>
      </trkpt>
      <trkpt lat="38.894417" lon="-5.966550">
        <ele>1176.0</ele>
        <time>2019-05-04T14:12:07Z</time>
      </trkpt>
      <trkpt lat="38.894350" lon="-5.966417">
        <ele>1171.0</ele>
        <time>2019-05-04T14:12:08Z</time>
      </trkpt>
      <trkpt lat="38.894283" lon="-5.966283">
        <ele>1167.0</ele>
        <time>2019-05-04T14:12:09Z</time>
      </trkpt>
      <trkpt lat="38.894200" lon="-5.966183">
        <ele>1162.0</ele>
        <time>2019-05-04T14:12:10Z</time>
      </trkpt>
      <trkpt lat="38.894117" lon="-5.966083">
        <ele>1158.0</ele>
        <time>2019-05-04T14:12:11Z</time>
      </trkpt>
      <trkpt lat="38.894033" lon="-5.965967">
        <ele>1155.0</ele>
        <time>2019-05-04T14:12:12Z</time>
      </trkpt>
      <trkpt lat="38.893933" lon="-5.965867">
        <ele>1151.0</ele>
        <time>2019-05-04T14:12:13Z</time>
      </trkpt>
      <trkpt lat="38.893833" lon="-5.965767">
        <ele>1147.0</ele>
        <time>2019-05-04T14:12:14Z</time>
      </trkpt>
      <trkpt lat="38.893733" lon="-5.965683">
        <ele>1144.0</ele>
        <time>2019-05-04T14:12:15Z</time>
      </trkpt>
      <trkpt lat="38.893633" lon="-5.965617">
        <ele>1140.0</ele>
        <time>2019-05-04T14:12:16Z</time>
      </trkpt>
      <trkpt lat="38.893517" lon="-5.965533">
        <ele>1137.0</ele>
        <time>2019-05-04T14:12:17Z</time>
      </trkpt>
      <trkpt lat="38.893417" lon="-5.965433">
        <ele>1132.0</ele>
        <time>2019-05-04T14:12:18Z</time>
      </trkpt>
      <trkpt lat="38.893317" lon="-5.965333">
        <ele>1128.0</ele>
        <time>2019-05-04T14:12:19Z</time>
      </trkpt>
      <trkpt lat="38.893200" lon="-5.965233">
        <ele>1124.0</ele>
        <time>2019-05-04T14:12:20Z</time>
      </trkpt>
      <trkpt lat="38.893100" lon="-5.965150">
        <ele>1121.0</ele>
        <time>2019-05-04T14:12:21Z</time>
      </trkpt>
      <trkpt lat="38.892983" lon="-5.965083">
        <ele>1118.0</ele>
        <time>2019-05-04T14:12:22Z</time>
      </trkpt>
      <trkpt lat="38.892883" lon="-5.965017">
        <ele>1115.0</ele>
        <time>2019-05-04T14:12:23Z</time>
      </trkpt>
      <trkpt lat="38.892767" lon="-5.964950">
        <ele>1112.0</ele>
        <time>2019-05-04T14:12:24Z</time>
      </trkpt>
      <trkpt lat="38.892650" lon="-5.964883">
        <ele>1108.0</ele>
        <time>2019-05-04T14:12:25Z</time>
      </trkpt>
      <trkpt lat="38.892533" lon="-5.964817">
        <ele>1104.0</ele>
        <time>2019-05-04T14:12:26Z</time>
      </trkpt>
      <trkpt lat="38.892417" lon="-5.964750">
        <ele>1100.0</ele>
        <time>2019-05-04T14:12:27Z</time>
      </trkpt>
      <trkpt lat="38.892300" lon="-5.964683">
        <ele>1097.0</ele>
        <time>2019-05-04T14:12:28Z</time>
      </trkpt>
      <trkpt lat="38.892200" lon="-5.964600">
        <ele>1093.0</ele>
        <time>2019-05-04T14:12:29Z</time>
      </trkpt>
      <trkpt lat="38.892083" lon="-5.964517">
        <ele>1090.0</ele>
        <time>2019-05-04T14:12:30Z</time>
      </trkpt>
      <trkpt lat="38.891983" lon="-5.964433">
        <ele>1088.0</ele>
        <time>2019-05-04T14:12:31Z</time>
      </trkpt>
      <trkpt lat="38.891883" lon="-5.964350">
        <ele>1084.0</ele>
        <time>2019-05-04T14:12:32Z</time>
      </trkpt>
      <trkpt lat="38.891767" lon="-5.964267">
        <ele>1081.0</ele>
        <time>2019-05-04T14:12:33Z</time>
      </trkpt>
      <trkpt lat="38.891667" lon="-5.964183">
        <ele>1078.0</ele>
        <time>2019-05-04T14:12:34Z</time>
      </trkpt>
      <trkpt lat="38.891567" lon="-5.964100">
        <ele>1075.0</ele>
        <time>2019-05-04T14:12:35Z</time>
      </trkpt>
      <trkpt lat="38.891467" lon="-5.964017">
        <ele>1072.0</ele>
        <time>2019-05-04T14:12:36Z</time>
      </trkpt>
      <trkpt lat="38.891383" lon="-5.963950">
        <ele>1069.0</ele>
        <time>2019-05-04T14:12:37Z</time>
      </trkpt>
      <trkpt lat="38.891300" lon="-5.963867">
        <ele>1066.0</ele>
        <time>2019-05-04T14:12:38Z</time>
      </trkpt>
      <trkpt lat="38.891217" lon="-5.963800">
        <ele>1063.0</ele>
        <time>2019-05-04T14:12:39Z</time>
      </trkpt>
      <trkpt lat="38.891150" lon="-5.963733">
        <ele>1059.0</ele>
        <time>2019-05-04T14:12:40Z</time>
      </trkpt>
      <trkpt lat="38.891067" lon="-5.963667">
        <ele>1055.0</ele>
        <time>2019-05-04T14:12:41Z</time>
      </trkpt>
      <trkpt lat="38.890983" lon="-5.963583">
        <ele>1048.0</ele>
        <time>2019-05-04T14:12:42Z</time>
      </trkpt>
      <trkpt lat="38.890883" lon="-5.963483">
        <ele>1042.0</ele>
        <time>2019-05-04T14:12:43Z</time>
      </trkpt>
      <trkpt lat="38.890800" lon="-5.963400">
        <ele>1037.0</ele>
        <time>2019-05-04T14:12:44Z</time>
      </trkpt>
      <trkpt lat="38.890733" lon="-5.963300">
        <ele>1033.0</ele>
        <time>2019-05-04T14:12:45Z</time>
      </trkpt>
      <trkpt lat="38.890650" lon="-5.963217">
        <ele>1029.0</ele>
        <time>2019-05-04T14:12:46Z</time>
      </trkpt>
      <trkpt lat="38.890583" lon="-5.963133">
        <ele>1025.0</ele>
        <time>2019-05-04T14:12:47Z</time>
      </trkpt>
      <trkpt lat="38.890500" lon="-5.963067">
        <ele>1021.0</ele>
        <time>2019-05-04T14:12:48Z</time>
      </trkpt>
      <trkpt lat="38.890417" lon="-5.962967">
        <ele>1016.0</ele>
        <time>2019-05-04T14:12:49Z</time>
      </trkpt>
      <trkpt lat="38.890350" lon="-5.962883">
        <ele>1012.0</ele>
        <time>2019-05-04T14:12:50Z</time>
      </trkpt>
      <trkpt lat="38.890267" lon="-5.962767">
        <ele>1008.0</ele>
        <time>2019-05-04T14:12:51Z</time>
      </trkpt>
      <trkpt lat="38.890200" lon="-5.962683">
        <ele>1005.0</ele>
        <time>2019-05-04T14:12:52Z</time>
      </trkpt>
      <trkpt lat="38.890117" lon="-5.962583">
        <ele>1002.0</ele>
        <time>2019-05-04T14:12:53Z</time>
      </trkpt>
      <trkpt lat="38.890033" lon="-5.962500">
        <ele>999.0</ele>
        <time>2019-05-04T14:12:54Z</time>
      </trkpt>
      <trkpt lat="38.889967" lon="-5.962417">
        <ele>996.0</ele>
        <time>2019-05-04T14:12:55Z</time>
      </trkpt>
      <trkpt lat="38.889900" lon="-5.962333">
        <ele>993.0</ele>
        <time>2019-05-04T14:12:56Z</time>
      </trkpt>
      <trkpt lat="38.889817" lon="-5.962233">
        <ele>990.0</ele>
        <time>2019-05-04T14:12:57Z</time>
      </trkpt>
      <trkpt lat="38.889750" lon="-5.962150">
        <ele>986.0</ele>
        <time>2019-05-04T14:12:58Z</time>
      </trkpt>
      <trkpt lat="38.889667" lon="-5.962067">
        <ele>982.0</ele>
        <time>2019-05-04T14:12:59Z</time>
      </trkpt>
      <trkpt lat="38.889583" lon="-5.962000">
        <ele>978.0</ele>
        <time>2019-05-04T14:13:00Z</time>
      </trkpt>
      <trkpt lat="38.889500" lon="-5.961900">
        <ele>974.0</ele>
        <time>2019-05-04T14:13:01Z</time>
      </trkpt>
      <trkpt lat="38.889433" lon="-5.961800">
        <ele>971.0</ele>
        <time>2019-05-04T14:13:02Z</time>
      </trkpt>
      <trkpt lat="38.889367" lon="-5.961700">
        <ele>967.0</ele>
        <time>2019-05-04T14:13:03Z</time>
      </trkpt>
      <trkpt lat="38.889300" lon="-5.961600">
        <ele>963.0</ele>
        <time>2019-05-04T14:13:04Z</time>
      </trkpt>
      <trkpt lat="38.889233" lon="-5.961517">
        <ele>960.0</ele>
        <time>2019-05-04T14:13:05Z</time>
      </trkpt>
      <trkpt lat="38.889150" lon="-5.961433">
        <ele>955.0</ele>
        <time>2019-05-04T14:13:06Z</time>
      </trkpt>
      <trkpt lat="38.889067" lon="-5.961333">
        <ele>950.0</ele>
        <time>2019-05-04T14:13:07Z</time>
      </trkpt>
      <trkpt lat="38.889017" lon="-5.961217">
        <ele>945.0</ele>
        <time>2019-05-04T14:13:08Z</time>
      </trkpt>
      <trkpt lat="38.888950" lon="-5.961083">
        <ele>940.0</ele>
        <time>2019-05-04T14:13:09Z</time>
      </trkpt>
      <trkpt lat="38.888900" lon="-5.960950">
        <ele>935.0</ele>
        <time>2019-05-04T14:13:10Z</time>
      </trkpt>
      <trkpt lat="38.888817" lon="-5.960850">
        <ele>932.0</ele>
        <time>2019-05-04T14:13:11Z</time>
      </trkpt>
      <trkpt lat="38.888750" lon="-5.960767">
        <ele>932.0</ele>
        <time>2019-05-04T14:13:12Z</time>
      </trkpt>
      <trkpt lat="38.888683" lon="-5.960683">
        <ele>932.0</ele>
        <time>2019-05-04T14:13:13Z</time>
      </trkpt>
      <trkpt lat="38.888617" lon="-5.960617">
        <ele>930.0</ele>
        <time>2019-05-04T14:13:14Z</time>
      </trkpt>
      <trkpt lat="38.888550" lon="-5.960533">
        <ele>927.0</ele>
        <time>2019-05-04T14:13:15Z</time>
      </trkpt>
      <trkpt lat="38.888483" lon="-5.960433">
        <ele>925.0</ele>
        <time>2019-05-04T14:13:16Z</time>
      </trkpt>
      <trkpt lat="38.888383" lon="-5.960350">
        <ele>922.0</ele>
        <time>2019-05-04T14:13:17Z</time>
      </trkpt>
      <trkpt lat="38.888317" lon="-5.960283">
        <ele>921.0</ele>
        <time>2019-05-04T14:13:18Z</time>
      </trkpt>
      <trkpt lat="38.888233" lon="-5.960233">
        <ele>920.0</ele>
        <time>2019-05-04T14:13:19Z</time>
      </trkpt>
      <trkpt lat="38.888167" lon="-5.960167">
        <ele>919.0</ele>
        <time>2019-05-04T14:13:20Z</time>
      </trkpt>
      <trkpt lat="38.888083" lon="-5.960100">
        <ele>917.0</ele>
        <time>2019-05-04T14:13:21Z</time>
      </trkpt>
      <trkpt lat="38.888000" lon="-5.960017">
        <ele>915.0</ele>
        <time>2019-05-04T14:13:22Z</time>
      </trkpt>
      <trkpt lat="38.887917" lon="-5.959933">
        <ele>913.0</ele>
        <time>2019-05-04T14:13:23Z</time>
      </trkpt>
      <trkpt lat="38.887817" lon="-5.959850">
        <ele>911.0</ele>
        <time>2019-05-04T14:13:24Z</time>
      </trkpt>
      <trkpt lat="38.887750" lon="-5.959783">
        <ele>912.0</ele>
        <time>2019-05-04T14:13:25Z</time>
      </trkpt>
      <trkpt lat="38.887667" lon="-5.959733">
        <ele>914.0</ele>
        <time>2019-05-04T14:13:26Z</time>
      </trkpt>
      <trkpt lat="38.887600" lon="-5.959667">
        <ele>915.0</ele>
        <time>2019-05-04T14:13:27Z</time>
      </trkpt>
      <trkpt lat="38.887533" lon="-5.959633">
        <ele>916.0</ele>
        <time>2019-05-04T14:13:28Z</time>
      </trkpt>
      <trkpt lat="38.887467" lon="-5.959583">
        <ele>917.0</ele>
        <time>2019-05-04T14:13:29Z</time>
      </trkpt>
      <trkpt lat="38.887383" lon="-5.959550">
        <ele>917.0</ele>
        <time>2019-05-04T14:13:30Z</time>
      </trkpt>
      <trkpt lat="38.887300" lon="-5.959517">
        <ele>918.0</ele>
        <time>2019-05-04T14:13:31Z</time>
      </trkpt>
      <trkpt lat="38.887217" lon="-5.959467">
        <ele>920.0</ele>
        <time>2019-05-04T14:13:32Z</time>
      </trkpt>
      <trkpt lat="38.887150" lon="-5.959417">
        <ele>922.0</ele>
        <time>2019-05-04T14:13:33Z</time>
      </trkpt>
      <trkpt lat="38.887083" lon="-5.959383">
        <ele>924.0</ele>
        <time>2019-05-04T14:13:34Z</time>
      </trkpt>
      <trkpt lat="38.887033" lon="-5.959367">
        <ele>925.0</ele>
        <time>2019-05-04T14:13:35Z</time>
      </trkpt>
      <trkpt lat="38.886967" lon="-5.959350">
        <ele>925.0</ele>
        <time>2019-05-04T14:13:36Z</time>
      </trkpt>
      <trkpt lat="38.886900" lon="-5.959333">
        <ele>925.0</ele>
        <time>2019-05-04T14:13:37Z</time>
      </trkpt>
      <trkpt lat="38.886833" lon="-5.959317">
        <ele>924.0</ele>
        <time>2019-05-04T14:13:38Z</time>
      </trkpt>
      <trkpt lat="38.886750" lon="-5.959317">
        <ele>924.0</ele>
        <time>2019-05-04T14:13:39Z</time>
      </trkpt>
      <trkpt lat="38.886683" lon="-5.959333">
        <ele>924.0</ele>
        <time>2019-05-04T14:13:40Z</time>
      </trkpt>
      <trkpt lat="38.886617" lon="-5.959333">
        <ele>925.0</ele>
        <time>2019-05-04T14:13:41Z</time>
      </trkpt>
      <trkpt lat="38.886550" lon="-5.959333">
        <ele>925.0</ele>
        <time>2019-05-04T14:13:42Z</time>
      </trkpt>
      <trkpt lat="38.886483" lon="-5.959333">
        <ele>926.0</ele>
        <time>2019-05-04T14:13:43Z</time>
      </trkpt>
      <trkpt lat="38.886417" lon="-5.959333">
        <ele>926.0</ele>
        <time>2019-05-04T14:13:44Z</time>
      </trkpt>
      <trkpt lat="38.886333" lon="-5.959333">
        <ele>926.0</ele>
        <time>2019-05-04T14:13:45Z</time>
      </trkpt>
      <trkpt lat="38.886267" lon="-5.959350">
        <ele>927.0</ele>
        <time>2019-05-04T14:13:46Z</time>
      </trkpt>
      <trkpt lat="38.886183" lon="-5.959367">
        <ele>928.0</ele>
        <time>2019-05-04T14:13:47Z</time>
      </trkpt>
      <trkpt lat="38.886117" lon="-5.959400">
        <ele>928.0</ele>
        <time>2019-05-04T14:13:48Z</time>
      </trkpt>
      <trkpt lat="38.886050" lon="-5.959417">
        <ele>928.0</ele>
        <time>2019-05-04T14:13:49Z</time>
      </trkpt>
      <trkpt lat="38.885983" lon="-5.959433">
        <ele>928.0</ele>
        <time>2019-05-04T14:13:50Z</time>
      </trkpt>
      <trkpt lat="38.885917" lon="-5.959467">
        <ele>928.0</ele>
        <time>2019-05-04T14:13:51Z</time>
      </trkpt>
      <trkpt lat="38.885850" lon="-5.959500">
        <ele>928.0</ele>
        <time>2019-05-04T14:13:52Z</time>
      </trkpt>
      <trkpt lat="38.885783" lon="-5.959517">
        <ele>928.0</ele>
        <time>2019-05-04T14:13:53Z</time>
      </trkpt>
      <trkpt lat="38.885700" lon="-5.959533">
        <ele>928.0</ele>
        <time>2019-05-04T14:13:54Z</time>
      </trkpt>
      <trkpt lat="38.885600" lon="-5.959550">
        <ele>928.0</ele>
        <time>2019-05-04T14:13:55Z</time>
      </trkpt>
      <trkpt lat="38.885500" lon="-5.959583">
        <ele>929.0</ele>
        <time>2019-05-04T14:13:56Z</time>
      </trkpt>
      <trkpt lat="38.885417" lon="-5.959633">
        <ele>930.0</ele>
        <time>2019-05-04T14:13:57Z</time>
      </trkpt>
      <trkpt lat="38.885333" lon="-5.959667">
        <ele>931.0</ele>
        <time>2019-05-04T14:13:58Z</time>
      </trkpt>
      <trkpt lat="38.885250" lon="-5.959700">
        <ele>933.0</ele>
        <time>2019-05-04T14:13:59Z</time>
      </trkpt>
      <trkpt lat="38.885167" lon="-5.959717">
        <ele>935.0</ele>
        <time>2019-05-04T14:14:00Z</time>
      </trkpt>
      <trkpt lat="38.885100" lon="-5.959717">
        <ele>937.0</ele>
        <time>2019-05-04T14:14:01Z</time>
      </trkpt>
      <trkpt lat="38.885017" lon="-5.959750">
        <ele>938.0</ele>
        <time>2019-05-04T14:14:02Z</time>
      </trkpt>
      <trkpt lat="38.884950" lon="-5.959800">
        <ele>939.0</ele>
        <time>2019-05-04T14:14:03Z</time>
      </trkpt>
      <trkpt lat="38.884900" lon="-5.959900">
        <ele>939.0</ele>
        <time>2019-05-04T14:14:04Z</time>
      </trkpt>
      <trkpt lat="38.884883" lon="-5.960017">
        <ele>939.0</ele>
        <time>2019-05-04T14:14:05Z</time>
      </trkpt>
      <trkpt lat="38.884883" lon="-5.960133">
        <ele>940.0</ele>
        <time>2019-05-04T14:14:06Z</time>
      </trkpt>
      <trkpt lat="38.884900" lon="-5.960233">
        <ele>940.0</ele>
        <time>2019-05-04T14:14:07Z</time>
      </trkpt>
      <trkpt lat="38.884967" lon="-5.960317">
        <ele>941.0</ele>
        <time>2019-05-04T14:14:08Z</time>
      </trkpt>
      <trkpt lat="38.885033" lon="-5.960367">
        <ele>942.0</ele>
        <time>2019-05-04T14:14:09Z</time>
      </trkpt>
      <trkpt lat="38.885117" lon="-5.960400">
        <ele>942.0</ele>
        <time>2019-05-04T14:14:10Z</time>
      </trkpt>
      <trkpt lat="38.885200" lon="-5.960383">
        <ele>942.0</ele>
        <time>2019-05-04T14:14:11Z</time>
      </trkpt>
      <trkpt lat="38.885283" lon="-5.960333">
        <ele>943.0</ele>
        <time>2019-05-04T14:14:12Z</time>
      </trkpt>
      <trkpt lat="38.885317" lon="-5.960250">
        <ele>944.0</ele>
        <time>2019-05-04T14:14:13Z</time>
      </trkpt>
      <trkpt lat="38.885333" lon="-5.960133">
        <ele>945.0</ele>
        <time>2019-05-04T14:14:14Z</time>
      </trkpt>
      <trkpt lat="38.885300" lon="-5.960033">
        <ele>946.0</ele>
        <time>2019-05-04T14:14:15Z</time>
      </trkpt>
      <trkpt lat="38.885233" lon="-5.959967">
        <ele>949.0</ele>
        <time>2019-05-04T14:14:16Z</time>
      </trkpt>
      <trkpt lat="38.885150" lon="-5.959950">
        <ele>950.0</ele>
        <time>2019-05-04T14:14:17Z</time>
      </trkpt>
      <trkpt lat="38.885083" lon="-5.959967">
        <ele>952.0</ele>
        <time>2019-05-04T14:14:18Z</time>
      </trkpt>
      <trkpt lat="38.885000" lon="-5.960017">
        <ele>951.0</ele>
        <time>2019-05-04T14:14:19Z</time>
      </trkpt>
      <trkpt lat="38.884950" lon="-5.960100">
        <ele>951.0</ele>
        <time>2019-05-04T14:14:20Z</time>
      </trkpt>
      <trkpt lat="38.884900" lon="-5.960200">
        <ele>952.0</ele>
        <time>2019-05-04T14:14:21Z</time>
      </trkpt>
      <trkpt lat="38.884883" lon="-5.960317">
        <ele>953.0</ele>
        <time>2019-05-04T14:14:22Z</time>
      </trkpt>
      <trkpt lat="38.884900" lon="-5.960433">
        <ele>953.0</ele>
        <time>2019-05-04T14:14:23Z</time>
      </trkpt>
      <trkpt lat="38.884950" lon="-5.960533">
        <ele>953.0</ele>
        <time>2019-05-04T14:14:24Z</time>
      </trkpt>
      <trkpt lat="38.885017" lon="-5.960617">
        <ele>954.0</ele>
        <time>2019-05-04T14:14:25Z</time>
      </trkpt>
      <trkpt lat="38.885100" lon="-5.960650">
        <ele>955.0</ele>
        <time>2019-05-04T14:14:26Z</time>
      </trkpt>
      <trkpt lat="38.885183" lon="-5.960667">
        <ele>956.0</ele>
        <time>2019-05-04T14:14:27Z</time>
      </trkpt>
      <trkpt lat="38.885267" lon="-5.960650">
        <ele>956.0</ele>
        <time>2019-05-04T14:14:28Z</time>
      </trkpt>
      <trkpt lat="38.885350" lon="-5.960600">
        <ele>957.0</ele>
        <time>2019-05-04T14:14:29Z</time>
      </trkpt>
      <trkpt lat="38.885400" lon="-5.960517">
        <ele>957.0</ele>
        <time>2019-05-04T14:14:30Z</time>
      </trkpt>
      <trkpt lat="38.885433" lon="-5.960433">
        <ele>958.0</ele>
        <time>2019-05-04T14:14:31Z</time>
      </trkpt>
      <trkpt lat="38.885433" lon="-5.960317">
        <ele>960.0</ele>
        <time>2019-05-04T14:14:32Z</time>
      </trkpt>
      <trkpt lat="38.885400" lon="-5.960233">
        <ele>962.0</ele>
        <time>2019-05-04T14:14:33Z</time>
      </trkpt>
      <trkpt lat="38.885333" lon="-5.960167">
        <ele>963.0</ele>
        <time>2019-05-04T14:14:34Z</time>
      </trkpt>
      <trkpt lat="38.885267" lon="-5.960150">
        <ele>966.0</ele>
        <time>2019-05-04T14:14:35Z</time>
      </trkpt>
      <trkpt lat="38.885183" lon="-5.960183">
        <ele>967.0</ele>
        <time>2019-05-04T14:14:36Z</time>
      </trkpt>
      <trkpt lat="38.885117" lon="-5.960250">
        <ele>968.0</ele>
        <time>2019-05-04T14:14:37Z</time>
      </trkpt>
      <trkpt lat="38.885067" lon="-5.960333">
        <ele>970.0</ele>
        <time>2019-05-04T14:14:38Z</time>
      </trkpt>
      <trkpt lat="38.885033" lon="-5.960433">
        <ele>971.0</ele>
        <time>2019-05-04T14:14:39Z</time>
      </trkpt>
      <trkpt lat="38.885017" lon="-5.960567">
        <ele>972.0</ele>
        <time>2019-05-04T14:14:40Z</time>
      </trkpt>
      <trkpt lat="38.885050" lon="-5.960683">
        <ele>972.0</ele>
        <time>2019-05-04T14:14:41Z</time>
      </trkpt>
      <trkpt lat="38.885100" lon="-5.960783">
        <ele>971.0</ele>
        <time>2019-05-04T14:14:42Z</time>
      </trkpt>
      <trkpt lat="38.885183" lon="-5.960867">
        <ele>972.0</ele>
        <time>2019-05-04T14:14:43Z</time>
      </trkpt>
      <trkpt lat="38.885267" lon="-5.960900">
        <ele>972.0</ele>
        <time>2019-05-04T14:14:44Z</time>
      </trkpt>
      <trkpt lat="38.885350" lon="-5.960883">
        <ele>972.0</ele>
        <time>2019-05-04T14:14:45Z</time>
      </trkpt>
      <trkpt lat="38.885417" lon="-5.960850">
        <ele>972.0</ele>
        <time>2019-05-04T14:14:46Z</time>
      </trkpt>
      <trkpt lat="38.885467" lon="-5.960783">
        <ele>973.0</ele>
        <time>2019-05-04T14:14:47Z</time>
      </trkpt>
      <trkpt lat="38.885500" lon="-5.960717">
        <ele>974.0</ele>
        <time>2019-05-04T14:14:48Z</time>
      </trkpt>
      <trkpt lat="38.885533" lon="-5.960633">
        <ele>975.0</ele>
        <time>2019-05-04T14:14:49Z</time>
      </trkpt>
      <trkpt lat="38.885567" lon="-5.960550">
        <ele>976.0</ele>
        <time>2019-05-04T14:14:50Z</time>
      </trkpt>
      <trkpt lat="38.885567" lon="-5.960467">
        <ele>978.0</ele>
        <time>2019-05-04T14:14:51Z</time>
      </trkpt>
      <trkpt lat="38.885550" lon="-5.960383">
        <ele>980.0</ele>
        <time>2019-05-04T14:14:52Z</time>
      </trkpt>
      <trkpt lat="38.885500" lon="-5.960300">
        <ele>982.0</ele>
        <time>2019-05-04T14:14:53Z</time>
      </trkpt>
      <trkpt lat="38.885450" lon="-5.960250">
        <ele>986.0</ele>
        <time>2019-05-04T14:14:54Z</time>
      </trkpt>
      <trkpt lat="38.885367" lon="-5.960233">
        <ele>989.0</ele>
        <time>2019-05-04T14:14:55Z</time>
      </trkpt>
      <trkpt lat="38.885283" lon="-5.960267">
        <ele>992.0</ele>
        <time>2019-05-04T14:14:56Z</time>
      </trkpt>
      <trkpt lat="38.885217" lon="-5.960350">
        <ele>994.0</ele>
        <time>2019-05-04T14:14:57Z</time>
      </trkpt>
      <trkpt lat="38.885150" lon="-5.960450">
        <ele>996.0</ele>
        <time>2019-05-04T14:14:58Z</time>
      </trkpt>
      <trkpt lat="38.885150" lon="-5.960583">
        <ele>998.0</ele>
        <time>2019-05-04T14:14:59Z</time>
      </trkpt>
      <trkpt lat="38.885167" lon="-5.960700">
        <ele>1000.0</ele>
        <time>2019-05-04T14:15:00Z</time>
      </trkpt>
      <trkpt lat="38.885217" lon="-5.960783">
        <ele>1001.0</ele>
        <time>2019-05-04T14:15:01Z</time>
      </trkpt>
      <trkpt lat="38.885300" lon="-5.960850">
        <ele>1002.0</ele>
        <time>2019-05-04T14:15:02Z</time>
      </trkpt>
      <trkpt lat="38.885383" lon="-5.960850">
        <ele>1002.0</ele>
        <time>2019-05-04T14:15:03Z</time>
      </trkpt>
      <trkpt lat="38.885467" lon="-5.960817">
        <ele>1001.0</ele>
        <time>2019-05-04T14:15:04Z</time>
      </trkpt>
      <trkpt lat="38.885533" lon="-5.960750">
        <ele>1002.0</ele>
        <time>2019-05-04T14:15:05Z</time>
      </trkpt>
      <trkpt lat="38.885600" lon="-5.960667">
        <ele>1003.0</ele>
        <time>2019-05-04T14:15:06Z</time>
      </trkpt>
      <trkpt lat="38.885650" lon="-5.960617">
        <ele>1005.0</ele>
        <time>2019-05-04T14:15:07Z</time>
      </trkpt>
      <trkpt lat="38.885700" lon="-5.960550">
        <ele>1008.0</ele>
        <time>2019-05-04T14:15:08Z</time>
      </trkpt>
      <trkpt lat="38.885750" lon="-5.960500">
        <ele>1010.0</ele>
        <time>2019-05-04T14:15:09Z</time>
      </trkpt>
      <trkpt lat="38.885783" lon="-5.960433">
        <ele>1012.0</ele>
        <time>2019-05-04T14:15:10Z</time>
      </trkpt>
      <trkpt lat="38.885800" lon="-5.960333">
        <ele>1013.0</ele>
        <time>2019-05-04T14:15:11Z</time>
      </trkpt>
      <trkpt lat="38.885767" lon="-5.960233">
        <ele>1014.0</ele>
        <time>2019-05-04T14:15:12Z</time>
      </trkpt>
      <trkpt lat="38.885717" lon="-5.960150">
        <ele>1016.0</ele>
        <time>2019-05-04T14:15:13Z</time>
      </trkpt>
      <trkpt lat="38.885633" lon="-5.960117">
        <ele>1019.0</ele>
        <time>2019-05-04T14:15:14Z</time>
      </trkpt>
      <trkpt lat="38.885550" lon="-5.960133">
        <ele>1021.0</ele>
        <time>2019-05-04T14:15:15Z</time>
      </trkpt>
      <trkpt lat="38.885483" lon="-5.960167">
        <ele>1024.0</ele>
        <time>2019-05-04T14:15:16Z</time>
      </trkpt>
      <trkpt lat="38.885433" lon="-5.960250">
        <ele>1028.0</ele>
        <time>2019-05-04T14:15:17Z</time>
      </trkpt>
      <trkpt lat="38.885433" lon="-5.960367">
        <ele>1032.0</ele>
        <time>2019-05-04T14:15:18Z</time>
      </trkpt>
      <trkpt lat="38.885450" lon="-5.960467">
        <ele>1035.0</ele>
        <time>2019-05-04T14:15:19Z</time>
      </trkpt>
      <trkpt lat="38.885500" lon="-5.960567">
        <ele>1037.0</ele>
        <time>2019-05-04T14:15:20Z</time>
      </trkpt>
      <trkpt lat="38.885583" lon="-5.960633">
        <ele>1040.0</ele>
        <time>2019-05-04T14:15:21Z</time>
      </trkpt>
      <trkpt lat="38.885667" lon="-5.960667">
        <ele>1043.0</ele>
        <time>2019-05-04T14:15:22Z</time>
      </trkpt>
      <trkpt lat="38.885750" lon="-5.960683">
        <ele>1045.0</ele>
        <time>2019-05-04T14:15:23Z</time>
      </trkpt>
      <trkpt lat="38.885817" lon="-5.960650">
        <ele>1047.0</ele>
        <time>2019-05-04T14:15:24Z</time>
      </trkpt>
      <trkpt lat="38.885883" lon="-5.960583">
        <ele>1049.0</ele>
        <time>2019-05-04T14:15:25Z</time>
      </trkpt>
      <trkpt lat="38.885917" lon="-5.960483">
        <ele>1051.0</ele>
        <time>2019-05-04T14:15:26Z</time>
      </trkpt>
      <trkpt lat="38.885933" lon="-5.960383">
        <ele>1053.0</ele>
        <time>2019-05-04T14:15:27Z</time>
      </trkpt>
      <trkpt lat="38.885900" lon="-5.960300">
        <ele>1055.0</ele>
        <time>2019-05-04T14:15:28Z</time>
      </trkpt>
      <trkpt lat="38.885867" lon="-5.960250">
        <ele>1059.0</ele>
        <time>2019-05-04T14:15:29Z</time>
      </trkpt>
      <trkpt lat="38.885800" lon="-5.960217">
        <ele>1062.0</ele>
        <time>2019-05-04T14:15:30Z</time>
      </trkpt>
      <trkpt lat="38.885733" lon="-5.960200">
        <ele>1064.0</ele>
        <time>2019-05-04T14:15:31Z</time>
      </trkpt>
      <trkpt lat="38.885667" lon="-5.960217">
        <ele>1066.0</ele>
        <time>2019-05-04T14:15:32Z</time>
      </trkpt>
      <trkpt lat="38.885600" lon="-5.960267">
        <ele>1068.0</ele>
        <time>2019-05-04T14:15:33Z</time>
      </trkpt>
      <trkpt lat="38.885550" lon="-5.960350">
        <ele>1070.0</ele>
        <time>2019-05-04T14:15:34Z</time>
      </trkpt>
      <trkpt lat="38.885533" lon="-5.960467">
        <ele>1072.0</ele>
        <time>2019-05-04T14:15:35Z</time>
      </trkpt>
      <trkpt lat="38.885550" lon="-5.960583">
        <ele>1073.0</ele>
        <time>2019-05-04T14:15:36Z</time>
      </trkpt>
      <trkpt lat="38.885600" lon="-5.960683">
        <ele>1076.0</ele>
        <time>2019-05-04T14:15:37Z</time>
      </trkpt>
      <trkpt lat="38.885650" lon="-5.960767">
        <ele>1079.0</ele>
        <time>2019-05-04T14:15:38Z</time>
      </trkpt>
      <trkpt lat="38.885733" lon="-5.960817">
        <ele>1082.0</ele>
        <time>2019-05-04T14:15:39Z</time>
      </trkpt>
      <trkpt lat="38.885817" lon="-5.960850">
        <ele>1084.0</ele>
        <time>2019-05-04T14:15:40Z</time>
      </trkpt>
      <trkpt lat="38.885900" lon="-5.960833">
        <ele>1086.0</ele>
        <time>2019-05-04T14:15:41Z</time>
      </trkpt>
      <trkpt lat="38.885983" lon="-5.960800">
        <ele>1087.0</ele>
        <time>2019-05-04T14:15:42Z</time>
      </trkpt>
      <trkpt lat="38.886050" lon="-5.960733">
        <ele>1088.0</ele>
        <time>2019-05-04T14:15:43Z</time>
      </trkpt>
      <trkpt lat="38.886083" lon="-5.960633">
        <ele>1090.0</ele>
        <time>2019-05-04T14:15:44Z</time>
      </trkpt>
      <trkpt lat="38.886100" lon="-5.960533">
        <ele>1092.0</ele>
        <time>2019-05-04T14:15:45Z</time>
      </trkpt>
      <trkpt lat="38.886083" lon="-5.960450">
        <ele>1095.0</ele>
        <time>2019-05-04T14:15:46Z</time>
      </trkpt>
      <trkpt lat="38.886067" lon="-5.960383">
        <ele>1099.0</ele>
        <time>2019-05-04T14:15:47Z</time>
      </trkpt>
      <trkpt lat="38.886050" lon="-5.960333">
        <ele>1103.0</ele>
        <time>2019-05-04T14:15:48Z</time>
      </trkpt>
      <trkpt lat="38.886017" lon="-5.960283">
        <ele>1105.0</ele>
        <time>2019-05-04T14:15:49Z</time>
      </trkpt>
      <trkpt lat="38.885967" lon="-5.960250">
        <ele>1107.0</ele>
        <time>2019-05-04T14:15:50Z</time>
      </trkpt>
      <trkpt lat="38.885900" lon="-5.960233">
        <ele>1107.0</ele>
        <time>2019-05-04T14:15:51Z</time>
      </trkpt>
      <trkpt lat="38.885833" lon="-5.960267">
        <ele>1108.0</ele>
        <time>2019-05-04T14:15:52Z</time>
      </trkpt>
      <trkpt lat="38.885783" lon="-5.960350">
        <ele>1108.0</ele>
        <time>2019-05-04T14:15:53Z</time>
      </trkpt>
      <trkpt lat="38.885750" lon="-5.960450">
        <ele>1110.0</ele>
        <time>2019-05-04T14:15:54Z</time>
      </trkpt>
      <trkpt lat="38.885750" lon="-5.960567">
        <ele>1112.0</ele>
        <time>2019-05-04T14:15:55Z</time>
      </trkpt>
      <trkpt lat="38.885800" lon="-5.960683">
        <ele>1114.0</ele>
        <time>2019-05-04T14:15:56Z</time>
      </trkpt>
      <trkpt lat="38.885850" lon="-5.960767">
        <ele>1116.0</ele>
        <time>2019-05-04T14:15:57Z</time>
      </trkpt>
      <trkpt lat="38.885933" lon="-5.960833">
        <ele>1118.0</ele>
        <time>2019-05-04T14:15:58Z</time>
      </trkpt>
      <trkpt lat="38.886017" lon="-5.960883">
        <ele>1119.0</ele>
        <time>2019-05-04T14:15:59Z</time>
      </trkpt>
      <trkpt lat="38.886100" lon="-5.960883">
        <ele>1121.0</ele>
        <time>2019-05-04T14:16:00Z</time>
      </trkpt>
      <trkpt lat="38.886183" lon="-5.960850">
        <ele>1122.0</ele>
        <time>2019-05-04T14:16:01Z</time>
      </trkpt>
      <trkpt lat="38.886267" lon="-5.960783">
        <ele>1123.0</ele>
        <time>2019-05-04T14:16:02Z</time>
      </trkpt>
      <trkpt lat="38.886317" lon="-5.960700">
        <ele>1124.0</ele>
        <time>2019-05-04T14:16:03Z</time>
      </trkpt>
      <trkpt lat="38.886317" lon="-5.960617">
        <ele>1126.0</ele>
        <time>2019-05-04T14:16:04Z</time>
      </trkpt>
      <trkpt lat="38.886283" lon="-5.960550">
        <ele>1128.0</ele>
        <time>2019-05-04T14:16:05Z</time>
      </trkpt>
      <trkpt lat="38.886233" lon="-5.960517">
        <ele>1129.0</ele>
        <time>2019-05-04T14:16:06Z</time>
      </trkpt>
      <trkpt lat="38.886167" lon="-5.960500">
        <ele>1130.0</ele>
        <time>2019-05-04T14:16:07Z</time>
      </trkpt>
      <trkpt lat="38.886100" lon="-5.960517">
        <ele>1133.0</ele>
        <time>2019-05-04T14:16:08Z</time>
      </trkpt>
      <trkpt lat="38.886050" lon="-5.960550">
        <ele>1134.0</ele>
        <time>2019-05-04T14:16:09Z</time>
      </trkpt>
      <trkpt lat="38.886000" lon="-5.960633">
        <ele>1135.0</ele>
        <time>2019-05-04T14:16:10Z</time>
      </trkpt>
      <trkpt lat="38.885967" lon="-5.960750">
        <ele>1137.0</ele>
        <time>2019-05-04T14:16:11Z</time>
      </trkpt>
      <trkpt lat="38.885967" lon="-5.960867">
        <ele>1138.0</ele>
        <time>2019-05-04T14:16:12Z</time>
      </trkpt>
      <trkpt lat="38.886000" lon="-5.960983">
        <ele>1139.0</ele>
        <time>2019-05-04T14:16:13Z</time>
      </trkpt>
      <trkpt lat="38.886083" lon="-5.961050">
        <ele>1140.0</ele>
        <time>2019-05-04T14:16:14Z</time>
      </trkpt>
      <trkpt lat="38.886167" lon="-5.961117">
        <ele>1141.0</ele>
        <time>2019-05-04T14:16:15Z</time>
      </trkpt>
      <trkpt lat="38.886250" lon="-5.961150">
        <ele>1142.0</ele>
        <time>2019-05-04T14:16:16Z</time>
      </trkpt>
      <trkpt lat="38.886317" lon="-5.961167">
        <ele>1144.0</ele>
        <time>2019-05-04T14:16:17Z</time>
      </trkpt>
      <trkpt lat="38.886400" lon="-5.961167">
        <ele>1145.0</ele>
        <time>2019-05-04T14:16:18Z</time>
      </trkpt>
      <trkpt lat="38.886483" lon="-5.961150">
        <ele>1145.0</ele>
        <time>2019-05-04T14:16:19Z</time>
      </trkpt>
      <trkpt lat="38.886567" lon="-5.961117">
        <ele>1146.0</ele>
        <time>2019-05-04T14:16:20Z</time>
      </trkpt>
      <trkpt lat="38.886633" lon="-5.961067">
        <ele>1147.0</ele>
        <time>2019-05-04T14:16:21Z</time>
      </trkpt>
      <trkpt lat="38.886667" lon="-5.961000">
        <ele>1148.0</ele>
        <time>2019-05-04T14:16:22Z</time>
      </trkpt>
      <trkpt lat="38.886700" lon="-5.960933">
        <ele>1150.0</ele>
        <time>2019-05-04T14:16:23Z</time>
      </trkpt>
      <trkpt lat="38.886733" lon="-5.960867">
        <ele>1152.0</ele>
        <time>2019-05-04T14:16:24Z</time>
      </trkpt>
      <trkpt lat="38.886733" lon="-5.960800">
        <ele>1153.0</ele>
        <time>2019-05-04T14:16:25Z</time>
      </trkpt>
      <trkpt lat="38.886717" lon="-5.960717">
        <ele>1153.0</ele>
        <time>2019-05-04T14:16:26Z</time>
      </trkpt>
      <trkpt lat="38.886683" lon="-5.960650">
        <ele>1154.0</ele>
        <time>2019-05-04T14:16:27Z</time>
      </trkpt>
      <trkpt lat="38.886633" lon="-5.960600">
        <ele>1155.0</ele>
        <time>2019-05-04T14:16:28Z</time>
      </trkpt>
      <trkpt lat="38.886583" lon="-5.960583">
        <ele>1158.0</ele>
        <time>2019-05-04T14:16:29Z</time>
      </trkpt>
      <trkpt lat="38.886533" lon="-5.960583">
        <ele>1161.0</ele>
        <time>2019-05-04T14:16:30Z</time>
      </trkpt>
      <trkpt lat="38.886500" lon="-5.960600">
        <ele>1163.0</ele>
        <time>2019-05-04T14:16:31Z</time>
      </trkpt>
      <trkpt lat="38.886450" lon="-5.960617">
        <ele>1164.0</ele>
        <time>2019-05-04T14:16:32Z</time>
      </trkpt>
      <trkpt lat="38.886383" lon="-5.960700">
        <ele>1165.0</ele>
        <time>2019-05-04T14:16:33Z</time>
      </trkpt>
      <trkpt lat="38.886333" lon="-5.960800">
        <ele>1166.0</ele>
        <time>2019-05-04T14:16:34Z</time>
      </trkpt>
      <trkpt lat="38.886317" lon="-5.960933">
        <ele>1166.0</ele>
        <time>2019-05-04T14:16:35Z</time>
      </trkpt>
      <trkpt lat="38.886333" lon="-5.961067">
        <ele>1166.0</ele>
        <time>2019-05-04T14:16:36Z</time>
      </trkpt>
      <trkpt lat="38.886367" lon="-5.961183">
        <ele>1166.0</ele>
        <time>2019-05-04T14:16:37Z</time>
      </trkpt>
      <trkpt lat="38.886433" lon="-5.961300">
        <ele>1167.0</ele>
        <time>2019-05-04T14:16:38Z</time>
      </trkpt>
      <trkpt lat="38.886500" lon="-5.961383">
        <ele>1168.0</ele>
        <time>2019-05-04T14:16:39Z</time>
      </trkpt>
      <trkpt lat="38.886567" lon="-5.961433">
        <ele>1169.0</ele>
        <time>2019-05-04T14:16:40Z</time>
      </trkpt>
      <trkpt lat="38.886667" lon="-5.961467">
        <ele>1169.0</ele>
        <time>2019-05-04T14:16:41Z</time>
      </trkpt>
      <trkpt lat="38.886750" lon="-5.961483">
        <ele>1169.0</ele>
        <time>2019-05-04T14:16:42Z</time>
      </trkpt>
      <trkpt lat="38.886850" lon="-5.961483">
        <ele>1171.0</ele>
        <time>2019-05-04T14:16:43Z</time>
      </trkpt>
      <trkpt lat="38.886917" lon="-5.961433">
        <ele>1172.0</ele>
        <time>2019-05-04T14:16:44Z</time>
      </trkpt>
      <trkpt lat="38.886950" lon="-5.961383">
        <ele>1172.0</ele>
        <time>2019-05-04T14:16:45Z</time>
      </trkpt>
      <trkpt lat="38.886967" lon="-5.961300">
        <ele>1172.0</ele>
        <time>2019-05-04T14:16:46Z</time>
      </trkpt>
      <trkpt lat="38.886950" lon="-5.961233">
        <ele>1172.0</ele>
        <time>2019-05-04T14:16:47Z</time>
      </trkpt>
      <trkpt lat="38.886917" lon="-5.961200">
        <ele>1173.0</ele>
        <time>2019-05-04T14:16:48Z</time>
      </trkpt>
      <trkpt lat="38.886867" lon="-5.961167">
        <ele>1174.0</ele>
        <time>2019-05-04T14:16:49Z</time>
      </trkpt>
      <trkpt lat="38.886817" lon="-5.961167">
        <ele>1176.0</ele>
        <time>2019-05-04T14:16:50Z</time>
      </trkpt>
      <trkpt lat="38.886783" lon="-5.961150">
        <ele>1177.0</ele>
        <time>2019-05-04T14:16:51Z</time>
      </trkpt>
      <trkpt lat="38.886733" lon="-5.961150">
        <ele>1178.0</ele>
        <time>2019-05-04T14:16:52Z</time>
      </trkpt>
      <trkpt lat="38.886700" lon="-5.961167">
        <ele>1179.0</ele>
        <time>2019-05-04T14:16:53Z</time>
      </trkpt>
      <trkpt lat="38.886617" lon="-5.961217">
        <ele>1178.0</ele>
        <time>2019-05-04T14:16:54Z</time>
      </trkpt>
      <trkpt lat="38.886550" lon="-5.961300">
        <ele>1176.0</ele>
        <time>2019-05-04T14:16:55Z</time>
      </trkpt>
      <trkpt lat="38.886500" lon="-5.961400">
        <ele>1176.0</ele>
        <time>2019-05-04T14:16:56Z</time>
      </trkpt>
      <trkpt lat="38.886467" lon="-5.961517">
        <ele>1176.0</ele>
        <time>2019-05-04T14:16:57Z</time>
      </trkpt>
      <trkpt lat="38.886467" lon="-5.961650">
        <ele>1176.0</ele>
        <time>2019-05-04T14:16:58Z</time>
      </trkpt>
      <trkpt lat="38.886500" lon="-5.961767">
        <ele>1176.0</ele>
        <time>2019-05-04T14:16:59Z</time>
      </trkpt>
      <trkpt lat="38.886550" lon="-5.961900">
        <ele>1175.0</ele>
        <time>2019-05-04T14:17:00Z</time>
      </trkpt>
      <trkpt lat="38.886617" lon="-5.962000">
        <ele>1176.0</ele>
        <time>2019-05-04T14:17:01Z</time>
      </trkpt>
      <trkpt lat="38.886683" lon="-5.962050">
        <ele>1177.0</ele>
        <time>2019-05-04T14:17:02Z</time>
      </trkpt>
      <trkpt lat="38.886767" lon="-5.962067">
        <ele>1177.0</ele>
        <time>2019-05-04T14:17:03Z</time>
      </trkpt>
      <trkpt lat="38.886850" lon="-5.962033">
        <ele>1177.0</ele>
        <time>2019-05-04T14:17:04Z</time>
      </trkpt>
      <trkpt lat="38.886900" lon="-5.961983">
        <ele>1178.0</ele>
        <time>2019-05-04T14:17:05Z</time>
      </trkpt>
      <trkpt lat="38.886900" lon="-5.961900">
        <ele>1178.0</ele>
        <time>2019-05-04T14:17:06Z</time>
      </trkpt>
      <trkpt lat="38.886867" lon="-5.961817">
        <ele>1178.0</ele>
        <time>2019-05-04T14:17:07Z</time>
      </trkpt>
      <trkpt lat="38.886800" lon="-5.961783">
        <ele>1178.0</ele>
        <time>2019-05-04T14:17:08Z</time>
      </trkpt>
      <trkpt lat="38.886733" lon="-5.961783">
        <ele>1179.0</ele>
        <time>2019-05-04T14:17:09Z</time>
      </trkpt>
      <trkpt lat="38.886667" lon="-5.961767">
        <ele>1181.0</ele>
        <time>2019-05-04T14:17:10Z</time>
      </trkpt>
      <trkpt lat="38.886617" lon="-5.961767">
        <ele>1182.0</ele>
        <time>2019-05-04T14:17:11Z</time>
      </trkpt>
      <trkpt lat="38.886567" lon="-5.961733">
        <ele>1182.0</ele>
        <time>2019-05-04T14:17:12Z</time>
      </trkpt>
      <trkpt lat="38.886500" lon="-5.961733">
        <ele>1181.0</ele>
        <time>2019-05-04T14:17:13Z</time>
      </trkpt>
      <trkpt lat="38.886400" lon="-5.961767">
        <ele>1180.0</ele>
        <time>2019-05-04T14:17:14Z</time>
      </trkpt>
      <trkpt lat="38.886317" lon="-5.961833">
        <ele>1180.0</ele>
        <time>2019-05-04T14:17:15Z</time>
      </trkpt>
      <trkpt lat="38.886267" lon="-5.961917">
        <ele>1182.0</ele>
        <time>2019-05-04T14:17:16Z</time>
      </trkpt>
      <trkpt lat="38.886217" lon="-5.962017">
        <ele>1183.0</ele>
        <time>2019-05-04T14:17:17Z</time>
      </trkpt>
      <trkpt lat="38.886183" lon="-5.962117">
        <ele>1185.0</ele>
        <time>2019-05-04T14:17:18Z</time>
      </trkpt>
      <trkpt lat="38.886133" lon="-5.962233">
        <ele>1186.0</ele>
        <time>2019-05-04T14:17:19Z</time>
      </trkpt>
      <trkpt lat="38.886117" lon="-5.962367">
        <ele>1186.0</ele>
        <time>2019-05-04T14:17:20Z</time>
      </trkpt>
      <trkpt lat="38.886117" lon="-5.962517">
        <ele>1187.0</ele>
        <time>2019-05-04T14:17:21Z</time>
      </trkpt>
      <trkpt lat="38.886133" lon="-5.962650">
        <ele>1187.0</ele>
        <time>2019-05-04T14:17:22Z</time>
      </trkpt>
      <trkpt lat="38.886200" lon="-5.962733">
        <ele>1188.0</ele>
        <time>2019-05-04T14:17:23Z</time>
      </trkpt>
      <trkpt lat="38.886267" lon="-5.962767">
        <ele>1188.0</ele>
        <time>2019-05-04T14:17:24Z</time>
      </trkpt>
      <trkpt lat="38.886333" lon="-5.962783">
        <ele>1188.0</ele>
        <time>2019-05-04T14:17:25Z</time>
      </trkpt>
      <trkpt lat="38.886400" lon="-5.962783">
        <ele>1188.0</ele>
        <time>2019-05-04T14:17:26Z</time>
      </trkpt>
      <trkpt lat="38.886450" lon="-5.962750">
        <ele>1188.0</ele>
        <time>2019-05-04T14:17:27Z</time>
      </trkpt>
      <trkpt lat="38.886483" lon="-5.962700">
        <ele>1189.0</ele>
        <time>2019-05-04T14:17:28Z</time>
      </trkpt>
      <trkpt lat="38.886500" lon="-5.962633">
        <ele>1189.0</ele>
        <time>2019-05-04T14:17:29Z</time>
      </trkpt>
      <trkpt lat="38.886500" lon="-5.962567">
        <ele>1190.0</ele>
        <time>2019-05-04T14:17:30Z</time>
      </trkpt>
      <trkpt lat="38.886467" lon="-5.962500">
        <ele>1190.0</ele>
        <time>2019-05-04T14:17:31Z</time>
      </trkpt>
      <trkpt lat="38.886417" lon="-5.962467">
        <ele>1191.0</ele>
        <time>2019-05-04T14:17:32Z</time>
      </trkpt>
      <trkpt lat="38.886350" lon="-5.962433">
        <ele>1192.0</ele>
        <time>2019-05-04T14:17:33Z</time>
      </trkpt>
      <trkpt lat="38.886300" lon="-5.962417">
        <ele>1193.0</ele>
        <time>2019-05-04T14:17:34Z</time>
      </trkpt>
      <trkpt lat="38.886233" lon="-5.962400">
        <ele>1194.0</ele>
        <time>2019-05-04T14:17:35Z</time>
      </trkpt>
      <trkpt lat="38.886150" lon="-5.962417">
        <ele>1195.0</ele>
        <time>2019-05-04T14:17:36Z</time>
      </trkpt>
      <trkpt lat="38.886067" lon="-5.962450">
        <ele>1196.0</ele>
        <time>2019-05-04T14:17:37Z</time>
      </trkpt>
      <trkpt lat="38.885983" lon="-5.962500">
        <ele>1199.0</ele>
        <time>2019-05-04T14:17:38Z</time>
      </trkpt>
      <trkpt lat="38.885917" lon="-5.962567">
        <ele>1202.0</ele>
        <time>2019-05-04T14:17:39Z</time>
      </trkpt>
      <trkpt lat="38.885867" lon="-5.962650">
        <ele>1206.0</ele>
        <time>2019-05-04T14:17:40Z</time>
      </trkpt>
      <trkpt lat="38.885817" lon="-5.962733">
        <ele>1208.0</ele>
        <time>2019-05-04T14:17:41Z</time>
      </trkpt>
      <trkpt lat="38.885767" lon="-5.962850">
        <ele>1209.0</ele>
        <time>2019-05-04T14:17:42Z</time>
      </trkpt>
      <trkpt lat="38.885750" lon="-5.962983">
        <ele>1211.0</ele>
        <time>2019-05-04T14:17:43Z</time>
      </trkpt>
      <trkpt lat="38.885750" lon="-5.963117">
        <ele>1212.0</ele>
        <time>2019-05-04T14:17:44Z</time>
      </trkpt>
      <trkpt lat="38.885800" lon="-5.963233">
        <ele>1213.0</ele>
        <time>2019-05-04T14:17:45Z</time>
      </trkpt>
      <trkpt lat="38.885867" lon="-5.963317">
        <ele>1214.0</ele>
        <time>2019-05-04T14:17:46Z</time>
      </trkpt>
      <trkpt lat="38.885950" lon="-5.963367">
        <ele>1215.0</ele>
        <time>2019-05-04T14:17:47Z</time>
      </trkpt>
      <trkpt lat="38.886033" lon="-5.963383">
        <ele>1215.0</ele>
        <time>2019-05-04T14:17:48Z</time>
      </trkpt>
      <trkpt lat="38.886100" lon="-5.963367">
        <ele>1215.0</ele>
        <time>2019-05-04T14:17:49Z</time>
      </trkpt>
      <trkpt lat="38.886167" lon="-5.963333">
        <ele>1214.0</ele>
        <time>2019-05-04T14:17:50Z</time>
      </trkpt>
      <trkpt lat="38.886217" lon="-5.963283">
        <ele>1214.0</ele>
        <time>2019-05-04T14:17:51Z</time>
      </trkpt>
      <trkpt lat="38.886250" lon="-5.963233">
        <ele>1214.0</ele>
        <time>2019-05-04T14:17:52Z</time>
      </trkpt>
      <trkpt lat="38.886267" lon="-5.963150">
        <ele>1214.0</ele>
        <time>2019-05-04T14:17:53Z</time>
      </trkpt>
      <trkpt lat="38.886267" lon="-5.963067">
        <ele>1215.0</ele>
        <time>2019-05-04T14:17:54Z</time>
      </trkpt>
      <trkpt lat="38.886267" lon="-5.963017">
        <ele>1215.0</ele>
        <time>2019-05-04T14:17:55Z</time>
      </trkpt>
      <trkpt lat="38.886250" lon="-5.962967">
        <ele>1215.0</ele>
        <time>2019-05-04T14:17:56Z</time>
      </trkpt>
      <trkpt lat="38.886233" lon="-5.962917">
        <ele>1216.0</ele>
        <time>2019-05-04T14:17:57Z</time>
      </trkpt>
      <trkpt lat="38.886217" lon="-5.962867">
        <ele>1216.0</ele>
        <time>2019-05-04T14:17:58Z</time>
      </trkpt>
      <trkpt lat="38.886183" lon="-5.962817">
        <ele>1216.0</ele>
        <time>2019-05-04T14:17:59Z</time>
      </trkpt>
      <trkpt lat="38.886133" lon="-5.962800">
        <ele>1217.0</ele>
        <time>2019-05-04T14:18:00Z</time>
      </trkpt>
      <trkpt lat="38.886083" lon="-5.962783">
        <ele>1217.0</ele>
        <time>2019-05-04T14:18:01Z</time>
      </trkpt>
      <trkpt lat="38.886017" lon="-5.962800">
        <ele>1219.0</ele>
        <time>2019-05-04T14:18:02Z</time>
      </trkpt>
      <trkpt lat="38.885950" lon="-5.962817">
        <ele>1220.0</ele>
        <time>2019-05-04T14:18:03Z</time>
      </trkpt>
      <trkpt lat="38.885883" lon="-5.962850">
        <ele>1221.0</ele>
        <time>2019-05-04T14:18:04Z</time>
      </trkpt>
      <trkpt lat="38.885833" lon="-5.962883">
        <ele>1222.0</ele>
        <time>2019-05-04T14:18:05Z</time>
      </trkpt>
      <trkpt lat="38.885767" lon="-5.962917">
        <ele>1223.0</ele>
        <time>2019-05-04T14:18:06Z</time>
      </trkpt>
      <trkpt lat="38.885717" lon="-5.962967">
        <ele>1223.0</ele>
        <time>2019-05-04T14:18:07Z</time>
      </trkpt>
      <trkpt lat="38.885683" lon="-5.963033">
        <ele>1223.0</ele>
        <time>2019-05-04T14:18:08Z</time>
      </trkpt>
      <trkpt lat="38.885617" lon="-5.963133">
        <ele>1222.0</ele>
        <time>2019-05-04T14:18:09Z</time>
      </trkpt>
      <trkpt lat="38.885567" lon="-5.963233">
        <ele>1221.0</ele>
        <time>2019-05-04T14:18:10Z</time>
      </trkpt>
      <trkpt lat="38.885533" lon="-5.963350">
        <ele>1220.0</ele>
        <time>2019-05-04T14:18:11Z</time>
      </trkpt>
      <trkpt lat="38.885500" lon="-5.963433">
        <ele>1221.0</ele>
        <time>2019-05-04T14:18:12Z</time>
      </trkpt>
      <trkpt lat="38.885483" lon="-5.963517">
        <ele>1223.0</ele>
        <time>2019-05-04T14:18:13Z</time>
      </trkpt>
      <trkpt lat="38.885467" lon="-5.963617">
        <ele>1223.0</ele>
        <time>2019-05-04T14:18:14Z</time>
      </trkpt>
      <trkpt lat="38.885467" lon="-5.963717">
        <ele>1223.0</ele>
        <time>2019-05-04T14:18:15Z</time>
      </trkpt>
      <trkpt lat="38.885467" lon="-5.963833">
        <ele>1222.0</ele>
        <time>2019-05-04T14:18:16Z</time>
      </trkpt>
      <trkpt lat="38.885500" lon="-5.963950">
        <ele>1222.0</ele>
        <time>2019-05-04T14:18:17Z</time>
      </trkpt>
      <trkpt lat="38.885550" lon="-5.964050">
        <ele>1222.0</ele>
        <time>2019-05-04T14:18:18Z</time>
      </trkpt>
      <trkpt lat="38.885617" lon="-5.964133">
        <ele>1222.0</ele>
        <time>2019-05-04T14:18:19Z</time>
      </trkpt>
      <trkpt lat="38.885700" lon="-5.964200">
        <ele>1221.0</ele>
        <time>2019-05-04T14:18:20Z</time>
      </trkpt>
      <trkpt lat="38.885783" lon="-5.964233">
        <ele>1221.0</ele>
        <time>2019-05-04T14:18:21Z</time>
      </trkpt>
      <trkpt lat="38.885850" lon="-5.964233">
        <ele>1221.0</ele>
        <time>2019-05-04T14:18:22Z</time>
      </trkpt>
      <trkpt lat="38.885917" lon="-5.964217">
        <ele>1221.0</ele>
        <time>2019-05-04T14:18:23Z</time>
      </trkpt>
      <trkpt lat="38.885967" lon="-5.964167">
        <ele>1220.0</ele>
        <time>2019-05-04T14:18:24Z</time>
      </trkpt>
      <trkpt lat="38.886000" lon="-5.964117">
        <ele>1220.0</ele>
        <time>2019-05-04T14:18:25Z</time>
      </trkpt>
      <trkpt lat="38.886050" lon="-5.964033">
        <ele>1220.0</ele>
        <time>2019-05-04T14:18:26Z</time>
      </trkpt>
      <trkpt lat="38.886083" lon="-5.963933">
        <ele>1219.0</ele>
        <time>2019-05-04T14:18:27Z</time>
      </trkpt>
      <trkpt lat="38.886083" lon="-5.963833">
        <ele>1219.0</ele>
        <time>2019-05-04T14:18:28Z</time>
      </trkpt>
      <trkpt lat="38.886083" lon="-5.963733">
        <ele>1220.0</ele>
        <time>2019-05-04T14:18:29Z</time>
      </trkpt>
      <trkpt lat="38.886083" lon="-5.963650">
        <ele>1221.0</ele>
        <time>2019-05-04T14:18:30Z</time>
      </trkpt>
      <trkpt lat="38.886100" lon="-5.963583">
        <ele>1223.0</ele>
        <time>2019-05-04T14:18:31Z</time>
      </trkpt>
      <trkpt lat="38.886117" lon="-5.963517">
        <ele>1222.0</ele>
        <time>2019-05-04T14:18:32Z</time>
      </trkpt>
      <trkpt lat="38.886150" lon="-5.963433">
        <ele>1222.0</ele>
        <time>2019-05-04T14:18:33Z</time>
      </trkpt>
      <trkpt lat="38.886200" lon="-5.963350">
        <ele>1221.0</ele>
        <time>2019-05-04T14:18:34Z</time>
      </trkpt>
      <trkpt lat="38.886250" lon="-5.963283">
        <ele>1221.0</ele>
        <time>2019-05-04T14:18:35Z</time>
      </trkpt>
      <trkpt lat="38.886300" lon="-5.963217">
        <ele>1220.0</ele>
        <time>2019-05-04T14:18:36Z</time>
      </trkpt>
      <trkpt lat="38.886367" lon="-5.963167">
        <ele>1219.0</ele>
        <time>2019-05-04T14:18:37Z</time>
      </trkpt>
      <trkpt lat="38.886433" lon="-5.963117">
        <ele>1219.0</ele>
        <time>2019-05-04T14:18:38Z</time>
      </trkpt>
      <trkpt lat="38.886500" lon="-5.963083">
        <ele>1219.0</ele>
        <time>2019-05-04T14:18:39Z</time>
      </trkpt>
      <trkpt lat="38.886550" lon="-5.963050">
        <ele>1220.0</ele>
        <time>2019-05-04T14:18:40Z</time>
      </trkpt>
      <trkpt lat="38.886600" lon="-5.963017">
        <ele>1220.0</ele>
        <time>2019-05-04T14:18:41Z</time>
      </trkpt>
      <trkpt lat="38.886650" lon="-5.962967">
        <ele>1219.0</ele>
        <time>2019-05-04T14:18:42Z</time>
      </trkpt>
      <trkpt lat="38.886683" lon="-5.962900">
        <ele>1218.0</ele>
        <time>2019-05-04T14:18:43Z</time>
      </trkpt>
      <trkpt lat="38.886717" lon="-5.962817">
        <ele>1217.0</ele>
        <time>2019-05-04T14:18:44Z</time>
      </trkpt>
      <trkpt lat="38.886733" lon="-5.962750">
        <ele>1217.0</ele>
        <time>2019-05-04T14:18:45Z</time>
      </trkpt>
      <trkpt lat="38.886733" lon="-5.962667">
        <ele>1217.0</ele>
        <time>2019-05-04T14:18:46Z</time>
      </trkpt>
      <trkpt lat="38.886717" lon="-5.962600">
        <ele>1217.0</ele>
        <time>2019-05-04T14:18:47Z</time>
      </trkpt>
      <trkpt lat="38.886683" lon="-5.962533">
        <ele>1216.0</ele>
        <time>2019-05-04T14:18:48Z</time>
      </trkpt>
      <trkpt lat="38.886617" lon="-5.962483">
        <ele>1213.0</ele>
        <time>2019-05-04T14:18:49Z</time>
      </trkpt>
      <trkpt lat="38.886550" lon="-5.962467">
        <ele>1212.0</ele>
        <time>2019-05-04T14:18:50Z</time>
      </trkpt>
      <trkpt lat="38.886467" lon="-5.962483">
        <ele>1212.0</ele>
        <time>2019-05-04T14:18:51Z</time>
      </trkpt>
      <trkpt lat="38.886400" lon="-5.962517">
        <ele>1212.0</ele>
        <time>2019-05-04T14:18:52Z</time>
      </trkpt>
      <trkpt lat="38.886333" lon="-5.962550">
        <ele>1213.0</ele>
        <time>2019-05-04T14:18:53Z</time>
      </trkpt>
      <trkpt lat="38.886283" lon="-5.962583">
        <ele>1213.0</ele>
        <time>2019-05-04T14:18:54Z</time>
      </trkpt>
      <trkpt lat="38.886217" lon="-5.962617">
        <ele>1214.0</ele>
        <time>2019-05-04T14:18:55Z</time>
      </trkpt>
      <trkpt lat="38.886150" lon="-5.962650">
        <ele>1214.0</ele>
        <time>2019-05-04T14:18:56Z</time>
      </trkpt>
      <trkpt lat="38.886100" lon="-5.962683">
        <ele>1213.0</ele>
        <time>2019-05-04T14:18:57Z</time>
      </trkpt>
      <trkpt lat="38.886033" lon="-5.962717">
        <ele>1213.0</ele>
        <time>2019-05-04T14:18:58Z</time>
      </trkpt>
      <trkpt lat="38.885967" lon="-5.962750">
        <ele>1213.0</ele>
        <time>2019-05-04T14:18:59Z</time>
      </trkpt>
      <trkpt lat="38.885900" lon="-5.962783">
        <ele>1212.0</ele>
        <time>2019-05-04T14:19:00Z</time>
      </trkpt>
      <trkpt lat="38.885833" lon="-5.962800">
        <ele>1212.0</ele>
        <time>2019-05-04T14:19:01Z</time>
      </trkpt>
      <trkpt lat="38.885767" lon="-5.962817">
        <ele>1211.0</ele>
        <time>2019-05-04T14:19:02Z</time>
      </trkpt>
      <trkpt lat="38.885700" lon="-5.962850">
        <ele>1211.0</ele>
        <time>2019-05-04T14:19:03Z</time>
      </trkpt>
      <trkpt lat="38.885650" lon="-5.962883">
        <ele>1211.0</ele>
        <time>2019-05-04T14:19:04Z</time>
      </trkpt>
      <trkpt lat="38.885583" lon="-5.962900">
        <ele>1211.0</ele>
        <time>2019-05-04T14:19:05Z</time>
      </trkpt>
      <trkpt lat="38.885533" lon="-5.962917">
        <ele>1210.0</ele>
        <time>2019-05-04T14:19:06Z</time>
      </trkpt>
      <trkpt lat="38.885483" lon="-5.962917">
        <ele>1210.0</ele>
        <time>2019-05-04T14:19:07Z</time>
      </trkpt>
      <trkpt lat="38.885417" lon="-5.962917">
        <ele>1209.0</ele>
        <time>2019-05-04T14:19:08Z</time>
      </trkpt>
      <trkpt lat="38.885350" lon="-5.962917">
        <ele>1207.0</ele>
        <time>2019-05-04T14:19:09Z</time>
      </trkpt>
      <trkpt lat="38.885300" lon="-5.962917">
        <ele>1206.0</ele>
        <time>2019-05-04T14:19:10Z</time>
      </trkpt>
      <trkpt lat="38.885233" lon="-5.962933">
        <ele>1206.0</ele>
        <time>2019-05-04T14:19:11Z</time>
      </trkpt>
      <trkpt lat="38.885183" lon="-5.962933">
        <ele>1207.0</ele>
        <time>2019-05-04T14:19:12Z</time>
      </trkpt>
      <trkpt lat="38.885117" lon="-5.962950">
        <ele>1207.0</ele>
        <time>2019-05-04T14:19:13Z</time>
      </trkpt>
      <trkpt lat="38.885050" lon="-5.962967">
        <ele>1207.0</ele>
        <time>2019-05-04T14:19:14Z</time>
      </trkpt>
      <trkpt lat="38.884983" lon="-5.962983">
        <ele>1206.0</ele>
        <time>2019-05-04T14:19:15Z</time>
      </trkpt>
      <trkpt lat="38.884917" lon="-5.963000">
        <ele>1206.0</ele>
        <time>2019-05-04T14:19:16Z</time>
      </trkpt>
      <trkpt lat="38.884833" lon="-5.963033">
        <ele>1207.0</ele>
        <time>2019-05-04T14:19:17Z</time>
      </trkpt>
      <trkpt lat="38.884767" lon="-5.963067">
        <ele>1207.0</ele>
        <time>2019-05-04T14:19:18Z</time>
      </trkpt>
      <trkpt lat="38.884700" lon="-5.963100">
        <ele>1208.0</ele>
        <time>2019-05-04T14:19:19Z</time>
      </trkpt>
      <trkpt lat="38.884633" lon="-5.963133">
        <ele>1208.0</ele>
        <time>2019-05-04T14:19:20Z</time>
      </trkpt>
      <trkpt lat="38.884567" lon="-5.963167">
        <ele>1209.0</ele>
        <time>2019-05-04T14:19:21Z</time>
      </trkpt>
      <trkpt lat="38.884500" lon="-5.963183">
        <ele>1208.0</ele>
        <time>2019-05-04T14:19:22Z</time>
      </trkpt>
      <trkpt lat="38.884433" lon="-5.963233">
        <ele>1208.0</ele>
        <time>2019-05-04T14:19:23Z</time>
      </trkpt>
      <trkpt lat="38.884367" lon="-5.963283">
        <ele>1208.0</ele>
        <time>2019-05-04T14:19:24Z</time>
      </trkpt>
      <trkpt lat="38.884300" lon="-5.963350">
        <ele>1208.0</ele>
        <time>2019-05-04T14:19:25Z</time>
      </trkpt>
      <trkpt lat="38.884233" lon="-5.963417">
        <ele>1207.0</ele>
        <time>2019-05-04T14:19:26Z</time>
      </trkpt>
      <trkpt lat="38.884183" lon="-5.963500">
        <ele>1207.0</ele>
        <time>2019-05-04T14:19:27Z</time>
      </trkpt>
      <trkpt lat="38.884150" lon="-5.963600">
        <ele>1206.0</ele>
        <time>2019-05-04T14:19:28Z</time>
      </trkpt>
      <trkpt lat="38.884100" lon="-5.963717">
        <ele>1205.0</ele>
        <time>2019-05-04T14:19:29Z</time>
      </trkpt>
      <trkpt lat="38.884083" lon="-5.963833">
        <ele>1205.0</ele>
        <time>2019-05-04T14:19:30Z</time>
      </trkpt>
      <trkpt lat="38.884100" lon="-5.963950">
        <ele>1204.0</ele>
        <time>2019-05-04T14:19:31Z</time>
      </trkpt>
      <trkpt lat="38.884133" lon="-5.964067">
        <ele>1203.0</ele>
        <time>2019-05-04T14:19:32Z</time>
      </trkpt>
      <trkpt lat="38.884167" lon="-5.964150">
        <ele>1202.0</ele>
        <time>2019-05-04T14:19:33Z</time>
      </trkpt>
      <trkpt lat="38.884217" lon="-5.964233">
        <ele>1201.0</ele>
        <time>2019-05-04T14:19:34Z</time>
      </trkpt>
      <trkpt lat="38.884283" lon="-5.964300">
        <ele>1201.0</ele>
        <time>2019-05-04T14:19:35Z</time>
      </trkpt>
      <trkpt lat="38.884350" lon="-5.964367">
        <ele>1201.0</ele>
        <time>2019-05-04T14:19:36Z</time>
      </trkpt>
      <trkpt lat="38.884417" lon="-5.964433">
        <ele>1200.0</ele>
        <time>2019-05-04T14:19:37Z</time>
      </trkpt>
      <trkpt lat="38.884483" lon="-5.964500">
        <ele>1199.0</ele>
        <time>2019-05-04T14:19:38Z</time>
      </trkpt>
      <trkpt lat="38.884550" lon="-5.964567">
        <ele>1199.0</ele>
        <time>2019-05-04T14:19:39Z</time>
      </trkpt>
      <trkpt lat="38.884617" lon="-5.964617">
        <ele>1198.0</ele>
        <time>2019-05-04T14:19:40Z</time>
      </trkpt>
      <trkpt lat="38.884700" lon="-5.964650">
        <ele>1196.0</ele>
        <time>2019-05-04T14:19:41Z</time>
      </trkpt>
      <trkpt lat="38.884783" lon="-5.964683">
        <ele>1194.0</ele>
        <time>2019-05-04T14:19:42Z</time>
      </trkpt>
      <trkpt lat="38.884867" lon="-5.964717">
        <ele>1191.0</ele>
        <time>2019-05-04T14:19:43Z</time>
      </trkpt>
      <trkpt lat="38.884967" lon="-5.964767">
        <ele>1188.0</ele>
        <time>2019-05-04T14:19:44Z</time>
      </trkpt>
      <trkpt lat="38.885083" lon="-5.964800">
        <ele>1185.0</ele>
        <time>2019-05-04T14:19:45Z</time>
      </trkpt>
      <trkpt lat="38.885183" lon="-5.964850">
        <ele>1184.0</ele>
        <time>2019-05-04T14:19:46Z</time>
      </trkpt>
      <trkpt lat="38.885267" lon="-5.964867">
        <ele>1187.0</ele>
        <time>2019-05-04T14:19:47Z</time>
      </trkpt>
      <trkpt lat="38.885333" lon="-5.964900">
        <ele>1187.0</ele>
        <time>2019-05-04T14:19:48Z</time>
      </trkpt>
      <trkpt lat="38.885400" lon="-5.964950">
        <ele>1186.0</ele>
        <time>2019-05-04T14:19:49Z</time>
      </trkpt>
      <trkpt lat="38.885483" lon="-5.964983">
        <ele>1186.0</ele>
        <time>2019-05-04T14:19:50Z</time>
      </trkpt>
      <trkpt lat="38.885567" lon="-5.965033">
        <ele>1184.0</ele>
        <time>2019-05-04T14:19:51Z</time>
      </trkpt>
      <trkpt lat="38.885667" lon="-5.965067">
        <ele>1182.0</ele>
        <time>2019-05-04T14:19:52Z</time>
      </trkpt>
      <trkpt lat="38.885750" lon="-5.965117">
        <ele>1180.0</ele>
        <time>2019-05-04T14:19:53Z</time>
      </trkpt>
      <trkpt lat="38.885833" lon="-5.965150">
        <ele>1179.0</ele>
        <time>2019-05-04T14:19:54Z</time>
      </trkpt>
      <trkpt lat="38.885917" lon="-5.965200">
        <ele>1178.0</ele>
        <time>2019-05-04T14:19:55Z</time>
      </trkpt>
      <trkpt lat="38.886017" lon="-5.965233">
        <ele>1175.0</ele>
        <time>2019-05-04T14:19:56Z</time>
      </trkpt>
      <trkpt lat="38.886133" lon="-5.965283">
        <ele>1173.0</ele>
        <time>2019-05-04T14:19:57Z</time>
      </trkpt>
      <trkpt lat="38.886233" lon="-5.965333">
        <ele>1171.0</ele>
        <time>2019-05-04T14:19:58Z</time>
      </trkpt>
      <trkpt lat="38.886333" lon="-5.965367">
        <ele>1171.0</ele>
        <time>2019-05-04T14:19:59Z</time>
      </trkpt>
      <trkpt lat="38.886433" lon="-5.965417">
        <ele>1171.0</ele>
        <time>2019-05-04T14:20:00Z</time>
      </trkpt>
      <trkpt lat="38.886533" lon="-5.965450">
        <ele>1171.0</ele>
        <time>2019-05-04T14:20:01Z</time>
      </trkpt>
      <trkpt lat="38.886633" lon="-5.965500">
        <ele>1170.0</ele>
        <time>2019-05-04T14:20:02Z</time>
      </trkpt>
      <trkpt lat="38.886750" lon="-5.965533">
        <ele>1169.0</ele>
        <time>2019-05-04T14:20:03Z</time>
      </trkpt>
      <trkpt lat="38.886850" lon="-5.965583">
        <ele>1168.0</ele>
        <time>2019-05-04T14:20:04Z</time>
      </trkpt>
      <trkpt lat="38.886933" lon="-5.965617">
        <ele>1166.0</ele>
        <time>2019-05-04T14:20:05Z</time>
      </trkpt>
      <trkpt lat="38.887017" lon="-5.965650">
        <ele>1164.0</ele>
        <time>2019-05-04T14:20:06Z</time>
      </trkpt>
      <trkpt lat="38.887117" lon="-5.965683">
        <ele>1161.0</ele>
        <time>2019-05-04T14:20:07Z</time>
      </trkpt>
      <trkpt lat="38.887200" lon="-5.965717">
        <ele>1159.0</ele>
        <time>2019-05-04T14:20:08Z</time>
      </trkpt>
      <trkpt lat="38.887300" lon="-5.965750">
        <ele>1156.0</ele>
        <time>2019-05-04T14:20:09Z</time>
      </trkpt>
      <trkpt lat="38.887383" lon="-5.965783">
        <ele>1154.0</ele>
        <time>2019-05-04T14:20:10Z</time>
      </trkpt>
      <trkpt lat="38.887450" lon="-5.965833">
        <ele>1153.0</ele>
        <time>2019-05-04T14:20:11Z</time>
      </trkpt>
      <trkpt lat="38.887517" lon="-5.965883">
        <ele>1151.0</ele>
        <time>2019-05-04T14:20:12Z</time>
      </trkpt>
      <trkpt lat="38.887583" lon="-5.965950">
        <ele>1149.0</ele>
        <time>2019-05-04T14:20:13Z</time>
      </trkpt>
      <trkpt lat="38.887633" lon="-5.966033">
        <ele>1147.0</ele>
        <time>2019-05-04T14:20:14Z</time>
      </trkpt>
      <trkpt lat="38.887683" lon="-5.966133">
        <ele>1145.0</ele>
        <time>2019-05-04T14:20:15Z</time>
      </trkpt>
      <trkpt lat="38.887717" lon="-5.966233">
        <ele>1143.0</ele>
        <time>2019-05-04T14:20:16Z</time>
      </trkpt>
      <trkpt lat="38.887750" lon="-5.966367">
        <ele>1141.0</ele>
        <time>2019-05-04T14:20:17Z</time>
      </trkpt>
      <trkpt lat="38.887750" lon="-5.966500">
        <ele>1139.0</ele>
        <time>2019-05-04T14:20:18Z</time>
      </trkpt>
      <trkpt lat="38.887717" lon="-5.966617">
        <ele>1138.0</ele>
        <time>2019-05-04T14:20:19Z</time>
      </trkpt>
      <trkpt lat="38.887700" lon="-5.966717">
        <ele>1137.0</ele>
        <time>2019-05-04T14:20:20Z</time>
      </trkpt>
      <trkpt lat="38.887650" lon="-5.966817">
        <ele>1139.0</ele>
        <time>2019-05-04T14:20:21Z</time>
      </trkpt>
      <trkpt lat="38.887600" lon="-5.966933">
        <ele>1139.0</ele>
        <time>2019-05-04T14:20:22Z</time>
      </trkpt>
      <trkpt lat="38.887533" lon="-5.967067">
        <ele>1138.0</ele>
        <time>2019-05-04T14:20:23Z</time>
      </trkpt>
      <trkpt lat="38.887483" lon="-5.967183">
        <ele>1137.0</ele>
        <time>2019-05-04T14:20:24Z</time>
      </trkpt>
      <trkpt lat="38.887400" lon="-5.967283">
        <ele>1135.0</ele>
        <time>2019-05-04T14:20:25Z</time>
      </trkpt>
      <trkpt lat="38.887317" lon="-5.967367">
        <ele>1134.0</ele>
        <time>2019-05-04T14:20:26Z</time>
      </trkpt>
      <trkpt lat="38.887233" lon="-5.967417">
        <ele>1133.0</ele>
        <time>2019-05-04T14:20:27Z</time>
      </trkpt>
      <trkpt lat="38.887167" lon="-5.967467">
        <ele>1132.0</ele>
        <time>2019-05-04T14:20:28Z</time>
      </trkpt>
      <trkpt lat="38.887083" lon="-5.967517">
        <ele>1131.0</ele>
        <time>2019-05-04T14:20:29Z</time>
      </trkpt>
      <trkpt lat="38.886983" lon="-5.967550">
        <ele>1129.0</ele>
        <time>2019-05-04T14:20:30Z</time>
      </trkpt>
      <trkpt lat="38.886900" lon="-5.967600">
        <ele>1127.0</ele>
        <time>2019-05-04T14:20:31Z</time>
      </trkpt>
      <trkpt lat="38.886800" lon="-5.967633">
        <ele>1124.0</ele>
        <time>2019-05-04T14:20:32Z</time>
      </trkpt>
      <trkpt lat="38.886717" lon="-5.967667">
        <ele>1122.0</ele>
        <time>2019-05-04T14:20:33Z</time>
      </trkpt>
      <trkpt lat="38.886633" lon="-5.967683">
        <ele>1120.0</ele>
        <time>2019-05-04T14:20:34Z</time>
      </trkpt>
      <trkpt lat="38.886550" lon="-5.967700">
        <ele>1118.0</ele>
        <time>2019-05-04T14:20:35Z</time>
      </trkpt>
      <trkpt lat="38.886450" lon="-5.967700">
        <ele>1116.0</ele>
        <time>2019-05-04T14:20:36Z</time>
      </trkpt>
      <trkpt lat="38.886350" lon="-5.967683">
        <ele>1113.0</ele>
        <time>2019-05-04T14:20:37Z</time>
      </trkpt>
      <trkpt lat="38.886233" lon="-5.967667">
        <ele>1110.0</ele>
        <time>2019-05-04T14:20:38Z</time>
      </trkpt>
      <trkpt lat="38.886133" lon="-5.967650">
        <ele>1110.0</ele>
        <time>2019-05-04T14:20:39Z</time>
      </trkpt>
      <trkpt lat="38.886033" lon="-5.967617">
        <ele>1111.0</ele>
        <time>2019-05-04T14:20:40Z</time>
      </trkpt>
      <trkpt lat="38.885967" lon="-5.967583">
        <ele>1112.0</ele>
        <time>2019-05-04T14:20:41Z</time>
      </trkpt>
      <trkpt lat="38.885900" lon="-5.967567">
        <ele>1112.0</ele>
        <time>2019-05-04T14:20:42Z</time>
      </trkpt>
      <trkpt lat="38.885817" lon="-5.967550">
        <ele>1112.0</ele>
        <time>2019-05-04T14:20:43Z</time>
      </trkpt>
      <trkpt lat="38.885717" lon="-5.967533">
        <ele>1110.0</ele>
        <time>2019-05-04T14:20:44Z</time>
      </trkpt>
      <trkpt lat="38.885600" lon="-5.967517">
        <ele>1108.0</ele>
        <time>2019-05-04T14:20:45Z</time>
      </trkpt>
      <trkpt lat="38.885500" lon="-5.967517">
        <ele>1108.0</ele>
        <time>2019-05-04T14:20:46Z</time>
      </trkpt>
      <trkpt lat="38.885417" lon="-5.967500">
        <ele>1107.0</ele>
        <time>2019-05-04T14:20:47Z</time>
      </trkpt>
      <trkpt lat="38.885317" lon="-5.967500">
        <ele>1107.0</ele>
        <time>2019-05-04T14:20:48Z</time>
      </trkpt>
      <trkpt lat="38.885233" lon="-5.967467">
        <ele>1106.0</ele>
        <time>2019-05-04T14:20:49Z</time>
      </trkpt>
      <trkpt lat="38.885150" lon="-5.967450">
        <ele>1106.0</ele>
        <time>2019-05-04T14:20:50Z</time>
      </trkpt>
      <trkpt lat="38.885033" lon="-5.967417">
        <ele>1104.0</ele>
        <time>2019-05-04T14:20:51Z</time>
      </trkpt>
      <trkpt lat="38.884933" lon="-5.967400">
        <ele>1103.0</ele>
        <time>2019-05-04T14:20:52Z</time>
      </trkpt>
      <trkpt lat="38.884850" lon="-5.967383">
        <ele>1102.0</ele>
        <time>2019-05-04T14:20:53Z</time>
      </trkpt>
      <trkpt lat="38.884750" lon="-5.967350">
        <ele>1101.0</ele>
        <time>2019-05-04T14:20:54Z</time>
      </trkpt>
      <trkpt lat="38.884667" lon="-5.967333">
        <ele>1100.0</ele>
        <time>2019-05-04T14:20:55Z</time>
      </trkpt>
      <trkpt lat="38.884583" lon="-5.967300">
        <ele>1097.0</ele>
        <time>2019-05-04T14:20:56Z</time>
      </trkpt>
      <trkpt lat="38.884483" lon="-5.967283">
        <ele>1094.0</ele>
        <time>2019-05-04T14:20:57Z</time>
      </trkpt>
      <trkpt lat="38.884383" lon="-5.967233">
        <ele>1091.0</ele>
        <time>2019-05-04T14:20:58Z</time>
      </trkpt>
      <trkpt lat="38.884283" lon="-5.967183">
        <ele>1089.0</ele>
        <time>2019-05-04T14:20:59Z</time>
      </trkpt>
      <trkpt lat="38.884183" lon="-5.967117">
        <ele>1086.0</ele>
        <time>2019-05-04T14:21:00Z</time>
      </trkpt>
      <trkpt lat="38.884100" lon="-5.967050">
        <ele>1084.0</ele>
        <time>2019-05-04T14:21:01Z</time>
      </trkpt>
      <trkpt lat="38.884033" lon="-5.966983">
        <ele>1081.0</ele>
        <time>2019-05-04T14:21:02Z</time>
      </trkpt>
      <trkpt lat="38.883950" lon="-5.966900">
        <ele>1079.0</ele>
        <time>2019-05-04T14:21:03Z</time>
      </trkpt>
      <trkpt lat="38.883883" lon="-5.966800">
        <ele>1076.0</ele>
        <time>2019-05-04T14:21:04Z</time>
      </trkpt>
      <trkpt lat="38.883817" lon="-5.966700">
        <ele>1073.0</ele>
        <time>2019-05-04T14:21:05Z</time>
      </trkpt>
      <trkpt lat="38.883767" lon="-5.966583">
        <ele>1070.0</ele>
        <time>2019-05-04T14:21:06Z</time>
      </trkpt>
      <trkpt lat="38.883717" lon="-5.966467">
        <ele>1067.0</ele>
        <time>2019-05-04T14:21:07Z</time>
      </trkpt>
      <trkpt lat="38.883683" lon="-5.966367">
        <ele>1065.0</ele>
        <time>2019-05-04T14:21:08Z</time>
      </trkpt>
      <trkpt lat="38.883650" lon="-5.966267">
        <ele>1064.0</ele>
        <time>2019-05-04T14:21:09Z</time>
      </trkpt>
      <trkpt lat="38.883633" lon="-5.966183">
        <ele>1062.0</ele>
        <time>2019-05-04T14:21:10Z</time>
      </trkpt>
      <trkpt lat="38.883617" lon="-5.966083">
        <ele>1059.0</ele>
        <time>2019-05-04T14:21:11Z</time>
      </trkpt>
      <trkpt lat="38.883600" lon="-5.965967">
        <ele>1057.0</ele>
        <time>2019-05-04T14:21:12Z</time>
      </trkpt>
      <trkpt lat="38.883583" lon="-5.965833">
        <ele>1054.0</ele>
        <time>2019-05-04T14:21:13Z</time>
      </trkpt>
      <trkpt lat="38.883567" lon="-5.965717">
        <ele>1052.0</ele>
        <time>2019-05-04T14:21:14Z</time>
      </trkpt>
      <trkpt lat="38.883567" lon="-5.965617">
        <ele>1051.0</ele>
        <time>2019-05-04T14:21:15Z</time>
      </trkpt>
      <trkpt lat="38.883550" lon="-5.965517">
        <ele>1049.0</ele>
        <time>2019-05-04T14:21:16Z</time>
      </trkpt>
      <trkpt lat="38.883550" lon="-5.965400">
        <ele>1047.0</ele>
        <time>2019-05-04T14:21:17Z</time>
      </trkpt>
      <trkpt lat="38.883550" lon="-5.965283">
        <ele>1045.0</ele>
        <time>2019-05-04T14:21:18Z</time>
      </trkpt>
      <trkpt lat="38.883533" lon="-5.965150">
        <ele>1043.0</ele>
        <time>2019-05-04T14:21:19Z</time>
      </trkpt>
      <trkpt lat="38.883517" lon="-5.965000">
        <ele>1040.0</ele>
        <time>2019-05-04T14:21:20Z</time>
      </trkpt>
      <trkpt lat="38.883517" lon="-5.964867">
        <ele>1038.0</ele>
        <time>2019-05-04T14:21:21Z</time>
      </trkpt>
      <trkpt lat="38.883500" lon="-5.964750">
        <ele>1036.0</ele>
        <time>2019-05-04T14:21:22Z</time>
      </trkpt>
      <trkpt lat="38.883483" lon="-5.964650">
        <ele>1034.0</ele>
        <time>2019-05-04T14:21:23Z</time>
      </trkpt>
      <trkpt lat="38.883467" lon="-5.964533">
        <ele>1031.0</ele>
        <time>2019-05-04T14:21:24Z</time>
      </trkpt>
      <trkpt lat="38.883450" lon="-5.964417">
        <ele>1028.0</ele>
        <time>2019-05-04T14:21:25Z</time>
      </trkpt>
      <trkpt lat="38.883417" lon="-5.964283">
        <ele>1025.0</ele>
        <time>2019-05-04T14:21:26Z</time>
      </trkpt>
      <trkpt lat="38.883400" lon="-5.964167">
        <ele>1022.0</ele>
        <time>2019-05-04T14:21:27Z</time>
      </trkpt>
      <trkpt lat="38.883367" lon="-5.964067">
        <ele>1020.0</ele>
        <time>2019-05-04T14:21:28Z</time>
      </trkpt>
      <trkpt lat="38.883350" lon="-5.963950">
        <ele>1018.0</ele>
        <time>2019-05-04T14:21:29Z</time>
      </trkpt>
      <trkpt lat="38.883333" lon="-5.963833">
        <ele>1016.0</ele>
        <time>2019-05-04T14:21:30Z</time>
      </trkpt>
      <trkpt lat="38.883317" lon="-5.963733">
        <ele>1013.0</ele>
        <time>2019-05-04T14:21:31Z</time>
      </trkpt>
      <trkpt lat="38.883317" lon="-5.963617">
        <ele>1011.0</ele>
        <time>2019-05-04T14:21:32Z</time>
      </trkpt>
      <trkpt lat="38.883317" lon="-5.963500">
        <ele>1009.0</ele>
        <time>2019-05-04T14:21:33Z</time>
      </trkpt>
      <trkpt lat="38.883333" lon="-5.963383">
        <ele>1006.0</ele>
        <time>2019-05-04T14:21:34Z</time>
      </trkpt>
      <trkpt lat="38.883350" lon="-5.963283">
        <ele>1004.0</ele>
        <time>2019-05-04T14:21:35Z</time>
      </trkpt>
      <trkpt lat="38.883367" lon="-5.963167">
        <ele>1001.0</ele>
        <time>2019-05-04T14:21:36Z</time>
      </trkpt>
      <trkpt lat="38.883383" lon="-5.963067">
        <ele>999.0</ele>
        <time>2019-05-04T14:21:37Z</time>
      </trkpt>
      <trkpt lat="38.883417" lon="-5.963000">
        <ele>997.0</ele>
        <time>2019-05-04T14:21:38Z</time>
      </trkpt>
      <trkpt lat="38.883433" lon="-5.962933">
        <ele>994.0</ele>
        <time>2019-05-04T14:21:39Z</time>
      </trkpt>
      <trkpt lat="38.883467" lon="-5.962867">
        <ele>991.0</ele>
        <time>2019-05-04T14:21:40Z</time>
      </trkpt>
      <trkpt lat="38.883517" lon="-5.962783">
        <ele>988.0</ele>
        <time>2019-05-04T14:21:41Z</time>
      </trkpt>
      <trkpt lat="38.883533" lon="-5.962700">
        <ele>985.0</ele>
        <time>2019-05-04T14:21:42Z</time>
      </trkpt>
      <trkpt lat="38.883567" lon="-5.962600">
        <ele>985.0</ele>
        <time>2019-05-04T14:21:43Z</time>
      </trkpt>
      <trkpt lat="38.883583" lon="-5.962533">
        <ele>983.0</ele>
        <time>2019-05-04T14:21:44Z</time>
      </trkpt>
      <trkpt lat="38.883600" lon="-5.962483">
        <ele>982.0</ele>
        <time>2019-05-04T14:21:45Z</time>
      </trkpt>
      <trkpt lat="38.883600" lon="-5.962417">
        <ele>981.0</ele>
        <time>2019-05-04T14:21:46Z</time>
      </trkpt>
      <trkpt lat="38.883600" lon="-5.962333">
        <ele>978.0</ele>
        <time>2019-05-04T14:21:47Z</time>
      </trkpt>
      <trkpt lat="38.883617" lon="-5.962233">
        <ele>974.0</ele>
        <time>2019-05-04T14:21:48Z</time>
      </trkpt>
      <trkpt lat="38.883633" lon="-5.962117">
        <ele>971.0</ele>
        <time>2019-05-04T14:21:49Z</time>
      </trkpt>
      <trkpt lat="38.883650" lon="-5.962000">
        <ele>969.0</ele>
        <time>2019-05-04T14:21:50Z</time>
      </trkpt>
      <trkpt lat="38.883667" lon="-5.961933">
        <ele>969.0</ele>
        <time>2019-05-04T14:21:51Z</time>
      </trkpt>
      <trkpt lat="38.883683" lon="-5.961850">
        <ele>968.0</ele>
        <time>2019-05-04T14:21:52Z</time>
      </trkpt>
      <trkpt lat="38.883683" lon="-5.961783">
        <ele>967.0</ele>
        <time>2019-05-04T14:21:53Z</time>
      </trkpt>
      <trkpt lat="38.883700" lon="-5.961717">
        <ele>966.0</ele>
        <time>2019-05-04T14:21:54Z</time>
      </trkpt>
      <trkpt lat="38.883717" lon="-5.961633">
        <ele>964.0</ele>
        <time>2019-05-04T14:21:55Z</time>
      </trkpt>
      <trkpt lat="38.883750" lon="-5.961550">
        <ele>959.0</ele>
        <time>2019-05-04T14:21:56Z</time>
      </trkpt>
      <trkpt lat="38.883767" lon="-5.961450">
        <ele>956.0</ele>
        <time>2019-05-04T14:21:57Z</time>
      </trkpt>
      <trkpt lat="38.883800" lon="-5.961367">
        <ele>953.0</ele>
        <time>2019-05-04T14:21:58Z</time>
      </trkpt>
      <trkpt lat="38.883833" lon="-5.961283">
        <ele>950.0</ele>
        <time>2019-05-04T14:21:59Z</time>
      </trkpt>
      <trkpt lat="38.883850" lon="-5.961217">
        <ele>948.0</ele>
        <time>2019-05-04T14:22:00Z</time>
      </trkpt>
      <trkpt lat="38.883850" lon="-5.961133">
        <ele>945.0</ele>
        <time>2019-05-04T14:22:01Z</time>
      </trkpt>
      <trkpt lat="38.883883" lon="-5.961033">
        <ele>942.0</ele>
        <time>2019-05-04T14:22:02Z</time>
      </trkpt>
      <trkpt lat="38.883917" lon="-5.960933">
        <ele>938.0</ele>
        <time>2019-05-04T14:22:03Z</time>
      </trkpt>
      <trkpt lat="38.883950" lon="-5.960833">
        <ele>936.0</ele>
        <time>2019-05-04T14:22:04Z</time>
      </trkpt>
      <trkpt lat="38.884000" lon="-5.960750">
        <ele>934.0</ele>
        <time>2019-05-04T14:22:05Z</time>
      </trkpt>
      <trkpt lat="38.884017" lon="-5.960667">
        <ele>933.0</ele>
        <time>2019-05-04T14:22:06Z</time>
      </trkpt>
      <trkpt lat="38.884033" lon="-5.960600">
        <ele>932.0</ele>
        <time>2019-05-04T14:22:07Z</time>
      </trkpt>
      <trkpt lat="38.884067" lon="-5.960517">
        <ele>930.0</ele>
        <time>2019-05-04T14:22:08Z</time>
      </trkpt>
      <trkpt lat="38.884083" lon="-5.960417">
        <ele>928.0</ele>
        <time>2019-05-04T14:22:09Z</time>
      </trkpt>
      <trkpt lat="38.884100" lon="-5.960317">
        <ele>926.0</ele>
        <time>2019-05-04T14:22:10Z</time>
      </trkpt>
      <trkpt lat="38.884117" lon="-5.960200">
        <ele>925.0</ele>
        <time>2019-05-04T14:22:11Z</time>
      </trkpt>
      <trkpt lat="38.884133" lon="-5.960100">
        <ele>925.0</ele>
        <time>2019-05-04T14:22:12Z</time>
      </trkpt>
      <trkpt lat="38.884167" lon="-5.960017">
        <ele>924.0</ele>
        <time>2019-05-04T14:22:13Z</time>
      </trkpt>
      <trkpt lat="38.884200" lon="-5.959950">
        <ele>922.0</ele>
        <time>2019-05-04T14:22:14Z</time>
      </trkpt>
      <trkpt lat="38.884233" lon="-5.959883">
        <ele>921.0</ele>
        <time>2019-05-04T14:22:15Z</time>
      </trkpt>
      <trkpt lat="38.884267" lon="-5.959800">
        <ele>919.0</ele>
        <time>2019-05-04T14:22:16Z</time>
      </trkpt>
      <trkpt lat="38.884283" lon="-5.959717">
        <ele>917.0</ele>
        <time>2019-05-04T14:22:17Z</time>
      </trkpt>
      <trkpt lat="38.884317" lon="-5.959633">
        <ele>916.0</ele>
        <time>2019-05-04T14:22:18Z</time>
      </trkpt>
      <trkpt lat="38.884350" lon="-5.959550">
        <ele>914.0</ele>
        <time>2019-05-04T14:22:19Z</time>
      </trkpt>
      <trkpt lat="38.884383" lon="-5.959467">
        <ele>912.0</ele>
        <time>2019-05-04T14:22:20Z</time>
      </trkpt>
      <trkpt lat="38.884400" lon="-5.959383">
        <ele>910.0</ele>
        <time>2019-05-04T14:22:21Z</time>
      </trkpt>
      <trkpt lat="38.884433" lon="-5.959283">
        <ele>907.0</ele>
        <time>2019-05-04T14:22:22Z</time>
      </trkpt>
      <trkpt lat="38.884450" lon="-5.959183">
        <ele>906.0</ele>
        <time>2019-05-04T14:22:23Z</time>
      </trkpt>
      <trkpt lat="38.884467" lon="-5.959083">
        <ele>904.0</ele>
        <time>2019-05-04T14:22:24Z</time>
      </trkpt>
      <trkpt lat="38.884500" lon="-5.958983">
        <ele>902.0</ele>
        <time>2019-05-04T14:22:25Z</time>
      </trkpt>
      <trkpt lat="38.884533" lon="-5.958900">
        <ele>901.0</ele>
        <time>2019-05-04T14:22:26Z</time>
      </trkpt>
      <trkpt lat="38.884567" lon="-5.958817">
        <ele>900.0</ele>
        <time>2019-05-04T14:22:27Z</time>
      </trkpt>
      <trkpt lat="38.884600" lon="-5.958733">
        <ele>898.0</ele>
        <time>2019-05-04T14:22:28Z</time>
      </trkpt>
      <trkpt lat="38.884617" lon="-5.958650">
        <ele>896.0</ele>
        <time>2019-05-04T14:22:29Z</time>
      </trkpt>
      <trkpt lat="38.884650" lon="-5.958583">
        <ele>896.0</ele>
        <time>2019-05-04T14:22:30Z</time>
      </trkpt>
      <trkpt lat="38.884650" lon="-5.958500">
        <ele>894.0</ele>
        <time>2019-05-04T14:22:31Z</time>
      </trkpt>
      <trkpt lat="38.884683" lon="-5.958417">
        <ele>892.0</ele>
        <time>2019-05-04T14:22:32Z</time>
      </trkpt>
      <trkpt lat="38.884717" lon="-5.958333">
        <ele>889.0</ele>
        <time>2019-05-04T14:22:33Z</time>
      </trkpt>
      <trkpt lat="38.884750" lon="-5.958233">
        <ele>886.0</ele>
        <time>2019-05-04T14:22:34Z</time>
      </trkpt>
      <trkpt lat="38.884783" lon="-5.958150">
        <ele>884.0</ele>
        <time>2019-05-04T14:22:35Z</time>
      </trkpt>
      <trkpt lat="38.884800" lon="-5.958083">
        <ele>882.0</ele>
        <time>2019-05-04T14:22:36Z</time>
      </trkpt>
      <trkpt lat="38.884800" lon="-5.958000">
        <ele>879.0</ele>
        <time>2019-05-04T14:22:37Z</time>
      </trkpt>
      <trkpt lat="38.884817" lon="-5.957900">
        <ele>877.0</ele>
        <time>2019-05-04T14:22:38Z</time>
      </trkpt>
      <trkpt lat="38.884833" lon="-5.957783">
        <ele>875.0</ele>
        <time>2019-05-04T14:22:39Z</time>
      </trkpt>
      <trkpt lat="38.884867" lon="-5.957667">
        <ele>872.0</ele>
        <time>2019-05-04T14:22:40Z</time>
      </trkpt>
      <trkpt lat="38.884883" lon="-5.957567">
        <ele>871.0</ele>
        <time>2019-05-04T14:22:41Z</time>
      </trkpt>
      <trkpt lat="38.884900" lon="-5.957483">
        <ele>869.0</ele>
        <time>2019-05-04T14:22:42Z</time>
      </trkpt>
      <trkpt lat="38.884933" lon="-5.957400">
        <ele>867.0</ele>
        <time>2019-05-04T14:22:43Z</time>
      </trkpt>
      <trkpt lat="38.884967" lon="-5.957300">
        <ele>865.0</ele>
        <time>2019-05-04T14:22:44Z</time>
      </trkpt>
      <trkpt lat="38.884983" lon="-5.957183">
        <ele>863.0</ele>
        <time>2019-05-04T14:22:45Z</time>
      </trkpt>
      <trkpt lat="38.885017" lon="-5.957083">
        <ele>861.0</ele>
        <time>2019-05-04T14:22:46Z</time>
      </trkpt>
      <trkpt lat="38.885050" lon="-5.956983">
        <ele>859.0</ele>
        <time>2019-05-04T14:22:47Z</time>
      </trkpt>
      <trkpt lat="38.885100" lon="-5.956900">
        <ele>856.0</ele>
        <time>2019-05-04T14:22:48Z</time>
      </trkpt>
      <trkpt lat="38.885133" lon="-5.956800">
        <ele>854.0</ele>
        <time>2019-05-04T14:22:49Z</time>
      </trkpt>
      <trkpt lat="38.885183" lon="-5.956717">
        <ele>853.0</ele>
        <time>2019-05-04T14:22:50Z</time>
      </trkpt>
      <trkpt lat="38.885217" lon="-5.956633">
        <ele>851.0</ele>
        <time>2019-05-04T14:22:51Z</time>
      </trkpt>
      <trkpt lat="38.885250" lon="-5.956567">
        <ele>849.0</ele>
        <time>2019-05-04T14:22:52Z</time>
      </trkpt>
      <trkpt lat="38.885300" lon="-5.956500">
        <ele>847.0</ele>
        <time>2019-05-04T14:22:53Z</time>
      </trkpt>
      <trkpt lat="38.885333" lon="-5.956417">
        <ele>844.0</ele>
        <time>2019-05-04T14:22:54Z</time>
      </trkpt>
      <trkpt lat="38.885367" lon="-5.956350">
        <ele>841.0</ele>
        <time>2019-05-04T14:22:55Z</time>
      </trkpt>
      <trkpt lat="38.885417" lon="-5.956283">
        <ele>839.0</ele>
        <time>2019-05-04T14:22:56Z</time>
      </trkpt>
      <trkpt lat="38.885467" lon="-5.956183">
        <ele>835.0</ele>
        <time>2019-05-04T14:22:57Z</time>
      </trkpt>
      <trkpt lat="38.885500" lon="-5.956100">
        <ele>833.0</ele>
        <time>2019-05-04T14:22:58Z</time>
      </trkpt>
      <trkpt lat="38.885517" lon="-5.956033">
        <ele>831.0</ele>
        <time>2019-05-04T14:22:59Z</time>
      </trkpt>
      <trkpt lat="38.885550" lon="-5.955967">
        <ele>828.0</ele>
        <time>2019-05-04T14:23:00Z</time>
      </trkpt>
      <trkpt lat="38.885567" lon="-5.955917">
        <ele>825.0</ele>
        <time>2019-05-04T14:23:01Z</time>
      </trkpt>
      <trkpt lat="38.885583" lon="-5.955833">
        <ele>821.0</ele>
        <time>2019-05-04T14:23:02Z</time>
      </trkpt>
      <trkpt lat="38.885617" lon="-5.955750">
        <ele>816.0</ele>
        <time>2019-05-04T14:23:03Z</time>
      </trkpt>
      <trkpt lat="38.885667" lon="-5.955633">
        <ele>811.0</ele>
        <time>2019-05-04T14:23:04Z</time>
      </trkpt>
      <trkpt lat="38.885700" lon="-5.955550">
        <ele>806.0</ele>
        <time>2019-05-04T14:23:05Z</time>
      </trkpt>
      <trkpt lat="38.885733" lon="-5.955467">
        <ele>802.0</ele>
        <time>2019-05-04T14:23:06Z</time>
      </trkpt>
      <trkpt lat="38.885767" lon="-5.955400">
        <ele>798.0</ele>
        <time>2019-05-04T14:23:07Z</time>
      </trkpt>
      <trkpt lat="38.885817" lon="-5.955317">
        <ele>793.0</ele>
        <time>2019-05-04T14:23:08Z</time>
      </trkpt>
      <trkpt lat="38.885850" lon="-5.955217">
        <ele>787.0</ele>
        <time>2019-05-04T14:23:09Z</time>
      </trkpt>
      <trkpt lat="38.885883" lon="-5.955117">
        <ele>782.0</ele>
        <time>2019-05-04T14:23:10Z</time>
      </trkpt>
      <trkpt lat="38.885933" lon="-5.955033">
        <ele>778.0</ele>
        <time>2019-05-04T14:23:11Z</time>
      </trkpt>
      <trkpt lat="38.885967" lon="-5.954967">
        <ele>774.0</ele>
        <time>2019-05-04T14:23:12Z</time>
      </trkpt>
      <trkpt lat="38.886000" lon="-5.954900">
        <ele>771.0</ele>
        <time>2019-05-04T14:23:13Z</time>
      </trkpt>
      <trkpt lat="38.886050" lon="-5.954817">
        <ele>766.0</ele>
        <time>2019-05-04T14:23:14Z</time>
      </trkpt>
      <trkpt lat="38.886067" lon="-5.954717">
        <ele>763.0</ele>
        <time>2019-05-04T14:23:15Z</time>
      </trkpt>
      <trkpt lat="38.886083" lon="-5.954583">
        <ele>760.0</ele>
        <time>2019-05-04T14:23:16Z</time>
      </trkpt>
      <trkpt lat="38.886100" lon="-5.954483">
        <ele>757.0</ele>
        <time>2019-05-04T14:23:17Z</time>
      </trkpt>
      <trkpt lat="38.886133" lon="-5.954400">
        <ele>756.0</ele>
        <time>2019-05-04T14:23:18Z</time>
      </trkpt>
      <trkpt lat="38.886150" lon="-5.954317">
        <ele>755.0</ele>
        <time>2019-05-04T14:23:19Z</time>
      </trkpt>
      <trkpt lat="38.886183" lon="-5.954233">
        <ele>753.0</ele>
        <time>2019-05-04T14:23:20Z</time>
      </trkpt>
      <trkpt lat="38.886183" lon="-5.954117">
        <ele>751.0</ele>
        <time>2019-05-04T14:23:21Z</time>
      </trkpt>
      <trkpt lat="38.886200" lon="-5.954017">
        <ele>750.0</ele>
        <time>2019-05-04T14:23:22Z</time>
      </trkpt>
      <trkpt lat="38.886217" lon="-5.953917">
        <ele>747.0</ele>
        <time>2019-05-04T14:23:23Z</time>
      </trkpt>
      <trkpt lat="38.886233" lon="-5.953800">
        <ele>746.0</ele>
        <time>2019-05-04T14:23:24Z</time>
      </trkpt>
      <trkpt lat="38.886250" lon="-5.953717">
        <ele>746.0</ele>
        <time>2019-05-04T14:23:25Z</time>
      </trkpt>
      <trkpt lat="38.886267" lon="-5.953617">
        <ele>745.0</ele>
        <time>2019-05-04T14:23:26Z</time>
      </trkpt>
      <trkpt lat="38.886267" lon="-5.953517">
        <ele>743.0</ele>
        <time>2019-05-04T14:23:27Z</time>
      </trkpt>
      <trkpt lat="38.886267" lon="-5.953400">
        <ele>742.0</ele>
        <time>2019-05-04T14:23:28Z</time>
      </trkpt>
      <trkpt lat="38.886267" lon="-5.953283">
        <ele>742.0</ele>
        <time>2019-05-04T14:23:29Z</time>
      </trkpt>
      <trkpt lat="38.886267" lon="-5.953167">
        <ele>742.0</ele>
        <time>2019-05-04T14:23:30Z</time>
      </trkpt>
      <trkpt lat="38.886267" lon="-5.953050">
        <ele>742.0</ele>
        <time>2019-05-04T14:23:31Z</time>
      </trkpt>
      <trkpt lat="38.886267" lon="-5.952933">
        <ele>742.0</ele>
        <time>2019-05-04T14:23:32Z</time>
      </trkpt>
      <trkpt lat="38.886267" lon="-5.952817">
        <ele>742.0</ele>
        <time>2019-05-04T14:23:33Z</time>
      </trkpt>
      <trkpt lat="38.886233" lon="-5.952700">
        <ele>743.0</ele>
        <time>2019-05-04T14:23:34Z</time>
      </trkpt>
      <trkpt lat="38.886217" lon="-5.952583">
        <ele>743.0</ele>
        <time>2019-05-04T14:23:35Z</time>
      </trkpt>
      <trkpt lat="38.886183" lon="-5.952467">
        <ele>742.0</ele>
        <time>2019-05-04T14:23:36Z</time>
      </trkpt>
      <trkpt lat="38.886167" lon="-5.952333">
        <ele>741.0</ele>
        <time>2019-05-04T14:23:37Z</time>
      </trkpt>
      <trkpt lat="38.886150" lon="-5.952183">
        <ele>740.0</ele>
        <time>2019-05-04T14:23:38Z</time>
      </trkpt>
      <trkpt lat="38.886133" lon="-5.952050">
        <ele>739.0</ele>
        <time>2019-05-04T14:23:39Z</time>
      </trkpt>
      <trkpt lat="38.886117" lon="-5.951933">
        <ele>738.0</ele>
        <time>2019-05-04T14:23:40Z</time>
      </trkpt>
      <trkpt lat="38.886100" lon="-5.951817">
        <ele>737.0</ele>
        <time>2019-05-04T14:23:41Z</time>
      </trkpt>
      <trkpt lat="38.886100" lon="-5.951700">
        <ele>736.0</ele>
        <time>2019-05-04T14:23:42Z</time>
      </trkpt>
      <trkpt lat="38.886083" lon="-5.951583">
        <ele>735.0</ele>
        <time>2019-05-04T14:23:43Z</time>
      </trkpt>
      <trkpt lat="38.886083" lon="-5.951467">
        <ele>733.0</ele>
        <time>2019-05-04T14:23:44Z</time>
      </trkpt>
      <trkpt lat="38.886067" lon="-5.951333">
        <ele>732.0</ele>
        <time>2019-05-04T14:23:45Z</time>
      </trkpt>
      <trkpt lat="38.886067" lon="-5.951233">
        <ele>731.0</ele>
        <time>2019-05-04T14:23:46Z</time>
      </trkpt>
      <trkpt lat="38.886050" lon="-5.951117">
        <ele>731.0</ele>
        <time>2019-05-04T14:23:47Z</time>
      </trkpt>
      <trkpt lat="38.886050" lon="-5.951000">
        <ele>729.0</ele>
        <time>2019-05-04T14:23:48Z</time>
      </trkpt>
      <trkpt lat="38.886050" lon="-5.950883">
        <ele>728.0</ele>
        <time>2019-05-04T14:23:49Z</time>
      </trkpt>
      <trkpt lat="38.886050" lon="-5.950750">
        <ele>726.0</ele>
        <time>2019-05-04T14:23:50Z</time>
      </trkpt>
      <trkpt lat="38.886050" lon="-5.950650">
        <ele>725.0</ele>
        <time>2019-05-04T14:23:51Z</time>
      </trkpt>
      <trkpt lat="38.886050" lon="-5.950533">
        <ele>723.0</ele>
        <time>2019-05-04T14:23:52Z</time>
      </trkpt>
      <trkpt lat="38.886050" lon="-5.950433">
        <ele>722.0</ele>
        <time>2019-05-04T14:23:53Z</time>
      </trkpt>
      <trkpt lat="38.886050" lon="-5.950300">
        <ele>720.0</ele>
        <time>2019-05-04T14:23:54Z</time>
      </trkpt>
      <trkpt lat="38.886033" lon="-5.950183">
        <ele>719.0</ele>
        <time>2019-05-04T14:23:55Z</time>
      </trkpt>
      <trkpt lat="38.886033" lon="-5.950083">
        <ele>718.0</ele>
        <time>2019-05-04T14:23:56Z</time>
      </trkpt>
      <trkpt lat="38.886033" lon="-5.949967">
        <ele>717.0</ele>
        <time>2019-05-04T14:23:57Z</time>
      </trkpt>
      <trkpt lat="38.886033" lon="-5.949867">
        <ele>716.0</ele>
        <time>2019-05-04T14:23:58Z</time>
      </trkpt>
      <trkpt lat="38.886033" lon="-5.949750">
        <ele>717.0</ele>
        <time>2019-05-04T14:23:59Z</time>
      </trkpt>
      <trkpt lat="38.886017" lon="-5.949650">
        <ele>717.0</ele>
        <time>2019-05-04T14:24:00Z</time>
      </trkpt>
      <trkpt lat="38.886000" lon="-5.949550">
        <ele>718.0</ele>
        <time>2019-05-04T14:24:01Z</time>
      </trkpt>
      <trkpt lat="38.886000" lon="-5.949467">
        <ele>722.0</ele>
        <time>2019-05-04T14:24:02Z</time>
      </trkpt>
      <trkpt lat="38.885983" lon="-5.949367">
        <ele>723.0</ele>
        <time>2019-05-04T14:24:03Z</time>
      </trkpt>
      <trkpt lat="38.885983" lon="-5.949250">
        <ele>724.0</ele>
        <time>2019-05-04T14:24:04Z</time>
      </trkpt>
      <trkpt lat="38.886000" lon="-5.949150">
        <ele>725.0</ele>
        <time>2019-05-04T14:24:05Z</time>
      </trkpt>
      <trkpt lat="38.886017" lon="-5.949050">
        <ele>727.0</ele>
        <time>2019-05-04T14:24:06Z</time>
      </trkpt>
      <trkpt lat="38.886033" lon="-5.948983">
        <ele>731.0</ele>
        <time>2019-05-04T14:24:07Z</time>
      </trkpt>
      <trkpt lat="38.886067" lon="-5.948950">
        <ele>735.0</ele>
        <time>2019-05-04T14:24:08Z</time>
      </trkpt>
      <trkpt lat="38.886100" lon="-5.948950">
        <ele>737.0</ele>
        <time>2019-05-04T14:24:09Z</time>
      </trkpt>
      <trkpt lat="38.886133" lon="-5.948967">
        <ele>739.0</ele>
        <time>2019-05-04T14:24:10Z</time>
      </trkpt>
      <trkpt lat="38.886150" lon="-5.949000">
        <ele>741.0</ele>
        <time>2019-05-04T14:24:11Z</time>
      </trkpt>
      <trkpt lat="38.886150" lon="-5.949067">
        <ele>742.0</ele>
        <time>2019-05-04T14:24:12Z</time>
      </trkpt>
      <trkpt lat="38.886133" lon="-5.949150">
        <ele>740.0</ele>
        <time>2019-05-04T14:24:13Z</time>
      </trkpt>
      <trkpt lat="38.886067" lon="-5.949233">
        <ele>741.0</ele>
        <time>2019-05-04T14:24:14Z</time>
      </trkpt>
      <trkpt lat="38.885983" lon="-5.949300">
        <ele>741.0</ele>
        <time>2019-05-04T14:24:15Z</time>
      </trkpt>
      <trkpt lat="38.885883" lon="-5.949317">
        <ele>741.0</ele>
        <time>2019-05-04T14:24:16Z</time>
      </trkpt>
      <trkpt lat="38.885767" lon="-5.949317">
        <ele>741.0</ele>
        <time>2019-05-04T14:24:17Z</time>
      </trkpt>
      <trkpt lat="38.885633" lon="-5.949300">
        <ele>741.0</ele>
        <time>2019-05-04T14:24:18Z</time>
      </trkpt>
      <trkpt lat="38.885517" lon="-5.949267">
        <ele>743.0</ele>
        <time>2019-05-04T14:24:19Z</time>
      </trkpt>
      <trkpt lat="38.885400" lon="-5.949233">
        <ele>745.0</ele>
        <time>2019-05-04T14:24:20Z</time>
      </trkpt>
      <trkpt lat="38.885283" lon="-5.949183">
        <ele>748.0</ele>
        <time>2019-05-04T14:24:21Z</time>
      </trkpt>
      <trkpt lat="38.885200" lon="-5.949100">
        <ele>749.0</ele>
        <time>2019-05-04T14:24:22Z</time>
      </trkpt>
      <trkpt lat="38.885133" lon="-5.949000">
        <ele>750.0</ele>
        <time>2019-05-04T14:24:23Z</time>
      </trkpt>
      <trkpt lat="38.885117" lon="-5.948900">
        <ele>752.0</ele>
        <time>2019-05-04T14:24:24Z</time>
      </trkpt>
      <trkpt lat="38.885117" lon="-5.948817">
        <ele>753.0</ele>
        <time>2019-05-04T14:24:25Z</time>
      </trkpt>
      <trkpt lat="38.885150" lon="-5.948750">
        <ele>754.0</ele>
        <time>2019-05-04T14:24:26Z</time>
      </trkpt>
      <trkpt lat="38.885200" lon="-5.948717">
        <ele>756.0</ele>
        <time>2019-05-04T14:24:27Z</time>
      </trkpt>
      <trkpt lat="38.885233" lon="-5.948750">
        <ele>759.0</ele>
        <time>2019-05-04T14:24:28Z</time>
      </trkpt>
      <trkpt lat="38.885250" lon="-5.948783">
        <ele>761.0</ele>
        <time>2019-05-04T14:24:29Z</time>
      </trkpt>
      <trkpt lat="38.885250" lon="-5.948833">
        <ele>763.0</ele>
        <time>2019-05-04T14:24:30Z</time>
      </trkpt>
      <trkpt lat="38.885250" lon="-5.948900">
        <ele>766.0</ele>
        <time>2019-05-04T14:24:31Z</time>
      </trkpt>
      <trkpt lat="38.885217" lon="-5.948967">
        <ele>768.0</ele>
        <time>2019-05-04T14:24:32Z</time>
      </trkpt>
      <trkpt lat="38.885183" lon="-5.949033">
        <ele>770.0</ele>
        <time>2019-05-04T14:24:33Z</time>
      </trkpt>
      <trkpt lat="38.885133" lon="-5.949117">
        <ele>771.0</ele>
        <time>2019-05-04T14:24:34Z</time>
      </trkpt>
      <trkpt lat="38.885050" lon="-5.949200">
        <ele>771.0</ele>
        <time>2019-05-04T14:24:35Z</time>
      </trkpt>
      <trkpt lat="38.884967" lon="-5.949300">
        <ele>772.0</ele>
        <time>2019-05-04T14:24:36Z</time>
      </trkpt>
      <trkpt lat="38.884850" lon="-5.949350">
        <ele>773.0</ele>
        <time>2019-05-04T14:24:37Z</time>
      </trkpt>
      <trkpt lat="38.884733" lon="-5.949367">
        <ele>774.0</ele>
        <time>2019-05-04T14:24:38Z</time>
      </trkpt>
      <trkpt lat="38.884600" lon="-5.949367">
        <ele>775.0</ele>
        <time>2019-05-04T14:24:39Z</time>
      </trkpt>
      <trkpt lat="38.884467" lon="-5.949333">
        <ele>775.0</ele>
        <time>2019-05-04T14:24:40Z</time>
      </trkpt>
      <trkpt lat="38.884350" lon="-5.949283">
        <ele>776.0</ele>
        <time>2019-05-04T14:24:41Z</time>
      </trkpt>
      <trkpt lat="38.884250" lon="-5.949183">
        <ele>776.0</ele>
        <time>2019-05-04T14:24:42Z</time>
      </trkpt>
      <trkpt lat="38.884183" lon="-5.949083">
        <ele>777.0</ele>
        <time>2019-05-04T14:24:43Z</time>
      </trkpt>
      <trkpt lat="38.884133" lon="-5.948950">
        <ele>777.0</ele>
        <time>2019-05-04T14:24:44Z</time>
      </trkpt>
      <trkpt lat="38.884117" lon="-5.948833">
        <ele>777.0</ele>
        <time>2019-05-04T14:24:45Z</time>
      </trkpt>
      <trkpt lat="38.884100" lon="-5.948733">
        <ele>778.0</ele>
        <time>2019-05-04T14:24:46Z</time>
      </trkpt>
      <trkpt lat="38.884100" lon="-5.948617">
        <ele>778.0</ele>
        <time>2019-05-04T14:24:47Z</time>
      </trkpt>
      <trkpt lat="38.884117" lon="-5.948517">
        <ele>778.0</ele>
        <time>2019-05-04T14:24:48Z</time>
      </trkpt>
      <trkpt lat="38.884150" lon="-5.948417">
        <ele>779.0</ele>
        <time>2019-05-04T14:24:49Z</time>
      </trkpt>
      <trkpt lat="38.884183" lon="-5.948350">
        <ele>779.0</ele>
        <time>2019-05-04T14:24:50Z</time>
      </trkpt>
      <trkpt lat="38.884217" lon="-5.948283">
        <ele>780.0</ele>
        <time>2019-05-04T14:24:51Z</time>
      </trkpt>
      <trkpt lat="38.884233" lon="-5.948217">
        <ele>781.0</ele>
        <time>2019-05-04T14:24:52Z</time>
      </trkpt>
      <trkpt lat="38.884267" lon="-5.948167">
        <ele>783.0</ele>
        <time>2019-05-04T14:24:53Z</time>
      </trkpt>
      <trkpt lat="38.884300" lon="-5.948117">
        <ele>784.0</ele>
        <time>2019-05-04T14:24:54Z</time>
      </trkpt>
      <trkpt lat="38.884333" lon="-5.948050">
        <ele>785.0</ele>
        <time>2019-05-04T14:24:55Z</time>
      </trkpt>
      <trkpt lat="38.884350" lon="-5.948017">
        <ele>786.0</ele>
        <time>2019-05-04T14:24:56Z</time>
      </trkpt>
      <trkpt lat="38.884383" lon="-5.947983">
        <ele>787.0</ele>
        <time>2019-05-04T14:24:57Z</time>
      </trkpt>
      <trkpt lat="38.884417" lon="-5.947950">
        <ele>788.0</ele>
        <time>2019-05-04T14:24:58Z</time>
      </trkpt>
      <trkpt lat="38.884450" lon="-5.947933">
        <ele>788.0</ele>
        <time>2019-05-04T14:24:59Z</time>
      </trkpt>
      <trkpt lat="38.884483" lon="-5.947917">
        <ele>789.0</ele>
        <time>2019-05-04T14:25:00Z</time>
      </trkpt>
      <trkpt lat="38.884533" lon="-5.947917">
        <ele>789.0</ele>
        <time>2019-05-04T14:25:01Z</time>
      </trkpt>
      <trkpt lat="38.884567" lon="-5.947933">
        <ele>790.0</ele>
        <time>2019-05-04T14:25:02Z</time>
      </trkpt>
      <trkpt lat="38.884600" lon="-5.947983">
        <ele>790.0</ele>
        <time>2019-05-04T14:25:03Z</time>
      </trkpt>
      <trkpt lat="38.884633" lon="-5.948067">
        <ele>790.0</ele>
        <time>2019-05-04T14:25:04Z</time>
      </trkpt>
      <trkpt lat="38.884650" lon="-5.948167">
        <ele>790.0</ele>
        <time>2019-05-04T14:25:05Z</time>
      </trkpt>
      <trkpt lat="38.884650" lon="-5.948283">
        <ele>791.0</ele>
        <time>2019-05-04T14:25:06Z</time>
      </trkpt>
      <trkpt lat="38.884600" lon="-5.948383">
        <ele>793.0</ele>
        <time>2019-05-04T14:25:07Z</time>
      </trkpt>
      <trkpt lat="38.884517" lon="-5.948483">
        <ele>794.0</ele>
        <time>2019-05-04T14:25:08Z</time>
      </trkpt>
      <trkpt lat="38.884417" lon="-5.948550">
        <ele>795.0</ele>
        <time>2019-05-04T14:25:09Z</time>
      </trkpt>
      <trkpt lat="38.884317" lon="-5.948617">
        <ele>796.0</ele>
        <time>2019-05-04T14:25:10Z</time>
      </trkpt>
      <trkpt lat="38.884200" lon="-5.948633">
        <ele>797.0</ele>
        <time>2019-05-04T14:25:11Z</time>
      </trkpt>
      <trkpt lat="38.884083" lon="-5.948633">
        <ele>797.0</ele>
        <time>2019-05-04T14:25:12Z</time>
      </trkpt>
      <trkpt lat="38.883967" lon="-5.948617">
        <ele>796.0</ele>
        <time>2019-05-04T14:25:13Z</time>
      </trkpt>
      <trkpt lat="38.883833" lon="-5.948567">
        <ele>796.0</ele>
        <time>2019-05-04T14:25:14Z</time>
      </trkpt>
      <trkpt lat="38.883733" lon="-5.948500">
        <ele>797.0</ele>
        <time>2019-05-04T14:25:15Z</time>
      </trkpt>
      <trkpt lat="38.883650" lon="-5.948417">
        <ele>798.0</ele>
        <time>2019-05-04T14:25:16Z</time>
      </trkpt>
      <trkpt lat="38.883600" lon="-5.948317">
        <ele>800.0</ele>
        <time>2019-05-04T14:25:17Z</time>
      </trkpt>
      <trkpt lat="38.883533" lon="-5.948233">
        <ele>800.0</ele>
        <time>2019-05-04T14:25:18Z</time>
      </trkpt>
      <trkpt lat="38.883500" lon="-5.948133">
        <ele>801.0</ele>
        <time>2019-05-04T14:25:19Z</time>
      </trkpt>
      <trkpt lat="38.883450" lon="-5.948033">
        <ele>801.0</ele>
        <time>2019-05-04T14:25:20Z</time>
      </trkpt>
      <trkpt lat="38.883433" lon="-5.947917">
        <ele>801.0</ele>
        <time>2019-05-04T14:25:21Z</time>
      </trkpt>
      <trkpt lat="38.883450" lon="-5.947817">
        <ele>802.0</ele>
        <time>2019-05-04T14:25:22Z</time>
      </trkpt>
      <trkpt lat="38.883483" lon="-5.947733">
        <ele>803.0</ele>
        <time>2019-05-04T14:25:23Z</time>
      </trkpt>
      <trkpt lat="38.883533" lon="-5.947700">
        <ele>804.0</ele>
        <time>2019-05-04T14:25:24Z</time>
      </trkpt>
      <trkpt lat="38.883583" lon="-5.947700">
        <ele>805.0</ele>
        <time>2019-05-04T14:25:25Z</time>
      </trkpt>
      <trkpt lat="38.883617" lon="-5.947717">
        <ele>808.0</ele>
        <time>2019-05-04T14:25:26Z</time>
      </trkpt>
      <trkpt lat="38.883650" lon="-5.947733">
        <ele>811.0</ele>
        <time>2019-05-04T14:25:27Z</time>
      </trkpt>
      <trkpt lat="38.883683" lon="-5.947783">
        <ele>813.0</ele>
        <time>2019-05-04T14:25:28Z</time>
      </trkpt>
      <trkpt lat="38.883717" lon="-5.947833">
        <ele>815.0</ele>
        <time>2019-05-04T14:25:29Z</time>
      </trkpt>
      <trkpt lat="38.883750" lon="-5.947867">
        <ele>817.0</ele>
        <time>2019-05-04T14:25:30Z</time>
      </trkpt>
      <trkpt lat="38.883800" lon="-5.947883">
        <ele>819.0</ele>
        <time>2019-05-04T14:25:31Z</time>
      </trkpt>
      <trkpt lat="38.883833" lon="-5.947850">
        <ele>820.0</ele>
        <time>2019-05-04T14:25:32Z</time>
      </trkpt>
      <trkpt lat="38.883867" lon="-5.947800">
        <ele>820.0</ele>
        <time>2019-05-04T14:25:33Z</time>
      </trkpt>
      <trkpt lat="38.883900" lon="-5.947717">
        <ele>820.0</ele>
        <time>2019-05-04T14:25:34Z</time>
      </trkpt>
      <trkpt lat="38.883900" lon="-5.947617">
        <ele>821.0</ele>
        <time>2019-05-04T14:25:35Z</time>
      </trkpt>
      <trkpt lat="38.883867" lon="-5.947517">
        <ele>823.0</ele>
        <time>2019-05-04T14:25:36Z</time>
      </trkpt>
      <trkpt lat="38.883800" lon="-5.947417">
        <ele>823.0</ele>
        <time>2019-05-04T14:25:37Z</time>
      </trkpt>
      <trkpt lat="38.883700" lon="-5.947350">
        <ele>824.0</ele>
        <time>2019-05-04T14:25:38Z</time>
      </trkpt>
      <trkpt lat="38.883583" lon="-5.947350">
        <ele>825.0</ele>
        <time>2019-05-04T14:25:39Z</time>
      </trkpt>
      <trkpt lat="38.883467" lon="-5.947383">
        <ele>825.0</ele>
        <time>2019-05-04T14:25:40Z</time>
      </trkpt>
      <trkpt lat="38.883367" lon="-5.947450">
        <ele>825.0</ele>
        <time>2019-05-04T14:25:41Z</time>
      </trkpt>
      <trkpt lat="38.883300" lon="-5.947567">
        <ele>826.0</ele>
        <time>2019-05-04T14:25:42Z</time>
      </trkpt>
      <trkpt lat="38.883267" lon="-5.947683">
        <ele>828.0</ele>
        <time>2019-05-04T14:25:43Z</time>
      </trkpt>
      <trkpt lat="38.883267" lon="-5.947783">
        <ele>830.0</ele>
        <time>2019-05-04T14:25:44Z</time>
      </trkpt>
      <trkpt lat="38.883267" lon="-5.947867">
        <ele>831.0</ele>
        <time>2019-05-04T14:25:45Z</time>
      </trkpt>
      <trkpt lat="38.883283" lon="-5.947933">
        <ele>832.0</ele>
        <time>2019-05-04T14:25:46Z</time>
      </trkpt>
      <trkpt lat="38.883300" lon="-5.948000">
        <ele>834.0</ele>
        <time>2019-05-04T14:25:47Z</time>
      </trkpt>
      <trkpt lat="38.883333" lon="-5.948033">
        <ele>835.0</ele>
        <time>2019-05-04T14:25:48Z</time>
      </trkpt>
      <trkpt lat="38.883367" lon="-5.948050">
        <ele>835.0</ele>
        <time>2019-05-04T14:25:49Z</time>
      </trkpt>
      <trkpt lat="38.883400" lon="-5.948017">
        <ele>836.0</ele>
        <time>2019-05-04T14:25:50Z</time>
      </trkpt>
      <trkpt lat="38.883433" lon="-5.947933">
        <ele>836.0</ele>
        <time>2019-05-04T14:25:51Z</time>
      </trkpt>
      <trkpt lat="38.883417" lon="-5.947833">
        <ele>836.0</ele>
        <time>2019-05-04T14:25:52Z</time>
      </trkpt>
      <trkpt lat="38.883367" lon="-5.947717">
        <ele>836.0</ele>
        <time>2019-05-04T14:25:53Z</time>
      </trkpt>
      <trkpt lat="38.883283" lon="-5.947633">
        <ele>837.0</ele>
        <time>2019-05-04T14:25:54Z</time>
      </trkpt>
      <trkpt lat="38.883183" lon="-5.947567">
        <ele>839.0</ele>
        <time>2019-05-04T14:25:55Z</time>
      </trkpt>
      <trkpt lat="38.883083" lon="-5.947533">
        <ele>841.0</ele>
        <time>2019-05-04T14:25:56Z</time>
      </trkpt>
      <trkpt lat="38.882967" lon="-5.947533">
        <ele>842.0</ele>
        <time>2019-05-04T14:25:57Z</time>
      </trkpt>
      <trkpt lat="38.882850" lon="-5.947567">
        <ele>843.0</ele>
        <time>2019-05-04T14:25:58Z</time>
      </trkpt>
      <trkpt lat="38.882750" lon="-5.947633">
        <ele>844.0</ele>
        <time>2019-05-04T14:25:59Z</time>
      </trkpt>
      <trkpt lat="38.882700" lon="-5.947717">
        <ele>847.0</ele>
        <time>2019-05-04T14:26:00Z</time>
      </trkpt>
      <trkpt lat="38.882667" lon="-5.947817">
        <ele>849.0</ele>
        <time>2019-05-04T14:26:01Z</time>
      </trkpt>
      <trkpt lat="38.882667" lon="-5.947917">
        <ele>850.0</ele>
        <time>2019-05-04T14:26:02Z</time>
      </trkpt>
      <trkpt lat="38.882683" lon="-5.947983">
        <ele>852.0</ele>
        <time>2019-05-04T14:26:03Z</time>
      </trkpt>
      <trkpt lat="38.882717" lon="-5.948017">
        <ele>853.0</ele>
        <time>2019-05-04T14:26:04Z</time>
      </trkpt>
      <trkpt lat="38.882750" lon="-5.948033">
        <ele>854.0</ele>
        <time>2019-05-04T14:26:05Z</time>
      </trkpt>
      <trkpt lat="38.882783" lon="-5.948000">
        <ele>856.0</ele>
        <time>2019-05-04T14:26:06Z</time>
      </trkpt>
      <trkpt lat="38.882800" lon="-5.947950">
        <ele>856.0</ele>
        <time>2019-05-04T14:26:07Z</time>
      </trkpt>
      <trkpt lat="38.882817" lon="-5.947867">
        <ele>857.0</ele>
        <time>2019-05-04T14:26:08Z</time>
      </trkpt>
      <trkpt lat="38.882800" lon="-5.947783">
        <ele>857.0</ele>
        <time>2019-05-04T14:26:09Z</time>
      </trkpt>
      <trkpt lat="38.882767" lon="-5.947683">
        <ele>858.0</ele>
        <time>2019-05-04T14:26:10Z</time>
      </trkpt>
      <trkpt lat="38.882717" lon="-5.947600">
        <ele>858.0</ele>
        <time>2019-05-04T14:26:11Z</time>
      </trkpt>
      <trkpt lat="38.882617" lon="-5.947533">
        <ele>859.0</ele>
        <time>2019-05-04T14:26:12Z</time>
      </trkpt>
      <trkpt lat="38.882500" lon="-5.947500">
        <ele>859.0</ele>
        <time>2019-05-04T14:26:13Z</time>
      </trkpt>
      <trkpt lat="38.882383" lon="-5.947550">
        <ele>859.0</ele>
        <time>2019-05-04T14:26:14Z</time>
      </trkpt>
      <trkpt lat="38.882283" lon="-5.947617">
        <ele>860.0</ele>
        <time>2019-05-04T14:26:15Z</time>
      </trkpt>
      <trkpt lat="38.882217" lon="-5.947717">
        <ele>861.0</ele>
        <time>2019-05-04T14:26:16Z</time>
      </trkpt>
      <trkpt lat="38.882183" lon="-5.947817">
        <ele>862.0</ele>
        <time>2019-05-04T14:26:17Z</time>
      </trkpt>
      <trkpt lat="38.882167" lon="-5.947917">
        <ele>863.0</ele>
        <time>2019-05-04T14:26:18Z</time>
      </trkpt>
      <trkpt lat="38.882183" lon="-5.947983">
        <ele>864.0</ele>
        <time>2019-05-04T14:26:19Z</time>
      </trkpt>
      <trkpt lat="38.882217" lon="-5.948050">
        <ele>866.0</ele>
        <time>2019-05-04T14:26:20Z</time>
      </trkpt>
      <trkpt lat="38.882250" lon="-5.948067">
        <ele>866.0</ele>
        <time>2019-05-04T14:26:21Z</time>
      </trkpt>
      <trkpt lat="38.882300" lon="-5.948050">
        <ele>866.0</ele>
        <time>2019-05-04T14:26:22Z</time>
      </trkpt>
      <trkpt lat="38.882317" lon="-5.948017">
        <ele>866.0</ele>
        <time>2019-05-04T14:26:23Z</time>
      </trkpt>
      <trkpt lat="38.882333" lon="-5.947967">
        <ele>866.0</ele>
        <time>2019-05-04T14:26:24Z</time>
      </trkpt>
      <trkpt lat="38.882333" lon="-5.947900">
        <ele>866.0</ele>
        <time>2019-05-04T14:26:25Z</time>
      </trkpt>
      <trkpt lat="38.882317" lon="-5.947817">
        <ele>866.0</ele>
        <time>2019-05-04T14:26:26Z</time>
      </trkpt>
      <trkpt lat="38.882250" lon="-5.947700">
        <ele>865.0</ele>
        <time>2019-05-04T14:26:27Z</time>
      </trkpt>
      <trkpt lat="38.882133" lon="-5.947600">
        <ele>863.0</ele>
        <time>2019-05-04T14:26:28Z</time>
      </trkpt>
      <trkpt lat="38.882000" lon="-5.947550">
        <ele>861.0</ele>
        <time>2019-05-04T14:26:29Z</time>
      </trkpt>
      <trkpt lat="38.881850" lon="-5.947533">
        <ele>863.0</ele>
        <time>2019-05-04T14:26:30Z</time>
      </trkpt>
      <trkpt lat="38.881750" lon="-5.947533">
        <ele>866.0</ele>
        <time>2019-05-04T14:26:31Z</time>
      </trkpt>
      <trkpt lat="38.881650" lon="-5.947550">
        <ele>870.0</ele>
        <time>2019-05-04T14:26:32Z</time>
      </trkpt>
      <trkpt lat="38.881550" lon="-5.947567">
        <ele>872.0</ele>
        <time>2019-05-04T14:26:33Z</time>
      </trkpt>
      <trkpt lat="38.881450" lon="-5.947583">
        <ele>873.0</ele>
        <time>2019-05-04T14:26:34Z</time>
      </trkpt>
      <trkpt lat="38.881350" lon="-5.947650">
        <ele>873.0</ele>
        <time>2019-05-04T14:26:35Z</time>
      </trkpt>
      <trkpt lat="38.881267" lon="-5.947733">
        <ele>874.0</ele>
        <time>2019-05-04T14:26:36Z</time>
      </trkpt>
      <trkpt lat="38.881217" lon="-5.947833">
        <ele>874.0</ele>
        <time>2019-05-04T14:26:37Z</time>
      </trkpt>
      <trkpt lat="38.881217" lon="-5.947933">
        <ele>875.0</ele>
        <time>2019-05-04T14:26:38Z</time>
      </trkpt>
      <trkpt lat="38.881233" lon="-5.948000">
        <ele>875.0</ele>
        <time>2019-05-04T14:26:39Z</time>
      </trkpt>
      <trkpt lat="38.881267" lon="-5.948050">
        <ele>876.0</ele>
        <time>2019-05-04T14:26:40Z</time>
      </trkpt>
      <trkpt lat="38.881300" lon="-5.948050">
        <ele>877.0</ele>
        <time>2019-05-04T14:26:41Z</time>
      </trkpt>
      <trkpt lat="38.881350" lon="-5.948017">
        <ele>877.0</ele>
        <time>2019-05-04T14:26:42Z</time>
      </trkpt>
      <trkpt lat="38.881383" lon="-5.947950">
        <ele>876.0</ele>
        <time>2019-05-04T14:26:43Z</time>
      </trkpt>
      <trkpt lat="38.881367" lon="-5.947850">
        <ele>876.0</ele>
        <time>2019-05-04T14:26:44Z</time>
      </trkpt>
      <trkpt lat="38.881317" lon="-5.947767">
        <ele>876.0</ele>
        <time>2019-05-04T14:26:45Z</time>
      </trkpt>
      <trkpt lat="38.881233" lon="-5.947700">
        <ele>876.0</ele>
        <time>2019-05-04T14:26:46Z</time>
      </trkpt>
      <trkpt lat="38.881150" lon="-5.947617">
        <ele>876.0</ele>
        <time>2019-05-04T14:26:47Z</time>
      </trkpt>
      <trkpt lat="38.881050" lon="-5.947567">
        <ele>877.0</ele>
        <time>2019-05-04T14:26:48Z</time>
      </trkpt>
      <trkpt lat="38.880950" lon="-5.947517">
        <ele>877.0</ele>
        <time>2019-05-04T14:26:49Z</time>
      </trkpt>
      <trkpt lat="38.880850" lon="-5.947500">
        <ele>878.0</ele>
        <time>2019-05-04T14:26:50Z</time>
      </trkpt>
      <trkpt lat="38.880767" lon="-5.947517">
        <ele>878.0</ele>
        <time>2019-05-04T14:26:51Z</time>
      </trkpt>
      <trkpt lat="38.880683" lon="-5.947583">
        <ele>878.0</ele>
        <time>2019-05-04T14:26:52Z</time>
      </trkpt>
      <trkpt lat="38.880633" lon="-5.947667">
        <ele>878.0</ele>
        <time>2019-05-04T14:26:53Z</time>
      </trkpt>
      <trkpt lat="38.880600" lon="-5.947750">
        <ele>878.0</ele>
        <time>2019-05-04T14:26:54Z</time>
      </trkpt>
      <trkpt lat="38.880600" lon="-5.947817">
        <ele>878.0</ele>
        <time>2019-05-04T14:26:55Z</time>
      </trkpt>
      <trkpt lat="38.880633" lon="-5.947883">
        <ele>878.0</ele>
        <time>2019-05-04T14:26:56Z</time>
      </trkpt>
      <trkpt lat="38.880683" lon="-5.947900">
        <ele>878.0</ele>
        <time>2019-05-04T14:26:57Z</time>
      </trkpt>
      <trkpt lat="38.880717" lon="-5.947883">
        <ele>878.0</ele>
        <time>2019-05-04T14:26:58Z</time>
      </trkpt>
      <trkpt lat="38.880750" lon="-5.947817">
        <ele>878.0</ele>
        <time>2019-05-04T14:26:59Z</time>
      </trkpt>
      <trkpt lat="38.880750" lon="-5.947750">
        <ele>877.0</ele>
        <time>2019-05-04T14:27:00Z</time>
      </trkpt>
      <trkpt lat="38.880767" lon="-5.947683">
        <ele>877.0</ele>
        <time>2019-05-04T14:27:01Z</time>
      </trkpt>
      <trkpt lat="38.880800" lon="-5.947633">
        <ele>877.0</ele>
        <time>2019-05-04T14:27:02Z</time>
      </trkpt>
      <trkpt lat="38.880833" lon="-5.947600">
        <ele>876.0</ele>
        <time>2019-05-04T14:27:03Z</time>
      </trkpt>
      <trkpt lat="38.880867" lon="-5.947567">
        <ele>877.0</ele>
        <time>2019-05-04T14:27:04Z</time>
      </trkpt>
      <trkpt lat="38.880883" lon="-5.947550">
        <ele>877.0</ele>
        <time>2019-05-04T14:27:05Z</time>
      </trkpt>
      <trkpt lat="38.880900" lon="-5.947550">
        <ele>878.0</ele>
        <time>2019-05-04T14:27:06Z</time>
      </trkpt>
      <trkpt lat="38.880917" lon="-5.947533">
        <ele>877.0</ele>
        <time>2019-05-04T14:27:07Z</time>
      </trkpt>
      <trkpt lat="38.880950" lon="-5.947500">
        <ele>876.0</ele>
        <time>2019-05-04T14:27:08Z</time>
      </trkpt>
      <trkpt lat="38.880983" lon="-5.947450">
        <ele>875.0</ele>
        <time>2019-05-04T14:27:09Z</time>
      </trkpt>
      <trkpt lat="38.881017" lon="-5.947400">
        <ele>873.0</ele>
        <time>2019-05-04T14:27:10Z</time>
      </trkpt>
      <trkpt lat="38.881067" lon="-5.947383">
        <ele>873.0</ele>
        <time>2019-05-04T14:27:11Z</time>
      </trkpt>
      <trkpt lat="38.881100" lon="-5.947367">
        <ele>872.0</ele>
        <time>2019-05-04T14:27:12Z</time>
      </trkpt>
      <trkpt lat="38.881133" lon="-5.947383">
        <ele>871.0</ele>
        <time>2019-05-04T14:27:13Z</time>
      </trkpt>
      <trkpt lat="38.881167" lon="-5.947400">
        <ele>869.0</ele>
        <time>2019-05-04T14:27:14Z</time>
      </trkpt>
      <trkpt lat="38.881200" lon="-5.947417">
        <ele>868.0</ele>
        <time>2019-05-04T14:27:15Z</time>
      </trkpt>
      <trkpt lat="38.881217" lon="-5.947450">
        <ele>870.0</ele>
        <time>2019-05-04T14:27:16Z</time>
      </trkpt>
      <trkpt lat="38.881250" lon="-5.947467">
        <ele>869.0</ele>
        <time>2019-05-04T14:27:17Z</time>
      </trkpt>
      <trkpt lat="38.881283" lon="-5.947450">
        <ele>869.0</ele>
        <time>2019-05-04T14:27:18Z</time>
      </trkpt>
      <trkpt lat="38.881317" lon="-5.947433">
        <ele>868.0</ele>
        <time>2019-05-04T14:27:19Z</time>
      </trkpt>
      <trkpt lat="38.881350" lon="-5.947400">
        <ele>866.0</ele>
        <time>2019-05-04T14:27:20Z</time>
      </trkpt>
      <trkpt lat="38.881400" lon="-5.947350">
        <ele>863.0</ele>
        <time>2019-05-04T14:27:21Z</time>
      </trkpt>
      <trkpt lat="38.881450" lon="-5.947300">
        <ele>861.0</ele>
        <time>2019-05-04T14:27:22Z</time>
      </trkpt>
      <trkpt lat="38.881483" lon="-5.947250">
        <ele>859.0</ele>
        <time>2019-05-04T14:27:23Z</time>
      </trkpt>
      <trkpt lat="38.881533" lon="-5.947200">
        <ele>858.0</ele>
        <time>2019-05-04T14:27:24Z</time>
      </trkpt>
      <trkpt lat="38.881583" lon="-5.947133">
        <ele>856.0</ele>
        <time>2019-05-04T14:27:25Z</time>
      </trkpt>
      <trkpt lat="38.881633" lon="-5.947067">
        <ele>854.0</ele>
        <time>2019-05-04T14:27:26Z</time>
      </trkpt>
      <trkpt lat="38.881700" lon="-5.947000">
        <ele>852.0</ele>
        <time>2019-05-04T14:27:27Z</time>
      </trkpt>
      <trkpt lat="38.881750" lon="-5.946933">
        <ele>850.0</ele>
        <time>2019-05-04T14:27:28Z</time>
      </trkpt>
      <trkpt lat="38.881800" lon="-5.946867">
        <ele>849.0</ele>
        <time>2019-05-04T14:27:29Z</time>
      </trkpt>
      <trkpt lat="38.881833" lon="-5.946800">
        <ele>848.0</ele>
        <time>2019-05-04T14:27:30Z</time>
      </trkpt>
      <trkpt lat="38.881883" lon="-5.946750">
        <ele>848.0</ele>
        <time>2019-05-04T14:27:31Z</time>
      </trkpt>
      <trkpt lat="38.881917" lon="-5.946700">
        <ele>847.0</ele>
        <time>2019-05-04T14:27:32Z</time>
      </trkpt>
      <trkpt lat="38.881950" lon="-5.946650">
        <ele>847.0</ele>
        <time>2019-05-04T14:27:33Z</time>
      </trkpt>
      <trkpt lat="38.881983" lon="-5.946583">
        <ele>846.0</ele>
        <time>2019-05-04T14:27:34Z</time>
      </trkpt>
      <trkpt lat="38.882033" lon="-5.946517">
        <ele>845.0</ele>
        <time>2019-05-04T14:27:35Z</time>
      </trkpt>
      <trkpt lat="38.882067" lon="-5.946467">
        <ele>845.0</ele>
        <time>2019-05-04T14:27:36Z</time>
      </trkpt>
      <trkpt lat="38.882083" lon="-5.946417">
        <ele>845.0</ele>
        <time>2019-05-04T14:27:37Z</time>
      </trkpt>
      <trkpt lat="38.882117" lon="-5.946367">
        <ele>847.0</ele>
        <time>2019-05-04T14:27:38Z</time>
      </trkpt>
      <trkpt lat="38.882133" lon="-5.946317">
        <ele>848.0</ele>
        <time>2019-05-04T14:27:39Z</time>
      </trkpt>
      <trkpt lat="38.882167" lon="-5.946250">
        <ele>849.0</ele>
        <time>2019-05-04T14:27:40Z</time>
      </trkpt>
      <trkpt lat="38.882150" lon="-5.946150">
        <ele>850.0</ele>
        <time>2019-05-04T14:27:41Z</time>
      </trkpt>
      <trkpt lat="38.882117" lon="-5.946067">
        <ele>850.0</ele>
        <time>2019-05-04T14:27:42Z</time>
      </trkpt>
      <trkpt lat="38.882033" lon="-5.945983">
        <ele>848.0</ele>
        <time>2019-05-04T14:27:43Z</time>
      </trkpt>
      <trkpt lat="38.881933" lon="-5.945917">
        <ele>848.0</ele>
        <time>2019-05-04T14:27:44Z</time>
      </trkpt>
      <trkpt lat="38.881833" lon="-5.945867">
        <ele>849.0</ele>
        <time>2019-05-04T14:27:45Z</time>
      </trkpt>
      <trkpt lat="38.881733" lon="-5.945833">
        <ele>852.0</ele>
        <time>2019-05-04T14:27:46Z</time>
      </trkpt>
      <trkpt lat="38.881633" lon="-5.945850">
        <ele>853.0</ele>
        <time>2019-05-04T14:27:47Z</time>
      </trkpt>
      <trkpt lat="38.881533" lon="-5.945900">
        <ele>852.0</ele>
        <time>2019-05-04T14:27:48Z</time>
      </trkpt>
      <trkpt lat="38.881450" lon="-5.945967">
        <ele>852.0</ele>
        <time>2019-05-04T14:27:49Z</time>
      </trkpt>
      <trkpt lat="38.881367" lon="-5.946067">
        <ele>853.0</ele>
        <time>2019-05-04T14:27:50Z</time>
      </trkpt>
      <trkpt lat="38.881333" lon="-5.946183">
        <ele>853.0</ele>
        <time>2019-05-04T14:27:51Z</time>
      </trkpt>
      <trkpt lat="38.881317" lon="-5.946283">
        <ele>853.0</ele>
        <time>2019-05-04T14:27:52Z</time>
      </trkpt>
      <trkpt lat="38.881333" lon="-5.946367">
        <ele>853.0</ele>
        <time>2019-05-04T14:27:53Z</time>
      </trkpt>
      <trkpt lat="38.881383" lon="-5.946417">
        <ele>853.0</ele>
        <time>2019-05-04T14:27:54Z</time>
      </trkpt>
      <trkpt lat="38.881417" lon="-5.946450">
        <ele>854.0</ele>
        <time>2019-05-04T14:27:55Z</time>
      </trkpt>
      <trkpt lat="38.881450" lon="-5.946450">
        <ele>853.0</ele>
        <time>2019-05-04T14:27:56Z</time>
      </trkpt>
      <trkpt lat="38.881500" lon="-5.946417">
        <ele>853.0</ele>
        <time>2019-05-04T14:27:57Z</time>
      </trkpt>
      <trkpt lat="38.881533" lon="-5.946350">
        <ele>853.0</ele>
        <time>2019-05-04T14:27:58Z</time>
      </trkpt>
      <trkpt lat="38.881567" lon="-5.946283">
        <ele>853.0</ele>
        <time>2019-05-04T14:27:59Z</time>
      </trkpt>
      <trkpt lat="38.881600" lon="-5.946217">
        <ele>854.0</ele>
        <time>2019-05-04T14:28:00Z</time>
      </trkpt>
      <trkpt lat="38.881617" lon="-5.946133">
        <ele>854.0</ele>
        <time>2019-05-04T14:28:01Z</time>
      </trkpt>
      <trkpt lat="38.881617" lon="-5.946067">
        <ele>855.0</ele>
        <time>2019-05-04T14:28:02Z</time>
      </trkpt>
      <trkpt lat="38.881617" lon="-5.945983">
        <ele>855.0</ele>
        <time>2019-05-04T14:28:03Z</time>
      </trkpt>
      <trkpt lat="38.881600" lon="-5.945883">
        <ele>856.0</ele>
        <time>2019-05-04T14:28:04Z</time>
      </trkpt>
      <trkpt lat="38.881583" lon="-5.945767">
        <ele>856.0</ele>
        <time>2019-05-04T14:28:05Z</time>
      </trkpt>
      <trkpt lat="38.881550" lon="-5.945667">
        <ele>856.0</ele>
        <time>2019-05-04T14:28:06Z</time>
      </trkpt>
      <trkpt lat="38.881500" lon="-5.945583">
        <ele>857.0</ele>
        <time>2019-05-04T14:28:07Z</time>
      </trkpt>
      <trkpt lat="38.881433" lon="-5.945517">
        <ele>858.0</ele>
        <time>2019-05-04T14:28:08Z</time>
      </trkpt>
      <trkpt lat="38.881350" lon="-5.945450">
        <ele>858.0</ele>
        <time>2019-05-04T14:28:09Z</time>
      </trkpt>
      <trkpt lat="38.881250" lon="-5.945417">
        <ele>858.0</ele>
        <time>2019-05-04T14:28:10Z</time>
      </trkpt>
      <trkpt lat="38.881150" lon="-5.945383">
        <ele>857.0</ele>
        <time>2019-05-04T14:28:11Z</time>
      </trkpt>
      <trkpt lat="38.881050" lon="-5.945400">
        <ele>858.0</ele>
        <time>2019-05-04T14:28:12Z</time>
      </trkpt>
      <trkpt lat="38.880967" lon="-5.945433">
        <ele>858.0</ele>
        <time>2019-05-04T14:28:13Z</time>
      </trkpt>
      <trkpt lat="38.880883" lon="-5.945500">
        <ele>858.0</ele>
        <time>2019-05-04T14:28:14Z</time>
      </trkpt>
      <trkpt lat="38.880833" lon="-5.945583">
        <ele>858.0</ele>
        <time>2019-05-04T14:28:15Z</time>
      </trkpt>
      <trkpt lat="38.880783" lon="-5.945667">
        <ele>858.0</ele>
        <time>2019-05-04T14:28:16Z</time>
      </trkpt>
      <trkpt lat="38.880767" lon="-5.945767">
        <ele>858.0</ele>
        <time>2019-05-04T14:28:17Z</time>
      </trkpt>
      <trkpt lat="38.880767" lon="-5.945850">
        <ele>858.0</ele>
        <time>2019-05-04T14:28:18Z</time>
      </trkpt>
      <trkpt lat="38.880800" lon="-5.945933">
        <ele>858.0</ele>
        <time>2019-05-04T14:28:19Z</time>
      </trkpt>
      <trkpt lat="38.880850" lon="-5.945983">
        <ele>858.0</ele>
        <time>2019-05-04T14:28:20Z</time>
      </trkpt>
      <trkpt lat="38.880900" lon="-5.946000">
        <ele>858.0</ele>
        <time>2019-05-04T14:28:21Z</time>
      </trkpt>
      <trkpt lat="38.880933" lon="-5.946017">
        <ele>859.0</ele>
        <time>2019-05-04T14:28:22Z</time>
      </trkpt>
      <trkpt lat="38.880967" lon="-5.946017">
        <ele>861.0</ele>
        <time>2019-05-04T14:28:23Z</time>
      </trkpt>
      <trkpt lat="38.881000" lon="-5.946033">
        <ele>862.0</ele>
        <time>2019-05-04T14:28:24Z</time>
      </trkpt>
      <trkpt lat="38.881033" lon="-5.946033">
        <ele>862.0</ele>
        <time>2019-05-04T14:28:25Z</time>
      </trkpt>
      <trkpt lat="38.881083" lon="-5.946000">
        <ele>861.0</ele>
        <time>2019-05-04T14:28:26Z</time>
      </trkpt>
      <trkpt lat="38.881117" lon="-5.945933">
        <ele>861.0</ele>
        <time>2019-05-04T14:28:27Z</time>
      </trkpt>
      <trkpt lat="38.881117" lon="-5.945833">
        <ele>860.0</ele>
        <time>2019-05-04T14:28:28Z</time>
      </trkpt>
      <trkpt lat="38.881117" lon="-5.945733">
        <ele>860.0</ele>
        <time>2019-05-04T14:28:29Z</time>
      </trkpt>
      <trkpt lat="38.881067" lon="-5.945633">
        <ele>860.0</ele>
        <time>2019-05-04T14:28:30Z</time>
      </trkpt>
      <trkpt lat="38.881033" lon="-5.945533">
        <ele>861.0</ele>
        <time>2019-05-04T14:28:31Z</time>
      </trkpt>
      <trkpt lat="38.880983" lon="-5.945450">
        <ele>862.0</ele>
        <time>2019-05-04T14:28:32Z</time>
      </trkpt>
      <trkpt lat="38.880933" lon="-5.945367">
        <ele>863.0</ele>
        <time>2019-05-04T14:28:33Z</time>
      </trkpt>
      <trkpt lat="38.880883" lon="-5.945267">
        <ele>864.0</ele>
        <time>2019-05-04T14:28:34Z</time>
      </trkpt>
      <trkpt lat="38.880833" lon="-5.945150">
        <ele>863.0</ele>
        <time>2019-05-04T14:28:35Z</time>
      </trkpt>
      <trkpt lat="38.880800" lon="-5.945050">
        <ele>864.0</ele>
        <time>2019-05-04T14:28:36Z</time>
      </trkpt>
      <trkpt lat="38.880783" lon="-5.944950">
        <ele>864.0</ele>
        <time>2019-05-04T14:28:37Z</time>
      </trkpt>
      <trkpt lat="38.880783" lon="-5.944850">
        <ele>864.0</ele>
        <time>2019-05-04T14:28:38Z</time>
      </trkpt>
      <trkpt lat="38.880800" lon="-5.944767">
        <ele>864.0</ele>
        <time>2019-05-04T14:28:39Z</time>
      </trkpt>
      <trkpt lat="38.880817" lon="-5.944683">
        <ele>864.0</ele>
        <time>2019-05-04T14:28:40Z</time>
      </trkpt>
      <trkpt lat="38.880850" lon="-5.944617">
        <ele>864.0</ele>
        <time>2019-05-04T14:28:41Z</time>
      </trkpt>
      <trkpt lat="38.880883" lon="-5.944550">
        <ele>864.0</ele>
        <time>2019-05-04T14:28:42Z</time>
      </trkpt>
      <trkpt lat="38.880917" lon="-5.944483">
        <ele>864.0</ele>
        <time>2019-05-04T14:28:43Z</time>
      </trkpt>
      <trkpt lat="38.880950" lon="-5.944400">
        <ele>863.0</ele>
        <time>2019-05-04T14:28:44Z</time>
      </trkpt>
      <trkpt lat="38.880967" lon="-5.944333">
        <ele>863.0</ele>
        <time>2019-05-04T14:28:45Z</time>
      </trkpt>
      <trkpt lat="38.881017" lon="-5.944267">
        <ele>864.0</ele>
        <time>2019-05-04T14:28:46Z</time>
      </trkpt>
      <trkpt lat="38.881050" lon="-5.944200">
        <ele>863.0</ele>
        <time>2019-05-04T14:28:47Z</time>
      </trkpt>
      <trkpt lat="38.881100" lon="-5.944133">
        <ele>863.0</ele>
        <time>2019-05-04T14:28:48Z</time>
      </trkpt>
      <trkpt lat="38.881133" lon="-5.944083">
        <ele>864.0</ele>
        <time>2019-05-04T14:28:49Z</time>
      </trkpt>
      <trkpt lat="38.881150" lon="-5.944033">
        <ele>866.0</ele>
        <time>2019-05-04T14:28:50Z</time>
      </trkpt>
      <trkpt lat="38.881183" lon="-5.943983">
        <ele>867.0</ele>
        <time>2019-05-04T14:28:51Z</time>
      </trkpt>
      <trkpt lat="38.881217" lon="-5.943917">
        <ele>866.0</ele>
        <time>2019-05-04T14:28:52Z</time>
      </trkpt>
      <trkpt lat="38.881233" lon="-5.943833">
        <ele>866.0</ele>
        <time>2019-05-04T14:28:53Z</time>
      </trkpt>
      <trkpt lat="38.881217" lon="-5.943733">
        <ele>866.0</ele>
        <time>2019-05-04T14:28:54Z</time>
      </trkpt>
      <trkpt lat="38.881183" lon="-5.943617">
        <ele>865.0</ele>
        <time>2019-05-04T14:28:55Z</time>
      </trkpt>
      <trkpt lat="38.881117" lon="-5.943533">
        <ele>866.0</ele>
        <time>2019-05-04T14:28:56Z</time>
      </trkpt>
      <trkpt lat="38.881050" lon="-5.943467">
        <ele>866.0</ele>
        <time>2019-05-04T14:28:57Z</time>
      </trkpt>
      <trkpt lat="38.880950" lon="-5.943417">
        <ele>868.0</ele>
        <time>2019-05-04T14:28:58Z</time>
      </trkpt>
      <trkpt lat="38.880850" lon="-5.943400">
        <ele>868.0</ele>
        <time>2019-05-04T14:28:59Z</time>
      </trkpt>
      <trkpt lat="38.880750" lon="-5.943433">
        <ele>868.0</ele>
        <time>2019-05-04T14:29:00Z</time>
      </trkpt>
      <trkpt lat="38.880683" lon="-5.943517">
        <ele>868.0</ele>
        <time>2019-05-04T14:29:01Z</time>
      </trkpt>
      <trkpt lat="38.880633" lon="-5.943617">
        <ele>869.0</ele>
        <time>2019-05-04T14:29:02Z</time>
      </trkpt>
      <trkpt lat="38.880617" lon="-5.943717">
        <ele>870.0</ele>
        <time>2019-05-04T14:29:03Z</time>
      </trkpt>
      <trkpt lat="38.880633" lon="-5.943817">
        <ele>871.0</ele>
        <time>2019-05-04T14:29:04Z</time>
      </trkpt>
      <trkpt lat="38.880650" lon="-5.943883">
        <ele>872.0</ele>
        <time>2019-05-04T14:29:05Z</time>
      </trkpt>
      <trkpt lat="38.880700" lon="-5.943933">
        <ele>874.0</ele>
        <time>2019-05-04T14:29:06Z</time>
      </trkpt>
      <trkpt lat="38.880750" lon="-5.943967">
        <ele>874.0</ele>
        <time>2019-05-04T14:29:07Z</time>
      </trkpt>
      <trkpt lat="38.880817" lon="-5.943933">
        <ele>875.0</ele>
        <time>2019-05-04T14:29:08Z</time>
      </trkpt>
      <trkpt lat="38.880850" lon="-5.943867">
        <ele>876.0</ele>
        <time>2019-05-04T14:29:09Z</time>
      </trkpt>
      <trkpt lat="38.880867" lon="-5.943783">
        <ele>877.0</ele>
        <time>2019-05-04T14:29:10Z</time>
      </trkpt>
      <trkpt lat="38.880850" lon="-5.943667">
        <ele>877.0</ele>
        <time>2019-05-04T14:29:11Z</time>
      </trkpt>
      <trkpt lat="38.880817" lon="-5.943550">
        <ele>878.0</ele>
        <time>2019-05-04T14:29:12Z</time>
      </trkpt>
      <trkpt lat="38.880750" lon="-5.943483">
        <ele>879.0</ele>
        <time>2019-05-04T14:29:13Z</time>
      </trkpt>
      <trkpt lat="38.880650" lon="-5.943433">
        <ele>880.0</ele>
        <time>2019-05-04T14:29:14Z</time>
      </trkpt>
      <trkpt lat="38.880550" lon="-5.943417">
        <ele>880.0</ele>
        <time>2019-05-04T14:29:15Z</time>
      </trkpt>
      <trkpt lat="38.880467" lon="-5.943450">
        <ele>881.0</ele>
        <time>2019-05-04T14:29:16Z</time>
      </trkpt>
      <trkpt lat="38.880383" lon="-5.943517">
        <ele>881.0</ele>
        <time>2019-05-04T14:29:17Z</time>
      </trkpt>
      <trkpt lat="38.880317" lon="-5.943600">
        <ele>883.0</ele>
        <time>2019-05-04T14:29:18Z</time>
      </trkpt>
      <trkpt lat="38.880283" lon="-5.943700">
        <ele>884.0</ele>
        <time>2019-05-04T14:29:19Z</time>
      </trkpt>
      <trkpt lat="38.880300" lon="-5.943800">
        <ele>884.0</ele>
        <time>2019-05-04T14:29:20Z</time>
      </trkpt>
      <trkpt lat="38.880333" lon="-5.943883">
        <ele>884.0</ele>
        <time>2019-05-04T14:29:21Z</time>
      </trkpt>
      <trkpt lat="38.880383" lon="-5.943933">
        <ele>886.0</ele>
        <time>2019-05-04T14:29:22Z</time>
      </trkpt>
      <trkpt lat="38.880433" lon="-5.943933">
        <ele>887.0</ele>
        <time>2019-05-04T14:29:23Z</time>
      </trkpt>
      <trkpt lat="38.880500" lon="-5.943917">
        <ele>889.0</ele>
        <time>2019-05-04T14:29:24Z</time>
      </trkpt>
      <trkpt lat="38.880550" lon="-5.943867">
        <ele>890.0</ele>
        <time>2019-05-04T14:29:25Z</time>
      </trkpt>
      <trkpt lat="38.880583" lon="-5.943800">
        <ele>892.0</ele>
        <time>2019-05-04T14:29:26Z</time>
      </trkpt>
      <trkpt lat="38.880600" lon="-5.943717">
        <ele>893.0</ele>
        <time>2019-05-04T14:29:27Z</time>
      </trkpt>
      <trkpt lat="38.880600" lon="-5.943617">
        <ele>895.0</ele>
        <time>2019-05-04T14:29:28Z</time>
      </trkpt>
      <trkpt lat="38.880550" lon="-5.943517">
        <ele>896.0</ele>
        <time>2019-05-04T14:29:29Z</time>
      </trkpt>
      <trkpt lat="38.880500" lon="-5.943417">
        <ele>897.0</ele>
        <time>2019-05-04T14:29:30Z</time>
      </trkpt>
      <trkpt lat="38.880417" lon="-5.943350">
        <ele>898.0</ele>
        <time>2019-05-04T14:29:31Z</time>
      </trkpt>
      <trkpt lat="38.880333" lon="-5.943317">
        <ele>900.0</ele>
        <time>2019-05-04T14:29:32Z</time>
      </trkpt>
      <trkpt lat="38.880250" lon="-5.943300">
        <ele>901.0</ele>
        <time>2019-05-04T14:29:33Z</time>
      </trkpt>
      <trkpt lat="38.880150" lon="-5.943333">
        <ele>901.0</ele>
        <time>2019-05-04T14:29:34Z</time>
      </trkpt>
      <trkpt lat="38.880067" lon="-5.943383">
        <ele>901.0</ele>
        <time>2019-05-04T14:29:35Z</time>
      </trkpt>
      <trkpt lat="38.880000" lon="-5.943483">
        <ele>902.0</ele>
        <time>2019-05-04T14:29:36Z</time>
      </trkpt>
      <trkpt lat="38.879983" lon="-5.943583">
        <ele>903.0</ele>
        <time>2019-05-04T14:29:37Z</time>
      </trkpt>
      <trkpt lat="38.879983" lon="-5.943667">
        <ele>903.0</ele>
        <time>2019-05-04T14:29:38Z</time>
      </trkpt>
      <trkpt lat="38.880033" lon="-5.943750">
        <ele>904.0</ele>
        <time>2019-05-04T14:29:39Z</time>
      </trkpt>
      <trkpt lat="38.880083" lon="-5.943783">
        <ele>904.0</ele>
        <time>2019-05-04T14:29:40Z</time>
      </trkpt>
      <trkpt lat="38.880150" lon="-5.943800">
        <ele>905.0</ele>
        <time>2019-05-04T14:29:41Z</time>
      </trkpt>
      <trkpt lat="38.880217" lon="-5.943767">
        <ele>906.0</ele>
        <time>2019-05-04T14:29:42Z</time>
      </trkpt>
      <trkpt lat="38.880267" lon="-5.943700">
        <ele>907.0</ele>
        <time>2019-05-04T14:29:43Z</time>
      </trkpt>
      <trkpt lat="38.880283" lon="-5.943600">
        <ele>908.0</ele>
        <time>2019-05-04T14:29:44Z</time>
      </trkpt>
      <trkpt lat="38.880283" lon="-5.943483">
        <ele>908.0</ele>
        <time>2019-05-04T14:29:45Z</time>
      </trkpt>
      <trkpt lat="38.880250" lon="-5.943383">
        <ele>909.0</ele>
        <time>2019-05-04T14:29:46Z</time>
      </trkpt>
      <trkpt lat="38.880200" lon="-5.943283">
        <ele>910.0</ele>
        <time>2019-05-04T14:29:47Z</time>
      </trkpt>
      <trkpt lat="38.880133" lon="-5.943200">
        <ele>911.0</ele>
        <time>2019-05-04T14:29:48Z</time>
      </trkpt>
      <trkpt lat="38.880050" lon="-5.943150">
        <ele>912.0</ele>
        <time>2019-05-04T14:29:49Z</time>
      </trkpt>
      <trkpt lat="38.879950" lon="-5.943133">
        <ele>912.0</ele>
        <time>2019-05-04T14:29:50Z</time>
      </trkpt>
      <trkpt lat="38.879850" lon="-5.943150">
        <ele>911.0</ele>
        <time>2019-05-04T14:29:51Z</time>
      </trkpt>
      <trkpt lat="38.879733" lon="-5.943200">
        <ele>910.0</ele>
        <time>2019-05-04T14:29:52Z</time>
      </trkpt>
      <trkpt lat="38.879667" lon="-5.943283">
        <ele>911.0</ele>
        <time>2019-05-04T14:29:53Z</time>
      </trkpt>
      <trkpt lat="38.879617" lon="-5.943383">
        <ele>913.0</ele>
        <time>2019-05-04T14:29:54Z</time>
      </trkpt>
      <trkpt lat="38.879617" lon="-5.943467">
        <ele>914.0</ele>
        <time>2019-05-04T14:29:55Z</time>
      </trkpt>
      <trkpt lat="38.879633" lon="-5.943550">
        <ele>915.0</ele>
        <time>2019-05-04T14:29:56Z</time>
      </trkpt>
      <trkpt lat="38.879683" lon="-5.943617">
        <ele>915.0</ele>
        <time>2019-05-04T14:29:57Z</time>
      </trkpt>
      <trkpt lat="38.879733" lon="-5.943667">
        <ele>916.0</ele>
        <time>2019-05-04T14:29:58Z</time>
      </trkpt>
      <trkpt lat="38.879783" lon="-5.943650">
        <ele>918.0</ele>
        <time>2019-05-04T14:29:59Z</time>
      </trkpt>
      <trkpt lat="38.879833" lon="-5.943600">
        <ele>919.0</ele>
        <time>2019-05-04T14:30:00Z</time>
      </trkpt>
      <trkpt lat="38.879867" lon="-5.943500">
        <ele>920.0</ele>
        <time>2019-05-04T14:30:01Z</time>
      </trkpt>
      <trkpt lat="38.879867" lon="-5.943400">
        <ele>921.0</ele>
        <time>2019-05-04T14:30:02Z</time>
      </trkpt>
      <trkpt lat="38.879833" lon="-5.943300">
        <ele>921.0</ele>
        <time>2019-05-04T14:30:03Z</time>
      </trkpt>
      <trkpt lat="38.879800" lon="-5.943200">
        <ele>922.0</ele>
        <time>2019-05-04T14:30:04Z</time>
      </trkpt>
      <trkpt lat="38.879717" lon="-5.943117">
        <ele>923.0</ele>
        <time>2019-05-04T14:30:05Z</time>
      </trkpt>
      <trkpt lat="38.879633" lon="-5.943033">
        <ele>923.0</ele>
        <time>2019-05-04T14:30:06Z</time>
      </trkpt>
      <trkpt lat="38.879517" lon="-5.942983">
        <ele>922.0</ele>
        <time>2019-05-04T14:30:07Z</time>
      </trkpt>
      <trkpt lat="38.879400" lon="-5.942983">
        <ele>922.0</ele>
        <time>2019-05-04T14:30:08Z</time>
      </trkpt>
      <trkpt lat="38.879317" lon="-5.943033">
        <ele>923.0</ele>
        <time>2019-05-04T14:30:09Z</time>
      </trkpt>
      <trkpt lat="38.879250" lon="-5.943117">
        <ele>923.0</ele>
        <time>2019-05-04T14:30:10Z</time>
      </trkpt>
      <trkpt lat="38.879217" lon="-5.943217">
        <ele>923.0</ele>
        <time>2019-05-04T14:30:11Z</time>
      </trkpt>
      <trkpt lat="38.879233" lon="-5.943283">
        <ele>924.0</ele>
        <time>2019-05-04T14:30:12Z</time>
      </trkpt>
      <trkpt lat="38.879267" lon="-5.943333">
        <ele>924.0</ele>
        <time>2019-05-04T14:30:13Z</time>
      </trkpt>
      <trkpt lat="38.879333" lon="-5.943367">
        <ele>924.0</ele>
        <time>2019-05-04T14:30:14Z</time>
      </trkpt>
      <trkpt lat="38.879383" lon="-5.943367">
        <ele>924.0</ele>
        <time>2019-05-04T14:30:15Z</time>
      </trkpt>
      <trkpt lat="38.879433" lon="-5.943350">
        <ele>924.0</ele>
        <time>2019-05-04T14:30:16Z</time>
      </trkpt>
      <trkpt lat="38.879467" lon="-5.943300">
        <ele>924.0</ele>
        <time>2019-05-04T14:30:17Z</time>
      </trkpt>
      <trkpt lat="38.879500" lon="-5.943233">
        <ele>925.0</ele>
        <time>2019-05-04T14:30:18Z</time>
      </trkpt>
      <trkpt lat="38.879517" lon="-5.943133">
        <ele>925.0</ele>
        <time>2019-05-04T14:30:19Z</time>
      </trkpt>
      <trkpt lat="38.879517" lon="-5.943017">
        <ele>926.0</ele>
        <time>2019-05-04T14:30:20Z</time>
      </trkpt>
      <trkpt lat="38.879500" lon="-5.942917">
        <ele>928.0</ele>
        <time>2019-05-04T14:30:21Z</time>
      </trkpt>
      <trkpt lat="38.879467" lon="-5.942817">
        <ele>930.0</ele>
        <time>2019-05-04T14:30:22Z</time>
      </trkpt>
      <trkpt lat="38.879400" lon="-5.942733">
        <ele>931.0</ele>
        <time>2019-05-04T14:30:23Z</time>
      </trkpt>
      <trkpt lat="38.879350" lon="-5.942667">
        <ele>932.0</ele>
        <time>2019-05-04T14:30:24Z</time>
      </trkpt>
      <trkpt lat="38.879267" lon="-5.942600">
        <ele>933.0</ele>
        <time>2019-05-04T14:30:25Z</time>
      </trkpt>
      <trkpt lat="38.879183" lon="-5.942533">
        <ele>933.0</ele>
        <time>2019-05-04T14:30:26Z</time>
      </trkpt>
      <trkpt lat="38.879067" lon="-5.942517">
        <ele>932.0</ele>
        <time>2019-05-04T14:30:27Z</time>
      </trkpt>
      <trkpt lat="38.878967" lon="-5.942533">
        <ele>931.0</ele>
        <time>2019-05-04T14:30:28Z</time>
      </trkpt>
      <trkpt lat="38.878900" lon="-5.942600">
        <ele>930.0</ele>
        <time>2019-05-04T14:30:29Z</time>
      </trkpt>
      <trkpt lat="38.878833" lon="-5.942683">
        <ele>930.0</ele>
        <time>2019-05-04T14:30:30Z</time>
      </trkpt>
      <trkpt lat="38.878800" lon="-5.942767">
        <ele>930.0</ele>
        <time>2019-05-04T14:30:31Z</time>
      </trkpt>
      <trkpt lat="38.878783" lon="-5.942850">
        <ele>930.0</ele>
        <time>2019-05-04T14:30:32Z</time>
      </trkpt>
      <trkpt lat="38.878800" lon="-5.942933">
        <ele>930.0</ele>
        <time>2019-05-04T14:30:33Z</time>
      </trkpt>
      <trkpt lat="38.878817" lon="-5.943000">
        <ele>929.0</ele>
        <time>2019-05-04T14:30:34Z</time>
      </trkpt>
      <trkpt lat="38.878883" lon="-5.943033">
        <ele>929.0</ele>
        <time>2019-05-04T14:30:35Z</time>
      </trkpt>
      <trkpt lat="38.878933" lon="-5.943050">
        <ele>929.0</ele>
        <time>2019-05-04T14:30:36Z</time>
      </trkpt>
      <trkpt lat="38.879000" lon="-5.943067">
        <ele>929.0</ele>
        <time>2019-05-04T14:30:37Z</time>
      </trkpt>
      <trkpt lat="38.879050" lon="-5.943067">
        <ele>929.0</ele>
        <time>2019-05-04T14:30:38Z</time>
      </trkpt>
      <trkpt lat="38.879100" lon="-5.943067">
        <ele>930.0</ele>
        <time>2019-05-04T14:30:39Z</time>
      </trkpt>
      <trkpt lat="38.879167" lon="-5.943067">
        <ele>930.0</ele>
        <time>2019-05-04T14:30:40Z</time>
      </trkpt>
      <trkpt lat="38.879233" lon="-5.943050">
        <ele>930.0</ele>
        <time>2019-05-04T14:30:41Z</time>
      </trkpt>
      <trkpt lat="38.879283" lon="-5.943017">
        <ele>931.0</ele>
        <time>2019-05-04T14:30:42Z</time>
      </trkpt>
      <trkpt lat="38.879350" lon="-5.942983">
        <ele>933.0</ele>
        <time>2019-05-04T14:30:43Z</time>
      </trkpt>
      <trkpt lat="38.879400" lon="-5.942950">
        <ele>935.0</ele>
        <time>2019-05-04T14:30:44Z</time>
      </trkpt>
      <trkpt lat="38.879450" lon="-5.942900">
        <ele>937.0</ele>
        <time>2019-05-04T14:30:45Z</time>
      </trkpt>
      <trkpt lat="38.879483" lon="-5.942850">
        <ele>939.0</ele>
        <time>2019-05-04T14:30:46Z</time>
      </trkpt>
      <trkpt lat="38.879517" lon="-5.942800">
        <ele>940.0</ele>
        <time>2019-05-04T14:30:47Z</time>
      </trkpt>
      <trkpt lat="38.879533" lon="-5.942733">
        <ele>941.0</ele>
        <time>2019-05-04T14:30:48Z</time>
      </trkpt>
      <trkpt lat="38.879567" lon="-5.942667">
        <ele>940.0</ele>
        <time>2019-05-04T14:30:49Z</time>
      </trkpt>
      <trkpt lat="38.879583" lon="-5.942567">
        <ele>939.0</ele>
        <time>2019-05-04T14:30:50Z</time>
      </trkpt>
      <trkpt lat="38.879583" lon="-5.942450">
        <ele>938.0</ele>
        <time>2019-05-04T14:30:51Z</time>
      </trkpt>
      <trkpt lat="38.879567" lon="-5.942333">
        <ele>938.0</ele>
        <time>2019-05-04T14:30:52Z</time>
      </trkpt>
      <trkpt lat="38.879500" lon="-5.942233">
        <ele>938.0</ele>
        <time>2019-05-04T14:30:53Z</time>
      </trkpt>
      <trkpt lat="38.879400" lon="-5.942150">
        <ele>936.0</ele>
        <time>2019-05-04T14:30:54Z</time>
      </trkpt>
      <trkpt lat="38.879300" lon="-5.942117">
        <ele>936.0</ele>
        <time>2019-05-04T14:30:55Z</time>
      </trkpt>
      <trkpt lat="38.879200" lon="-5.942117">
        <ele>936.0</ele>
        <time>2019-05-04T14:30:56Z</time>
      </trkpt>
      <trkpt lat="38.879100" lon="-5.942167">
        <ele>937.0</ele>
        <time>2019-05-04T14:30:57Z</time>
      </trkpt>
      <trkpt lat="38.879033" lon="-5.942250">
        <ele>937.0</ele>
        <time>2019-05-04T14:30:58Z</time>
      </trkpt>
      <trkpt lat="38.878983" lon="-5.942350">
        <ele>938.0</ele>
        <time>2019-05-04T14:30:59Z</time>
      </trkpt>
      <trkpt lat="38.878967" lon="-5.942450">
        <ele>940.0</ele>
        <time>2019-05-04T14:31:00Z</time>
      </trkpt>
      <trkpt lat="38.878950" lon="-5.942550">
        <ele>941.0</ele>
        <time>2019-05-04T14:31:01Z</time>
      </trkpt>
      <trkpt lat="38.878950" lon="-5.942633">
        <ele>943.0</ele>
        <time>2019-05-04T14:31:02Z</time>
      </trkpt>
      <trkpt lat="38.878967" lon="-5.942717">
        <ele>944.0</ele>
        <time>2019-05-04T14:31:03Z</time>
      </trkpt>
      <trkpt lat="38.879000" lon="-5.942800">
        <ele>945.0</ele>
        <time>2019-05-04T14:31:04Z</time>
      </trkpt>
      <trkpt lat="38.879050" lon="-5.942867">
        <ele>945.0</ele>
        <time>2019-05-04T14:31:05Z</time>
      </trkpt>
      <trkpt lat="38.879100" lon="-5.942917">
        <ele>946.0</ele>
        <time>2019-05-04T14:31:06Z</time>
      </trkpt>
      <trkpt lat="38.879150" lon="-5.942917">
        <ele>946.0</ele>
        <time>2019-05-04T14:31:07Z</time>
      </trkpt>
      <trkpt lat="38.879200" lon="-5.942867">
        <ele>947.0</ele>
        <time>2019-05-04T14:31:08Z</time>
      </trkpt>
      <trkpt lat="38.879250" lon="-5.942800">
        <ele>945.0</ele>
        <time>2019-05-04T14:31:09Z</time>
      </trkpt>
      <trkpt lat="38.879283" lon="-5.942733">
        <ele>944.0</ele>
        <time>2019-05-04T14:31:10Z</time>
      </trkpt>
      <trkpt lat="38.879317" lon="-5.942650">
        <ele>943.0</ele>
        <time>2019-05-04T14:31:11Z</time>
      </trkpt>
      <trkpt lat="38.879333" lon="-5.942550">
        <ele>941.0</ele>
        <time>2019-05-04T14:31:12Z</time>
      </trkpt>
      <trkpt lat="38.879317" lon="-5.942450">
        <ele>939.0</ele>
        <time>2019-05-04T14:31:13Z</time>
      </trkpt>
      <trkpt lat="38.879283" lon="-5.942333">
        <ele>937.0</ele>
        <time>2019-05-04T14:31:14Z</time>
      </trkpt>
      <trkpt lat="38.879200" lon="-5.942217">
        <ele>934.0</ele>
        <time>2019-05-04T14:31:15Z</time>
      </trkpt>
      <trkpt lat="38.879133" lon="-5.942150">
        <ele>934.0</ele>
        <time>2019-05-04T14:31:16Z</time>
      </trkpt>
      <trkpt lat="38.879033" lon="-5.942117">
        <ele>934.0</ele>
        <time>2019-05-04T14:31:17Z</time>
      </trkpt>
      <trkpt lat="38.878950" lon="-5.942117">
        <ele>933.0</ele>
        <time>2019-05-04T14:31:18Z</time>
      </trkpt>
      <trkpt lat="38.878867" lon="-5.942150">
        <ele>933.0</ele>
        <time>2019-05-04T14:31:19Z</time>
      </trkpt>
      <trkpt lat="38.878800" lon="-5.942217">
        <ele>933.0</ele>
        <time>2019-05-04T14:31:20Z</time>
      </trkpt>
      <trkpt lat="38.878767" lon="-5.942317">
        <ele>933.0</ele>
        <time>2019-05-04T14:31:21Z</time>
      </trkpt>
      <trkpt lat="38.878767" lon="-5.942417">
        <ele>933.0</ele>
        <time>2019-05-04T14:31:22Z</time>
      </trkpt>
      <trkpt lat="38.878767" lon="-5.942500">
        <ele>933.0</ele>
        <time>2019-05-04T14:31:23Z</time>
      </trkpt>
      <trkpt lat="38.878800" lon="-5.942583">
        <ele>932.0</ele>
        <time>2019-05-04T14:31:24Z</time>
      </trkpt>
      <trkpt lat="38.878850" lon="-5.942633">
        <ele>932.0</ele>
        <time>2019-05-04T14:31:25Z</time>
      </trkpt>
      <trkpt lat="38.878900" lon="-5.942633">
        <ele>930.0</ele>
        <time>2019-05-04T14:31:26Z</time>
      </trkpt>
      <trkpt lat="38.878983" lon="-5.942600">
        <ele>928.0</ele>
        <time>2019-05-04T14:31:27Z</time>
      </trkpt>
      <trkpt lat="38.879050" lon="-5.942583">
        <ele>926.0</ele>
        <time>2019-05-04T14:31:28Z</time>
      </trkpt>
      <trkpt lat="38.879117" lon="-5.942567">
        <ele>925.0</ele>
        <time>2019-05-04T14:31:29Z</time>
      </trkpt>
      <trkpt lat="38.879167" lon="-5.942567">
        <ele>926.0</ele>
        <time>2019-05-04T14:31:30Z</time>
      </trkpt>
      <trkpt lat="38.879233" lon="-5.942550">
        <ele>926.0</ele>
        <time>2019-05-04T14:31:31Z</time>
      </trkpt>
      <trkpt lat="38.879300" lon="-5.942533">
        <ele>926.0</ele>
        <time>2019-05-04T14:31:32Z</time>
      </trkpt>
      <trkpt lat="38.879367" lon="-5.942500">
        <ele>925.0</ele>
        <time>2019-05-04T14:31:33Z</time>
      </trkpt>
      <trkpt lat="38.879417" lon="-5.942483">
        <ele>925.0</ele>
        <time>2019-05-04T14:31:34Z</time>
      </trkpt>
      <trkpt lat="38.879483" lon="-5.942483">
        <ele>924.0</ele>
        <time>2019-05-04T14:31:35Z</time>
      </trkpt>
      <trkpt lat="38.879533" lon="-5.942483">
        <ele>924.0</ele>
        <time>2019-05-04T14:31:36Z</time>
      </trkpt>
      <trkpt lat="38.879600" lon="-5.942483">
        <ele>923.0</ele>
        <time>2019-05-04T14:31:37Z</time>
      </trkpt>
      <trkpt lat="38.879683" lon="-5.942483">
        <ele>922.0</ele>
        <time>2019-05-04T14:31:38Z</time>
      </trkpt>
      <trkpt lat="38.879767" lon="-5.942467">
        <ele>921.0</ele>
        <time>2019-05-04T14:31:39Z</time>
      </trkpt>
      <trkpt lat="38.879850" lon="-5.942467">
        <ele>921.0</ele>
        <time>2019-05-04T14:31:40Z</time>
      </trkpt>
      <trkpt lat="38.879933" lon="-5.942467">
        <ele>923.0</ele>
        <time>2019-05-04T14:31:41Z</time>
      </trkpt>
      <trkpt lat="38.880017" lon="-5.942483">
        <ele>925.0</ele>
        <time>2019-05-04T14:31:42Z</time>
      </trkpt>
      <trkpt lat="38.880067" lon="-5.942483">
        <ele>930.0</ele>
        <time>2019-05-04T14:31:43Z</time>
      </trkpt>
      <trkpt lat="38.880133" lon="-5.942500">
        <ele>934.0</ele>
        <time>2019-05-04T14:31:44Z</time>
      </trkpt>
      <trkpt lat="38.880183" lon="-5.942533">
        <ele>937.0</ele>
        <time>2019-05-04T14:31:45Z</time>
      </trkpt>
      <trkpt lat="38.880250" lon="-5.942567">
        <ele>938.0</ele>
        <time>2019-05-04T14:31:46Z</time>
      </trkpt>
      <trkpt lat="38.880317" lon="-5.942667">
        <ele>940.0</ele>
        <time>2019-05-04T14:31:47Z</time>
      </trkpt>
      <trkpt lat="38.880333" lon="-5.942783">
        <ele>944.0</ele>
        <time>2019-05-04T14:31:48Z</time>
      </trkpt>
      <trkpt lat="38.880317" lon="-5.942900">
        <ele>947.0</ele>
        <time>2019-05-04T14:31:49Z</time>
      </trkpt>
      <trkpt lat="38.880250" lon="-5.943017">
        <ele>950.0</ele>
        <time>2019-05-04T14:31:50Z</time>
      </trkpt>
      <trkpt lat="38.880150" lon="-5.943100">
        <ele>952.0</ele>
        <time>2019-05-04T14:31:51Z</time>
      </trkpt>
      <trkpt lat="38.880050" lon="-5.943183">
        <ele>955.0</ele>
        <time>2019-05-04T14:31:52Z</time>
      </trkpt>
      <trkpt lat="38.879917" lon="-5.943233">
        <ele>958.0</ele>
        <time>2019-05-04T14:31:53Z</time>
      </trkpt>
      <trkpt lat="38.879800" lon="-5.943233">
        <ele>961.0</ele>
        <time>2019-05-04T14:31:54Z</time>
      </trkpt>
      <trkpt lat="38.879683" lon="-5.943200">
        <ele>963.0</ele>
        <time>2019-05-04T14:31:55Z</time>
      </trkpt>
      <trkpt lat="38.879617" lon="-5.943117">
        <ele>965.0</ele>
        <time>2019-05-04T14:31:56Z</time>
      </trkpt>
      <trkpt lat="38.879567" lon="-5.943017">
        <ele>968.0</ele>
        <time>2019-05-04T14:31:57Z</time>
      </trkpt>
      <trkpt lat="38.879583" lon="-5.942917">
        <ele>970.0</ele>
        <time>2019-05-04T14:31:58Z</time>
      </trkpt>
      <trkpt lat="38.879617" lon="-5.942817">
        <ele>973.0</ele>
        <time>2019-05-04T14:31:59Z</time>
      </trkpt>
      <trkpt lat="38.879667" lon="-5.942767">
        <ele>977.0</ele>
        <time>2019-05-04T14:32:00Z</time>
      </trkpt>
      <trkpt lat="38.879717" lon="-5.942750">
        <ele>982.0</ele>
        <time>2019-05-04T14:32:01Z</time>
      </trkpt>
      <trkpt lat="38.879783" lon="-5.942767">
        <ele>986.0</ele>
        <time>2019-05-04T14:32:02Z</time>
      </trkpt>
      <trkpt lat="38.879833" lon="-5.942817">
        <ele>990.0</ele>
        <time>2019-05-04T14:32:03Z</time>
      </trkpt>
      <trkpt lat="38.879867" lon="-5.942883">
        <ele>994.0</ele>
        <time>2019-05-04T14:32:04Z</time>
      </trkpt>
      <trkpt lat="38.879867" lon="-5.942983">
        <ele>998.0</ele>
        <time>2019-05-04T14:32:05Z</time>
      </trkpt>
      <trkpt lat="38.879850" lon="-5.943100">
        <ele>1002.0</ele>
        <time>2019-05-04T14:32:06Z</time>
      </trkpt>
      <trkpt lat="38.879783" lon="-5.943200">
        <ele>1006.0</ele>
        <time>2019-05-04T14:32:07Z</time>
      </trkpt>
      <trkpt lat="38.879717" lon="-5.943300">
        <ele>1010.0</ele>
        <time>2019-05-04T14:32:08Z</time>
      </trkpt>
      <trkpt lat="38.879617" lon="-5.943383">
        <ele>1014.0</ele>
        <time>2019-05-04T14:32:09Z</time>
      </trkpt>
      <trkpt lat="38.879500" lon="-5.943433">
        <ele>1018.0</ele>
        <time>2019-05-04T14:32:10Z</time>
      </trkpt>
      <trkpt lat="38.879367" lon="-5.943433">
        <ele>1021.0</ele>
        <time>2019-05-04T14:32:11Z</time>
      </trkpt>
      <trkpt lat="38.879250" lon="-5.943383">
        <ele>1024.0</ele>
        <time>2019-05-04T14:32:12Z</time>
      </trkpt>
      <trkpt lat="38.879183" lon="-5.943300">
        <ele>1028.0</ele>
        <time>2019-05-04T14:32:13Z</time>
      </trkpt>
      <trkpt lat="38.879167" lon="-5.943183">
        <ele>1032.0</ele>
        <time>2019-05-04T14:32:14Z</time>
      </trkpt>
      <trkpt lat="38.879167" lon="-5.943100">
        <ele>1035.0</ele>
        <time>2019-05-04T14:32:15Z</time>
      </trkpt>
      <trkpt lat="38.879183" lon="-5.943017">
        <ele>1039.0</ele>
        <time>2019-05-04T14:32:16Z</time>
      </trkpt>
      <trkpt lat="38.879233" lon="-5.942967">
        <ele>1043.0</ele>
        <time>2019-05-04T14:32:17Z</time>
      </trkpt>
      <trkpt lat="38.879283" lon="-5.942933">
        <ele>1048.0</ele>
        <time>2019-05-04T14:32:18Z</time>
      </trkpt>
      <trkpt lat="38.879333" lon="-5.942933">
        <ele>1052.0</ele>
        <time>2019-05-04T14:32:19Z</time>
      </trkpt>
      <trkpt lat="38.879400" lon="-5.942967">
        <ele>1056.0</ele>
        <time>2019-05-04T14:32:20Z</time>
      </trkpt>
      <trkpt lat="38.879433" lon="-5.943050">
        <ele>1059.0</ele>
        <time>2019-05-04T14:32:21Z</time>
      </trkpt>
      <trkpt lat="38.879450" lon="-5.943150">
        <ele>1062.0</ele>
        <time>2019-05-04T14:32:22Z</time>
      </trkpt>
      <trkpt lat="38.879433" lon="-5.943267">
        <ele>1065.0</ele>
        <time>2019-05-04T14:32:23Z</time>
      </trkpt>
      <trkpt lat="38.879383" lon="-5.943383">
        <ele>1068.0</ele>
        <time>2019-05-04T14:32:24Z</time>
      </trkpt>
      <trkpt lat="38.879300" lon="-5.943483">
        <ele>1071.0</ele>
        <time>2019-05-04T14:32:25Z</time>
      </trkpt>
      <trkpt lat="38.879183" lon="-5.943533">
        <ele>1074.0</ele>
        <time>2019-05-04T14:32:26Z</time>
      </trkpt>
      <trkpt lat="38.879067" lon="-5.943533">
        <ele>1076.0</ele>
        <time>2019-05-04T14:32:27Z</time>
      </trkpt>
      <trkpt lat="38.878933" lon="-5.943500">
        <ele>1080.0</ele>
        <time>2019-05-04T14:32:28Z</time>
      </trkpt>
      <trkpt lat="38.878850" lon="-5.943417">
        <ele>1083.0</ele>
        <time>2019-05-04T14:32:29Z</time>
      </trkpt>
      <trkpt lat="38.878767" lon="-5.943333">
        <ele>1088.0</ele>
        <time>2019-05-04T14:32:30Z</time>
      </trkpt>
      <trkpt lat="38.878717" lon="-5.943250">
        <ele>1092.0</ele>
        <time>2019-05-04T14:32:31Z</time>
      </trkpt>
      <trkpt lat="38.878683" lon="-5.943150">
        <ele>1096.0</ele>
        <time>2019-05-04T14:32:32Z</time>
      </trkpt>
      <trkpt lat="38.878650" lon="-5.943067">
        <ele>1100.0</ele>
        <time>2019-05-04T14:32:33Z</time>
      </trkpt>
      <trkpt lat="38.878617" lon="-5.942950">
        <ele>1104.0</ele>
        <time>2019-05-04T14:32:34Z</time>
      </trkpt>
      <trkpt lat="38.878600" lon="-5.942850">
        <ele>1108.0</ele>
        <time>2019-05-04T14:32:35Z</time>
      </trkpt>
      <trkpt lat="38.878617" lon="-5.942767">
        <ele>1112.0</ele>
        <time>2019-05-04T14:32:36Z</time>
      </trkpt>
      <trkpt lat="38.878650" lon="-5.942700">
        <ele>1114.0</ele>
        <time>2019-05-04T14:32:37Z</time>
      </trkpt>
      <trkpt lat="38.878717" lon="-5.942667">
        <ele>1116.0</ele>
        <time>2019-05-04T14:32:38Z</time>
      </trkpt>
      <trkpt lat="38.878783" lon="-5.942667">
        <ele>1120.0</ele>
        <time>2019-05-04T14:32:39Z</time>
      </trkpt>
      <trkpt lat="38.878833" lon="-5.942717">
        <ele>1124.0</ele>
        <time>2019-05-04T14:32:40Z</time>
      </trkpt>
      <trkpt lat="38.878850" lon="-5.942783">
        <ele>1128.0</ele>
        <time>2019-05-04T14:32:41Z</time>
      </trkpt>
      <trkpt lat="38.878867" lon="-5.942867">
        <ele>1133.0</ele>
        <time>2019-05-04T14:32:42Z</time>
      </trkpt>
      <trkpt lat="38.878867" lon="-5.942983">
        <ele>1137.0</ele>
        <time>2019-05-04T14:32:43Z</time>
      </trkpt>
      <trkpt lat="38.878833" lon="-5.943117">
        <ele>1140.0</ele>
        <time>2019-05-04T14:32:44Z</time>
      </trkpt>
      <trkpt lat="38.878783" lon="-5.943250">
        <ele>1144.0</ele>
        <time>2019-05-04T14:32:45Z</time>
      </trkpt>
      <trkpt lat="38.878700" lon="-5.943350">
        <ele>1149.0</ele>
        <time>2019-05-04T14:32:46Z</time>
      </trkpt>
      <trkpt lat="38.878600" lon="-5.943417">
        <ele>1152.0</ele>
        <time>2019-05-04T14:32:47Z</time>
      </trkpt>
      <trkpt lat="38.878500" lon="-5.943450">
        <ele>1156.0</ele>
        <time>2019-05-04T14:32:48Z</time>
      </trkpt>
      <trkpt lat="38.878400" lon="-5.943450">
        <ele>1159.0</ele>
        <time>2019-05-04T14:32:49Z</time>
      </trkpt>
      <trkpt lat="38.878283" lon="-5.943433">
        <ele>1162.0</ele>
        <time>2019-05-04T14:32:50Z</time>
      </trkpt>
      <trkpt lat="38.878167" lon="-5.943400">
        <ele>1166.0</ele>
        <time>2019-05-04T14:32:51Z</time>
      </trkpt>
      <trkpt lat="38.878083" lon="-5.943317">
        <ele>1170.0</ele>
        <time>2019-05-04T14:32:52Z</time>
      </trkpt>
      <trkpt lat="38.878017" lon="-5.943233">
        <ele>1174.0</ele>
        <time>2019-05-04T14:32:53Z</time>
      </trkpt>
      <trkpt lat="38.877983" lon="-5.943133">
        <ele>1178.0</ele>
        <time>2019-05-04T14:32:54Z</time>
      </trkpt>
      <trkpt lat="38.877983" lon="-5.943067">
        <ele>1182.0</ele>
        <time>2019-05-04T14:32:55Z</time>
      </trkpt>
      <trkpt lat="38.878000" lon="-5.943017">
        <ele>1185.0</ele>
        <time>2019-05-04T14:32:56Z</time>
      </trkpt>
      <trkpt lat="38.878017" lon="-5.942983">
        <ele>1188.0</ele>
        <time>2019-05-04T14:32:57Z</time>
      </trkpt>
      <trkpt lat="38.878067" lon="-5.942933">
        <ele>1191.0</ele>
        <time>2019-05-04T14:32:58Z</time>
      </trkpt>
      <trkpt lat="38.878117" lon="-5.942883">
        <ele>1193.0</ele>
        <time>2019-05-04T14:32:59Z</time>
      </trkpt>
      <trkpt lat="38.878183" lon="-5.942867">
        <ele>1195.0</ele>
        <time>2019-05-04T14:33:00Z</time>
      </trkpt>
      <trkpt lat="38.878250" lon="-5.942883">
        <ele>1198.0</ele>
        <time>2019-05-04T14:33:01Z</time>
      </trkpt>
      <trkpt lat="38.878300" lon="-5.942950">
        <ele>1202.0</ele>
        <time>2019-05-04T14:33:02Z</time>
      </trkpt>
      <trkpt lat="38.878350" lon="-5.943033">
        <ele>1205.0</ele>
        <time>2019-05-04T14:33:03Z</time>
      </trkpt>
      <trkpt lat="38.878367" lon="-5.943133">
        <ele>1209.0</ele>
        <time>2019-05-04T14:33:04Z</time>
      </trkpt>
      <trkpt lat="38.878367" lon="-5.943250">
        <ele>1213.0</ele>
        <time>2019-05-04T14:33:05Z</time>
      </trkpt>
      <trkpt lat="38.878333" lon="-5.943367">
        <ele>1217.0</ele>
        <time>2019-05-04T14:33:06Z</time>
      </trkpt>
      <trkpt lat="38.878267" lon="-5.943467">
        <ele>1221.0</ele>
        <time>2019-05-04T14:33:07Z</time>
      </trkpt>
      <trkpt lat="38.878183" lon="-5.943567">
        <ele>1226.0</ele>
        <time>2019-05-04T14:33:08Z</time>
      </trkpt>
      <trkpt lat="38.878083" lon="-5.943617">
        <ele>1229.0</ele>
        <time>2019-05-04T14:33:09Z</time>
      </trkpt>
      <trkpt lat="38.877967" lon="-5.943667">
        <ele>1232.0</ele>
        <time>2019-05-04T14:33:10Z</time>
      </trkpt>
      <trkpt lat="38.877850" lon="-5.943683">
        <ele>1236.0</ele>
        <time>2019-05-04T14:33:11Z</time>
      </trkpt>
      <trkpt lat="38.877733" lon="-5.943667">
        <ele>1240.0</ele>
        <time>2019-05-04T14:33:12Z</time>
      </trkpt>
      <trkpt lat="38.877633" lon="-5.943633">
        <ele>1244.0</ele>
        <time>2019-05-04T14:33:13Z</time>
      </trkpt>
      <trkpt lat="38.877533" lon="-5.943567">
        <ele>1247.0</ele>
        <time>2019-05-04T14:33:14Z</time>
      </trkpt>
      <trkpt lat="38.877467" lon="-5.943450">
        <ele>1250.0</ele>
        <time>2019-05-04T14:33:15Z</time>
      </trkpt>
      <trkpt lat="38.877417" lon="-5.943333">
        <ele>1253.0</ele>
        <time>2019-05-04T14:33:16Z</time>
      </trkpt>
      <trkpt lat="38.877417" lon="-5.943233">
        <ele>1256.0</ele>
        <time>2019-05-04T14:33:17Z</time>
      </trkpt>
      <trkpt lat="38.877433" lon="-5.943167">
        <ele>1260.0</ele>
        <time>2019-05-04T14:33:18Z</time>
      </trkpt>
      <trkpt lat="38.877467" lon="-5.943133">
        <ele>1263.0</ele>
        <time>2019-05-04T14:33:19Z</time>
      </trkpt>
      <trkpt lat="38.877500" lon="-5.943117">
        <ele>1265.0</ele>
        <time>2019-05-04T14:33:20Z</time>
      </trkpt>
      <trkpt lat="38.877550" lon="-5.943133">
        <ele>1267.0</ele>
        <time>2019-05-04T14:33:21Z</time>
      </trkpt>
      <trkpt lat="38.877600" lon="-5.943183">
        <ele>1269.0</ele>
        <time>2019-05-04T14:33:22Z</time>
      </trkpt>
      <trkpt lat="38.877617" lon="-5.943283">
        <ele>1271.0</ele>
        <time>2019-05-04T14:33:23Z</time>
      </trkpt>
      <trkpt lat="38.877600" lon="-5.943400">
        <ele>1274.0</ele>
        <time>2019-05-04T14:33:24Z</time>
      </trkpt>
      <trkpt lat="38.877550" lon="-5.943517">
        <ele>1276.0</ele>
        <time>2019-05-04T14:33:25Z</time>
      </trkpt>
      <trkpt lat="38.877500" lon="-5.943617">
        <ele>1280.0</ele>
        <time>2019-05-04T14:33:26Z</time>
      </trkpt>
      <trkpt lat="38.877450" lon="-5.943717">
        <ele>1284.0</ele>
        <time>2019-05-04T14:33:27Z</time>
      </trkpt>
      <trkpt lat="38.877383" lon="-5.943800">
        <ele>1287.0</ele>
        <time>2019-05-04T14:33:28Z</time>
      </trkpt>
      <trkpt lat="38.877283" lon="-5.943883">
        <ele>1291.0</ele>
        <time>2019-05-04T14:33:29Z</time>
      </trkpt>
      <trkpt lat="38.877183" lon="-5.943917">
        <ele>1294.0</ele>
        <time>2019-05-04T14:33:30Z</time>
      </trkpt>
      <trkpt lat="38.877050" lon="-5.943933">
        <ele>1298.0</ele>
        <time>2019-05-04T14:33:31Z</time>
      </trkpt>
      <trkpt lat="38.876933" lon="-5.943917">
        <ele>1302.0</ele>
        <time>2019-05-04T14:33:32Z</time>
      </trkpt>
      <trkpt lat="38.876833" lon="-5.943850">
        <ele>1307.0</ele>
        <time>2019-05-04T14:33:33Z</time>
      </trkpt>
      <trkpt lat="38.876733" lon="-5.943783">
        <ele>1310.0</ele>
        <time>2019-05-04T14:33:34Z</time>
      </trkpt>
      <trkpt lat="38.876667" lon="-5.943683">
        <ele>1314.0</ele>
        <time>2019-05-04T14:33:35Z</time>
      </trkpt>
      <trkpt lat="38.876617" lon="-5.943583">
        <ele>1318.0</ele>
        <time>2019-05-04T14:33:36Z</time>
      </trkpt>
      <trkpt lat="38.876600" lon="-5.943483">
        <ele>1322.0</ele>
        <time>2019-05-04T14:33:37Z</time>
      </trkpt>
      <trkpt lat="38.876583" lon="-5.943400">
        <ele>1325.0</ele>
        <time>2019-05-04T14:33:38Z</time>
      </trkpt>
      <trkpt lat="38.876600" lon="-5.943333">
        <ele>1330.0</ele>
        <time>2019-05-04T14:33:39Z</time>
      </trkpt>
      <trkpt lat="38.876617" lon="-5.943283">
        <ele>1333.0</ele>
        <time>2019-05-04T14:33:40Z</time>
      </trkpt>
      <trkpt lat="38.876633" lon="-5.943250">
        <ele>1336.0</ele>
        <time>2019-05-04T14:33:41Z</time>
      </trkpt>
      <trkpt lat="38.876667" lon="-5.943233">
        <ele>1339.0</ele>
        <time>2019-05-04T14:33:42Z</time>
      </trkpt>
      <trkpt lat="38.876700" lon="-5.943233">
        <ele>1342.0</ele>
        <time>2019-05-04T14:33:43Z</time>
      </trkpt>
      <trkpt lat="38.876750" lon="-5.943250">
        <ele>1346.0</ele>
        <time>2019-05-04T14:33:44Z</time>
      </trkpt>
      <trkpt lat="38.876783" lon="-5.943300">
        <ele>1350.0</ele>
        <time>2019-05-04T14:33:45Z</time>
      </trkpt>
      <trkpt lat="38.876800" lon="-5.943367">
        <ele>1354.0</ele>
        <time>2019-05-04T14:33:46Z</time>
      </trkpt>
      <trkpt lat="38.876817" lon="-5.943450">
        <ele>1358.0</ele>
        <time>2019-05-04T14:33:47Z</time>
      </trkpt>
      <trkpt lat="38.876833" lon="-5.943567">
        <ele>1362.0</ele>
        <time>2019-05-04T14:33:48Z</time>
      </trkpt>
      <trkpt lat="38.876817" lon="-5.943667">
        <ele>1366.0</ele>
        <time>2019-05-04T14:33:49Z</time>
      </trkpt>
      <trkpt lat="38.876783" lon="-5.943767">
        <ele>1370.0</ele>
        <time>2019-05-04T14:33:50Z</time>
      </trkpt>
      <trkpt lat="38.876717" lon="-5.943867">
        <ele>1373.0</ele>
        <time>2019-05-04T14:33:51Z</time>
      </trkpt>
      <trkpt lat="38.876633" lon="-5.943950">
        <ele>1375.0</ele>
        <time>2019-05-04T14:33:52Z</time>
      </trkpt>
      <trkpt lat="38.876533" lon="-5.944033">
        <ele>1376.0</ele>
        <time>2019-05-04T14:33:53Z</time>
      </trkpt>
      <trkpt lat="38.876417" lon="-5.944100">
        <ele>1379.0</ele>
        <time>2019-05-04T14:33:54Z</time>
      </trkpt>
      <trkpt lat="38.876300" lon="-5.944133">
        <ele>1384.0</ele>
        <time>2019-05-04T14:33:55Z</time>
      </trkpt>
      <trkpt lat="38.876167" lon="-5.944133">
        <ele>1388.0</ele>
        <time>2019-05-04T14:33:56Z</time>
      </trkpt>
      <trkpt lat="38.876050" lon="-5.944133">
        <ele>1393.0</ele>
        <time>2019-05-04T14:33:57Z</time>
      </trkpt>
      <trkpt lat="38.875933" lon="-5.944117">
        <ele>1397.0</ele>
        <time>2019-05-04T14:33:58Z</time>
      </trkpt>
      <trkpt lat="38.875817" lon="-5.944083">
        <ele>1401.0</ele>
        <time>2019-05-04T14:33:59Z</time>
      </trkpt>
      <trkpt lat="38.875717" lon="-5.944033">
        <ele>1404.0</ele>
        <time>2019-05-04T14:34:00Z</time>
      </trkpt>
      <trkpt lat="38.875617" lon="-5.943950">
        <ele>1407.0</ele>
        <time>2019-05-04T14:34:01Z</time>
      </trkpt>
      <trkpt lat="38.875550" lon="-5.943833">
        <ele>1409.0</ele>
        <time>2019-05-04T14:34:02Z</time>
      </trkpt>
      <trkpt lat="38.875483" lon="-5.943717">
        <ele>1411.0</ele>
        <time>2019-05-04T14:34:03Z</time>
      </trkpt>
      <trkpt lat="38.875467" lon="-5.943600">
        <ele>1413.0</ele>
        <time>2019-05-04T14:34:04Z</time>
      </trkpt>
      <trkpt lat="38.875450" lon="-5.943500">
        <ele>1416.0</ele>
        <time>2019-05-04T14:34:05Z</time>
      </trkpt>
      <trkpt lat="38.875467" lon="-5.943433">
        <ele>1418.0</ele>
        <time>2019-05-04T14:34:06Z</time>
      </trkpt>
      <trkpt lat="38.875517" lon="-5.943383">
        <ele>1420.0</ele>
        <time>2019-05-04T14:34:07Z</time>
      </trkpt>
      <trkpt lat="38.875550" lon="-5.943367">
        <ele>1422.0</ele>
        <time>2019-05-04T14:34:08Z</time>
      </trkpt>
      <trkpt lat="38.875600" lon="-5.943383">
        <ele>1425.0</ele>
        <time>2019-05-04T14:34:09Z</time>
      </trkpt>
      <trkpt lat="38.875617" lon="-5.943433">
        <ele>1428.0</ele>
        <time>2019-05-04T14:34:10Z</time>
      </trkpt>
      <trkpt lat="38.875617" lon="-5.943500">
        <ele>1432.0</ele>
        <time>2019-05-04T14:34:11Z</time>
      </trkpt>
      <trkpt lat="38.875583" lon="-5.943567">
        <ele>1436.0</ele>
        <time>2019-05-04T14:34:12Z</time>
      </trkpt>
      <trkpt lat="38.875550" lon="-5.943650">
        <ele>1439.0</ele>
        <time>2019-05-04T14:34:13Z</time>
      </trkpt>
      <trkpt lat="38.875500" lon="-5.943733">
        <ele>1442.0</ele>
        <time>2019-05-04T14:34:14Z</time>
      </trkpt>
      <trkpt lat="38.875417" lon="-5.943817">
        <ele>1445.0</ele>
        <time>2019-05-04T14:34:15Z</time>
      </trkpt>
      <trkpt lat="38.875333" lon="-5.943883">
        <ele>1448.0</ele>
        <time>2019-05-04T14:34:16Z</time>
      </trkpt>
      <trkpt lat="38.875217" lon="-5.943950">
        <ele>1450.0</ele>
        <time>2019-05-04T14:34:17Z</time>
      </trkpt>
      <trkpt lat="38.875100" lon="-5.944000">
        <ele>1453.0</ele>
        <time>2019-05-04T14:34:18Z</time>
      </trkpt>
      <trkpt lat="38.874967" lon="-5.944017">
        <ele>1455.0</ele>
        <time>2019-05-04T14:34:19Z</time>
      </trkpt>
      <trkpt lat="38.874850" lon="-5.944000">
        <ele>1459.0</ele>
        <time>2019-05-04T14:34:20Z</time>
      </trkpt>
      <trkpt lat="38.874733" lon="-5.943950">
        <ele>1462.0</ele>
        <time>2019-05-04T14:34:21Z</time>
      </trkpt>
      <trkpt lat="38.874650" lon="-5.943850">
        <ele>1464.0</ele>
        <time>2019-05-04T14:34:22Z</time>
      </trkpt>
      <trkpt lat="38.874567" lon="-5.943750">
        <ele>1467.0</ele>
        <time>2019-05-04T14:34:23Z</time>
      </trkpt>
      <trkpt lat="38.874517" lon="-5.943617">
        <ele>1469.0</ele>
        <time>2019-05-04T14:34:24Z</time>
      </trkpt>
      <trkpt lat="38.874483" lon="-5.943517">
        <ele>1472.0</ele>
        <time>2019-05-04T14:34:25Z</time>
      </trkpt>
      <trkpt lat="38.874467" lon="-5.943400">
        <ele>1475.0</ele>
        <time>2019-05-04T14:34:26Z</time>
      </trkpt>
      <trkpt lat="38.874467" lon="-5.943300">
        <ele>1477.0</ele>
        <time>2019-05-04T14:34:27Z</time>
      </trkpt>
      <trkpt lat="38.874483" lon="-5.943217">
        <ele>1478.0</ele>
        <time>2019-05-04T14:34:28Z</time>
      </trkpt>
      <trkpt lat="38.874533" lon="-5.943133">
        <ele>1479.0</ele>
        <time>2019-05-04T14:34:29Z</time>
      </trkpt>
      <trkpt lat="38.874567" lon="-5.943083">
        <ele>1479.0</ele>
        <time>2019-05-04T14:34:30Z</time>
      </trkpt>
      <trkpt lat="38.874617" lon="-5.943083">
        <ele>1480.0</ele>
        <time>2019-05-04T14:34:31Z</time>
      </trkpt>
      <trkpt lat="38.874683" lon="-5.943133">
        <ele>1480.0</ele>
        <time>2019-05-04T14:34:32Z</time>
      </trkpt>
      <trkpt lat="38.874733" lon="-5.943183">
        <ele>1481.0</ele>
        <time>2019-05-04T14:34:33Z</time>
      </trkpt>
      <trkpt lat="38.874783" lon="-5.943267">
        <ele>1482.0</ele>
        <time>2019-05-04T14:34:34Z</time>
      </trkpt>
      <trkpt lat="38.874817" lon="-5.943350">
        <ele>1485.0</ele>
        <time>2019-05-04T14:34:35Z</time>
      </trkpt>
      <trkpt lat="38.874817" lon="-5.943433">
        <ele>1488.0</ele>
        <time>2019-05-04T14:34:36Z</time>
      </trkpt>
      <trkpt lat="38.874833" lon="-5.943517">
        <ele>1491.0</ele>
        <time>2019-05-04T14:34:37Z</time>
      </trkpt>
      <trkpt lat="38.874850" lon="-5.943600">
        <ele>1493.0</ele>
        <time>2019-05-04T14:34:38Z</time>
      </trkpt>
      <trkpt lat="38.874867" lon="-5.943667">
        <ele>1496.0</ele>
        <time>2019-05-04T14:34:39Z</time>
      </trkpt>
      <trkpt lat="38.874883" lon="-5.943733">
        <ele>1499.0</ele>
        <time>2019-05-04T14:34:40Z</time>
      </trkpt>
      <trkpt lat="38.874900" lon="-5.943800">
        <ele>1503.0</ele>
        <time>2019-05-04T14:34:41Z</time>
      </trkpt>
      <trkpt lat="38.874917" lon="-5.943867">
        <ele>1506.0</ele>
        <time>2019-05-04T14:34:42Z</time>
      </trkpt>
      <trkpt lat="38.874950" lon="-5.943933">
        <ele>1509.0</ele>
        <time>2019-05-04T14:34:43Z</time>
      </trkpt>
      <trkpt lat="38.874983" lon="-5.943983">
        <ele>1512.0</ele>
        <time>2019-05-04T14:34:44Z</time>
      </trkpt>
      <trkpt lat="38.875033" lon="-5.944017">
        <ele>1514.0</ele>
        <time>2019-05-04T14:34:45Z</time>
      </trkpt>
      <trkpt lat="38.875067" lon="-5.944017">
        <ele>1518.0</ele>
        <time>2019-05-04T14:34:46Z</time>
      </trkpt>
      <trkpt lat="38.875117" lon="-5.944000">
        <ele>1521.0</ele>
        <time>2019-05-04T14:34:47Z</time>
      </trkpt>
      <trkpt lat="38.875150" lon="-5.943917">
        <ele>1523.0</ele>
        <time>2019-05-04T14:34:48Z</time>
      </trkpt>
      <trkpt lat="38.875150" lon="-5.943833">
        <ele>1526.0</ele>
        <time>2019-05-04T14:34:49Z</time>
      </trkpt>
      <trkpt lat="38.875117" lon="-5.943717">
        <ele>1528.0</ele>
        <time>2019-05-04T14:34:50Z</time>
      </trkpt>
      <trkpt lat="38.875050" lon="-5.943617">
        <ele>1530.0</ele>
        <time>2019-05-04T14:34:51Z</time>
      </trkpt>
      <trkpt lat="38.874967" lon="-5.943533">
        <ele>1533.0</ele>
        <time>2019-05-04T14:34:52Z</time>
      </trkpt>
      <trkpt lat="38.874867" lon="-5.943483">
        <ele>1536.0</ele>
        <time>2019-05-04T14:34:53Z</time>
      </trkpt>
      <trkpt lat="38.874750" lon="-5.943450">
        <ele>1539.0</ele>
        <time>2019-05-04T14:34:54Z</time>
      </trkpt>
      <trkpt lat="38.874633" lon="-5.943450">
        <ele>1541.0</ele>
        <time>2019-05-04T14:34:55Z</time>
      </trkpt>
      <trkpt lat="38.874500" lon="-5.943483">
        <ele>1544.0</ele>
        <time>2019-05-04T14:34:56Z</time>
      </trkpt>
      <trkpt lat="38.874383" lon="-5.943550">
        <ele>1547.0</ele>
        <time>2019-05-04T14:34:57Z</time>
      </trkpt>
      <trkpt lat="38.874300" lon="-5.943650">
        <ele>1550.0</ele>
        <time>2019-05-04T14:34:58Z</time>
      </trkpt>
      <trkpt lat="38.874250" lon="-5.943767">
        <ele>1552.0</ele>
        <time>2019-05-04T14:34:59Z</time>
      </trkpt>
      <trkpt lat="38.874217" lon="-5.943867">
        <ele>1555.0</ele>
        <time>2019-05-04T14:35:00Z</time>
      </trkpt>
      <trkpt lat="38.874217" lon="-5.943967">
        <ele>1557.0</ele>
        <time>2019-05-04T14:35:01Z</time>
      </trkpt>
      <trkpt lat="38.874233" lon="-5.944033">
        <ele>1558.0</ele>
        <time>2019-05-04T14:35:02Z</time>
      </trkpt>
      <trkpt lat="38.874267" lon="-5.944083">
        <ele>1560.0</ele>
        <time>2019-05-04T14:35:03Z</time>
      </trkpt>
      <trkpt lat="38.874317" lon="-5.944100">
        <ele>1560.0</ele>
        <time>2019-05-04T14:35:04Z</time>
      </trkpt>
      <trkpt lat="38.874350" lon="-5.944083">
        <ele>1562.0</ele>
        <time>2019-05-04T14:35:05Z</time>
      </trkpt>
      <trkpt lat="38.874383" lon="-5.944017">
        <ele>1563.0</ele>
        <time>2019-05-04T14:35:06Z</time>
      </trkpt>
      <trkpt lat="38.874400" lon="-5.943950">
        <ele>1567.0</ele>
        <time>2019-05-04T14:35:07Z</time>
      </trkpt>
      <trkpt lat="38.874417" lon="-5.943883">
        <ele>1571.0</ele>
        <time>2019-05-04T14:35:08Z</time>
      </trkpt>
      <trkpt lat="38.874417" lon="-5.943817">
        <ele>1575.0</ele>
        <time>2019-05-04T14:35:09Z</time>
      </trkpt>
      <trkpt lat="38.874417" lon="-5.943767">
        <ele>1579.0</ele>
        <time>2019-05-04T14:35:10Z</time>
      </trkpt>
      <trkpt lat="38.874433" lon="-5.943683">
        <ele>1581.0</ele>
        <time>2019-05-04T14:35:11Z</time>
      </trkpt>
      <trkpt lat="38.874417" lon="-5.943583">
        <ele>1584.0</ele>
        <time>2019-05-04T14:35:12Z</time>
      </trkpt>
      <trkpt lat="38.874383" lon="-5.943467">
        <ele>1585.0</ele>
        <time>2019-05-04T14:35:13Z</time>
      </trkpt>
      <trkpt lat="38.874300" lon="-5.943367">
        <ele>1586.0</ele>
        <time>2019-05-04T14:35:14Z</time>
      </trkpt>
      <trkpt lat="38.874200" lon="-5.943283">
        <ele>1588.0</ele>
        <time>2019-05-04T14:35:15Z</time>
      </trkpt>
      <trkpt lat="38.874083" lon="-5.943233">
        <ele>1590.0</ele>
        <time>2019-05-04T14:35:16Z</time>
      </trkpt>
      <trkpt lat="38.873950" lon="-5.943217">
        <ele>1592.0</ele>
        <time>2019-05-04T14:35:17Z</time>
      </trkpt>
      <trkpt lat="38.873817" lon="-5.943233">
        <ele>1595.0</ele>
        <time>2019-05-04T14:35:18Z</time>
      </trkpt>
      <trkpt lat="38.873700" lon="-5.943283">
        <ele>1597.0</ele>
        <time>2019-05-04T14:35:19Z</time>
      </trkpt>
      <trkpt lat="38.873600" lon="-5.943367">
        <ele>1598.0</ele>
        <time>2019-05-04T14:35:20Z</time>
      </trkpt>
      <trkpt lat="38.873533" lon="-5.943483">
        <ele>1600.0</ele>
        <time>2019-05-04T14:35:21Z</time>
      </trkpt>
      <trkpt lat="38.873483" lon="-5.943600">
        <ele>1603.0</ele>
        <time>2019-05-04T14:35:22Z</time>
      </trkpt>
      <trkpt lat="38.873450" lon="-5.943683">
        <ele>1605.0</ele>
        <time>2019-05-04T14:35:23Z</time>
      </trkpt>
      <trkpt lat="38.873433" lon="-5.943783">
        <ele>1607.0</ele>
        <time>2019-05-04T14:35:24Z</time>
      </trkpt>
      <trkpt lat="38.873450" lon="-5.943867">
        <ele>1608.0</ele>
        <time>2019-05-04T14:35:25Z</time>
      </trkpt>
      <trkpt lat="38.873483" lon="-5.943950">
        <ele>1610.0</ele>
        <time>2019-05-04T14:35:26Z</time>
      </trkpt>
      <trkpt lat="38.873533" lon="-5.944000">
        <ele>1612.0</ele>
        <time>2019-05-04T14:35:27Z</time>
      </trkpt>
      <trkpt lat="38.873583" lon="-5.943983">
        <ele>1615.0</ele>
        <time>2019-05-04T14:35:28Z</time>
      </trkpt>
      <trkpt lat="38.873617" lon="-5.943950">
        <ele>1617.0</ele>
        <time>2019-05-04T14:35:29Z</time>
      </trkpt>
      <trkpt lat="38.873633" lon="-5.943867">
        <ele>1618.0</ele>
        <time>2019-05-04T14:35:30Z</time>
      </trkpt>
      <trkpt lat="38.873650" lon="-5.943750">
        <ele>1617.0</ele>
        <time>2019-05-04T14:35:31Z</time>
      </trkpt>
      <trkpt lat="38.873617" lon="-5.943667">
        <ele>1617.0</ele>
        <time>2019-05-04T14:35:32Z</time>
      </trkpt>
      <trkpt lat="38.873550" lon="-5.943583">
        <ele>1617.0</ele>
        <time>2019-05-04T14:35:33Z</time>
      </trkpt>
      <trkpt lat="38.873467" lon="-5.943500">
        <ele>1618.0</ele>
        <time>2019-05-04T14:35:34Z</time>
      </trkpt>
      <trkpt lat="38.873367" lon="-5.943450">
        <ele>1619.0</ele>
        <time>2019-05-04T14:35:35Z</time>
      </trkpt>
      <trkpt lat="38.873233" lon="-5.943417">
        <ele>1620.0</ele>
        <time>2019-05-04T14:35:36Z</time>
      </trkpt>
      <trkpt lat="38.873117" lon="-5.943417">
        <ele>1623.0</ele>
        <time>2019-05-04T14:35:37Z</time>
      </trkpt>
      <trkpt lat="38.873000" lon="-5.943450">
        <ele>1625.0</ele>
        <time>2019-05-04T14:35:38Z</time>
      </trkpt>
      <trkpt lat="38.872917" lon="-5.943533">
        <ele>1626.0</ele>
        <time>2019-05-04T14:35:39Z</time>
      </trkpt>
      <trkpt lat="38.872833" lon="-5.943617">
        <ele>1627.0</ele>
        <time>2019-05-04T14:35:40Z</time>
      </trkpt>
      <trkpt lat="38.872783" lon="-5.943717">
        <ele>1629.0</ele>
        <time>2019-05-04T14:35:41Z</time>
      </trkpt>
      <trkpt lat="38.872750" lon="-5.943833">
        <ele>1631.0</ele>
        <time>2019-05-04T14:35:42Z</time>
      </trkpt>
      <trkpt lat="38.872750" lon="-5.943917">
        <ele>1634.0</ele>
        <time>2019-05-04T14:35:43Z</time>
      </trkpt>
      <trkpt lat="38.872767" lon="-5.943983">
        <ele>1635.0</ele>
        <time>2019-05-04T14:35:44Z</time>
      </trkpt>
      <trkpt lat="38.872800" lon="-5.944067">
        <ele>1637.0</ele>
        <time>2019-05-04T14:35:45Z</time>
      </trkpt>
      <trkpt lat="38.872833" lon="-5.944133">
        <ele>1638.0</ele>
        <time>2019-05-04T14:35:46Z</time>
      </trkpt>
      <trkpt lat="38.872850" lon="-5.944183">
        <ele>1640.0</ele>
        <time>2019-05-04T14:35:47Z</time>
      </trkpt>
      <trkpt lat="38.872883" lon="-5.944233">
        <ele>1642.0</ele>
        <time>2019-05-04T14:35:48Z</time>
      </trkpt>
      <trkpt lat="38.872900" lon="-5.944250">
        <ele>1644.0</ele>
        <time>2019-05-04T14:35:49Z</time>
      </trkpt>
      <trkpt lat="38.872933" lon="-5.944283">
        <ele>1645.0</ele>
        <time>2019-05-04T14:35:50Z</time>
      </trkpt>
      <trkpt lat="38.872967" lon="-5.944283">
        <ele>1645.0</ele>
        <time>2019-05-04T14:35:51Z</time>
      </trkpt>
      <trkpt lat="38.873000" lon="-5.944283">
        <ele>1646.0</ele>
        <time>2019-05-04T14:35:52Z</time>
      </trkpt>
      <trkpt lat="38.873033" lon="-5.944233">
        <ele>1647.0</ele>
        <time>2019-05-04T14:35:53Z</time>
      </trkpt>
      <trkpt lat="38.873033" lon="-5.944150">
        <ele>1647.0</ele>
        <time>2019-05-04T14:35:54Z</time>
      </trkpt>
      <trkpt lat="38.873033" lon="-5.944050">
        <ele>1647.0</ele>
        <time>2019-05-04T14:35:55Z</time>
      </trkpt>
      <trkpt lat="38.873000" lon="-5.943967">
        <ele>1648.0</ele>
        <time>2019-05-04T14:35:56Z</time>
      </trkpt>
      <trkpt lat="38.872983" lon="-5.943883">
        <ele>1650.0</ele>
        <time>2019-05-04T14:35:57Z</time>
      </trkpt>
      <trkpt lat="38.872967" lon="-5.943800">
        <ele>1653.0</ele>
        <time>2019-05-04T14:35:58Z</time>
      </trkpt>
      <trkpt lat="38.872933" lon="-5.943717">
        <ele>1655.0</ele>
        <time>2019-05-04T14:35:59Z</time>
      </trkpt>
      <trkpt lat="38.872900" lon="-5.943617">
        <ele>1656.0</ele>
        <time>2019-05-04T14:36:00Z</time>
      </trkpt>
      <trkpt lat="38.872817" lon="-5.943517">
        <ele>1658.0</ele>
        <time>2019-05-04T14:36:01Z</time>
      </trkpt>
      <trkpt lat="38.872717" lon="-5.943450">
        <ele>1659.0</ele>
        <time>2019-05-04T14:36:02Z</time>
      </trkpt>
      <trkpt lat="38.872600" lon="-5.943433">
        <ele>1660.0</ele>
        <time>2019-05-04T14:36:03Z</time>
      </trkpt>
      <trkpt lat="38.872483" lon="-5.943450">
        <ele>1660.0</ele>
        <time>2019-05-04T14:36:04Z</time>
      </trkpt>
      <trkpt lat="38.872367" lon="-5.943517">
        <ele>1661.0</ele>
        <time>2019-05-04T14:36:05Z</time>
      </trkpt>
      <trkpt lat="38.872283" lon="-5.943600">
        <ele>1663.0</ele>
        <time>2019-05-04T14:36:06Z</time>
      </trkpt>
      <trkpt lat="38.872217" lon="-5.943700">
        <ele>1664.0</ele>
        <time>2019-05-04T14:36:07Z</time>
      </trkpt>
      <trkpt lat="38.872150" lon="-5.943800">
        <ele>1666.0</ele>
        <time>2019-05-04T14:36:08Z</time>
      </trkpt>
      <trkpt lat="38.872133" lon="-5.943900">
        <ele>1667.0</ele>
        <time>2019-05-04T14:36:09Z</time>
      </trkpt>
      <trkpt lat="38.872117" lon="-5.944000">
        <ele>1668.0</ele>
        <time>2019-05-04T14:36:10Z</time>
      </trkpt>
      <trkpt lat="38.872133" lon="-5.944083">
        <ele>1668.0</ele>
        <time>2019-05-04T14:36:11Z</time>
      </trkpt>
      <trkpt lat="38.872167" lon="-5.944150">
        <ele>1668.0</ele>
        <time>2019-05-04T14:36:12Z</time>
      </trkpt>
      <trkpt lat="38.872200" lon="-5.944183">
        <ele>1669.0</ele>
        <time>2019-05-04T14:36:13Z</time>
      </trkpt>
      <trkpt lat="38.872233" lon="-5.944200">
        <ele>1670.0</ele>
        <time>2019-05-04T14:36:14Z</time>
      </trkpt>
      <trkpt lat="38.872267" lon="-5.944183">
        <ele>1670.0</ele>
        <time>2019-05-04T14:36:15Z</time>
      </trkpt>
      <trkpt lat="38.872300" lon="-5.944167">
        <ele>1671.0</ele>
        <time>2019-05-04T14:36:16Z</time>
      </trkpt>
      <trkpt lat="38.872317" lon="-5.944117">
        <ele>1672.0</ele>
        <time>2019-05-04T14:36:17Z</time>
      </trkpt>
      <trkpt lat="38.872317" lon="-5.944050">
        <ele>1673.0</ele>
        <time>2019-05-04T14:36:18Z</time>
      </trkpt>
      <trkpt lat="38.872300" lon="-5.943967">
        <ele>1673.0</ele>
        <time>2019-05-04T14:36:19Z</time>
      </trkpt>
      <trkpt lat="38.872283" lon="-5.943883">
        <ele>1673.0</ele>
        <time>2019-05-04T14:36:20Z</time>
      </trkpt>
      <trkpt lat="38.872233" lon="-5.943783">
        <ele>1673.0</ele>
        <time>2019-05-04T14:36:21Z</time>
      </trkpt>
      <trkpt lat="38.872150" lon="-5.943700">
        <ele>1673.0</ele>
        <time>2019-05-04T14:36:22Z</time>
      </trkpt>
      <trkpt lat="38.872067" lon="-5.943650">
        <ele>1673.0</ele>
        <time>2019-05-04T14:36:23Z</time>
      </trkpt>
      <trkpt lat="38.871967" lon="-5.943600">
        <ele>1673.0</ele>
        <time>2019-05-04T14:36:24Z</time>
      </trkpt>
      <trkpt lat="38.871867" lon="-5.943567">
        <ele>1673.0</ele>
        <time>2019-05-04T14:36:25Z</time>
      </trkpt>
      <trkpt lat="38.871767" lon="-5.943567">
        <ele>1673.0</ele>
        <time>2019-05-04T14:36:26Z</time>
      </trkpt>
      <trkpt lat="38.871667" lon="-5.943583">
        <ele>1673.0</ele>
        <time>2019-05-04T14:36:27Z</time>
      </trkpt>
      <trkpt lat="38.871567" lon="-5.943633">
        <ele>1672.0</ele>
        <time>2019-05-04T14:36:28Z</time>
      </trkpt>
      <trkpt lat="38.871483" lon="-5.943683">
        <ele>1672.0</ele>
        <time>2019-05-04T14:36:29Z</time>
      </trkpt>
      <trkpt lat="38.871417" lon="-5.943800">
        <ele>1671.0</ele>
        <time>2019-05-04T14:36:30Z</time>
      </trkpt>
      <trkpt lat="38.871350" lon="-5.943917">
        <ele>1670.0</ele>
        <time>2019-05-04T14:36:31Z</time>
      </trkpt>
      <trkpt lat="38.871317" lon="-5.944033">
        <ele>1669.0</ele>
        <time>2019-05-04T14:36:32Z</time>
      </trkpt>
      <trkpt lat="38.871300" lon="-5.944133">
        <ele>1668.0</ele>
        <time>2019-05-04T14:36:33Z</time>
      </trkpt>
      <trkpt lat="38.871300" lon="-5.944233">
        <ele>1667.0</ele>
        <time>2019-05-04T14:36:34Z</time>
      </trkpt>
      <trkpt lat="38.871300" lon="-5.944333">
        <ele>1666.0</ele>
        <time>2019-05-04T14:36:35Z</time>
      </trkpt>
      <trkpt lat="38.871317" lon="-5.944433">
        <ele>1665.0</ele>
        <time>2019-05-04T14:36:36Z</time>
      </trkpt>
      <trkpt lat="38.871333" lon="-5.944517">
        <ele>1664.0</ele>
        <time>2019-05-04T14:36:37Z</time>
      </trkpt>
      <trkpt lat="38.871367" lon="-5.944600">
        <ele>1664.0</ele>
        <time>2019-05-04T14:36:38Z</time>
      </trkpt>
      <trkpt lat="38.871383" lon="-5.944650">
        <ele>1663.0</ele>
        <time>2019-05-04T14:36:39Z</time>
      </trkpt>
      <trkpt lat="38.871417" lon="-5.944683">
        <ele>1661.0</ele>
        <time>2019-05-04T14:36:40Z</time>
      </trkpt>
      <trkpt lat="38.871450" lon="-5.944700">
        <ele>1659.0</ele>
        <time>2019-05-04T14:36:41Z</time>
      </trkpt>
      <trkpt lat="38.871500" lon="-5.944733">
        <ele>1656.0</ele>
        <time>2019-05-04T14:36:42Z</time>
      </trkpt>
      <trkpt lat="38.871550" lon="-5.944750">
        <ele>1654.0</ele>
        <time>2019-05-04T14:36:43Z</time>
      </trkpt>
      <trkpt lat="38.871600" lon="-5.944767">
        <ele>1652.0</ele>
        <time>2019-05-04T14:36:44Z</time>
      </trkpt>
      <trkpt lat="38.871650" lon="-5.944767">
        <ele>1652.0</ele>
        <time>2019-05-04T14:36:45Z</time>
      </trkpt>
      <trkpt lat="38.871700" lon="-5.944767">
        <ele>1652.0</ele>
        <time>2019-05-04T14:36:46Z</time>
      </trkpt>
      <trkpt lat="38.871733" lon="-5.944783">
        <ele>1652.0</ele>
        <time>2019-05-04T14:36:47Z</time>
      </trkpt>
      <trkpt lat="38.871783" lon="-5.944767">
        <ele>1651.0</ele>
        <time>2019-05-04T14:36:48Z</time>
      </trkpt>
      <trkpt lat="38.871833" lon="-5.944750">
        <ele>1650.0</ele>
        <time>2019-05-04T14:36:49Z</time>
      </trkpt>
      <trkpt lat="38.871867" lon="-5.944717">
        <ele>1649.0</ele>
        <time>2019-05-04T14:36:50Z</time>
      </trkpt>
      <trkpt lat="38.871900" lon="-5.944683">
        <ele>1648.0</ele>
        <time>2019-05-04T14:36:51Z</time>
      </trkpt>
      <trkpt lat="38.871933" lon="-5.944633">
        <ele>1647.0</ele>
        <time>2019-05-04T14:36:52Z</time>
      </trkpt>
      <trkpt lat="38.871950" lon="-5.944567">
        <ele>1647.0</ele>
        <time>2019-05-04T14:36:53Z</time>
      </trkpt>
      <trkpt lat="38.871950" lon="-5.944500">
        <ele>1646.0</ele>
        <time>2019-05-04T14:36:54Z</time>
      </trkpt>
      <trkpt lat="38.871950" lon="-5.944400">
        <ele>1645.0</ele>
        <time>2019-05-04T14:36:55Z</time>
      </trkpt>
      <trkpt lat="38.871933" lon="-5.944317">
        <ele>1645.0</ele>
        <time>2019-05-04T14:36:56Z</time>
      </trkpt>
      <trkpt lat="38.871933" lon="-5.944233">
        <ele>1645.0</ele>
        <time>2019-05-04T14:36:57Z</time>
      </trkpt>
      <trkpt lat="38.871933" lon="-5.944150">
        <ele>1646.0</ele>
        <time>2019-05-04T14:36:58Z</time>
      </trkpt>
      <trkpt lat="38.871933" lon="-5.944067">
        <ele>1647.0</ele>
        <time>2019-05-04T14:36:59Z</time>
      </trkpt>
      <trkpt lat="38.871933" lon="-5.943983">
        <ele>1648.0</ele>
        <time>2019-05-04T14:37:00Z</time>
      </trkpt>
      <trkpt lat="38.871933" lon="-5.943900">
        <ele>1649.0</ele>
        <time>2019-05-04T14:37:01Z</time>
      </trkpt>
      <trkpt lat="38.871950" lon="-5.943817">
        <ele>1653.0</ele>
        <time>2019-05-04T14:37:02Z</time>
      </trkpt>
      <trkpt lat="38.871950" lon="-5.943717">
        <ele>1655.0</ele>
        <time>2019-05-04T14:37:03Z</time>
      </trkpt>
      <trkpt lat="38.871933" lon="-5.943617">
        <ele>1658.0</ele>
        <time>2019-05-04T14:37:04Z</time>
      </trkpt>
      <trkpt lat="38.871867" lon="-5.943500">
        <ele>1662.0</ele>
        <time>2019-05-04T14:37:05Z</time>
      </trkpt>
      <trkpt lat="38.871767" lon="-5.943400">
        <ele>1665.0</ele>
        <time>2019-05-04T14:37:06Z</time>
      </trkpt>
      <trkpt lat="38.871650" lon="-5.943333">
        <ele>1667.0</ele>
        <time>2019-05-04T14:37:07Z</time>
      </trkpt>
      <trkpt lat="38.871517" lon="-5.943317">
        <ele>1670.0</ele>
        <time>2019-05-04T14:37:08Z</time>
      </trkpt>
      <trkpt lat="38.871417" lon="-5.943333">
        <ele>1672.0</ele>
        <time>2019-05-04T14:37:09Z</time>
      </trkpt>
      <trkpt lat="38.871317" lon="-5.943383">
        <ele>1674.0</ele>
        <time>2019-05-04T14:37:10Z</time>
      </trkpt>
      <trkpt lat="38.871233" lon="-5.943450">
        <ele>1675.0</ele>
        <time>2019-05-04T14:37:11Z</time>
      </trkpt>
      <trkpt lat="38.871167" lon="-5.943533">
        <ele>1675.0</ele>
        <time>2019-05-04T14:37:12Z</time>
      </trkpt>
      <trkpt lat="38.871083" lon="-5.943633">
        <ele>1676.0</ele>
        <time>2019-05-04T14:37:13Z</time>
      </trkpt>
      <trkpt lat="38.871033" lon="-5.943750">
        <ele>1675.0</ele>
        <time>2019-05-04T14:37:14Z</time>
      </trkpt>
      <trkpt lat="38.871000" lon="-5.943900">
        <ele>1674.0</ele>
        <time>2019-05-04T14:37:15Z</time>
      </trkpt>
      <trkpt lat="38.871017" lon="-5.944033">
        <ele>1672.0</ele>
        <time>2019-05-04T14:37:16Z</time>
      </trkpt>
      <trkpt lat="38.871067" lon="-5.944133">
        <ele>1669.0</ele>
        <time>2019-05-04T14:37:17Z</time>
      </trkpt>
      <trkpt lat="38.871133" lon="-5.944183">
        <ele>1668.0</ele>
        <time>2019-05-04T14:37:18Z</time>
      </trkpt>
      <trkpt lat="38.871200" lon="-5.944217">
        <ele>1669.0</ele>
        <time>2019-05-04T14:37:19Z</time>
      </trkpt>
      <trkpt lat="38.871250" lon="-5.944200">
        <ele>1670.0</ele>
        <time>2019-05-04T14:37:20Z</time>
      </trkpt>
      <trkpt lat="38.871317" lon="-5.944200">
        <ele>1670.0</ele>
        <time>2019-05-04T14:37:21Z</time>
      </trkpt>
      <trkpt lat="38.871350" lon="-5.944233">
        <ele>1674.0</ele>
        <time>2019-05-04T14:37:22Z</time>
      </trkpt>
      <trkpt lat="38.871400" lon="-5.944267">
        <ele>1677.0</ele>
        <time>2019-05-04T14:37:23Z</time>
      </trkpt>
      <trkpt lat="38.871433" lon="-5.944283">
        <ele>1680.0</ele>
        <time>2019-05-04T14:37:24Z</time>
      </trkpt>
      <trkpt lat="38.871467" lon="-5.944300">
        <ele>1683.0</ele>
        <time>2019-05-04T14:37:25Z</time>
      </trkpt>
      <trkpt lat="38.871517" lon="-5.944317">
        <ele>1684.0</ele>
        <time>2019-05-04T14:37:26Z</time>
      </trkpt>
      <trkpt lat="38.871550" lon="-5.944333">
        <ele>1686.0</ele>
        <time>2019-05-04T14:37:27Z</time>
      </trkpt>
      <trkpt lat="38.871600" lon="-5.944333">
        <ele>1688.0</ele>
        <time>2019-05-04T14:37:28Z</time>
      </trkpt>
      <trkpt lat="38.871633" lon="-5.944333">
        <ele>1690.0</ele>
        <time>2019-05-04T14:37:29Z</time>
      </trkpt>
      <trkpt lat="38.871650" lon="-5.944300">
        <ele>1692.0</ele>
        <time>2019-05-04T14:37:30Z</time>
      </trkpt>
      <trkpt lat="38.871683" lon="-5.944267">
        <ele>1693.0</ele>
        <time>2019-05-04T14:37:31Z</time>
      </trkpt>
      <trkpt lat="38.871700" lon="-5.944200">
        <ele>1695.0</ele>
        <time>2019-05-04T14:37:32Z</time>
      </trkpt>
      <trkpt lat="38.871700" lon="-5.944117">
        <ele>1696.0</ele>
        <time>2019-05-04T14:37:33Z</time>
      </trkpt>
      <trkpt lat="38.871683" lon="-5.944000">
        <ele>1698.0</ele>
        <time>2019-05-04T14:37:34Z</time>
      </trkpt>
      <trkpt lat="38.871600" lon="-5.943900">
        <ele>1698.0</ele>
        <time>2019-05-04T14:37:35Z</time>
      </trkpt>
      <trkpt lat="38.871483" lon="-5.943833">
        <ele>1698.0</ele>
        <time>2019-05-04T14:37:36Z</time>
      </trkpt>
      <trkpt lat="38.871350" lon="-5.943817">
        <ele>1699.0</ele>
        <time>2019-05-04T14:37:37Z</time>
      </trkpt>
      <trkpt lat="38.871217" lon="-5.943867">
        <ele>1700.0</ele>
        <time>2019-05-04T14:37:38Z</time>
      </trkpt>
      <trkpt lat="38.871100" lon="-5.943917">
        <ele>1702.0</ele>
        <time>2019-05-04T14:37:39Z</time>
      </trkpt>
      <trkpt lat="38.871017" lon="-5.943983">
        <ele>1706.0</ele>
        <time>2019-05-04T14:37:40Z</time>
      </trkpt>
      <trkpt lat="38.870933" lon="-5.944083">
        <ele>1708.0</ele>
        <time>2019-05-04T14:37:41Z</time>
      </trkpt>
      <trkpt lat="38.870867" lon="-5.944200">
        <ele>1710.0</ele>
        <time>2019-05-04T14:37:42Z</time>
      </trkpt>
      <trkpt lat="38.870833" lon="-5.944317">
        <ele>1711.0</ele>
        <time>2019-05-04T14:37:43Z</time>
      </trkpt>
      <trkpt lat="38.870833" lon="-5.944433">
        <ele>1713.0</ele>
        <time>2019-05-04T14:37:44Z</time>
      </trkpt>
      <trkpt lat="38.870867" lon="-5.944533">
        <ele>1714.0</ele>
        <time>2019-05-04T14:37:45Z</time>
      </trkpt>
      <trkpt lat="38.870900" lon="-5.944583">
        <ele>1715.0</ele>
        <time>2019-05-04T14:37:46Z</time>
      </trkpt>
      <trkpt lat="38.870933" lon="-5.944617">
        <ele>1716.0</ele>
        <time>2019-05-04T14:37:47Z</time>
      </trkpt>
      <trkpt lat="38.870967" lon="-5.944600">
        <ele>1717.0</ele>
        <time>2019-05-04T14:37:48Z</time>
      </trkpt>
      <trkpt lat="38.871000" lon="-5.944567">
        <ele>1718.0</ele>
        <time>2019-05-04T14:37:49Z</time>
      </trkpt>
      <trkpt lat="38.871017" lon="-5.944517">
        <ele>1718.0</ele>
        <time>2019-05-04T14:37:50Z</time>
      </trkpt>
      <trkpt lat="38.871017" lon="-5.944450">
        <ele>1719.0</ele>
        <time>2019-05-04T14:37:51Z</time>
      </trkpt>
      <trkpt lat="38.871000" lon="-5.944367">
        <ele>1720.0</ele>
        <time>2019-05-04T14:37:52Z</time>
      </trkpt>
      <trkpt lat="38.870967" lon="-5.944267">
        <ele>1720.0</ele>
        <time>2019-05-04T14:37:53Z</time>
      </trkpt>
      <trkpt lat="38.870917" lon="-5.944167">
        <ele>1720.0</ele>
        <time>2019-05-04T14:37:54Z</time>
      </trkpt>
      <trkpt lat="38.870867" lon="-5.944067">
        <ele>1721.0</ele>
        <time>2019-05-04T14:37:55Z</time>
      </trkpt>
      <trkpt lat="38.870817" lon="-5.943983">
        <ele>1723.0</ele>
        <time>2019-05-04T14:37:56Z</time>
      </trkpt>
      <trkpt lat="38.870733" lon="-5.943900">
        <ele>1724.0</ele>
        <time>2019-05-04T14:37:57Z</time>
      </trkpt>
      <trkpt lat="38.870650" lon="-5.943817">
        <ele>1724.0</ele>
        <time>2019-05-04T14:37:58Z</time>
      </trkpt>
      <trkpt lat="38.870550" lon="-5.943750">
        <ele>1723.0</ele>
        <time>2019-05-04T14:37:59Z</time>
      </trkpt>
      <trkpt lat="38.870433" lon="-5.943717">
        <ele>1723.0</ele>
        <time>2019-05-04T14:38:00Z</time>
      </trkpt>
      <trkpt lat="38.870317" lon="-5.943733">
        <ele>1723.0</ele>
        <time>2019-05-04T14:38:01Z</time>
      </trkpt>
      <trkpt lat="38.870217" lon="-5.943767">
        <ele>1724.0</ele>
        <time>2019-05-04T14:38:02Z</time>
      </trkpt>
      <trkpt lat="38.870117" lon="-5.943833">
        <ele>1725.0</ele>
        <time>2019-05-04T14:38:03Z</time>
      </trkpt>
      <trkpt lat="38.870033" lon="-5.943883">
        <ele>1727.0</ele>
        <time>2019-05-04T14:38:04Z</time>
      </trkpt>
      <trkpt lat="38.869933" lon="-5.943933">
        <ele>1727.0</ele>
        <time>2019-05-04T14:38:05Z</time>
      </trkpt>
      <trkpt lat="38.869833" lon="-5.944000">
        <ele>1727.0</ele>
        <time>2019-05-04T14:38:06Z</time>
      </trkpt>
      <trkpt lat="38.869733" lon="-5.944100">
        <ele>1727.0</ele>
        <time>2019-05-04T14:38:07Z</time>
      </trkpt>
      <trkpt lat="38.869683" lon="-5.944233">
        <ele>1727.0</ele>
        <time>2019-05-04T14:38:08Z</time>
      </trkpt>
      <trkpt lat="38.869633" lon="-5.944350">
        <ele>1727.0</ele>
        <time>2019-05-04T14:38:09Z</time>
      </trkpt>
      <trkpt lat="38.869617" lon="-5.944467">
        <ele>1727.0</ele>
        <time>2019-05-04T14:38:10Z</time>
      </trkpt>
      <trkpt lat="38.869600" lon="-5.944567">
        <ele>1726.0</ele>
        <time>2019-05-04T14:38:11Z</time>
      </trkpt>
      <trkpt lat="38.869600" lon="-5.944667">
        <ele>1726.0</ele>
        <time>2019-05-04T14:38:12Z</time>
      </trkpt>
      <trkpt lat="38.869617" lon="-5.944767">
        <ele>1725.0</ele>
        <time>2019-05-04T14:38:13Z</time>
      </trkpt>
      <trkpt lat="38.869650" lon="-5.944850">
        <ele>1723.0</ele>
        <time>2019-05-04T14:38:14Z</time>
      </trkpt>
      <trkpt lat="38.869700" lon="-5.944917">
        <ele>1722.0</ele>
        <time>2019-05-04T14:38:15Z</time>
      </trkpt>
      <trkpt lat="38.869733" lon="-5.944950">
        <ele>1721.0</ele>
        <time>2019-05-04T14:38:16Z</time>
      </trkpt>
      <trkpt lat="38.869767" lon="-5.944967">
        <ele>1721.0</ele>
        <time>2019-05-04T14:38:17Z</time>
      </trkpt>
      <trkpt lat="38.869783" lon="-5.944983">
        <ele>1719.0</ele>
        <time>2019-05-04T14:38:18Z</time>
      </trkpt>
      <trkpt lat="38.869817" lon="-5.944983">
        <ele>1717.0</ele>
        <time>2019-05-04T14:38:19Z</time>
      </trkpt>
      <trkpt lat="38.869867" lon="-5.945000">
        <ele>1714.0</ele>
        <time>2019-05-04T14:38:20Z</time>
      </trkpt>
      <trkpt lat="38.869917" lon="-5.944983">
        <ele>1711.0</ele>
        <time>2019-05-04T14:38:21Z</time>
      </trkpt>
      <trkpt lat="38.869950" lon="-5.944933">
        <ele>1709.0</ele>
        <time>2019-05-04T14:38:22Z</time>
      </trkpt>
      <trkpt lat="38.869983" lon="-5.944867">
        <ele>1708.0</ele>
        <time>2019-05-04T14:38:23Z</time>
      </trkpt>
      <trkpt lat="38.870000" lon="-5.944800">
        <ele>1707.0</ele>
        <time>2019-05-04T14:38:24Z</time>
      </trkpt>
      <trkpt lat="38.870000" lon="-5.944733">
        <ele>1707.0</ele>
        <time>2019-05-04T14:38:25Z</time>
      </trkpt>
      <trkpt lat="38.870017" lon="-5.944667">
        <ele>1705.0</ele>
        <time>2019-05-04T14:38:26Z</time>
      </trkpt>
      <trkpt lat="38.870033" lon="-5.944583">
        <ele>1704.0</ele>
        <time>2019-05-04T14:38:27Z</time>
      </trkpt>
      <trkpt lat="38.870033" lon="-5.944500">
        <ele>1703.0</ele>
        <time>2019-05-04T14:38:28Z</time>
      </trkpt>
      <trkpt lat="38.870050" lon="-5.944433">
        <ele>1703.0</ele>
        <time>2019-05-04T14:38:29Z</time>
      </trkpt>
      <trkpt lat="38.870067" lon="-5.944350">
        <ele>1702.0</ele>
        <time>2019-05-04T14:38:30Z</time>
      </trkpt>
      <trkpt lat="38.870067" lon="-5.944267">
        <ele>1701.0</ele>
        <time>2019-05-04T14:38:31Z</time>
      </trkpt>
      <trkpt lat="38.870067" lon="-5.944200">
        <ele>1702.0</ele>
        <time>2019-05-04T14:38:32Z</time>
      </trkpt>
      <trkpt lat="38.870067" lon="-5.944117">
        <ele>1703.0</ele>
        <time>2019-05-04T14:38:33Z</time>
      </trkpt>
      <trkpt lat="38.870083" lon="-5.944033">
        <ele>1702.0</ele>
        <time>2019-05-04T14:38:34Z</time>
      </trkpt>
      <trkpt lat="38.870083" lon="-5.943950">
        <ele>1702.0</ele>
        <time>2019-05-04T14:38:35Z</time>
      </trkpt>
      <trkpt lat="38.870100" lon="-5.943850">
        <ele>1702.0</ele>
        <time>2019-05-04T14:38:36Z</time>
      </trkpt>
      <trkpt lat="38.870100" lon="-5.943733">
        <ele>1703.0</ele>
        <time>2019-05-04T14:38:37Z</time>
      </trkpt>
      <trkpt lat="38.870100" lon="-5.943633">
        <ele>1704.0</ele>
        <time>2019-05-04T14:38:38Z</time>
      </trkpt>
      <trkpt lat="38.870100" lon="-5.943550">
        <ele>1706.0</ele>
        <time>2019-05-04T14:38:39Z</time>
      </trkpt>
      <trkpt lat="38.870100" lon="-5.943450">
        <ele>1709.0</ele>
        <time>2019-05-04T14:38:40Z</time>
      </trkpt>
      <trkpt lat="38.870100" lon="-5.943367">
        <ele>1710.0</ele>
        <time>2019-05-04T14:38:41Z</time>
      </trkpt>
      <trkpt lat="38.870100" lon="-5.943267">
        <ele>1710.0</ele>
        <time>2019-05-04T14:38:42Z</time>
      </trkpt>
      <trkpt lat="38.870083" lon="-5.943167">
        <ele>1711.0</ele>
        <time>2019-05-04T14:38:43Z</time>
      </trkpt>
      <trkpt lat="38.870050" lon="-5.943067">
        <ele>1710.0</ele>
        <time>2019-05-04T14:38:44Z</time>
      </trkpt>
      <trkpt lat="38.870017" lon="-5.942967">
        <ele>1707.0</ele>
        <time>2019-05-04T14:38:45Z</time>
      </trkpt>
      <trkpt lat="38.869933" lon="-5.942883">
        <ele>1705.0</ele>
        <time>2019-05-04T14:38:46Z</time>
      </trkpt>
      <trkpt lat="38.869850" lon="-5.942783">
        <ele>1702.0</ele>
        <time>2019-05-04T14:38:47Z</time>
      </trkpt>
      <trkpt lat="38.869750" lon="-5.942717">
        <ele>1700.0</ele>
        <time>2019-05-04T14:38:48Z</time>
      </trkpt>
      <trkpt lat="38.869650" lon="-5.942667">
        <ele>1700.0</ele>
        <time>2019-05-04T14:38:49Z</time>
      </trkpt>
      <trkpt lat="38.869550" lon="-5.942650">
        <ele>1700.0</ele>
        <time>2019-05-04T14:38:50Z</time>
      </trkpt>
      <trkpt lat="38.869467" lon="-5.942667">
        <ele>1699.0</ele>
        <time>2019-05-04T14:38:51Z</time>
      </trkpt>
      <trkpt lat="38.869367" lon="-5.942717">
        <ele>1698.0</ele>
        <time>2019-05-04T14:38:52Z</time>
      </trkpt>
      <trkpt lat="38.869317" lon="-5.942800">
        <ele>1697.0</ele>
        <time>2019-05-04T14:38:53Z</time>
      </trkpt>
      <trkpt lat="38.869250" lon="-5.942900">
        <ele>1694.0</ele>
        <time>2019-05-04T14:38:54Z</time>
      </trkpt>
      <trkpt lat="38.869250" lon="-5.943017">
        <ele>1692.0</ele>
        <time>2019-05-04T14:38:55Z</time>
      </trkpt>
      <trkpt lat="38.869267" lon="-5.943117">
        <ele>1690.0</ele>
        <time>2019-05-04T14:38:56Z</time>
      </trkpt>
      <trkpt lat="38.869300" lon="-5.943183">
        <ele>1688.0</ele>
        <time>2019-05-04T14:38:57Z</time>
      </trkpt>
      <trkpt lat="38.869333" lon="-5.943217">
        <ele>1688.0</ele>
        <time>2019-05-04T14:38:58Z</time>
      </trkpt>
      <trkpt lat="38.869333" lon="-5.943250">
        <ele>1688.0</ele>
        <time>2019-05-04T14:38:59Z</time>
      </trkpt>
      <trkpt lat="38.869350" lon="-5.943300">
        <ele>1687.0</ele>
        <time>2019-05-04T14:39:00Z</time>
      </trkpt>
      <trkpt lat="38.869383" lon="-5.943317">
        <ele>1685.0</ele>
        <time>2019-05-04T14:39:01Z</time>
      </trkpt>
      <trkpt lat="38.869450" lon="-5.943317">
        <ele>1682.0</ele>
        <time>2019-05-04T14:39:02Z</time>
      </trkpt>
      <trkpt lat="38.869517" lon="-5.943267">
        <ele>1678.0</ele>
        <time>2019-05-04T14:39:03Z</time>
      </trkpt>
      <trkpt lat="38.869567" lon="-5.943183">
        <ele>1677.0</ele>
        <time>2019-05-04T14:39:04Z</time>
      </trkpt>
      <trkpt lat="38.869617" lon="-5.943100">
        <ele>1677.0</ele>
        <time>2019-05-04T14:39:05Z</time>
      </trkpt>
      <trkpt lat="38.869667" lon="-5.943033">
        <ele>1677.0</ele>
        <time>2019-05-04T14:39:06Z</time>
      </trkpt>
      <trkpt lat="38.869700" lon="-5.942967">
        <ele>1676.0</ele>
        <time>2019-05-04T14:39:07Z</time>
      </trkpt>
      <trkpt lat="38.869750" lon="-5.942917">
        <ele>1675.0</ele>
        <time>2019-05-04T14:39:08Z</time>
      </trkpt>
      <trkpt lat="38.869783" lon="-5.942833">
        <ele>1673.0</ele>
        <time>2019-05-04T14:39:09Z</time>
      </trkpt>
      <trkpt lat="38.869817" lon="-5.942750">
        <ele>1672.0</ele>
        <time>2019-05-04T14:39:10Z</time>
      </trkpt>
      <trkpt lat="38.869850" lon="-5.942683">
        <ele>1671.0</ele>
        <time>2019-05-04T14:39:11Z</time>
      </trkpt>
      <trkpt lat="38.869883" lon="-5.942617">
        <ele>1670.0</ele>
        <time>2019-05-04T14:39:12Z</time>
      </trkpt>
      <trkpt lat="38.869917" lon="-5.942567">
        <ele>1669.0</ele>
        <time>2019-05-04T14:39:13Z</time>
      </trkpt>
      <trkpt lat="38.869933" lon="-5.942500">
        <ele>1668.0</ele>
        <time>2019-05-04T14:39:14Z</time>
      </trkpt>
      <trkpt lat="38.869967" lon="-5.942417">
        <ele>1666.0</ele>
        <time>2019-05-04T14:39:15Z</time>
      </trkpt>
      <trkpt lat="38.869983" lon="-5.942300">
        <ele>1664.0</ele>
        <time>2019-05-04T14:39:16Z</time>
      </trkpt>
      <trkpt lat="38.870017" lon="-5.942183">
        <ele>1662.0</ele>
        <time>2019-05-04T14:39:17Z</time>
      </trkpt>
      <trkpt lat="38.870050" lon="-5.942083">
        <ele>1662.0</ele>
        <time>2019-05-04T14:39:18Z</time>
      </trkpt>
      <trkpt lat="38.870067" lon="-5.942000">
        <ele>1662.0</ele>
        <time>2019-05-04T14:39:19Z</time>
      </trkpt>
      <trkpt lat="38.870100" lon="-5.941900">
        <ele>1662.0</ele>
        <time>2019-05-04T14:39:20Z</time>
      </trkpt>
      <trkpt lat="38.870117" lon="-5.941800">
        <ele>1661.0</ele>
        <time>2019-05-04T14:39:21Z</time>
      </trkpt>
      <trkpt lat="38.870117" lon="-5.941700">
        <ele>1660.0</ele>
        <time>2019-05-04T14:39:22Z</time>
      </trkpt>
      <trkpt lat="38.870133" lon="-5.941600">
        <ele>1659.0</ele>
        <time>2019-05-04T14:39:23Z</time>
      </trkpt>
      <trkpt lat="38.870133" lon="-5.941483">
        <ele>1659.0</ele>
        <time>2019-05-04T14:39:24Z</time>
      </trkpt>
      <trkpt lat="38.870133" lon="-5.941383">
        <ele>1659.0</ele>
        <time>2019-05-04T14:39:25Z</time>
      </trkpt>
      <trkpt lat="38.870133" lon="-5.941267">
        <ele>1658.0</ele>
        <time>2019-05-04T14:39:26Z</time>
      </trkpt>
      <trkpt lat="38.870150" lon="-5.941167">
        <ele>1658.0</ele>
        <time>2019-05-04T14:39:27Z</time>
      </trkpt>
      <trkpt lat="38.870150" lon="-5.941050">
        <ele>1657.0</ele>
        <time>2019-05-04T14:39:28Z</time>
      </trkpt>
      <trkpt lat="38.870150" lon="-5.940950">
        <ele>1657.0</ele>
        <time>2019-05-04T14:39:29Z</time>
      </trkpt>
      <trkpt lat="38.870167" lon="-5.940833">
        <ele>1656.0</ele>
        <time>2019-05-04T14:39:30Z</time>
      </trkpt>
      <trkpt lat="38.870167" lon="-5.940717">
        <ele>1655.0</ele>
        <time>2019-05-04T14:39:31Z</time>
      </trkpt>
      <trkpt lat="38.870167" lon="-5.940600">
        <ele>1655.0</ele>
        <time>2019-05-04T14:39:32Z</time>
      </trkpt>
      <trkpt lat="38.870167" lon="-5.940500">
        <ele>1654.0</ele>
        <time>2019-05-04T14:39:33Z</time>
      </trkpt>
      <trkpt lat="38.870200" lon="-5.940383">
        <ele>1653.0</ele>
        <time>2019-05-04T14:39:34Z</time>
      </trkpt>
      <trkpt lat="38.870217" lon="-5.940250">
        <ele>1652.0</ele>
        <time>2019-05-04T14:39:35Z</time>
      </trkpt>
      <trkpt lat="38.870250" lon="-5.940133">
        <ele>1650.0</ele>
        <time>2019-05-04T14:39:36Z</time>
      </trkpt>
      <trkpt lat="38.870250" lon="-5.940017">
        <ele>1650.0</ele>
        <time>2019-05-04T14:39:37Z</time>
      </trkpt>
      <trkpt lat="38.870267" lon="-5.939917">
        <ele>1652.0</ele>
        <time>2019-05-04T14:39:38Z</time>
      </trkpt>
      <trkpt lat="38.870267" lon="-5.939817">
        <ele>1652.0</ele>
        <time>2019-05-04T14:39:39Z</time>
      </trkpt>
      <trkpt lat="38.870267" lon="-5.939733">
        <ele>1651.0</ele>
        <time>2019-05-04T14:39:40Z</time>
      </trkpt>
      <trkpt lat="38.870267" lon="-5.939617">
        <ele>1650.0</ele>
        <time>2019-05-04T14:39:41Z</time>
      </trkpt>
      <trkpt lat="38.870250" lon="-5.939517">
        <ele>1648.0</ele>
        <time>2019-05-04T14:39:42Z</time>
      </trkpt>
      <trkpt lat="38.870250" lon="-5.939400">
        <ele>1647.0</ele>
        <time>2019-05-04T14:39:43Z</time>
      </trkpt>
      <trkpt lat="38.870267" lon="-5.939333">
        <ele>1645.0</ele>
        <time>2019-05-04T14:39:44Z</time>
      </trkpt>
      <trkpt lat="38.870300" lon="-5.939083">
        <ele>0.0</ele>
        <time>2019-05-04T14:39:47Z</time>
      </trkpt>
      <trkpt lat="38.870267" lon="-5.938250">
        <ele>0.0</ele>
        <time>2019-05-04T14:39:53Z</time>
      </trkpt>
      <trkpt lat="38.870283" lon="-5.938133">
        <ele>1642.0</ele>
        <time>2019-05-04T14:39:54Z</time>
      </trkpt>
      <trkpt lat="38.870283" lon="-5.938000">
        <ele>1641.0</ele>
        <time>2019-05-04T14:39:55Z</time>
      </trkpt>
      <trkpt lat="38.870283" lon="-5.937900">
        <ele>1641.0</ele>
        <time>2019-05-04T14:39:56Z</time>
      </trkpt>
      <trkpt lat="38.870283" lon="-5.937800">
        <ele>1639.0</ele>
        <time>2019-05-04T14:39:57Z</time>
      </trkpt>
      <trkpt lat="38.870283" lon="-5.937683">
        <ele>1638.0</ele>
        <time>2019-05-04T14:39:58Z</time>
      </trkpt>
      <trkpt lat="38.870283" lon="-5.937567">
        <ele>1635.0</ele>
        <time>2019-05-04T14:39:59Z</time>
      </trkpt>
      <trkpt lat="38.870283" lon="-5.937217">
        <ele>0.0</ele>
        <time>2019-05-04T14:40:02Z</time>
      </trkpt>
      <trkpt lat="38.870267" lon="-5.937100">
        <ele>1631.0</ele>
        <time>2019-05-04T14:40:03Z</time>
      </trkpt>
      <trkpt lat="38.870267" lon="-5.937000">
        <ele>1632.0</ele>
        <time>2019-05-04T14:40:04Z</time>
      </trkpt>
      <trkpt lat="38.870283" lon="-5.936883">
        <ele>1633.0</ele>
        <time>2019-05-04T14:40:05Z</time>
      </trkpt>
      <trkpt lat="38.870267" lon="-5.936767">
        <ele>1633.0</ele>
        <time>2019-05-04T14:40:06Z</time>
      </trkpt>
      <trkpt lat="38.870267" lon="-5.936650">
        <ele>1633.0</ele>
        <time>2019-05-04T14:40:07Z</time>
      </trkpt>
      <trkpt lat="38.870267" lon="-5.936533">
        <ele>1633.0</ele>
        <time>2019-05-04T14:40:08Z</time>
      </trkpt>
      <trkpt lat="38.870250" lon="-5.936433">
        <ele>1633.0</ele>
        <time>2019-05-04T14:40:09Z</time>
      </trkpt>
      <trkpt lat="38.870250" lon="-5.936333">
        <ele>1634.0</ele>
        <time>2019-05-04T14:40:10Z</time>
      </trkpt>
      <trkpt lat="38.870233" lon="-5.936233">
        <ele>1634.0</ele>
        <time>2019-05-04T14:40:11Z</time>
      </trkpt>
      <trkpt lat="38.870200" lon="-5.936117">
        <ele>1633.0</ele>
        <time>2019-05-04T14:40:12Z</time>
      </trkpt>
      <trkpt lat="38.870183" lon="-5.936000">
        <ele>1632.0</ele>
        <time>2019-05-04T14:40:13Z</time>
      </trkpt>
      <trkpt lat="38.870167" lon="-5.935867">
        <ele>1632.0</ele>
        <time>2019-05-04T14:40:14Z</time>
      </trkpt>
      <trkpt lat="38.870150" lon="-5.935750">
        <ele>1631.0</ele>
        <time>2019-05-04T14:40:15Z</time>
      </trkpt>
      <trkpt lat="38.870150" lon="-5.935633">
        <ele>1631.0</ele>
        <time>2019-05-04T14:40:16Z</time>
      </trkpt>
      <trkpt lat="38.870133" lon="-5.935517">
        <ele>1631.0</ele>
        <time>2019-05-04T14:40:17Z</time>
      </trkpt>
      <trkpt lat="38.870117" lon="-5.935417">
        <ele>1632.0</ele>
        <time>2019-05-04T14:40:18Z</time>
      </trkpt>
      <trkpt lat="38.870100" lon="-5.935300">
        <ele>1632.0</ele>
        <time>2019-05-04T14:40:19Z</time>
      </trkpt>
      <trkpt lat="38.870083" lon="-5.935183">
        <ele>1633.0</ele>
        <time>2019-05-04T14:40:20Z</time>
      </trkpt>
      <trkpt lat="38.870067" lon="-5.935083">
        <ele>1634.0</ele>
        <time>2019-05-04T14:40:21Z</time>
      </trkpt>
      <trkpt lat="38.870050" lon="-5.934967">
        <ele>1635.0</ele>
        <time>2019-05-04T14:40:22Z</time>
      </trkpt>
      <trkpt lat="38.870033" lon="-5.934850">
        <ele>1636.0</ele>
        <time>2019-05-04T14:40:23Z</time>
      </trkpt>
      <trkpt lat="38.870000" lon="-5.934750">
        <ele>1637.0</ele>
        <time>2019-05-04T14:40:24Z</time>
      </trkpt>
      <trkpt lat="38.869983" lon="-5.934667">
        <ele>1638.0</ele>
        <time>2019-05-04T14:40:25Z</time>
      </trkpt>
      <trkpt lat="38.869967" lon="-5.934583">
        <ele>1639.0</ele>
        <time>2019-05-04T14:40:26Z</time>
      </trkpt>
      <trkpt lat="38.869967" lon="-5.934467">
        <ele>1639.0</ele>
        <time>2019-05-04T14:40:27Z</time>
      </trkpt>
      <trkpt lat="38.869950" lon="-5.934333">
        <ele>1639.0</ele>
        <time>2019-05-04T14:40:28Z</time>
      </trkpt>
      <trkpt lat="38.869933" lon="-5.934217">
        <ele>1639.0</ele>
        <time>2019-05-04T14:40:29Z</time>
      </trkpt>
      <trkpt lat="38.869917" lon="-5.934117">
        <ele>1640.0</ele>
        <time>2019-05-04T14:40:30Z</time>
      </trkpt>
      <trkpt lat="38.869900" lon="-5.934017">
        <ele>1641.0</ele>
        <time>2019-05-04T14:40:31Z</time>
      </trkpt>
      <trkpt lat="38.869883" lon="-5.933933">
        <ele>1641.0</ele>
        <time>2019-05-04T14:40:32Z</time>
      </trkpt>
      <trkpt lat="38.869867" lon="-5.933833">
        <ele>1641.0</ele>
        <time>2019-05-04T14:40:33Z</time>
      </trkpt>
      <trkpt lat="38.869850" lon="-5.933717">
        <ele>1641.0</ele>
        <time>2019-05-04T14:40:34Z</time>
      </trkpt>
      <trkpt lat="38.869817" lon="-5.933600">
        <ele>1641.0</ele>
        <time>2019-05-04T14:40:35Z</time>
      </trkpt>
      <trkpt lat="38.869783" lon="-5.933483">
        <ele>1639.0</ele>
        <time>2019-05-04T14:40:36Z</time>
      </trkpt>
      <trkpt lat="38.869767" lon="-5.933350">
        <ele>1638.0</ele>
        <time>2019-05-04T14:40:37Z</time>
      </trkpt>
      <trkpt lat="38.869750" lon="-5.933233">
        <ele>1637.0</ele>
        <time>2019-05-04T14:40:38Z</time>
      </trkpt>
      <trkpt lat="38.869717" lon="-5.933117">
        <ele>1637.0</ele>
        <time>2019-05-04T14:40:39Z</time>
      </trkpt>
      <trkpt lat="38.869700" lon="-5.933000">
        <ele>1636.0</ele>
        <time>2019-05-04T14:40:40Z</time>
      </trkpt>
      <trkpt lat="38.869667" lon="-5.932867">
        <ele>1635.0</ele>
        <time>2019-05-04T14:40:41Z</time>
      </trkpt>
      <trkpt lat="38.869650" lon="-5.932733">
        <ele>1634.0</ele>
        <time>2019-05-04T14:40:42Z</time>
      </trkpt>
      <trkpt lat="38.869633" lon="-5.932600">
        <ele>1633.0</ele>
        <time>2019-05-04T14:40:43Z</time>
      </trkpt>
      <trkpt lat="38.869633" lon="-5.932467">
        <ele>1632.0</ele>
        <time>2019-05-04T14:40:44Z</time>
      </trkpt>
      <trkpt lat="38.869617" lon="-5.932350">
        <ele>1632.0</ele>
        <time>2019-05-04T14:40:45Z</time>
      </trkpt>
      <trkpt lat="38.869617" lon="-5.932250">
        <ele>1633.0</ele>
        <time>2019-05-04T14:40:46Z</time>
      </trkpt>
      <trkpt lat="38.869617" lon="-5.932150">
        <ele>1633.0</ele>
        <time>2019-05-04T14:40:47Z</time>
      </trkpt>
      <trkpt lat="38.869600" lon="-5.932050">
        <ele>1632.0</ele>
        <time>2019-05-04T14:40:48Z</time>
      </trkpt>
      <trkpt lat="38.869583" lon="-5.931933">
        <ele>1632.0</ele>
        <time>2019-05-04T14:40:49Z</time>
      </trkpt>
      <trkpt lat="38.869567" lon="-5.931800">
        <ele>1631.0</ele>
        <time>2019-05-04T14:40:50Z</time>
      </trkpt>
      <trkpt lat="38.869567" lon="-5.931700">
        <ele>1632.0</ele>
        <time>2019-05-04T14:40:51Z</time>
      </trkpt>
      <trkpt lat="38.869583" lon="-5.931600">
        <ele>1631.0</ele>
        <time>2019-05-04T14:40:52Z</time>
      </trkpt>
      <trkpt lat="38.869583" lon="-5.931500">
        <ele>1631.0</ele>
        <time>2019-05-04T14:40:53Z</time>
      </trkpt>
      <trkpt lat="38.869567" lon="-5.931383">
        <ele>1629.0</ele>
        <time>2019-05-04T14:40:54Z</time>
      </trkpt>
      <trkpt lat="38.869567" lon="-5.931267">
        <ele>1627.0</ele>
        <time>2019-05-04T14:40:55Z</time>
      </trkpt>
      <trkpt lat="38.869550" lon="-5.931150">
        <ele>1624.0</ele>
        <time>2019-05-04T14:40:56Z</time>
      </trkpt>
      <trkpt lat="38.869533" lon="-5.931017">
        <ele>1621.0</ele>
        <time>2019-05-04T14:40:57Z</time>
      </trkpt>
      <trkpt lat="38.869517" lon="-5.930900">
        <ele>1619.0</ele>
        <time>2019-05-04T14:40:58Z</time>
      </trkpt>
      <trkpt lat="38.869500" lon="-5.930750">
        <ele>1617.0</ele>
        <time>2019-05-04T14:40:59Z</time>
      </trkpt>
      <trkpt lat="38.869483" lon="-5.930600">
        <ele>1616.0</ele>
        <time>2019-05-04T14:41:00Z</time>
      </trkpt>
      <trkpt lat="38.869483" lon="-5.930450">
        <ele>1616.0</ele>
        <time>2019-05-04T14:41:01Z</time>
      </trkpt>
      <trkpt lat="38.869483" lon="-5.930333">
        <ele>1618.0</ele>
        <time>2019-05-04T14:41:02Z</time>
      </trkpt>
      <trkpt lat="38.869483" lon="-5.930217">
        <ele>1618.0</ele>
        <time>2019-05-04T14:41:03Z</time>
      </trkpt>
      <trkpt lat="38.869483" lon="-5.930100">
        <ele>1618.0</ele>
        <time>2019-05-04T14:41:04Z</time>
      </trkpt>
      <trkpt lat="38.869467" lon="-5.929983">
        <ele>1618.0</ele>
        <time>2019-05-04T14:41:05Z</time>
      </trkpt>
      <trkpt lat="38.869467" lon="-5.929883">
        <ele>1618.0</ele>
        <time>2019-05-04T14:41:06Z</time>
      </trkpt>
      <trkpt lat="38.869467" lon="-5.929783">
        <ele>1618.0</ele>
        <time>2019-05-04T14:41:07Z</time>
      </trkpt>
      <trkpt lat="38.869450" lon="-5.929667">
        <ele>1617.0</ele>
        <time>2019-05-04T14:41:08Z</time>
      </trkpt>
      <trkpt lat="38.869467" lon="-5.929533">
        <ele>1615.0</ele>
        <time>2019-05-04T14:41:09Z</time>
      </trkpt>
      <trkpt lat="38.869467" lon="-5.929417">
        <ele>1614.0</ele>
        <time>2019-05-04T14:41:10Z</time>
      </trkpt>
      <trkpt lat="38.869483" lon="-5.929283">
        <ele>1613.0</ele>
        <time>2019-05-04T14:41:11Z</time>
      </trkpt>
      <trkpt lat="38.869517" lon="-5.929167">
        <ele>1610.0</ele>
        <time>2019-05-04T14:41:12Z</time>
      </trkpt>
      <trkpt lat="38.869533" lon="-5.929050">
        <ele>1609.0</ele>
        <time>2019-05-04T14:41:13Z</time>
      </trkpt>
      <trkpt lat="38.869567" lon="-5.928933">
        <ele>1607.0</ele>
        <time>2019-05-04T14:41:14Z</time>
      </trkpt>
      <trkpt lat="38.869583" lon="-5.928833">
        <ele>1604.0</ele>
        <time>2019-05-04T14:41:15Z</time>
      </trkpt>
      <trkpt lat="38.869600" lon="-5.928717">
        <ele>1601.0</ele>
        <time>2019-05-04T14:41:16Z</time>
      </trkpt>
      <trkpt lat="38.869633" lon="-5.928583">
        <ele>1597.0</ele>
        <time>2019-05-04T14:41:17Z</time>
      </trkpt>
      <trkpt lat="38.869650" lon="-5.928467">
        <ele>1594.0</ele>
        <time>2019-05-04T14:41:18Z</time>
      </trkpt>
      <trkpt lat="38.869667" lon="-5.928350">
        <ele>1592.0</ele>
        <time>2019-05-04T14:41:19Z</time>
      </trkpt>
      <trkpt lat="38.869683" lon="-5.928250">
        <ele>1591.0</ele>
        <time>2019-05-04T14:41:20Z</time>
      </trkpt>
      <trkpt lat="38.869717" lon="-5.928150">
        <ele>1590.0</ele>
        <time>2019-05-04T14:41:21Z</time>
      </trkpt>
      <trkpt lat="38.869750" lon="-5.928033">
        <ele>1588.0</ele>
        <time>2019-05-04T14:41:22Z</time>
      </trkpt>
      <trkpt lat="38.869800" lon="-5.927917">
        <ele>1586.0</ele>
        <time>2019-05-04T14:41:23Z</time>
      </trkpt>
      <trkpt lat="38.869833" lon="-5.927800">
        <ele>1584.0</ele>
        <time>2019-05-04T14:41:24Z</time>
      </trkpt>
      <trkpt lat="38.869867" lon="-5.927667">
        <ele>1582.0</ele>
        <time>2019-05-04T14:41:25Z</time>
      </trkpt>
      <trkpt lat="38.869900" lon="-5.927550">
        <ele>1580.0</ele>
        <time>2019-05-04T14:41:26Z</time>
      </trkpt>
      <trkpt lat="38.869933" lon="-5.927433">
        <ele>1579.0</ele>
        <time>2019-05-04T14:41:27Z</time>
      </trkpt>
      <trkpt lat="38.869967" lon="-5.927317">
        <ele>1577.0</ele>
        <time>2019-05-04T14:41:28Z</time>
      </trkpt>
      <trkpt lat="38.870000" lon="-5.927200">
        <ele>1575.0</ele>
        <time>2019-05-04T14:41:29Z</time>
      </trkpt>
      <trkpt lat="38.870033" lon="-5.927083">
        <ele>1573.0</ele>
        <time>2019-05-04T14:41:30Z</time>
      </trkpt>
      <trkpt lat="38.870067" lon="-5.926967">
        <ele>1572.0</ele>
        <time>2019-05-04T14:41:31Z</time>
      </trkpt>
      <trkpt lat="38.870100" lon="-5.926850">
        <ele>1570.0</ele>
        <time>2019-05-04T14:41:32Z</time>
      </trkpt>
      <trkpt lat="38.870133" lon="-5.926750">
        <ele>1569.0</ele>
        <time>2019-05-04T14:41:33Z</time>
      </trkpt>
      <trkpt lat="38.870183" lon="-5.926633">
        <ele>1567.0</ele>
        <time>2019-05-04T14:41:34Z</time>
      </trkpt>
      <trkpt lat="38.870217" lon="-5.926517">
        <ele>1565.0</ele>
        <time>2019-05-04T14:41:35Z</time>
      </trkpt>
      <trkpt lat="38.870233" lon="-5.926400">
        <ele>1561.0</ele>
        <time>2019-05-04T14:41:36Z</time>
      </trkpt>
      <trkpt lat="38.870250" lon="-5.926267">
        <ele>1558.0</ele>
        <time>2019-05-04T14:41:37Z</time>
      </trkpt>
      <trkpt lat="38.870267" lon="-5.926150">
        <ele>1557.0</ele>
        <time>2019-05-04T14:41:38Z</time>
      </trkpt>
      <trkpt lat="38.870300" lon="-5.926050">
        <ele>1555.0</ele>
        <time>2019-05-04T14:41:39Z</time>
      </trkpt>
      <trkpt lat="38.870333" lon="-5.925950">
        <ele>1555.0</ele>
        <time>2019-05-04T14:41:40Z</time>
      </trkpt>
      <trkpt lat="38.870350" lon="-5.925850">
        <ele>1554.0</ele>
        <time>2019-05-04T14:41:41Z</time>
      </trkpt>
      <trkpt lat="38.870367" lon="-5.925750">
        <ele>1552.0</ele>
        <time>2019-05-04T14:41:42Z</time>
      </trkpt>
      <trkpt lat="38.870400" lon="-5.925633">
        <ele>1550.0</ele>
        <time>2019-05-04T14:41:43Z</time>
      </trkpt>
      <trkpt lat="38.870417" lon="-5.925517">
        <ele>1548.0</ele>
        <time>2019-05-04T14:41:44Z</time>
      </trkpt>
      <trkpt lat="38.870450" lon="-5.925417">
        <ele>1546.0</ele>
        <time>2019-05-04T14:41:45Z</time>
      </trkpt>
      <trkpt lat="38.870483" lon="-5.925317">
        <ele>1544.0</ele>
        <time>2019-05-04T14:41:46Z</time>
      </trkpt>
      <trkpt lat="38.870500" lon="-5.925217">
        <ele>1542.0</ele>
        <time>2019-05-04T14:41:47Z</time>
      </trkpt>
      <trkpt lat="38.870533" lon="-5.925100">
        <ele>1540.0</ele>
        <time>2019-05-04T14:41:48Z</time>
      </trkpt>
      <trkpt lat="38.870550" lon="-5.924983">
        <ele>1538.0</ele>
        <time>2019-05-04T14:41:49Z</time>
      </trkpt>
      <trkpt lat="38.870583" lon="-5.924867">
        <ele>1535.0</ele>
        <time>2019-05-04T14:41:50Z</time>
      </trkpt>
      <trkpt lat="38.870617" lon="-5.924750">
        <ele>1533.0</ele>
        <time>2019-05-04T14:41:51Z</time>
      </trkpt>
      <trkpt lat="38.870650" lon="-5.924650">
        <ele>1531.0</ele>
        <time>2019-05-04T14:41:52Z</time>
      </trkpt>
      <trkpt lat="38.870683" lon="-5.924550">
        <ele>1529.0</ele>
        <time>2019-05-04T14:41:53Z</time>
      </trkpt>
      <trkpt lat="38.870717" lon="-5.924433">
        <ele>1527.0</ele>
        <time>2019-05-04T14:41:54Z</time>
      </trkpt>
      <trkpt lat="38.870750" lon="-5.924317">
        <ele>1525.0</ele>
        <time>2019-05-04T14:41:55Z</time>
      </trkpt>
      <trkpt lat="38.870783" lon="-5.924200">
        <ele>1522.0</ele>
        <time>2019-05-04T14:41:56Z</time>
      </trkpt>
      <trkpt lat="38.870817" lon="-5.924067">
        <ele>1520.0</ele>
        <time>2019-05-04T14:41:57Z</time>
      </trkpt>
      <trkpt lat="38.870867" lon="-5.923950">
        <ele>1519.0</ele>
        <time>2019-05-04T14:41:58Z</time>
      </trkpt>
      <trkpt lat="38.870900" lon="-5.923833">
        <ele>1518.0</ele>
        <time>2019-05-04T14:41:59Z</time>
      </trkpt>
      <trkpt lat="38.870933" lon="-5.923733">
        <ele>1517.0</ele>
        <time>2019-05-04T14:42:00Z</time>
      </trkpt>
      <trkpt lat="38.870967" lon="-5.923617">
        <ele>1515.0</ele>
        <time>2019-05-04T14:42:01Z</time>
      </trkpt>
      <trkpt lat="38.871000" lon="-5.923500">
        <ele>1514.0</ele>
        <time>2019-05-04T14:42:02Z</time>
      </trkpt>
      <trkpt lat="38.871033" lon="-5.923400">
        <ele>1512.0</ele>
        <time>2019-05-04T14:42:03Z</time>
      </trkpt>
      <trkpt lat="38.871067" lon="-5.923283">
        <ele>1508.0</ele>
        <time>2019-05-04T14:42:04Z</time>
      </trkpt>
      <trkpt lat="38.871100" lon="-5.923167">
        <ele>1506.0</ele>
        <time>2019-05-04T14:42:05Z</time>
      </trkpt>
      <trkpt lat="38.871133" lon="-5.923050">
        <ele>1504.0</ele>
        <time>2019-05-04T14:42:06Z</time>
      </trkpt>
      <trkpt lat="38.871167" lon="-5.922933">
        <ele>1501.0</ele>
        <time>2019-05-04T14:42:07Z</time>
      </trkpt>
      <trkpt lat="38.871183" lon="-5.922817">
        <ele>1499.0</ele>
        <time>2019-05-04T14:42:08Z</time>
      </trkpt>
      <trkpt lat="38.871217" lon="-5.922683">
        <ele>1496.0</ele>
        <time>2019-05-04T14:42:09Z</time>
      </trkpt>
      <trkpt lat="38.871250" lon="-5.922567">
        <ele>1494.0</ele>
        <time>2019-05-04T14:42:10Z</time>
      </trkpt>
      <trkpt lat="38.871283" lon="-5.922450">
        <ele>1491.0</ele>
        <time>2019-05-04T14:42:11Z</time>
      </trkpt>
      <trkpt lat="38.871300" lon="-5.922317">
        <ele>1489.0</ele>
        <time>2019-05-04T14:42:12Z</time>
      </trkpt>
      <trkpt lat="38.871317" lon="-5.922183">
        <ele>1487.0</ele>
        <time>2019-05-04T14:42:13Z</time>
      </trkpt>
      <trkpt lat="38.871333" lon="-5.922067">
        <ele>1484.0</ele>
        <time>2019-05-04T14:42:14Z</time>
      </trkpt>
      <trkpt lat="38.871350" lon="-5.921933">
        <ele>1481.0</ele>
        <time>2019-05-04T14:42:15Z</time>
      </trkpt>
      <trkpt lat="38.871367" lon="-5.921800">
        <ele>1479.0</ele>
        <time>2019-05-04T14:42:16Z</time>
      </trkpt>
      <trkpt lat="38.871383" lon="-5.921667">
        <ele>1476.0</ele>
        <time>2019-05-04T14:42:17Z</time>
      </trkpt>
      <trkpt lat="38.871400" lon="-5.921533">
        <ele>1473.0</ele>
        <time>2019-05-04T14:42:18Z</time>
      </trkpt>
      <trkpt lat="38.871417" lon="-5.921400">
        <ele>1471.0</ele>
        <time>2019-05-04T14:42:19Z</time>
      </trkpt>
      <trkpt lat="38.871433" lon="-5.921267">
        <ele>1468.0</ele>
        <time>2019-05-04T14:42:20Z</time>
      </trkpt>
      <trkpt lat="38.871467" lon="-5.921133">
        <ele>1465.0</ele>
        <time>2019-05-04T14:42:21Z</time>
      </trkpt>
      <trkpt lat="38.871483" lon="-5.921017">
        <ele>1463.0</ele>
        <time>2019-05-04T14:42:22Z</time>
      </trkpt>
      <trkpt lat="38.871483" lon="-5.920900">
        <ele>1461.0</ele>
        <time>2019-05-04T14:42:23Z</time>
      </trkpt>
      <trkpt lat="38.871500" lon="-5.920767">
        <ele>1459.0</ele>
        <time>2019-05-04T14:42:24Z</time>
      </trkpt>
      <trkpt lat="38.871483" lon="-5.920650">
        <ele>1457.0</ele>
        <time>2019-05-04T14:42:25Z</time>
      </trkpt>
      <trkpt lat="38.871500" lon="-5.920500">
        <ele>1455.0</ele>
        <time>2019-05-04T14:42:26Z</time>
      </trkpt>
      <trkpt lat="38.871500" lon="-5.920350">
        <ele>1453.0</ele>
        <time>2019-05-04T14:42:27Z</time>
      </trkpt>
      <trkpt lat="38.871517" lon="-5.920217">
        <ele>1451.0</ele>
        <time>2019-05-04T14:42:28Z</time>
      </trkpt>
      <trkpt lat="38.871533" lon="-5.920083">
        <ele>1451.0</ele>
        <time>2019-05-04T14:42:29Z</time>
      </trkpt>
      <trkpt lat="38.871550" lon="-5.919967">
        <ele>1450.0</ele>
        <time>2019-05-04T14:42:30Z</time>
      </trkpt>
      <trkpt lat="38.871567" lon="-5.919817">
        <ele>1449.0</ele>
        <time>2019-05-04T14:42:31Z</time>
      </trkpt>
      <trkpt lat="38.871583" lon="-5.919683">
        <ele>1447.0</ele>
        <time>2019-05-04T14:42:32Z</time>
      </trkpt>
      <trkpt lat="38.871600" lon="-5.919550">
        <ele>1445.0</ele>
        <time>2019-05-04T14:42:33Z</time>
      </trkpt>
      <trkpt lat="38.871600" lon="-5.919400">
        <ele>1443.0</ele>
        <time>2019-05-04T14:42:34Z</time>
      </trkpt>
      <trkpt lat="38.871617" lon="-5.919267">
        <ele>1442.0</ele>
        <time>2019-05-04T14:42:35Z</time>
      </trkpt>
      <trkpt lat="38.871617" lon="-5.919133">
        <ele>1441.0</ele>
        <time>2019-05-04T14:42:36Z</time>
      </trkpt>
      <trkpt lat="38.871633" lon="-5.919017">
        <ele>1439.0</ele>
        <time>2019-05-04T14:42:37Z</time>
      </trkpt>
      <trkpt lat="38.871633" lon="-5.918883">
        <ele>1437.0</ele>
        <time>2019-05-04T14:42:38Z</time>
      </trkpt>
      <trkpt lat="38.871650" lon="-5.918750">
        <ele>1435.0</ele>
        <time>2019-05-04T14:42:39Z</time>
      </trkpt>
      <trkpt lat="38.871650" lon="-5.918617">
        <ele>1433.0</ele>
        <time>2019-05-04T14:42:40Z</time>
      </trkpt>
      <trkpt lat="38.871650" lon="-5.918500">
        <ele>1431.0</ele>
        <time>2019-05-04T14:42:41Z</time>
      </trkpt>
      <trkpt lat="38.871667" lon="-5.918367">
        <ele>1429.0</ele>
        <time>2019-05-04T14:42:42Z</time>
      </trkpt>
      <trkpt lat="38.871667" lon="-5.918233">
        <ele>1428.0</ele>
        <time>2019-05-04T14:42:43Z</time>
      </trkpt>
      <trkpt lat="38.871683" lon="-5.918100">
        <ele>1426.0</ele>
        <time>2019-05-04T14:42:44Z</time>
      </trkpt>
      <trkpt lat="38.871700" lon="-5.917983">
        <ele>1425.0</ele>
        <time>2019-05-04T14:42:45Z</time>
      </trkpt>
      <trkpt lat="38.871700" lon="-5.917850">
        <ele>1423.0</ele>
        <time>2019-05-04T14:42:46Z</time>
      </trkpt>
      <trkpt lat="38.871700" lon="-5.917717">
        <ele>1422.0</ele>
        <time>2019-05-04T14:42:47Z</time>
      </trkpt>
      <trkpt lat="38.871717" lon="-5.917583">
        <ele>1420.0</ele>
        <time>2019-05-04T14:42:48Z</time>
      </trkpt>
      <trkpt lat="38.871717" lon="-5.917467">
        <ele>1419.0</ele>
        <time>2019-05-04T14:42:49Z</time>
      </trkpt>
      <trkpt lat="38.871750" lon="-5.917333">
        <ele>1417.0</ele>
        <time>2019-05-04T14:42:50Z</time>
      </trkpt>
      <trkpt lat="38.871767" lon="-5.917217">
        <ele>1416.0</ele>
        <time>2019-05-04T14:42:51Z</time>
      </trkpt>
      <trkpt lat="38.871783" lon="-5.917083">
        <ele>1414.0</ele>
        <time>2019-05-04T14:42:52Z</time>
      </trkpt>
      <trkpt lat="38.871817" lon="-5.916933">
        <ele>1412.0</ele>
        <time>2019-05-04T14:42:53Z</time>
      </trkpt>
      <trkpt lat="38.871833" lon="-5.916800">
        <ele>1410.0</ele>
        <time>2019-05-04T14:42:54Z</time>
      </trkpt>
      <trkpt lat="38.871850" lon="-5.916667">
        <ele>1409.0</ele>
        <time>2019-05-04T14:42:55Z</time>
      </trkpt>
      <trkpt lat="38.871867" lon="-5.916533">
        <ele>1407.0</ele>
        <time>2019-05-04T14:42:56Z</time>
      </trkpt>
      <trkpt lat="38.871900" lon="-5.916400">
        <ele>1405.0</ele>
        <time>2019-05-04T14:42:57Z</time>
      </trkpt>
      <trkpt lat="38.871917" lon="-5.916267">
        <ele>1404.0</ele>
        <time>2019-05-04T14:42:58Z</time>
      </trkpt>
      <trkpt lat="38.871933" lon="-5.916133">
        <ele>1403.0</ele>
        <time>2019-05-04T14:42:59Z</time>
      </trkpt>
      <trkpt lat="38.871950" lon="-5.916000">
        <ele>1401.0</ele>
        <time>2019-05-04T14:43:00Z</time>
      </trkpt>
      <trkpt lat="38.871983" lon="-5.915867">
        <ele>1399.0</ele>
        <time>2019-05-04T14:43:01Z</time>
      </trkpt>
      <trkpt lat="38.872000" lon="-5.915733">
        <ele>1398.0</ele>
        <time>2019-05-04T14:43:02Z</time>
      </trkpt>
      <trkpt lat="38.872017" lon="-5.915583">
        <ele>1396.0</ele>
        <time>2019-05-04T14:43:03Z</time>
      </trkpt>
      <trkpt lat="38.872050" lon="-5.915467">
        <ele>1394.0</ele>
        <time>2019-05-04T14:43:04Z</time>
      </trkpt>
      <trkpt lat="38.872067" lon="-5.915317">
        <ele>1393.0</ele>
        <time>2019-05-04T14:43:05Z</time>
      </trkpt>
      <trkpt lat="38.872083" lon="-5.915183">
        <ele>1390.0</ele>
        <time>2019-05-04T14:43:06Z</time>
      </trkpt>
      <trkpt lat="38.872083" lon="-5.915033">
        <ele>1388.0</ele>
        <time>2019-05-04T14:43:07Z</time>
      </trkpt>
      <trkpt lat="38.872100" lon="-5.914883">
        <ele>1385.0</ele>
        <time>2019-05-04T14:43:08Z</time>
      </trkpt>
      <trkpt lat="38.872117" lon="-5.914750">
        <ele>1383.0</ele>
        <time>2019-05-04T14:43:09Z</time>
      </trkpt>
      <trkpt lat="38.872150" lon="-5.914617">
        <ele>1382.0</ele>
        <time>2019-05-04T14:43:10Z</time>
      </trkpt>
      <trkpt lat="38.872167" lon="-5.914483">
        <ele>1379.0</ele>
        <time>2019-05-04T14:43:11Z</time>
      </trkpt>
      <trkpt lat="38.872183" lon="-5.914350">
        <ele>1377.0</ele>
        <time>2019-05-04T14:43:12Z</time>
      </trkpt>
      <trkpt lat="38.872217" lon="-5.914217">
        <ele>1374.0</ele>
        <time>2019-05-04T14:43:13Z</time>
      </trkpt>
      <trkpt lat="38.872233" lon="-5.914067">
        <ele>1372.0</ele>
        <time>2019-05-04T14:43:14Z</time>
      </trkpt>
      <trkpt lat="38.872267" lon="-5.913933">
        <ele>1369.0</ele>
        <time>2019-05-04T14:43:15Z</time>
      </trkpt>
      <trkpt lat="38.872283" lon="-5.913800">
        <ele>1367.0</ele>
        <time>2019-05-04T14:43:16Z</time>
      </trkpt>
      <trkpt lat="38.872300" lon="-5.913667">
        <ele>1364.0</ele>
        <time>2019-05-04T14:43:17Z</time>
      </trkpt>
      <trkpt lat="38.872333" lon="-5.913533">
        <ele>1361.0</ele>
        <time>2019-05-04T14:43:18Z</time>
      </trkpt>
      <trkpt lat="38.872367" lon="-5.913400">
        <ele>1358.0</ele>
        <time>2019-05-04T14:43:19Z</time>
      </trkpt>
      <trkpt lat="38.872400" lon="-5.913267">
        <ele>1355.0</ele>
        <time>2019-05-04T14:43:20Z</time>
      </trkpt>
      <trkpt lat="38.872433" lon="-5.913117">
        <ele>1352.0</ele>
        <time>2019-05-04T14:43:21Z</time>
      </trkpt>
      <trkpt lat="38.872450" lon="-5.913000">
        <ele>1349.0</ele>
        <time>2019-05-04T14:43:22Z</time>
      </trkpt>
      <trkpt lat="38.872483" lon="-5.912867">
        <ele>1346.0</ele>
        <time>2019-05-04T14:43:23Z</time>
      </trkpt>
      <trkpt lat="38.872517" lon="-5.912733">
        <ele>1343.0</ele>
        <time>2019-05-04T14:43:24Z</time>
      </trkpt>
      <trkpt lat="38.872533" lon="-5.912600">
        <ele>1340.0</ele>
        <time>2019-05-04T14:43:25Z</time>
      </trkpt>
      <trkpt lat="38.872567" lon="-5.912467">
        <ele>1336.0</ele>
        <time>2019-05-04T14:43:26Z</time>
      </trkpt>
      <trkpt lat="38.872600" lon="-5.912317">
        <ele>1333.0</ele>
        <time>2019-05-04T14:43:27Z</time>
      </trkpt>
      <trkpt lat="38.872633" lon="-5.912183">
        <ele>1330.0</ele>
        <time>2019-05-04T14:43:28Z</time>
      </trkpt>
      <trkpt lat="38.872667" lon="-5.912050">
        <ele>1328.0</ele>
        <time>2019-05-04T14:43:29Z</time>
      </trkpt>
      <trkpt lat="38.872700" lon="-5.911917">
        <ele>1325.0</ele>
        <time>2019-05-04T14:43:30Z</time>
      </trkpt>
      <trkpt lat="38.872750" lon="-5.911783">
        <ele>1323.0</ele>
        <time>2019-05-04T14:43:31Z</time>
      </trkpt>
      <trkpt lat="38.872783" lon="-5.911650">
        <ele>1320.0</ele>
        <time>2019-05-04T14:43:32Z</time>
      </trkpt>
      <trkpt lat="38.872817" lon="-5.911517">
        <ele>1318.0</ele>
        <time>2019-05-04T14:43:33Z</time>
      </trkpt>
      <trkpt lat="38.872850" lon="-5.911383">
        <ele>1316.0</ele>
        <time>2019-05-04T14:43:34Z</time>
      </trkpt>
      <trkpt lat="38.872883" lon="-5.911250">
        <ele>1313.0</ele>
        <time>2019-05-04T14:43:35Z</time>
      </trkpt>
      <trkpt lat="38.872900" lon="-5.911117">
        <ele>1312.0</ele>
        <time>2019-05-04T14:43:36Z</time>
      </trkpt>
      <trkpt lat="38.872933" lon="-5.910983">
        <ele>1309.0</ele>
        <time>2019-05-04T14:43:37Z</time>
      </trkpt>
      <trkpt lat="38.872950" lon="-5.910850">
        <ele>1307.0</ele>
        <time>2019-05-04T14:43:38Z</time>
      </trkpt>
      <trkpt lat="38.872967" lon="-5.910700">
        <ele>1304.0</ele>
        <time>2019-05-04T14:43:39Z</time>
      </trkpt>
      <trkpt lat="38.873000" lon="-5.910550">
        <ele>1302.0</ele>
        <time>2019-05-04T14:43:40Z</time>
      </trkpt>
      <trkpt lat="38.873033" lon="-5.910400">
        <ele>1299.0</ele>
        <time>2019-05-04T14:43:41Z</time>
      </trkpt>
      <trkpt lat="38.873050" lon="-5.910267">
        <ele>1298.0</ele>
        <time>2019-05-04T14:43:42Z</time>
      </trkpt>
      <trkpt lat="38.873083" lon="-5.910133">
        <ele>1296.0</ele>
        <time>2019-05-04T14:43:43Z</time>
      </trkpt>
      <trkpt lat="38.873100" lon="-5.910000">
        <ele>1295.0</ele>
        <time>2019-05-04T14:43:44Z</time>
      </trkpt>
      <trkpt lat="38.873133" lon="-5.909867">
        <ele>1293.0</ele>
        <time>2019-05-04T14:43:45Z</time>
      </trkpt>
      <trkpt lat="38.873150" lon="-5.909733">
        <ele>1291.0</ele>
        <time>2019-05-04T14:43:46Z</time>
      </trkpt>
      <trkpt lat="38.873183" lon="-5.909583">
        <ele>1289.0</ele>
        <time>2019-05-04T14:43:47Z</time>
      </trkpt>
      <trkpt lat="38.873200" lon="-5.909450">
        <ele>1287.0</ele>
        <time>2019-05-04T14:43:48Z</time>
      </trkpt>
      <trkpt lat="38.873217" lon="-5.909317">
        <ele>1286.0</ele>
        <time>2019-05-04T14:43:49Z</time>
      </trkpt>
      <trkpt lat="38.873233" lon="-5.909200">
        <ele>1284.0</ele>
        <time>2019-05-04T14:43:50Z</time>
      </trkpt>
      <trkpt lat="38.873250" lon="-5.909067">
        <ele>1282.0</ele>
        <time>2019-05-04T14:43:51Z</time>
      </trkpt>
      <trkpt lat="38.873267" lon="-5.908917">
        <ele>1280.0</ele>
        <time>2019-05-04T14:43:52Z</time>
      </trkpt>
      <trkpt lat="38.873283" lon="-5.908783">
        <ele>1278.0</ele>
        <time>2019-05-04T14:43:53Z</time>
      </trkpt>
      <trkpt lat="38.873283" lon="-5.908667">
        <ele>1276.0</ele>
        <time>2019-05-04T14:43:54Z</time>
      </trkpt>
      <trkpt lat="38.873300" lon="-5.908533">
        <ele>1275.0</ele>
        <time>2019-05-04T14:43:55Z</time>
      </trkpt>
      <trkpt lat="38.873317" lon="-5.908400">
        <ele>1273.0</ele>
        <time>2019-05-04T14:43:56Z</time>
      </trkpt>
      <trkpt lat="38.873317" lon="-5.908267">
        <ele>1270.0</ele>
        <time>2019-05-04T14:43:57Z</time>
      </trkpt>
      <trkpt lat="38.873317" lon="-5.908133">
        <ele>1268.0</ele>
        <time>2019-05-04T14:43:58Z</time>
      </trkpt>
      <trkpt lat="38.873333" lon="-5.907633">
        <ele>0.0</ele>
        <time>2019-05-04T14:44:02Z</time>
      </trkpt>
      <trkpt lat="38.873317" lon="-5.907467">
        <ele>1263.0</ele>
        <time>2019-05-04T14:44:03Z</time>
      </trkpt>
      <trkpt lat="38.873333" lon="-5.907333">
        <ele>1257.0</ele>
        <time>2019-05-04T14:44:04Z</time>
      </trkpt>
      <trkpt lat="38.873350" lon="-5.907217">
        <ele>1256.0</ele>
        <time>2019-05-04T14:44:05Z</time>
      </trkpt>
      <trkpt lat="38.873350" lon="-5.907100">
        <ele>1254.0</ele>
        <time>2019-05-04T14:44:06Z</time>
      </trkpt>
      <trkpt lat="38.873350" lon="-5.906983">
        <ele>1252.0</ele>
        <time>2019-05-04T14:44:07Z</time>
      </trkpt>
      <trkpt lat="38.873350" lon="-5.906850">
        <ele>1249.0</ele>
        <time>2019-05-04T14:44:08Z</time>
      </trkpt>
      <trkpt lat="38.873350" lon="-5.906717">
        <ele>1247.0</ele>
        <time>2019-05-04T14:44:09Z</time>
      </trkpt>
      <trkpt lat="38.873333" lon="-5.906567">
        <ele>1245.0</ele>
        <time>2019-05-04T14:44:10Z</time>
      </trkpt>
      <trkpt lat="38.873333" lon="-5.906433">
        <ele>1243.0</ele>
        <time>2019-05-04T14:44:11Z</time>
      </trkpt>
      <trkpt lat="38.873350" lon="-5.906300">
        <ele>1242.0</ele>
        <time>2019-05-04T14:44:12Z</time>
      </trkpt>
      <trkpt lat="38.873350" lon="-5.906167">
        <ele>1240.0</ele>
        <time>2019-05-04T14:44:13Z</time>
      </trkpt>
      <trkpt lat="38.873350" lon="-5.906050">
        <ele>1238.0</ele>
        <time>2019-05-04T14:44:14Z</time>
      </trkpt>
      <trkpt lat="38.873367" lon="-5.905900">
        <ele>1236.0</ele>
        <time>2019-05-04T14:44:15Z</time>
      </trkpt>
      <trkpt lat="38.873367" lon="-5.905750">
        <ele>1233.0</ele>
        <time>2019-05-04T14:44:16Z</time>
      </trkpt>
      <trkpt lat="38.873367" lon="-5.905617">
        <ele>1231.0</ele>
        <time>2019-05-04T14:44:17Z</time>
      </trkpt>
      <trkpt lat="38.873367" lon="-5.905467">
        <ele>1229.0</ele>
        <time>2019-05-04T14:44:18Z</time>
      </trkpt>
      <trkpt lat="38.873367" lon="-5.905333">
        <ele>1229.0</ele>
        <time>2019-05-04T14:44:19Z</time>
      </trkpt>
      <trkpt lat="38.873383" lon="-5.905217">
        <ele>1228.0</ele>
        <time>2019-05-04T14:44:20Z</time>
      </trkpt>
      <trkpt lat="38.873383" lon="-5.905083">
        <ele>1227.0</ele>
        <time>2019-05-04T14:44:21Z</time>
      </trkpt>
      <trkpt lat="38.873383" lon="-5.904967">
        <ele>1226.0</ele>
        <time>2019-05-04T14:44:22Z</time>
      </trkpt>
      <trkpt lat="38.873383" lon="-5.904833">
        <ele>1225.0</ele>
        <time>2019-05-04T14:44:23Z</time>
      </trkpt>
      <trkpt lat="38.873400" lon="-5.904700">
        <ele>1223.0</ele>
        <time>2019-05-04T14:44:24Z</time>
      </trkpt>
      <trkpt lat="38.873400" lon="-5.904567">
        <ele>1222.0</ele>
        <time>2019-05-04T14:44:25Z</time>
      </trkpt>
      <trkpt lat="38.873417" lon="-5.904450">
        <ele>1220.0</ele>
        <time>2019-05-04T14:44:26Z</time>
      </trkpt>
      <trkpt lat="38.873433" lon="-5.904317">
        <ele>1219.0</ele>
        <time>2019-05-04T14:44:27Z</time>
      </trkpt>
      <trkpt lat="38.873450" lon="-5.904183">
        <ele>1218.0</ele>
        <time>2019-05-04T14:44:28Z</time>
      </trkpt>
      <trkpt lat="38.873467" lon="-5.904050">
        <ele>1216.0</ele>
        <time>2019-05-04T14:44:29Z</time>
      </trkpt>
      <trkpt lat="38.873467" lon="-5.903933">
        <ele>1215.0</ele>
        <time>2019-05-04T14:44:30Z</time>
      </trkpt>
      <trkpt lat="38.873483" lon="-5.903800">
        <ele>1213.0</ele>
        <time>2019-05-04T14:44:31Z</time>
      </trkpt>
      <trkpt lat="38.873483" lon="-5.903700">
        <ele>1212.0</ele>
        <time>2019-05-04T14:44:32Z</time>
      </trkpt>
      <trkpt lat="38.873483" lon="-5.903583">
        <ele>1211.0</ele>
        <time>2019-05-04T14:44:33Z</time>
      </trkpt>
      <trkpt lat="38.873500" lon="-5.903483">
        <ele>1210.0</ele>
        <time>2019-05-04T14:44:34Z</time>
      </trkpt>
      <trkpt lat="38.873500" lon="-5.903383">
        <ele>1209.0</ele>
        <time>2019-05-04T14:44:35Z</time>
      </trkpt>
      <trkpt lat="38.873500" lon="-5.903267">
        <ele>1207.0</ele>
        <time>2019-05-04T14:44:36Z</time>
      </trkpt>
      <trkpt lat="38.873483" lon="-5.903150">
        <ele>1205.0</ele>
        <time>2019-05-04T14:44:37Z</time>
      </trkpt>
      <trkpt lat="38.873483" lon="-5.903033">
        <ele>1203.0</ele>
        <time>2019-05-04T14:44:38Z</time>
      </trkpt>
      <trkpt lat="38.873467" lon="-5.902917">
        <ele>1201.0</ele>
        <time>2019-05-04T14:44:39Z</time>
      </trkpt>
      <trkpt lat="38.873467" lon="-5.902800">
        <ele>1200.0</ele>
        <time>2019-05-04T14:44:40Z</time>
      </trkpt>
      <trkpt lat="38.873467" lon="-5.902700">
        <ele>1199.0</ele>
        <time>2019-05-04T14:44:41Z</time>
      </trkpt>
      <trkpt lat="38.873467" lon="-5.902583">
        <ele>1197.0</ele>
        <time>2019-05-04T14:44:42Z</time>
      </trkpt>
      <trkpt lat="38.873467" lon="-5.902450">
        <ele>1195.0</ele>
        <time>2019-05-04T14:44:43Z</time>
      </trkpt>
      <trkpt lat="38.873467" lon="-5.902333">
        <ele>1193.0</ele>
        <time>2019-05-04T14:44:44Z</time>
      </trkpt>
      <trkpt lat="38.873450" lon="-5.902183">
        <ele>1191.0</ele>
        <time>2019-05-04T14:44:45Z</time>
      </trkpt>
      <trkpt lat="38.873450" lon="-5.902033">
        <ele>1189.0</ele>
        <time>2019-05-04T14:44:46Z</time>
      </trkpt>
      <trkpt lat="38.873433" lon="-5.901883">
        <ele>1186.0</ele>
        <time>2019-05-04T14:44:47Z</time>
      </trkpt>
      <trkpt lat="38.873433" lon="-5.901750">
        <ele>1184.0</ele>
        <time>2019-05-04T14:44:48Z</time>
      </trkpt>
      <trkpt lat="38.873433" lon="-5.901633">
        <ele>1181.0</ele>
        <time>2019-05-04T14:44:49Z</time>
      </trkpt>
      <trkpt lat="38.873433" lon="-5.901517">
        <ele>1178.0</ele>
        <time>2019-05-04T14:44:50Z</time>
      </trkpt>
      <trkpt lat="38.873433" lon="-5.901383">
        <ele>1175.0</ele>
        <time>2019-05-04T14:44:51Z</time>
      </trkpt>
      <trkpt lat="38.873433" lon="-5.901250">
        <ele>1172.0</ele>
        <time>2019-05-04T14:44:52Z</time>
      </trkpt>
      <trkpt lat="38.873417" lon="-5.901117">
        <ele>1169.0</ele>
        <time>2019-05-04T14:44:53Z</time>
      </trkpt>
      <trkpt lat="38.873417" lon="-5.901000">
        <ele>1166.0</ele>
        <time>2019-05-04T14:44:54Z</time>
      </trkpt>
      <trkpt lat="38.873417" lon="-5.900883">
        <ele>1164.0</ele>
        <time>2019-05-04T14:44:55Z</time>
      </trkpt>
      <trkpt lat="38.873417" lon="-5.900783">
        <ele>1161.0</ele>
        <time>2019-05-04T14:44:56Z</time>
      </trkpt>
      <trkpt lat="38.873417" lon="-5.900667">
        <ele>1157.0</ele>
        <time>2019-05-04T14:44:57Z</time>
      </trkpt>
      <trkpt lat="38.873417" lon="-5.900533">
        <ele>1154.0</ele>
        <time>2019-05-04T14:44:58Z</time>
      </trkpt>
      <trkpt lat="38.873417" lon="-5.900417">
        <ele>1151.0</ele>
        <time>2019-05-04T14:44:59Z</time>
      </trkpt>
      <trkpt lat="38.873433" lon="-5.900300">
        <ele>1148.0</ele>
        <time>2019-05-04T14:45:00Z</time>
      </trkpt>
      <trkpt lat="38.873433" lon="-5.900183">
        <ele>1147.0</ele>
        <time>2019-05-04T14:45:01Z</time>
      </trkpt>
      <trkpt lat="38.873417" lon="-5.900083">
        <ele>1144.0</ele>
        <time>2019-05-04T14:45:02Z</time>
      </trkpt>
      <trkpt lat="38.873417" lon="-5.899967">
        <ele>1142.0</ele>
        <time>2019-05-04T14:45:03Z</time>
      </trkpt>
      <trkpt lat="38.873417" lon="-5.899850">
        <ele>1140.0</ele>
        <time>2019-05-04T14:45:04Z</time>
      </trkpt>
      <trkpt lat="38.873417" lon="-5.899717">
        <ele>1138.0</ele>
        <time>2019-05-04T14:45:05Z</time>
      </trkpt>
      <trkpt lat="38.873433" lon="-5.899600">
        <ele>1136.0</ele>
        <time>2019-05-04T14:45:06Z</time>
      </trkpt>
      <trkpt lat="38.873433" lon="-5.899483">
        <ele>1134.0</ele>
        <time>2019-05-04T14:45:07Z</time>
      </trkpt>
      <trkpt lat="38.873433" lon="-5.899383">
        <ele>1132.0</ele>
        <time>2019-05-04T14:45:08Z</time>
      </trkpt>
      <trkpt lat="38.873433" lon="-5.899267">
        <ele>1131.0</ele>
        <time>2019-05-04T14:45:09Z</time>
      </trkpt>
      <trkpt lat="38.873433" lon="-5.899150">
        <ele>1129.0</ele>
        <time>2019-05-04T14:45:10Z</time>
      </trkpt>
      <trkpt lat="38.873433" lon="-5.899033">
        <ele>1125.0</ele>
        <time>2019-05-04T14:45:11Z</time>
      </trkpt>
      <trkpt lat="38.873433" lon="-5.898917">
        <ele>1123.0</ele>
        <time>2019-05-04T14:45:12Z</time>
      </trkpt>
      <trkpt lat="38.873433" lon="-5.898800">
        <ele>1121.0</ele>
        <time>2019-05-04T14:45:13Z</time>
      </trkpt>
      <trkpt lat="38.873450" lon="-5.898683">
        <ele>1119.0</ele>
        <time>2019-05-04T14:45:14Z</time>
      </trkpt>
      <trkpt lat="38.873450" lon="-5.898583">
        <ele>1117.0</ele>
        <time>2019-05-04T14:45:15Z</time>
      </trkpt>
      <trkpt lat="38.873450" lon="-5.898467">
        <ele>1115.0</ele>
        <time>2019-05-04T14:45:16Z</time>
      </trkpt>
      <trkpt lat="38.873450" lon="-5.898350">
        <ele>1113.0</ele>
        <time>2019-05-04T14:45:17Z</time>
      </trkpt>
      <trkpt lat="38.873467" lon="-5.898233">
        <ele>1110.0</ele>
        <time>2019-05-04T14:45:18Z</time>
      </trkpt>
      <trkpt lat="38.873467" lon="-5.898117">
        <ele>1108.0</ele>
        <time>2019-05-04T14:45:19Z</time>
      </trkpt>
      <trkpt lat="38.873483" lon="-5.898017">
        <ele>1106.0</ele>
        <time>2019-05-04T14:45:20Z</time>
      </trkpt>
      <trkpt lat="38.873500" lon="-5.897900">
        <ele>1105.0</ele>
        <time>2019-05-04T14:45:21Z</time>
      </trkpt>
      <trkpt lat="38.873517" lon="-5.897783">
        <ele>1103.0</ele>
        <time>2019-05-04T14:45:22Z</time>
      </trkpt>
      <trkpt lat="38.873533" lon="-5.897667">
        <ele>1100.0</ele>
        <time>2019-05-04T14:45:23Z</time>
      </trkpt>
      <trkpt lat="38.873533" lon="-5.897550">
        <ele>1098.0</ele>
        <time>2019-05-04T14:45:24Z</time>
      </trkpt>
      <trkpt lat="38.873550" lon="-5.897417">
        <ele>1096.0</ele>
        <time>2019-05-04T14:45:25Z</time>
      </trkpt>
      <trkpt lat="38.873567" lon="-5.897300">
        <ele>1094.0</ele>
        <time>2019-05-04T14:45:26Z</time>
      </trkpt>
      <trkpt lat="38.873567" lon="-5.897183">
        <ele>1093.0</ele>
        <time>2019-05-04T14:45:27Z</time>
      </trkpt>
      <trkpt lat="38.873567" lon="-5.897083">
        <ele>1091.0</ele>
        <time>2019-05-04T14:45:28Z</time>
      </trkpt>
      <trkpt lat="38.873567" lon="-5.896983">
        <ele>1088.0</ele>
        <time>2019-05-04T14:45:29Z</time>
      </trkpt>
      <trkpt lat="38.873567" lon="-5.896867">
        <ele>1086.0</ele>
        <time>2019-05-04T14:45:30Z</time>
      </trkpt>
      <trkpt lat="38.873567" lon="-5.896750">
        <ele>1084.0</ele>
        <time>2019-05-04T14:45:31Z</time>
      </trkpt>
      <trkpt lat="38.873567" lon="-5.896633">
        <ele>1082.0</ele>
        <time>2019-05-04T14:45:32Z</time>
      </trkpt>
      <trkpt lat="38.873583" lon="-5.896533">
        <ele>1079.0</ele>
        <time>2019-05-04T14:45:33Z</time>
      </trkpt>
      <trkpt lat="38.873583" lon="-5.896417">
        <ele>1077.0</ele>
        <time>2019-05-04T14:45:34Z</time>
      </trkpt>
      <trkpt lat="38.873583" lon="-5.896317">
        <ele>1075.0</ele>
        <time>2019-05-04T14:45:35Z</time>
      </trkpt>
      <trkpt lat="38.873583" lon="-5.896200">
        <ele>1072.0</ele>
        <time>2019-05-04T14:45:36Z</time>
      </trkpt>
      <trkpt lat="38.873583" lon="-5.896083">
        <ele>1069.0</ele>
        <time>2019-05-04T14:45:37Z</time>
      </trkpt>
      <trkpt lat="38.873583" lon="-5.895983">
        <ele>1067.0</ele>
        <time>2019-05-04T14:45:38Z</time>
      </trkpt>
      <trkpt lat="38.873600" lon="-5.895867">
        <ele>1064.0</ele>
        <time>2019-05-04T14:45:39Z</time>
      </trkpt>
      <trkpt lat="38.873600" lon="-5.895767">
        <ele>1061.0</ele>
        <time>2019-05-04T14:45:40Z</time>
      </trkpt>
      <trkpt lat="38.873617" lon="-5.895667">
        <ele>1058.0</ele>
        <time>2019-05-04T14:45:41Z</time>
      </trkpt>
      <trkpt lat="38.873633" lon="-5.895567">
        <ele>1055.0</ele>
        <time>2019-05-04T14:45:42Z</time>
      </trkpt>
      <trkpt lat="38.873633" lon="-5.895467">
        <ele>1052.0</ele>
        <time>2019-05-04T14:45:43Z</time>
      </trkpt>
      <trkpt lat="38.873650" lon="-5.895350">
        <ele>1049.0</ele>
        <time>2019-05-04T14:45:44Z</time>
      </trkpt>
      <trkpt lat="38.873650" lon="-5.895250">
        <ele>1046.0</ele>
        <time>2019-05-04T14:45:45Z</time>
      </trkpt>
      <trkpt lat="38.873667" lon="-5.895150">
        <ele>1043.0</ele>
        <time>2019-05-04T14:45:46Z</time>
      </trkpt>
      <trkpt lat="38.873667" lon="-5.895050">
        <ele>1040.0</ele>
        <time>2019-05-04T14:45:47Z</time>
      </trkpt>
      <trkpt lat="38.873683" lon="-5.894933">
        <ele>1036.0</ele>
        <time>2019-05-04T14:45:48Z</time>
      </trkpt>
      <trkpt lat="38.873700" lon="-5.894817">
        <ele>1032.0</ele>
        <time>2019-05-04T14:45:49Z</time>
      </trkpt>
      <trkpt lat="38.873717" lon="-5.894683">
        <ele>1029.0</ele>
        <time>2019-05-04T14:45:50Z</time>
      </trkpt>
      <trkpt lat="38.873733" lon="-5.894583">
        <ele>1026.0</ele>
        <time>2019-05-04T14:45:51Z</time>
      </trkpt>
      <trkpt lat="38.873733" lon="-5.894483">
        <ele>1023.0</ele>
        <time>2019-05-04T14:45:52Z</time>
      </trkpt>
      <trkpt lat="38.873750" lon="-5.894383">
        <ele>1019.0</ele>
        <time>2019-05-04T14:45:53Z</time>
      </trkpt>
      <trkpt lat="38.873767" lon="-5.894267">
        <ele>1016.0</ele>
        <time>2019-05-04T14:45:54Z</time>
      </trkpt>
      <trkpt lat="38.873783" lon="-5.894133">
        <ele>1011.0</ele>
        <time>2019-05-04T14:45:55Z</time>
      </trkpt>
      <trkpt lat="38.873800" lon="-5.894017">
        <ele>1007.0</ele>
        <time>2019-05-04T14:45:56Z</time>
      </trkpt>
      <trkpt lat="38.873817" lon="-5.893917">
        <ele>1004.0</ele>
        <time>2019-05-04T14:45:57Z</time>
      </trkpt>
      <trkpt lat="38.873833" lon="-5.893800">
        <ele>1001.0</ele>
        <time>2019-05-04T14:45:58Z</time>
      </trkpt>
      <trkpt lat="38.873850" lon="-5.893700">
        <ele>998.0</ele>
        <time>2019-05-04T14:45:59Z</time>
      </trkpt>
      <trkpt lat="38.873883" lon="-5.893600">
        <ele>994.0</ele>
        <time>2019-05-04T14:46:00Z</time>
      </trkpt>
      <trkpt lat="38.873900" lon="-5.893483">
        <ele>991.0</ele>
        <time>2019-05-04T14:46:01Z</time>
      </trkpt>
      <trkpt lat="38.873917" lon="-5.893350">
        <ele>988.0</ele>
        <time>2019-05-04T14:46:02Z</time>
      </trkpt>
      <trkpt lat="38.873933" lon="-5.893233">
        <ele>985.0</ele>
        <time>2019-05-04T14:46:03Z</time>
      </trkpt>
      <trkpt lat="38.873950" lon="-5.893133">
        <ele>983.0</ele>
        <time>2019-05-04T14:46:04Z</time>
      </trkpt>
      <trkpt lat="38.873967" lon="-5.893017">
        <ele>982.0</ele>
        <time>2019-05-04T14:46:05Z</time>
      </trkpt>
      <trkpt lat="38.873967" lon="-5.892917">
        <ele>979.0</ele>
        <time>2019-05-04T14:46:06Z</time>
      </trkpt>
      <trkpt lat="38.873983" lon="-5.892783">
        <ele>976.0</ele>
        <time>2019-05-04T14:46:07Z</time>
      </trkpt>
      <trkpt lat="38.874000" lon="-5.892667">
        <ele>972.0</ele>
        <time>2019-05-04T14:46:08Z</time>
      </trkpt>
      <trkpt lat="38.874033" lon="-5.892550">
        <ele>969.0</ele>
        <time>2019-05-04T14:46:09Z</time>
      </trkpt>
      <trkpt lat="38.874050" lon="-5.892433">
        <ele>966.0</ele>
        <time>2019-05-04T14:46:10Z</time>
      </trkpt>
      <trkpt lat="38.874067" lon="-5.892333">
        <ele>964.0</ele>
        <time>2019-05-04T14:46:11Z</time>
      </trkpt>
      <trkpt lat="38.874083" lon="-5.892217">
        <ele>961.0</ele>
        <time>2019-05-04T14:46:12Z</time>
      </trkpt>
      <trkpt lat="38.874117" lon="-5.892100">
        <ele>958.0</ele>
        <time>2019-05-04T14:46:13Z</time>
      </trkpt>
      <trkpt lat="38.874133" lon="-5.892000">
        <ele>955.0</ele>
        <time>2019-05-04T14:46:14Z</time>
      </trkpt>
      <trkpt lat="38.874150" lon="-5.891883">
        <ele>953.0</ele>
        <time>2019-05-04T14:46:15Z</time>
      </trkpt>
      <trkpt lat="38.874167" lon="-5.891783">
        <ele>950.0</ele>
        <time>2019-05-04T14:46:16Z</time>
      </trkpt>
      <trkpt lat="38.874183" lon="-5.891667">
        <ele>947.0</ele>
        <time>2019-05-04T14:46:17Z</time>
      </trkpt>
      <trkpt lat="38.874217" lon="-5.891550">
        <ele>944.0</ele>
        <time>2019-05-04T14:46:18Z</time>
      </trkpt>
      <trkpt lat="38.874233" lon="-5.891433">
        <ele>942.0</ele>
        <time>2019-05-04T14:46:19Z</time>
      </trkpt>
      <trkpt lat="38.874250" lon="-5.891333">
        <ele>941.0</ele>
        <time>2019-05-04T14:46:20Z</time>
      </trkpt>
      <trkpt lat="38.874267" lon="-5.891233">
        <ele>939.0</ele>
        <time>2019-05-04T14:46:21Z</time>
      </trkpt>
      <trkpt lat="38.874283" lon="-5.891133">
        <ele>937.0</ele>
        <time>2019-05-04T14:46:22Z</time>
      </trkpt>
      <trkpt lat="38.874300" lon="-5.891033">
        <ele>934.0</ele>
        <time>2019-05-04T14:46:23Z</time>
      </trkpt>
      <trkpt lat="38.874317" lon="-5.890933">
        <ele>931.0</ele>
        <time>2019-05-04T14:46:24Z</time>
      </trkpt>
      <trkpt lat="38.874333" lon="-5.890833">
        <ele>928.0</ele>
        <time>2019-05-04T14:46:25Z</time>
      </trkpt>
      <trkpt lat="38.874350" lon="-5.890733">
        <ele>924.0</ele>
        <time>2019-05-04T14:46:26Z</time>
      </trkpt>
      <trkpt lat="38.874350" lon="-5.890617">
        <ele>921.0</ele>
        <time>2019-05-04T14:46:27Z</time>
      </trkpt>
      <trkpt lat="38.874333" lon="-5.890500">
        <ele>917.0</ele>
        <time>2019-05-04T14:46:28Z</time>
      </trkpt>
      <trkpt lat="38.874333" lon="-5.890383">
        <ele>913.0</ele>
        <time>2019-05-04T14:46:29Z</time>
      </trkpt>
      <trkpt lat="38.874333" lon="-5.890283">
        <ele>910.0</ele>
        <time>2019-05-04T14:46:30Z</time>
      </trkpt>
      <trkpt lat="38.874333" lon="-5.890167">
        <ele>907.0</ele>
        <time>2019-05-04T14:46:31Z</time>
      </trkpt>
      <trkpt lat="38.874333" lon="-5.890083">
        <ele>903.0</ele>
        <time>2019-05-04T14:46:32Z</time>
      </trkpt>
      <trkpt lat="38.874350" lon="-5.889983">
        <ele>900.0</ele>
        <time>2019-05-04T14:46:33Z</time>
      </trkpt>
      <trkpt lat="38.874367" lon="-5.889883">
        <ele>897.0</ele>
        <time>2019-05-04T14:46:34Z</time>
      </trkpt>
      <trkpt lat="38.874367" lon="-5.889767">
        <ele>894.0</ele>
        <time>2019-05-04T14:46:35Z</time>
      </trkpt>
      <trkpt lat="38.874383" lon="-5.889667">
        <ele>891.0</ele>
        <time>2019-05-04T14:46:36Z</time>
      </trkpt>
      <trkpt lat="38.874383" lon="-5.889567">
        <ele>890.0</ele>
        <time>2019-05-04T14:46:37Z</time>
      </trkpt>
      <trkpt lat="38.874383" lon="-5.889483">
        <ele>889.0</ele>
        <time>2019-05-04T14:46:38Z</time>
      </trkpt>
      <trkpt lat="38.874383" lon="-5.889417">
        <ele>888.0</ele>
        <time>2019-05-04T14:46:39Z</time>
      </trkpt>
      <trkpt lat="38.874383" lon="-5.889317">
        <ele>885.0</ele>
        <time>2019-05-04T14:46:40Z</time>
      </trkpt>
      <trkpt lat="38.874383" lon="-5.889200">
        <ele>881.0</ele>
        <time>2019-05-04T14:46:41Z</time>
      </trkpt>
      <trkpt lat="38.874383" lon="-5.889067">
        <ele>877.0</ele>
        <time>2019-05-04T14:46:42Z</time>
      </trkpt>
      <trkpt lat="38.874383" lon="-5.888950">
        <ele>875.0</ele>
        <time>2019-05-04T14:46:43Z</time>
      </trkpt>
      <trkpt lat="38.874367" lon="-5.888850">
        <ele>873.0</ele>
        <time>2019-05-04T14:46:44Z</time>
      </trkpt>
      <trkpt lat="38.874367" lon="-5.888750">
        <ele>870.0</ele>
        <time>2019-05-04T14:46:45Z</time>
      </trkpt>
      <trkpt lat="38.874350" lon="-5.888633">
        <ele>868.0</ele>
        <time>2019-05-04T14:46:46Z</time>
      </trkpt>
      <trkpt lat="38.874350" lon="-5.888517">
        <ele>864.0</ele>
        <time>2019-05-04T14:46:47Z</time>
      </trkpt>
      <trkpt lat="38.874367" lon="-5.888400">
        <ele>860.0</ele>
        <time>2019-05-04T14:46:48Z</time>
      </trkpt>
      <trkpt lat="38.874367" lon="-5.888283">
        <ele>857.0</ele>
        <time>2019-05-04T14:46:49Z</time>
      </trkpt>
      <trkpt lat="38.874367" lon="-5.888183">
        <ele>854.0</ele>
        <time>2019-05-04T14:46:50Z</time>
      </trkpt>
      <trkpt lat="38.874350" lon="-5.888067">
        <ele>850.0</ele>
        <time>2019-05-04T14:46:51Z</time>
      </trkpt>
      <trkpt lat="38.874350" lon="-5.887933">
        <ele>847.0</ele>
        <time>2019-05-04T14:46:52Z</time>
      </trkpt>
      <trkpt lat="38.874350" lon="-5.887817">
        <ele>844.0</ele>
        <time>2019-05-04T14:46:53Z</time>
      </trkpt>
      <trkpt lat="38.874350" lon="-5.887700">
        <ele>840.0</ele>
        <time>2019-05-04T14:46:54Z</time>
      </trkpt>
      <trkpt lat="38.874333" lon="-5.887567">
        <ele>837.0</ele>
        <time>2019-05-04T14:46:55Z</time>
      </trkpt>
      <trkpt lat="38.874333" lon="-5.887450">
        <ele>834.0</ele>
        <time>2019-05-04T14:46:56Z</time>
      </trkpt>
      <trkpt lat="38.874317" lon="-5.887333">
        <ele>831.0</ele>
        <time>2019-05-04T14:46:57Z</time>
      </trkpt>
      <trkpt lat="38.874317" lon="-5.887200">
        <ele>827.0</ele>
        <time>2019-05-04T14:46:58Z</time>
      </trkpt>
      <trkpt lat="38.874300" lon="-5.887050">
        <ele>823.0</ele>
        <time>2019-05-04T14:46:59Z</time>
      </trkpt>
      <trkpt lat="38.874283" lon="-5.886917">
        <ele>820.0</ele>
        <time>2019-05-04T14:47:00Z</time>
      </trkpt>
      <trkpt lat="38.874283" lon="-5.886767">
        <ele>816.0</ele>
        <time>2019-05-04T14:47:01Z</time>
      </trkpt>
      <trkpt lat="38.874267" lon="-5.886617">
        <ele>814.0</ele>
        <time>2019-05-04T14:47:02Z</time>
      </trkpt>
      <trkpt lat="38.874250" lon="-5.886483">
        <ele>811.0</ele>
        <time>2019-05-04T14:47:03Z</time>
      </trkpt>
      <trkpt lat="38.874250" lon="-5.886350">
        <ele>808.0</ele>
        <time>2019-05-04T14:47:04Z</time>
      </trkpt>
      <trkpt lat="38.874233" lon="-5.886233">
        <ele>806.0</ele>
        <time>2019-05-04T14:47:05Z</time>
      </trkpt>
      <trkpt lat="38.874233" lon="-5.886117">
        <ele>803.0</ele>
        <time>2019-05-04T14:47:06Z</time>
      </trkpt>
      <trkpt lat="38.874233" lon="-5.885983">
        <ele>800.0</ele>
        <time>2019-05-04T14:47:07Z</time>
      </trkpt>
      <trkpt lat="38.874250" lon="-5.885833">
        <ele>797.0</ele>
        <time>2019-05-04T14:47:08Z</time>
      </trkpt>
      <trkpt lat="38.874250" lon="-5.885700">
        <ele>795.0</ele>
        <time>2019-05-04T14:47:09Z</time>
      </trkpt>
      <trkpt lat="38.874250" lon="-5.885567">
        <ele>792.0</ele>
        <time>2019-05-04T14:47:10Z</time>
      </trkpt>
      <trkpt lat="38.874250" lon="-5.885433">
        <ele>790.0</ele>
        <time>2019-05-04T14:47:11Z</time>
      </trkpt>
      <trkpt lat="38.874267" lon="-5.885317">
        <ele>788.0</ele>
        <time>2019-05-04T14:47:12Z</time>
      </trkpt>
      <trkpt lat="38.874267" lon="-5.885200">
        <ele>785.0</ele>
        <time>2019-05-04T14:47:13Z</time>
      </trkpt>
      <trkpt lat="38.874283" lon="-5.885067">
        <ele>782.0</ele>
        <time>2019-05-04T14:47:14Z</time>
      </trkpt>
      <trkpt lat="38.874300" lon="-5.884933">
        <ele>778.0</ele>
        <time>2019-05-04T14:47:15Z</time>
      </trkpt>
      <trkpt lat="38.874317" lon="-5.884783">
        <ele>775.0</ele>
        <time>2019-05-04T14:47:16Z</time>
      </trkpt>
      <trkpt lat="38.874333" lon="-5.884650">
        <ele>774.0</ele>
        <time>2019-05-04T14:47:17Z</time>
      </trkpt>
      <trkpt lat="38.874333" lon="-5.884517">
        <ele>772.0</ele>
        <time>2019-05-04T14:47:18Z</time>
      </trkpt>
      <trkpt lat="38.874350" lon="-5.884383">
        <ele>769.0</ele>
        <time>2019-05-04T14:47:19Z</time>
      </trkpt>
      <trkpt lat="38.874367" lon="-5.884233">
        <ele>767.0</ele>
        <time>2019-05-04T14:47:20Z</time>
      </trkpt>
      <trkpt lat="38.874383" lon="-5.884100">
        <ele>765.0</ele>
        <time>2019-05-04T14:47:21Z</time>
      </trkpt>
      <trkpt lat="38.874383" lon="-5.883967">
        <ele>762.0</ele>
        <time>2019-05-04T14:47:22Z</time>
      </trkpt>
      <trkpt lat="38.874400" lon="-5.883833">
        <ele>759.0</ele>
        <time>2019-05-04T14:47:23Z</time>
      </trkpt>
      <trkpt lat="38.874417" lon="-5.883700">
        <ele>756.0</ele>
        <time>2019-05-04T14:47:24Z</time>
      </trkpt>
      <trkpt lat="38.874433" lon="-5.883567">
        <ele>754.0</ele>
        <time>2019-05-04T14:47:25Z</time>
      </trkpt>
      <trkpt lat="38.874450" lon="-5.883433">
        <ele>751.0</ele>
        <time>2019-05-04T14:47:26Z</time>
      </trkpt>
      <trkpt lat="38.874450" lon="-5.883300">
        <ele>749.0</ele>
        <time>2019-05-04T14:47:27Z</time>
      </trkpt>
      <trkpt lat="38.874450" lon="-5.883150">
        <ele>746.0</ele>
        <time>2019-05-04T14:47:28Z</time>
      </trkpt>
      <trkpt lat="38.874467" lon="-5.883017">
        <ele>743.0</ele>
        <time>2019-05-04T14:47:29Z</time>
      </trkpt>
      <trkpt lat="38.874467" lon="-5.882867">
        <ele>741.0</ele>
        <time>2019-05-04T14:47:30Z</time>
      </trkpt>
      <trkpt lat="38.874467" lon="-5.882717">
        <ele>738.0</ele>
        <time>2019-05-04T14:47:31Z</time>
      </trkpt>
      <trkpt lat="38.874467" lon="-5.882567">
        <ele>735.0</ele>
        <time>2019-05-04T14:47:32Z</time>
      </trkpt>
      <trkpt lat="38.874450" lon="-5.882433">
        <ele>733.0</ele>
        <time>2019-05-04T14:47:33Z</time>
      </trkpt>
      <trkpt lat="38.874450" lon="-5.882300">
        <ele>731.0</ele>
        <time>2019-05-04T14:47:34Z</time>
      </trkpt>
      <trkpt lat="38.874433" lon="-5.882167">
        <ele>729.0</ele>
        <time>2019-05-04T14:47:35Z</time>
      </trkpt>
      <trkpt lat="38.874433" lon="-5.882017">
        <ele>726.0</ele>
        <time>2019-05-04T14:47:36Z</time>
      </trkpt>
      <trkpt lat="38.874417" lon="-5.881883">
        <ele>723.0</ele>
        <time>2019-05-04T14:47:37Z</time>
      </trkpt>
      <trkpt lat="38.874400" lon="-5.881733">
        <ele>720.0</ele>
        <time>2019-05-04T14:47:38Z</time>
      </trkpt>
      <trkpt lat="38.874383" lon="-5.881617">
        <ele>718.0</ele>
        <time>2019-05-04T14:47:39Z</time>
      </trkpt>
      <trkpt lat="38.874367" lon="-5.881500">
        <ele>716.0</ele>
        <time>2019-05-04T14:47:40Z</time>
      </trkpt>
      <trkpt lat="38.874333" lon="-5.881367">
        <ele>714.0</ele>
        <time>2019-05-04T14:47:41Z</time>
      </trkpt>
      <trkpt lat="38.874317" lon="-5.881217">
        <ele>711.0</ele>
        <time>2019-05-04T14:47:42Z</time>
      </trkpt>
      <trkpt lat="38.874317" lon="-5.881067">
        <ele>709.0</ele>
        <time>2019-05-04T14:47:43Z</time>
      </trkpt>
      <trkpt lat="38.874333" lon="-5.880900">
        <ele>708.0</ele>
        <time>2019-05-04T14:47:44Z</time>
      </trkpt>
      <trkpt lat="38.874333" lon="-5.880767">
        <ele>707.0</ele>
        <time>2019-05-04T14:47:45Z</time>
      </trkpt>
      <trkpt lat="38.874333" lon="-5.880617">
        <ele>708.0</ele>
        <time>2019-05-04T14:47:46Z</time>
      </trkpt>
      <trkpt lat="38.874333" lon="-5.880483">
        <ele>707.0</ele>
        <time>2019-05-04T14:47:47Z</time>
      </trkpt>
      <trkpt lat="38.874333" lon="-5.880350">
        <ele>706.0</ele>
        <time>2019-05-04T14:47:48Z</time>
      </trkpt>
      <trkpt lat="38.874333" lon="-5.880167">
        <ele>705.0</ele>
        <time>2019-05-04T14:47:49Z</time>
      </trkpt>
      <trkpt lat="38.874317" lon="-5.879983">
        <ele>702.0</ele>
        <time>2019-05-04T14:47:50Z</time>
      </trkpt>
      <trkpt lat="38.874283" lon="-5.879800">
        <ele>701.0</ele>
        <time>2019-05-04T14:47:51Z</time>
      </trkpt>
      <trkpt lat="38.874233" lon="-5.879633">
        <ele>701.0</ele>
        <time>2019-05-04T14:47:52Z</time>
      </trkpt>
      <trkpt lat="38.874200" lon="-5.879500">
        <ele>702.0</ele>
        <time>2019-05-04T14:47:53Z</time>
      </trkpt>
      <trkpt lat="38.874150" lon="-5.879367">
        <ele>702.0</ele>
        <time>2019-05-04T14:47:54Z</time>
      </trkpt>
      <trkpt lat="38.874100" lon="-5.879233">
        <ele>701.0</ele>
        <time>2019-05-04T14:47:55Z</time>
      </trkpt>
      <trkpt lat="38.874050" lon="-5.879100">
        <ele>699.0</ele>
        <time>2019-05-04T14:47:56Z</time>
      </trkpt>
      <trkpt lat="38.873983" lon="-5.878933">
        <ele>697.0</ele>
        <time>2019-05-04T14:47:57Z</time>
      </trkpt>
      <trkpt lat="38.873900" lon="-5.878783">
        <ele>695.0</ele>
        <time>2019-05-04T14:47:58Z</time>
      </trkpt>
      <trkpt lat="38.873817" lon="-5.878633">
        <ele>695.0</ele>
        <time>2019-05-04T14:47:59Z</time>
      </trkpt>
      <trkpt lat="38.873733" lon="-5.878500">
        <ele>696.0</ele>
        <time>2019-05-04T14:48:00Z</time>
      </trkpt>
      <trkpt lat="38.873667" lon="-5.878383">
        <ele>698.0</ele>
        <time>2019-05-04T14:48:01Z</time>
      </trkpt>
      <trkpt lat="38.873600" lon="-5.878283">
        <ele>701.0</ele>
        <time>2019-05-04T14:48:02Z</time>
      </trkpt>
      <trkpt lat="38.873533" lon="-5.878167">
        <ele>702.0</ele>
        <time>2019-05-04T14:48:03Z</time>
      </trkpt>
      <trkpt lat="38.873467" lon="-5.878050">
        <ele>702.0</ele>
        <time>2019-05-04T14:48:04Z</time>
      </trkpt>
      <trkpt lat="38.873400" lon="-5.877917">
        <ele>701.0</ele>
        <time>2019-05-04T14:48:05Z</time>
      </trkpt>
      <trkpt lat="38.873333" lon="-5.877767">
        <ele>702.0</ele>
        <time>2019-05-04T14:48:06Z</time>
      </trkpt>
      <trkpt lat="38.873300" lon="-5.877617">
        <ele>704.0</ele>
        <time>2019-05-04T14:48:07Z</time>
      </trkpt>
      <trkpt lat="38.873283" lon="-5.877467">
        <ele>706.0</ele>
        <time>2019-05-04T14:48:08Z</time>
      </trkpt>
      <trkpt lat="38.873300" lon="-5.877317">
        <ele>707.0</ele>
        <time>2019-05-04T14:48:09Z</time>
      </trkpt>
      <trkpt lat="38.873333" lon="-5.877167">
        <ele>707.0</ele>
        <time>2019-05-04T14:48:10Z</time>
      </trkpt>
      <trkpt lat="38.873367" lon="-5.877000">
        <ele>706.0</ele>
        <time>2019-05-04T14:48:11Z</time>
      </trkpt>
      <trkpt lat="38.873400" lon="-5.876900">
        <ele>706.0</ele>
        <time>2019-05-04T14:48:12Z</time>
      </trkpt>
      <trkpt lat="38.873467" lon="-5.876833">
        <ele>706.0</ele>
        <time>2019-05-04T14:48:13Z</time>
      </trkpt>
      <trkpt lat="38.873517" lon="-5.876833">
        <ele>705.0</ele>
        <time>2019-05-04T14:48:14Z</time>
      </trkpt>
      <trkpt lat="38.873567" lon="-5.876850">
        <ele>702.0</ele>
        <time>2019-05-04T14:48:15Z</time>
      </trkpt>
      <trkpt lat="38.873600" lon="-5.876900">
        <ele>700.0</ele>
        <time>2019-05-04T14:48:16Z</time>
      </trkpt>
      <trkpt lat="38.873617" lon="-5.876967">
        <ele>699.0</ele>
        <time>2019-05-04T14:48:17Z</time>
      </trkpt>
      <trkpt lat="38.873600" lon="-5.877033">
        <ele>697.0</ele>
        <time>2019-05-04T14:48:18Z</time>
      </trkpt>
      <trkpt lat="38.873567" lon="-5.877100">
        <ele>696.0</ele>
        <time>2019-05-04T14:48:19Z</time>
      </trkpt>
      <trkpt lat="38.873533" lon="-5.877167">
        <ele>694.0</ele>
        <time>2019-05-04T14:48:20Z</time>
      </trkpt>
      <trkpt lat="38.873467" lon="-5.877217">
        <ele>693.0</ele>
        <time>2019-05-04T14:48:21Z</time>
      </trkpt>
      <trkpt lat="38.873400" lon="-5.877250">
        <ele>693.0</ele>
        <time>2019-05-04T14:48:22Z</time>
      </trkpt>
      <trkpt lat="38.873333" lon="-5.877267">
        <ele>694.0</ele>
        <time>2019-05-04T14:48:23Z</time>
      </trkpt>
      <trkpt lat="38.873267" lon="-5.877283">
        <ele>696.0</ele>
        <time>2019-05-04T14:48:24Z</time>
      </trkpt>
      <trkpt lat="38.873217" lon="-5.877300">
        <ele>697.0</ele>
        <time>2019-05-04T14:48:25Z</time>
      </trkpt>
      <trkpt lat="38.873150" lon="-5.877317">
        <ele>696.0</ele>
        <time>2019-05-04T14:48:26Z</time>
      </trkpt>
      <trkpt lat="38.873100" lon="-5.877333">
        <ele>696.0</ele>
        <time>2019-05-04T14:48:27Z</time>
      </trkpt>
      <trkpt lat="38.873067" lon="-5.877383">
        <ele>695.0</ele>
        <time>2019-05-04T14:48:28Z</time>
      </trkpt>
      <trkpt lat="38.873050" lon="-5.877433">
        <ele>694.0</ele>
        <time>2019-05-04T14:48:29Z</time>
      </trkpt>
      <trkpt lat="38.873067" lon="-5.877467">
        <ele>692.0</ele>
        <time>2019-05-04T14:48:30Z</time>
      </trkpt>
      <trkpt lat="38.873100" lon="-5.877483">
        <ele>691.0</ele>
        <time>2019-05-04T14:48:31Z</time>
      </trkpt>
      <trkpt lat="38.873150" lon="-5.877500">
        <ele>689.0</ele>
        <time>2019-05-04T14:48:32Z</time>
      </trkpt>
      <trkpt lat="38.873183" lon="-5.877517">
        <ele>687.0</ele>
        <time>2019-05-04T14:48:33Z</time>
      </trkpt>
      <trkpt lat="38.873217" lon="-5.877550">
        <ele>685.0</ele>
        <time>2019-05-04T14:48:34Z</time>
      </trkpt>
      <trkpt lat="38.873267" lon="-5.877567">
        <ele>684.0</ele>
        <time>2019-05-04T14:48:35Z</time>
      </trkpt>
      <trkpt lat="38.873317" lon="-5.877600">
        <ele>682.0</ele>
        <time>2019-05-04T14:48:36Z</time>
      </trkpt>
      <trkpt lat="38.873367" lon="-5.877617">
        <ele>681.0</ele>
        <time>2019-05-04T14:48:37Z</time>
      </trkpt>
      <trkpt lat="38.873417" lon="-5.877633">
        <ele>680.0</ele>
        <time>2019-05-04T14:48:38Z</time>
      </trkpt>
      <trkpt lat="38.873467" lon="-5.877667">
        <ele>680.0</ele>
        <time>2019-05-04T14:48:39Z</time>
      </trkpt>
      <trkpt lat="38.873517" lon="-5.877683">
        <ele>679.0</ele>
        <time>2019-05-04T14:48:40Z</time>
      </trkpt>
      <trkpt lat="38.873567" lon="-5.877733">
        <ele>678.0</ele>
        <time>2019-05-04T14:48:41Z</time>
      </trkpt>
      <trkpt lat="38.873617" lon="-5.877750">
        <ele>678.0</ele>
        <time>2019-05-04T14:48:42Z</time>
      </trkpt>
      <trkpt lat="38.873667" lon="-5.877767">
        <ele>680.0</ele>
        <time>2019-05-04T14:48:43Z</time>
      </trkpt>
      <trkpt lat="38.873683" lon="-5.877783">
        <ele>683.0</ele>
        <time>2019-05-04T14:48:44Z</time>
      </trkpt>
      <trkpt lat="38.873700" lon="-5.877783">
        <ele>684.0</ele>
        <time>2019-05-04T14:48:45Z</time>
      </trkpt>
      <trkpt lat="38.873717" lon="-5.877800">
        <ele>685.0</ele>
        <time>2019-05-04T14:48:46Z</time>
      </trkpt>
      <trkpt lat="38.873717" lon="-5.877817">
        <ele>686.0</ele>
        <time>2019-05-04T14:48:47Z</time>
      </trkpt>
      <trkpt lat="38.873767" lon="-5.877850">
        <ele>685.0</ele>
        <time>2019-05-04T14:48:48Z</time>
      </trkpt>
      <trkpt lat="38.873800" lon="-5.877883">
        <ele>684.0</ele>
        <time>2019-05-04T14:48:49Z</time>
      </trkpt>
      <trkpt lat="38.873850" lon="-5.877917">
        <ele>684.0</ele>
        <time>2019-05-04T14:48:50Z</time>
      </trkpt>
      <trkpt lat="38.873883" lon="-5.877933">
        <ele>686.0</ele>
        <time>2019-05-04T14:48:51Z</time>
      </trkpt>
      <trkpt lat="38.873917" lon="-5.877950">
        <ele>686.0</ele>
        <time>2019-05-04T14:48:52Z</time>
      </trkpt>
      <trkpt lat="38.873933" lon="-5.877967">
        <ele>686.0</ele>
        <time>2019-05-04T14:48:53Z</time>
      </trkpt>
      <trkpt lat="38.873950" lon="-5.878017">
        <ele>686.0</ele>
        <time>2019-05-04T14:48:54Z</time>
      </trkpt>
      <trkpt lat="38.873983" lon="-5.878083">
        <ele>685.0</ele>
        <time>2019-05-04T14:48:55Z</time>
      </trkpt>
      <trkpt lat="38.874033" lon="-5.878117">
        <ele>685.0</ele>
        <time>2019-05-04T14:48:56Z</time>
      </trkpt>
      <trkpt lat="38.874083" lon="-5.878133">
        <ele>685.0</ele>
        <time>2019-05-04T14:48:57Z</time>
      </trkpt>
      <trkpt lat="38.874133" lon="-5.878133">
        <ele>686.0</ele>
        <time>2019-05-04T14:48:58Z</time>
      </trkpt>
      <trkpt lat="38.874167" lon="-5.878133">
        <ele>686.0</ele>
        <time>2019-05-04T14:48:59Z</time>
      </trkpt>
      <trkpt lat="38.874200" lon="-5.878133">
        <ele>687.0</ele>
        <time>2019-05-04T14:49:00Z</time>
      </trkpt>
      <trkpt lat="38.874233" lon="-5.878150">
        <ele>687.0</ele>
        <time>2019-05-04T14:49:01Z</time>
      </trkpt>
      <trkpt lat="38.874267" lon="-5.878150">
        <ele>686.0</ele>
        <time>2019-05-04T14:49:02Z</time>
      </trkpt>
      <trkpt lat="38.874333" lon="-5.878150">
        <ele>686.0</ele>
        <time>2019-05-04T14:49:03Z</time>
      </trkpt>
      <trkpt lat="38.874400" lon="-5.878133">
        <ele>686.0</ele>
        <time>2019-05-04T14:49:04Z</time>
      </trkpt>
      <trkpt lat="38.874450" lon="-5.878133">
        <ele>687.0</ele>
        <time>2019-05-04T14:49:05Z</time>
      </trkpt>
      <trkpt lat="38.874500" lon="-5.878167">
        <ele>687.0</ele>
        <time>2019-05-04T14:49:06Z</time>
      </trkpt>
      <trkpt lat="38.874567" lon="-5.878183">
        <ele>687.0</ele>
        <time>2019-05-04T14:49:07Z</time>
      </trkpt>
      <trkpt lat="38.874617" lon="-5.878200">
        <ele>687.0</ele>
        <time>2019-05-04T14:49:08Z</time>
      </trkpt>
      <trkpt lat="38.874683" lon="-5.878217">
        <ele>687.0</ele>
        <time>2019-05-04T14:49:09Z</time>
      </trkpt>
      <trkpt lat="38.874767" lon="-5.878233">
        <ele>687.0</ele>
        <time>2019-05-04T14:49:10Z</time>
      </trkpt>
      <trkpt lat="38.874833" lon="-5.878233">
        <ele>687.0</ele>
        <time>2019-05-04T14:49:11Z</time>
      </trkpt>
      <trkpt lat="38.874883" lon="-5.878233">
        <ele>688.0</ele>
        <time>2019-05-04T14:49:12Z</time>
      </trkpt>
      <trkpt lat="38.874950" lon="-5.878217">
        <ele>689.0</ele>
        <time>2019-05-04T14:49:13Z</time>
      </trkpt>
      <trkpt lat="38.874983" lon="-5.878217">
        <ele>689.0</ele>
        <time>2019-05-04T14:49:14Z</time>
      </trkpt>
      <trkpt lat="38.875033" lon="-5.878217">
        <ele>689.0</ele>
        <time>2019-05-04T14:49:15Z</time>
      </trkpt>
      <trkpt lat="38.875067" lon="-5.878217">
        <ele>689.0</ele>
        <time>2019-05-04T14:49:16Z</time>
      </trkpt>
      <trkpt lat="38.875117" lon="-5.878233">
        <ele>689.0</ele>
        <time>2019-05-04T14:49:17Z</time>
      </trkpt>
      <trkpt lat="38.875183" lon="-5.878250">
        <ele>687.0</ele>
        <time>2019-05-04T14:49:18Z</time>
      </trkpt>
      <trkpt lat="38.875233" lon="-5.878283">
        <ele>686.0</ele>
        <time>2019-05-04T14:49:19Z</time>
      </trkpt>
      <trkpt lat="38.875283" lon="-5.878300">
        <ele>688.0</ele>
        <time>2019-05-04T14:49:20Z</time>
      </trkpt>
      <trkpt lat="38.875317" lon="-5.878333">
        <ele>690.0</ele>
        <time>2019-05-04T14:49:21Z</time>
      </trkpt>
      <trkpt lat="38.875317" lon="-5.878350">
        <ele>692.0</ele>
        <time>2019-05-04T14:49:22Z</time>
      </trkpt>
      <trkpt lat="38.875333" lon="-5.878383">
        <ele>692.0</ele>
        <time>2019-05-04T14:49:23Z</time>
      </trkpt>
      <trkpt lat="38.875350" lon="-5.878417">
        <ele>690.0</ele>
        <time>2019-05-04T14:49:24Z</time>
      </trkpt>
      <trkpt lat="38.875400" lon="-5.878483">
        <ele>689.0</ele>
        <time>2019-05-04T14:49:25Z</time>
      </trkpt>
      <trkpt lat="38.875417" lon="-5.878533">
        <ele>688.0</ele>
        <time>2019-05-04T14:49:26Z</time>
      </trkpt>
      <trkpt lat="38.875417" lon="-5.878583">
        <ele>688.0</ele>
        <time>2019-05-04T14:49:27Z</time>
      </trkpt>
      <trkpt lat="38.875383" lon="-5.878633">
        <ele>689.0</ele>
        <time>2019-05-04T14:49:28Z</time>
      </trkpt>
      <trkpt lat="38.875317" lon="-5.878683">
        <ele>689.0</ele>
        <time>2019-05-04T14:49:29Z</time>
      </trkpt>
      <trkpt lat="38.875250" lon="-5.878700">
        <ele>690.0</ele>
        <time>2019-05-04T14:49:30Z</time>
      </trkpt>
      <trkpt lat="38.875167" lon="-5.878717">
        <ele>691.0</ele>
        <time>2019-05-04T14:49:31Z</time>
      </trkpt>
      <trkpt lat="38.875067" lon="-5.878683">
        <ele>691.0</ele>
        <time>2019-05-04T14:49:32Z</time>
      </trkpt>
      <trkpt lat="38.874983" lon="-5.878600">
        <ele>690.0</ele>
        <time>2019-05-04T14:49:33Z</time>
      </trkpt>
      <trkpt lat="38.874900" lon="-5.878467">
        <ele>690.0</ele>
        <time>2019-05-04T14:49:34Z</time>
      </trkpt>
      <trkpt lat="38.874883" lon="-5.878333">
        <ele>690.0</ele>
        <time>2019-05-04T14:49:35Z</time>
      </trkpt>
      <trkpt lat="38.874883" lon="-5.878200">
        <ele>690.0</ele>
        <time>2019-05-04T14:49:36Z</time>
      </trkpt>
      <trkpt lat="38.874883" lon="-5.878100">
        <ele>692.0</ele>
        <time>2019-05-04T14:49:37Z</time>
      </trkpt>
      <trkpt lat="38.874900" lon="-5.878017">
        <ele>694.0</ele>
        <time>2019-05-04T14:49:38Z</time>
      </trkpt>
      <trkpt lat="38.874917" lon="-5.877933">
        <ele>694.0</ele>
        <time>2019-05-04T14:49:39Z</time>
      </trkpt>
      <trkpt lat="38.874933" lon="-5.877850">
        <ele>694.0</ele>
        <time>2019-05-04T14:49:40Z</time>
      </trkpt>
      <trkpt lat="38.874983" lon="-5.877767">
        <ele>694.0</ele>
        <time>2019-05-04T14:49:41Z</time>
      </trkpt>
      <trkpt lat="38.875033" lon="-5.877717">
        <ele>693.0</ele>
        <time>2019-05-04T14:49:42Z</time>
      </trkpt>
      <trkpt lat="38.875100" lon="-5.877683">
        <ele>693.0</ele>
        <time>2019-05-04T14:49:43Z</time>
      </trkpt>
      <trkpt lat="38.875150" lon="-5.877683">
        <ele>694.0</ele>
        <time>2019-05-04T14:49:44Z</time>
      </trkpt>
      <trkpt lat="38.875183" lon="-5.877717">
        <ele>695.0</ele>
        <time>2019-05-04T14:49:45Z</time>
      </trkpt>
      <trkpt lat="38.875200" lon="-5.877750">
        <ele>695.0</ele>
        <time>2019-05-04T14:49:46Z</time>
      </trkpt>
      <trkpt lat="38.875217" lon="-5.877817">
        <ele>695.0</ele>
        <time>2019-05-04T14:49:47Z</time>
      </trkpt>
      <trkpt lat="38.875217" lon="-5.877883">
        <ele>696.0</ele>
        <time>2019-05-04T14:49:48Z</time>
      </trkpt>
      <trkpt lat="38.875200" lon="-5.877950">
        <ele>696.0</ele>
        <time>2019-05-04T14:49:49Z</time>
      </trkpt>
      <trkpt lat="38.875150" lon="-5.878017">
        <ele>697.0</ele>
        <time>2019-05-04T14:49:50Z</time>
      </trkpt>
      <trkpt lat="38.875083" lon="-5.878067">
        <ele>698.0</ele>
        <time>2019-05-04T14:49:51Z</time>
      </trkpt>
      <trkpt lat="38.875000" lon="-5.878083">
        <ele>699.0</ele>
        <time>2019-05-04T14:49:52Z</time>
      </trkpt>
      <trkpt lat="38.874900" lon="-5.878067">
        <ele>699.0</ele>
        <time>2019-05-04T14:49:53Z</time>
      </trkpt>
      <trkpt lat="38.874800" lon="-5.878017">
        <ele>699.0</ele>
        <time>2019-05-04T14:49:54Z</time>
      </trkpt>
      <trkpt lat="38.874717" lon="-5.877933">
        <ele>698.0</ele>
        <time>2019-05-04T14:49:55Z</time>
      </trkpt>
      <trkpt lat="38.874650" lon="-5.877833">
        <ele>698.0</ele>
        <time>2019-05-04T14:49:56Z</time>
      </trkpt>
      <trkpt lat="38.874600" lon="-5.877717">
        <ele>698.0</ele>
        <time>2019-05-04T14:49:57Z</time>
      </trkpt>
      <trkpt lat="38.874583" lon="-5.877600">
        <ele>698.0</ele>
        <time>2019-05-04T14:49:58Z</time>
      </trkpt>
      <trkpt lat="38.874583" lon="-5.877483">
        <ele>697.0</ele>
        <time>2019-05-04T14:49:59Z</time>
      </trkpt>
      <trkpt lat="38.874600" lon="-5.877367">
        <ele>697.0</ele>
        <time>2019-05-04T14:50:00Z</time>
      </trkpt>
      <trkpt lat="38.874650" lon="-5.877267">
        <ele>697.0</ele>
        <time>2019-05-04T14:50:01Z</time>
      </trkpt>
      <trkpt lat="38.874700" lon="-5.877167">
        <ele>698.0</ele>
        <time>2019-05-04T14:50:02Z</time>
      </trkpt>
      <trkpt lat="38.874750" lon="-5.877100">
        <ele>701.0</ele>
        <time>2019-05-04T14:50:03Z</time>
      </trkpt>
      <trkpt lat="38.874767" lon="-5.877067">
        <ele>705.0</ele>
        <time>2019-05-04T14:50:04Z</time>
      </trkpt>
      <trkpt lat="38.874800" lon="-5.877000">
        <ele>707.0</ele>
        <time>2019-05-04T14:50:05Z</time>
      </trkpt>
      <trkpt lat="38.874850" lon="-5.876950">
        <ele>706.0</ele>
        <time>2019-05-04T14:50:06Z</time>
      </trkpt>
      <trkpt lat="38.874917" lon="-5.876883">
        <ele>704.0</ele>
        <time>2019-05-04T14:50:07Z</time>
      </trkpt>
      <trkpt lat="38.875000" lon="-5.876867">
        <ele>703.0</ele>
        <time>2019-05-04T14:50:08Z</time>
      </trkpt>
      <trkpt lat="38.875067" lon="-5.876883">
        <ele>703.0</ele>
        <time>2019-05-04T14:50:09Z</time>
      </trkpt>
      <trkpt lat="38.875100" lon="-5.876933">
        <ele>703.0</ele>
        <time>2019-05-04T14:50:10Z</time>
      </trkpt>
      <trkpt lat="38.875100" lon="-5.877000">
        <ele>705.0</ele>
        <time>2019-05-04T14:50:11Z</time>
      </trkpt>
      <trkpt lat="38.875067" lon="-5.877033">
        <ele>707.0</ele>
        <time>2019-05-04T14:50:12Z</time>
      </trkpt>
      <trkpt lat="38.875017" lon="-5.877067">
        <ele>709.0</ele>
        <time>2019-05-04T14:50:13Z</time>
      </trkpt>
      <trkpt lat="38.874950" lon="-5.877100">
        <ele>710.0</ele>
        <time>2019-05-04T14:50:14Z</time>
      </trkpt>
      <trkpt lat="38.874883" lon="-5.877150">
        <ele>711.0</ele>
        <time>2019-05-04T14:50:15Z</time>
      </trkpt>
      <trkpt lat="38.874800" lon="-5.877167">
        <ele>711.0</ele>
        <time>2019-05-04T14:50:16Z</time>
      </trkpt>
      <trkpt lat="38.874700" lon="-5.877183">
        <ele>711.0</ele>
        <time>2019-05-04T14:50:17Z</time>
      </trkpt>
      <trkpt lat="38.874583" lon="-5.877150">
        <ele>710.0</ele>
        <time>2019-05-04T14:50:18Z</time>
      </trkpt>
      <trkpt lat="38.874483" lon="-5.877100">
        <ele>710.0</ele>
        <time>2019-05-04T14:50:19Z</time>
      </trkpt>
      <trkpt lat="38.874400" lon="-5.877000">
        <ele>709.0</ele>
        <time>2019-05-04T14:50:20Z</time>
      </trkpt>
      <trkpt lat="38.874333" lon="-5.876883">
        <ele>707.0</ele>
        <time>2019-05-04T14:50:21Z</time>
      </trkpt>
      <trkpt lat="38.874300" lon="-5.876750">
        <ele>706.0</ele>
        <time>2019-05-04T14:50:22Z</time>
      </trkpt>
      <trkpt lat="38.874300" lon="-5.876600">
        <ele>704.0</ele>
        <time>2019-05-04T14:50:23Z</time>
      </trkpt>
      <trkpt lat="38.874350" lon="-5.876483">
        <ele>703.0</ele>
        <time>2019-05-04T14:50:24Z</time>
      </trkpt>
      <trkpt lat="38.874417" lon="-5.876400">
        <ele>702.0</ele>
        <time>2019-05-04T14:50:25Z</time>
      </trkpt>
      <trkpt lat="38.874483" lon="-5.876333">
        <ele>703.0</ele>
        <time>2019-05-04T14:50:26Z</time>
      </trkpt>
      <trkpt lat="38.874533" lon="-5.876283">
        <ele>706.0</ele>
        <time>2019-05-04T14:50:27Z</time>
      </trkpt>
      <trkpt lat="38.874567" lon="-5.876233">
        <ele>708.0</ele>
        <time>2019-05-04T14:50:28Z</time>
      </trkpt>
      <trkpt lat="38.874633" lon="-5.876167">
        <ele>709.0</ele>
        <time>2019-05-04T14:50:29Z</time>
      </trkpt>
      <trkpt lat="38.874700" lon="-5.876100">
        <ele>709.0</ele>
        <time>2019-05-04T14:50:30Z</time>
      </trkpt>
      <trkpt lat="38.874767" lon="-5.876067">
        <ele>710.0</ele>
        <time>2019-05-04T14:50:31Z</time>
      </trkpt>
      <trkpt lat="38.874833" lon="-5.876050">
        <ele>712.0</ele>
        <time>2019-05-04T14:50:32Z</time>
      </trkpt>
      <trkpt lat="38.874883" lon="-5.876033">
        <ele>715.0</ele>
        <time>2019-05-04T14:50:33Z</time>
      </trkpt>
      <trkpt lat="38.874933" lon="-5.876017">
        <ele>717.0</ele>
        <time>2019-05-04T14:50:34Z</time>
      </trkpt>
      <trkpt lat="38.874983" lon="-5.875983">
        <ele>718.0</ele>
        <time>2019-05-04T14:50:35Z</time>
      </trkpt>
      <trkpt lat="38.875033" lon="-5.875983">
        <ele>719.0</ele>
        <time>2019-05-04T14:50:36Z</time>
      </trkpt>
      <trkpt lat="38.875083" lon="-5.876000">
        <ele>718.0</ele>
        <time>2019-05-04T14:50:37Z</time>
      </trkpt>
      <trkpt lat="38.875117" lon="-5.876050">
        <ele>718.0</ele>
        <time>2019-05-04T14:50:38Z</time>
      </trkpt>
      <trkpt lat="38.875150" lon="-5.876133">
        <ele>717.0</ele>
        <time>2019-05-04T14:50:39Z</time>
      </trkpt>
      <trkpt lat="38.875150" lon="-5.876200">
        <ele>718.0</ele>
        <time>2019-05-04T14:50:40Z</time>
      </trkpt>
      <trkpt lat="38.875150" lon="-5.876283">
        <ele>719.0</ele>
        <time>2019-05-04T14:50:41Z</time>
      </trkpt>
      <trkpt lat="38.875117" lon="-5.876333">
        <ele>723.0</ele>
        <time>2019-05-04T14:50:42Z</time>
      </trkpt>
      <trkpt lat="38.875100" lon="-5.876383">
        <ele>725.0</ele>
        <time>2019-05-04T14:50:43Z</time>
      </trkpt>
      <trkpt lat="38.875067" lon="-5.876433">
        <ele>726.0</ele>
        <time>2019-05-04T14:50:44Z</time>
      </trkpt>
      <trkpt lat="38.875050" lon="-5.876483">
        <ele>728.0</ele>
        <time>2019-05-04T14:50:45Z</time>
      </trkpt>
      <trkpt lat="38.875067" lon="-5.876550">
        <ele>728.0</ele>
        <time>2019-05-04T14:50:46Z</time>
      </trkpt>
      <trkpt lat="38.875117" lon="-5.876583">
        <ele>729.0</ele>
        <time>2019-05-04T14:50:47Z</time>
      </trkpt>
      <trkpt lat="38.875200" lon="-5.876583">
        <ele>730.0</ele>
        <time>2019-05-04T14:50:48Z</time>
      </trkpt>
      <trkpt lat="38.875267" lon="-5.876550">
        <ele>731.0</ele>
        <time>2019-05-04T14:50:49Z</time>
      </trkpt>
      <trkpt lat="38.875333" lon="-5.876467">
        <ele>734.0</ele>
        <time>2019-05-04T14:50:50Z</time>
      </trkpt>
      <trkpt lat="38.875383" lon="-5.876383">
        <ele>735.0</ele>
        <time>2019-05-04T14:50:51Z</time>
      </trkpt>
      <trkpt lat="38.875400" lon="-5.876250">
        <ele>736.0</ele>
        <time>2019-05-04T14:50:52Z</time>
      </trkpt>
      <trkpt lat="38.875400" lon="-5.876100">
        <ele>735.0</ele>
        <time>2019-05-04T14:50:53Z</time>
      </trkpt>
      <trkpt lat="38.875367" lon="-5.875933">
        <ele>734.0</ele>
        <time>2019-05-04T14:50:54Z</time>
      </trkpt>
      <trkpt lat="38.875300" lon="-5.875817">
        <ele>735.0</ele>
        <time>2019-05-04T14:50:55Z</time>
      </trkpt>
      <trkpt lat="38.875200" lon="-5.875733">
        <ele>735.0</ele>
        <time>2019-05-04T14:50:56Z</time>
      </trkpt>
      <trkpt lat="38.875100" lon="-5.875733">
        <ele>733.0</ele>
        <time>2019-05-04T14:50:57Z</time>
      </trkpt>
      <trkpt lat="38.875000" lon="-5.875767">
        <ele>733.0</ele>
        <time>2019-05-04T14:50:58Z</time>
      </trkpt>
      <trkpt lat="38.874950" lon="-5.875817">
        <ele>732.0</ele>
        <time>2019-05-04T14:50:59Z</time>
      </trkpt>
      <trkpt lat="38.874917" lon="-5.875883">
        <ele>732.0</ele>
        <time>2019-05-04T14:51:00Z</time>
      </trkpt>
      <trkpt lat="38.874900" lon="-5.875950">
        <ele>733.0</ele>
        <time>2019-05-04T14:51:01Z</time>
      </trkpt>
      <trkpt lat="38.874867" lon="-5.876017">
        <ele>734.0</ele>
        <time>2019-05-04T14:51:02Z</time>
      </trkpt>
      <trkpt lat="38.874850" lon="-5.876083">
        <ele>736.0</ele>
        <time>2019-05-04T14:51:03Z</time>
      </trkpt>
      <trkpt lat="38.874850" lon="-5.876133">
        <ele>737.0</ele>
        <time>2019-05-04T14:51:04Z</time>
      </trkpt>
      <trkpt lat="38.874850" lon="-5.876217">
        <ele>735.0</ele>
        <time>2019-05-04T14:51:05Z</time>
      </trkpt>
      <trkpt lat="38.874867" lon="-5.876283">
        <ele>736.0</ele>
        <time>2019-05-04T14:51:06Z</time>
      </trkpt>
      <trkpt lat="38.874917" lon="-5.876367">
        <ele>737.0</ele>
        <time>2019-05-04T14:51:07Z</time>
      </trkpt>
      <trkpt lat="38.874983" lon="-5.876433">
        <ele>738.0</ele>
        <time>2019-05-04T14:51:08Z</time>
      </trkpt>
      <trkpt lat="38.875050" lon="-5.876467">
        <ele>739.0</ele>
        <time>2019-05-04T14:51:09Z</time>
      </trkpt>
      <trkpt lat="38.875100" lon="-5.876500">
        <ele>744.0</ele>
        <time>2019-05-04T14:51:10Z</time>
      </trkpt>
      <trkpt lat="38.875133" lon="-5.876500">
        <ele>747.0</ele>
        <time>2019-05-04T14:51:11Z</time>
      </trkpt>
      <trkpt lat="38.875183" lon="-5.876517">
        <ele>750.0</ele>
        <time>2019-05-04T14:51:12Z</time>
      </trkpt>
      <trkpt lat="38.875217" lon="-5.876533">
        <ele>752.0</ele>
        <time>2019-05-04T14:51:13Z</time>
      </trkpt>
      <trkpt lat="38.875267" lon="-5.876550">
        <ele>752.0</ele>
        <time>2019-05-04T14:51:14Z</time>
      </trkpt>
      <trkpt lat="38.875317" lon="-5.876583">
        <ele>749.0</ele>
        <time>2019-05-04T14:51:15Z</time>
      </trkpt>
      <trkpt lat="38.875383" lon="-5.876600">
        <ele>749.0</ele>
        <time>2019-05-04T14:51:16Z</time>
      </trkpt>
      <trkpt lat="38.875467" lon="-5.876567">
        <ele>749.0</ele>
        <time>2019-05-04T14:51:17Z</time>
      </trkpt>
      <trkpt lat="38.875533" lon="-5.876483">
        <ele>749.0</ele>
        <time>2019-05-04T14:51:18Z</time>
      </trkpt>
      <trkpt lat="38.875617" lon="-5.876367">
        <ele>748.0</ele>
        <time>2019-05-04T14:51:19Z</time>
      </trkpt>
      <trkpt lat="38.875667" lon="-5.876267">
        <ele>749.0</ele>
        <time>2019-05-04T14:51:20Z</time>
      </trkpt>
      <trkpt lat="38.875700" lon="-5.876133">
        <ele>749.0</ele>
        <time>2019-05-04T14:51:21Z</time>
      </trkpt>
      <trkpt lat="38.875717" lon="-5.875983">
        <ele>748.0</ele>
        <time>2019-05-04T14:51:22Z</time>
      </trkpt>
      <trkpt lat="38.875683" lon="-5.875833">
        <ele>746.0</ele>
        <time>2019-05-04T14:51:23Z</time>
      </trkpt>
      <trkpt lat="38.875633" lon="-5.875717">
        <ele>745.0</ele>
        <time>2019-05-04T14:51:24Z</time>
      </trkpt>
      <trkpt lat="38.875550" lon="-5.875617">
        <ele>744.0</ele>
        <time>2019-05-04T14:51:25Z</time>
      </trkpt>
      <trkpt lat="38.875450" lon="-5.875567">
        <ele>744.0</ele>
        <time>2019-05-04T14:51:26Z</time>
      </trkpt>
      <trkpt lat="38.875367" lon="-5.875567">
        <ele>744.0</ele>
        <time>2019-05-04T14:51:27Z</time>
      </trkpt>
      <trkpt lat="38.875283" lon="-5.875583">
        <ele>744.0</ele>
        <time>2019-05-04T14:51:28Z</time>
      </trkpt>
      <trkpt lat="38.875217" lon="-5.875583">
        <ele>744.0</ele>
        <time>2019-05-04T14:51:29Z</time>
      </trkpt>
      <trkpt lat="38.875150" lon="-5.875600">
        <ele>744.0</ele>
        <time>2019-05-04T14:51:30Z</time>
      </trkpt>
      <trkpt lat="38.875100" lon="-5.875633">
        <ele>745.0</ele>
        <time>2019-05-04T14:51:31Z</time>
      </trkpt>
      <trkpt lat="38.875050" lon="-5.875683">
        <ele>745.0</ele>
        <time>2019-05-04T14:51:32Z</time>
      </trkpt>
      <trkpt lat="38.875000" lon="-5.875733">
        <ele>744.0</ele>
        <time>2019-05-04T14:51:33Z</time>
      </trkpt>
      <trkpt lat="38.874967" lon="-5.875800">
        <ele>744.0</ele>
        <time>2019-05-04T14:51:34Z</time>
      </trkpt>
      <trkpt lat="38.874933" lon="-5.875850">
        <ele>746.0</ele>
        <time>2019-05-04T14:51:35Z</time>
      </trkpt>
      <trkpt lat="38.874917" lon="-5.875883">
        <ele>747.0</ele>
        <time>2019-05-04T14:51:36Z</time>
      </trkpt>
      <trkpt lat="38.874900" lon="-5.875917">
        <ele>748.0</ele>
        <time>2019-05-04T14:51:37Z</time>
      </trkpt>
      <trkpt lat="38.874883" lon="-5.875967">
        <ele>749.0</ele>
        <time>2019-05-04T14:51:38Z</time>
      </trkpt>
      <trkpt lat="38.874867" lon="-5.876017">
        <ele>748.0</ele>
        <time>2019-05-04T14:51:39Z</time>
      </trkpt>
      <trkpt lat="38.874833" lon="-5.876067">
        <ele>749.0</ele>
        <time>2019-05-04T14:51:40Z</time>
      </trkpt>
      <trkpt lat="38.874817" lon="-5.876100">
        <ele>749.0</ele>
        <time>2019-05-04T14:51:41Z</time>
      </trkpt>
      <trkpt lat="38.874783" lon="-5.876133">
        <ele>750.0</ele>
        <time>2019-05-04T14:51:42Z</time>
      </trkpt>
      <trkpt lat="38.874750" lon="-5.876167">
        <ele>750.0</ele>
        <time>2019-05-04T14:51:43Z</time>
      </trkpt>
      <trkpt lat="38.874717" lon="-5.876217">
        <ele>750.0</ele>
        <time>2019-05-04T14:51:44Z</time>
      </trkpt>
      <trkpt lat="38.874683" lon="-5.876250">
        <ele>749.0</ele>
        <time>2019-05-04T14:51:45Z</time>
      </trkpt>
      <trkpt lat="38.874650" lon="-5.876283">
        <ele>749.0</ele>
        <time>2019-05-04T14:51:46Z</time>
      </trkpt>
      <trkpt lat="38.874633" lon="-5.876333">
        <ele>750.0</ele>
        <time>2019-05-04T14:51:47Z</time>
      </trkpt>
      <trkpt lat="38.874633" lon="-5.876383">
        <ele>750.0</ele>
        <time>2019-05-04T14:51:48Z</time>
      </trkpt>
      <trkpt lat="38.874667" lon="-5.876450">
        <ele>751.0</ele>
        <time>2019-05-04T14:51:49Z</time>
      </trkpt>
      <trkpt lat="38.874700" lon="-5.876483">
        <ele>752.0</ele>
        <time>2019-05-04T14:51:50Z</time>
      </trkpt>
      <trkpt lat="38.874750" lon="-5.876517">
        <ele>755.0</ele>
        <time>2019-05-04T14:51:51Z</time>
      </trkpt>
      <trkpt lat="38.874767" lon="-5.876550">
        <ele>757.0</ele>
        <time>2019-05-04T14:51:52Z</time>
      </trkpt>
      <trkpt lat="38.874767" lon="-5.876600">
        <ele>758.0</ele>
        <time>2019-05-04T14:51:53Z</time>
      </trkpt>
      <trkpt lat="38.874733" lon="-5.876667">
        <ele>758.0</ele>
        <time>2019-05-04T14:51:54Z</time>
      </trkpt>
      <trkpt lat="38.874683" lon="-5.876700">
        <ele>758.0</ele>
        <time>2019-05-04T14:51:55Z</time>
      </trkpt>
      <trkpt lat="38.874617" lon="-5.876733">
        <ele>758.0</ele>
        <time>2019-05-04T14:51:56Z</time>
      </trkpt>
      <trkpt lat="38.874533" lon="-5.876733">
        <ele>758.0</ele>
        <time>2019-05-04T14:51:57Z</time>
      </trkpt>
      <trkpt lat="38.874450" lon="-5.876717">
        <ele>758.0</ele>
        <time>2019-05-04T14:51:58Z</time>
      </trkpt>
      <trkpt lat="38.874367" lon="-5.876683">
        <ele>759.0</ele>
        <time>2019-05-04T14:51:59Z</time>
      </trkpt>
      <trkpt lat="38.874283" lon="-5.876617">
        <ele>759.0</ele>
        <time>2019-05-04T14:52:00Z</time>
      </trkpt>
      <trkpt lat="38.874200" lon="-5.876517">
        <ele>759.0</ele>
        <time>2019-05-04T14:52:01Z</time>
      </trkpt>
      <trkpt lat="38.874150" lon="-5.876383">
        <ele>758.0</ele>
        <time>2019-05-04T14:52:02Z</time>
      </trkpt>
      <trkpt lat="38.874117" lon="-5.876217">
        <ele>758.0</ele>
        <time>2019-05-04T14:52:03Z</time>
      </trkpt>
      <trkpt lat="38.874150" lon="-5.876067">
        <ele>757.0</ele>
        <time>2019-05-04T14:52:04Z</time>
      </trkpt>
      <trkpt lat="38.874200" lon="-5.875917">
        <ele>755.0</ele>
        <time>2019-05-04T14:52:05Z</time>
      </trkpt>
      <trkpt lat="38.874267" lon="-5.875800">
        <ele>754.0</ele>
        <time>2019-05-04T14:52:06Z</time>
      </trkpt>
      <trkpt lat="38.874333" lon="-5.875700">
        <ele>754.0</ele>
        <time>2019-05-04T14:52:07Z</time>
      </trkpt>
      <trkpt lat="38.874400" lon="-5.875633">
        <ele>755.0</ele>
        <time>2019-05-04T14:52:08Z</time>
      </trkpt>
      <trkpt lat="38.874483" lon="-5.875583">
        <ele>755.0</ele>
        <time>2019-05-04T14:52:09Z</time>
      </trkpt>
      <trkpt lat="38.874567" lon="-5.875567">
        <ele>755.0</ele>
        <time>2019-05-04T14:52:10Z</time>
      </trkpt>
      <trkpt lat="38.874650" lon="-5.875567">
        <ele>757.0</ele>
        <time>2019-05-04T14:52:11Z</time>
      </trkpt>
      <trkpt lat="38.874700" lon="-5.875600">
        <ele>759.0</ele>
        <time>2019-05-04T14:52:12Z</time>
      </trkpt>
      <trkpt lat="38.874733" lon="-5.875650">
        <ele>761.0</ele>
        <time>2019-05-04T14:52:13Z</time>
      </trkpt>
      <trkpt lat="38.874767" lon="-5.875717">
        <ele>762.0</ele>
        <time>2019-05-04T14:52:14Z</time>
      </trkpt>
      <trkpt lat="38.874800" lon="-5.875783">
        <ele>762.0</ele>
        <time>2019-05-04T14:52:15Z</time>
      </trkpt>
      <trkpt lat="38.874800" lon="-5.875833">
        <ele>762.0</ele>
        <time>2019-05-04T14:52:16Z</time>
      </trkpt>
      <trkpt lat="38.874800" lon="-5.875900">
        <ele>762.0</ele>
        <time>2019-05-04T14:52:17Z</time>
      </trkpt>
      <trkpt lat="38.874783" lon="-5.875950">
        <ele>761.0</ele>
        <time>2019-05-04T14:52:18Z</time>
      </trkpt>
      <trkpt lat="38.874800" lon="-5.876000">
        <ele>759.0</ele>
        <time>2019-05-04T14:52:19Z</time>
      </trkpt>
      <trkpt lat="38.874800" lon="-5.876067">
        <ele>757.0</ele>
        <time>2019-05-04T14:52:20Z</time>
      </trkpt>
      <trkpt lat="38.874800" lon="-5.876150">
        <ele>755.0</ele>
        <time>2019-05-04T14:52:21Z</time>
      </trkpt>
      <trkpt lat="38.874767" lon="-5.876233">
        <ele>753.0</ele>
        <time>2019-05-04T14:52:22Z</time>
      </trkpt>
      <trkpt lat="38.874733" lon="-5.876300">
        <ele>750.0</ele>
        <time>2019-05-04T14:52:23Z</time>
      </trkpt>
      <trkpt lat="38.874683" lon="-5.876383">
        <ele>747.0</ele>
        <time>2019-05-04T14:52:24Z</time>
      </trkpt>
      <trkpt lat="38.874633" lon="-5.876450">
        <ele>745.0</ele>
        <time>2019-05-04T14:52:25Z</time>
      </trkpt>
      <trkpt lat="38.874600" lon="-5.876517">
        <ele>743.0</ele>
        <time>2019-05-04T14:52:26Z</time>
      </trkpt>
      <trkpt lat="38.874550" lon="-5.876567">
        <ele>741.0</ele>
        <time>2019-05-04T14:52:27Z</time>
      </trkpt>
      <trkpt lat="38.874500" lon="-5.876633">
        <ele>739.0</ele>
        <time>2019-05-04T14:52:28Z</time>
      </trkpt>
      <trkpt lat="38.874433" lon="-5.876700">
        <ele>737.0</ele>
        <time>2019-05-04T14:52:29Z</time>
      </trkpt>
      <trkpt lat="38.874383" lon="-5.876767">
        <ele>736.0</ele>
        <time>2019-05-04T14:52:30Z</time>
      </trkpt>
      <trkpt lat="38.874350" lon="-5.876817">
        <ele>735.0</ele>
        <time>2019-05-04T14:52:31Z</time>
      </trkpt>
      <trkpt lat="38.874300" lon="-5.876883">
        <ele>734.0</ele>
        <time>2019-05-04T14:52:32Z</time>
      </trkpt>
      <trkpt lat="38.874267" lon="-5.876950">
        <ele>732.0</ele>
        <time>2019-05-04T14:52:33Z</time>
      </trkpt>
      <trkpt lat="38.874217" lon="-5.877017">
        <ele>730.0</ele>
        <time>2019-05-04T14:52:34Z</time>
      </trkpt>
      <trkpt lat="38.874183" lon="-5.877117">
        <ele>729.0</ele>
        <time>2019-05-04T14:52:35Z</time>
      </trkpt>
      <trkpt lat="38.874183" lon="-5.877183">
        <ele>727.0</ele>
        <time>2019-05-04T14:52:36Z</time>
      </trkpt>
      <trkpt lat="38.874200" lon="-5.877250">
        <ele>723.0</ele>
        <time>2019-05-04T14:52:37Z</time>
      </trkpt>
      <trkpt lat="38.874217" lon="-5.877317">
        <ele>721.0</ele>
        <time>2019-05-04T14:52:38Z</time>
      </trkpt>
      <trkpt lat="38.874267" lon="-5.877383">
        <ele>718.0</ele>
        <time>2019-05-04T14:52:39Z</time>
      </trkpt>
      <trkpt lat="38.874317" lon="-5.877433">
        <ele>717.0</ele>
        <time>2019-05-04T14:52:40Z</time>
      </trkpt>
      <trkpt lat="38.874367" lon="-5.877467">
        <ele>715.0</ele>
        <time>2019-05-04T14:52:41Z</time>
      </trkpt>
      <trkpt lat="38.874417" lon="-5.877483">
        <ele>714.0</ele>
        <time>2019-05-04T14:52:42Z</time>
      </trkpt>
      <trkpt lat="38.874467" lon="-5.877500">
        <ele>712.0</ele>
        <time>2019-05-04T14:52:43Z</time>
      </trkpt>
      <trkpt lat="38.874517" lon="-5.877517">
        <ele>709.0</ele>
        <time>2019-05-04T14:52:44Z</time>
      </trkpt>
      <trkpt lat="38.874583" lon="-5.877533">
        <ele>706.0</ele>
        <time>2019-05-04T14:52:45Z</time>
      </trkpt>
      <trkpt lat="38.874667" lon="-5.877533">
        <ele>704.0</ele>
        <time>2019-05-04T14:52:46Z</time>
      </trkpt>
      <trkpt lat="38.874750" lon="-5.877533">
        <ele>701.0</ele>
        <time>2019-05-04T14:52:47Z</time>
      </trkpt>
      <trkpt lat="38.874817" lon="-5.877533">
        <ele>699.0</ele>
        <time>2019-05-04T14:52:48Z</time>
      </trkpt>
      <trkpt lat="38.874900" lon="-5.877517">
        <ele>698.0</ele>
        <time>2019-05-04T14:52:49Z</time>
      </trkpt>
      <trkpt lat="38.874967" lon="-5.877467">
        <ele>696.0</ele>
        <time>2019-05-04T14:52:50Z</time>
      </trkpt>
      <trkpt lat="38.875050" lon="-5.877417">
        <ele>694.0</ele>
        <time>2019-05-04T14:52:51Z</time>
      </trkpt>
      <trkpt lat="38.875117" lon="-5.877367">
        <ele>691.0</ele>
        <time>2019-05-04T14:52:52Z</time>
      </trkpt>
      <trkpt lat="38.875200" lon="-5.877317">
        <ele>688.0</ele>
        <time>2019-05-04T14:52:53Z</time>
      </trkpt>
      <trkpt lat="38.875283" lon="-5.877267">
        <ele>685.0</ele>
        <time>2019-05-04T14:52:54Z</time>
      </trkpt>
      <trkpt lat="38.875383" lon="-5.877200">
        <ele>683.0</ele>
        <time>2019-05-04T14:52:55Z</time>
      </trkpt>
      <trkpt lat="38.875450" lon="-5.877133">
        <ele>682.0</ele>
        <time>2019-05-04T14:52:56Z</time>
      </trkpt>
      <trkpt lat="38.875533" lon="-5.877067">
        <ele>683.0</ele>
        <time>2019-05-04T14:52:57Z</time>
      </trkpt>
      <trkpt lat="38.875600" lon="-5.877017">
        <ele>683.0</ele>
        <time>2019-05-04T14:52:58Z</time>
      </trkpt>
      <trkpt lat="38.875667" lon="-5.876950">
        <ele>684.0</ele>
        <time>2019-05-04T14:52:59Z</time>
      </trkpt>
      <trkpt lat="38.875717" lon="-5.876883">
        <ele>684.0</ele>
        <time>2019-05-04T14:53:00Z</time>
      </trkpt>
      <trkpt lat="38.875783" lon="-5.876800">
        <ele>683.0</ele>
        <time>2019-05-04T14:53:01Z</time>
      </trkpt>
      <trkpt lat="38.875850" lon="-5.876717">
        <ele>683.0</ele>
        <time>2019-05-04T14:53:02Z</time>
      </trkpt>
      <trkpt lat="38.875933" lon="-5.876633">
        <ele>683.0</ele>
        <time>2019-05-04T14:53:03Z</time>
      </trkpt>
      <trkpt lat="38.876017" lon="-5.876550">
        <ele>683.0</ele>
        <time>2019-05-04T14:53:04Z</time>
      </trkpt>
      <trkpt lat="38.876100" lon="-5.876483">
        <ele>683.0</ele>
        <time>2019-05-04T14:53:05Z</time>
      </trkpt>
      <trkpt lat="38.876183" lon="-5.876417">
        <ele>686.0</ele>
        <time>2019-05-04T14:53:06Z</time>
      </trkpt>
      <trkpt lat="38.876250" lon="-5.876350">
        <ele>689.0</ele>
        <time>2019-05-04T14:53:07Z</time>
      </trkpt>
      <trkpt lat="38.876300" lon="-5.876283">
        <ele>693.0</ele>
        <time>2019-05-04T14:53:08Z</time>
      </trkpt>
      <trkpt lat="38.876367" lon="-5.876233">
        <ele>695.0</ele>
        <time>2019-05-04T14:53:09Z</time>
      </trkpt>
      <trkpt lat="38.876450" lon="-5.876167">
        <ele>695.0</ele>
        <time>2019-05-04T14:53:10Z</time>
      </trkpt>
      <trkpt lat="38.876517" lon="-5.876100">
        <ele>696.0</ele>
        <time>2019-05-04T14:53:11Z</time>
      </trkpt>
      <trkpt lat="38.876600" lon="-5.876083">
        <ele>696.0</ele>
        <time>2019-05-04T14:53:12Z</time>
      </trkpt>
      <trkpt lat="38.876667" lon="-5.876083">
        <ele>697.0</ele>
        <time>2019-05-04T14:53:13Z</time>
      </trkpt>
      <trkpt lat="38.876700" lon="-5.876133">
        <ele>696.0</ele>
        <time>2019-05-04T14:53:14Z</time>
      </trkpt>
      <trkpt lat="38.876717" lon="-5.876183">
        <ele>696.0</ele>
        <time>2019-05-04T14:53:15Z</time>
      </trkpt>
      <trkpt lat="38.876700" lon="-5.876233">
        <ele>696.0</ele>
        <time>2019-05-04T14:53:16Z</time>
      </trkpt>
      <trkpt lat="38.876667" lon="-5.876250">
        <ele>696.0</ele>
        <time>2019-05-04T14:53:17Z</time>
      </trkpt>
      <trkpt lat="38.876600" lon="-5.876267">
        <ele>695.0</ele>
        <time>2019-05-04T14:53:18Z</time>
      </trkpt>
      <trkpt lat="38.876533" lon="-5.876250">
        <ele>694.0</ele>
        <time>2019-05-04T14:53:19Z</time>
      </trkpt>
      <trkpt lat="38.876450" lon="-5.876217">
        <ele>693.0</ele>
        <time>2019-05-04T14:53:20Z</time>
      </trkpt>
      <trkpt lat="38.876367" lon="-5.876150">
        <ele>693.0</ele>
        <time>2019-05-04T14:53:21Z</time>
      </trkpt>
      <trkpt lat="38.876317" lon="-5.876050">
        <ele>693.0</ele>
        <time>2019-05-04T14:53:22Z</time>
      </trkpt>
      <trkpt lat="38.876300" lon="-5.875917">
        <ele>693.0</ele>
        <time>2019-05-04T14:53:23Z</time>
      </trkpt>
      <trkpt lat="38.876283" lon="-5.875783">
        <ele>694.0</ele>
        <time>2019-05-04T14:53:24Z</time>
      </trkpt>
      <trkpt lat="38.876317" lon="-5.875650">
        <ele>694.0</ele>
        <time>2019-05-04T14:53:25Z</time>
      </trkpt>
      <trkpt lat="38.876350" lon="-5.875533">
        <ele>696.0</ele>
        <time>2019-05-04T14:53:26Z</time>
      </trkpt>
      <trkpt lat="38.876400" lon="-5.875433">
        <ele>697.0</ele>
        <time>2019-05-04T14:53:27Z</time>
      </trkpt>
      <trkpt lat="38.876450" lon="-5.875350">
        <ele>698.0</ele>
        <time>2019-05-04T14:53:28Z</time>
      </trkpt>
      <trkpt lat="38.876500" lon="-5.875283">
        <ele>698.0</ele>
        <time>2019-05-04T14:53:29Z</time>
      </trkpt>
      <trkpt lat="38.876567" lon="-5.875217">
        <ele>698.0</ele>
        <time>2019-05-04T14:53:30Z</time>
      </trkpt>
      <trkpt lat="38.876633" lon="-5.875167">
        <ele>697.0</ele>
        <time>2019-05-04T14:53:31Z</time>
      </trkpt>
      <trkpt lat="38.876717" lon="-5.875117">
        <ele>697.0</ele>
        <time>2019-05-04T14:53:32Z</time>
      </trkpt>
      <trkpt lat="38.876783" lon="-5.875083">
        <ele>697.0</ele>
        <time>2019-05-04T14:53:33Z</time>
      </trkpt>
      <trkpt lat="38.876850" lon="-5.875067">
        <ele>698.0</ele>
        <time>2019-05-04T14:53:34Z</time>
      </trkpt>
      <trkpt lat="38.876917" lon="-5.875033">
        <ele>699.0</ele>
        <time>2019-05-04T14:53:35Z</time>
      </trkpt>
      <trkpt lat="38.876983" lon="-5.875017">
        <ele>699.0</ele>
        <time>2019-05-04T14:53:36Z</time>
      </trkpt>
      <trkpt lat="38.877033" lon="-5.875017">
        <ele>699.0</ele>
        <time>2019-05-04T14:53:37Z</time>
      </trkpt>
      <trkpt lat="38.877083" lon="-5.875033">
        <ele>698.0</ele>
        <time>2019-05-04T14:53:38Z</time>
      </trkpt>
      <trkpt lat="38.877117" lon="-5.875083">
        <ele>697.0</ele>
        <time>2019-05-04T14:53:39Z</time>
      </trkpt>
      <trkpt lat="38.877117" lon="-5.875133">
        <ele>695.0</ele>
        <time>2019-05-04T14:53:40Z</time>
      </trkpt>
      <trkpt lat="38.877100" lon="-5.875183">
        <ele>694.0</ele>
        <time>2019-05-04T14:53:41Z</time>
      </trkpt>
      <trkpt lat="38.877050" lon="-5.875217">
        <ele>693.0</ele>
        <time>2019-05-04T14:53:42Z</time>
      </trkpt>
      <trkpt lat="38.876983" lon="-5.875233">
        <ele>692.0</ele>
        <time>2019-05-04T14:53:43Z</time>
      </trkpt>
      <trkpt lat="38.876900" lon="-5.875217">
        <ele>692.0</ele>
        <time>2019-05-04T14:53:44Z</time>
      </trkpt>
      <trkpt lat="38.876817" lon="-5.875183">
        <ele>691.0</ele>
        <time>2019-05-04T14:53:45Z</time>
      </trkpt>
      <trkpt lat="38.876733" lon="-5.875100">
        <ele>691.0</ele>
        <time>2019-05-04T14:53:46Z</time>
      </trkpt>
      <trkpt lat="38.876667" lon="-5.875000">
        <ele>690.0</ele>
        <time>2019-05-04T14:53:47Z</time>
      </trkpt>
      <trkpt lat="38.876600" lon="-5.874883">
        <ele>689.0</ele>
        <time>2019-05-04T14:53:48Z</time>
      </trkpt>
      <trkpt lat="38.876550" lon="-5.874767">
        <ele>688.0</ele>
        <time>2019-05-04T14:53:49Z</time>
      </trkpt>
      <trkpt lat="38.876500" lon="-5.874633">
        <ele>687.0</ele>
        <time>2019-05-04T14:53:50Z</time>
      </trkpt>
      <trkpt lat="38.876483" lon="-5.874467">
        <ele>686.0</ele>
        <time>2019-05-04T14:53:51Z</time>
      </trkpt>
      <trkpt lat="38.876483" lon="-5.874317">
        <ele>685.0</ele>
        <time>2019-05-04T14:53:52Z</time>
      </trkpt>
      <trkpt lat="38.876500" lon="-5.874183">
        <ele>685.0</ele>
        <time>2019-05-04T14:53:53Z</time>
      </trkpt>
      <trkpt lat="38.876533" lon="-5.874083">
        <ele>685.0</ele>
        <time>2019-05-04T14:53:54Z</time>
      </trkpt>
      <trkpt lat="38.876550" lon="-5.873983">
        <ele>685.0</ele>
        <time>2019-05-04T14:53:55Z</time>
      </trkpt>
      <trkpt lat="38.876583" lon="-5.873883">
        <ele>686.0</ele>
        <time>2019-05-04T14:53:56Z</time>
      </trkpt>
      <trkpt lat="38.876617" lon="-5.873767">
        <ele>685.0</ele>
        <time>2019-05-04T14:53:57Z</time>
      </trkpt>
      <trkpt lat="38.876650" lon="-5.873650">
        <ele>685.0</ele>
        <time>2019-05-04T14:53:58Z</time>
      </trkpt>
      <trkpt lat="38.876700" lon="-5.873533">
        <ele>683.0</ele>
        <time>2019-05-04T14:53:59Z</time>
      </trkpt>
      <trkpt lat="38.876750" lon="-5.873417">
        <ele>682.0</ele>
        <time>2019-05-04T14:54:00Z</time>
      </trkpt>
      <trkpt lat="38.876783" lon="-5.873317">
        <ele>680.0</ele>
        <time>2019-05-04T14:54:01Z</time>
      </trkpt>
      <trkpt lat="38.876833" lon="-5.873217">
        <ele>679.0</ele>
        <time>2019-05-04T14:54:02Z</time>
      </trkpt>
      <trkpt lat="38.876900" lon="-5.873117">
        <ele>677.0</ele>
        <time>2019-05-04T14:54:03Z</time>
      </trkpt>
      <trkpt lat="38.876967" lon="-5.873017">
        <ele>676.0</ele>
        <time>2019-05-04T14:54:04Z</time>
      </trkpt>
      <trkpt lat="38.877033" lon="-5.872950">
        <ele>675.0</ele>
        <time>2019-05-04T14:54:05Z</time>
      </trkpt>
      <trkpt lat="38.877083" lon="-5.872883">
        <ele>674.0</ele>
        <time>2019-05-04T14:54:06Z</time>
      </trkpt>
      <trkpt lat="38.877133" lon="-5.872833">
        <ele>674.0</ele>
        <time>2019-05-04T14:54:07Z</time>
      </trkpt>
      <trkpt lat="38.877183" lon="-5.872783">
        <ele>673.0</ele>
        <time>2019-05-04T14:54:08Z</time>
      </trkpt>
      <trkpt lat="38.877233" lon="-5.872733">
        <ele>672.0</ele>
        <time>2019-05-04T14:54:09Z</time>
      </trkpt>
      <trkpt lat="38.877300" lon="-5.872667">
        <ele>670.0</ele>
        <time>2019-05-04T14:54:10Z</time>
      </trkpt>
      <trkpt lat="38.877367" lon="-5.872583">
        <ele>669.0</ele>
        <time>2019-05-04T14:54:11Z</time>
      </trkpt>
      <trkpt lat="38.877433" lon="-5.872517">
        <ele>668.0</ele>
        <time>2019-05-04T14:54:12Z</time>
      </trkpt>
      <trkpt lat="38.877500" lon="-5.872467">
        <ele>668.0</ele>
        <time>2019-05-04T14:54:13Z</time>
      </trkpt>
      <trkpt lat="38.877550" lon="-5.872417">
        <ele>667.0</ele>
        <time>2019-05-04T14:54:14Z</time>
      </trkpt>
      <trkpt lat="38.877617" lon="-5.872350">
        <ele>666.0</ele>
        <time>2019-05-04T14:54:15Z</time>
      </trkpt>
      <trkpt lat="38.877683" lon="-5.872250">
        <ele>665.0</ele>
        <time>2019-05-04T14:54:16Z</time>
      </trkpt>
      <trkpt lat="38.877733" lon="-5.872150">
        <ele>664.0</ele>
        <time>2019-05-04T14:54:17Z</time>
      </trkpt>
      <trkpt lat="38.877800" lon="-5.872050">
        <ele>663.0</ele>
        <time>2019-05-04T14:54:18Z</time>
      </trkpt>
      <trkpt lat="38.877850" lon="-5.871950">
        <ele>663.0</ele>
        <time>2019-05-04T14:54:19Z</time>
      </trkpt>
      <trkpt lat="38.877900" lon="-5.871850">
        <ele>663.0</ele>
        <time>2019-05-04T14:54:20Z</time>
      </trkpt>
      <trkpt lat="38.877950" lon="-5.871733">
        <ele>662.0</ele>
        <time>2019-05-04T14:54:21Z</time>
      </trkpt>
      <trkpt lat="38.878000" lon="-5.871617">
        <ele>661.0</ele>
        <time>2019-05-04T14:54:22Z</time>
      </trkpt>
      <trkpt lat="38.878050" lon="-5.871483">
        <ele>660.0</ele>
        <time>2019-05-04T14:54:23Z</time>
      </trkpt>
      <trkpt lat="38.878100" lon="-5.871350">
        <ele>659.0</ele>
        <time>2019-05-04T14:54:24Z</time>
      </trkpt>
      <trkpt lat="38.878167" lon="-5.871233">
        <ele>659.0</ele>
        <time>2019-05-04T14:54:25Z</time>
      </trkpt>
      <trkpt lat="38.878217" lon="-5.871117">
        <ele>658.0</ele>
        <time>2019-05-04T14:54:26Z</time>
      </trkpt>
      <trkpt lat="38.878267" lon="-5.871017">
        <ele>658.0</ele>
        <time>2019-05-04T14:54:27Z</time>
      </trkpt>
      <trkpt lat="38.878283" lon="-5.870917">
        <ele>659.0</ele>
        <time>2019-05-04T14:54:28Z</time>
      </trkpt>
      <trkpt lat="38.878317" lon="-5.870817">
        <ele>659.0</ele>
        <time>2019-05-04T14:54:29Z</time>
      </trkpt>
      <trkpt lat="38.878333" lon="-5.870717">
        <ele>658.0</ele>
        <time>2019-05-04T14:54:30Z</time>
      </trkpt>
      <trkpt lat="38.878367" lon="-5.870583">
        <ele>657.0</ele>
        <time>2019-05-04T14:54:31Z</time>
      </trkpt>
      <trkpt lat="38.878400" lon="-5.870450">
        <ele>656.0</ele>
        <time>2019-05-04T14:54:32Z</time>
      </trkpt>
      <trkpt lat="38.878417" lon="-5.870333">
        <ele>655.0</ele>
        <time>2019-05-04T14:54:33Z</time>
      </trkpt>
      <trkpt lat="38.878433" lon="-5.870233">
        <ele>656.0</ele>
        <time>2019-05-04T14:54:34Z</time>
      </trkpt>
      <trkpt lat="38.878450" lon="-5.870133">
        <ele>657.0</ele>
        <time>2019-05-04T14:54:35Z</time>
      </trkpt>
      <trkpt lat="38.878450" lon="-5.870050">
        <ele>657.0</ele>
        <time>2019-05-04T14:54:36Z</time>
      </trkpt>
      <trkpt lat="38.878483" lon="-5.869933">
        <ele>656.0</ele>
        <time>2019-05-04T14:54:37Z</time>
      </trkpt>
      <trkpt lat="38.878517" lon="-5.869817">
        <ele>654.0</ele>
        <time>2019-05-04T14:54:38Z</time>
      </trkpt>
      <trkpt lat="38.878550" lon="-5.869700">
        <ele>653.0</ele>
        <time>2019-05-04T14:54:39Z</time>
      </trkpt>
      <trkpt lat="38.878583" lon="-5.869600">
        <ele>651.0</ele>
        <time>2019-05-04T14:54:40Z</time>
      </trkpt>
      <trkpt lat="38.878617" lon="-5.869500">
        <ele>648.0</ele>
        <time>2019-05-04T14:54:41Z</time>
      </trkpt>
      <trkpt lat="38.878650" lon="-5.869383">
        <ele>645.0</ele>
        <time>2019-05-04T14:54:42Z</time>
      </trkpt>
      <trkpt lat="38.878683" lon="-5.869283">
        <ele>643.0</ele>
        <time>2019-05-04T14:54:43Z</time>
      </trkpt>
      <trkpt lat="38.878733" lon="-5.869200">
        <ele>642.0</ele>
        <time>2019-05-04T14:54:44Z</time>
      </trkpt>
      <trkpt lat="38.878767" lon="-5.869117">
        <ele>640.0</ele>
        <time>2019-05-04T14:54:45Z</time>
      </trkpt>
      <trkpt lat="38.878800" lon="-5.869017">
        <ele>638.0</ele>
        <time>2019-05-04T14:54:46Z</time>
      </trkpt>
      <trkpt lat="38.878833" lon="-5.868933">
        <ele>636.0</ele>
        <time>2019-05-04T14:54:47Z</time>
      </trkpt>
      <trkpt lat="38.878883" lon="-5.868850">
        <ele>633.0</ele>
        <time>2019-05-04T14:54:48Z</time>
      </trkpt>
      <trkpt lat="38.878933" lon="-5.868750">
        <ele>630.0</ele>
        <time>2019-05-04T14:54:49Z</time>
      </trkpt>
      <trkpt lat="38.878983" lon="-5.868667">
        <ele>628.0</ele>
        <time>2019-05-04T14:54:50Z</time>
      </trkpt>
      <trkpt lat="38.879033" lon="-5.868583">
        <ele>626.0</ele>
        <time>2019-05-04T14:54:51Z</time>
      </trkpt>
      <trkpt lat="38.879067" lon="-5.868500">
        <ele>624.0</ele>
        <time>2019-05-04T14:54:52Z</time>
      </trkpt>
      <trkpt lat="38.879117" lon="-5.868417">
        <ele>622.0</ele>
        <time>2019-05-04T14:54:53Z</time>
      </trkpt>
      <trkpt lat="38.879167" lon="-5.868333">
        <ele>620.0</ele>
        <time>2019-05-04T14:54:54Z</time>
      </trkpt>
      <trkpt lat="38.879200" lon="-5.868250">
        <ele>618.0</ele>
        <time>2019-05-04T14:54:55Z</time>
      </trkpt>
      <trkpt lat="38.879250" lon="-5.868167">
        <ele>616.0</ele>
        <time>2019-05-04T14:54:56Z</time>
      </trkpt>
      <trkpt lat="38.879283" lon="-5.868100">
        <ele>614.0</ele>
        <time>2019-05-04T14:54:57Z</time>
      </trkpt>
      <trkpt lat="38.879317" lon="-5.868017">
        <ele>613.0</ele>
        <time>2019-05-04T14:54:58Z</time>
      </trkpt>
      <trkpt lat="38.879367" lon="-5.867950">
        <ele>611.0</ele>
        <time>2019-05-04T14:54:59Z</time>
      </trkpt>
      <trkpt lat="38.879400" lon="-5.867867">
        <ele>610.0</ele>
        <time>2019-05-04T14:55:00Z</time>
      </trkpt>
      <trkpt lat="38.879433" lon="-5.867800">
        <ele>608.0</ele>
        <time>2019-05-04T14:55:01Z</time>
      </trkpt>
      <trkpt lat="38.879467" lon="-5.867717">
        <ele>606.0</ele>
        <time>2019-05-04T14:55:02Z</time>
      </trkpt>
      <trkpt lat="38.879517" lon="-5.867633">
        <ele>604.0</ele>
        <time>2019-05-04T14:55:03Z</time>
      </trkpt>
      <trkpt lat="38.879550" lon="-5.867550">
        <ele>603.0</ele>
        <time>2019-05-04T14:55:04Z</time>
      </trkpt>
      <trkpt lat="38.879583" lon="-5.867483">
        <ele>602.0</ele>
        <time>2019-05-04T14:55:05Z</time>
      </trkpt>
      <trkpt lat="38.879617" lon="-5.867400">
        <ele>601.0</ele>
        <time>2019-05-04T14:55:06Z</time>
      </trkpt>
      <trkpt lat="38.879667" lon="-5.867317">
        <ele>600.0</ele>
        <time>2019-05-04T14:55:07Z</time>
      </trkpt>
      <trkpt lat="38.879700" lon="-5.867233">
        <ele>599.0</ele>
        <time>2019-05-04T14:55:08Z</time>
      </trkpt>
      <trkpt lat="38.879750" lon="-5.867133">
        <ele>597.0</ele>
        <time>2019-05-04T14:55:09Z</time>
      </trkpt>
      <trkpt lat="38.879783" lon="-5.867050">
        <ele>598.0</ele>
        <time>2019-05-04T14:55:10Z</time>
      </trkpt>
      <trkpt lat="38.879817" lon="-5.866967">
        <ele>598.0</ele>
        <time>2019-05-04T14:55:11Z</time>
      </trkpt>
      <trkpt lat="38.879833" lon="-5.866883">
        <ele>598.0</ele>
        <time>2019-05-04T14:55:12Z</time>
      </trkpt>
      <trkpt lat="38.879883" lon="-5.866800">
        <ele>597.0</ele>
        <time>2019-05-04T14:55:13Z</time>
      </trkpt>
      <trkpt lat="38.879917" lon="-5.866700">
        <ele>596.0</ele>
        <time>2019-05-04T14:55:14Z</time>
      </trkpt>
      <trkpt lat="38.879950" lon="-5.866617">
        <ele>595.0</ele>
        <time>2019-05-04T14:55:15Z</time>
      </trkpt>
      <trkpt lat="38.880000" lon="-5.866533">
        <ele>594.0</ele>
        <time>2019-05-04T14:55:16Z</time>
      </trkpt>
      <trkpt lat="38.880033" lon="-5.866433">
        <ele>593.0</ele>
        <time>2019-05-04T14:55:17Z</time>
      </trkpt>
      <trkpt lat="38.880083" lon="-5.866333">
        <ele>591.0</ele>
        <time>2019-05-04T14:55:18Z</time>
      </trkpt>
      <trkpt lat="38.880117" lon="-5.866233">
        <ele>590.0</ele>
        <time>2019-05-04T14:55:19Z</time>
      </trkpt>
      <trkpt lat="38.880150" lon="-5.866117">
        <ele>589.0</ele>
        <time>2019-05-04T14:55:20Z</time>
      </trkpt>
      <trkpt lat="38.880183" lon="-5.866017">
        <ele>588.0</ele>
        <time>2019-05-04T14:55:21Z</time>
      </trkpt>
      <trkpt lat="38.880217" lon="-5.865917">
        <ele>586.0</ele>
        <time>2019-05-04T14:55:22Z</time>
      </trkpt>
      <trkpt lat="38.880250" lon="-5.865817">
        <ele>584.0</ele>
        <time>2019-05-04T14:55:23Z</time>
      </trkpt>
      <trkpt lat="38.880300" lon="-5.865733">
        <ele>582.0</ele>
        <time>2019-05-04T14:55:24Z</time>
      </trkpt>
      <trkpt lat="38.880367" lon="-5.865650">
        <ele>579.0</ele>
        <time>2019-05-04T14:55:25Z</time>
      </trkpt>
      <trkpt lat="38.880417" lon="-5.865550">
        <ele>576.0</ele>
        <time>2019-05-04T14:55:26Z</time>
      </trkpt>
      <trkpt lat="38.880450" lon="-5.865467">
        <ele>574.0</ele>
        <time>2019-05-04T14:55:27Z</time>
      </trkpt>
      <trkpt lat="38.880467" lon="-5.865383">
        <ele>572.0</ele>
        <time>2019-05-04T14:55:28Z</time>
      </trkpt>
      <trkpt lat="38.880500" lon="-5.865283">
        <ele>569.0</ele>
        <time>2019-05-04T14:55:29Z</time>
      </trkpt>
      <trkpt lat="38.880550" lon="-5.865183">
        <ele>567.0</ele>
        <time>2019-05-04T14:55:30Z</time>
      </trkpt>
      <trkpt lat="38.880600" lon="-5.865083">
        <ele>564.0</ele>
        <time>2019-05-04T14:55:31Z</time>
      </trkpt>
      <trkpt lat="38.880650" lon="-5.864983">
        <ele>561.0</ele>
        <time>2019-05-04T14:55:32Z</time>
      </trkpt>
      <trkpt lat="38.880700" lon="-5.864900">
        <ele>559.0</ele>
        <time>2019-05-04T14:55:33Z</time>
      </trkpt>
      <trkpt lat="38.880750" lon="-5.864817">
        <ele>557.0</ele>
        <time>2019-05-04T14:55:34Z</time>
      </trkpt>
      <trkpt lat="38.880783" lon="-5.864733">
        <ele>555.0</ele>
        <time>2019-05-04T14:55:35Z</time>
      </trkpt>
      <trkpt lat="38.880833" lon="-5.864633">
        <ele>553.0</ele>
        <time>2019-05-04T14:55:36Z</time>
      </trkpt>
      <trkpt lat="38.880867" lon="-5.864550">
        <ele>551.0</ele>
        <time>2019-05-04T14:55:37Z</time>
      </trkpt>
      <trkpt lat="38.880917" lon="-5.864450">
        <ele>549.0</ele>
        <time>2019-05-04T14:55:38Z</time>
      </trkpt>
      <trkpt lat="38.880950" lon="-5.864350">
        <ele>546.0</ele>
        <time>2019-05-04T14:55:39Z</time>
      </trkpt>
      <trkpt lat="38.881000" lon="-5.864250">
        <ele>544.0</ele>
        <time>2019-05-04T14:55:40Z</time>
      </trkpt>
      <trkpt lat="38.881050" lon="-5.864150">
        <ele>542.0</ele>
        <time>2019-05-04T14:55:41Z</time>
      </trkpt>
      <trkpt lat="38.881100" lon="-5.864033">
        <ele>540.0</ele>
        <time>2019-05-04T14:55:42Z</time>
      </trkpt>
      <trkpt lat="38.881133" lon="-5.863933">
        <ele>538.0</ele>
        <time>2019-05-04T14:55:43Z</time>
      </trkpt>
      <trkpt lat="38.881167" lon="-5.863833">
        <ele>536.0</ele>
        <time>2019-05-04T14:55:44Z</time>
      </trkpt>
      <trkpt lat="38.881217" lon="-5.863717">
        <ele>533.0</ele>
        <time>2019-05-04T14:55:45Z</time>
      </trkpt>
      <trkpt lat="38.881283" lon="-5.863600">
        <ele>531.0</ele>
        <time>2019-05-04T14:55:46Z</time>
      </trkpt>
      <trkpt lat="38.881333" lon="-5.863500">
        <ele>529.0</ele>
        <time>2019-05-04T14:55:47Z</time>
      </trkpt>
      <trkpt lat="38.881383" lon="-5.863400">
        <ele>527.0</ele>
        <time>2019-05-04T14:55:48Z</time>
      </trkpt>
      <trkpt lat="38.881417" lon="-5.863300">
        <ele>525.0</ele>
        <time>2019-05-04T14:55:49Z</time>
      </trkpt>
      <trkpt lat="38.881450" lon="-5.863200">
        <ele>523.0</ele>
        <time>2019-05-04T14:55:50Z</time>
      </trkpt>
      <trkpt lat="38.881500" lon="-5.863083">
        <ele>520.0</ele>
        <time>2019-05-04T14:55:51Z</time>
      </trkpt>
      <trkpt lat="38.881533" lon="-5.862983">
        <ele>518.0</ele>
        <time>2019-05-04T14:55:52Z</time>
      </trkpt>
      <trkpt lat="38.881583" lon="-5.862867">
        <ele>516.0</ele>
        <time>2019-05-04T14:55:53Z</time>
      </trkpt>
      <trkpt lat="38.881617" lon="-5.862767">
        <ele>514.0</ele>
        <time>2019-05-04T14:55:54Z</time>
      </trkpt>
      <trkpt lat="38.881667" lon="-5.862650">
        <ele>511.0</ele>
        <time>2019-05-04T14:55:55Z</time>
      </trkpt>
      <trkpt lat="38.881700" lon="-5.862533">
        <ele>509.0</ele>
        <time>2019-05-04T14:55:56Z</time>
      </trkpt>
      <trkpt lat="38.881750" lon="-5.862400">
        <ele>506.0</ele>
        <time>2019-05-04T14:55:57Z</time>
      </trkpt>
      <trkpt lat="38.881800" lon="-5.862300">
        <ele>506.0</ele>
        <time>2019-05-04T14:55:58Z</time>
      </trkpt>
      <trkpt lat="38.881850" lon="-5.862200">
        <ele>506.0</ele>
        <time>2019-05-04T14:55:59Z</time>
      </trkpt>
      <trkpt lat="38.881883" lon="-5.862117">
        <ele>504.0</ele>
        <time>2019-05-04T14:56:00Z</time>
      </trkpt>
      <trkpt lat="38.881933" lon="-5.862017">
        <ele>502.0</ele>
        <time>2019-05-04T14:56:01Z</time>
      </trkpt>
      <trkpt lat="38.881983" lon="-5.861900">
        <ele>500.0</ele>
        <time>2019-05-04T14:56:02Z</time>
      </trkpt>
      <trkpt lat="38.882033" lon="-5.861783">
        <ele>498.0</ele>
        <time>2019-05-04T14:56:03Z</time>
      </trkpt>
      <trkpt lat="38.882083" lon="-5.861667">
        <ele>495.0</ele>
        <time>2019-05-04T14:56:04Z</time>
      </trkpt>
      <trkpt lat="38.882133" lon="-5.861550">
        <ele>493.0</ele>
        <time>2019-05-04T14:56:05Z</time>
      </trkpt>
      <trkpt lat="38.882183" lon="-5.861450">
        <ele>492.0</ele>
        <time>2019-05-04T14:56:06Z</time>
      </trkpt>
      <trkpt lat="38.882217" lon="-5.861333">
        <ele>490.0</ele>
        <time>2019-05-04T14:56:07Z</time>
      </trkpt>
      <trkpt lat="38.882250" lon="-5.861217">
        <ele>488.0</ele>
        <time>2019-05-04T14:56:08Z</time>
      </trkpt>
      <trkpt lat="38.882300" lon="-5.861083">
        <ele>486.0</ele>
        <time>2019-05-04T14:56:09Z</time>
      </trkpt>
      <trkpt lat="38.882333" lon="-5.860950">
        <ele>484.0</ele>
        <time>2019-05-04T14:56:10Z</time>
      </trkpt>
      <trkpt lat="38.882383" lon="-5.860833">
        <ele>482.0</ele>
        <time>2019-05-04T14:56:11Z</time>
      </trkpt>
      <trkpt lat="38.882433" lon="-5.860717">
        <ele>481.0</ele>
        <time>2019-05-04T14:56:12Z</time>
      </trkpt>
      <trkpt lat="38.882467" lon="-5.860617">
        <ele>481.0</ele>
        <time>2019-05-04T14:56:13Z</time>
      </trkpt>
      <trkpt lat="38.882517" lon="-5.860533">
        <ele>480.0</ele>
        <time>2019-05-04T14:56:14Z</time>
      </trkpt>
      <trkpt lat="38.882550" lon="-5.860433">
        <ele>479.0</ele>
        <time>2019-05-04T14:56:15Z</time>
      </trkpt>
      <trkpt lat="38.882600" lon="-5.860333">
        <ele>478.0</ele>
        <time>2019-05-04T14:56:16Z</time>
      </trkpt>
      <trkpt lat="38.882650" lon="-5.860233">
        <ele>477.0</ele>
        <time>2019-05-04T14:56:17Z</time>
      </trkpt>
      <trkpt lat="38.882700" lon="-5.860133">
        <ele>475.0</ele>
        <time>2019-05-04T14:56:18Z</time>
      </trkpt>
      <trkpt lat="38.882750" lon="-5.860033">
        <ele>474.0</ele>
        <time>2019-05-04T14:56:19Z</time>
      </trkpt>
      <trkpt lat="38.882800" lon="-5.859917">
        <ele>475.0</ele>
        <time>2019-05-04T14:56:20Z</time>
      </trkpt>
      <trkpt lat="38.882850" lon="-5.859833">
        <ele>477.0</ele>
        <time>2019-05-04T14:56:21Z</time>
      </trkpt>
      <trkpt lat="38.882883" lon="-5.859733">
        <ele>478.0</ele>
        <time>2019-05-04T14:56:22Z</time>
      </trkpt>
      <trkpt lat="38.882933" lon="-5.859650">
        <ele>477.0</ele>
        <time>2019-05-04T14:56:23Z</time>
      </trkpt>
      <trkpt lat="38.882967" lon="-5.859567">
        <ele>476.0</ele>
        <time>2019-05-04T14:56:24Z</time>
      </trkpt>
      <trkpt lat="38.883000" lon="-5.859467">
        <ele>475.0</ele>
        <time>2019-05-04T14:56:25Z</time>
      </trkpt>
      <trkpt lat="38.883050" lon="-5.859350">
        <ele>474.0</ele>
        <time>2019-05-04T14:56:26Z</time>
      </trkpt>
      <trkpt lat="38.883083" lon="-5.859233">
        <ele>473.0</ele>
        <time>2019-05-04T14:56:27Z</time>
      </trkpt>
      <trkpt lat="38.883100" lon="-5.859117">
        <ele>472.0</ele>
        <time>2019-05-04T14:56:28Z</time>
      </trkpt>
      <trkpt lat="38.883133" lon="-5.859000">
        <ele>471.0</ele>
        <time>2019-05-04T14:56:29Z</time>
      </trkpt>
      <trkpt lat="38.883150" lon="-5.858883">
        <ele>470.0</ele>
        <time>2019-05-04T14:56:30Z</time>
      </trkpt>
      <trkpt lat="38.883183" lon="-5.858767">
        <ele>468.0</ele>
        <time>2019-05-04T14:56:31Z</time>
      </trkpt>
      <trkpt lat="38.883200" lon="-5.858650">
        <ele>466.0</ele>
        <time>2019-05-04T14:56:32Z</time>
      </trkpt>
      <trkpt lat="38.883233" lon="-5.858517">
        <ele>464.0</ele>
        <time>2019-05-04T14:56:33Z</time>
      </trkpt>
      <trkpt lat="38.883267" lon="-5.858383">
        <ele>462.0</ele>
        <time>2019-05-04T14:56:34Z</time>
      </trkpt>
      <trkpt lat="38.883283" lon="-5.858250">
        <ele>462.0</ele>
        <time>2019-05-04T14:56:35Z</time>
      </trkpt>
      <trkpt lat="38.883283" lon="-5.858117">
        <ele>461.0</ele>
        <time>2019-05-04T14:56:36Z</time>
      </trkpt>
      <trkpt lat="38.883283" lon="-5.857983">
        <ele>460.0</ele>
        <time>2019-05-04T14:56:37Z</time>
      </trkpt>
      <trkpt lat="38.883267" lon="-5.857850">
        <ele>458.0</ele>
        <time>2019-05-04T14:56:38Z</time>
      </trkpt>
      <trkpt lat="38.883267" lon="-5.857700">
        <ele>457.0</ele>
        <time>2019-05-04T14:56:39Z</time>
      </trkpt>
      <trkpt lat="38.883233" lon="-5.857550">
        <ele>455.0</ele>
        <time>2019-05-04T14:56:40Z</time>
      </trkpt>
      <trkpt lat="38.883200" lon="-5.857433">
        <ele>454.0</ele>
        <time>2019-05-04T14:56:41Z</time>
      </trkpt>
      <trkpt lat="38.883167" lon="-5.857300">
        <ele>452.0</ele>
        <time>2019-05-04T14:56:42Z</time>
      </trkpt>
      <trkpt lat="38.883133" lon="-5.857167">
        <ele>452.0</ele>
        <time>2019-05-04T14:56:43Z</time>
      </trkpt>
      <trkpt lat="38.883083" lon="-5.857050">
        <ele>452.0</ele>
        <time>2019-05-04T14:56:44Z</time>
      </trkpt>
      <trkpt lat="38.883050" lon="-5.856933">
        <ele>452.0</ele>
        <time>2019-05-04T14:56:45Z</time>
      </trkpt>
      <trkpt lat="38.883017" lon="-5.856817">
        <ele>452.0</ele>
        <time>2019-05-04T14:56:46Z</time>
      </trkpt>
      <trkpt lat="38.882983" lon="-5.856717">
        <ele>452.0</ele>
        <time>2019-05-04T14:56:47Z</time>
      </trkpt>
      <trkpt lat="38.882950" lon="-5.856617">
        <ele>452.0</ele>
        <time>2019-05-04T14:56:48Z</time>
      </trkpt>
      <trkpt lat="38.882917" lon="-5.856500">
        <ele>452.0</ele>
        <time>2019-05-04T14:56:49Z</time>
      </trkpt>
      <trkpt lat="38.882900" lon="-5.856383">
        <ele>452.0</ele>
        <time>2019-05-04T14:56:50Z</time>
      </trkpt>
      <trkpt lat="38.882867" lon="-5.856283">
        <ele>452.0</ele>
        <time>2019-05-04T14:56:51Z</time>
      </trkpt>
      <trkpt lat="38.882850" lon="-5.856167">
        <ele>453.0</ele>
        <time>2019-05-04T14:56:52Z</time>
      </trkpt>
      <trkpt lat="38.882817" lon="-5.856083">
        <ele>454.0</ele>
        <time>2019-05-04T14:56:53Z</time>
      </trkpt>
      <trkpt lat="38.882783" lon="-5.855983">
        <ele>454.0</ele>
        <time>2019-05-04T14:56:54Z</time>
      </trkpt>
      <trkpt lat="38.882767" lon="-5.855867">
        <ele>455.0</ele>
        <time>2019-05-04T14:56:55Z</time>
      </trkpt>
      <trkpt lat="38.882750" lon="-5.855750">
        <ele>455.0</ele>
        <time>2019-05-04T14:56:56Z</time>
      </trkpt>
      <trkpt lat="38.882700" lon="-5.855650">
        <ele>456.0</ele>
        <time>2019-05-04T14:56:57Z</time>
      </trkpt>
      <trkpt lat="38.882650" lon="-5.855550">
        <ele>458.0</ele>
        <time>2019-05-04T14:56:58Z</time>
      </trkpt>
      <trkpt lat="38.882600" lon="-5.855467">
        <ele>460.0</ele>
        <time>2019-05-04T14:56:59Z</time>
      </trkpt>
      <trkpt lat="38.882567" lon="-5.855383">
        <ele>462.0</ele>
        <time>2019-05-04T14:57:00Z</time>
      </trkpt>
      <trkpt lat="38.882550" lon="-5.855283">
        <ele>463.0</ele>
        <time>2019-05-04T14:57:01Z</time>
      </trkpt>
      <trkpt lat="38.882550" lon="-5.855183">
        <ele>464.0</ele>
        <time>2019-05-04T14:57:02Z</time>
      </trkpt>
      <trkpt lat="38.882583" lon="-5.855100">
        <ele>465.0</ele>
        <time>2019-05-04T14:57:03Z</time>
      </trkpt>
      <trkpt lat="38.882650" lon="-5.855050">
        <ele>465.0</ele>
        <time>2019-05-04T14:57:04Z</time>
      </trkpt>
      <trkpt lat="38.882717" lon="-5.855050">
        <ele>466.0</ele>
        <time>2019-05-04T14:57:05Z</time>
      </trkpt>
      <trkpt lat="38.882767" lon="-5.855083">
        <ele>466.0</ele>
        <time>2019-05-04T14:57:06Z</time>
      </trkpt>
      <trkpt lat="38.882817" lon="-5.855150">
        <ele>467.0</ele>
        <time>2019-05-04T14:57:07Z</time>
      </trkpt>
      <trkpt lat="38.882850" lon="-5.855233">
        <ele>468.0</ele>
        <time>2019-05-04T14:57:08Z</time>
      </trkpt>
      <trkpt lat="38.882833" lon="-5.855317">
        <ele>470.0</ele>
        <time>2019-05-04T14:57:09Z</time>
      </trkpt>
      <trkpt lat="38.882833" lon="-5.855383">
        <ele>473.0</ele>
        <time>2019-05-04T14:57:10Z</time>
      </trkpt>
      <trkpt lat="38.882817" lon="-5.855450">
        <ele>475.0</ele>
        <time>2019-05-04T14:57:11Z</time>
      </trkpt>
      <trkpt lat="38.882800" lon="-5.855533">
        <ele>478.0</ele>
        <time>2019-05-04T14:57:12Z</time>
      </trkpt>
      <trkpt lat="38.882767" lon="-5.855600">
        <ele>479.0</ele>
        <time>2019-05-04T14:57:13Z</time>
      </trkpt>
      <trkpt lat="38.882717" lon="-5.855650">
        <ele>481.0</ele>
        <time>2019-05-04T14:57:14Z</time>
      </trkpt>
      <trkpt lat="38.882667" lon="-5.855700">
        <ele>483.0</ele>
        <time>2019-05-04T14:57:15Z</time>
      </trkpt>
      <trkpt lat="38.882583" lon="-5.855700">
        <ele>483.0</ele>
        <time>2019-05-04T14:57:16Z</time>
      </trkpt>
      <trkpt lat="38.882517" lon="-5.855667">
        <ele>483.0</ele>
        <time>2019-05-04T14:57:17Z</time>
      </trkpt>
      <trkpt lat="38.882433" lon="-5.855600">
        <ele>482.0</ele>
        <time>2019-05-04T14:57:18Z</time>
      </trkpt>
      <trkpt lat="38.882367" lon="-5.855500">
        <ele>483.0</ele>
        <time>2019-05-04T14:57:19Z</time>
      </trkpt>
      <trkpt lat="38.882350" lon="-5.855383">
        <ele>483.0</ele>
        <time>2019-05-04T14:57:20Z</time>
      </trkpt>
      <trkpt lat="38.882367" lon="-5.855267">
        <ele>485.0</ele>
        <time>2019-05-04T14:57:21Z</time>
      </trkpt>
      <trkpt lat="38.882400" lon="-5.855183">
        <ele>486.0</ele>
        <time>2019-05-04T14:57:22Z</time>
      </trkpt>
      <trkpt lat="38.882450" lon="-5.855100">
        <ele>487.0</ele>
        <time>2019-05-04T14:57:23Z</time>
      </trkpt>
      <trkpt lat="38.882500" lon="-5.855050">
        <ele>489.0</ele>
        <time>2019-05-04T14:57:24Z</time>
      </trkpt>
      <trkpt lat="38.882550" lon="-5.855000">
        <ele>491.0</ele>
        <time>2019-05-04T14:57:25Z</time>
      </trkpt>
      <trkpt lat="38.882600" lon="-5.854967">
        <ele>494.0</ele>
        <time>2019-05-04T14:57:26Z</time>
      </trkpt>
      <trkpt lat="38.882667" lon="-5.854967">
        <ele>495.0</ele>
        <time>2019-05-04T14:57:27Z</time>
      </trkpt>
      <trkpt lat="38.882717" lon="-5.854967">
        <ele>497.0</ele>
        <time>2019-05-04T14:57:28Z</time>
      </trkpt>
      <trkpt lat="38.882783" lon="-5.854983">
        <ele>499.0</ele>
        <time>2019-05-04T14:57:29Z</time>
      </trkpt>
      <trkpt lat="38.882817" lon="-5.855017">
        <ele>501.0</ele>
        <time>2019-05-04T14:57:30Z</time>
      </trkpt>
      <trkpt lat="38.882850" lon="-5.855050">
        <ele>503.0</ele>
        <time>2019-05-04T14:57:31Z</time>
      </trkpt>
      <trkpt lat="38.882867" lon="-5.855117">
        <ele>504.0</ele>
        <time>2019-05-04T14:57:32Z</time>
      </trkpt>
      <trkpt lat="38.882850" lon="-5.855200">
        <ele>504.0</ele>
        <time>2019-05-04T14:57:33Z</time>
      </trkpt>
      <trkpt lat="38.882833" lon="-5.855267">
        <ele>505.0</ele>
        <time>2019-05-04T14:57:34Z</time>
      </trkpt>
      <trkpt lat="38.882767" lon="-5.855317">
        <ele>505.0</ele>
        <time>2019-05-04T14:57:35Z</time>
      </trkpt>
      <trkpt lat="38.882700" lon="-5.855333">
        <ele>506.0</ele>
        <time>2019-05-04T14:57:36Z</time>
      </trkpt>
      <trkpt lat="38.882617" lon="-5.855300">
        <ele>506.0</ele>
        <time>2019-05-04T14:57:37Z</time>
      </trkpt>
      <trkpt lat="38.882567" lon="-5.855217">
        <ele>506.0</ele>
        <time>2019-05-04T14:57:38Z</time>
      </trkpt>
      <trkpt lat="38.882517" lon="-5.855100">
        <ele>506.0</ele>
        <time>2019-05-04T14:57:39Z</time>
      </trkpt>
      <trkpt lat="38.882483" lon="-5.854983">
        <ele>506.0</ele>
        <time>2019-05-04T14:57:40Z</time>
      </trkpt>
      <trkpt lat="38.882483" lon="-5.854850">
        <ele>507.0</ele>
        <time>2019-05-04T14:57:41Z</time>
      </trkpt>
      <trkpt lat="38.882500" lon="-5.854733">
        <ele>509.0</ele>
        <time>2019-05-04T14:57:42Z</time>
      </trkpt>
      <trkpt lat="38.882533" lon="-5.854650">
        <ele>511.0</ele>
        <time>2019-05-04T14:57:43Z</time>
      </trkpt>
      <trkpt lat="38.882567" lon="-5.854567">
        <ele>514.0</ele>
        <time>2019-05-04T14:57:44Z</time>
      </trkpt>
      <trkpt lat="38.882600" lon="-5.854483">
        <ele>516.0</ele>
        <time>2019-05-04T14:57:45Z</time>
      </trkpt>
      <trkpt lat="38.882633" lon="-5.854417">
        <ele>518.0</ele>
        <time>2019-05-04T14:57:46Z</time>
      </trkpt>
      <trkpt lat="38.882667" lon="-5.854333">
        <ele>520.0</ele>
        <time>2019-05-04T14:57:47Z</time>
      </trkpt>
      <trkpt lat="38.882717" lon="-5.854283">
        <ele>522.0</ele>
        <time>2019-05-04T14:57:48Z</time>
      </trkpt>
      <trkpt lat="38.882767" lon="-5.854283">
        <ele>523.0</ele>
        <time>2019-05-04T14:57:49Z</time>
      </trkpt>
      <trkpt lat="38.882817" lon="-5.854300">
        <ele>525.0</ele>
        <time>2019-05-04T14:57:50Z</time>
      </trkpt>
      <trkpt lat="38.882850" lon="-5.854350">
        <ele>524.0</ele>
        <time>2019-05-04T14:57:51Z</time>
      </trkpt>
      <trkpt lat="38.882850" lon="-5.854417">
        <ele>525.0</ele>
        <time>2019-05-04T14:57:52Z</time>
      </trkpt>
      <trkpt lat="38.882817" lon="-5.854483">
        <ele>525.0</ele>
        <time>2019-05-04T14:57:53Z</time>
      </trkpt>
      <trkpt lat="38.882767" lon="-5.854533">
        <ele>526.0</ele>
        <time>2019-05-04T14:57:54Z</time>
      </trkpt>
      <trkpt lat="38.882683" lon="-5.854567">
        <ele>526.0</ele>
        <time>2019-05-04T14:57:55Z</time>
      </trkpt>
      <trkpt lat="38.882600" lon="-5.854550">
        <ele>528.0</ele>
        <time>2019-05-04T14:57:56Z</time>
      </trkpt>
      <trkpt lat="38.882517" lon="-5.854517">
        <ele>530.0</ele>
        <time>2019-05-04T14:57:57Z</time>
      </trkpt>
      <trkpt lat="38.882450" lon="-5.854450">
        <ele>531.0</ele>
        <time>2019-05-04T14:57:58Z</time>
      </trkpt>
      <trkpt lat="38.882383" lon="-5.854333">
        <ele>533.0</ele>
        <time>2019-05-04T14:57:59Z</time>
      </trkpt>
      <trkpt lat="38.882333" lon="-5.854217">
        <ele>534.0</ele>
        <time>2019-05-04T14:58:00Z</time>
      </trkpt>
      <trkpt lat="38.882333" lon="-5.854083">
        <ele>536.0</ele>
        <time>2019-05-04T14:58:01Z</time>
      </trkpt>
      <trkpt lat="38.882367" lon="-5.853983">
        <ele>538.0</ele>
        <time>2019-05-04T14:58:02Z</time>
      </trkpt>
      <trkpt lat="38.882400" lon="-5.853917">
        <ele>540.0</ele>
        <time>2019-05-04T14:58:03Z</time>
      </trkpt>
      <trkpt lat="38.882467" lon="-5.853883">
        <ele>541.0</ele>
        <time>2019-05-04T14:58:04Z</time>
      </trkpt>
      <trkpt lat="38.882517" lon="-5.853850">
        <ele>543.0</ele>
        <time>2019-05-04T14:58:05Z</time>
      </trkpt>
      <trkpt lat="38.882567" lon="-5.853867">
        <ele>545.0</ele>
        <time>2019-05-04T14:58:06Z</time>
      </trkpt>
      <trkpt lat="38.882617" lon="-5.853900">
        <ele>546.0</ele>
        <time>2019-05-04T14:58:07Z</time>
      </trkpt>
      <trkpt lat="38.882633" lon="-5.853967">
        <ele>547.0</ele>
        <time>2019-05-04T14:58:08Z</time>
      </trkpt>
      <trkpt lat="38.882617" lon="-5.854017">
        <ele>548.0</ele>
        <time>2019-05-04T14:58:09Z</time>
      </trkpt>
      <trkpt lat="38.882583" lon="-5.854083">
        <ele>549.0</ele>
        <time>2019-05-04T14:58:10Z</time>
      </trkpt>
      <trkpt lat="38.882533" lon="-5.854117">
        <ele>551.0</ele>
        <time>2019-05-04T14:58:11Z</time>
      </trkpt>
      <trkpt lat="38.882467" lon="-5.854133">
        <ele>552.0</ele>
        <time>2019-05-04T14:58:12Z</time>
      </trkpt>
      <trkpt lat="38.882383" lon="-5.854133">
        <ele>554.0</ele>
        <time>2019-05-04T14:58:13Z</time>
      </trkpt>
      <trkpt lat="38.882283" lon="-5.854100">
        <ele>556.0</ele>
        <time>2019-05-04T14:58:14Z</time>
      </trkpt>
      <trkpt lat="38.882200" lon="-5.854017">
        <ele>557.0</ele>
        <time>2019-05-04T14:58:15Z</time>
      </trkpt>
      <trkpt lat="38.882133" lon="-5.853900">
        <ele>559.0</ele>
        <time>2019-05-04T14:58:16Z</time>
      </trkpt>
      <trkpt lat="38.882117" lon="-5.853767">
        <ele>561.0</ele>
        <time>2019-05-04T14:58:17Z</time>
      </trkpt>
      <trkpt lat="38.882117" lon="-5.853650">
        <ele>562.0</ele>
        <time>2019-05-04T14:58:18Z</time>
      </trkpt>
      <trkpt lat="38.882150" lon="-5.853567">
        <ele>564.0</ele>
        <time>2019-05-04T14:58:19Z</time>
      </trkpt>
      <trkpt lat="38.882217" lon="-5.853517">
        <ele>565.0</ele>
        <time>2019-05-04T14:58:20Z</time>
      </trkpt>
      <trkpt lat="38.882283" lon="-5.853500">
        <ele>566.0</ele>
        <time>2019-05-04T14:58:21Z</time>
      </trkpt>
      <trkpt lat="38.882350" lon="-5.853517">
        <ele>567.0</ele>
        <time>2019-05-04T14:58:22Z</time>
      </trkpt>
      <trkpt lat="38.882400" lon="-5.853550">
        <ele>568.0</ele>
        <time>2019-05-04T14:58:23Z</time>
      </trkpt>
      <trkpt lat="38.882433" lon="-5.853600">
        <ele>571.0</ele>
        <time>2019-05-04T14:58:24Z</time>
      </trkpt>
      <trkpt lat="38.882417" lon="-5.853650">
        <ele>572.0</ele>
        <time>2019-05-04T14:58:25Z</time>
      </trkpt>
      <trkpt lat="38.882400" lon="-5.853717">
        <ele>574.0</ele>
        <time>2019-05-04T14:58:26Z</time>
      </trkpt>
      <trkpt lat="38.882350" lon="-5.853767">
        <ele>576.0</ele>
        <time>2019-05-04T14:58:27Z</time>
      </trkpt>
      <trkpt lat="38.882317" lon="-5.853800">
        <ele>578.0</ele>
        <time>2019-05-04T14:58:28Z</time>
      </trkpt>
      <trkpt lat="38.882267" lon="-5.853817">
        <ele>579.0</ele>
        <time>2019-05-04T14:58:29Z</time>
      </trkpt>
      <trkpt lat="38.882183" lon="-5.853817">
        <ele>579.0</ele>
        <time>2019-05-04T14:58:30Z</time>
      </trkpt>
      <trkpt lat="38.882100" lon="-5.853783">
        <ele>578.0</ele>
        <time>2019-05-04T14:58:31Z</time>
      </trkpt>
      <trkpt lat="38.882017" lon="-5.853733">
        <ele>577.0</ele>
        <time>2019-05-04T14:58:32Z</time>
      </trkpt>
      <trkpt lat="38.881917" lon="-5.853650">
        <ele>575.0</ele>
        <time>2019-05-04T14:58:33Z</time>
      </trkpt>
      <trkpt lat="38.881833" lon="-5.853533">
        <ele>575.0</ele>
        <time>2019-05-04T14:58:34Z</time>
      </trkpt>
      <trkpt lat="38.881783" lon="-5.853400">
        <ele>575.0</ele>
        <time>2019-05-04T14:58:35Z</time>
      </trkpt>
      <trkpt lat="38.881767" lon="-5.853267">
        <ele>577.0</ele>
        <time>2019-05-04T14:58:36Z</time>
      </trkpt>
      <trkpt lat="38.881767" lon="-5.853167">
        <ele>581.0</ele>
        <time>2019-05-04T14:58:37Z</time>
      </trkpt>
      <trkpt lat="38.881767" lon="-5.853067">
        <ele>583.0</ele>
        <time>2019-05-04T14:58:38Z</time>
      </trkpt>
      <trkpt lat="38.881783" lon="-5.852950">
        <ele>585.0</ele>
        <time>2019-05-04T14:58:39Z</time>
      </trkpt>
      <trkpt lat="38.881817" lon="-5.852850">
        <ele>585.0</ele>
        <time>2019-05-04T14:58:40Z</time>
      </trkpt>
      <trkpt lat="38.881850" lon="-5.852750">
        <ele>586.0</ele>
        <time>2019-05-04T14:58:41Z</time>
      </trkpt>
      <trkpt lat="38.881917" lon="-5.852700">
        <ele>588.0</ele>
        <time>2019-05-04T14:58:42Z</time>
      </trkpt>
      <trkpt lat="38.881983" lon="-5.852683">
        <ele>589.0</ele>
        <time>2019-05-04T14:58:43Z</time>
      </trkpt>
      <trkpt lat="38.882033" lon="-5.852700">
        <ele>589.0</ele>
        <time>2019-05-04T14:58:44Z</time>
      </trkpt>
      <trkpt lat="38.882083" lon="-5.852733">
        <ele>591.0</ele>
        <time>2019-05-04T14:58:45Z</time>
      </trkpt>
      <trkpt lat="38.882100" lon="-5.852783">
        <ele>591.0</ele>
        <time>2019-05-04T14:58:46Z</time>
      </trkpt>
      <trkpt lat="38.882133" lon="-5.852833">
        <ele>592.0</ele>
        <time>2019-05-04T14:58:47Z</time>
      </trkpt>
      <trkpt lat="38.882133" lon="-5.852917">
        <ele>593.0</ele>
        <time>2019-05-04T14:58:48Z</time>
      </trkpt>
      <trkpt lat="38.882100" lon="-5.852983">
        <ele>593.0</ele>
        <time>2019-05-04T14:58:49Z</time>
      </trkpt>
      <trkpt lat="38.882050" lon="-5.853033">
        <ele>594.0</ele>
        <time>2019-05-04T14:58:50Z</time>
      </trkpt>
      <trkpt lat="38.881967" lon="-5.853050">
        <ele>595.0</ele>
        <time>2019-05-04T14:58:51Z</time>
      </trkpt>
      <trkpt lat="38.881900" lon="-5.853033">
        <ele>595.0</ele>
        <time>2019-05-04T14:58:52Z</time>
      </trkpt>
      <trkpt lat="38.881800" lon="-5.852983">
        <ele>595.0</ele>
        <time>2019-05-04T14:58:53Z</time>
      </trkpt>
      <trkpt lat="38.881717" lon="-5.852917">
        <ele>595.0</ele>
        <time>2019-05-04T14:58:54Z</time>
      </trkpt>
      <trkpt lat="38.881633" lon="-5.852833">
        <ele>595.0</ele>
        <time>2019-05-04T14:58:55Z</time>
      </trkpt>
      <trkpt lat="38.881583" lon="-5.852717">
        <ele>595.0</ele>
        <time>2019-05-04T14:58:56Z</time>
      </trkpt>
      <trkpt lat="38.881567" lon="-5.852583">
        <ele>596.0</ele>
        <time>2019-05-04T14:58:57Z</time>
      </trkpt>
      <trkpt lat="38.881567" lon="-5.852467">
        <ele>597.0</ele>
        <time>2019-05-04T14:58:58Z</time>
      </trkpt>
      <trkpt lat="38.881600" lon="-5.852350">
        <ele>598.0</ele>
        <time>2019-05-04T14:58:59Z</time>
      </trkpt>
      <trkpt lat="38.881617" lon="-5.852250">
        <ele>599.0</ele>
        <time>2019-05-04T14:59:00Z</time>
      </trkpt>
      <trkpt lat="38.881667" lon="-5.852167">
        <ele>599.0</ele>
        <time>2019-05-04T14:59:01Z</time>
      </trkpt>
      <trkpt lat="38.881717" lon="-5.852100">
        <ele>599.0</ele>
        <time>2019-05-04T14:59:02Z</time>
      </trkpt>
      <trkpt lat="38.881783" lon="-5.852033">
        <ele>598.0</ele>
        <time>2019-05-04T14:59:03Z</time>
      </trkpt>
      <trkpt lat="38.881867" lon="-5.852000">
        <ele>598.0</ele>
        <time>2019-05-04T14:59:04Z</time>
      </trkpt>
      <trkpt lat="38.881917" lon="-5.851983">
        <ele>599.0</ele>
        <time>2019-05-04T14:59:05Z</time>
      </trkpt>
      <trkpt lat="38.881967" lon="-5.851967">
        <ele>600.0</ele>
        <time>2019-05-04T14:59:06Z</time>
      </trkpt>
      <trkpt lat="38.882017" lon="-5.851967">
        <ele>600.0</ele>
        <time>2019-05-04T14:59:07Z</time>
      </trkpt>
      <trkpt lat="38.882083" lon="-5.851967">
        <ele>600.0</ele>
        <time>2019-05-04T14:59:08Z</time>
      </trkpt>
      <trkpt lat="38.882150" lon="-5.851983">
        <ele>599.0</ele>
        <time>2019-05-04T14:59:09Z</time>
      </trkpt>
      <trkpt lat="38.882217" lon="-5.852017">
        <ele>599.0</ele>
        <time>2019-05-04T14:59:10Z</time>
      </trkpt>
      <trkpt lat="38.882267" lon="-5.852050">
        <ele>600.0</ele>
        <time>2019-05-04T14:59:11Z</time>
      </trkpt>
      <trkpt lat="38.882283" lon="-5.852100">
        <ele>602.0</ele>
        <time>2019-05-04T14:59:12Z</time>
      </trkpt>
      <trkpt lat="38.882300" lon="-5.852117">
        <ele>604.0</ele>
        <time>2019-05-04T14:59:13Z</time>
      </trkpt>
      <trkpt lat="38.882333" lon="-5.852150">
        <ele>605.0</ele>
        <time>2019-05-04T14:59:14Z</time>
      </trkpt>
      <trkpt lat="38.882367" lon="-5.852183">
        <ele>606.0</ele>
        <time>2019-05-04T14:59:15Z</time>
      </trkpt>
      <trkpt lat="38.882400" lon="-5.852233">
        <ele>606.0</ele>
        <time>2019-05-04T14:59:16Z</time>
      </trkpt>
      <trkpt lat="38.882417" lon="-5.852300">
        <ele>605.0</ele>
        <time>2019-05-04T14:59:17Z</time>
      </trkpt>
      <trkpt lat="38.882417" lon="-5.852367">
        <ele>604.0</ele>
        <time>2019-05-04T14:59:18Z</time>
      </trkpt>
      <trkpt lat="38.882383" lon="-5.852417">
        <ele>603.0</ele>
        <time>2019-05-04T14:59:19Z</time>
      </trkpt>
      <trkpt lat="38.882333" lon="-5.852450">
        <ele>602.0</ele>
        <time>2019-05-04T14:59:20Z</time>
      </trkpt>
      <trkpt lat="38.882267" lon="-5.852467">
        <ele>601.0</ele>
        <time>2019-05-04T14:59:21Z</time>
      </trkpt>
      <trkpt lat="38.882200" lon="-5.852450">
        <ele>601.0</ele>
        <time>2019-05-04T14:59:22Z</time>
      </trkpt>
      <trkpt lat="38.882117" lon="-5.852417">
        <ele>600.0</ele>
        <time>2019-05-04T14:59:23Z</time>
      </trkpt>
      <trkpt lat="38.882050" lon="-5.852333">
        <ele>599.0</ele>
        <time>2019-05-04T14:59:24Z</time>
      </trkpt>
      <trkpt lat="38.882000" lon="-5.852233">
        <ele>598.0</ele>
        <time>2019-05-04T14:59:25Z</time>
      </trkpt>
      <trkpt lat="38.881967" lon="-5.852117">
        <ele>597.0</ele>
        <time>2019-05-04T14:59:26Z</time>
      </trkpt>
      <trkpt lat="38.881967" lon="-5.852000">
        <ele>597.0</ele>
        <time>2019-05-04T14:59:27Z</time>
      </trkpt>
      <trkpt lat="38.881983" lon="-5.851867">
        <ele>596.0</ele>
        <time>2019-05-04T14:59:28Z</time>
      </trkpt>
      <trkpt lat="38.882017" lon="-5.851750">
        <ele>596.0</ele>
        <time>2019-05-04T14:59:29Z</time>
      </trkpt>
      <trkpt lat="38.882067" lon="-5.851650">
        <ele>597.0</ele>
        <time>2019-05-04T14:59:30Z</time>
      </trkpt>
      <trkpt lat="38.882133" lon="-5.851567">
        <ele>597.0</ele>
        <time>2019-05-04T14:59:31Z</time>
      </trkpt>
      <trkpt lat="38.882183" lon="-5.851500">
        <ele>598.0</ele>
        <time>2019-05-04T14:59:32Z</time>
      </trkpt>
      <trkpt lat="38.882250" lon="-5.851417">
        <ele>599.0</ele>
        <time>2019-05-04T14:59:33Z</time>
      </trkpt>
      <trkpt lat="38.882317" lon="-5.851350">
        <ele>600.0</ele>
        <time>2019-05-04T14:59:34Z</time>
      </trkpt>
      <trkpt lat="38.882383" lon="-5.851300">
        <ele>600.0</ele>
        <time>2019-05-04T14:59:35Z</time>
      </trkpt>
      <trkpt lat="38.882450" lon="-5.851283">
        <ele>601.0</ele>
        <time>2019-05-04T14:59:36Z</time>
      </trkpt>
      <trkpt lat="38.882533" lon="-5.851267">
        <ele>601.0</ele>
        <time>2019-05-04T14:59:37Z</time>
      </trkpt>
      <trkpt lat="38.882600" lon="-5.851267">
        <ele>600.0</ele>
        <time>2019-05-04T14:59:38Z</time>
      </trkpt>
      <trkpt lat="38.882667" lon="-5.851250">
        <ele>601.0</ele>
        <time>2019-05-04T14:59:39Z</time>
      </trkpt>
      <trkpt lat="38.882733" lon="-5.851250">
        <ele>601.0</ele>
        <time>2019-05-04T14:59:40Z</time>
      </trkpt>
      <trkpt lat="38.882800" lon="-5.851250">
        <ele>602.0</ele>
        <time>2019-05-04T14:59:41Z</time>
      </trkpt>
      <trkpt lat="38.882867" lon="-5.851267">
        <ele>601.0</ele>
        <time>2019-05-04T14:59:42Z</time>
      </trkpt>
      <trkpt lat="38.882933" lon="-5.851300">
        <ele>601.0</ele>
        <time>2019-05-04T14:59:43Z</time>
      </trkpt>
      <trkpt lat="38.882983" lon="-5.851333">
        <ele>600.0</ele>
        <time>2019-05-04T14:59:44Z</time>
      </trkpt>
      <trkpt lat="38.883033" lon="-5.851367">
        <ele>600.0</ele>
        <time>2019-05-04T14:59:45Z</time>
      </trkpt>
      <trkpt lat="38.883067" lon="-5.851417">
        <ele>600.0</ele>
        <time>2019-05-04T14:59:46Z</time>
      </trkpt>
      <trkpt lat="38.883100" lon="-5.851483">
        <ele>600.0</ele>
        <time>2019-05-04T14:59:47Z</time>
      </trkpt>
      <trkpt lat="38.883117" lon="-5.851550">
        <ele>601.0</ele>
        <time>2019-05-04T14:59:48Z</time>
      </trkpt>
      <trkpt lat="38.883133" lon="-5.851600">
        <ele>601.0</ele>
        <time>2019-05-04T14:59:49Z</time>
      </trkpt>
      <trkpt lat="38.883150" lon="-5.851667">
        <ele>602.0</ele>
        <time>2019-05-04T14:59:50Z</time>
      </trkpt>
      <trkpt lat="38.883150" lon="-5.851717">
        <ele>602.0</ele>
        <time>2019-05-04T14:59:51Z</time>
      </trkpt>
      <trkpt lat="38.883150" lon="-5.851767">
        <ele>602.0</ele>
        <time>2019-05-04T14:59:52Z</time>
      </trkpt>
      <trkpt lat="38.883167" lon="-5.851833">
        <ele>602.0</ele>
        <time>2019-05-04T14:59:53Z</time>
      </trkpt>
      <trkpt lat="38.883167" lon="-5.851900">
        <ele>602.0</ele>
        <time>2019-05-04T14:59:54Z</time>
      </trkpt>
      <trkpt lat="38.883183" lon="-5.851967">
        <ele>602.0</ele>
        <time>2019-05-04T14:59:55Z</time>
      </trkpt>
      <trkpt lat="38.883200" lon="-5.852017">
        <ele>602.0</ele>
        <time>2019-05-04T14:59:56Z</time>
      </trkpt>
      <trkpt lat="38.883217" lon="-5.852067">
        <ele>602.0</ele>
        <time>2019-05-04T14:59:57Z</time>
      </trkpt>
      <trkpt lat="38.883217" lon="-5.852117">
        <ele>603.0</ele>
        <time>2019-05-04T14:59:58Z</time>
      </trkpt>
      <trkpt lat="38.883233" lon="-5.852183">
        <ele>603.0</ele>
        <time>2019-05-04T14:59:59Z</time>
      </trkpt>
      <trkpt lat="38.883233" lon="-5.852250">
        <ele>604.0</ele>
        <time>2019-05-04T15:00:00Z</time>
      </trkpt>
      <trkpt lat="38.883250" lon="-5.852317">
        <ele>607.0</ele>
        <time>2019-05-04T15:00:01Z</time>
      </trkpt>
      <trkpt lat="38.883267" lon="-5.852383">
        <ele>608.0</ele>
        <time>2019-05-04T15:00:02Z</time>
      </trkpt>
      <trkpt lat="38.883267" lon="-5.852433">
        <ele>610.0</ele>
        <time>2019-05-04T15:00:03Z</time>
      </trkpt>
      <trkpt lat="38.883267" lon="-5.852483">
        <ele>612.0</ele>
        <time>2019-05-04T15:00:04Z</time>
      </trkpt>
      <trkpt lat="38.883283" lon="-5.852550">
        <ele>614.0</ele>
        <time>2019-05-04T15:00:05Z</time>
      </trkpt>
      <trkpt lat="38.883300" lon="-5.852617">
        <ele>614.0</ele>
        <time>2019-05-04T15:00:06Z</time>
      </trkpt>
      <trkpt lat="38.883333" lon="-5.852683">
        <ele>616.0</ele>
        <time>2019-05-04T15:00:07Z</time>
      </trkpt>
      <trkpt lat="38.883383" lon="-5.852717">
        <ele>618.0</ele>
        <time>2019-05-04T15:00:08Z</time>
      </trkpt>
      <trkpt lat="38.883467" lon="-5.852733">
        <ele>618.0</ele>
        <time>2019-05-04T15:00:09Z</time>
      </trkpt>
      <trkpt lat="38.883550" lon="-5.852733">
        <ele>619.0</ele>
        <time>2019-05-04T15:00:10Z</time>
      </trkpt>
      <trkpt lat="38.883617" lon="-5.852683">
        <ele>621.0</ele>
        <time>2019-05-04T15:00:11Z</time>
      </trkpt>
      <trkpt lat="38.883683" lon="-5.852600">
        <ele>623.0</ele>
        <time>2019-05-04T15:00:12Z</time>
      </trkpt>
      <trkpt lat="38.883700" lon="-5.852467">
        <ele>625.0</ele>
        <time>2019-05-04T15:00:13Z</time>
      </trkpt>
      <trkpt lat="38.883683" lon="-5.852333">
        <ele>626.0</ele>
        <time>2019-05-04T15:00:14Z</time>
      </trkpt>
      <trkpt lat="38.883633" lon="-5.852200">
        <ele>628.0</ele>
        <time>2019-05-04T15:00:15Z</time>
      </trkpt>
      <trkpt lat="38.883583" lon="-5.852100">
        <ele>631.0</ele>
        <time>2019-05-04T15:00:16Z</time>
      </trkpt>
      <trkpt lat="38.883500" lon="-5.852017">
        <ele>633.0</ele>
        <time>2019-05-04T15:00:17Z</time>
      </trkpt>
      <trkpt lat="38.883400" lon="-5.851983">
        <ele>634.0</ele>
        <time>2019-05-04T15:00:18Z</time>
      </trkpt>
      <trkpt lat="38.883317" lon="-5.852000">
        <ele>636.0</ele>
        <time>2019-05-04T15:00:19Z</time>
      </trkpt>
      <trkpt lat="38.883250" lon="-5.852067">
        <ele>637.0</ele>
        <time>2019-05-04T15:00:20Z</time>
      </trkpt>
      <trkpt lat="38.883233" lon="-5.852167">
        <ele>639.0</ele>
        <time>2019-05-04T15:00:21Z</time>
      </trkpt>
      <trkpt lat="38.883233" lon="-5.852250">
        <ele>640.0</ele>
        <time>2019-05-04T15:00:22Z</time>
      </trkpt>
      <trkpt lat="38.883283" lon="-5.852317">
        <ele>642.0</ele>
        <time>2019-05-04T15:00:23Z</time>
      </trkpt>
      <trkpt lat="38.883350" lon="-5.852333">
        <ele>645.0</ele>
        <time>2019-05-04T15:00:24Z</time>
      </trkpt>
      <trkpt lat="38.883417" lon="-5.852333">
        <ele>642.0</ele>
        <time>2019-05-04T15:00:25Z</time>
      </trkpt>
      <trkpt lat="38.883483" lon="-5.852283">
        <ele>643.0</ele>
        <time>2019-05-04T15:00:26Z</time>
      </trkpt>
      <trkpt lat="38.883550" lon="-5.852200">
        <ele>645.0</ele>
        <time>2019-05-04T15:00:27Z</time>
      </trkpt>
      <trkpt lat="38.883583" lon="-5.852067">
        <ele>647.0</ele>
        <time>2019-05-04T15:00:28Z</time>
      </trkpt>
      <trkpt lat="38.883567" lon="-5.851933">
        <ele>650.0</ele>
        <time>2019-05-04T15:00:29Z</time>
      </trkpt>
      <trkpt lat="38.883517" lon="-5.851817">
        <ele>652.0</ele>
        <time>2019-05-04T15:00:30Z</time>
      </trkpt>
      <trkpt lat="38.883450" lon="-5.851733">
        <ele>655.0</ele>
        <time>2019-05-04T15:00:31Z</time>
      </trkpt>
      <trkpt lat="38.883367" lon="-5.851683">
        <ele>658.0</ele>
        <time>2019-05-04T15:00:32Z</time>
      </trkpt>
      <trkpt lat="38.883283" lon="-5.851683">
        <ele>660.0</ele>
        <time>2019-05-04T15:00:33Z</time>
      </trkpt>
      <trkpt lat="38.883217" lon="-5.851683">
        <ele>662.0</ele>
        <time>2019-05-04T15:00:34Z</time>
      </trkpt>
      <trkpt lat="38.883150" lon="-5.851733">
        <ele>664.0</ele>
        <time>2019-05-04T15:00:35Z</time>
      </trkpt>
      <trkpt lat="38.883100" lon="-5.851817">
        <ele>666.0</ele>
        <time>2019-05-04T15:00:36Z</time>
      </trkpt>
      <trkpt lat="38.883083" lon="-5.851900">
        <ele>667.0</ele>
        <time>2019-05-04T15:00:37Z</time>
      </trkpt>
      <trkpt lat="38.883100" lon="-5.852000">
        <ele>669.0</ele>
        <time>2019-05-04T15:00:38Z</time>
      </trkpt>
      <trkpt lat="38.883150" lon="-5.852050">
        <ele>671.0</ele>
        <time>2019-05-04T15:00:39Z</time>
      </trkpt>
      <trkpt lat="38.883233" lon="-5.852050">
        <ele>673.0</ele>
        <time>2019-05-04T15:00:40Z</time>
      </trkpt>
      <trkpt lat="38.883300" lon="-5.852000">
        <ele>674.0</ele>
        <time>2019-05-04T15:00:41Z</time>
      </trkpt>
      <trkpt lat="38.883350" lon="-5.851917">
        <ele>677.0</ele>
        <time>2019-05-04T15:00:42Z</time>
      </trkpt>
      <trkpt lat="38.883367" lon="-5.851800">
        <ele>680.0</ele>
        <time>2019-05-04T15:00:43Z</time>
      </trkpt>
      <trkpt lat="38.883350" lon="-5.851683">
        <ele>682.0</ele>
        <time>2019-05-04T15:00:44Z</time>
      </trkpt>
      <trkpt lat="38.883283" lon="-5.851567">
        <ele>685.0</ele>
        <time>2019-05-04T15:00:45Z</time>
      </trkpt>
      <trkpt lat="38.883217" lon="-5.851500">
        <ele>687.0</ele>
        <time>2019-05-04T15:00:46Z</time>
      </trkpt>
      <trkpt lat="38.883133" lon="-5.851483">
        <ele>690.0</ele>
        <time>2019-05-04T15:00:47Z</time>
      </trkpt>
      <trkpt lat="38.883050" lon="-5.851500">
        <ele>693.0</ele>
        <time>2019-05-04T15:00:48Z</time>
      </trkpt>
      <trkpt lat="38.882983" lon="-5.851550">
        <ele>695.0</ele>
        <time>2019-05-04T15:00:49Z</time>
      </trkpt>
      <trkpt lat="38.882933" lon="-5.851617">
        <ele>698.0</ele>
        <time>2019-05-04T15:00:50Z</time>
      </trkpt>
      <trkpt lat="38.882917" lon="-5.851717">
        <ele>700.0</ele>
        <time>2019-05-04T15:00:51Z</time>
      </trkpt>
      <trkpt lat="38.882933" lon="-5.851783">
        <ele>703.0</ele>
        <time>2019-05-04T15:00:52Z</time>
      </trkpt>
      <trkpt lat="38.882983" lon="-5.851833">
        <ele>705.0</ele>
        <time>2019-05-04T15:00:53Z</time>
      </trkpt>
      <trkpt lat="38.883067" lon="-5.851850">
        <ele>709.0</ele>
        <time>2019-05-04T15:00:54Z</time>
      </trkpt>
      <trkpt lat="38.883133" lon="-5.851833">
        <ele>710.0</ele>
        <time>2019-05-04T15:00:55Z</time>
      </trkpt>
      <trkpt lat="38.883183" lon="-5.851767">
        <ele>713.0</ele>
        <time>2019-05-04T15:00:56Z</time>
      </trkpt>
      <trkpt lat="38.883217" lon="-5.851650">
        <ele>715.0</ele>
        <time>2019-05-04T15:00:57Z</time>
      </trkpt>
      <trkpt lat="38.883217" lon="-5.851533">
        <ele>717.0</ele>
        <time>2019-05-04T15:00:58Z</time>
      </trkpt>
      <trkpt lat="38.883167" lon="-5.851417">
        <ele>720.0</ele>
        <time>2019-05-04T15:00:59Z</time>
      </trkpt>
      <trkpt lat="38.883100" lon="-5.851333">
        <ele>722.0</ele>
        <time>2019-05-04T15:01:00Z</time>
      </trkpt>
      <trkpt lat="38.883000" lon="-5.851300">
        <ele>724.0</ele>
        <time>2019-05-04T15:01:01Z</time>
      </trkpt>
      <trkpt lat="38.882933" lon="-5.851317">
        <ele>727.0</ele>
        <time>2019-05-04T15:01:02Z</time>
      </trkpt>
      <trkpt lat="38.882883" lon="-5.851367">
        <ele>729.0</ele>
        <time>2019-05-04T15:01:03Z</time>
      </trkpt>
      <trkpt lat="38.882833" lon="-5.851450">
        <ele>732.0</ele>
        <time>2019-05-04T15:01:04Z</time>
      </trkpt>
      <trkpt lat="38.882817" lon="-5.851517">
        <ele>734.0</ele>
        <time>2019-05-04T15:01:05Z</time>
      </trkpt>
      <trkpt lat="38.882817" lon="-5.851617">
        <ele>736.0</ele>
        <time>2019-05-04T15:01:06Z</time>
      </trkpt>
      <trkpt lat="38.882850" lon="-5.851700">
        <ele>740.0</ele>
        <time>2019-05-04T15:01:07Z</time>
      </trkpt>
      <trkpt lat="38.882917" lon="-5.851750">
        <ele>742.0</ele>
        <time>2019-05-04T15:01:08Z</time>
      </trkpt>
      <trkpt lat="38.882983" lon="-5.851767">
        <ele>745.0</ele>
        <time>2019-05-04T15:01:09Z</time>
      </trkpt>
      <trkpt lat="38.883050" lon="-5.851767">
        <ele>748.0</ele>
        <time>2019-05-04T15:01:10Z</time>
      </trkpt>
      <trkpt lat="38.883117" lon="-5.851733">
        <ele>752.0</ele>
        <time>2019-05-04T15:01:11Z</time>
      </trkpt>
      <trkpt lat="38.883183" lon="-5.851667">
        <ele>756.0</ele>
        <time>2019-05-04T15:01:12Z</time>
      </trkpt>
      <trkpt lat="38.883217" lon="-5.851567">
        <ele>759.0</ele>
        <time>2019-05-04T15:01:13Z</time>
      </trkpt>
      <trkpt lat="38.883217" lon="-5.851450">
        <ele>761.0</ele>
        <time>2019-05-04T15:01:14Z</time>
      </trkpt>
      <trkpt lat="38.883183" lon="-5.851333">
        <ele>763.0</ele>
        <time>2019-05-04T15:01:15Z</time>
      </trkpt>
      <trkpt lat="38.883100" lon="-5.851233">
        <ele>765.0</ele>
        <time>2019-05-04T15:01:16Z</time>
      </trkpt>
      <trkpt lat="38.883017" lon="-5.851150">
        <ele>768.0</ele>
        <time>2019-05-04T15:01:17Z</time>
      </trkpt>
      <trkpt lat="38.882900" lon="-5.851117">
        <ele>770.0</ele>
        <time>2019-05-04T15:01:18Z</time>
      </trkpt>
      <trkpt lat="38.882800" lon="-5.851117">
        <ele>772.0</ele>
        <time>2019-05-04T15:01:19Z</time>
      </trkpt>
      <trkpt lat="38.882733" lon="-5.851183">
        <ele>776.0</ele>
        <time>2019-05-04T15:01:20Z</time>
      </trkpt>
      <trkpt lat="38.882683" lon="-5.851250">
        <ele>778.0</ele>
        <time>2019-05-04T15:01:21Z</time>
      </trkpt>
      <trkpt lat="38.882650" lon="-5.851317">
        <ele>780.0</ele>
        <time>2019-05-04T15:01:22Z</time>
      </trkpt>
      <trkpt lat="38.882617" lon="-5.851400">
        <ele>783.0</ele>
        <time>2019-05-04T15:01:23Z</time>
      </trkpt>
      <trkpt lat="38.882617" lon="-5.851483">
        <ele>786.0</ele>
        <time>2019-05-04T15:01:24Z</time>
      </trkpt>
      <trkpt lat="38.882633" lon="-5.851567">
        <ele>789.0</ele>
        <time>2019-05-04T15:01:25Z</time>
      </trkpt>
      <trkpt lat="38.882700" lon="-5.851617">
        <ele>791.0</ele>
        <time>2019-05-04T15:01:26Z</time>
      </trkpt>
      <trkpt lat="38.882783" lon="-5.851633">
        <ele>793.0</ele>
        <time>2019-05-04T15:01:27Z</time>
      </trkpt>
      <trkpt lat="38.882850" lon="-5.851617">
        <ele>797.0</ele>
        <time>2019-05-04T15:01:28Z</time>
      </trkpt>
      <trkpt lat="38.882900" lon="-5.851533">
        <ele>800.0</ele>
        <time>2019-05-04T15:01:29Z</time>
      </trkpt>
      <trkpt lat="38.882933" lon="-5.851433">
        <ele>802.0</ele>
        <time>2019-05-04T15:01:30Z</time>
      </trkpt>
      <trkpt lat="38.882933" lon="-5.851317">
        <ele>806.0</ele>
        <time>2019-05-04T15:01:31Z</time>
      </trkpt>
      <trkpt lat="38.882900" lon="-5.851200">
        <ele>809.0</ele>
        <time>2019-05-04T15:01:32Z</time>
      </trkpt>
      <trkpt lat="38.882833" lon="-5.851117">
        <ele>812.0</ele>
        <time>2019-05-04T15:01:33Z</time>
      </trkpt>
      <trkpt lat="38.882750" lon="-5.851033">
        <ele>814.0</ele>
        <time>2019-05-04T15:01:34Z</time>
      </trkpt>
      <trkpt lat="38.882650" lon="-5.851000">
        <ele>818.0</ele>
        <time>2019-05-04T15:01:35Z</time>
      </trkpt>
      <trkpt lat="38.882567" lon="-5.851017">
        <ele>822.0</ele>
        <time>2019-05-04T15:01:36Z</time>
      </trkpt>
      <trkpt lat="38.882500" lon="-5.851067">
        <ele>825.0</ele>
        <time>2019-05-04T15:01:37Z</time>
      </trkpt>
      <trkpt lat="38.882450" lon="-5.851167">
        <ele>828.0</ele>
        <time>2019-05-04T15:01:38Z</time>
      </trkpt>
      <trkpt lat="38.882450" lon="-5.851267">
        <ele>831.0</ele>
        <time>2019-05-04T15:01:39Z</time>
      </trkpt>
      <trkpt lat="38.882467" lon="-5.851350">
        <ele>834.0</ele>
        <time>2019-05-04T15:01:40Z</time>
      </trkpt>
      <trkpt lat="38.882517" lon="-5.851417">
        <ele>837.0</ele>
        <time>2019-05-04T15:01:41Z</time>
      </trkpt>
      <trkpt lat="38.882583" lon="-5.851417">
        <ele>840.0</ele>
        <time>2019-05-04T15:01:42Z</time>
      </trkpt>
      <trkpt lat="38.882650" lon="-5.851400">
        <ele>842.0</ele>
        <time>2019-05-04T15:01:43Z</time>
      </trkpt>
      <trkpt lat="38.882700" lon="-5.851333">
        <ele>844.0</ele>
        <time>2019-05-04T15:01:44Z</time>
      </trkpt>
      <trkpt lat="38.882733" lon="-5.851233">
        <ele>847.0</ele>
        <time>2019-05-04T15:01:45Z</time>
      </trkpt>
      <trkpt lat="38.882750" lon="-5.851117">
        <ele>849.0</ele>
        <time>2019-05-04T15:01:46Z</time>
      </trkpt>
      <trkpt lat="38.882733" lon="-5.850983">
        <ele>851.0</ele>
        <time>2019-05-04T15:01:47Z</time>
      </trkpt>
      <trkpt lat="38.882683" lon="-5.850883">
        <ele>854.0</ele>
        <time>2019-05-04T15:01:48Z</time>
      </trkpt>
      <trkpt lat="38.882600" lon="-5.850800">
        <ele>856.0</ele>
        <time>2019-05-04T15:01:49Z</time>
      </trkpt>
      <trkpt lat="38.882500" lon="-5.850783">
        <ele>859.0</ele>
        <time>2019-05-04T15:01:50Z</time>
      </trkpt>
      <trkpt lat="38.882400" lon="-5.850817">
        <ele>861.0</ele>
        <time>2019-05-04T15:01:51Z</time>
      </trkpt>
      <trkpt lat="38.882333" lon="-5.850883">
        <ele>864.0</ele>
        <time>2019-05-04T15:01:52Z</time>
      </trkpt>
      <trkpt lat="38.882300" lon="-5.850967">
        <ele>867.0</ele>
        <time>2019-05-04T15:01:53Z</time>
      </trkpt>
      <trkpt lat="38.882283" lon="-5.851033">
        <ele>870.0</ele>
        <time>2019-05-04T15:01:54Z</time>
      </trkpt>
      <trkpt lat="38.882250" lon="-5.851117">
        <ele>865.0</ele>
        <time>2019-05-04T15:01:55Z</time>
      </trkpt>
      <trkpt lat="38.882283" lon="-5.851200">
        <ele>866.0</ele>
        <time>2019-05-04T15:01:56Z</time>
      </trkpt>
      <trkpt lat="38.882317" lon="-5.851267">
        <ele>867.0</ele>
        <time>2019-05-04T15:01:57Z</time>
      </trkpt>
      <trkpt lat="38.882383" lon="-5.851300">
        <ele>868.0</ele>
        <time>2019-05-04T15:01:58Z</time>
      </trkpt>
      <trkpt lat="38.882450" lon="-5.851300">
        <ele>870.0</ele>
        <time>2019-05-04T15:01:59Z</time>
      </trkpt>
      <trkpt lat="38.882517" lon="-5.851233">
        <ele>871.0</ele>
        <time>2019-05-04T15:02:00Z</time>
      </trkpt>
      <trkpt lat="38.882567" lon="-5.851150">
        <ele>873.0</ele>
        <time>2019-05-04T15:02:01Z</time>
      </trkpt>
      <trkpt lat="38.882600" lon="-5.851033">
        <ele>875.0</ele>
        <time>2019-05-04T15:02:02Z</time>
      </trkpt>
      <trkpt lat="38.882583" lon="-5.850917">
        <ele>878.0</ele>
        <time>2019-05-04T15:02:03Z</time>
      </trkpt>
      <trkpt lat="38.882550" lon="-5.850800">
        <ele>880.0</ele>
        <time>2019-05-04T15:02:04Z</time>
      </trkpt>
      <trkpt lat="38.882483" lon="-5.850717">
        <ele>882.0</ele>
        <time>2019-05-04T15:02:05Z</time>
      </trkpt>
      <trkpt lat="38.882383" lon="-5.850650">
        <ele>885.0</ele>
        <time>2019-05-04T15:02:06Z</time>
      </trkpt>
      <trkpt lat="38.882283" lon="-5.850617">
        <ele>887.0</ele>
        <time>2019-05-04T15:02:07Z</time>
      </trkpt>
      <trkpt lat="38.882200" lon="-5.850617">
        <ele>890.0</ele>
        <time>2019-05-04T15:02:08Z</time>
      </trkpt>
      <trkpt lat="38.882117" lon="-5.850650">
        <ele>893.0</ele>
        <time>2019-05-04T15:02:09Z</time>
      </trkpt>
      <trkpt lat="38.882050" lon="-5.850700">
        <ele>897.0</ele>
        <time>2019-05-04T15:02:10Z</time>
      </trkpt>
      <trkpt lat="38.882017" lon="-5.850783">
        <ele>900.0</ele>
        <time>2019-05-04T15:02:11Z</time>
      </trkpt>
      <trkpt lat="38.882017" lon="-5.850883">
        <ele>903.0</ele>
        <time>2019-05-04T15:02:12Z</time>
      </trkpt>
      <trkpt lat="38.882033" lon="-5.850933">
        <ele>906.0</ele>
        <time>2019-05-04T15:02:13Z</time>
      </trkpt>
      <trkpt lat="38.882083" lon="-5.850967">
        <ele>909.0</ele>
        <time>2019-05-04T15:02:14Z</time>
      </trkpt>
      <trkpt lat="38.882150" lon="-5.850967">
        <ele>910.0</ele>
        <time>2019-05-04T15:02:15Z</time>
      </trkpt>
      <trkpt lat="38.882217" lon="-5.850917">
        <ele>910.0</ele>
        <time>2019-05-04T15:02:16Z</time>
      </trkpt>
      <trkpt lat="38.882267" lon="-5.850817">
        <ele>911.0</ele>
        <time>2019-05-04T15:02:17Z</time>
      </trkpt>
      <trkpt lat="38.882283" lon="-5.850717">
        <ele>913.0</ele>
        <time>2019-05-04T15:02:18Z</time>
      </trkpt>
      <trkpt lat="38.882267" lon="-5.850600">
        <ele>915.0</ele>
        <time>2019-05-04T15:02:19Z</time>
      </trkpt>
      <trkpt lat="38.882217" lon="-5.850500">
        <ele>918.0</ele>
        <time>2019-05-04T15:02:20Z</time>
      </trkpt>
      <trkpt lat="38.882150" lon="-5.850417">
        <ele>920.0</ele>
        <time>2019-05-04T15:02:21Z</time>
      </trkpt>
      <trkpt lat="38.882067" lon="-5.850367">
        <ele>923.0</ele>
        <time>2019-05-04T15:02:22Z</time>
      </trkpt>
      <trkpt lat="38.881983" lon="-5.850317">
        <ele>926.0</ele>
        <time>2019-05-04T15:02:23Z</time>
      </trkpt>
      <trkpt lat="38.881883" lon="-5.850300">
        <ele>928.0</ele>
        <time>2019-05-04T15:02:24Z</time>
      </trkpt>
      <trkpt lat="38.881800" lon="-5.850317">
        <ele>931.0</ele>
        <time>2019-05-04T15:02:25Z</time>
      </trkpt>
      <trkpt lat="38.881717" lon="-5.850367">
        <ele>933.0</ele>
        <time>2019-05-04T15:02:26Z</time>
      </trkpt>
      <trkpt lat="38.881683" lon="-5.850433">
        <ele>936.0</ele>
        <time>2019-05-04T15:02:27Z</time>
      </trkpt>
      <trkpt lat="38.881667" lon="-5.850500">
        <ele>939.0</ele>
        <time>2019-05-04T15:02:28Z</time>
      </trkpt>
      <trkpt lat="38.881700" lon="-5.850550">
        <ele>941.0</ele>
        <time>2019-05-04T15:02:29Z</time>
      </trkpt>
      <trkpt lat="38.881733" lon="-5.850583">
        <ele>943.0</ele>
        <time>2019-05-04T15:02:30Z</time>
      </trkpt>
      <trkpt lat="38.881783" lon="-5.850583">
        <ele>944.0</ele>
        <time>2019-05-04T15:02:31Z</time>
      </trkpt>
      <trkpt lat="38.881850" lon="-5.850567">
        <ele>944.0</ele>
        <time>2019-05-04T15:02:32Z</time>
      </trkpt>
      <trkpt lat="38.881917" lon="-5.850517">
        <ele>944.0</ele>
        <time>2019-05-04T15:02:33Z</time>
      </trkpt>
      <trkpt lat="38.881950" lon="-5.850433">
        <ele>944.0</ele>
        <time>2019-05-04T15:02:34Z</time>
      </trkpt>
      <trkpt lat="38.881983" lon="-5.850317">
        <ele>944.0</ele>
        <time>2019-05-04T15:02:35Z</time>
      </trkpt>
      <trkpt lat="38.882000" lon="-5.850200">
        <ele>945.0</ele>
        <time>2019-05-04T15:02:36Z</time>
      </trkpt>
      <trkpt lat="38.881983" lon="-5.850083">
        <ele>946.0</ele>
        <time>2019-05-04T15:02:37Z</time>
      </trkpt>
      <trkpt lat="38.881950" lon="-5.849983">
        <ele>949.0</ele>
        <time>2019-05-04T15:02:38Z</time>
      </trkpt>
      <trkpt lat="38.881917" lon="-5.849883">
        <ele>951.0</ele>
        <time>2019-05-04T15:02:39Z</time>
      </trkpt>
      <trkpt lat="38.881867" lon="-5.849800">
        <ele>954.0</ele>
        <time>2019-05-04T15:02:40Z</time>
      </trkpt>
      <trkpt lat="38.881800" lon="-5.849717">
        <ele>956.0</ele>
        <time>2019-05-04T15:02:41Z</time>
      </trkpt>
      <trkpt lat="38.881717" lon="-5.849650">
        <ele>958.0</ele>
        <time>2019-05-04T15:02:42Z</time>
      </trkpt>
      <trkpt lat="38.881617" lon="-5.849633">
        <ele>960.0</ele>
        <time>2019-05-04T15:02:43Z</time>
      </trkpt>
      <trkpt lat="38.881517" lon="-5.849650">
        <ele>962.0</ele>
        <time>2019-05-04T15:02:44Z</time>
      </trkpt>
      <trkpt lat="38.881450" lon="-5.849717">
        <ele>963.0</ele>
        <time>2019-05-04T15:02:45Z</time>
      </trkpt>
      <trkpt lat="38.881433" lon="-5.849800">
        <ele>965.0</ele>
        <time>2019-05-04T15:02:46Z</time>
      </trkpt>
      <trkpt lat="38.881483" lon="-5.849850">
        <ele>967.0</ele>
        <time>2019-05-04T15:02:47Z</time>
      </trkpt>
      <trkpt lat="38.881550" lon="-5.849850">
        <ele>968.0</ele>
        <time>2019-05-04T15:02:48Z</time>
      </trkpt>
      <trkpt lat="38.881617" lon="-5.849800">
        <ele>969.0</ele>
        <time>2019-05-04T15:02:49Z</time>
      </trkpt>
      <trkpt lat="38.881667" lon="-5.849733">
        <ele>971.0</ele>
        <time>2019-05-04T15:02:50Z</time>
      </trkpt>
      <trkpt lat="38.881700" lon="-5.849633">
        <ele>973.0</ele>
        <time>2019-05-04T15:02:51Z</time>
      </trkpt>
      <trkpt lat="38.881717" lon="-5.849500">
        <ele>973.0</ele>
        <time>2019-05-04T15:02:52Z</time>
      </trkpt>
      <trkpt lat="38.881717" lon="-5.849350">
        <ele>974.0</ele>
        <time>2019-05-04T15:02:53Z</time>
      </trkpt>
      <trkpt lat="38.881683" lon="-5.849217">
        <ele>976.0</ele>
        <time>2019-05-04T15:02:54Z</time>
      </trkpt>
      <trkpt lat="38.881600" lon="-5.849117">
        <ele>978.0</ele>
        <time>2019-05-04T15:02:55Z</time>
      </trkpt>
      <trkpt lat="38.881500" lon="-5.849067">
        <ele>980.0</ele>
        <time>2019-05-04T15:02:56Z</time>
      </trkpt>
      <trkpt lat="38.881400" lon="-5.849067">
        <ele>982.0</ele>
        <time>2019-05-04T15:02:57Z</time>
      </trkpt>
      <trkpt lat="38.881317" lon="-5.849083">
        <ele>984.0</ele>
        <time>2019-05-04T15:02:58Z</time>
      </trkpt>
      <trkpt lat="38.881250" lon="-5.849117">
        <ele>987.0</ele>
        <time>2019-05-04T15:02:59Z</time>
      </trkpt>
      <trkpt lat="38.881200" lon="-5.849167">
        <ele>990.0</ele>
        <time>2019-05-04T15:03:00Z</time>
      </trkpt>
      <trkpt lat="38.881183" lon="-5.849233">
        <ele>992.0</ele>
        <time>2019-05-04T15:03:01Z</time>
      </trkpt>
      <trkpt lat="38.881200" lon="-5.849283">
        <ele>994.0</ele>
        <time>2019-05-04T15:03:02Z</time>
      </trkpt>
      <trkpt lat="38.881217" lon="-5.849333">
        <ele>997.0</ele>
        <time>2019-05-04T15:03:03Z</time>
      </trkpt>
      <trkpt lat="38.881250" lon="-5.849367">
        <ele>999.0</ele>
        <time>2019-05-04T15:03:04Z</time>
      </trkpt>
      <trkpt lat="38.881300" lon="-5.849383">
        <ele>1001.0</ele>
        <time>2019-05-04T15:03:05Z</time>
      </trkpt>
      <trkpt lat="38.881367" lon="-5.849367">
        <ele>1003.0</ele>
        <time>2019-05-04T15:03:06Z</time>
      </trkpt>
      <trkpt lat="38.881433" lon="-5.849300">
        <ele>1003.0</ele>
        <time>2019-05-04T15:03:07Z</time>
      </trkpt>
      <trkpt lat="38.881500" lon="-5.849200">
        <ele>1005.0</ele>
        <time>2019-05-04T15:03:08Z</time>
      </trkpt>
      <trkpt lat="38.881517" lon="-5.849083">
        <ele>1007.0</ele>
        <time>2019-05-04T15:03:09Z</time>
      </trkpt>
      <trkpt lat="38.881533" lon="-5.848967">
        <ele>1009.0</ele>
        <time>2019-05-04T15:03:10Z</time>
      </trkpt>
      <trkpt lat="38.881533" lon="-5.848850">
        <ele>1012.0</ele>
        <time>2019-05-04T15:03:11Z</time>
      </trkpt>
      <trkpt lat="38.881483" lon="-5.848750">
        <ele>1014.0</ele>
        <time>2019-05-04T15:03:12Z</time>
      </trkpt>
      <trkpt lat="38.881433" lon="-5.848667">
        <ele>1016.0</ele>
        <time>2019-05-04T15:03:13Z</time>
      </trkpt>
      <trkpt lat="38.881350" lon="-5.848583">
        <ele>1018.0</ele>
        <time>2019-05-04T15:03:14Z</time>
      </trkpt>
      <trkpt lat="38.881250" lon="-5.848533">
        <ele>1020.0</ele>
        <time>2019-05-04T15:03:15Z</time>
      </trkpt>
      <trkpt lat="38.881167" lon="-5.848517">
        <ele>1023.0</ele>
        <time>2019-05-04T15:03:16Z</time>
      </trkpt>
      <trkpt lat="38.881083" lon="-5.848550">
        <ele>1025.0</ele>
        <time>2019-05-04T15:03:17Z</time>
      </trkpt>
      <trkpt lat="38.881017" lon="-5.848617">
        <ele>1026.0</ele>
        <time>2019-05-04T15:03:18Z</time>
      </trkpt>
      <trkpt lat="38.880983" lon="-5.848683">
        <ele>1029.0</ele>
        <time>2019-05-04T15:03:19Z</time>
      </trkpt>
      <trkpt lat="38.880983" lon="-5.848767">
        <ele>1031.0</ele>
        <time>2019-05-04T15:03:20Z</time>
      </trkpt>
      <trkpt lat="38.881017" lon="-5.848833">
        <ele>1033.0</ele>
        <time>2019-05-04T15:03:21Z</time>
      </trkpt>
      <trkpt lat="38.881067" lon="-5.848883">
        <ele>1035.0</ele>
        <time>2019-05-04T15:03:22Z</time>
      </trkpt>
      <trkpt lat="38.881133" lon="-5.848883">
        <ele>1036.0</ele>
        <time>2019-05-04T15:03:23Z</time>
      </trkpt>
      <trkpt lat="38.881200" lon="-5.848867">
        <ele>1039.0</ele>
        <time>2019-05-04T15:03:24Z</time>
      </trkpt>
      <trkpt lat="38.881250" lon="-5.848800">
        <ele>1040.0</ele>
        <time>2019-05-04T15:03:25Z</time>
      </trkpt>
      <trkpt lat="38.881300" lon="-5.848717">
        <ele>1042.0</ele>
        <time>2019-05-04T15:03:26Z</time>
      </trkpt>
      <trkpt lat="38.881333" lon="-5.848617">
        <ele>1042.0</ele>
        <time>2019-05-04T15:03:27Z</time>
      </trkpt>
      <trkpt lat="38.881350" lon="-5.848483">
        <ele>1043.0</ele>
        <time>2019-05-04T15:03:28Z</time>
      </trkpt>
      <trkpt lat="38.881350" lon="-5.848333">
        <ele>1044.0</ele>
        <time>2019-05-04T15:03:29Z</time>
      </trkpt>
      <trkpt lat="38.881317" lon="-5.848217">
        <ele>1044.0</ele>
        <time>2019-05-04T15:03:30Z</time>
      </trkpt>
      <trkpt lat="38.881233" lon="-5.848117">
        <ele>1045.0</ele>
        <time>2019-05-04T15:03:31Z</time>
      </trkpt>
      <trkpt lat="38.881167" lon="-5.848067">
        <ele>1048.0</ele>
        <time>2019-05-04T15:03:32Z</time>
      </trkpt>
      <trkpt lat="38.881083" lon="-5.848033">
        <ele>1050.0</ele>
        <time>2019-05-04T15:03:33Z</time>
      </trkpt>
      <trkpt lat="38.881000" lon="-5.848017">
        <ele>1053.0</ele>
        <time>2019-05-04T15:03:34Z</time>
      </trkpt>
      <trkpt lat="38.880917" lon="-5.848033">
        <ele>1055.0</ele>
        <time>2019-05-04T15:03:35Z</time>
      </trkpt>
      <trkpt lat="38.880833" lon="-5.848050">
        <ele>1058.0</ele>
        <time>2019-05-04T15:03:36Z</time>
      </trkpt>
      <trkpt lat="38.880767" lon="-5.848100">
        <ele>1060.0</ele>
        <time>2019-05-04T15:03:37Z</time>
      </trkpt>
      <trkpt lat="38.880733" lon="-5.848167">
        <ele>1063.0</ele>
        <time>2019-05-04T15:03:38Z</time>
      </trkpt>
      <trkpt lat="38.880733" lon="-5.848250">
        <ele>1065.0</ele>
        <time>2019-05-04T15:03:39Z</time>
      </trkpt>
      <trkpt lat="38.880783" lon="-5.848300">
        <ele>1067.0</ele>
        <time>2019-05-04T15:03:40Z</time>
      </trkpt>
      <trkpt lat="38.880850" lon="-5.848300">
        <ele>1068.0</ele>
        <time>2019-05-04T15:03:41Z</time>
      </trkpt>
      <trkpt lat="38.880900" lon="-5.848267">
        <ele>1070.0</ele>
        <time>2019-05-04T15:03:42Z</time>
      </trkpt>
      <trkpt lat="38.880950" lon="-5.848200">
        <ele>1072.0</ele>
        <time>2019-05-04T15:03:43Z</time>
      </trkpt>
      <trkpt lat="38.881000" lon="-5.848083">
        <ele>1074.0</ele>
        <time>2019-05-04T15:03:44Z</time>
      </trkpt>
      <trkpt lat="38.881033" lon="-5.847967">
        <ele>1075.0</ele>
        <time>2019-05-04T15:03:45Z</time>
      </trkpt>
      <trkpt lat="38.881033" lon="-5.847833">
        <ele>1077.0</ele>
        <time>2019-05-04T15:03:46Z</time>
      </trkpt>
      <trkpt lat="38.881000" lon="-5.847700">
        <ele>1079.0</ele>
        <time>2019-05-04T15:03:47Z</time>
      </trkpt>
      <trkpt lat="38.880933" lon="-5.847600">
        <ele>1081.0</ele>
        <time>2019-05-04T15:03:48Z</time>
      </trkpt>
      <trkpt lat="38.880850" lon="-5.847517">
        <ele>1084.0</ele>
        <time>2019-05-04T15:03:49Z</time>
      </trkpt>
      <trkpt lat="38.880783" lon="-5.847450">
        <ele>1087.0</ele>
        <time>2019-05-04T15:03:50Z</time>
      </trkpt>
      <trkpt lat="38.880717" lon="-5.847417">
        <ele>1090.0</ele>
        <time>2019-05-04T15:03:51Z</time>
      </trkpt>
      <trkpt lat="38.880650" lon="-5.847383">
        <ele>1092.0</ele>
        <time>2019-05-04T15:03:52Z</time>
      </trkpt>
      <trkpt lat="38.880550" lon="-5.847383">
        <ele>1093.0</ele>
        <time>2019-05-04T15:03:53Z</time>
      </trkpt>
      <trkpt lat="38.880483" lon="-5.847417">
        <ele>1094.0</ele>
        <time>2019-05-04T15:03:54Z</time>
      </trkpt>
      <trkpt lat="38.880417" lon="-5.847467">
        <ele>1097.0</ele>
        <time>2019-05-04T15:03:55Z</time>
      </trkpt>
      <trkpt lat="38.880383" lon="-5.847550">
        <ele>1099.0</ele>
        <time>2019-05-04T15:03:56Z</time>
      </trkpt>
      <trkpt lat="38.880383" lon="-5.847617">
        <ele>1102.0</ele>
        <time>2019-05-04T15:03:57Z</time>
      </trkpt>
      <trkpt lat="38.880417" lon="-5.847667">
        <ele>1104.0</ele>
        <time>2019-05-04T15:03:58Z</time>
      </trkpt>
      <trkpt lat="38.880467" lon="-5.847700">
        <ele>1106.0</ele>
        <time>2019-05-04T15:03:59Z</time>
      </trkpt>
      <trkpt lat="38.880517" lon="-5.847700">
        <ele>1108.0</ele>
        <time>2019-05-04T15:04:00Z</time>
      </trkpt>
      <trkpt lat="38.880567" lon="-5.847683">
        <ele>1110.0</ele>
        <time>2019-05-04T15:04:01Z</time>
      </trkpt>
      <trkpt lat="38.880633" lon="-5.847617">
        <ele>1111.0</ele>
        <time>2019-05-04T15:04:02Z</time>
      </trkpt>
      <trkpt lat="38.880700" lon="-5.847533">
        <ele>1112.0</ele>
        <time>2019-05-04T15:04:03Z</time>
      </trkpt>
      <trkpt lat="38.880733" lon="-5.847400">
        <ele>1113.0</ele>
        <time>2019-05-04T15:04:04Z</time>
      </trkpt>
      <trkpt lat="38.880750" lon="-5.847283">
        <ele>1114.0</ele>
        <time>2019-05-04T15:04:05Z</time>
      </trkpt>
      <trkpt lat="38.880733" lon="-5.847167">
        <ele>1116.0</ele>
        <time>2019-05-04T15:04:06Z</time>
      </trkpt>
      <trkpt lat="38.880700" lon="-5.847050">
        <ele>1118.0</ele>
        <time>2019-05-04T15:04:07Z</time>
      </trkpt>
      <trkpt lat="38.880650" lon="-5.846950">
        <ele>1121.0</ele>
        <time>2019-05-04T15:04:08Z</time>
      </trkpt>
      <trkpt lat="38.880600" lon="-5.846850">
        <ele>1123.0</ele>
        <time>2019-05-04T15:04:09Z</time>
      </trkpt>
      <trkpt lat="38.880533" lon="-5.846767">
        <ele>1125.0</ele>
        <time>2019-05-04T15:04:10Z</time>
      </trkpt>
      <trkpt lat="38.880450" lon="-5.846700">
        <ele>1126.0</ele>
        <time>2019-05-04T15:04:11Z</time>
      </trkpt>
      <trkpt lat="38.880350" lon="-5.846683">
        <ele>1126.0</ele>
        <time>2019-05-04T15:04:12Z</time>
      </trkpt>
      <trkpt lat="38.880267" lon="-5.846700">
        <ele>1127.0</ele>
        <time>2019-05-04T15:04:13Z</time>
      </trkpt>
      <trkpt lat="38.880183" lon="-5.846750">
        <ele>1128.0</ele>
        <time>2019-05-04T15:04:14Z</time>
      </trkpt>
      <trkpt lat="38.880150" lon="-5.846817">
        <ele>1130.0</ele>
        <time>2019-05-04T15:04:15Z</time>
      </trkpt>
      <trkpt lat="38.880133" lon="-5.846867">
        <ele>1132.0</ele>
        <time>2019-05-04T15:04:16Z</time>
      </trkpt>
      <trkpt lat="38.880150" lon="-5.846917">
        <ele>1134.0</ele>
        <time>2019-05-04T15:04:17Z</time>
      </trkpt>
      <trkpt lat="38.880183" lon="-5.846967">
        <ele>1135.0</ele>
        <time>2019-05-04T15:04:18Z</time>
      </trkpt>
      <trkpt lat="38.880233" lon="-5.847000">
        <ele>1136.0</ele>
        <time>2019-05-04T15:04:19Z</time>
      </trkpt>
      <trkpt lat="38.880300" lon="-5.847017">
        <ele>1138.0</ele>
        <time>2019-05-04T15:04:20Z</time>
      </trkpt>
      <trkpt lat="38.880367" lon="-5.847000">
        <ele>1140.0</ele>
        <time>2019-05-04T15:04:21Z</time>
      </trkpt>
      <trkpt lat="38.880450" lon="-5.846983">
        <ele>1141.0</ele>
        <time>2019-05-04T15:04:22Z</time>
      </trkpt>
      <trkpt lat="38.880517" lon="-5.846950">
        <ele>1143.0</ele>
        <time>2019-05-04T15:04:23Z</time>
      </trkpt>
      <trkpt lat="38.880583" lon="-5.846883">
        <ele>1145.0</ele>
        <time>2019-05-04T15:04:24Z</time>
      </trkpt>
      <trkpt lat="38.880650" lon="-5.846800">
        <ele>1146.0</ele>
        <time>2019-05-04T15:04:25Z</time>
      </trkpt>
      <trkpt lat="38.880667" lon="-5.846700">
        <ele>1148.0</ele>
        <time>2019-05-04T15:04:26Z</time>
      </trkpt>
      <trkpt lat="38.880667" lon="-5.846583">
        <ele>1149.0</ele>
        <time>2019-05-04T15:04:27Z</time>
      </trkpt>
      <trkpt lat="38.880633" lon="-5.846483">
        <ele>1149.0</ele>
        <time>2019-05-04T15:04:28Z</time>
      </trkpt>
      <trkpt lat="38.880567" lon="-5.846400">
        <ele>1149.0</ele>
        <time>2019-05-04T15:04:29Z</time>
      </trkpt>
      <trkpt lat="38.880500" lon="-5.846333">
        <ele>1150.0</ele>
        <time>2019-05-04T15:04:30Z</time>
      </trkpt>
      <trkpt lat="38.880417" lon="-5.846300">
        <ele>1151.0</ele>
        <time>2019-05-04T15:04:31Z</time>
      </trkpt>
      <trkpt lat="38.880350" lon="-5.846300">
        <ele>1152.0</ele>
        <time>2019-05-04T15:04:32Z</time>
      </trkpt>
      <trkpt lat="38.880267" lon="-5.846317">
        <ele>1153.0</ele>
        <time>2019-05-04T15:04:33Z</time>
      </trkpt>
      <trkpt lat="38.880200" lon="-5.846367">
        <ele>1153.0</ele>
        <time>2019-05-04T15:04:34Z</time>
      </trkpt>
      <trkpt lat="38.880150" lon="-5.846433">
        <ele>1154.0</ele>
        <time>2019-05-04T15:04:35Z</time>
      </trkpt>
      <trkpt lat="38.880100" lon="-5.846500">
        <ele>1155.0</ele>
        <time>2019-05-04T15:04:36Z</time>
      </trkpt>
      <trkpt lat="38.880033" lon="-5.846550">
        <ele>1157.0</ele>
        <time>2019-05-04T15:04:37Z</time>
      </trkpt>
      <trkpt lat="38.879983" lon="-5.846583">
        <ele>1160.0</ele>
        <time>2019-05-04T15:04:38Z</time>
      </trkpt>
      <trkpt lat="38.879933" lon="-5.846650">
        <ele>1162.0</ele>
        <time>2019-05-04T15:04:39Z</time>
      </trkpt>
      <trkpt lat="38.879900" lon="-5.846717">
        <ele>1164.0</ele>
        <time>2019-05-04T15:04:40Z</time>
      </trkpt>
      <trkpt lat="38.879883" lon="-5.846800">
        <ele>1165.0</ele>
        <time>2019-05-04T15:04:41Z</time>
      </trkpt>
      <trkpt lat="38.879867" lon="-5.846850">
        <ele>1168.0</ele>
        <time>2019-05-04T15:04:42Z</time>
      </trkpt>
      <trkpt lat="38.879850" lon="-5.846917">
        <ele>1171.0</ele>
        <time>2019-05-04T15:04:43Z</time>
      </trkpt>
      <trkpt lat="38.879850" lon="-5.846967">
        <ele>1173.0</ele>
        <time>2019-05-04T15:04:44Z</time>
      </trkpt>
      <trkpt lat="38.879833" lon="-5.847033">
        <ele>1175.0</ele>
        <time>2019-05-04T15:04:45Z</time>
      </trkpt>
      <trkpt lat="38.879817" lon="-5.847067">
        <ele>1176.0</ele>
        <time>2019-05-04T15:04:46Z</time>
      </trkpt>
      <trkpt lat="38.879817" lon="-5.847133">
        <ele>1175.0</ele>
        <time>2019-05-04T15:04:47Z</time>
      </trkpt>
      <trkpt lat="38.879833" lon="-5.847183">
        <ele>1174.0</ele>
        <time>2019-05-04T15:04:48Z</time>
      </trkpt>
      <trkpt lat="38.879867" lon="-5.847200">
        <ele>1171.0</ele>
        <time>2019-05-04T15:04:49Z</time>
      </trkpt>
      <trkpt lat="38.879917" lon="-5.847200">
        <ele>1168.0</ele>
        <time>2019-05-04T15:04:50Z</time>
      </trkpt>
      <trkpt lat="38.880000" lon="-5.847133">
        <ele>1165.0</ele>
        <time>2019-05-04T15:04:51Z</time>
      </trkpt>
      <trkpt lat="38.880033" lon="-5.847050">
        <ele>1162.0</ele>
        <time>2019-05-04T15:04:52Z</time>
      </trkpt>
      <trkpt lat="38.880050" lon="-5.846933">
        <ele>1160.0</ele>
        <time>2019-05-04T15:04:53Z</time>
      </trkpt>
      <trkpt lat="38.880050" lon="-5.846817">
        <ele>1158.0</ele>
        <time>2019-05-04T15:04:54Z</time>
      </trkpt>
      <trkpt lat="38.880033" lon="-5.846700">
        <ele>1157.0</ele>
        <time>2019-05-04T15:04:55Z</time>
      </trkpt>
      <trkpt lat="38.880017" lon="-5.846567">
        <ele>1155.0</ele>
        <time>2019-05-04T15:04:56Z</time>
      </trkpt>
      <trkpt lat="38.879983" lon="-5.846433">
        <ele>1153.0</ele>
        <time>2019-05-04T15:04:57Z</time>
      </trkpt>
      <trkpt lat="38.879917" lon="-5.846300">
        <ele>1151.0</ele>
        <time>2019-05-04T15:04:58Z</time>
      </trkpt>
      <trkpt lat="38.879817" lon="-5.846183">
        <ele>1149.0</ele>
        <time>2019-05-04T15:04:59Z</time>
      </trkpt>
      <trkpt lat="38.879733" lon="-5.846100">
        <ele>1148.0</ele>
        <time>2019-05-04T15:05:00Z</time>
      </trkpt>
      <trkpt lat="38.879617" lon="-5.846033">
        <ele>1148.0</ele>
        <time>2019-05-04T15:05:01Z</time>
      </trkpt>
      <trkpt lat="38.879533" lon="-5.845983">
        <ele>1150.0</ele>
        <time>2019-05-04T15:05:02Z</time>
      </trkpt>
      <trkpt lat="38.879433" lon="-5.845917">
        <ele>1151.0</ele>
        <time>2019-05-04T15:05:03Z</time>
      </trkpt>
      <trkpt lat="38.879350" lon="-5.845850">
        <ele>1152.0</ele>
        <time>2019-05-04T15:05:04Z</time>
      </trkpt>
      <trkpt lat="38.879233" lon="-5.845783">
        <ele>1153.0</ele>
        <time>2019-05-04T15:05:05Z</time>
      </trkpt>
      <trkpt lat="38.879133" lon="-5.845733">
        <ele>1154.0</ele>
        <time>2019-05-04T15:05:06Z</time>
      </trkpt>
      <trkpt lat="38.879033" lon="-5.845717">
        <ele>1158.0</ele>
        <time>2019-05-04T15:05:07Z</time>
      </trkpt>
      <trkpt lat="38.878983" lon="-5.845750">
        <ele>1161.0</ele>
        <time>2019-05-04T15:05:08Z</time>
      </trkpt>
      <trkpt lat="38.878917" lon="-5.845800">
        <ele>1163.0</ele>
        <time>2019-05-04T15:05:09Z</time>
      </trkpt>
      <trkpt lat="38.878883" lon="-5.845833">
        <ele>1166.0</ele>
        <time>2019-05-04T15:05:10Z</time>
      </trkpt>
      <trkpt lat="38.878850" lon="-5.845900">
        <ele>1170.0</ele>
        <time>2019-05-04T15:05:11Z</time>
      </trkpt>
      <trkpt lat="38.878833" lon="-5.845967">
        <ele>1172.0</ele>
        <time>2019-05-04T15:05:12Z</time>
      </trkpt>
      <trkpt lat="38.878850" lon="-5.846033">
        <ele>1175.0</ele>
        <time>2019-05-04T15:05:13Z</time>
      </trkpt>
      <trkpt lat="38.878883" lon="-5.846067">
        <ele>1178.0</ele>
        <time>2019-05-04T15:05:14Z</time>
      </trkpt>
      <trkpt lat="38.878950" lon="-5.846050">
        <ele>1179.0</ele>
        <time>2019-05-04T15:05:15Z</time>
      </trkpt>
      <trkpt lat="38.879000" lon="-5.845967">
        <ele>1181.0</ele>
        <time>2019-05-04T15:05:16Z</time>
      </trkpt>
      <trkpt lat="38.879050" lon="-5.845883">
        <ele>1182.0</ele>
        <time>2019-05-04T15:05:17Z</time>
      </trkpt>
      <trkpt lat="38.879100" lon="-5.845750">
        <ele>1183.0</ele>
        <time>2019-05-04T15:05:18Z</time>
      </trkpt>
      <trkpt lat="38.879100" lon="-5.845617">
        <ele>1185.0</ele>
        <time>2019-05-04T15:05:19Z</time>
      </trkpt>
      <trkpt lat="38.879083" lon="-5.845467">
        <ele>1186.0</ele>
        <time>2019-05-04T15:05:20Z</time>
      </trkpt>
      <trkpt lat="38.879050" lon="-5.845300">
        <ele>1187.0</ele>
        <time>2019-05-04T15:05:21Z</time>
      </trkpt>
      <trkpt lat="38.878983" lon="-5.845167">
        <ele>1188.0</ele>
        <time>2019-05-04T15:05:22Z</time>
      </trkpt>
      <trkpt lat="38.878900" lon="-5.845067">
        <ele>1190.0</ele>
        <time>2019-05-04T15:05:23Z</time>
      </trkpt>
      <trkpt lat="38.878800" lon="-5.844983">
        <ele>1192.0</ele>
        <time>2019-05-04T15:05:24Z</time>
      </trkpt>
      <trkpt lat="38.878717" lon="-5.844917">
        <ele>1194.0</ele>
        <time>2019-05-04T15:05:25Z</time>
      </trkpt>
      <trkpt lat="38.878617" lon="-5.844883">
        <ele>1197.0</ele>
        <time>2019-05-04T15:05:26Z</time>
      </trkpt>
      <trkpt lat="38.878517" lon="-5.844867">
        <ele>1200.0</ele>
        <time>2019-05-04T15:05:27Z</time>
      </trkpt>
      <trkpt lat="38.878433" lon="-5.844883">
        <ele>1203.0</ele>
        <time>2019-05-04T15:05:28Z</time>
      </trkpt>
      <trkpt lat="38.878367" lon="-5.844917">
        <ele>1206.0</ele>
        <time>2019-05-04T15:05:29Z</time>
      </trkpt>
      <trkpt lat="38.878300" lon="-5.844967">
        <ele>1208.0</ele>
        <time>2019-05-04T15:05:30Z</time>
      </trkpt>
      <trkpt lat="38.878267" lon="-5.845033">
        <ele>1211.0</ele>
        <time>2019-05-04T15:05:31Z</time>
      </trkpt>
      <trkpt lat="38.878267" lon="-5.845100">
        <ele>1213.0</ele>
        <time>2019-05-04T15:05:32Z</time>
      </trkpt>
      <trkpt lat="38.878283" lon="-5.845167">
        <ele>1215.0</ele>
        <time>2019-05-04T15:05:33Z</time>
      </trkpt>
      <trkpt lat="38.878333" lon="-5.845217">
        <ele>1217.0</ele>
        <time>2019-05-04T15:05:34Z</time>
      </trkpt>
      <trkpt lat="38.878400" lon="-5.845233">
        <ele>1220.0</ele>
        <time>2019-05-04T15:05:35Z</time>
      </trkpt>
      <trkpt lat="38.878467" lon="-5.845183">
        <ele>1221.0</ele>
        <time>2019-05-04T15:05:36Z</time>
      </trkpt>
      <trkpt lat="38.878533" lon="-5.845100">
        <ele>1224.0</ele>
        <time>2019-05-04T15:05:37Z</time>
      </trkpt>
      <trkpt lat="38.878550" lon="-5.844967">
        <ele>1228.0</ele>
        <time>2019-05-04T15:05:38Z</time>
      </trkpt>
      <trkpt lat="38.878550" lon="-5.844817">
        <ele>1230.0</ele>
        <time>2019-05-04T15:05:39Z</time>
      </trkpt>
      <trkpt lat="38.878517" lon="-5.844667">
        <ele>1231.0</ele>
        <time>2019-05-04T15:05:40Z</time>
      </trkpt>
      <trkpt lat="38.878467" lon="-5.844533">
        <ele>1234.0</ele>
        <time>2019-05-04T15:05:41Z</time>
      </trkpt>
      <trkpt lat="38.878400" lon="-5.844433">
        <ele>1236.0</ele>
        <time>2019-05-04T15:05:42Z</time>
      </trkpt>
      <trkpt lat="38.878317" lon="-5.844350">
        <ele>1239.0</ele>
        <time>2019-05-04T15:05:43Z</time>
      </trkpt>
      <trkpt lat="38.878250" lon="-5.844333">
        <ele>1241.0</ele>
        <time>2019-05-04T15:05:44Z</time>
      </trkpt>
      <trkpt lat="38.878183" lon="-5.844350">
        <ele>1239.0</ele>
        <time>2019-05-04T15:05:45Z</time>
      </trkpt>
      <trkpt lat="38.878117" lon="-5.844400">
        <ele>1238.0</ele>
        <time>2019-05-04T15:05:46Z</time>
      </trkpt>
      <trkpt lat="38.878100" lon="-5.844467">
        <ele>1238.0</ele>
        <time>2019-05-04T15:05:47Z</time>
      </trkpt>
      <trkpt lat="38.878100" lon="-5.844533">
        <ele>1239.0</ele>
        <time>2019-05-04T15:05:48Z</time>
      </trkpt>
      <trkpt lat="38.878117" lon="-5.844600">
        <ele>1240.0</ele>
        <time>2019-05-04T15:05:49Z</time>
      </trkpt>
      <trkpt lat="38.878167" lon="-5.844650">
        <ele>1243.0</ele>
        <time>2019-05-04T15:05:50Z</time>
      </trkpt>
      <trkpt lat="38.878217" lon="-5.844667">
        <ele>1245.0</ele>
        <time>2019-05-04T15:05:51Z</time>
      </trkpt>
      <trkpt lat="38.878283" lon="-5.844650">
        <ele>1248.0</ele>
        <time>2019-05-04T15:05:52Z</time>
      </trkpt>
      <trkpt lat="38.878350" lon="-5.844583">
        <ele>1247.0</ele>
        <time>2019-05-04T15:05:53Z</time>
      </trkpt>
      <trkpt lat="38.878400" lon="-5.844483">
        <ele>1249.0</ele>
        <time>2019-05-04T15:05:54Z</time>
      </trkpt>
      <trkpt lat="38.878417" lon="-5.844350">
        <ele>1250.0</ele>
        <time>2019-05-04T15:05:55Z</time>
      </trkpt>
      <trkpt lat="38.878400" lon="-5.844200">
        <ele>1252.0</ele>
        <time>2019-05-04T15:05:56Z</time>
      </trkpt>
      <trkpt lat="38.878350" lon="-5.844050">
        <ele>1253.0</ele>
        <time>2019-05-04T15:05:57Z</time>
      </trkpt>
      <trkpt lat="38.878267" lon="-5.843933">
        <ele>1255.0</ele>
        <time>2019-05-04T15:05:58Z</time>
      </trkpt>
      <trkpt lat="38.878183" lon="-5.843867">
        <ele>1257.0</ele>
        <time>2019-05-04T15:05:59Z</time>
      </trkpt>
      <trkpt lat="38.878083" lon="-5.843833">
        <ele>1259.0</ele>
        <time>2019-05-04T15:06:00Z</time>
      </trkpt>
      <trkpt lat="38.877983" lon="-5.843800">
        <ele>1260.0</ele>
        <time>2019-05-04T15:06:01Z</time>
      </trkpt>
      <trkpt lat="38.877917" lon="-5.843800">
        <ele>1263.0</ele>
        <time>2019-05-04T15:06:02Z</time>
      </trkpt>
      <trkpt lat="38.877850" lon="-5.843783">
        <ele>1263.0</ele>
        <time>2019-05-04T15:06:03Z</time>
      </trkpt>
      <trkpt lat="38.877767" lon="-5.843800">
        <ele>1263.0</ele>
        <time>2019-05-04T15:06:04Z</time>
      </trkpt>
      <trkpt lat="38.877700" lon="-5.843850">
        <ele>1264.0</ele>
        <time>2019-05-04T15:06:05Z</time>
      </trkpt>
      <trkpt lat="38.877650" lon="-5.843917">
        <ele>1265.0</ele>
        <time>2019-05-04T15:06:06Z</time>
      </trkpt>
      <trkpt lat="38.877633" lon="-5.843983">
        <ele>1265.0</ele>
        <time>2019-05-04T15:06:07Z</time>
      </trkpt>
      <trkpt lat="38.877650" lon="-5.844067">
        <ele>1266.0</ele>
        <time>2019-05-04T15:06:08Z</time>
      </trkpt>
      <trkpt lat="38.877700" lon="-5.844100">
        <ele>1269.0</ele>
        <time>2019-05-04T15:06:09Z</time>
      </trkpt>
      <trkpt lat="38.877750" lon="-5.844100">
        <ele>1272.0</ele>
        <time>2019-05-04T15:06:10Z</time>
      </trkpt>
      <trkpt lat="38.877800" lon="-5.844067">
        <ele>1275.0</ele>
        <time>2019-05-04T15:06:11Z</time>
      </trkpt>
      <trkpt lat="38.877850" lon="-5.844000">
        <ele>1277.0</ele>
        <time>2019-05-04T15:06:12Z</time>
      </trkpt>
      <trkpt lat="38.877883" lon="-5.843900">
        <ele>1279.0</ele>
        <time>2019-05-04T15:06:13Z</time>
      </trkpt>
      <trkpt lat="38.877917" lon="-5.843767">
        <ele>1281.0</ele>
        <time>2019-05-04T15:06:14Z</time>
      </trkpt>
      <trkpt lat="38.877917" lon="-5.843633">
        <ele>1282.0</ele>
        <time>2019-05-04T15:06:15Z</time>
      </trkpt>
      <trkpt lat="38.877883" lon="-5.843483">
        <ele>1283.0</ele>
        <time>2019-05-04T15:06:16Z</time>
      </trkpt>
      <trkpt lat="38.877817" lon="-5.843350">
        <ele>1284.0</ele>
        <time>2019-05-04T15:06:17Z</time>
      </trkpt>
      <trkpt lat="38.877717" lon="-5.843250">
        <ele>1285.0</ele>
        <time>2019-05-04T15:06:18Z</time>
      </trkpt>
      <trkpt lat="38.877617" lon="-5.843200">
        <ele>1285.0</ele>
        <time>2019-05-04T15:06:19Z</time>
      </trkpt>
      <trkpt lat="38.877500" lon="-5.843200">
        <ele>1286.0</ele>
        <time>2019-05-04T15:06:20Z</time>
      </trkpt>
      <trkpt lat="38.877417" lon="-5.843250">
        <ele>1286.0</ele>
        <time>2019-05-04T15:06:21Z</time>
      </trkpt>
      <trkpt lat="38.877367" lon="-5.843300">
        <ele>1288.0</ele>
        <time>2019-05-04T15:06:22Z</time>
      </trkpt>
      <trkpt lat="38.877317" lon="-5.843367">
        <ele>1289.0</ele>
        <time>2019-05-04T15:06:23Z</time>
      </trkpt>
      <trkpt lat="38.877283" lon="-5.843433">
        <ele>1291.0</ele>
        <time>2019-05-04T15:06:24Z</time>
      </trkpt>
      <trkpt lat="38.877233" lon="-5.843483">
        <ele>1292.0</ele>
        <time>2019-05-04T15:06:25Z</time>
      </trkpt>
      <trkpt lat="38.877200" lon="-5.843550">
        <ele>1294.0</ele>
        <time>2019-05-04T15:06:26Z</time>
      </trkpt>
      <trkpt lat="38.877183" lon="-5.843600">
        <ele>1295.0</ele>
        <time>2019-05-04T15:06:27Z</time>
      </trkpt>
      <trkpt lat="38.877167" lon="-5.843667">
        <ele>1297.0</ele>
        <time>2019-05-04T15:06:28Z</time>
      </trkpt>
      <trkpt lat="38.877183" lon="-5.843733">
        <ele>1298.0</ele>
        <time>2019-05-04T15:06:29Z</time>
      </trkpt>
      <trkpt lat="38.877200" lon="-5.843783">
        <ele>1300.0</ele>
        <time>2019-05-04T15:06:30Z</time>
      </trkpt>
      <trkpt lat="38.877233" lon="-5.843833">
        <ele>1302.0</ele>
        <time>2019-05-04T15:06:31Z</time>
      </trkpt>
      <trkpt lat="38.877250" lon="-5.843867">
        <ele>1305.0</ele>
        <time>2019-05-04T15:06:32Z</time>
      </trkpt>
      <trkpt lat="38.877250" lon="-5.843917">
        <ele>1308.0</ele>
        <time>2019-05-04T15:06:33Z</time>
      </trkpt>
      <trkpt lat="38.877267" lon="-5.843967">
        <ele>1310.0</ele>
        <time>2019-05-04T15:06:34Z</time>
      </trkpt>
      <trkpt lat="38.877300" lon="-5.844017">
        <ele>1312.0</ele>
        <time>2019-05-04T15:06:35Z</time>
      </trkpt>
      <trkpt lat="38.877333" lon="-5.844033">
        <ele>1313.0</ele>
        <time>2019-05-04T15:06:36Z</time>
      </trkpt>
      <trkpt lat="38.877400" lon="-5.844000">
        <ele>1314.0</ele>
        <time>2019-05-04T15:06:37Z</time>
      </trkpt>
      <trkpt lat="38.877467" lon="-5.843933">
        <ele>1314.0</ele>
        <time>2019-05-04T15:06:38Z</time>
      </trkpt>
      <trkpt lat="38.877517" lon="-5.843833">
        <ele>1314.0</ele>
        <time>2019-05-04T15:06:39Z</time>
      </trkpt>
      <trkpt lat="38.877550" lon="-5.843717">
        <ele>1314.0</ele>
        <time>2019-05-04T15:06:40Z</time>
      </trkpt>
      <trkpt lat="38.877567" lon="-5.843567">
        <ele>1314.0</ele>
        <time>2019-05-04T15:06:41Z</time>
      </trkpt>
      <trkpt lat="38.877550" lon="-5.843433">
        <ele>1314.0</ele>
        <time>2019-05-04T15:06:42Z</time>
      </trkpt>
      <trkpt lat="38.877517" lon="-5.843283">
        <ele>1314.0</ele>
        <time>2019-05-04T15:06:43Z</time>
      </trkpt>
      <trkpt lat="38.877450" lon="-5.843150">
        <ele>1314.0</ele>
        <time>2019-05-04T15:06:44Z</time>
      </trkpt>
      <trkpt lat="38.877350" lon="-5.843050">
        <ele>1314.0</ele>
        <time>2019-05-04T15:06:45Z</time>
      </trkpt>
      <trkpt lat="38.877250" lon="-5.843000">
        <ele>1314.0</ele>
        <time>2019-05-04T15:06:46Z</time>
      </trkpt>
      <trkpt lat="38.877133" lon="-5.842967">
        <ele>1314.0</ele>
        <time>2019-05-04T15:06:47Z</time>
      </trkpt>
      <trkpt lat="38.877033" lon="-5.842967">
        <ele>1317.0</ele>
        <time>2019-05-04T15:06:48Z</time>
      </trkpt>
      <trkpt lat="38.876967" lon="-5.842983">
        <ele>1320.0</ele>
        <time>2019-05-04T15:06:49Z</time>
      </trkpt>
      <trkpt lat="38.876900" lon="-5.843017">
        <ele>1322.0</ele>
        <time>2019-05-04T15:06:50Z</time>
      </trkpt>
      <trkpt lat="38.876833" lon="-5.843033">
        <ele>1323.0</ele>
        <time>2019-05-04T15:06:51Z</time>
      </trkpt>
      <trkpt lat="38.876767" lon="-5.843067">
        <ele>1324.0</ele>
        <time>2019-05-04T15:06:52Z</time>
      </trkpt>
      <trkpt lat="38.876717" lon="-5.843133">
        <ele>1324.0</ele>
        <time>2019-05-04T15:06:53Z</time>
      </trkpt>
      <trkpt lat="38.876700" lon="-5.843200">
        <ele>1324.0</ele>
        <time>2019-05-04T15:06:54Z</time>
      </trkpt>
      <trkpt lat="38.876700" lon="-5.843267">
        <ele>1324.0</ele>
        <time>2019-05-04T15:06:55Z</time>
      </trkpt>
      <trkpt lat="38.876733" lon="-5.843317">
        <ele>1324.0</ele>
        <time>2019-05-04T15:06:56Z</time>
      </trkpt>
      <trkpt lat="38.876783" lon="-5.843367">
        <ele>1325.0</ele>
        <time>2019-05-04T15:06:57Z</time>
      </trkpt>
      <trkpt lat="38.876850" lon="-5.843383">
        <ele>1328.0</ele>
        <time>2019-05-04T15:06:58Z</time>
      </trkpt>
      <trkpt lat="38.876900" lon="-5.843383">
        <ele>1330.0</ele>
        <time>2019-05-04T15:06:59Z</time>
      </trkpt>
      <trkpt lat="38.876967" lon="-5.843333">
        <ele>1331.0</ele>
        <time>2019-05-04T15:07:00Z</time>
      </trkpt>
      <trkpt lat="38.877033" lon="-5.843283">
        <ele>1331.0</ele>
        <time>2019-05-04T15:07:01Z</time>
      </trkpt>
      <trkpt lat="38.877083" lon="-5.843200">
        <ele>1331.0</ele>
        <time>2019-05-04T15:07:02Z</time>
      </trkpt>
      <trkpt lat="38.877117" lon="-5.843100">
        <ele>1331.0</ele>
        <time>2019-05-04T15:07:03Z</time>
      </trkpt>
      <trkpt lat="38.877133" lon="-5.842967">
        <ele>1331.0</ele>
        <time>2019-05-04T15:07:04Z</time>
      </trkpt>
      <trkpt lat="38.877117" lon="-5.842817">
        <ele>1331.0</ele>
        <time>2019-05-04T15:07:05Z</time>
      </trkpt>
      <trkpt lat="38.877083" lon="-5.842650">
        <ele>1331.0</ele>
        <time>2019-05-04T15:07:06Z</time>
      </trkpt>
      <trkpt lat="38.877017" lon="-5.842533">
        <ele>1331.0</ele>
        <time>2019-05-04T15:07:07Z</time>
      </trkpt>
      <trkpt lat="38.876933" lon="-5.842450">
        <ele>1331.0</ele>
        <time>2019-05-04T15:07:08Z</time>
      </trkpt>
      <trkpt lat="38.876833" lon="-5.842400">
        <ele>1331.0</ele>
        <time>2019-05-04T15:07:09Z</time>
      </trkpt>
      <trkpt lat="38.876733" lon="-5.842383">
        <ele>1330.0</ele>
        <time>2019-05-04T15:07:10Z</time>
      </trkpt>
      <trkpt lat="38.876650" lon="-5.842400">
        <ele>1332.0</ele>
        <time>2019-05-04T15:07:11Z</time>
      </trkpt>
      <trkpt lat="38.876583" lon="-5.842417">
        <ele>1333.0</ele>
        <time>2019-05-04T15:07:12Z</time>
      </trkpt>
      <trkpt lat="38.876533" lon="-5.842450">
        <ele>1334.0</ele>
        <time>2019-05-04T15:07:13Z</time>
      </trkpt>
      <trkpt lat="38.876467" lon="-5.842483">
        <ele>1334.0</ele>
        <time>2019-05-04T15:07:14Z</time>
      </trkpt>
      <trkpt lat="38.876417" lon="-5.842517">
        <ele>1335.0</ele>
        <time>2019-05-04T15:07:15Z</time>
      </trkpt>
      <trkpt lat="38.876350" lon="-5.842567">
        <ele>1335.0</ele>
        <time>2019-05-04T15:07:16Z</time>
      </trkpt>
      <trkpt lat="38.876300" lon="-5.842633">
        <ele>1335.0</ele>
        <time>2019-05-04T15:07:17Z</time>
      </trkpt>
      <trkpt lat="38.876267" lon="-5.842717">
        <ele>1336.0</ele>
        <time>2019-05-04T15:07:18Z</time>
      </trkpt>
      <trkpt lat="38.876233" lon="-5.842783">
        <ele>1336.0</ele>
        <time>2019-05-04T15:07:19Z</time>
      </trkpt>
      <trkpt lat="38.876200" lon="-5.842850">
        <ele>1336.0</ele>
        <time>2019-05-04T15:07:20Z</time>
      </trkpt>
      <trkpt lat="38.876150" lon="-5.842933">
        <ele>1336.0</ele>
        <time>2019-05-04T15:07:21Z</time>
      </trkpt>
      <trkpt lat="38.876117" lon="-5.843000">
        <ele>1335.0</ele>
        <time>2019-05-04T15:07:22Z</time>
      </trkpt>
      <trkpt lat="38.876083" lon="-5.843083">
        <ele>1334.0</ele>
        <time>2019-05-04T15:07:23Z</time>
      </trkpt>
      <trkpt lat="38.876033" lon="-5.843183">
        <ele>1334.0</ele>
        <time>2019-05-04T15:07:24Z</time>
      </trkpt>
      <trkpt lat="38.876000" lon="-5.843267">
        <ele>1333.0</ele>
        <time>2019-05-04T15:07:25Z</time>
      </trkpt>
      <trkpt lat="38.875967" lon="-5.843367">
        <ele>1333.0</ele>
        <time>2019-05-04T15:07:26Z</time>
      </trkpt>
      <trkpt lat="38.875950" lon="-5.843450">
        <ele>1332.0</ele>
        <time>2019-05-04T15:07:27Z</time>
      </trkpt>
      <trkpt lat="38.875917" lon="-5.843550">
        <ele>1332.0</ele>
        <time>2019-05-04T15:07:28Z</time>
      </trkpt>
      <trkpt lat="38.875883" lon="-5.843633">
        <ele>1333.0</ele>
        <time>2019-05-04T15:07:29Z</time>
      </trkpt>
      <trkpt lat="38.875850" lon="-5.843717">
        <ele>1335.0</ele>
        <time>2019-05-04T15:07:30Z</time>
      </trkpt>
      <trkpt lat="38.875800" lon="-5.843783">
        <ele>1337.0</ele>
        <time>2019-05-04T15:07:31Z</time>
      </trkpt>
      <trkpt lat="38.875767" lon="-5.843850">
        <ele>1337.0</ele>
        <time>2019-05-04T15:07:32Z</time>
      </trkpt>
      <trkpt lat="38.875717" lon="-5.843933">
        <ele>1338.0</ele>
        <time>2019-05-04T15:07:33Z</time>
      </trkpt>
      <trkpt lat="38.875700" lon="-5.844033">
        <ele>1337.0</ele>
        <time>2019-05-04T15:07:34Z</time>
      </trkpt>
      <trkpt lat="38.875700" lon="-5.844133">
        <ele>1337.0</ele>
        <time>2019-05-04T15:07:35Z</time>
      </trkpt>
      <trkpt lat="38.875733" lon="-5.844200">
        <ele>1337.0</ele>
        <time>2019-05-04T15:07:36Z</time>
      </trkpt>
      <trkpt lat="38.875783" lon="-5.844217">
        <ele>1338.0</ele>
        <time>2019-05-04T15:07:37Z</time>
      </trkpt>
      <trkpt lat="38.875850" lon="-5.844217">
        <ele>1339.0</ele>
        <time>2019-05-04T15:07:38Z</time>
      </trkpt>
      <trkpt lat="38.875917" lon="-5.844167">
        <ele>1341.0</ele>
        <time>2019-05-04T15:07:39Z</time>
      </trkpt>
      <trkpt lat="38.875967" lon="-5.844100">
        <ele>1342.0</ele>
        <time>2019-05-04T15:07:40Z</time>
      </trkpt>
      <trkpt lat="38.876000" lon="-5.844017">
        <ele>1344.0</ele>
        <time>2019-05-04T15:07:41Z</time>
      </trkpt>
      <trkpt lat="38.876017" lon="-5.843900">
        <ele>1345.0</ele>
        <time>2019-05-04T15:07:42Z</time>
      </trkpt>
      <trkpt lat="38.876000" lon="-5.843783">
        <ele>1346.0</ele>
        <time>2019-05-04T15:07:43Z</time>
      </trkpt>
      <trkpt lat="38.875967" lon="-5.843650">
        <ele>1346.0</ele>
        <time>2019-05-04T15:07:44Z</time>
      </trkpt>
      <trkpt lat="38.875917" lon="-5.843533">
        <ele>1347.0</ele>
        <time>2019-05-04T15:07:45Z</time>
      </trkpt>
      <trkpt lat="38.875833" lon="-5.843417">
        <ele>1348.0</ele>
        <time>2019-05-04T15:07:46Z</time>
      </trkpt>
      <trkpt lat="38.875733" lon="-5.843333">
        <ele>1348.0</ele>
        <time>2019-05-04T15:07:47Z</time>
      </trkpt>
      <trkpt lat="38.875633" lon="-5.843283">
        <ele>1349.0</ele>
        <time>2019-05-04T15:07:48Z</time>
      </trkpt>
      <trkpt lat="38.875533" lon="-5.843283">
        <ele>1349.0</ele>
        <time>2019-05-04T15:07:49Z</time>
      </trkpt>
      <trkpt lat="38.875450" lon="-5.843283">
        <ele>1349.0</ele>
        <time>2019-05-04T15:07:50Z</time>
      </trkpt>
      <trkpt lat="38.875367" lon="-5.843317">
        <ele>1349.0</ele>
        <time>2019-05-04T15:07:51Z</time>
      </trkpt>
      <trkpt lat="38.875283" lon="-5.843350">
        <ele>1349.0</ele>
        <time>2019-05-04T15:07:52Z</time>
      </trkpt>
      <trkpt lat="38.875200" lon="-5.843400">
        <ele>1349.0</ele>
        <time>2019-05-04T15:07:53Z</time>
      </trkpt>
      <trkpt lat="38.875150" lon="-5.843500">
        <ele>1349.0</ele>
        <time>2019-05-04T15:07:54Z</time>
      </trkpt>
      <trkpt lat="38.875117" lon="-5.843600">
        <ele>1348.0</ele>
        <time>2019-05-04T15:07:55Z</time>
      </trkpt>
      <trkpt lat="38.875100" lon="-5.843700">
        <ele>1348.0</ele>
        <time>2019-05-04T15:07:56Z</time>
      </trkpt>
      <trkpt lat="38.875100" lon="-5.843800">
        <ele>1348.0</ele>
        <time>2019-05-04T15:07:57Z</time>
      </trkpt>
      <trkpt lat="38.875100" lon="-5.843883">
        <ele>1349.0</ele>
        <time>2019-05-04T15:07:58Z</time>
      </trkpt>
      <trkpt lat="38.875083" lon="-5.843967">
        <ele>1350.0</ele>
        <time>2019-05-04T15:07:59Z</time>
      </trkpt>
      <trkpt lat="38.875100" lon="-5.844050">
        <ele>1351.0</ele>
        <time>2019-05-04T15:08:00Z</time>
      </trkpt>
      <trkpt lat="38.875117" lon="-5.844133">
        <ele>1351.0</ele>
        <time>2019-05-04T15:08:01Z</time>
      </trkpt>
      <trkpt lat="38.875133" lon="-5.844217">
        <ele>1352.0</ele>
        <time>2019-05-04T15:08:02Z</time>
      </trkpt>
      <trkpt lat="38.875150" lon="-5.844300">
        <ele>1353.0</ele>
        <time>2019-05-04T15:08:03Z</time>
      </trkpt>
      <trkpt lat="38.875167" lon="-5.844383">
        <ele>1357.0</ele>
        <time>2019-05-04T15:08:04Z</time>
      </trkpt>
      <trkpt lat="38.875150" lon="-5.844467">
        <ele>1359.0</ele>
        <time>2019-05-04T15:08:05Z</time>
      </trkpt>
      <trkpt lat="38.875150" lon="-5.844550">
        <ele>1362.0</ele>
        <time>2019-05-04T15:08:06Z</time>
      </trkpt>
      <trkpt lat="38.875150" lon="-5.844633">
        <ele>1364.0</ele>
        <time>2019-05-04T15:08:07Z</time>
      </trkpt>
      <trkpt lat="38.875167" lon="-5.844700">
        <ele>1367.0</ele>
        <time>2019-05-04T15:08:08Z</time>
      </trkpt>
      <trkpt lat="38.875217" lon="-5.844733">
        <ele>1369.0</ele>
        <time>2019-05-04T15:08:09Z</time>
      </trkpt>
      <trkpt lat="38.875283" lon="-5.844733">
        <ele>1370.0</ele>
        <time>2019-05-04T15:08:10Z</time>
      </trkpt>
      <trkpt lat="38.875367" lon="-5.844683">
        <ele>1371.0</ele>
        <time>2019-05-04T15:08:11Z</time>
      </trkpt>
      <trkpt lat="38.875400" lon="-5.844583">
        <ele>1372.0</ele>
        <time>2019-05-04T15:08:12Z</time>
      </trkpt>
      <trkpt lat="38.875417" lon="-5.844467">
        <ele>1374.0</ele>
        <time>2019-05-04T15:08:13Z</time>
      </trkpt>
      <trkpt lat="38.875400" lon="-5.844333">
        <ele>1376.0</ele>
        <time>2019-05-04T15:08:14Z</time>
      </trkpt>
      <trkpt lat="38.875350" lon="-5.844200">
        <ele>1377.0</ele>
        <time>2019-05-04T15:08:15Z</time>
      </trkpt>
      <trkpt lat="38.875283" lon="-5.844083">
        <ele>1378.0</ele>
        <time>2019-05-04T15:08:16Z</time>
      </trkpt>
      <trkpt lat="38.875183" lon="-5.844000">
        <ele>1380.0</ele>
        <time>2019-05-04T15:08:17Z</time>
      </trkpt>
      <trkpt lat="38.875083" lon="-5.843967">
        <ele>1382.0</ele>
        <time>2019-05-04T15:08:18Z</time>
      </trkpt>
      <trkpt lat="38.874983" lon="-5.843967">
        <ele>1384.0</ele>
        <time>2019-05-04T15:08:19Z</time>
      </trkpt>
      <trkpt lat="38.874900" lon="-5.844017">
        <ele>1386.0</ele>
        <time>2019-05-04T15:08:20Z</time>
      </trkpt>
      <trkpt lat="38.874833" lon="-5.844083">
        <ele>1388.0</ele>
        <time>2019-05-04T15:08:21Z</time>
      </trkpt>
      <trkpt lat="38.874800" lon="-5.844167">
        <ele>1390.0</ele>
        <time>2019-05-04T15:08:22Z</time>
      </trkpt>
      <trkpt lat="38.874783" lon="-5.844267">
        <ele>1393.0</ele>
        <time>2019-05-04T15:08:23Z</time>
      </trkpt>
      <trkpt lat="38.874800" lon="-5.844333">
        <ele>1395.0</ele>
        <time>2019-05-04T15:08:24Z</time>
      </trkpt>
      <trkpt lat="38.874867" lon="-5.844367">
        <ele>1396.0</ele>
        <time>2019-05-04T15:08:25Z</time>
      </trkpt>
      <trkpt lat="38.874933" lon="-5.844367">
        <ele>1398.0</ele>
        <time>2019-05-04T15:08:26Z</time>
      </trkpt>
      <trkpt lat="38.875000" lon="-5.844300">
        <ele>1399.0</ele>
        <time>2019-05-04T15:08:27Z</time>
      </trkpt>
      <trkpt lat="38.875033" lon="-5.844183">
        <ele>1401.0</ele>
        <time>2019-05-04T15:08:28Z</time>
      </trkpt>
      <trkpt lat="38.875033" lon="-5.844050">
        <ele>1402.0</ele>
        <time>2019-05-04T15:08:29Z</time>
      </trkpt>
      <trkpt lat="38.875000" lon="-5.843917">
        <ele>1403.0</ele>
        <time>2019-05-04T15:08:30Z</time>
      </trkpt>
      <trkpt lat="38.874917" lon="-5.843800">
        <ele>1405.0</ele>
        <time>2019-05-04T15:08:31Z</time>
      </trkpt>
      <trkpt lat="38.874817" lon="-5.843733">
        <ele>1407.0</ele>
        <time>2019-05-04T15:08:32Z</time>
      </trkpt>
      <trkpt lat="38.874733" lon="-5.843683">
        <ele>1409.0</ele>
        <time>2019-05-04T15:08:33Z</time>
      </trkpt>
      <trkpt lat="38.874633" lon="-5.843683">
        <ele>1411.0</ele>
        <time>2019-05-04T15:08:34Z</time>
      </trkpt>
      <trkpt lat="38.874533" lon="-5.843700">
        <ele>1413.0</ele>
        <time>2019-05-04T15:08:35Z</time>
      </trkpt>
      <trkpt lat="38.874450" lon="-5.843750">
        <ele>1415.0</ele>
        <time>2019-05-04T15:08:36Z</time>
      </trkpt>
      <trkpt lat="38.874383" lon="-5.843817">
        <ele>1418.0</ele>
        <time>2019-05-04T15:08:37Z</time>
      </trkpt>
      <trkpt lat="38.874350" lon="-5.843900">
        <ele>1420.0</ele>
        <time>2019-05-04T15:08:38Z</time>
      </trkpt>
      <trkpt lat="38.874350" lon="-5.844000">
        <ele>1421.0</ele>
        <time>2019-05-04T15:08:39Z</time>
      </trkpt>
      <trkpt lat="38.874383" lon="-5.844067">
        <ele>1423.0</ele>
        <time>2019-05-04T15:08:40Z</time>
      </trkpt>
      <trkpt lat="38.874433" lon="-5.844100">
        <ele>1424.0</ele>
        <time>2019-05-04T15:08:41Z</time>
      </trkpt>
      <trkpt lat="38.874500" lon="-5.844083">
        <ele>1426.0</ele>
        <time>2019-05-04T15:08:42Z</time>
      </trkpt>
      <trkpt lat="38.874567" lon="-5.844033">
        <ele>1428.0</ele>
        <time>2019-05-04T15:08:43Z</time>
      </trkpt>
      <trkpt lat="38.874600" lon="-5.843933">
        <ele>1430.0</ele>
        <time>2019-05-04T15:08:44Z</time>
      </trkpt>
      <trkpt lat="38.874617" lon="-5.843833">
        <ele>1432.0</ele>
        <time>2019-05-04T15:08:45Z</time>
      </trkpt>
      <trkpt lat="38.874600" lon="-5.843700">
        <ele>1434.0</ele>
        <time>2019-05-04T15:08:46Z</time>
      </trkpt>
      <trkpt lat="38.874567" lon="-5.843583">
        <ele>1436.0</ele>
        <time>2019-05-04T15:08:47Z</time>
      </trkpt>
      <trkpt lat="38.874500" lon="-5.843483">
        <ele>1438.0</ele>
        <time>2019-05-04T15:08:48Z</time>
      </trkpt>
      <trkpt lat="38.874400" lon="-5.843417">
        <ele>1439.0</ele>
        <time>2019-05-04T15:08:49Z</time>
      </trkpt>
      <trkpt lat="38.874300" lon="-5.843367">
        <ele>1441.0</ele>
        <time>2019-05-04T15:08:50Z</time>
      </trkpt>
      <trkpt lat="38.874200" lon="-5.843383">
        <ele>1442.0</ele>
        <time>2019-05-04T15:08:51Z</time>
      </trkpt>
      <trkpt lat="38.874117" lon="-5.843433">
        <ele>1444.0</ele>
        <time>2019-05-04T15:08:52Z</time>
      </trkpt>
      <trkpt lat="38.874050" lon="-5.843500">
        <ele>1446.0</ele>
        <time>2019-05-04T15:08:53Z</time>
      </trkpt>
      <trkpt lat="38.874000" lon="-5.843583">
        <ele>1448.0</ele>
        <time>2019-05-04T15:08:54Z</time>
      </trkpt>
      <trkpt lat="38.873983" lon="-5.843667">
        <ele>1451.0</ele>
        <time>2019-05-04T15:08:55Z</time>
      </trkpt>
      <trkpt lat="38.873983" lon="-5.843733">
        <ele>1453.0</ele>
        <time>2019-05-04T15:08:56Z</time>
      </trkpt>
      <trkpt lat="38.874000" lon="-5.843800">
        <ele>1456.0</ele>
        <time>2019-05-04T15:08:57Z</time>
      </trkpt>
      <trkpt lat="38.874033" lon="-5.843850">
        <ele>1457.0</ele>
        <time>2019-05-04T15:08:58Z</time>
      </trkpt>
      <trkpt lat="38.874083" lon="-5.843883">
        <ele>1460.0</ele>
        <time>2019-05-04T15:08:59Z</time>
      </trkpt>
      <trkpt lat="38.874150" lon="-5.843883">
        <ele>1461.0</ele>
        <time>2019-05-04T15:09:00Z</time>
      </trkpt>
      <trkpt lat="38.874217" lon="-5.843833">
        <ele>1464.0</ele>
        <time>2019-05-04T15:09:01Z</time>
      </trkpt>
      <trkpt lat="38.874267" lon="-5.843750">
        <ele>1466.0</ele>
        <time>2019-05-04T15:09:02Z</time>
      </trkpt>
      <trkpt lat="38.874283" lon="-5.843650">
        <ele>1468.0</ele>
        <time>2019-05-04T15:09:03Z</time>
      </trkpt>
      <trkpt lat="38.874283" lon="-5.843533">
        <ele>1469.0</ele>
        <time>2019-05-04T15:09:04Z</time>
      </trkpt>
      <trkpt lat="38.874250" lon="-5.843417">
        <ele>1471.0</ele>
        <time>2019-05-04T15:09:05Z</time>
      </trkpt>
      <trkpt lat="38.874217" lon="-5.843300">
        <ele>1473.0</ele>
        <time>2019-05-04T15:09:06Z</time>
      </trkpt>
      <trkpt lat="38.874150" lon="-5.843200">
        <ele>1474.0</ele>
        <time>2019-05-04T15:09:07Z</time>
      </trkpt>
      <trkpt lat="38.874050" lon="-5.843117">
        <ele>1474.0</ele>
        <time>2019-05-04T15:09:08Z</time>
      </trkpt>
      <trkpt lat="38.873950" lon="-5.843100">
        <ele>1474.0</ele>
        <time>2019-05-04T15:09:09Z</time>
      </trkpt>
      <trkpt lat="38.873833" lon="-5.843100">
        <ele>1475.0</ele>
        <time>2019-05-04T15:09:10Z</time>
      </trkpt>
      <trkpt lat="38.873750" lon="-5.843150">
        <ele>1477.0</ele>
        <time>2019-05-04T15:09:11Z</time>
      </trkpt>
      <trkpt lat="38.873667" lon="-5.843217">
        <ele>1478.0</ele>
        <time>2019-05-04T15:09:12Z</time>
      </trkpt>
      <trkpt lat="38.873617" lon="-5.843300">
        <ele>1479.0</ele>
        <time>2019-05-04T15:09:13Z</time>
      </trkpt>
      <trkpt lat="38.873600" lon="-5.843383">
        <ele>1480.0</ele>
        <time>2019-05-04T15:09:14Z</time>
      </trkpt>
      <trkpt lat="38.873583" lon="-5.843483">
        <ele>1481.0</ele>
        <time>2019-05-04T15:09:15Z</time>
      </trkpt>
      <trkpt lat="38.873617" lon="-5.843550">
        <ele>1483.0</ele>
        <time>2019-05-04T15:09:16Z</time>
      </trkpt>
      <trkpt lat="38.873667" lon="-5.843617">
        <ele>1484.0</ele>
        <time>2019-05-04T15:09:17Z</time>
      </trkpt>
      <trkpt lat="38.873717" lon="-5.843633">
        <ele>1485.0</ele>
        <time>2019-05-04T15:09:18Z</time>
      </trkpt>
      <trkpt lat="38.873783" lon="-5.843633">
        <ele>1487.0</ele>
        <time>2019-05-04T15:09:19Z</time>
      </trkpt>
      <trkpt lat="38.873833" lon="-5.843600">
        <ele>1489.0</ele>
        <time>2019-05-04T15:09:20Z</time>
      </trkpt>
      <trkpt lat="38.873883" lon="-5.843533">
        <ele>1491.0</ele>
        <time>2019-05-04T15:09:21Z</time>
      </trkpt>
      <trkpt lat="38.873900" lon="-5.843433">
        <ele>1493.0</ele>
        <time>2019-05-04T15:09:22Z</time>
      </trkpt>
      <trkpt lat="38.873917" lon="-5.843333">
        <ele>1493.0</ele>
        <time>2019-05-04T15:09:23Z</time>
      </trkpt>
      <trkpt lat="38.873917" lon="-5.843217">
        <ele>1494.0</ele>
        <time>2019-05-04T15:09:24Z</time>
      </trkpt>
      <trkpt lat="38.873883" lon="-5.843083">
        <ele>1495.0</ele>
        <time>2019-05-04T15:09:25Z</time>
      </trkpt>
      <trkpt lat="38.873833" lon="-5.842967">
        <ele>1495.0</ele>
        <time>2019-05-04T15:09:26Z</time>
      </trkpt>
      <trkpt lat="38.873750" lon="-5.842850">
        <ele>1496.0</ele>
        <time>2019-05-04T15:09:27Z</time>
      </trkpt>
      <trkpt lat="38.873667" lon="-5.842783">
        <ele>1497.0</ele>
        <time>2019-05-04T15:09:28Z</time>
      </trkpt>
      <trkpt lat="38.873567" lon="-5.842750">
        <ele>1499.0</ele>
        <time>2019-05-04T15:09:29Z</time>
      </trkpt>
      <trkpt lat="38.873467" lon="-5.842733">
        <ele>1501.0</ele>
        <time>2019-05-04T15:09:30Z</time>
      </trkpt>
      <trkpt lat="38.873367" lon="-5.842750">
        <ele>1502.0</ele>
        <time>2019-05-04T15:09:31Z</time>
      </trkpt>
      <trkpt lat="38.873283" lon="-5.842800">
        <ele>1502.0</ele>
        <time>2019-05-04T15:09:32Z</time>
      </trkpt>
      <trkpt lat="38.873200" lon="-5.842883">
        <ele>1503.0</ele>
        <time>2019-05-04T15:09:33Z</time>
      </trkpt>
      <trkpt lat="38.873167" lon="-5.842967">
        <ele>1503.0</ele>
        <time>2019-05-04T15:09:34Z</time>
      </trkpt>
      <trkpt lat="38.873150" lon="-5.843050">
        <ele>1504.0</ele>
        <time>2019-05-04T15:09:35Z</time>
      </trkpt>
      <trkpt lat="38.873150" lon="-5.843133">
        <ele>1505.0</ele>
        <time>2019-05-04T15:09:36Z</time>
      </trkpt>
      <trkpt lat="38.873167" lon="-5.843200">
        <ele>1506.0</ele>
        <time>2019-05-04T15:09:37Z</time>
      </trkpt>
      <trkpt lat="38.873200" lon="-5.843267">
        <ele>1506.0</ele>
        <time>2019-05-04T15:09:38Z</time>
      </trkpt>
      <trkpt lat="38.873233" lon="-5.843300">
        <ele>1507.0</ele>
        <time>2019-05-04T15:09:39Z</time>
      </trkpt>
      <trkpt lat="38.873283" lon="-5.843317">
        <ele>1507.0</ele>
        <time>2019-05-04T15:09:40Z</time>
      </trkpt>
      <trkpt lat="38.873350" lon="-5.843300">
        <ele>1507.0</ele>
        <time>2019-05-04T15:09:41Z</time>
      </trkpt>
      <trkpt lat="38.873400" lon="-5.843267">
        <ele>1508.0</ele>
        <time>2019-05-04T15:09:42Z</time>
      </trkpt>
      <trkpt lat="38.873433" lon="-5.843200">
        <ele>1510.0</ele>
        <time>2019-05-04T15:09:43Z</time>
      </trkpt>
      <trkpt lat="38.873467" lon="-5.843133">
        <ele>1512.0</ele>
        <time>2019-05-04T15:09:44Z</time>
      </trkpt>
      <trkpt lat="38.873500" lon="-5.843050">
        <ele>1514.0</ele>
        <time>2019-05-04T15:09:45Z</time>
      </trkpt>
      <trkpt lat="38.873500" lon="-5.842933">
        <ele>1515.0</ele>
        <time>2019-05-04T15:09:46Z</time>
      </trkpt>
      <trkpt lat="38.873500" lon="-5.842833">
        <ele>1517.0</ele>
        <time>2019-05-04T15:09:47Z</time>
      </trkpt>
      <trkpt lat="38.873450" lon="-5.842717">
        <ele>1515.0</ele>
        <time>2019-05-04T15:09:48Z</time>
      </trkpt>
      <trkpt lat="38.873400" lon="-5.842600">
        <ele>1516.0</ele>
        <time>2019-05-04T15:09:49Z</time>
      </trkpt>
      <trkpt lat="38.873333" lon="-5.842517">
        <ele>1517.0</ele>
        <time>2019-05-04T15:09:50Z</time>
      </trkpt>
      <trkpt lat="38.873250" lon="-5.842433">
        <ele>1518.0</ele>
        <time>2019-05-04T15:09:51Z</time>
      </trkpt>
      <trkpt lat="38.873150" lon="-5.842383">
        <ele>1520.0</ele>
        <time>2019-05-04T15:09:52Z</time>
      </trkpt>
      <trkpt lat="38.873050" lon="-5.842367">
        <ele>1520.0</ele>
        <time>2019-05-04T15:09:53Z</time>
      </trkpt>
      <trkpt lat="38.872950" lon="-5.842367">
        <ele>1521.0</ele>
        <time>2019-05-04T15:09:54Z</time>
      </trkpt>
      <trkpt lat="38.872850" lon="-5.842417">
        <ele>1522.0</ele>
        <time>2019-05-04T15:09:55Z</time>
      </trkpt>
      <trkpt lat="38.872783" lon="-5.842467">
        <ele>1523.0</ele>
        <time>2019-05-04T15:09:56Z</time>
      </trkpt>
      <trkpt lat="38.872733" lon="-5.842533">
        <ele>1525.0</ele>
        <time>2019-05-04T15:09:57Z</time>
      </trkpt>
      <trkpt lat="38.872683" lon="-5.842617">
        <ele>1525.0</ele>
        <time>2019-05-04T15:09:58Z</time>
      </trkpt>
      <trkpt lat="38.872667" lon="-5.842700">
        <ele>1526.0</ele>
        <time>2019-05-04T15:09:59Z</time>
      </trkpt>
      <trkpt lat="38.872683" lon="-5.842767">
        <ele>1527.0</ele>
        <time>2019-05-04T15:10:00Z</time>
      </trkpt>
      <trkpt lat="38.872717" lon="-5.842833">
        <ele>1528.0</ele>
        <time>2019-05-04T15:10:01Z</time>
      </trkpt>
      <trkpt lat="38.872750" lon="-5.842883">
        <ele>1529.0</ele>
        <time>2019-05-04T15:10:02Z</time>
      </trkpt>
      <trkpt lat="38.872783" lon="-5.842917">
        <ele>1531.0</ele>
        <time>2019-05-04T15:10:03Z</time>
      </trkpt>
      <trkpt lat="38.872817" lon="-5.842967">
        <ele>1533.0</ele>
        <time>2019-05-04T15:10:04Z</time>
      </trkpt>
      <trkpt lat="38.872850" lon="-5.843017">
        <ele>1534.0</ele>
        <time>2019-05-04T15:10:05Z</time>
      </trkpt>
      <trkpt lat="38.872883" lon="-5.843083">
        <ele>1534.0</ele>
        <time>2019-05-04T15:10:06Z</time>
      </trkpt>
      <trkpt lat="38.872917" lon="-5.843133">
        <ele>1535.0</ele>
        <time>2019-05-04T15:10:07Z</time>
      </trkpt>
      <trkpt lat="38.872967" lon="-5.843167">
        <ele>1536.0</ele>
        <time>2019-05-04T15:10:08Z</time>
      </trkpt>
      <trkpt lat="38.873017" lon="-5.843167">
        <ele>1538.0</ele>
        <time>2019-05-04T15:10:09Z</time>
      </trkpt>
      <trkpt lat="38.873083" lon="-5.843133">
        <ele>1539.0</ele>
        <time>2019-05-04T15:10:10Z</time>
      </trkpt>
      <trkpt lat="38.873133" lon="-5.843067">
        <ele>1540.0</ele>
        <time>2019-05-04T15:10:11Z</time>
      </trkpt>
      <trkpt lat="38.873167" lon="-5.842983">
        <ele>1541.0</ele>
        <time>2019-05-04T15:10:12Z</time>
      </trkpt>
      <trkpt lat="38.873200" lon="-5.842883">
        <ele>1542.0</ele>
        <time>2019-05-04T15:10:13Z</time>
      </trkpt>
      <trkpt lat="38.873200" lon="-5.842767">
        <ele>1544.0</ele>
        <time>2019-05-04T15:10:14Z</time>
      </trkpt>
      <trkpt lat="38.873183" lon="-5.842633">
        <ele>1545.0</ele>
        <time>2019-05-04T15:10:15Z</time>
      </trkpt>
      <trkpt lat="38.873133" lon="-5.842533">
        <ele>1547.0</ele>
        <time>2019-05-04T15:10:16Z</time>
      </trkpt>
      <trkpt lat="38.873067" lon="-5.842450">
        <ele>1548.0</ele>
        <time>2019-05-04T15:10:17Z</time>
      </trkpt>
      <trkpt lat="38.872983" lon="-5.842383">
        <ele>1550.0</ele>
        <time>2019-05-04T15:10:18Z</time>
      </trkpt>
      <trkpt lat="38.872883" lon="-5.842350">
        <ele>1551.0</ele>
        <time>2019-05-04T15:10:19Z</time>
      </trkpt>
      <trkpt lat="38.872783" lon="-5.842350">
        <ele>1552.0</ele>
        <time>2019-05-04T15:10:20Z</time>
      </trkpt>
      <trkpt lat="38.872700" lon="-5.842400">
        <ele>1554.0</ele>
        <time>2019-05-04T15:10:21Z</time>
      </trkpt>
      <trkpt lat="38.872617" lon="-5.842467">
        <ele>1555.0</ele>
        <time>2019-05-04T15:10:22Z</time>
      </trkpt>
      <trkpt lat="38.872583" lon="-5.842550">
        <ele>1556.0</ele>
        <time>2019-05-04T15:10:23Z</time>
      </trkpt>
      <trkpt lat="38.872583" lon="-5.842650">
        <ele>1558.0</ele>
        <time>2019-05-04T15:10:24Z</time>
      </trkpt>
      <trkpt lat="38.872600" lon="-5.842733">
        <ele>1559.0</ele>
        <time>2019-05-04T15:10:25Z</time>
      </trkpt>
      <trkpt lat="38.872650" lon="-5.842783">
        <ele>1561.0</ele>
        <time>2019-05-04T15:10:26Z</time>
      </trkpt>
      <trkpt lat="38.872700" lon="-5.842833">
        <ele>1563.0</ele>
        <time>2019-05-04T15:10:27Z</time>
      </trkpt>
      <trkpt lat="38.872767" lon="-5.842833">
        <ele>1564.0</ele>
        <time>2019-05-04T15:10:28Z</time>
      </trkpt>
      <trkpt lat="38.872833" lon="-5.842833">
        <ele>1565.0</ele>
        <time>2019-05-04T15:10:29Z</time>
      </trkpt>
      <trkpt lat="38.872900" lon="-5.842800">
        <ele>1567.0</ele>
        <time>2019-05-04T15:10:30Z</time>
      </trkpt>
      <trkpt lat="38.872950" lon="-5.842733">
        <ele>1569.0</ele>
        <time>2019-05-04T15:10:31Z</time>
      </trkpt>
      <trkpt lat="38.872983" lon="-5.842633">
        <ele>1570.0</ele>
        <time>2019-05-04T15:10:32Z</time>
      </trkpt>
      <trkpt lat="38.873000" lon="-5.842517">
        <ele>1571.0</ele>
        <time>2019-05-04T15:10:33Z</time>
      </trkpt>
      <trkpt lat="38.872983" lon="-5.842400">
        <ele>1572.0</ele>
        <time>2019-05-04T15:10:34Z</time>
      </trkpt>
      <trkpt lat="38.872933" lon="-5.842300">
        <ele>1573.0</ele>
        <time>2019-05-04T15:10:35Z</time>
      </trkpt>
      <trkpt lat="38.872883" lon="-5.842200">
        <ele>1573.0</ele>
        <time>2019-05-04T15:10:36Z</time>
      </trkpt>
      <trkpt lat="38.872783" lon="-5.842133">
        <ele>1573.0</ele>
        <time>2019-05-04T15:10:37Z</time>
      </trkpt>
      <trkpt lat="38.872683" lon="-5.842100">
        <ele>1573.0</ele>
        <time>2019-05-04T15:10:38Z</time>
      </trkpt>
      <trkpt lat="38.872583" lon="-5.842100">
        <ele>1574.0</ele>
        <time>2019-05-04T15:10:39Z</time>
      </trkpt>
      <trkpt lat="38.872500" lon="-5.842117">
        <ele>1574.0</ele>
        <time>2019-05-04T15:10:40Z</time>
      </trkpt>
      <trkpt lat="38.872417" lon="-5.842150">
        <ele>1576.0</ele>
        <time>2019-05-04T15:10:41Z</time>
      </trkpt>
      <trkpt lat="38.872333" lon="-5.842217">
        <ele>1578.0</ele>
        <time>2019-05-04T15:10:42Z</time>
      </trkpt>
      <trkpt lat="38.872267" lon="-5.842283">
        <ele>1580.0</ele>
        <time>2019-05-04T15:10:43Z</time>
      </trkpt>
      <trkpt lat="38.872200" lon="-5.842350">
        <ele>1582.0</ele>
        <time>2019-05-04T15:10:44Z</time>
      </trkpt>
      <trkpt lat="38.872133" lon="-5.842417">
        <ele>1584.0</ele>
        <time>2019-05-04T15:10:45Z</time>
      </trkpt>
      <trkpt lat="38.872067" lon="-5.842500">
        <ele>1586.0</ele>
        <time>2019-05-04T15:10:46Z</time>
      </trkpt>
      <trkpt lat="38.872000" lon="-5.842583">
        <ele>1588.0</ele>
        <time>2019-05-04T15:10:47Z</time>
      </trkpt>
      <trkpt lat="38.871950" lon="-5.842667">
        <ele>1591.0</ele>
        <time>2019-05-04T15:10:48Z</time>
      </trkpt>
      <trkpt lat="38.871917" lon="-5.842767">
        <ele>1593.0</ele>
        <time>2019-05-04T15:10:49Z</time>
      </trkpt>
      <trkpt lat="38.871883" lon="-5.842850">
        <ele>1595.0</ele>
        <time>2019-05-04T15:10:50Z</time>
      </trkpt>
      <trkpt lat="38.871883" lon="-5.842950">
        <ele>1597.0</ele>
        <time>2019-05-04T15:10:51Z</time>
      </trkpt>
      <trkpt lat="38.871900" lon="-5.843017">
        <ele>1599.0</ele>
        <time>2019-05-04T15:10:52Z</time>
      </trkpt>
      <trkpt lat="38.871933" lon="-5.843067">
        <ele>1600.0</ele>
        <time>2019-05-04T15:10:53Z</time>
      </trkpt>
      <trkpt lat="38.871983" lon="-5.843083">
        <ele>1601.0</ele>
        <time>2019-05-04T15:10:54Z</time>
      </trkpt>
      <trkpt lat="38.872050" lon="-5.843083">
        <ele>1600.0</ele>
        <time>2019-05-04T15:10:55Z</time>
      </trkpt>
      <trkpt lat="38.872117" lon="-5.843067">
        <ele>1600.0</ele>
        <time>2019-05-04T15:10:56Z</time>
      </trkpt>
      <trkpt lat="38.872167" lon="-5.843017">
        <ele>1601.0</ele>
        <time>2019-05-04T15:10:57Z</time>
      </trkpt>
      <trkpt lat="38.872217" lon="-5.842933">
        <ele>1602.0</ele>
        <time>2019-05-04T15:10:58Z</time>
      </trkpt>
      <trkpt lat="38.872233" lon="-5.842833">
        <ele>1602.0</ele>
        <time>2019-05-04T15:10:59Z</time>
      </trkpt>
      <trkpt lat="38.872217" lon="-5.842717">
        <ele>1602.0</ele>
        <time>2019-05-04T15:11:00Z</time>
      </trkpt>
      <trkpt lat="38.872167" lon="-5.842617">
        <ele>1603.0</ele>
        <time>2019-05-04T15:11:01Z</time>
      </trkpt>
      <trkpt lat="38.872100" lon="-5.842533">
        <ele>1604.0</ele>
        <time>2019-05-04T15:11:02Z</time>
      </trkpt>
      <trkpt lat="38.872017" lon="-5.842467">
        <ele>1605.0</ele>
        <time>2019-05-04T15:11:03Z</time>
      </trkpt>
      <trkpt lat="38.871917" lon="-5.842433">
        <ele>1606.0</ele>
        <time>2019-05-04T15:11:04Z</time>
      </trkpt>
      <trkpt lat="38.871800" lon="-5.842417">
        <ele>1606.0</ele>
        <time>2019-05-04T15:11:05Z</time>
      </trkpt>
      <trkpt lat="38.871700" lon="-5.842417">
        <ele>1607.0</ele>
        <time>2019-05-04T15:11:06Z</time>
      </trkpt>
      <trkpt lat="38.871583" lon="-5.842417">
        <ele>1607.0</ele>
        <time>2019-05-04T15:11:07Z</time>
      </trkpt>
      <trkpt lat="38.871483" lon="-5.842433">
        <ele>1608.0</ele>
        <time>2019-05-04T15:11:08Z</time>
      </trkpt>
      <trkpt lat="38.871367" lon="-5.842433">
        <ele>1611.0</ele>
        <time>2019-05-04T15:11:09Z</time>
      </trkpt>
      <trkpt lat="38.871283" lon="-5.842433">
        <ele>1615.0</ele>
        <time>2019-05-04T15:11:10Z</time>
      </trkpt>
      <trkpt lat="38.871183" lon="-5.842450">
        <ele>1617.0</ele>
        <time>2019-05-04T15:11:11Z</time>
      </trkpt>
      <trkpt lat="38.871100" lon="-5.842467">
        <ele>1618.0</ele>
        <time>2019-05-04T15:11:12Z</time>
      </trkpt>
      <trkpt lat="38.871000" lon="-5.842533">
        <ele>1619.0</ele>
        <time>2019-05-04T15:11:13Z</time>
      </trkpt>
      <trkpt lat="38.870917" lon="-5.842617">
        <ele>1619.0</ele>
        <time>2019-05-04T15:11:14Z</time>
      </trkpt>
      <trkpt lat="38.870883" lon="-5.842717">
        <ele>1620.0</ele>
        <time>2019-05-04T15:11:15Z</time>
      </trkpt>
      <trkpt lat="38.870867" lon="-5.842817">
        <ele>1621.0</ele>
        <time>2019-05-04T15:11:16Z</time>
      </trkpt>
      <trkpt lat="38.870883" lon="-5.842917">
        <ele>1622.0</ele>
        <time>2019-05-04T15:11:17Z</time>
      </trkpt>
      <trkpt lat="38.870917" lon="-5.843000">
        <ele>1623.0</ele>
        <time>2019-05-04T15:11:18Z</time>
      </trkpt>
      <trkpt lat="38.870967" lon="-5.843050">
        <ele>1624.0</ele>
        <time>2019-05-04T15:11:19Z</time>
      </trkpt>
      <trkpt lat="38.871033" lon="-5.843067">
        <ele>1625.0</ele>
        <time>2019-05-04T15:11:20Z</time>
      </trkpt>
      <trkpt lat="38.871100" lon="-5.843067">
        <ele>1626.0</ele>
        <time>2019-05-04T15:11:21Z</time>
      </trkpt>
      <trkpt lat="38.871150" lon="-5.843017">
        <ele>1626.0</ele>
        <time>2019-05-04T15:11:22Z</time>
      </trkpt>
      <trkpt lat="38.871167" lon="-5.842917">
        <ele>1627.0</ele>
        <time>2019-05-04T15:11:23Z</time>
      </trkpt>
      <trkpt lat="38.871167" lon="-5.842800">
        <ele>1627.0</ele>
        <time>2019-05-04T15:11:24Z</time>
      </trkpt>
      <trkpt lat="38.871100" lon="-5.842700">
        <ele>1627.0</ele>
        <time>2019-05-04T15:11:25Z</time>
      </trkpt>
      <trkpt lat="38.871017" lon="-5.842617">
        <ele>1627.0</ele>
        <time>2019-05-04T15:11:26Z</time>
      </trkpt>
      <trkpt lat="38.870917" lon="-5.842600">
        <ele>1628.0</ele>
        <time>2019-05-04T15:11:27Z</time>
      </trkpt>
      <trkpt lat="38.870817" lon="-5.842600">
        <ele>1630.0</ele>
        <time>2019-05-04T15:11:28Z</time>
      </trkpt>
      <trkpt lat="38.870733" lon="-5.842650">
        <ele>1631.0</ele>
        <time>2019-05-04T15:11:29Z</time>
      </trkpt>
      <trkpt lat="38.870667" lon="-5.842683">
        <ele>1632.0</ele>
        <time>2019-05-04T15:11:30Z</time>
      </trkpt>
      <trkpt lat="38.870583" lon="-5.842733">
        <ele>1634.0</ele>
        <time>2019-05-04T15:11:31Z</time>
      </trkpt>
      <trkpt lat="38.870517" lon="-5.842800">
        <ele>1635.0</ele>
        <time>2019-05-04T15:11:32Z</time>
      </trkpt>
      <trkpt lat="38.870467" lon="-5.842883">
        <ele>1635.0</ele>
        <time>2019-05-04T15:11:33Z</time>
      </trkpt>
      <trkpt lat="38.870433" lon="-5.842983">
        <ele>1636.0</ele>
        <time>2019-05-04T15:11:34Z</time>
      </trkpt>
      <trkpt lat="38.870433" lon="-5.843100">
        <ele>1636.0</ele>
        <time>2019-05-04T15:11:35Z</time>
      </trkpt>
      <trkpt lat="38.870450" lon="-5.843183">
        <ele>1637.0</ele>
        <time>2019-05-04T15:11:36Z</time>
      </trkpt>
      <trkpt lat="38.870500" lon="-5.843250">
        <ele>1638.0</ele>
        <time>2019-05-04T15:11:37Z</time>
      </trkpt>
      <trkpt lat="38.870567" lon="-5.843267">
        <ele>1639.0</ele>
        <time>2019-05-04T15:11:38Z</time>
      </trkpt>
      <trkpt lat="38.870633" lon="-5.843267">
        <ele>1641.0</ele>
        <time>2019-05-04T15:11:39Z</time>
      </trkpt>
      <trkpt lat="38.870700" lon="-5.843233">
        <ele>1641.0</ele>
        <time>2019-05-04T15:11:40Z</time>
      </trkpt>
      <trkpt lat="38.870750" lon="-5.843167">
        <ele>1642.0</ele>
        <time>2019-05-04T15:11:41Z</time>
      </trkpt>
      <trkpt lat="38.870767" lon="-5.843100">
        <ele>1642.0</ele>
        <time>2019-05-04T15:11:42Z</time>
      </trkpt>
      <trkpt lat="38.870783" lon="-5.843000">
        <ele>1642.0</ele>
        <time>2019-05-04T15:11:43Z</time>
      </trkpt>
      <trkpt lat="38.870767" lon="-5.842883">
        <ele>1642.0</ele>
        <time>2019-05-04T15:11:44Z</time>
      </trkpt>
      <trkpt lat="38.870717" lon="-5.842767">
        <ele>1641.0</ele>
        <time>2019-05-04T15:11:45Z</time>
      </trkpt>
      <trkpt lat="38.870633" lon="-5.842667">
        <ele>1641.0</ele>
        <time>2019-05-04T15:11:46Z</time>
      </trkpt>
      <trkpt lat="38.870533" lon="-5.842600">
        <ele>1642.0</ele>
        <time>2019-05-04T15:11:47Z</time>
      </trkpt>
      <trkpt lat="38.870433" lon="-5.842567">
        <ele>1645.0</ele>
        <time>2019-05-04T15:11:48Z</time>
      </trkpt>
      <trkpt lat="38.870350" lon="-5.842550">
        <ele>1647.0</ele>
        <time>2019-05-04T15:11:49Z</time>
      </trkpt>
      <trkpt lat="38.870267" lon="-5.842517">
        <ele>1649.0</ele>
        <time>2019-05-04T15:11:50Z</time>
      </trkpt>
      <trkpt lat="38.870183" lon="-5.842500">
        <ele>1650.0</ele>
        <time>2019-05-04T15:11:51Z</time>
      </trkpt>
      <trkpt lat="38.870100" lon="-5.842533">
        <ele>1650.0</ele>
        <time>2019-05-04T15:11:52Z</time>
      </trkpt>
      <trkpt lat="38.870017" lon="-5.842583">
        <ele>1650.0</ele>
        <time>2019-05-04T15:11:53Z</time>
      </trkpt>
      <trkpt lat="38.869950" lon="-5.842667">
        <ele>1650.0</ele>
        <time>2019-05-04T15:11:54Z</time>
      </trkpt>
      <trkpt lat="38.869917" lon="-5.842750">
        <ele>1651.0</ele>
        <time>2019-05-04T15:11:55Z</time>
      </trkpt>
      <trkpt lat="38.869883" lon="-5.842833">
        <ele>1652.0</ele>
        <time>2019-05-04T15:11:56Z</time>
      </trkpt>
      <trkpt lat="38.869883" lon="-5.842917">
        <ele>1652.0</ele>
        <time>2019-05-04T15:11:57Z</time>
      </trkpt>
      <trkpt lat="38.869867" lon="-5.843017">
        <ele>1652.0</ele>
        <time>2019-05-04T15:11:58Z</time>
      </trkpt>
      <trkpt lat="38.869867" lon="-5.843117">
        <ele>1653.0</ele>
        <time>2019-05-04T15:11:59Z</time>
      </trkpt>
      <trkpt lat="38.869867" lon="-5.843217">
        <ele>1653.0</ele>
        <time>2019-05-04T15:12:00Z</time>
      </trkpt>
      <trkpt lat="38.869883" lon="-5.843283">
        <ele>1653.0</ele>
        <time>2019-05-04T15:12:01Z</time>
      </trkpt>
      <trkpt lat="38.869900" lon="-5.843367">
        <ele>1653.0</ele>
        <time>2019-05-04T15:12:02Z</time>
      </trkpt>
      <trkpt lat="38.869933" lon="-5.843450">
        <ele>1653.0</ele>
        <time>2019-05-04T15:12:03Z</time>
      </trkpt>
      <trkpt lat="38.869983" lon="-5.843517">
        <ele>1653.0</ele>
        <time>2019-05-04T15:12:04Z</time>
      </trkpt>
      <trkpt lat="38.870050" lon="-5.843583">
        <ele>1651.0</ele>
        <time>2019-05-04T15:12:05Z</time>
      </trkpt>
      <trkpt lat="38.870133" lon="-5.843617">
        <ele>1649.0</ele>
        <time>2019-05-04T15:12:06Z</time>
      </trkpt>
      <trkpt lat="38.870217" lon="-5.843617">
        <ele>1648.0</ele>
        <time>2019-05-04T15:12:07Z</time>
      </trkpt>
      <trkpt lat="38.870283" lon="-5.843583">
        <ele>1647.0</ele>
        <time>2019-05-04T15:12:08Z</time>
      </trkpt>
      <trkpt lat="38.870333" lon="-5.843500">
        <ele>1646.0</ele>
        <time>2019-05-04T15:12:09Z</time>
      </trkpt>
      <trkpt lat="38.870350" lon="-5.843400">
        <ele>1646.0</ele>
        <time>2019-05-04T15:12:10Z</time>
      </trkpt>
      <trkpt lat="38.870350" lon="-5.843300">
        <ele>1645.0</ele>
        <time>2019-05-04T15:12:11Z</time>
      </trkpt>
      <trkpt lat="38.870317" lon="-5.843200">
        <ele>1646.0</ele>
        <time>2019-05-04T15:12:12Z</time>
      </trkpt>
      <trkpt lat="38.870283" lon="-5.843083">
        <ele>1645.0</ele>
        <time>2019-05-04T15:12:13Z</time>
      </trkpt>
      <trkpt lat="38.870233" lon="-5.842983">
        <ele>1645.0</ele>
        <time>2019-05-04T15:12:14Z</time>
      </trkpt>
      <trkpt lat="38.870183" lon="-5.842883">
        <ele>1644.0</ele>
        <time>2019-05-04T15:12:15Z</time>
      </trkpt>
      <trkpt lat="38.870100" lon="-5.842783">
        <ele>1643.0</ele>
        <time>2019-05-04T15:12:16Z</time>
      </trkpt>
      <trkpt lat="38.870017" lon="-5.842717">
        <ele>1642.0</ele>
        <time>2019-05-04T15:12:17Z</time>
      </trkpt>
      <trkpt lat="38.869917" lon="-5.842683">
        <ele>1642.0</ele>
        <time>2019-05-04T15:12:18Z</time>
      </trkpt>
      <trkpt lat="38.869817" lon="-5.842667">
        <ele>1641.0</ele>
        <time>2019-05-04T15:12:19Z</time>
      </trkpt>
      <trkpt lat="38.869733" lon="-5.842667">
        <ele>1642.0</ele>
        <time>2019-05-04T15:12:20Z</time>
      </trkpt>
      <trkpt lat="38.869667" lon="-5.842683">
        <ele>1643.0</ele>
        <time>2019-05-04T15:12:21Z</time>
      </trkpt>
      <trkpt lat="38.869583" lon="-5.842700">
        <ele>1643.0</ele>
        <time>2019-05-04T15:12:22Z</time>
      </trkpt>
      <trkpt lat="38.869517" lon="-5.842700">
        <ele>1644.0</ele>
        <time>2019-05-04T15:12:23Z</time>
      </trkpt>
      <trkpt lat="38.869433" lon="-5.842717">
        <ele>1644.0</ele>
        <time>2019-05-04T15:12:24Z</time>
      </trkpt>
      <trkpt lat="38.869350" lon="-5.842750">
        <ele>1644.0</ele>
        <time>2019-05-04T15:12:25Z</time>
      </trkpt>
      <trkpt lat="38.869267" lon="-5.842783">
        <ele>1645.0</ele>
        <time>2019-05-04T15:12:26Z</time>
      </trkpt>
      <trkpt lat="38.869200" lon="-5.842833">
        <ele>1645.0</ele>
        <time>2019-05-04T15:12:27Z</time>
      </trkpt>
      <trkpt lat="38.869117" lon="-5.842883">
        <ele>1646.0</ele>
        <time>2019-05-04T15:12:28Z</time>
      </trkpt>
      <trkpt lat="38.869050" lon="-5.842950">
        <ele>1646.0</ele>
        <time>2019-05-04T15:12:29Z</time>
      </trkpt>
      <trkpt lat="38.869000" lon="-5.843033">
        <ele>1647.0</ele>
        <time>2019-05-04T15:12:30Z</time>
      </trkpt>
      <trkpt lat="38.868933" lon="-5.843117">
        <ele>1647.0</ele>
        <time>2019-05-04T15:12:31Z</time>
      </trkpt>
      <trkpt lat="38.868883" lon="-5.843217">
        <ele>1648.0</ele>
        <time>2019-05-04T15:12:32Z</time>
      </trkpt>
      <trkpt lat="38.868833" lon="-5.843283">
        <ele>1649.0</ele>
        <time>2019-05-04T15:12:33Z</time>
      </trkpt>
      <trkpt lat="38.868783" lon="-5.843367">
        <ele>1651.0</ele>
        <time>2019-05-04T15:12:34Z</time>
      </trkpt>
      <trkpt lat="38.868750" lon="-5.843433">
        <ele>1652.0</ele>
        <time>2019-05-04T15:12:35Z</time>
      </trkpt>
      <trkpt lat="38.868700" lon="-5.843500">
        <ele>1653.0</ele>
        <time>2019-05-04T15:12:36Z</time>
      </trkpt>
      <trkpt lat="38.868667" lon="-5.843583">
        <ele>1654.0</ele>
        <time>2019-05-04T15:12:37Z</time>
      </trkpt>
      <trkpt lat="38.868633" lon="-5.843683">
        <ele>1653.0</ele>
        <time>2019-05-04T15:12:38Z</time>
      </trkpt>
      <trkpt lat="38.868617" lon="-5.843767">
        <ele>1652.0</ele>
        <time>2019-05-04T15:12:39Z</time>
      </trkpt>
      <trkpt lat="38.868633" lon="-5.843867">
        <ele>1651.0</ele>
        <time>2019-05-04T15:12:40Z</time>
      </trkpt>
      <trkpt lat="38.868667" lon="-5.843950">
        <ele>1650.0</ele>
        <time>2019-05-04T15:12:41Z</time>
      </trkpt>
      <trkpt lat="38.868717" lon="-5.843983">
        <ele>1649.0</ele>
        <time>2019-05-04T15:12:42Z</time>
      </trkpt>
      <trkpt lat="38.868783" lon="-5.843967">
        <ele>1647.0</ele>
        <time>2019-05-04T15:12:43Z</time>
      </trkpt>
      <trkpt lat="38.868850" lon="-5.843933">
        <ele>1645.0</ele>
        <time>2019-05-04T15:12:44Z</time>
      </trkpt>
      <trkpt lat="38.868900" lon="-5.843867">
        <ele>1642.0</ele>
        <time>2019-05-04T15:12:45Z</time>
      </trkpt>
      <trkpt lat="38.868933" lon="-5.843767">
        <ele>1641.0</ele>
        <time>2019-05-04T15:12:46Z</time>
      </trkpt>
      <trkpt lat="38.868967" lon="-5.843683">
        <ele>1641.0</ele>
        <time>2019-05-04T15:12:47Z</time>
      </trkpt>
      <trkpt lat="38.868967" lon="-5.843583">
        <ele>1641.0</ele>
        <time>2019-05-04T15:12:48Z</time>
      </trkpt>
      <trkpt lat="38.868967" lon="-5.843483">
        <ele>1641.0</ele>
        <time>2019-05-04T15:12:49Z</time>
      </trkpt>
      <trkpt lat="38.868967" lon="-5.843400">
        <ele>1641.0</ele>
        <time>2019-05-04T15:12:50Z</time>
      </trkpt>
      <trkpt lat="38.868967" lon="-5.843283">
        <ele>1641.0</ele>
        <time>2019-05-04T15:12:51Z</time>
      </trkpt>
      <trkpt lat="38.868933" lon="-5.843183">
        <ele>1640.0</ele>
        <time>2019-05-04T15:12:52Z</time>
      </trkpt>
      <trkpt lat="38.868900" lon="-5.843083">
        <ele>1640.0</ele>
        <time>2019-05-04T15:12:53Z</time>
      </trkpt>
      <trkpt lat="38.868833" lon="-5.843000">
        <ele>1640.0</ele>
        <time>2019-05-04T15:12:54Z</time>
      </trkpt>
      <trkpt lat="38.868767" lon="-5.842950">
        <ele>1640.0</ele>
        <time>2019-05-04T15:12:55Z</time>
      </trkpt>
      <trkpt lat="38.868700" lon="-5.842883">
        <ele>1641.0</ele>
        <time>2019-05-04T15:12:56Z</time>
      </trkpt>
      <trkpt lat="38.868633" lon="-5.842833">
        <ele>1643.0</ele>
        <time>2019-05-04T15:12:57Z</time>
      </trkpt>
      <trkpt lat="38.868567" lon="-5.842800">
        <ele>1644.0</ele>
        <time>2019-05-04T15:12:58Z</time>
      </trkpt>
      <trkpt lat="38.868483" lon="-5.842767">
        <ele>1644.0</ele>
        <time>2019-05-04T15:12:59Z</time>
      </trkpt>
      <trkpt lat="38.868400" lon="-5.842767">
        <ele>1644.0</ele>
        <time>2019-05-04T15:13:00Z</time>
      </trkpt>
      <trkpt lat="38.868317" lon="-5.842800">
        <ele>1644.0</ele>
        <time>2019-05-04T15:13:01Z</time>
      </trkpt>
      <trkpt lat="38.868233" lon="-5.842867">
        <ele>1644.0</ele>
        <time>2019-05-04T15:13:02Z</time>
      </trkpt>
      <trkpt lat="38.868167" lon="-5.842950">
        <ele>1645.0</ele>
        <time>2019-05-04T15:13:03Z</time>
      </trkpt>
      <trkpt lat="38.868133" lon="-5.843033">
        <ele>1646.0</ele>
        <time>2019-05-04T15:13:04Z</time>
      </trkpt>
      <trkpt lat="38.868100" lon="-5.843133">
        <ele>1647.0</ele>
        <time>2019-05-04T15:13:05Z</time>
      </trkpt>
      <trkpt lat="38.868100" lon="-5.843233">
        <ele>1648.0</ele>
        <time>2019-05-04T15:13:06Z</time>
      </trkpt>
      <trkpt lat="38.868117" lon="-5.843333">
        <ele>1648.0</ele>
        <time>2019-05-04T15:13:07Z</time>
      </trkpt>
      <trkpt lat="38.868167" lon="-5.843417">
        <ele>1648.0</ele>
        <time>2019-05-04T15:13:08Z</time>
      </trkpt>
      <trkpt lat="38.868233" lon="-5.843467">
        <ele>1647.0</ele>
        <time>2019-05-04T15:13:09Z</time>
      </trkpt>
      <trkpt lat="38.868317" lon="-5.843467">
        <ele>1646.0</ele>
        <time>2019-05-04T15:13:10Z</time>
      </trkpt>
      <trkpt lat="38.868400" lon="-5.843450">
        <ele>1645.0</ele>
        <time>2019-05-04T15:13:11Z</time>
      </trkpt>
      <trkpt lat="38.868467" lon="-5.843400">
        <ele>1644.0</ele>
        <time>2019-05-04T15:13:12Z</time>
      </trkpt>
      <trkpt lat="38.868517" lon="-5.843317">
        <ele>1644.0</ele>
        <time>2019-05-04T15:13:13Z</time>
      </trkpt>
      <trkpt lat="38.868550" lon="-5.843233">
        <ele>1644.0</ele>
        <time>2019-05-04T15:13:14Z</time>
      </trkpt>
      <trkpt lat="38.868550" lon="-5.843133">
        <ele>1644.0</ele>
        <time>2019-05-04T15:13:15Z</time>
      </trkpt>
      <trkpt lat="38.868517" lon="-5.843033">
        <ele>1643.0</ele>
        <time>2019-05-04T15:13:16Z</time>
      </trkpt>
      <trkpt lat="38.868467" lon="-5.842967">
        <ele>1643.0</ele>
        <time>2019-05-04T15:13:17Z</time>
      </trkpt>
      <trkpt lat="38.868417" lon="-5.842917">
        <ele>1644.0</ele>
        <time>2019-05-04T15:13:18Z</time>
      </trkpt>
      <trkpt lat="38.868350" lon="-5.842867">
        <ele>1645.0</ele>
        <time>2019-05-04T15:13:19Z</time>
      </trkpt>
      <trkpt lat="38.868283" lon="-5.842817">
        <ele>1645.0</ele>
        <time>2019-05-04T15:13:20Z</time>
      </trkpt>
      <trkpt lat="38.868183" lon="-5.842783">
        <ele>1644.0</ele>
        <time>2019-05-04T15:13:21Z</time>
      </trkpt>
      <trkpt lat="38.868100" lon="-5.842783">
        <ele>1645.0</ele>
        <time>2019-05-04T15:13:22Z</time>
      </trkpt>
      <trkpt lat="38.868017" lon="-5.842783">
        <ele>1646.0</ele>
        <time>2019-05-04T15:13:23Z</time>
      </trkpt>
      <trkpt lat="38.867950" lon="-5.842817">
        <ele>1648.0</ele>
        <time>2019-05-04T15:13:24Z</time>
      </trkpt>
      <trkpt lat="38.867883" lon="-5.842850">
        <ele>1650.0</ele>
        <time>2019-05-04T15:13:25Z</time>
      </trkpt>
      <trkpt lat="38.867800" lon="-5.842883">
        <ele>1651.0</ele>
        <time>2019-05-04T15:13:26Z</time>
      </trkpt>
      <trkpt lat="38.867733" lon="-5.842933">
        <ele>1652.0</ele>
        <time>2019-05-04T15:13:27Z</time>
      </trkpt>
      <trkpt lat="38.867633" lon="-5.842967">
        <ele>1652.0</ele>
        <time>2019-05-04T15:13:28Z</time>
      </trkpt>
      <trkpt lat="38.867567" lon="-5.843033">
        <ele>1653.0</ele>
        <time>2019-05-04T15:13:29Z</time>
      </trkpt>
      <trkpt lat="38.867483" lon="-5.843100">
        <ele>1653.0</ele>
        <time>2019-05-04T15:13:30Z</time>
      </trkpt>
      <trkpt lat="38.867417" lon="-5.843183">
        <ele>1654.0</ele>
        <time>2019-05-04T15:13:31Z</time>
      </trkpt>
      <trkpt lat="38.867367" lon="-5.843250">
        <ele>1654.0</ele>
        <time>2019-05-04T15:13:32Z</time>
      </trkpt>
      <trkpt lat="38.867300" lon="-5.843333">
        <ele>1654.0</ele>
        <time>2019-05-04T15:13:33Z</time>
      </trkpt>
      <trkpt lat="38.867250" lon="-5.843433">
        <ele>1654.0</ele>
        <time>2019-05-04T15:13:34Z</time>
      </trkpt>
      <trkpt lat="38.867217" lon="-5.843550">
        <ele>1653.0</ele>
        <time>2019-05-04T15:13:35Z</time>
      </trkpt>
      <trkpt lat="38.867183" lon="-5.843667">
        <ele>1652.0</ele>
        <time>2019-05-04T15:13:36Z</time>
      </trkpt>
      <trkpt lat="38.867183" lon="-5.843783">
        <ele>1652.0</ele>
        <time>2019-05-04T15:13:37Z</time>
      </trkpt>
      <trkpt lat="38.867183" lon="-5.843900">
        <ele>1652.0</ele>
        <time>2019-05-04T15:13:38Z</time>
      </trkpt>
      <trkpt lat="38.867217" lon="-5.844000">
        <ele>1652.0</ele>
        <time>2019-05-04T15:13:39Z</time>
      </trkpt>
      <trkpt lat="38.867267" lon="-5.844083">
        <ele>1651.0</ele>
        <time>2019-05-04T15:13:40Z</time>
      </trkpt>
      <trkpt lat="38.867317" lon="-5.844150">
        <ele>1649.0</ele>
        <time>2019-05-04T15:13:41Z</time>
      </trkpt>
      <trkpt lat="38.867400" lon="-5.844183">
        <ele>1647.0</ele>
        <time>2019-05-04T15:13:42Z</time>
      </trkpt>
      <trkpt lat="38.867467" lon="-5.844183">
        <ele>1646.0</ele>
        <time>2019-05-04T15:13:43Z</time>
      </trkpt>
      <trkpt lat="38.867550" lon="-5.844150">
        <ele>1645.0</ele>
        <time>2019-05-04T15:13:44Z</time>
      </trkpt>
      <trkpt lat="38.867600" lon="-5.844083">
        <ele>1645.0</ele>
        <time>2019-05-04T15:13:45Z</time>
      </trkpt>
      <trkpt lat="38.867633" lon="-5.844000">
        <ele>1644.0</ele>
        <time>2019-05-04T15:13:46Z</time>
      </trkpt>
      <trkpt lat="38.867650" lon="-5.843900">
        <ele>1643.0</ele>
        <time>2019-05-04T15:13:47Z</time>
      </trkpt>
      <trkpt lat="38.867667" lon="-5.843783">
        <ele>1642.0</ele>
        <time>2019-05-04T15:13:48Z</time>
      </trkpt>
      <trkpt lat="38.867650" lon="-5.843683">
        <ele>1641.0</ele>
        <time>2019-05-04T15:13:49Z</time>
      </trkpt>
      <trkpt lat="38.867633" lon="-5.843583">
        <ele>1641.0</ele>
        <time>2019-05-04T15:13:50Z</time>
      </trkpt>
      <trkpt lat="38.867600" lon="-5.843483">
        <ele>1640.0</ele>
        <time>2019-05-04T15:13:51Z</time>
      </trkpt>
      <trkpt lat="38.867583" lon="-5.843383">
        <ele>1638.0</ele>
        <time>2019-05-04T15:13:52Z</time>
      </trkpt>
      <trkpt lat="38.867550" lon="-5.843267">
        <ele>1637.0</ele>
        <time>2019-05-04T15:13:53Z</time>
      </trkpt>
      <trkpt lat="38.867500" lon="-5.843167">
        <ele>1636.0</ele>
        <time>2019-05-04T15:13:54Z</time>
      </trkpt>
      <trkpt lat="38.867483" lon="-5.843050">
        <ele>1636.0</ele>
        <time>2019-05-04T15:13:55Z</time>
      </trkpt>
      <trkpt lat="38.867467" lon="-5.842950">
        <ele>1636.0</ele>
        <time>2019-05-04T15:13:56Z</time>
      </trkpt>
      <trkpt lat="38.867450" lon="-5.842833">
        <ele>1635.0</ele>
        <time>2019-05-04T15:13:57Z</time>
      </trkpt>
      <trkpt lat="38.867450" lon="-5.842750">
        <ele>1635.0</ele>
        <time>2019-05-04T15:13:58Z</time>
      </trkpt>
      <trkpt lat="38.867450" lon="-5.842650">
        <ele>1634.0</ele>
        <time>2019-05-04T15:13:59Z</time>
      </trkpt>
      <trkpt lat="38.867450" lon="-5.842550">
        <ele>1633.0</ele>
        <time>2019-05-04T15:14:00Z</time>
      </trkpt>
      <trkpt lat="38.867467" lon="-5.842450">
        <ele>1632.0</ele>
        <time>2019-05-04T15:14:01Z</time>
      </trkpt>
      <trkpt lat="38.867467" lon="-5.842333">
        <ele>1630.0</ele>
        <time>2019-05-04T15:14:02Z</time>
      </trkpt>
      <trkpt lat="38.867483" lon="-5.842217">
        <ele>1629.0</ele>
        <time>2019-05-04T15:14:03Z</time>
      </trkpt>
      <trkpt lat="38.867500" lon="-5.842083">
        <ele>1628.0</ele>
        <time>2019-05-04T15:14:04Z</time>
      </trkpt>
      <trkpt lat="38.867517" lon="-5.841983">
        <ele>1628.0</ele>
        <time>2019-05-04T15:14:05Z</time>
      </trkpt>
      <trkpt lat="38.867533" lon="-5.841883">
        <ele>1628.0</ele>
        <time>2019-05-04T15:14:06Z</time>
      </trkpt>
      <trkpt lat="38.867550" lon="-5.841783">
        <ele>1628.0</ele>
        <time>2019-05-04T15:14:07Z</time>
      </trkpt>
      <trkpt lat="38.867567" lon="-5.841683">
        <ele>1627.0</ele>
        <time>2019-05-04T15:14:08Z</time>
      </trkpt>
      <trkpt lat="38.867583" lon="-5.841583">
        <ele>1627.0</ele>
        <time>2019-05-04T15:14:09Z</time>
      </trkpt>
      <trkpt lat="38.867617" lon="-5.841467">
        <ele>1626.0</ele>
        <time>2019-05-04T15:14:10Z</time>
      </trkpt>
      <trkpt lat="38.867650" lon="-5.841350">
        <ele>1626.0</ele>
        <time>2019-05-04T15:14:11Z</time>
      </trkpt>
      <trkpt lat="38.867667" lon="-5.841233">
        <ele>1626.0</ele>
        <time>2019-05-04T15:14:12Z</time>
      </trkpt>
      <trkpt lat="38.867700" lon="-5.841133">
        <ele>1627.0</ele>
        <time>2019-05-04T15:14:13Z</time>
      </trkpt>
      <trkpt lat="38.867717" lon="-5.841017">
        <ele>1628.0</ele>
        <time>2019-05-04T15:14:14Z</time>
      </trkpt>
      <trkpt lat="38.867733" lon="-5.840933">
        <ele>1630.0</ele>
        <time>2019-05-04T15:14:15Z</time>
      </trkpt>
      <trkpt lat="38.867750" lon="-5.840850">
        <ele>1631.0</ele>
        <time>2019-05-04T15:14:16Z</time>
      </trkpt>
      <trkpt lat="38.867767" lon="-5.840767">
        <ele>1632.0</ele>
        <time>2019-05-04T15:14:17Z</time>
      </trkpt>
      <trkpt lat="38.867767" lon="-5.840667">
        <ele>1631.0</ele>
        <time>2019-05-04T15:14:18Z</time>
      </trkpt>
      <trkpt lat="38.867783" lon="-5.840567">
        <ele>1631.0</ele>
        <time>2019-05-04T15:14:19Z</time>
      </trkpt>
      <trkpt lat="38.867783" lon="-5.840467">
        <ele>1630.0</ele>
        <time>2019-05-04T15:14:20Z</time>
      </trkpt>
      <trkpt lat="38.867800" lon="-5.840367">
        <ele>1629.0</ele>
        <time>2019-05-04T15:14:21Z</time>
      </trkpt>
      <trkpt lat="38.867817" lon="-5.840267">
        <ele>1629.0</ele>
        <time>2019-05-04T15:14:22Z</time>
      </trkpt>
      <trkpt lat="38.867817" lon="-5.840167">
        <ele>1628.0</ele>
        <time>2019-05-04T15:14:23Z</time>
      </trkpt>
      <trkpt lat="38.867850" lon="-5.840050">
        <ele>1628.0</ele>
        <time>2019-05-04T15:14:24Z</time>
      </trkpt>
      <trkpt lat="38.867867" lon="-5.839967">
        <ele>1627.0</ele>
        <time>2019-05-04T15:14:25Z</time>
      </trkpt>
      <trkpt lat="38.867883" lon="-5.839867">
        <ele>1627.0</ele>
        <time>2019-05-04T15:14:26Z</time>
      </trkpt>
      <trkpt lat="38.867900" lon="-5.839767">
        <ele>1626.0</ele>
        <time>2019-05-04T15:14:27Z</time>
      </trkpt>
      <trkpt lat="38.867900" lon="-5.839650">
        <ele>1626.0</ele>
        <time>2019-05-04T15:14:28Z</time>
      </trkpt>
      <trkpt lat="38.867900" lon="-5.839533">
        <ele>1625.0</ele>
        <time>2019-05-04T15:14:29Z</time>
      </trkpt>
      <trkpt lat="38.867900" lon="-5.839433">
        <ele>1624.0</ele>
        <time>2019-05-04T15:14:30Z</time>
      </trkpt>
      <trkpt lat="38.867900" lon="-5.839333">
        <ele>1624.0</ele>
        <time>2019-05-04T15:14:31Z</time>
      </trkpt>
      <trkpt lat="38.867883" lon="-5.839233">
        <ele>1624.0</ele>
        <time>2019-05-04T15:14:32Z</time>
      </trkpt>
      <trkpt lat="38.867867" lon="-5.839117">
        <ele>1624.0</ele>
        <time>2019-05-04T15:14:33Z</time>
      </trkpt>
      <trkpt lat="38.867867" lon="-5.838983">
        <ele>1623.0</ele>
        <time>2019-05-04T15:14:34Z</time>
      </trkpt>
      <trkpt lat="38.867850" lon="-5.838850">
        <ele>1623.0</ele>
        <time>2019-05-04T15:14:35Z</time>
      </trkpt>
      <trkpt lat="38.867833" lon="-5.838750">
        <ele>1625.0</ele>
        <time>2019-05-04T15:14:36Z</time>
      </trkpt>
      <trkpt lat="38.867833" lon="-5.838650">
        <ele>1626.0</ele>
        <time>2019-05-04T15:14:37Z</time>
      </trkpt>
      <trkpt lat="38.867817" lon="-5.838550">
        <ele>1627.0</ele>
        <time>2019-05-04T15:14:38Z</time>
      </trkpt>
      <trkpt lat="38.867817" lon="-5.838433">
        <ele>1628.0</ele>
        <time>2019-05-04T15:14:39Z</time>
      </trkpt>
      <trkpt lat="38.867800" lon="-5.838317">
        <ele>1628.0</ele>
        <time>2019-05-04T15:14:40Z</time>
      </trkpt>
      <trkpt lat="38.867750" lon="-5.838200">
        <ele>1628.0</ele>
        <time>2019-05-04T15:14:41Z</time>
      </trkpt>
      <trkpt lat="38.867667" lon="-5.838100">
        <ele>1629.0</ele>
        <time>2019-05-04T15:14:42Z</time>
      </trkpt>
      <trkpt lat="38.867567" lon="-5.838033">
        <ele>1629.0</ele>
        <time>2019-05-04T15:14:43Z</time>
      </trkpt>
      <trkpt lat="38.867467" lon="-5.838000">
        <ele>1629.0</ele>
        <time>2019-05-04T15:14:44Z</time>
      </trkpt>
      <trkpt lat="38.867350" lon="-5.838000">
        <ele>1630.0</ele>
        <time>2019-05-04T15:14:45Z</time>
      </trkpt>
      <trkpt lat="38.867250" lon="-5.838033">
        <ele>1631.0</ele>
        <time>2019-05-04T15:14:46Z</time>
      </trkpt>
      <trkpt lat="38.867150" lon="-5.838083">
        <ele>1631.0</ele>
        <time>2019-05-04T15:14:47Z</time>
      </trkpt>
      <trkpt lat="38.867100" lon="-5.838183">
        <ele>1632.0</ele>
        <time>2019-05-04T15:14:48Z</time>
      </trkpt>
      <trkpt lat="38.867050" lon="-5.838283">
        <ele>1632.0</ele>
        <time>2019-05-04T15:14:49Z</time>
      </trkpt>
      <trkpt lat="38.867050" lon="-5.838367">
        <ele>1631.0</ele>
        <time>2019-05-04T15:14:50Z</time>
      </trkpt>
      <trkpt lat="38.867050" lon="-5.838450">
        <ele>1630.0</ele>
        <time>2019-05-04T15:14:51Z</time>
      </trkpt>
      <trkpt lat="38.867083" lon="-5.838517">
        <ele>1629.0</ele>
        <time>2019-05-04T15:14:52Z</time>
      </trkpt>
      <trkpt lat="38.867150" lon="-5.838567">
        <ele>1626.0</ele>
        <time>2019-05-04T15:14:53Z</time>
      </trkpt>
      <trkpt lat="38.867217" lon="-5.838583">
        <ele>1624.0</ele>
        <time>2019-05-04T15:14:54Z</time>
      </trkpt>
      <trkpt lat="38.867267" lon="-5.838600">
        <ele>1623.0</ele>
        <time>2019-05-04T15:14:55Z</time>
      </trkpt>
      <trkpt lat="38.867333" lon="-5.838600">
        <ele>1624.0</ele>
        <time>2019-05-04T15:14:56Z</time>
      </trkpt>
      <trkpt lat="38.867383" lon="-5.838617">
        <ele>1626.0</ele>
        <time>2019-05-04T15:14:57Z</time>
      </trkpt>
      <trkpt lat="38.867433" lon="-5.838617">
        <ele>1629.0</ele>
        <time>2019-05-04T15:14:58Z</time>
      </trkpt>
      <trkpt lat="38.867467" lon="-5.838617">
        <ele>1631.0</ele>
        <time>2019-05-04T15:14:59Z</time>
      </trkpt>
      <trkpt lat="38.867500" lon="-5.838633">
        <ele>1633.0</ele>
        <time>2019-05-04T15:15:00Z</time>
      </trkpt>
      <trkpt lat="38.867567" lon="-5.838633">
        <ele>1633.0</ele>
        <time>2019-05-04T15:15:01Z</time>
      </trkpt>
      <trkpt lat="38.867650" lon="-5.838583">
        <ele>1633.0</ele>
        <time>2019-05-04T15:15:02Z</time>
      </trkpt>
      <trkpt lat="38.867700" lon="-5.838517">
        <ele>1633.0</ele>
        <time>2019-05-04T15:15:03Z</time>
      </trkpt>
      <trkpt lat="38.867750" lon="-5.838450">
        <ele>1635.0</ele>
        <time>2019-05-04T15:15:04Z</time>
      </trkpt>
      <trkpt lat="38.867800" lon="-5.838383">
        <ele>1638.0</ele>
        <time>2019-05-04T15:15:05Z</time>
      </trkpt>
      <trkpt lat="38.867833" lon="-5.838317">
        <ele>1640.0</ele>
        <time>2019-05-04T15:15:06Z</time>
      </trkpt>
      <trkpt lat="38.867883" lon="-5.838250">
        <ele>1642.0</ele>
        <time>2019-05-04T15:15:07Z</time>
      </trkpt>
      <trkpt lat="38.867917" lon="-5.838133">
        <ele>1642.0</ele>
        <time>2019-05-04T15:15:08Z</time>
      </trkpt>
      <trkpt lat="38.867933" lon="-5.838000">
        <ele>1641.0</ele>
        <time>2019-05-04T15:15:09Z</time>
      </trkpt>
      <trkpt lat="38.867900" lon="-5.837867">
        <ele>1643.0</ele>
        <time>2019-05-04T15:15:10Z</time>
      </trkpt>
      <trkpt lat="38.867850" lon="-5.837767">
        <ele>1645.0</ele>
        <time>2019-05-04T15:15:11Z</time>
      </trkpt>
      <trkpt lat="38.867767" lon="-5.837700">
        <ele>1647.0</ele>
        <time>2019-05-04T15:15:12Z</time>
      </trkpt>
      <trkpt lat="38.867650" lon="-5.837683">
        <ele>1648.0</ele>
        <time>2019-05-04T15:15:13Z</time>
      </trkpt>
      <trkpt lat="38.867550" lon="-5.837700">
        <ele>1651.0</ele>
        <time>2019-05-04T15:15:14Z</time>
      </trkpt>
      <trkpt lat="38.867467" lon="-5.837750">
        <ele>1653.0</ele>
        <time>2019-05-04T15:15:15Z</time>
      </trkpt>
      <trkpt lat="38.867400" lon="-5.837833">
        <ele>1655.0</ele>
        <time>2019-05-04T15:15:16Z</time>
      </trkpt>
      <trkpt lat="38.867367" lon="-5.837933">
        <ele>1656.0</ele>
        <time>2019-05-04T15:15:17Z</time>
      </trkpt>
      <trkpt lat="38.867383" lon="-5.838017">
        <ele>1657.0</ele>
        <time>2019-05-04T15:15:18Z</time>
      </trkpt>
      <trkpt lat="38.867417" lon="-5.838083">
        <ele>1657.0</ele>
        <time>2019-05-04T15:15:19Z</time>
      </trkpt>
      <trkpt lat="38.867467" lon="-5.838117">
        <ele>1658.0</ele>
        <time>2019-05-04T15:15:20Z</time>
      </trkpt>
      <trkpt lat="38.867517" lon="-5.838150">
        <ele>1659.0</ele>
        <time>2019-05-04T15:15:21Z</time>
      </trkpt>
      <trkpt lat="38.867567" lon="-5.838200">
        <ele>1661.0</ele>
        <time>2019-05-04T15:15:22Z</time>
      </trkpt>
      <trkpt lat="38.867617" lon="-5.838233">
        <ele>1662.0</ele>
        <time>2019-05-04T15:15:23Z</time>
      </trkpt>
      <trkpt lat="38.867683" lon="-5.838233">
        <ele>1663.0</ele>
        <time>2019-05-04T15:15:24Z</time>
      </trkpt>
      <trkpt lat="38.867750" lon="-5.838183">
        <ele>1664.0</ele>
        <time>2019-05-04T15:15:25Z</time>
      </trkpt>
      <trkpt lat="38.867800" lon="-5.838100">
        <ele>1663.0</ele>
        <time>2019-05-04T15:15:26Z</time>
      </trkpt>
      <trkpt lat="38.867833" lon="-5.838000">
        <ele>1662.0</ele>
        <time>2019-05-04T15:15:27Z</time>
      </trkpt>
      <trkpt lat="38.867833" lon="-5.837883">
        <ele>1664.0</ele>
        <time>2019-05-04T15:15:28Z</time>
      </trkpt>
      <trkpt lat="38.867817" lon="-5.837783">
        <ele>1666.0</ele>
        <time>2019-05-04T15:15:29Z</time>
      </trkpt>
      <trkpt lat="38.867800" lon="-5.837700">
        <ele>1667.0</ele>
        <time>2019-05-04T15:15:30Z</time>
      </trkpt>
      <trkpt lat="38.867767" lon="-5.837600">
        <ele>1668.0</ele>
        <time>2019-05-04T15:15:31Z</time>
      </trkpt>
      <trkpt lat="38.867717" lon="-5.837483">
        <ele>1668.0</ele>
        <time>2019-05-04T15:15:32Z</time>
      </trkpt>
      <trkpt lat="38.867633" lon="-5.837400">
        <ele>1668.0</ele>
        <time>2019-05-04T15:15:33Z</time>
      </trkpt>
      <trkpt lat="38.867533" lon="-5.837350">
        <ele>1668.0</ele>
        <time>2019-05-04T15:15:34Z</time>
      </trkpt>
      <trkpt lat="38.867417" lon="-5.837350">
        <ele>1668.0</ele>
        <time>2019-05-04T15:15:35Z</time>
      </trkpt>
      <trkpt lat="38.867317" lon="-5.837383">
        <ele>1669.0</ele>
        <time>2019-05-04T15:15:36Z</time>
      </trkpt>
      <trkpt lat="38.867233" lon="-5.837450">
        <ele>1670.0</ele>
        <time>2019-05-04T15:15:37Z</time>
      </trkpt>
      <trkpt lat="38.867183" lon="-5.837533">
        <ele>1671.0</ele>
        <time>2019-05-04T15:15:38Z</time>
      </trkpt>
      <trkpt lat="38.867150" lon="-5.837617">
        <ele>1673.0</ele>
        <time>2019-05-04T15:15:39Z</time>
      </trkpt>
      <trkpt lat="38.867133" lon="-5.837700">
        <ele>1674.0</ele>
        <time>2019-05-04T15:15:40Z</time>
      </trkpt>
      <trkpt lat="38.867167" lon="-5.837783">
        <ele>1676.0</ele>
        <time>2019-05-04T15:15:41Z</time>
      </trkpt>
      <trkpt lat="38.867217" lon="-5.837833">
        <ele>1674.0</ele>
        <time>2019-05-04T15:15:42Z</time>
      </trkpt>
      <trkpt lat="38.867267" lon="-5.837850">
        <ele>1674.0</ele>
        <time>2019-05-04T15:15:43Z</time>
      </trkpt>
      <trkpt lat="38.867333" lon="-5.837817">
        <ele>1674.0</ele>
        <time>2019-05-04T15:15:44Z</time>
      </trkpt>
      <trkpt lat="38.867383" lon="-5.837733">
        <ele>1675.0</ele>
        <time>2019-05-04T15:15:45Z</time>
      </trkpt>
      <trkpt lat="38.867400" lon="-5.837617">
        <ele>1675.0</ele>
        <time>2019-05-04T15:15:46Z</time>
      </trkpt>
      <trkpt lat="38.867383" lon="-5.837500">
        <ele>1676.0</ele>
        <time>2019-05-04T15:15:47Z</time>
      </trkpt>
      <trkpt lat="38.867333" lon="-5.837383">
        <ele>1678.0</ele>
        <time>2019-05-04T15:15:48Z</time>
      </trkpt>
      <trkpt lat="38.867283" lon="-5.837267">
        <ele>1680.0</ele>
        <time>2019-05-04T15:15:49Z</time>
      </trkpt>
      <trkpt lat="38.867217" lon="-5.837183">
        <ele>1682.0</ele>
        <time>2019-05-04T15:15:50Z</time>
      </trkpt>
      <trkpt lat="38.867133" lon="-5.837117">
        <ele>1683.0</ele>
        <time>2019-05-04T15:15:51Z</time>
      </trkpt>
      <trkpt lat="38.867017" lon="-5.837067">
        <ele>1683.0</ele>
        <time>2019-05-04T15:15:52Z</time>
      </trkpt>
      <trkpt lat="38.866900" lon="-5.837067">
        <ele>1683.0</ele>
        <time>2019-05-04T15:15:53Z</time>
      </trkpt>
      <trkpt lat="38.866783" lon="-5.837117">
        <ele>1684.0</ele>
        <time>2019-05-04T15:15:54Z</time>
      </trkpt>
      <trkpt lat="38.866683" lon="-5.837167">
        <ele>1685.0</ele>
        <time>2019-05-04T15:15:55Z</time>
      </trkpt>
      <trkpt lat="38.866617" lon="-5.837250">
        <ele>1688.0</ele>
        <time>2019-05-04T15:15:56Z</time>
      </trkpt>
      <trkpt lat="38.866567" lon="-5.837317">
        <ele>1690.0</ele>
        <time>2019-05-04T15:15:57Z</time>
      </trkpt>
      <trkpt lat="38.866517" lon="-5.837400">
        <ele>1692.0</ele>
        <time>2019-05-04T15:15:58Z</time>
      </trkpt>
      <trkpt lat="38.866467" lon="-5.837500">
        <ele>1693.0</ele>
        <time>2019-05-04T15:15:59Z</time>
      </trkpt>
      <trkpt lat="38.866450" lon="-5.837617">
        <ele>1693.0</ele>
        <time>2019-05-04T15:16:00Z</time>
      </trkpt>
      <trkpt lat="38.866467" lon="-5.837733">
        <ele>1694.0</ele>
        <time>2019-05-04T15:16:01Z</time>
      </trkpt>
      <trkpt lat="38.866517" lon="-5.837800">
        <ele>1694.0</ele>
        <time>2019-05-04T15:16:02Z</time>
      </trkpt>
      <trkpt lat="38.866583" lon="-5.837817">
        <ele>1695.0</ele>
        <time>2019-05-04T15:16:03Z</time>
      </trkpt>
      <trkpt lat="38.866650" lon="-5.837800">
        <ele>1696.0</ele>
        <time>2019-05-04T15:16:04Z</time>
      </trkpt>
      <trkpt lat="38.866700" lon="-5.837767">
        <ele>1698.0</ele>
        <time>2019-05-04T15:16:05Z</time>
      </trkpt>
      <trkpt lat="38.866733" lon="-5.837700">
        <ele>1699.0</ele>
        <time>2019-05-04T15:16:06Z</time>
      </trkpt>
      <trkpt lat="38.866767" lon="-5.837633">
        <ele>1701.0</ele>
        <time>2019-05-04T15:16:07Z</time>
      </trkpt>
      <trkpt lat="38.866767" lon="-5.837533">
        <ele>1702.0</ele>
        <time>2019-05-04T15:16:08Z</time>
      </trkpt>
      <trkpt lat="38.866733" lon="-5.837417">
        <ele>1702.0</ele>
        <time>2019-05-04T15:16:09Z</time>
      </trkpt>
      <trkpt lat="38.866683" lon="-5.837300">
        <ele>1702.0</ele>
        <time>2019-05-04T15:16:10Z</time>
      </trkpt>
      <trkpt lat="38.866583" lon="-5.837217">
        <ele>1702.0</ele>
        <time>2019-05-04T15:16:11Z</time>
      </trkpt>
      <trkpt lat="38.866483" lon="-5.837183">
        <ele>1703.0</ele>
        <time>2019-05-04T15:16:12Z</time>
      </trkpt>
      <trkpt lat="38.866367" lon="-5.837200">
        <ele>1703.0</ele>
        <time>2019-05-04T15:16:13Z</time>
      </trkpt>
      <trkpt lat="38.866267" lon="-5.837267">
        <ele>1704.0</ele>
        <time>2019-05-04T15:16:14Z</time>
      </trkpt>
      <trkpt lat="38.866183" lon="-5.837350">
        <ele>1705.0</ele>
        <time>2019-05-04T15:16:15Z</time>
      </trkpt>
      <trkpt lat="38.866133" lon="-5.837433">
        <ele>1705.0</ele>
        <time>2019-05-04T15:16:16Z</time>
      </trkpt>
      <trkpt lat="38.866100" lon="-5.837550">
        <ele>1706.0</ele>
        <time>2019-05-04T15:16:17Z</time>
      </trkpt>
      <trkpt lat="38.866100" lon="-5.837650">
        <ele>1707.0</ele>
        <time>2019-05-04T15:16:18Z</time>
      </trkpt>
      <trkpt lat="38.866117" lon="-5.837733">
        <ele>1707.0</ele>
        <time>2019-05-04T15:16:19Z</time>
      </trkpt>
      <trkpt lat="38.866167" lon="-5.837783">
        <ele>1707.0</ele>
        <time>2019-05-04T15:16:20Z</time>
      </trkpt>
      <trkpt lat="38.866250" lon="-5.837783">
        <ele>1707.0</ele>
        <time>2019-05-04T15:16:21Z</time>
      </trkpt>
      <trkpt lat="38.866300" lon="-5.837750">
        <ele>1708.0</ele>
        <time>2019-05-04T15:16:22Z</time>
      </trkpt>
      <trkpt lat="38.866333" lon="-5.837667">
        <ele>1710.0</ele>
        <time>2019-05-04T15:16:23Z</time>
      </trkpt>
      <trkpt lat="38.866350" lon="-5.837583">
        <ele>1711.0</ele>
        <time>2019-05-04T15:16:24Z</time>
      </trkpt>
      <trkpt lat="38.866350" lon="-5.837500">
        <ele>1712.0</ele>
        <time>2019-05-04T15:16:25Z</time>
      </trkpt>
      <trkpt lat="38.866317" lon="-5.837400">
        <ele>1713.0</ele>
        <time>2019-05-04T15:16:26Z</time>
      </trkpt>
      <trkpt lat="38.866250" lon="-5.837300">
        <ele>1713.0</ele>
        <time>2019-05-04T15:16:27Z</time>
      </trkpt>
      <trkpt lat="38.866167" lon="-5.837233">
        <ele>1713.0</ele>
        <time>2019-05-04T15:16:28Z</time>
      </trkpt>
      <trkpt lat="38.866050" lon="-5.837200">
        <ele>1713.0</ele>
        <time>2019-05-04T15:16:29Z</time>
      </trkpt>
      <trkpt lat="38.865933" lon="-5.837217">
        <ele>1713.0</ele>
        <time>2019-05-04T15:16:30Z</time>
      </trkpt>
      <trkpt lat="38.865850" lon="-5.837267">
        <ele>1714.0</ele>
        <time>2019-05-04T15:16:31Z</time>
      </trkpt>
      <trkpt lat="38.865800" lon="-5.837350">
        <ele>1715.0</ele>
        <time>2019-05-04T15:16:32Z</time>
      </trkpt>
      <trkpt lat="38.865750" lon="-5.837433">
        <ele>1716.0</ele>
        <time>2019-05-04T15:16:33Z</time>
      </trkpt>
      <trkpt lat="38.865733" lon="-5.837517">
        <ele>1717.0</ele>
        <time>2019-05-04T15:16:34Z</time>
      </trkpt>
      <trkpt lat="38.865717" lon="-5.837617">
        <ele>1719.0</ele>
        <time>2019-05-04T15:16:35Z</time>
      </trkpt>
      <trkpt lat="38.865717" lon="-5.837700">
        <ele>1719.0</ele>
        <time>2019-05-04T15:16:36Z</time>
      </trkpt>
      <trkpt lat="38.865750" lon="-5.837783">
        <ele>1720.0</ele>
        <time>2019-05-04T15:16:37Z</time>
      </trkpt>
      <trkpt lat="38.865817" lon="-5.837817">
        <ele>1719.0</ele>
        <time>2019-05-04T15:16:38Z</time>
      </trkpt>
      <trkpt lat="38.865883" lon="-5.837817">
        <ele>1719.0</ele>
        <time>2019-05-04T15:16:39Z</time>
      </trkpt>
      <trkpt lat="38.865917" lon="-5.837783">
        <ele>1721.0</ele>
        <time>2019-05-04T15:16:40Z</time>
      </trkpt>
      <trkpt lat="38.865950" lon="-5.837717">
        <ele>1722.0</ele>
        <time>2019-05-04T15:16:41Z</time>
      </trkpt>
      <trkpt lat="38.865967" lon="-5.837650">
        <ele>1723.0</ele>
        <time>2019-05-04T15:16:42Z</time>
      </trkpt>
      <trkpt lat="38.865967" lon="-5.837567">
        <ele>1724.0</ele>
        <time>2019-05-04T15:16:43Z</time>
      </trkpt>
      <trkpt lat="38.865950" lon="-5.837450">
        <ele>1725.0</ele>
        <time>2019-05-04T15:16:44Z</time>
      </trkpt>
      <trkpt lat="38.865900" lon="-5.837350">
        <ele>1725.0</ele>
        <time>2019-05-04T15:16:45Z</time>
      </trkpt>
      <trkpt lat="38.865833" lon="-5.837250">
        <ele>1725.0</ele>
        <time>2019-05-04T15:16:46Z</time>
      </trkpt>
      <trkpt lat="38.865717" lon="-5.837200">
        <ele>1725.0</ele>
        <time>2019-05-04T15:16:47Z</time>
      </trkpt>
      <trkpt lat="38.865600" lon="-5.837183">
        <ele>1724.0</ele>
        <time>2019-05-04T15:16:48Z</time>
      </trkpt>
      <trkpt lat="38.865500" lon="-5.837217">
        <ele>1724.0</ele>
        <time>2019-05-04T15:16:49Z</time>
      </trkpt>
      <trkpt lat="38.865400" lon="-5.837267">
        <ele>1726.0</ele>
        <time>2019-05-04T15:16:50Z</time>
      </trkpt>
      <trkpt lat="38.865333" lon="-5.837333">
        <ele>1727.0</ele>
        <time>2019-05-04T15:16:51Z</time>
      </trkpt>
      <trkpt lat="38.865267" lon="-5.837433">
        <ele>1728.0</ele>
        <time>2019-05-04T15:16:52Z</time>
      </trkpt>
      <trkpt lat="38.865217" lon="-5.837533">
        <ele>1728.0</ele>
        <time>2019-05-04T15:16:53Z</time>
      </trkpt>
      <trkpt lat="38.865200" lon="-5.837633">
        <ele>1729.0</ele>
        <time>2019-05-04T15:16:54Z</time>
      </trkpt>
      <trkpt lat="38.865217" lon="-5.837733">
        <ele>1730.0</ele>
        <time>2019-05-04T15:16:55Z</time>
      </trkpt>
      <trkpt lat="38.865250" lon="-5.837783">
        <ele>1731.0</ele>
        <time>2019-05-04T15:16:56Z</time>
      </trkpt>
      <trkpt lat="38.865300" lon="-5.837817">
        <ele>1732.0</ele>
        <time>2019-05-04T15:16:57Z</time>
      </trkpt>
      <trkpt lat="38.865333" lon="-5.837867">
        <ele>1736.0</ele>
        <time>2019-05-04T15:16:58Z</time>
      </trkpt>
      <trkpt lat="38.865350" lon="-5.837900">
        <ele>1739.0</ele>
        <time>2019-05-04T15:16:59Z</time>
      </trkpt>
      <trkpt lat="38.865383" lon="-5.837917">
        <ele>1741.0</ele>
        <time>2019-05-04T15:17:00Z</time>
      </trkpt>
      <trkpt lat="38.865433" lon="-5.837900">
        <ele>1742.0</ele>
        <time>2019-05-04T15:17:01Z</time>
      </trkpt>
      <trkpt lat="38.865500" lon="-5.837867">
        <ele>1742.0</ele>
        <time>2019-05-04T15:17:02Z</time>
      </trkpt>
      <trkpt lat="38.865550" lon="-5.837783">
        <ele>1742.0</ele>
        <time>2019-05-04T15:17:03Z</time>
      </trkpt>
      <trkpt lat="38.865583" lon="-5.837683">
        <ele>1744.0</ele>
        <time>2019-05-04T15:17:04Z</time>
      </trkpt>
      <trkpt lat="38.865567" lon="-5.837567">
        <ele>1746.0</ele>
        <time>2019-05-04T15:17:05Z</time>
      </trkpt>
      <trkpt lat="38.865533" lon="-5.837483">
        <ele>1748.0</ele>
        <time>2019-05-04T15:17:06Z</time>
      </trkpt>
      <trkpt lat="38.865483" lon="-5.837383">
        <ele>1749.0</ele>
        <time>2019-05-04T15:17:07Z</time>
      </trkpt>
      <trkpt lat="38.865433" lon="-5.837267">
        <ele>1750.0</ele>
        <time>2019-05-04T15:17:08Z</time>
      </trkpt>
      <trkpt lat="38.865350" lon="-5.837183">
        <ele>1750.0</ele>
        <time>2019-05-04T15:17:09Z</time>
      </trkpt>
      <trkpt lat="38.865233" lon="-5.837117">
        <ele>1751.0</ele>
        <time>2019-05-04T15:17:10Z</time>
      </trkpt>
      <trkpt lat="38.865117" lon="-5.837117">
        <ele>1751.0</ele>
        <time>2019-05-04T15:17:11Z</time>
      </trkpt>
      <trkpt lat="38.865000" lon="-5.837167">
        <ele>1751.0</ele>
        <time>2019-05-04T15:17:12Z</time>
      </trkpt>
      <trkpt lat="38.864917" lon="-5.837250">
        <ele>1750.0</ele>
        <time>2019-05-04T15:17:13Z</time>
      </trkpt>
      <trkpt lat="38.864850" lon="-5.837350">
        <ele>1750.0</ele>
        <time>2019-05-04T15:17:14Z</time>
      </trkpt>
      <trkpt lat="38.864817" lon="-5.837450">
        <ele>1749.0</ele>
        <time>2019-05-04T15:17:15Z</time>
      </trkpt>
      <trkpt lat="38.864800" lon="-5.837567">
        <ele>1749.0</ele>
        <time>2019-05-04T15:17:16Z</time>
      </trkpt>
      <trkpt lat="38.864817" lon="-5.837650">
        <ele>1748.0</ele>
        <time>2019-05-04T15:17:17Z</time>
      </trkpt>
      <trkpt lat="38.864850" lon="-5.837733">
        <ele>1747.0</ele>
        <time>2019-05-04T15:17:18Z</time>
      </trkpt>
      <trkpt lat="38.864917" lon="-5.837783">
        <ele>1746.0</ele>
        <time>2019-05-04T15:17:19Z</time>
      </trkpt>
      <trkpt lat="38.864983" lon="-5.837783">
        <ele>1746.0</ele>
        <time>2019-05-04T15:17:20Z</time>
      </trkpt>
      <trkpt lat="38.865033" lon="-5.837750">
        <ele>1746.0</ele>
        <time>2019-05-04T15:17:21Z</time>
      </trkpt>
      <trkpt lat="38.865083" lon="-5.837667">
        <ele>1746.0</ele>
        <time>2019-05-04T15:17:22Z</time>
      </trkpt>
      <trkpt lat="38.865100" lon="-5.837550">
        <ele>1746.0</ele>
        <time>2019-05-04T15:17:23Z</time>
      </trkpt>
      <trkpt lat="38.865083" lon="-5.837433">
        <ele>1748.0</ele>
        <time>2019-05-04T15:17:24Z</time>
      </trkpt>
      <trkpt lat="38.865067" lon="-5.837333">
        <ele>1749.0</ele>
        <time>2019-05-04T15:17:25Z</time>
      </trkpt>
      <trkpt lat="38.865033" lon="-5.837217">
        <ele>1750.0</ele>
        <time>2019-05-04T15:17:26Z</time>
      </trkpt>
      <trkpt lat="38.865000" lon="-5.837100">
        <ele>1751.0</ele>
        <time>2019-05-04T15:17:27Z</time>
      </trkpt>
      <trkpt lat="38.864950" lon="-5.836983">
        <ele>1751.0</ele>
        <time>2019-05-04T15:17:28Z</time>
      </trkpt>
      <trkpt lat="38.864917" lon="-5.836850">
        <ele>1750.0</ele>
        <time>2019-05-04T15:17:29Z</time>
      </trkpt>
      <trkpt lat="38.864867" lon="-5.836717">
        <ele>1750.0</ele>
        <time>2019-05-04T15:17:30Z</time>
      </trkpt>
      <trkpt lat="38.864833" lon="-5.836583">
        <ele>1750.0</ele>
        <time>2019-05-04T15:17:31Z</time>
      </trkpt>
      <trkpt lat="38.864767" lon="-5.836483">
        <ele>1750.0</ele>
        <time>2019-05-04T15:17:32Z</time>
      </trkpt>
      <trkpt lat="38.864733" lon="-5.836383">
        <ele>1750.0</ele>
        <time>2019-05-04T15:17:33Z</time>
      </trkpt>
      <trkpt lat="38.864717" lon="-5.836267">
        <ele>1750.0</ele>
        <time>2019-05-04T15:17:34Z</time>
      </trkpt>
      <trkpt lat="38.864683" lon="-5.836150">
        <ele>1750.0</ele>
        <time>2019-05-04T15:17:35Z</time>
      </trkpt>
      <trkpt lat="38.864650" lon="-5.836033">
        <ele>1748.0</ele>
        <time>2019-05-04T15:17:36Z</time>
      </trkpt>
      <trkpt lat="38.864600" lon="-5.835900">
        <ele>1747.0</ele>
        <time>2019-05-04T15:17:37Z</time>
      </trkpt>
      <trkpt lat="38.864550" lon="-5.835767">
        <ele>1747.0</ele>
        <time>2019-05-04T15:17:38Z</time>
      </trkpt>
      <trkpt lat="38.864517" lon="-5.835650">
        <ele>1746.0</ele>
        <time>2019-05-04T15:17:39Z</time>
      </trkpt>
      <trkpt lat="38.864483" lon="-5.835517">
        <ele>1746.0</ele>
        <time>2019-05-04T15:17:40Z</time>
      </trkpt>
      <trkpt lat="38.864467" lon="-5.835400">
        <ele>1747.0</ele>
        <time>2019-05-04T15:17:41Z</time>
      </trkpt>
      <trkpt lat="38.864367" lon="-5.835050">
        <ele>0.0</ele>
        <time>2019-05-04T15:17:44Z</time>
      </trkpt>
      <trkpt lat="38.864350" lon="-5.834933">
        <ele>1746.0</ele>
        <time>2019-05-04T15:17:45Z</time>
      </trkpt>
      <trkpt lat="38.864317" lon="-5.834833">
        <ele>1746.0</ele>
        <time>2019-05-04T15:17:46Z</time>
      </trkpt>
      <trkpt lat="38.864283" lon="-5.834717">
        <ele>1744.0</ele>
        <time>2019-05-04T15:17:47Z</time>
      </trkpt>
      <trkpt lat="38.864250" lon="-5.834600">
        <ele>1743.0</ele>
        <time>2019-05-04T15:17:48Z</time>
      </trkpt>
      <trkpt lat="38.864217" lon="-5.834483">
        <ele>1741.0</ele>
        <time>2019-05-04T15:17:49Z</time>
      </trkpt>
      <trkpt lat="38.864183" lon="-5.834367">
        <ele>1740.0</ele>
        <time>2019-05-04T15:17:50Z</time>
      </trkpt>
      <trkpt lat="38.864150" lon="-5.834233">
        <ele>1739.0</ele>
        <time>2019-05-04T15:17:51Z</time>
      </trkpt>
      <trkpt lat="38.864117" lon="-5.834117">
        <ele>1738.0</ele>
        <time>2019-05-04T15:17:52Z</time>
      </trkpt>
      <trkpt lat="38.864083" lon="-5.834000">
        <ele>1737.0</ele>
        <time>2019-05-04T15:17:53Z</time>
      </trkpt>
      <trkpt lat="38.864067" lon="-5.833867">
        <ele>1736.0</ele>
        <time>2019-05-04T15:17:54Z</time>
      </trkpt>
      <trkpt lat="38.864033" lon="-5.833733">
        <ele>1735.0</ele>
        <time>2019-05-04T15:17:55Z</time>
      </trkpt>
      <trkpt lat="38.864017" lon="-5.833617">
        <ele>1735.0</ele>
        <time>2019-05-04T15:17:56Z</time>
      </trkpt>
      <trkpt lat="38.864000" lon="-5.833500">
        <ele>1734.0</ele>
        <time>2019-05-04T15:17:57Z</time>
      </trkpt>
      <trkpt lat="38.863967" lon="-5.833400">
        <ele>1734.0</ele>
        <time>2019-05-04T15:17:58Z</time>
      </trkpt>
      <trkpt lat="38.863933" lon="-5.833283">
        <ele>1732.0</ele>
        <time>2019-05-04T15:17:59Z</time>
      </trkpt>
      <trkpt lat="38.863900" lon="-5.833150">
        <ele>1730.0</ele>
        <time>2019-05-04T15:18:00Z</time>
      </trkpt>
      <trkpt lat="38.863867" lon="-5.833017">
        <ele>1729.0</ele>
        <time>2019-05-04T15:18:01Z</time>
      </trkpt>
      <trkpt lat="38.863833" lon="-5.832900">
        <ele>1728.0</ele>
        <time>2019-05-04T15:18:02Z</time>
      </trkpt>
      <trkpt lat="38.863817" lon="-5.832800">
        <ele>1728.0</ele>
        <time>2019-05-04T15:18:03Z</time>
      </trkpt>
      <trkpt lat="38.863800" lon="-5.832683">
        <ele>1727.0</ele>
        <time>2019-05-04T15:18:04Z</time>
      </trkpt>
      <trkpt lat="38.863767" lon="-5.832567">
        <ele>1726.0</ele>
        <time>2019-05-04T15:18:05Z</time>
      </trkpt>
      <trkpt lat="38.863733" lon="-5.832433">
        <ele>1724.0</ele>
        <time>2019-05-04T15:18:06Z</time>
      </trkpt>
      <trkpt lat="38.863700" lon="-5.832300">
        <ele>1723.0</ele>
        <time>2019-05-04T15:18:07Z</time>
      </trkpt>
      <trkpt lat="38.863683" lon="-5.832183">
        <ele>1721.0</ele>
        <time>2019-05-04T15:18:08Z</time>
      </trkpt>
      <trkpt lat="38.863650" lon="-5.832067">
        <ele>1721.0</ele>
        <time>2019-05-04T15:18:09Z</time>
      </trkpt>
      <trkpt lat="38.863617" lon="-5.831967">
        <ele>1720.0</ele>
        <time>2019-05-04T15:18:10Z</time>
      </trkpt>
      <trkpt lat="38.863583" lon="-5.831883">
        <ele>1720.0</ele>
        <time>2019-05-04T15:18:11Z</time>
      </trkpt>
      <trkpt lat="38.863533" lon="-5.831800">
        <ele>1718.0</ele>
        <time>2019-05-04T15:18:12Z</time>
      </trkpt>
      <trkpt lat="38.863500" lon="-5.831717">
        <ele>1714.0</ele>
        <time>2019-05-04T15:18:13Z</time>
      </trkpt>
      <trkpt lat="38.863450" lon="-5.831600">
        <ele>1710.0</ele>
        <time>2019-05-04T15:18:14Z</time>
      </trkpt>
      <trkpt lat="38.863383" lon="-5.831450">
        <ele>1706.0</ele>
        <time>2019-05-04T15:18:15Z</time>
      </trkpt>
      <trkpt lat="38.863300" lon="-5.831317">
        <ele>1704.0</ele>
        <time>2019-05-04T15:18:16Z</time>
      </trkpt>
      <trkpt lat="38.863233" lon="-5.831200">
        <ele>1704.0</ele>
        <time>2019-05-04T15:18:17Z</time>
      </trkpt>
      <trkpt lat="38.863183" lon="-5.831100">
        <ele>1705.0</ele>
        <time>2019-05-04T15:18:18Z</time>
      </trkpt>
      <trkpt lat="38.863133" lon="-5.831033">
        <ele>1706.0</ele>
        <time>2019-05-04T15:18:19Z</time>
      </trkpt>
      <trkpt lat="38.863117" lon="-5.830933">
        <ele>1706.0</ele>
        <time>2019-05-04T15:18:20Z</time>
      </trkpt>
      <trkpt lat="38.863067" lon="-5.830833">
        <ele>1704.0</ele>
        <time>2019-05-04T15:18:21Z</time>
      </trkpt>
      <trkpt lat="38.863000" lon="-5.830717">
        <ele>1701.0</ele>
        <time>2019-05-04T15:18:22Z</time>
      </trkpt>
      <trkpt lat="38.862900" lon="-5.830650">
        <ele>1699.0</ele>
        <time>2019-05-04T15:18:23Z</time>
      </trkpt>
      <trkpt lat="38.862783" lon="-5.830650">
        <ele>1697.0</ele>
        <time>2019-05-04T15:18:24Z</time>
      </trkpt>
      <trkpt lat="38.862683" lon="-5.830683">
        <ele>1695.0</ele>
        <time>2019-05-04T15:18:25Z</time>
      </trkpt>
      <trkpt lat="38.862617" lon="-5.830767">
        <ele>1694.0</ele>
        <time>2019-05-04T15:18:26Z</time>
      </trkpt>
      <trkpt lat="38.862567" lon="-5.830867">
        <ele>1692.0</ele>
        <time>2019-05-04T15:18:27Z</time>
      </trkpt>
      <trkpt lat="38.862567" lon="-5.830967">
        <ele>1691.0</ele>
        <time>2019-05-04T15:18:28Z</time>
      </trkpt>
      <trkpt lat="38.862583" lon="-5.831050">
        <ele>1689.0</ele>
        <time>2019-05-04T15:18:29Z</time>
      </trkpt>
      <trkpt lat="38.862617" lon="-5.831117">
        <ele>1687.0</ele>
        <time>2019-05-04T15:18:30Z</time>
      </trkpt>
      <trkpt lat="38.862667" lon="-5.831150">
        <ele>1686.0</ele>
        <time>2019-05-04T15:18:31Z</time>
      </trkpt>
      <trkpt lat="38.862733" lon="-5.831150">
        <ele>1684.0</ele>
        <time>2019-05-04T15:18:32Z</time>
      </trkpt>
      <trkpt lat="38.862783" lon="-5.831117">
        <ele>1681.0</ele>
        <time>2019-05-04T15:18:33Z</time>
      </trkpt>
      <trkpt lat="38.862850" lon="-5.831033">
        <ele>1678.0</ele>
        <time>2019-05-04T15:18:34Z</time>
      </trkpt>
      <trkpt lat="38.862883" lon="-5.830933">
        <ele>1676.0</ele>
        <time>2019-05-04T15:18:35Z</time>
      </trkpt>
      <trkpt lat="38.862900" lon="-5.830817">
        <ele>1674.0</ele>
        <time>2019-05-04T15:18:36Z</time>
      </trkpt>
      <trkpt lat="38.862883" lon="-5.830683">
        <ele>1672.0</ele>
        <time>2019-05-04T15:18:37Z</time>
      </trkpt>
      <trkpt lat="38.862850" lon="-5.830567">
        <ele>1669.0</ele>
        <time>2019-05-04T15:18:38Z</time>
      </trkpt>
      <trkpt lat="38.862800" lon="-5.830433">
        <ele>1667.0</ele>
        <time>2019-05-04T15:18:39Z</time>
      </trkpt>
      <trkpt lat="38.862750" lon="-5.830283">
        <ele>1665.0</ele>
        <time>2019-05-04T15:18:40Z</time>
      </trkpt>
      <trkpt lat="38.862700" lon="-5.830150">
        <ele>1663.0</ele>
        <time>2019-05-04T15:18:41Z</time>
      </trkpt>
      <trkpt lat="38.862650" lon="-5.830000">
        <ele>1662.0</ele>
        <time>2019-05-04T15:18:42Z</time>
      </trkpt>
      <trkpt lat="38.862567" lon="-5.829850">
        <ele>1661.0</ele>
        <time>2019-05-04T15:18:43Z</time>
      </trkpt>
      <trkpt lat="38.862483" lon="-5.829683">
        <ele>1661.0</ele>
        <time>2019-05-04T15:18:44Z</time>
      </trkpt>
      <trkpt lat="38.862383" lon="-5.829550">
        <ele>1663.0</ele>
        <time>2019-05-04T15:18:45Z</time>
      </trkpt>
      <trkpt lat="38.862300" lon="-5.829417">
        <ele>1664.0</ele>
        <time>2019-05-04T15:18:46Z</time>
      </trkpt>
      <trkpt lat="38.862217" lon="-5.829300">
        <ele>1667.0</ele>
        <time>2019-05-04T15:18:47Z</time>
      </trkpt>
      <trkpt lat="38.862150" lon="-5.829200">
        <ele>1668.0</ele>
        <time>2019-05-04T15:18:48Z</time>
      </trkpt>
      <trkpt lat="38.862100" lon="-5.829083">
        <ele>1669.0</ele>
        <time>2019-05-04T15:18:49Z</time>
      </trkpt>
      <trkpt lat="38.862033" lon="-5.828983">
        <ele>1670.0</ele>
        <time>2019-05-04T15:18:50Z</time>
      </trkpt>
      <trkpt lat="38.861950" lon="-5.828867">
        <ele>1670.0</ele>
        <time>2019-05-04T15:18:51Z</time>
      </trkpt>
      <trkpt lat="38.861850" lon="-5.828783">
        <ele>1671.0</ele>
        <time>2019-05-04T15:18:52Z</time>
      </trkpt>
      <trkpt lat="38.861750" lon="-5.828717">
        <ele>1672.0</ele>
        <time>2019-05-04T15:18:53Z</time>
      </trkpt>
      <trkpt lat="38.861650" lon="-5.828683">
        <ele>1673.0</ele>
        <time>2019-05-04T15:18:54Z</time>
      </trkpt>
      <trkpt lat="38.861550" lon="-5.828700">
        <ele>1673.0</ele>
        <time>2019-05-04T15:18:55Z</time>
      </trkpt>
      <trkpt lat="38.861467" lon="-5.828733">
        <ele>1674.0</ele>
        <time>2019-05-04T15:18:56Z</time>
      </trkpt>
      <trkpt lat="38.861383" lon="-5.828783">
        <ele>1675.0</ele>
        <time>2019-05-04T15:18:57Z</time>
      </trkpt>
      <trkpt lat="38.861317" lon="-5.828833">
        <ele>1676.0</ele>
        <time>2019-05-04T15:18:58Z</time>
      </trkpt>
      <trkpt lat="38.861267" lon="-5.828917">
        <ele>1677.0</ele>
        <time>2019-05-04T15:18:59Z</time>
      </trkpt>
      <trkpt lat="38.861267" lon="-5.829017">
        <ele>1677.0</ele>
        <time>2019-05-04T15:19:00Z</time>
      </trkpt>
      <trkpt lat="38.861283" lon="-5.829083">
        <ele>1678.0</ele>
        <time>2019-05-04T15:19:01Z</time>
      </trkpt>
      <trkpt lat="38.861333" lon="-5.829117">
        <ele>1680.0</ele>
        <time>2019-05-04T15:19:02Z</time>
      </trkpt>
      <trkpt lat="38.861383" lon="-5.829100">
        <ele>1682.0</ele>
        <time>2019-05-04T15:19:03Z</time>
      </trkpt>
      <trkpt lat="38.861433" lon="-5.829033">
        <ele>1684.0</ele>
        <time>2019-05-04T15:19:04Z</time>
      </trkpt>
      <trkpt lat="38.861483" lon="-5.828967">
        <ele>1686.0</ele>
        <time>2019-05-04T15:19:05Z</time>
      </trkpt>
      <trkpt lat="38.861533" lon="-5.828867">
        <ele>1684.0</ele>
        <time>2019-05-04T15:19:06Z</time>
      </trkpt>
      <trkpt lat="38.861550" lon="-5.828733">
        <ele>1684.0</ele>
        <time>2019-05-04T15:19:07Z</time>
      </trkpt>
      <trkpt lat="38.861567" lon="-5.828600">
        <ele>1684.0</ele>
        <time>2019-05-04T15:19:08Z</time>
      </trkpt>
      <trkpt lat="38.861533" lon="-5.828467">
        <ele>1685.0</ele>
        <time>2019-05-04T15:19:09Z</time>
      </trkpt>
      <trkpt lat="38.861467" lon="-5.828333">
        <ele>1686.0</ele>
        <time>2019-05-04T15:19:10Z</time>
      </trkpt>
      <trkpt lat="38.861383" lon="-5.828217">
        <ele>1687.0</ele>
        <time>2019-05-04T15:19:11Z</time>
      </trkpt>
      <trkpt lat="38.861283" lon="-5.828150">
        <ele>1689.0</ele>
        <time>2019-05-04T15:19:12Z</time>
      </trkpt>
      <trkpt lat="38.861200" lon="-5.828117">
        <ele>1690.0</ele>
        <time>2019-05-04T15:19:13Z</time>
      </trkpt>
      <trkpt lat="38.861100" lon="-5.828117">
        <ele>1691.0</ele>
        <time>2019-05-04T15:19:14Z</time>
      </trkpt>
      <trkpt lat="38.861000" lon="-5.828150">
        <ele>1692.0</ele>
        <time>2019-05-04T15:19:15Z</time>
      </trkpt>
      <trkpt lat="38.860933" lon="-5.828183">
        <ele>1693.0</ele>
        <time>2019-05-04T15:19:16Z</time>
      </trkpt>
      <trkpt lat="38.860867" lon="-5.828250">
        <ele>1694.0</ele>
        <time>2019-05-04T15:19:17Z</time>
      </trkpt>
      <trkpt lat="38.860833" lon="-5.828350">
        <ele>1694.0</ele>
        <time>2019-05-04T15:19:18Z</time>
      </trkpt>
      <trkpt lat="38.860833" lon="-5.828433">
        <ele>1694.0</ele>
        <time>2019-05-04T15:19:19Z</time>
      </trkpt>
      <trkpt lat="38.860850" lon="-5.828500">
        <ele>1695.0</ele>
        <time>2019-05-04T15:19:20Z</time>
      </trkpt>
      <trkpt lat="38.860900" lon="-5.828550">
        <ele>1696.0</ele>
        <time>2019-05-04T15:19:21Z</time>
      </trkpt>
      <trkpt lat="38.860950" lon="-5.828550">
        <ele>1697.0</ele>
        <time>2019-05-04T15:19:22Z</time>
      </trkpt>
      <trkpt lat="38.861017" lon="-5.828533">
        <ele>1699.0</ele>
        <time>2019-05-04T15:19:23Z</time>
      </trkpt>
      <trkpt lat="38.861067" lon="-5.828500">
        <ele>1701.0</ele>
        <time>2019-05-04T15:19:24Z</time>
      </trkpt>
      <trkpt lat="38.861117" lon="-5.828450">
        <ele>1702.0</ele>
        <time>2019-05-04T15:19:25Z</time>
      </trkpt>
      <trkpt lat="38.861183" lon="-5.828417">
        <ele>1704.0</ele>
        <time>2019-05-04T15:19:26Z</time>
      </trkpt>
      <trkpt lat="38.861233" lon="-5.828350">
        <ele>1705.0</ele>
        <time>2019-05-04T15:19:27Z</time>
      </trkpt>
      <trkpt lat="38.861267" lon="-5.828267">
        <ele>1705.0</ele>
        <time>2019-05-04T15:19:28Z</time>
      </trkpt>
      <trkpt lat="38.861283" lon="-5.828150">
        <ele>1705.0</ele>
        <time>2019-05-04T15:19:29Z</time>
      </trkpt>
      <trkpt lat="38.861283" lon="-5.828000">
        <ele>1704.0</ele>
        <time>2019-05-04T15:19:30Z</time>
      </trkpt>
      <trkpt lat="38.861267" lon="-5.827850">
        <ele>1705.0</ele>
        <time>2019-05-04T15:19:31Z</time>
      </trkpt>
      <trkpt lat="38.861217" lon="-5.827717">
        <ele>1707.0</ele>
        <time>2019-05-04T15:19:32Z</time>
      </trkpt>
      <trkpt lat="38.861133" lon="-5.827617">
        <ele>1709.0</ele>
        <time>2019-05-04T15:19:33Z</time>
      </trkpt>
      <trkpt lat="38.861050" lon="-5.827550">
        <ele>1709.0</ele>
        <time>2019-05-04T15:19:34Z</time>
      </trkpt>
      <trkpt lat="38.860950" lon="-5.827500">
        <ele>1709.0</ele>
        <time>2019-05-04T15:19:35Z</time>
      </trkpt>
      <trkpt lat="38.860850" lon="-5.827467">
        <ele>1710.0</ele>
        <time>2019-05-04T15:19:36Z</time>
      </trkpt>
      <trkpt lat="38.860767" lon="-5.827483">
        <ele>1710.0</ele>
        <time>2019-05-04T15:19:37Z</time>
      </trkpt>
      <trkpt lat="38.860683" lon="-5.827517">
        <ele>1710.0</ele>
        <time>2019-05-04T15:19:38Z</time>
      </trkpt>
      <trkpt lat="38.860617" lon="-5.827567">
        <ele>1710.0</ele>
        <time>2019-05-04T15:19:39Z</time>
      </trkpt>
      <trkpt lat="38.860567" lon="-5.827633">
        <ele>1710.0</ele>
        <time>2019-05-04T15:19:40Z</time>
      </trkpt>
      <trkpt lat="38.860533" lon="-5.827717">
        <ele>1710.0</ele>
        <time>2019-05-04T15:19:41Z</time>
      </trkpt>
      <trkpt lat="38.860517" lon="-5.827783">
        <ele>1710.0</ele>
        <time>2019-05-04T15:19:42Z</time>
      </trkpt>
      <trkpt lat="38.860517" lon="-5.827850">
        <ele>1710.0</ele>
        <time>2019-05-04T15:19:43Z</time>
      </trkpt>
      <trkpt lat="38.860500" lon="-5.827900">
        <ele>1710.0</ele>
        <time>2019-05-04T15:19:44Z</time>
      </trkpt>
      <trkpt lat="38.860500" lon="-5.827967">
        <ele>1710.0</ele>
        <time>2019-05-04T15:19:45Z</time>
      </trkpt>
      <trkpt lat="38.860483" lon="-5.828033">
        <ele>1711.0</ele>
        <time>2019-05-04T15:19:46Z</time>
      </trkpt>
      <trkpt lat="38.860483" lon="-5.828100">
        <ele>1711.0</ele>
        <time>2019-05-04T15:19:47Z</time>
      </trkpt>
      <trkpt lat="38.860500" lon="-5.828167">
        <ele>1713.0</ele>
        <time>2019-05-04T15:19:48Z</time>
      </trkpt>
      <trkpt lat="38.860517" lon="-5.828217">
        <ele>1716.0</ele>
        <time>2019-05-04T15:19:49Z</time>
      </trkpt>
      <trkpt lat="38.860533" lon="-5.828250">
        <ele>1718.0</ele>
        <time>2019-05-04T15:19:50Z</time>
      </trkpt>
      <trkpt lat="38.860567" lon="-5.828300">
        <ele>1720.0</ele>
        <time>2019-05-04T15:19:51Z</time>
      </trkpt>
      <trkpt lat="38.860583" lon="-5.828350">
        <ele>1722.0</ele>
        <time>2019-05-04T15:19:52Z</time>
      </trkpt>
      <trkpt lat="38.860583" lon="-5.828400">
        <ele>1724.0</ele>
        <time>2019-05-04T15:19:53Z</time>
      </trkpt>
      <trkpt lat="38.860583" lon="-5.828450">
        <ele>1725.0</ele>
        <time>2019-05-04T15:19:54Z</time>
      </trkpt>
      <trkpt lat="38.860600" lon="-5.828500">
        <ele>1725.0</ele>
        <time>2019-05-04T15:19:55Z</time>
      </trkpt>
      <trkpt lat="38.860633" lon="-5.828567">
        <ele>1725.0</ele>
        <time>2019-05-04T15:19:56Z</time>
      </trkpt>
      <trkpt lat="38.860633" lon="-5.828650">
        <ele>1723.0</ele>
        <time>2019-05-04T15:19:57Z</time>
      </trkpt>
      <trkpt lat="38.860600" lon="-5.828733">
        <ele>1722.0</ele>
        <time>2019-05-04T15:19:58Z</time>
      </trkpt>
      <trkpt lat="38.860533" lon="-5.828817">
        <ele>1722.0</ele>
        <time>2019-05-04T15:19:59Z</time>
      </trkpt>
      <trkpt lat="38.860433" lon="-5.828883">
        <ele>1722.0</ele>
        <time>2019-05-04T15:20:00Z</time>
      </trkpt>
      <trkpt lat="38.860333" lon="-5.828917">
        <ele>1722.0</ele>
        <time>2019-05-04T15:20:01Z</time>
      </trkpt>
      <trkpt lat="38.860233" lon="-5.828933">
        <ele>1723.0</ele>
        <time>2019-05-04T15:20:02Z</time>
      </trkpt>
      <trkpt lat="38.860117" lon="-5.828917">
        <ele>1723.0</ele>
        <time>2019-05-04T15:20:03Z</time>
      </trkpt>
      <trkpt lat="38.860033" lon="-5.828850">
        <ele>1724.0</ele>
        <time>2019-05-04T15:20:04Z</time>
      </trkpt>
      <trkpt lat="38.859933" lon="-5.828783">
        <ele>1723.0</ele>
        <time>2019-05-04T15:20:05Z</time>
      </trkpt>
      <trkpt lat="38.859833" lon="-5.828700">
        <ele>1722.0</ele>
        <time>2019-05-04T15:20:06Z</time>
      </trkpt>
      <trkpt lat="38.859750" lon="-5.828583">
        <ele>1721.0</ele>
        <time>2019-05-04T15:20:07Z</time>
      </trkpt>
      <trkpt lat="38.859683" lon="-5.828467">
        <ele>1721.0</ele>
        <time>2019-05-04T15:20:08Z</time>
      </trkpt>
      <trkpt lat="38.859633" lon="-5.828333">
        <ele>1721.0</ele>
        <time>2019-05-04T15:20:09Z</time>
      </trkpt>
      <trkpt lat="38.859617" lon="-5.828200">
        <ele>1720.0</ele>
        <time>2019-05-04T15:20:10Z</time>
      </trkpt>
      <trkpt lat="38.859617" lon="-5.828083">
        <ele>1721.0</ele>
        <time>2019-05-04T15:20:11Z</time>
      </trkpt>
      <trkpt lat="38.859617" lon="-5.827983">
        <ele>1723.0</ele>
        <time>2019-05-04T15:20:12Z</time>
      </trkpt>
      <trkpt lat="38.859633" lon="-5.827867">
        <ele>1723.0</ele>
        <time>2019-05-04T15:20:13Z</time>
      </trkpt>
      <trkpt lat="38.859650" lon="-5.827733">
        <ele>1724.0</ele>
        <time>2019-05-04T15:20:14Z</time>
      </trkpt>
      <trkpt lat="38.859683" lon="-5.827633">
        <ele>1724.0</ele>
        <time>2019-05-04T15:20:15Z</time>
      </trkpt>
      <trkpt lat="38.859717" lon="-5.827533">
        <ele>1724.0</ele>
        <time>2019-05-04T15:20:16Z</time>
      </trkpt>
      <trkpt lat="38.859767" lon="-5.827433">
        <ele>1725.0</ele>
        <time>2019-05-04T15:20:17Z</time>
      </trkpt>
      <trkpt lat="38.859800" lon="-5.827350">
        <ele>1725.0</ele>
        <time>2019-05-04T15:20:18Z</time>
      </trkpt>
      <trkpt lat="38.859833" lon="-5.827233">
        <ele>1725.0</ele>
        <time>2019-05-04T15:20:19Z</time>
      </trkpt>
      <trkpt lat="38.859850" lon="-5.827117">
        <ele>1725.0</ele>
        <time>2019-05-04T15:20:20Z</time>
      </trkpt>
      <trkpt lat="38.859833" lon="-5.826967">
        <ele>1725.0</ele>
        <time>2019-05-04T15:20:21Z</time>
      </trkpt>
      <trkpt lat="38.859800" lon="-5.826817">
        <ele>1723.0</ele>
        <time>2019-05-04T15:20:22Z</time>
      </trkpt>
      <trkpt lat="38.859767" lon="-5.826683">
        <ele>1723.0</ele>
        <time>2019-05-04T15:20:23Z</time>
      </trkpt>
      <trkpt lat="38.859717" lon="-5.826550">
        <ele>1724.0</ele>
        <time>2019-05-04T15:20:24Z</time>
      </trkpt>
      <trkpt lat="38.859667" lon="-5.826450">
        <ele>1724.0</ele>
        <time>2019-05-04T15:20:25Z</time>
      </trkpt>
      <trkpt lat="38.859633" lon="-5.826333">
        <ele>1725.0</ele>
        <time>2019-05-04T15:20:26Z</time>
      </trkpt>
      <trkpt lat="38.859583" lon="-5.826217">
        <ele>1724.0</ele>
        <time>2019-05-04T15:20:27Z</time>
      </trkpt>
      <trkpt lat="38.859550" lon="-5.826083">
        <ele>1722.0</ele>
        <time>2019-05-04T15:20:28Z</time>
      </trkpt>
      <trkpt lat="38.859500" lon="-5.825950">
        <ele>1720.0</ele>
        <time>2019-05-04T15:20:29Z</time>
      </trkpt>
      <trkpt lat="38.859433" lon="-5.825833">
        <ele>1719.0</ele>
        <time>2019-05-04T15:20:30Z</time>
      </trkpt>
      <trkpt lat="38.859383" lon="-5.825733">
        <ele>1718.0</ele>
        <time>2019-05-04T15:20:31Z</time>
      </trkpt>
      <trkpt lat="38.859317" lon="-5.825633">
        <ele>1716.0</ele>
        <time>2019-05-04T15:20:32Z</time>
      </trkpt>
      <trkpt lat="38.859250" lon="-5.825517">
        <ele>1713.0</ele>
        <time>2019-05-04T15:20:33Z</time>
      </trkpt>
      <trkpt lat="38.859183" lon="-5.825383">
        <ele>1711.0</ele>
        <time>2019-05-04T15:20:34Z</time>
      </trkpt>
      <trkpt lat="38.859100" lon="-5.825267">
        <ele>1709.0</ele>
        <time>2019-05-04T15:20:35Z</time>
      </trkpt>
      <trkpt lat="38.859050" lon="-5.825167">
        <ele>1708.0</ele>
        <time>2019-05-04T15:20:36Z</time>
      </trkpt>
      <trkpt lat="38.858983" lon="-5.825067">
        <ele>1706.0</ele>
        <time>2019-05-04T15:20:37Z</time>
      </trkpt>
      <trkpt lat="38.858917" lon="-5.824967">
        <ele>1703.0</ele>
        <time>2019-05-04T15:20:38Z</time>
      </trkpt>
      <trkpt lat="38.858867" lon="-5.824833">
        <ele>1699.0</ele>
        <time>2019-05-04T15:20:39Z</time>
      </trkpt>
      <trkpt lat="38.858783" lon="-5.824717">
        <ele>1695.0</ele>
        <time>2019-05-04T15:20:40Z</time>
      </trkpt>
      <trkpt lat="38.858717" lon="-5.824600">
        <ele>1692.0</ele>
        <time>2019-05-04T15:20:41Z</time>
      </trkpt>
      <trkpt lat="38.858650" lon="-5.824500">
        <ele>1690.0</ele>
        <time>2019-05-04T15:20:42Z</time>
      </trkpt>
      <trkpt lat="38.858583" lon="-5.824383">
        <ele>1689.0</ele>
        <time>2019-05-04T15:20:43Z</time>
      </trkpt>
      <trkpt lat="38.858517" lon="-5.824283">
        <ele>1686.0</ele>
        <time>2019-05-04T15:20:44Z</time>
      </trkpt>
      <trkpt lat="38.858467" lon="-5.824167">
        <ele>1683.0</ele>
        <time>2019-05-04T15:20:45Z</time>
      </trkpt>
      <trkpt lat="38.858400" lon="-5.824033">
        <ele>1679.0</ele>
        <time>2019-05-04T15:20:46Z</time>
      </trkpt>
      <trkpt lat="38.858317" lon="-5.823917">
        <ele>1676.0</ele>
        <time>2019-05-04T15:20:47Z</time>
      </trkpt>
      <trkpt lat="38.858233" lon="-5.823800">
        <ele>1673.0</ele>
        <time>2019-05-04T15:20:48Z</time>
      </trkpt>
      <trkpt lat="38.858167" lon="-5.823667">
        <ele>1670.0</ele>
        <time>2019-05-04T15:20:49Z</time>
      </trkpt>
      <trkpt lat="38.858100" lon="-5.823533">
        <ele>1668.0</ele>
        <time>2019-05-04T15:20:50Z</time>
      </trkpt>
      <trkpt lat="38.858033" lon="-5.823417">
        <ele>1665.0</ele>
        <time>2019-05-04T15:20:51Z</time>
      </trkpt>
      <trkpt lat="38.857967" lon="-5.823283">
        <ele>1662.0</ele>
        <time>2019-05-04T15:20:52Z</time>
      </trkpt>
      <trkpt lat="38.857900" lon="-5.823150">
        <ele>1659.0</ele>
        <time>2019-05-04T15:20:53Z</time>
      </trkpt>
      <trkpt lat="38.857817" lon="-5.823017">
        <ele>1656.0</ele>
        <time>2019-05-04T15:20:54Z</time>
      </trkpt>
      <trkpt lat="38.857733" lon="-5.822900">
        <ele>1654.0</ele>
        <time>2019-05-04T15:20:55Z</time>
      </trkpt>
      <trkpt lat="38.857667" lon="-5.822767">
        <ele>1652.0</ele>
        <time>2019-05-04T15:20:56Z</time>
      </trkpt>
      <trkpt lat="38.857600" lon="-5.822650">
        <ele>1650.0</ele>
        <time>2019-05-04T15:20:57Z</time>
      </trkpt>
      <trkpt lat="38.857533" lon="-5.822533">
        <ele>1649.0</ele>
        <time>2019-05-04T15:20:58Z</time>
      </trkpt>
      <trkpt lat="38.857450" lon="-5.822400">
        <ele>1647.0</ele>
        <time>2019-05-04T15:20:59Z</time>
      </trkpt>
      <trkpt lat="38.857383" lon="-5.822267">
        <ele>1645.0</ele>
        <time>2019-05-04T15:21:00Z</time>
      </trkpt>
      <trkpt lat="38.857317" lon="-5.822150">
        <ele>1643.0</ele>
        <time>2019-05-04T15:21:01Z</time>
      </trkpt>
      <trkpt lat="38.857267" lon="-5.822017">
        <ele>1642.0</ele>
        <time>2019-05-04T15:21:02Z</time>
      </trkpt>
      <trkpt lat="38.857217" lon="-5.821900">
        <ele>1641.0</ele>
        <time>2019-05-04T15:21:03Z</time>
      </trkpt>
      <trkpt lat="38.857167" lon="-5.821767">
        <ele>1639.0</ele>
        <time>2019-05-04T15:21:04Z</time>
      </trkpt>
      <trkpt lat="38.857100" lon="-5.821650">
        <ele>1638.0</ele>
        <time>2019-05-04T15:21:05Z</time>
      </trkpt>
      <trkpt lat="38.857050" lon="-5.821533">
        <ele>1637.0</ele>
        <time>2019-05-04T15:21:06Z</time>
      </trkpt>
      <trkpt lat="38.856983" lon="-5.821417">
        <ele>1635.0</ele>
        <time>2019-05-04T15:21:07Z</time>
      </trkpt>
      <trkpt lat="38.856933" lon="-5.821300">
        <ele>1635.0</ele>
        <time>2019-05-04T15:21:08Z</time>
      </trkpt>
      <trkpt lat="38.856883" lon="-5.821200">
        <ele>1634.0</ele>
        <time>2019-05-04T15:21:09Z</time>
      </trkpt>
      <trkpt lat="38.856833" lon="-5.821100">
        <ele>1631.0</ele>
        <time>2019-05-04T15:21:10Z</time>
      </trkpt>
      <trkpt lat="38.856767" lon="-5.820983">
        <ele>1628.0</ele>
        <time>2019-05-04T15:21:11Z</time>
      </trkpt>
      <trkpt lat="38.856700" lon="-5.820850">
        <ele>1625.0</ele>
        <time>2019-05-04T15:21:12Z</time>
      </trkpt>
      <trkpt lat="38.856650" lon="-5.820750">
        <ele>1623.0</ele>
        <time>2019-05-04T15:21:13Z</time>
      </trkpt>
      <trkpt lat="38.856583" lon="-5.820633">
        <ele>1621.0</ele>
        <time>2019-05-04T15:21:14Z</time>
      </trkpt>
      <trkpt lat="38.856533" lon="-5.820550">
        <ele>1620.0</ele>
        <time>2019-05-04T15:21:15Z</time>
      </trkpt>
      <trkpt lat="38.856483" lon="-5.820450">
        <ele>1617.0</ele>
        <time>2019-05-04T15:21:16Z</time>
      </trkpt>
      <trkpt lat="38.856433" lon="-5.820333">
        <ele>1614.0</ele>
        <time>2019-05-04T15:21:17Z</time>
      </trkpt>
      <trkpt lat="38.856367" lon="-5.820217">
        <ele>1610.0</ele>
        <time>2019-05-04T15:21:18Z</time>
      </trkpt>
      <trkpt lat="38.856300" lon="-5.820100">
        <ele>1606.0</ele>
        <time>2019-05-04T15:21:19Z</time>
      </trkpt>
      <trkpt lat="38.856233" lon="-5.819983">
        <ele>1603.0</ele>
        <time>2019-05-04T15:21:20Z</time>
      </trkpt>
      <trkpt lat="38.856183" lon="-5.819867">
        <ele>1601.0</ele>
        <time>2019-05-04T15:21:21Z</time>
      </trkpt>
      <trkpt lat="38.856133" lon="-5.819750">
        <ele>1599.0</ele>
        <time>2019-05-04T15:21:22Z</time>
      </trkpt>
      <trkpt lat="38.856067" lon="-5.819650">
        <ele>1596.0</ele>
        <time>2019-05-04T15:21:23Z</time>
      </trkpt>
      <trkpt lat="38.856000" lon="-5.819533">
        <ele>1592.0</ele>
        <time>2019-05-04T15:21:24Z</time>
      </trkpt>
      <trkpt lat="38.855933" lon="-5.819417">
        <ele>1587.0</ele>
        <time>2019-05-04T15:21:25Z</time>
      </trkpt>
      <trkpt lat="38.855850" lon="-5.819317">
        <ele>1584.0</ele>
        <time>2019-05-04T15:21:26Z</time>
      </trkpt>
      <trkpt lat="38.855783" lon="-5.819200">
        <ele>1580.0</ele>
        <time>2019-05-04T15:21:27Z</time>
      </trkpt>
      <trkpt lat="38.855717" lon="-5.819083">
        <ele>1577.0</ele>
        <time>2019-05-04T15:21:28Z</time>
      </trkpt>
      <trkpt lat="38.855650" lon="-5.818967">
        <ele>1573.0</ele>
        <time>2019-05-04T15:21:29Z</time>
      </trkpt>
      <trkpt lat="38.855583" lon="-5.818850">
        <ele>1570.0</ele>
        <time>2019-05-04T15:21:30Z</time>
      </trkpt>
      <trkpt lat="38.855517" lon="-5.818717">
        <ele>1567.0</ele>
        <time>2019-05-04T15:21:31Z</time>
      </trkpt>
      <trkpt lat="38.855467" lon="-5.818600">
        <ele>1563.0</ele>
        <time>2019-05-04T15:21:32Z</time>
      </trkpt>
      <trkpt lat="38.855383" lon="-5.818483">
        <ele>1560.0</ele>
        <time>2019-05-04T15:21:33Z</time>
      </trkpt>
      <trkpt lat="38.855317" lon="-5.818367">
        <ele>1558.0</ele>
        <time>2019-05-04T15:21:34Z</time>
      </trkpt>
      <trkpt lat="38.855250" lon="-5.818267">
        <ele>1555.0</ele>
        <time>2019-05-04T15:21:35Z</time>
      </trkpt>
      <trkpt lat="38.855183" lon="-5.818150">
        <ele>1553.0</ele>
        <time>2019-05-04T15:21:36Z</time>
      </trkpt>
      <trkpt lat="38.855100" lon="-5.818033">
        <ele>1550.0</ele>
        <time>2019-05-04T15:21:37Z</time>
      </trkpt>
      <trkpt lat="38.855033" lon="-5.817917">
        <ele>1547.0</ele>
        <time>2019-05-04T15:21:38Z</time>
      </trkpt>
      <trkpt lat="38.854967" lon="-5.817800">
        <ele>1545.0</ele>
        <time>2019-05-04T15:21:39Z</time>
      </trkpt>
      <trkpt lat="38.854917" lon="-5.817700">
        <ele>1543.0</ele>
        <time>2019-05-04T15:21:40Z</time>
      </trkpt>
      <trkpt lat="38.854833" lon="-5.817600">
        <ele>1541.0</ele>
        <time>2019-05-04T15:21:41Z</time>
      </trkpt>
      <trkpt lat="38.854767" lon="-5.817483">
        <ele>1539.0</ele>
        <time>2019-05-04T15:21:42Z</time>
      </trkpt>
      <trkpt lat="38.854700" lon="-5.817367">
        <ele>1537.0</ele>
        <time>2019-05-04T15:21:43Z</time>
      </trkpt>
      <trkpt lat="38.854633" lon="-5.817267">
        <ele>1535.0</ele>
        <time>2019-05-04T15:21:44Z</time>
      </trkpt>
      <trkpt lat="38.854567" lon="-5.817150">
        <ele>1534.0</ele>
        <time>2019-05-04T15:21:45Z</time>
      </trkpt>
      <trkpt lat="38.854500" lon="-5.817033">
        <ele>1532.0</ele>
        <time>2019-05-04T15:21:46Z</time>
      </trkpt>
      <trkpt lat="38.854450" lon="-5.816917">
        <ele>1531.0</ele>
        <time>2019-05-04T15:21:47Z</time>
      </trkpt>
      <trkpt lat="38.854383" lon="-5.816800">
        <ele>1530.0</ele>
        <time>2019-05-04T15:21:48Z</time>
      </trkpt>
      <trkpt lat="38.854317" lon="-5.816683">
        <ele>1527.0</ele>
        <time>2019-05-04T15:21:49Z</time>
      </trkpt>
      <trkpt lat="38.854250" lon="-5.816567">
        <ele>1525.0</ele>
        <time>2019-05-04T15:21:50Z</time>
      </trkpt>
      <trkpt lat="38.854183" lon="-5.816433">
        <ele>1523.0</ele>
        <time>2019-05-04T15:21:51Z</time>
      </trkpt>
      <trkpt lat="38.854117" lon="-5.816317">
        <ele>1522.0</ele>
        <time>2019-05-04T15:21:52Z</time>
      </trkpt>
      <trkpt lat="38.854050" lon="-5.816200">
        <ele>1520.0</ele>
        <time>2019-05-04T15:21:53Z</time>
      </trkpt>
      <trkpt lat="38.853983" lon="-5.816067">
        <ele>1519.0</ele>
        <time>2019-05-04T15:21:54Z</time>
      </trkpt>
      <trkpt lat="38.853917" lon="-5.815950">
        <ele>1518.0</ele>
        <time>2019-05-04T15:21:55Z</time>
      </trkpt>
      <trkpt lat="38.853867" lon="-5.815817">
        <ele>1517.0</ele>
        <time>2019-05-04T15:21:56Z</time>
      </trkpt>
      <trkpt lat="38.853817" lon="-5.815667">
        <ele>1516.0</ele>
        <time>2019-05-04T15:21:57Z</time>
      </trkpt>
      <trkpt lat="38.853767" lon="-5.815533">
        <ele>1515.0</ele>
        <time>2019-05-04T15:21:58Z</time>
      </trkpt>
      <trkpt lat="38.853717" lon="-5.815400">
        <ele>1515.0</ele>
        <time>2019-05-04T15:21:59Z</time>
      </trkpt>
      <trkpt lat="38.853667" lon="-5.815267">
        <ele>1515.0</ele>
        <time>2019-05-04T15:22:00Z</time>
      </trkpt>
      <trkpt lat="38.853617" lon="-5.815150">
        <ele>1516.0</ele>
        <time>2019-05-04T15:22:01Z</time>
      </trkpt>
      <trkpt lat="38.853567" lon="-5.815050">
        <ele>1516.0</ele>
        <time>2019-05-04T15:22:02Z</time>
      </trkpt>
      <trkpt lat="38.853533" lon="-5.814917">
        <ele>1515.0</ele>
        <time>2019-05-04T15:22:03Z</time>
      </trkpt>
      <trkpt lat="38.853483" lon="-5.814783">
        <ele>1514.0</ele>
        <time>2019-05-04T15:22:04Z</time>
      </trkpt>
      <trkpt lat="38.853450" lon="-5.814633">
        <ele>1513.0</ele>
        <time>2019-05-04T15:22:05Z</time>
      </trkpt>
      <trkpt lat="38.853433" lon="-5.814500">
        <ele>1514.0</ele>
        <time>2019-05-04T15:22:06Z</time>
      </trkpt>
      <trkpt lat="38.853400" lon="-5.814383">
        <ele>1515.0</ele>
        <time>2019-05-04T15:22:07Z</time>
      </trkpt>
      <trkpt lat="38.853367" lon="-5.814283">
        <ele>1516.0</ele>
        <time>2019-05-04T15:22:08Z</time>
      </trkpt>
      <trkpt lat="38.853317" lon="-5.814167">
        <ele>1517.0</ele>
        <time>2019-05-04T15:22:09Z</time>
      </trkpt>
      <trkpt lat="38.853267" lon="-5.814033">
        <ele>1516.0</ele>
        <time>2019-05-04T15:22:10Z</time>
      </trkpt>
      <trkpt lat="38.853217" lon="-5.813900">
        <ele>1515.0</ele>
        <time>2019-05-04T15:22:11Z</time>
      </trkpt>
      <trkpt lat="38.853167" lon="-5.813783">
        <ele>1515.0</ele>
        <time>2019-05-04T15:22:12Z</time>
      </trkpt>
      <trkpt lat="38.853133" lon="-5.813667">
        <ele>1515.0</ele>
        <time>2019-05-04T15:22:13Z</time>
      </trkpt>
      <trkpt lat="38.853083" lon="-5.813550">
        <ele>1515.0</ele>
        <time>2019-05-04T15:22:14Z</time>
      </trkpt>
      <trkpt lat="38.853033" lon="-5.813433">
        <ele>1514.0</ele>
        <time>2019-05-04T15:22:15Z</time>
      </trkpt>
      <trkpt lat="38.852983" lon="-5.813317">
        <ele>1513.0</ele>
        <time>2019-05-04T15:22:16Z</time>
      </trkpt>
      <trkpt lat="38.852917" lon="-5.813167">
        <ele>1511.0</ele>
        <time>2019-05-04T15:22:17Z</time>
      </trkpt>
      <trkpt lat="38.852833" lon="-5.813050">
        <ele>1510.0</ele>
        <time>2019-05-04T15:22:18Z</time>
      </trkpt>
      <trkpt lat="38.852767" lon="-5.812917">
        <ele>1509.0</ele>
        <time>2019-05-04T15:22:19Z</time>
      </trkpt>
      <trkpt lat="38.852700" lon="-5.812800">
        <ele>1510.0</ele>
        <time>2019-05-04T15:22:20Z</time>
      </trkpt>
      <trkpt lat="38.852633" lon="-5.812683">
        <ele>1510.0</ele>
        <time>2019-05-04T15:22:21Z</time>
      </trkpt>
      <trkpt lat="38.852567" lon="-5.812583">
        <ele>1511.0</ele>
        <time>2019-05-04T15:22:22Z</time>
      </trkpt>
      <trkpt lat="38.852500" lon="-5.812500">
        <ele>1511.0</ele>
        <time>2019-05-04T15:22:23Z</time>
      </trkpt>
      <trkpt lat="38.852417" lon="-5.812400">
        <ele>1509.0</ele>
        <time>2019-05-04T15:22:24Z</time>
      </trkpt>
      <trkpt lat="38.852333" lon="-5.812317">
        <ele>1508.0</ele>
        <time>2019-05-04T15:22:25Z</time>
      </trkpt>
      <trkpt lat="38.852267" lon="-5.812217">
        <ele>1507.0</ele>
        <time>2019-05-04T15:22:26Z</time>
      </trkpt>
      <trkpt lat="38.852183" lon="-5.812133">
        <ele>1507.0</ele>
        <time>2019-05-04T15:22:27Z</time>
      </trkpt>
      <trkpt lat="38.852117" lon="-5.812017">
        <ele>1506.0</ele>
        <time>2019-05-04T15:22:28Z</time>
      </trkpt>
      <trkpt lat="38.852050" lon="-5.811917">
        <ele>1504.0</ele>
        <time>2019-05-04T15:22:29Z</time>
      </trkpt>
      <trkpt lat="38.851967" lon="-5.811800">
        <ele>1502.0</ele>
        <time>2019-05-04T15:22:30Z</time>
      </trkpt>
      <trkpt lat="38.851883" lon="-5.811700">
        <ele>1499.0</ele>
        <time>2019-05-04T15:22:31Z</time>
      </trkpt>
      <trkpt lat="38.851817" lon="-5.811583">
        <ele>1496.0</ele>
        <time>2019-05-04T15:22:32Z</time>
      </trkpt>
      <trkpt lat="38.851733" lon="-5.811467">
        <ele>1494.0</ele>
        <time>2019-05-04T15:22:33Z</time>
      </trkpt>
      <trkpt lat="38.851650" lon="-5.811367">
        <ele>1492.0</ele>
        <time>2019-05-04T15:22:34Z</time>
      </trkpt>
      <trkpt lat="38.851583" lon="-5.811267">
        <ele>1490.0</ele>
        <time>2019-05-04T15:22:35Z</time>
      </trkpt>
      <trkpt lat="38.851500" lon="-5.811183">
        <ele>1487.0</ele>
        <time>2019-05-04T15:22:36Z</time>
      </trkpt>
      <trkpt lat="38.851417" lon="-5.811083">
        <ele>1485.0</ele>
        <time>2019-05-04T15:22:37Z</time>
      </trkpt>
      <trkpt lat="38.851333" lon="-5.810983">
        <ele>1481.0</ele>
        <time>2019-05-04T15:22:38Z</time>
      </trkpt>
      <trkpt lat="38.851250" lon="-5.810867">
        <ele>1478.0</ele>
        <time>2019-05-04T15:22:39Z</time>
      </trkpt>
      <trkpt lat="38.851167" lon="-5.810767">
        <ele>1474.0</ele>
        <time>2019-05-04T15:22:40Z</time>
      </trkpt>
      <trkpt lat="38.851083" lon="-5.810650">
        <ele>1472.0</ele>
        <time>2019-05-04T15:22:41Z</time>
      </trkpt>
      <trkpt lat="38.851000" lon="-5.810550">
        <ele>1470.0</ele>
        <time>2019-05-04T15:22:42Z</time>
      </trkpt>
      <trkpt lat="38.850933" lon="-5.810450">
        <ele>1468.0</ele>
        <time>2019-05-04T15:22:43Z</time>
      </trkpt>
      <trkpt lat="38.850867" lon="-5.810350">
        <ele>1466.0</ele>
        <time>2019-05-04T15:22:44Z</time>
      </trkpt>
      <trkpt lat="38.850783" lon="-5.810250">
        <ele>1463.0</ele>
        <time>2019-05-04T15:22:45Z</time>
      </trkpt>
      <trkpt lat="38.850700" lon="-5.810133">
        <ele>1460.0</ele>
        <time>2019-05-04T15:22:46Z</time>
      </trkpt>
      <trkpt lat="38.850617" lon="-5.810033">
        <ele>1457.0</ele>
        <time>2019-05-04T15:22:47Z</time>
      </trkpt>
      <trkpt lat="38.850533" lon="-5.809933">
        <ele>1454.0</ele>
        <time>2019-05-04T15:22:48Z</time>
      </trkpt>
      <trkpt lat="38.850450" lon="-5.809833">
        <ele>1451.0</ele>
        <time>2019-05-04T15:22:49Z</time>
      </trkpt>
      <trkpt lat="38.850367" lon="-5.809733">
        <ele>1447.0</ele>
        <time>2019-05-04T15:22:50Z</time>
      </trkpt>
      <trkpt lat="38.850283" lon="-5.809633">
        <ele>1444.0</ele>
        <time>2019-05-04T15:22:51Z</time>
      </trkpt>
      <trkpt lat="38.850183" lon="-5.809517">
        <ele>1441.0</ele>
        <time>2019-05-04T15:22:52Z</time>
      </trkpt>
      <trkpt lat="38.850117" lon="-5.809400">
        <ele>1437.0</ele>
        <time>2019-05-04T15:22:53Z</time>
      </trkpt>
      <trkpt lat="38.850033" lon="-5.809283">
        <ele>1434.0</ele>
        <time>2019-05-04T15:22:54Z</time>
      </trkpt>
      <trkpt lat="38.849950" lon="-5.809183">
        <ele>1431.0</ele>
        <time>2019-05-04T15:22:55Z</time>
      </trkpt>
      <trkpt lat="38.849867" lon="-5.809083">
        <ele>1428.0</ele>
        <time>2019-05-04T15:22:56Z</time>
      </trkpt>
      <trkpt lat="38.849800" lon="-5.808983">
        <ele>1424.0</ele>
        <time>2019-05-04T15:22:57Z</time>
      </trkpt>
      <trkpt lat="38.849717" lon="-5.808867">
        <ele>1420.0</ele>
        <time>2019-05-04T15:22:58Z</time>
      </trkpt>
      <trkpt lat="38.849633" lon="-5.808750">
        <ele>1416.0</ele>
        <time>2019-05-04T15:22:59Z</time>
      </trkpt>
      <trkpt lat="38.849550" lon="-5.808633">
        <ele>1412.0</ele>
        <time>2019-05-04T15:23:00Z</time>
      </trkpt>
      <trkpt lat="38.849483" lon="-5.808500">
        <ele>1409.0</ele>
        <time>2019-05-04T15:23:01Z</time>
      </trkpt>
      <trkpt lat="38.849400" lon="-5.808383">
        <ele>1406.0</ele>
        <time>2019-05-04T15:23:02Z</time>
      </trkpt>
      <trkpt lat="38.849333" lon="-5.808283">
        <ele>1404.0</ele>
        <time>2019-05-04T15:23:03Z</time>
      </trkpt>
      <trkpt lat="38.849267" lon="-5.808167">
        <ele>1401.0</ele>
        <time>2019-05-04T15:23:04Z</time>
      </trkpt>
      <trkpt lat="38.849200" lon="-5.808067">
        <ele>1397.0</ele>
        <time>2019-05-04T15:23:05Z</time>
      </trkpt>
      <trkpt lat="38.849133" lon="-5.807950">
        <ele>1394.0</ele>
        <time>2019-05-04T15:23:06Z</time>
      </trkpt>
      <trkpt lat="38.849083" lon="-5.807833">
        <ele>1391.0</ele>
        <time>2019-05-04T15:23:07Z</time>
      </trkpt>
      <trkpt lat="38.849017" lon="-5.807733">
        <ele>1388.0</ele>
        <time>2019-05-04T15:23:08Z</time>
      </trkpt>
      <trkpt lat="38.848967" lon="-5.807633">
        <ele>1385.0</ele>
        <time>2019-05-04T15:23:09Z</time>
      </trkpt>
      <trkpt lat="38.848900" lon="-5.807517">
        <ele>1381.0</ele>
        <time>2019-05-04T15:23:10Z</time>
      </trkpt>
      <trkpt lat="38.848833" lon="-5.807417">
        <ele>1377.0</ele>
        <time>2019-05-04T15:23:11Z</time>
      </trkpt>
      <trkpt lat="38.848767" lon="-5.807283">
        <ele>1373.0</ele>
        <time>2019-05-04T15:23:12Z</time>
      </trkpt>
      <trkpt lat="38.848717" lon="-5.807167">
        <ele>1370.0</ele>
        <time>2019-05-04T15:23:13Z</time>
      </trkpt>
      <trkpt lat="38.848650" lon="-5.807050">
        <ele>1368.0</ele>
        <time>2019-05-04T15:23:14Z</time>
      </trkpt>
      <trkpt lat="38.848600" lon="-5.806917">
        <ele>1365.0</ele>
        <time>2019-05-04T15:23:15Z</time>
      </trkpt>
      <trkpt lat="38.848533" lon="-5.806800">
        <ele>1362.0</ele>
        <time>2019-05-04T15:23:16Z</time>
      </trkpt>
      <trkpt lat="38.848467" lon="-5.806683">
        <ele>1358.0</ele>
        <time>2019-05-04T15:23:17Z</time>
      </trkpt>
      <trkpt lat="38.848400" lon="-5.806567">
        <ele>1354.0</ele>
        <time>2019-05-04T15:23:18Z</time>
      </trkpt>
      <trkpt lat="38.848333" lon="-5.806450">
        <ele>1350.0</ele>
        <time>2019-05-04T15:23:19Z</time>
      </trkpt>
      <trkpt lat="38.848267" lon="-5.806317">
        <ele>1347.0</ele>
        <time>2019-05-04T15:23:20Z</time>
      </trkpt>
      <trkpt lat="38.848200" lon="-5.806200">
        <ele>1343.0</ele>
        <time>2019-05-04T15:23:21Z</time>
      </trkpt>
      <trkpt lat="38.848150" lon="-5.806067">
        <ele>1340.0</ele>
        <time>2019-05-04T15:23:22Z</time>
      </trkpt>
      <trkpt lat="38.848083" lon="-5.805933">
        <ele>1336.0</ele>
        <time>2019-05-04T15:23:23Z</time>
      </trkpt>
      <trkpt lat="38.848000" lon="-5.805817">
        <ele>1333.0</ele>
        <time>2019-05-04T15:23:24Z</time>
      </trkpt>
      <trkpt lat="38.847933" lon="-5.805683">
        <ele>1330.0</ele>
        <time>2019-05-04T15:23:25Z</time>
      </trkpt>
      <trkpt lat="38.847867" lon="-5.805550">
        <ele>1328.0</ele>
        <time>2019-05-04T15:23:26Z</time>
      </trkpt>
      <trkpt lat="38.847817" lon="-5.805433">
        <ele>1326.0</ele>
        <time>2019-05-04T15:23:27Z</time>
      </trkpt>
      <trkpt lat="38.847750" lon="-5.805333">
        <ele>1323.0</ele>
        <time>2019-05-04T15:23:28Z</time>
      </trkpt>
      <trkpt lat="38.847683" lon="-5.805217">
        <ele>1319.0</ele>
        <time>2019-05-04T15:23:29Z</time>
      </trkpt>
      <trkpt lat="38.847600" lon="-5.805100">
        <ele>1313.0</ele>
        <time>2019-05-04T15:23:30Z</time>
      </trkpt>
      <trkpt lat="38.847517" lon="-5.804967">
        <ele>1308.0</ele>
        <time>2019-05-04T15:23:31Z</time>
      </trkpt>
      <trkpt lat="38.847433" lon="-5.804850">
        <ele>1304.0</ele>
        <time>2019-05-04T15:23:32Z</time>
      </trkpt>
      <trkpt lat="38.847350" lon="-5.804783">
        <ele>1301.0</ele>
        <time>2019-05-04T15:23:33Z</time>
      </trkpt>
      <trkpt lat="38.847267" lon="-5.804733">
        <ele>1298.0</ele>
        <time>2019-05-04T15:23:34Z</time>
      </trkpt>
      <trkpt lat="38.847183" lon="-5.804700">
        <ele>1296.0</ele>
        <time>2019-05-04T15:23:35Z</time>
      </trkpt>
      <trkpt lat="38.847100" lon="-5.804667">
        <ele>1293.0</ele>
        <time>2019-05-04T15:23:36Z</time>
      </trkpt>
      <trkpt lat="38.847017" lon="-5.804633">
        <ele>1290.0</ele>
        <time>2019-05-04T15:23:37Z</time>
      </trkpt>
      <trkpt lat="38.846933" lon="-5.804600">
        <ele>1287.0</ele>
        <time>2019-05-04T15:23:38Z</time>
      </trkpt>
      <trkpt lat="38.846833" lon="-5.804583">
        <ele>1283.0</ele>
        <time>2019-05-04T15:23:39Z</time>
      </trkpt>
      <trkpt lat="38.846750" lon="-5.804583">
        <ele>1280.0</ele>
        <time>2019-05-04T15:23:40Z</time>
      </trkpt>
      <trkpt lat="38.846667" lon="-5.804567">
        <ele>1277.0</ele>
        <time>2019-05-04T15:23:41Z</time>
      </trkpt>
      <trkpt lat="38.846567" lon="-5.804533">
        <ele>1274.0</ele>
        <time>2019-05-04T15:23:42Z</time>
      </trkpt>
      <trkpt lat="38.846483" lon="-5.804500">
        <ele>1271.0</ele>
        <time>2019-05-04T15:23:43Z</time>
      </trkpt>
      <trkpt lat="38.846383" lon="-5.804450">
        <ele>1268.0</ele>
        <time>2019-05-04T15:23:44Z</time>
      </trkpt>
      <trkpt lat="38.846300" lon="-5.804400">
        <ele>1266.0</ele>
        <time>2019-05-04T15:23:45Z</time>
      </trkpt>
      <trkpt lat="38.846217" lon="-5.804350">
        <ele>1263.0</ele>
        <time>2019-05-04T15:23:46Z</time>
      </trkpt>
      <trkpt lat="38.846117" lon="-5.804300">
        <ele>1260.0</ele>
        <time>2019-05-04T15:23:47Z</time>
      </trkpt>
      <trkpt lat="38.846033" lon="-5.804250">
        <ele>1256.0</ele>
        <time>2019-05-04T15:23:48Z</time>
      </trkpt>
      <trkpt lat="38.845933" lon="-5.804217">
        <ele>1252.0</ele>
        <time>2019-05-04T15:23:49Z</time>
      </trkpt>
      <trkpt lat="38.845833" lon="-5.804183">
        <ele>1248.0</ele>
        <time>2019-05-04T15:23:50Z</time>
      </trkpt>
      <trkpt lat="38.845750" lon="-5.804167">
        <ele>1244.0</ele>
        <time>2019-05-04T15:23:51Z</time>
      </trkpt>
      <trkpt lat="38.845650" lon="-5.804167">
        <ele>1240.0</ele>
        <time>2019-05-04T15:23:52Z</time>
      </trkpt>
      <trkpt lat="38.845567" lon="-5.804167">
        <ele>1236.0</ele>
        <time>2019-05-04T15:23:53Z</time>
      </trkpt>
      <trkpt lat="38.845467" lon="-5.804167">
        <ele>1233.0</ele>
        <time>2019-05-04T15:23:54Z</time>
      </trkpt>
      <trkpt lat="38.845383" lon="-5.804167">
        <ele>1229.0</ele>
        <time>2019-05-04T15:23:55Z</time>
      </trkpt>
      <trkpt lat="38.845300" lon="-5.804167">
        <ele>1226.0</ele>
        <time>2019-05-04T15:23:56Z</time>
      </trkpt>
      <trkpt lat="38.845200" lon="-5.804150">
        <ele>1222.0</ele>
        <time>2019-05-04T15:23:57Z</time>
      </trkpt>
      <trkpt lat="38.845100" lon="-5.804150">
        <ele>1218.0</ele>
        <time>2019-05-04T15:23:58Z</time>
      </trkpt>
      <trkpt lat="38.845017" lon="-5.804167">
        <ele>1214.0</ele>
        <time>2019-05-04T15:23:59Z</time>
      </trkpt>
      <trkpt lat="38.844917" lon="-5.804200">
        <ele>1210.0</ele>
        <time>2019-05-04T15:24:00Z</time>
      </trkpt>
      <trkpt lat="38.844817" lon="-5.804233">
        <ele>1208.0</ele>
        <time>2019-05-04T15:24:01Z</time>
      </trkpt>
      <trkpt lat="38.844733" lon="-5.804250">
        <ele>1205.0</ele>
        <time>2019-05-04T15:24:02Z</time>
      </trkpt>
      <trkpt lat="38.844650" lon="-5.804250">
        <ele>1202.0</ele>
        <time>2019-05-04T15:24:03Z</time>
      </trkpt>
      <trkpt lat="38.844550" lon="-5.804250">
        <ele>1199.0</ele>
        <time>2019-05-04T15:24:04Z</time>
      </trkpt>
      <trkpt lat="38.844450" lon="-5.804250">
        <ele>1195.0</ele>
        <time>2019-05-04T15:24:05Z</time>
      </trkpt>
      <trkpt lat="38.844350" lon="-5.804267">
        <ele>1192.0</ele>
        <time>2019-05-04T15:24:06Z</time>
      </trkpt>
      <trkpt lat="38.844250" lon="-5.804250">
        <ele>1188.0</ele>
        <time>2019-05-04T15:24:07Z</time>
      </trkpt>
      <trkpt lat="38.844150" lon="-5.804250">
        <ele>1186.0</ele>
        <time>2019-05-04T15:24:08Z</time>
      </trkpt>
      <trkpt lat="38.844067" lon="-5.804250">
        <ele>1185.0</ele>
        <time>2019-05-04T15:24:09Z</time>
      </trkpt>
      <trkpt lat="38.844000" lon="-5.804233">
        <ele>1184.0</ele>
        <time>2019-05-04T15:24:10Z</time>
      </trkpt>
      <trkpt lat="38.843917" lon="-5.804233">
        <ele>1182.0</ele>
        <time>2019-05-04T15:24:11Z</time>
      </trkpt>
      <trkpt lat="38.843833" lon="-5.804233">
        <ele>1178.0</ele>
        <time>2019-05-04T15:24:12Z</time>
      </trkpt>
      <trkpt lat="38.843733" lon="-5.804233">
        <ele>1174.0</ele>
        <time>2019-05-04T15:24:13Z</time>
      </trkpt>
      <trkpt lat="38.843633" lon="-5.804233">
        <ele>1171.0</ele>
        <time>2019-05-04T15:24:14Z</time>
      </trkpt>
      <trkpt lat="38.843550" lon="-5.804217">
        <ele>1168.0</ele>
        <time>2019-05-04T15:24:15Z</time>
      </trkpt>
      <trkpt lat="38.843467" lon="-5.804200">
        <ele>1165.0</ele>
        <time>2019-05-04T15:24:16Z</time>
      </trkpt>
      <trkpt lat="38.843383" lon="-5.804200">
        <ele>1162.0</ele>
        <time>2019-05-04T15:24:17Z</time>
      </trkpt>
      <trkpt lat="38.843283" lon="-5.804183">
        <ele>1158.0</ele>
        <time>2019-05-04T15:24:18Z</time>
      </trkpt>
      <trkpt lat="38.843167" lon="-5.804200">
        <ele>1154.0</ele>
        <time>2019-05-04T15:24:19Z</time>
      </trkpt>
      <trkpt lat="38.843050" lon="-5.804200">
        <ele>1150.0</ele>
        <time>2019-05-04T15:24:20Z</time>
      </trkpt>
      <trkpt lat="38.842950" lon="-5.804200">
        <ele>1149.0</ele>
        <time>2019-05-04T15:24:21Z</time>
      </trkpt>
      <trkpt lat="38.842867" lon="-5.804200">
        <ele>1150.0</ele>
        <time>2019-05-04T15:24:22Z</time>
      </trkpt>
      <trkpt lat="38.842783" lon="-5.804200">
        <ele>1150.0</ele>
        <time>2019-05-04T15:24:23Z</time>
      </trkpt>
      <trkpt lat="38.842700" lon="-5.804200">
        <ele>1149.0</ele>
        <time>2019-05-04T15:24:24Z</time>
      </trkpt>
      <trkpt lat="38.842617" lon="-5.804200">
        <ele>1146.0</ele>
        <time>2019-05-04T15:24:25Z</time>
      </trkpt>
      <trkpt lat="38.842517" lon="-5.804217">
        <ele>1144.0</ele>
        <time>2019-05-04T15:24:26Z</time>
      </trkpt>
      <trkpt lat="38.842417" lon="-5.804217">
        <ele>1142.0</ele>
        <time>2019-05-04T15:24:27Z</time>
      </trkpt>
      <trkpt lat="38.842317" lon="-5.804200">
        <ele>1140.0</ele>
        <time>2019-05-04T15:24:28Z</time>
      </trkpt>
      <trkpt lat="38.842233" lon="-5.804200">
        <ele>1138.0</ele>
        <time>2019-05-04T15:24:29Z</time>
      </trkpt>
      <trkpt lat="38.842133" lon="-5.804217">
        <ele>1136.0</ele>
        <time>2019-05-04T15:24:30Z</time>
      </trkpt>
      <trkpt lat="38.842033" lon="-5.804233">
        <ele>1133.0</ele>
        <time>2019-05-04T15:24:31Z</time>
      </trkpt>
      <trkpt lat="38.841950" lon="-5.804267">
        <ele>1130.0</ele>
        <time>2019-05-04T15:24:32Z</time>
      </trkpt>
      <trkpt lat="38.841850" lon="-5.804300">
        <ele>1127.0</ele>
        <time>2019-05-04T15:24:33Z</time>
      </trkpt>
      <trkpt lat="38.841767" lon="-5.804317">
        <ele>1126.0</ele>
        <time>2019-05-04T15:24:34Z</time>
      </trkpt>
      <trkpt lat="38.841683" lon="-5.804317">
        <ele>1124.0</ele>
        <time>2019-05-04T15:24:35Z</time>
      </trkpt>
      <trkpt lat="38.841617" lon="-5.804333">
        <ele>1122.0</ele>
        <time>2019-05-04T15:24:36Z</time>
      </trkpt>
      <trkpt lat="38.841533" lon="-5.804350">
        <ele>1117.0</ele>
        <time>2019-05-04T15:24:37Z</time>
      </trkpt>
      <trkpt lat="38.841450" lon="-5.804383">
        <ele>1112.0</ele>
        <time>2019-05-04T15:24:38Z</time>
      </trkpt>
      <trkpt lat="38.841350" lon="-5.804400">
        <ele>1108.0</ele>
        <time>2019-05-04T15:24:39Z</time>
      </trkpt>
      <trkpt lat="38.841283" lon="-5.804417">
        <ele>1106.0</ele>
        <time>2019-05-04T15:24:40Z</time>
      </trkpt>
      <trkpt lat="38.841217" lon="-5.804433">
        <ele>1104.0</ele>
        <time>2019-05-04T15:24:41Z</time>
      </trkpt>
      <trkpt lat="38.841133" lon="-5.804433">
        <ele>1101.0</ele>
        <time>2019-05-04T15:24:42Z</time>
      </trkpt>
      <trkpt lat="38.841050" lon="-5.804450">
        <ele>1097.0</ele>
        <time>2019-05-04T15:24:43Z</time>
      </trkpt>
      <trkpt lat="38.840950" lon="-5.804467">
        <ele>1094.0</ele>
        <time>2019-05-04T15:24:44Z</time>
      </trkpt>
      <trkpt lat="38.840850" lon="-5.804500">
        <ele>1090.0</ele>
        <time>2019-05-04T15:24:45Z</time>
      </trkpt>
      <trkpt lat="38.840750" lon="-5.804517">
        <ele>1088.0</ele>
        <time>2019-05-04T15:24:46Z</time>
      </trkpt>
      <trkpt lat="38.840667" lon="-5.804533">
        <ele>1088.0</ele>
        <time>2019-05-04T15:24:47Z</time>
      </trkpt>
      <trkpt lat="38.840583" lon="-5.804550">
        <ele>1087.0</ele>
        <time>2019-05-04T15:24:48Z</time>
      </trkpt>
      <trkpt lat="38.840517" lon="-5.804583">
        <ele>1086.0</ele>
        <time>2019-05-04T15:24:49Z</time>
      </trkpt>
      <trkpt lat="38.840433" lon="-5.804600">
        <ele>1084.0</ele>
        <time>2019-05-04T15:24:50Z</time>
      </trkpt>
      <trkpt lat="38.840350" lon="-5.804650">
        <ele>1081.0</ele>
        <time>2019-05-04T15:24:51Z</time>
      </trkpt>
      <trkpt lat="38.840267" lon="-5.804683">
        <ele>1079.0</ele>
        <time>2019-05-04T15:24:52Z</time>
      </trkpt>
      <trkpt lat="38.840167" lon="-5.804717">
        <ele>1077.0</ele>
        <time>2019-05-04T15:24:53Z</time>
      </trkpt>
      <trkpt lat="38.840083" lon="-5.804750">
        <ele>1077.0</ele>
        <time>2019-05-04T15:24:54Z</time>
      </trkpt>
      <trkpt lat="38.840000" lon="-5.804750">
        <ele>1076.0</ele>
        <time>2019-05-04T15:24:55Z</time>
      </trkpt>
      <trkpt lat="38.839917" lon="-5.804767">
        <ele>1075.0</ele>
        <time>2019-05-04T15:24:56Z</time>
      </trkpt>
      <trkpt lat="38.839817" lon="-5.804783">
        <ele>1073.0</ele>
        <time>2019-05-04T15:24:57Z</time>
      </trkpt>
      <trkpt lat="38.839717" lon="-5.804817">
        <ele>1071.0</ele>
        <time>2019-05-04T15:24:58Z</time>
      </trkpt>
      <trkpt lat="38.839617" lon="-5.804833">
        <ele>1070.0</ele>
        <time>2019-05-04T15:24:59Z</time>
      </trkpt>
      <trkpt lat="38.839517" lon="-5.804850">
        <ele>1068.0</ele>
        <time>2019-05-04T15:25:00Z</time>
      </trkpt>
      <trkpt lat="38.839417" lon="-5.804883">
        <ele>1068.0</ele>
        <time>2019-05-04T15:25:01Z</time>
      </trkpt>
      <trkpt lat="38.839317" lon="-5.804900">
        <ele>1067.0</ele>
        <time>2019-05-04T15:25:02Z</time>
      </trkpt>
      <trkpt lat="38.839217" lon="-5.804917">
        <ele>1065.0</ele>
        <time>2019-05-04T15:25:03Z</time>
      </trkpt>
      <trkpt lat="38.839117" lon="-5.804917">
        <ele>1065.0</ele>
        <time>2019-05-04T15:25:04Z</time>
      </trkpt>
      <trkpt lat="38.839017" lon="-5.804933">
        <ele>1063.0</ele>
        <time>2019-05-04T15:25:05Z</time>
      </trkpt>
      <trkpt lat="38.838917" lon="-5.804933">
        <ele>1062.0</ele>
        <time>2019-05-04T15:25:06Z</time>
      </trkpt>
      <trkpt lat="38.838817" lon="-5.804950">
        <ele>1060.0</ele>
        <time>2019-05-04T15:25:07Z</time>
      </trkpt>
      <trkpt lat="38.838717" lon="-5.804967">
        <ele>1058.0</ele>
        <time>2019-05-04T15:25:08Z</time>
      </trkpt>
      <trkpt lat="38.838600" lon="-5.804967">
        <ele>1056.0</ele>
        <time>2019-05-04T15:25:09Z</time>
      </trkpt>
      <trkpt lat="38.838500" lon="-5.804983">
        <ele>1055.0</ele>
        <time>2019-05-04T15:25:10Z</time>
      </trkpt>
      <trkpt lat="38.838400" lon="-5.805000">
        <ele>1054.0</ele>
        <time>2019-05-04T15:25:11Z</time>
      </trkpt>
      <trkpt lat="38.838300" lon="-5.805017">
        <ele>1054.0</ele>
        <time>2019-05-04T15:25:12Z</time>
      </trkpt>
      <trkpt lat="38.838217" lon="-5.805033">
        <ele>1053.0</ele>
        <time>2019-05-04T15:25:13Z</time>
      </trkpt>
      <trkpt lat="38.838100" lon="-5.805033">
        <ele>1050.0</ele>
        <time>2019-05-04T15:25:14Z</time>
      </trkpt>
      <trkpt lat="38.838000" lon="-5.805017">
        <ele>1047.0</ele>
        <time>2019-05-04T15:25:15Z</time>
      </trkpt>
      <trkpt lat="38.837883" lon="-5.805000">
        <ele>1044.0</ele>
        <time>2019-05-04T15:25:16Z</time>
      </trkpt>
      <trkpt lat="38.837767" lon="-5.805000">
        <ele>1042.0</ele>
        <time>2019-05-04T15:25:17Z</time>
      </trkpt>
      <trkpt lat="38.837650" lon="-5.804983">
        <ele>1041.0</ele>
        <time>2019-05-04T15:25:18Z</time>
      </trkpt>
      <trkpt lat="38.837533" lon="-5.804983">
        <ele>1039.0</ele>
        <time>2019-05-04T15:25:19Z</time>
      </trkpt>
      <trkpt lat="38.837417" lon="-5.804967">
        <ele>1038.0</ele>
        <time>2019-05-04T15:25:20Z</time>
      </trkpt>
      <trkpt lat="38.837300" lon="-5.804950">
        <ele>1037.0</ele>
        <time>2019-05-04T15:25:21Z</time>
      </trkpt>
      <trkpt lat="38.837183" lon="-5.804917">
        <ele>1035.0</ele>
        <time>2019-05-04T15:25:22Z</time>
      </trkpt>
      <trkpt lat="38.837083" lon="-5.804883">
        <ele>1033.0</ele>
        <time>2019-05-04T15:25:23Z</time>
      </trkpt>
      <trkpt lat="38.836967" lon="-5.804867">
        <ele>1030.0</ele>
        <time>2019-05-04T15:25:24Z</time>
      </trkpt>
      <trkpt lat="38.836850" lon="-5.804867">
        <ele>1027.0</ele>
        <time>2019-05-04T15:25:25Z</time>
      </trkpt>
      <trkpt lat="38.836733" lon="-5.804883">
        <ele>1024.0</ele>
        <time>2019-05-04T15:25:26Z</time>
      </trkpt>
      <trkpt lat="38.836633" lon="-5.804867">
        <ele>1021.0</ele>
        <time>2019-05-04T15:25:27Z</time>
      </trkpt>
      <trkpt lat="38.836533" lon="-5.804833">
        <ele>1019.0</ele>
        <time>2019-05-04T15:25:28Z</time>
      </trkpt>
      <trkpt lat="38.836417" lon="-5.804817">
        <ele>1016.0</ele>
        <time>2019-05-04T15:25:29Z</time>
      </trkpt>
      <trkpt lat="38.836317" lon="-5.804817">
        <ele>1013.0</ele>
        <time>2019-05-04T15:25:30Z</time>
      </trkpt>
      <trkpt lat="38.836217" lon="-5.804833">
        <ele>1010.0</ele>
        <time>2019-05-04T15:25:31Z</time>
      </trkpt>
      <trkpt lat="38.836100" lon="-5.804850">
        <ele>1007.0</ele>
        <time>2019-05-04T15:25:32Z</time>
      </trkpt>
      <trkpt lat="38.835983" lon="-5.804850">
        <ele>1005.0</ele>
        <time>2019-05-04T15:25:33Z</time>
      </trkpt>
      <trkpt lat="38.835867" lon="-5.804850">
        <ele>1003.0</ele>
        <time>2019-05-04T15:25:34Z</time>
      </trkpt>
      <trkpt lat="38.835767" lon="-5.804850">
        <ele>1000.0</ele>
        <time>2019-05-04T15:25:35Z</time>
      </trkpt>
      <trkpt lat="38.835650" lon="-5.804850">
        <ele>999.0</ele>
        <time>2019-05-04T15:25:36Z</time>
      </trkpt>
      <trkpt lat="38.835533" lon="-5.804883">
        <ele>997.0</ele>
        <time>2019-05-04T15:25:37Z</time>
      </trkpt>
      <trkpt lat="38.835433" lon="-5.804900">
        <ele>995.0</ele>
        <time>2019-05-04T15:25:38Z</time>
      </trkpt>
      <trkpt lat="38.835317" lon="-5.804917">
        <ele>992.0</ele>
        <time>2019-05-04T15:25:39Z</time>
      </trkpt>
      <trkpt lat="38.835217" lon="-5.804950">
        <ele>989.0</ele>
        <time>2019-05-04T15:25:40Z</time>
      </trkpt>
      <trkpt lat="38.835100" lon="-5.804983">
        <ele>987.0</ele>
        <time>2019-05-04T15:25:41Z</time>
      </trkpt>
      <trkpt lat="38.834983" lon="-5.805000">
        <ele>984.0</ele>
        <time>2019-05-04T15:25:42Z</time>
      </trkpt>
      <trkpt lat="38.834883" lon="-5.805017">
        <ele>982.0</ele>
        <time>2019-05-04T15:25:43Z</time>
      </trkpt>
      <trkpt lat="38.834767" lon="-5.805033">
        <ele>979.0</ele>
        <time>2019-05-04T15:25:44Z</time>
      </trkpt>
      <trkpt lat="38.834650" lon="-5.805033">
        <ele>975.0</ele>
        <time>2019-05-04T15:25:45Z</time>
      </trkpt>
      <trkpt lat="38.834533" lon="-5.805050">
        <ele>971.0</ele>
        <time>2019-05-04T15:25:46Z</time>
      </trkpt>
      <trkpt lat="38.834400" lon="-5.805067">
        <ele>967.0</ele>
        <time>2019-05-04T15:25:47Z</time>
      </trkpt>
      <trkpt lat="38.834283" lon="-5.805083">
        <ele>964.0</ele>
        <time>2019-05-04T15:25:48Z</time>
      </trkpt>
      <trkpt lat="38.834150" lon="-5.805083">
        <ele>961.0</ele>
        <time>2019-05-04T15:25:49Z</time>
      </trkpt>
      <trkpt lat="38.834033" lon="-5.805083">
        <ele>958.0</ele>
        <time>2019-05-04T15:25:50Z</time>
      </trkpt>
      <trkpt lat="38.833917" lon="-5.805083">
        <ele>955.0</ele>
        <time>2019-05-04T15:25:51Z</time>
      </trkpt>
      <trkpt lat="38.833783" lon="-5.805083">
        <ele>951.0</ele>
        <time>2019-05-04T15:25:52Z</time>
      </trkpt>
      <trkpt lat="38.833650" lon="-5.805100">
        <ele>949.0</ele>
        <time>2019-05-04T15:25:53Z</time>
      </trkpt>
      <trkpt lat="38.833517" lon="-5.805100">
        <ele>946.0</ele>
        <time>2019-05-04T15:25:54Z</time>
      </trkpt>
      <trkpt lat="38.833400" lon="-5.805100">
        <ele>944.0</ele>
        <time>2019-05-04T15:25:55Z</time>
      </trkpt>
      <trkpt lat="38.833283" lon="-5.805117">
        <ele>941.0</ele>
        <time>2019-05-04T15:25:56Z</time>
      </trkpt>
      <trkpt lat="38.833150" lon="-5.805117">
        <ele>937.0</ele>
        <time>2019-05-04T15:25:57Z</time>
      </trkpt>
      <trkpt lat="38.833017" lon="-5.805117">
        <ele>934.0</ele>
        <time>2019-05-04T15:25:58Z</time>
      </trkpt>
      <trkpt lat="38.832900" lon="-5.805100">
        <ele>931.0</ele>
        <time>2019-05-04T15:25:59Z</time>
      </trkpt>
      <trkpt lat="38.832783" lon="-5.805083">
        <ele>929.0</ele>
        <time>2019-05-04T15:26:00Z</time>
      </trkpt>
      <trkpt lat="38.832667" lon="-5.805067">
        <ele>926.0</ele>
        <time>2019-05-04T15:26:01Z</time>
      </trkpt>
      <trkpt lat="38.832533" lon="-5.805050">
        <ele>923.0</ele>
        <time>2019-05-04T15:26:02Z</time>
      </trkpt>
      <trkpt lat="38.832400" lon="-5.805033">
        <ele>920.0</ele>
        <time>2019-05-04T15:26:03Z</time>
      </trkpt>
      <trkpt lat="38.832267" lon="-5.805033">
        <ele>916.0</ele>
        <time>2019-05-04T15:26:04Z</time>
      </trkpt>
      <trkpt lat="38.832150" lon="-5.805033">
        <ele>913.0</ele>
        <time>2019-05-04T15:26:05Z</time>
      </trkpt>
      <trkpt lat="38.832017" lon="-5.805017">
        <ele>910.0</ele>
        <time>2019-05-04T15:26:06Z</time>
      </trkpt>
      <trkpt lat="38.831900" lon="-5.805000">
        <ele>908.0</ele>
        <time>2019-05-04T15:26:07Z</time>
      </trkpt>
      <trkpt lat="38.831767" lon="-5.805000">
        <ele>905.0</ele>
        <time>2019-05-04T15:26:08Z</time>
      </trkpt>
      <trkpt lat="38.831633" lon="-5.805000">
        <ele>903.0</ele>
        <time>2019-05-04T15:26:09Z</time>
      </trkpt>
      <trkpt lat="38.831517" lon="-5.805000">
        <ele>901.0</ele>
        <time>2019-05-04T15:26:10Z</time>
      </trkpt>
      <trkpt lat="38.831383" lon="-5.805000">
        <ele>899.0</ele>
        <time>2019-05-04T15:26:11Z</time>
      </trkpt>
      <trkpt lat="38.831267" lon="-5.805000">
        <ele>897.0</ele>
        <time>2019-05-04T15:26:12Z</time>
      </trkpt>
      <trkpt lat="38.831150" lon="-5.804983">
        <ele>894.0</ele>
        <time>2019-05-04T15:26:13Z</time>
      </trkpt>
      <trkpt lat="38.831017" lon="-5.804983">
        <ele>890.0</ele>
        <time>2019-05-04T15:26:14Z</time>
      </trkpt>
      <trkpt lat="38.830900" lon="-5.805000">
        <ele>886.0</ele>
        <time>2019-05-04T15:26:15Z</time>
      </trkpt>
      <trkpt lat="38.830767" lon="-5.805000">
        <ele>884.0</ele>
        <time>2019-05-04T15:26:16Z</time>
      </trkpt>
      <trkpt lat="38.830650" lon="-5.805000">
        <ele>882.0</ele>
        <time>2019-05-04T15:26:17Z</time>
      </trkpt>
      <trkpt lat="38.830550" lon="-5.805000">
        <ele>881.0</ele>
        <time>2019-05-04T15:26:18Z</time>
      </trkpt>
      <trkpt lat="38.830450" lon="-5.805000">
        <ele>879.0</ele>
        <time>2019-05-04T15:26:19Z</time>
      </trkpt>
      <trkpt lat="38.830333" lon="-5.805000">
        <ele>877.0</ele>
        <time>2019-05-04T15:26:20Z</time>
      </trkpt>
      <trkpt lat="38.830233" lon="-5.805017">
        <ele>875.0</ele>
        <time>2019-05-04T15:26:21Z</time>
      </trkpt>
      <trkpt lat="38.830117" lon="-5.805033">
        <ele>872.0</ele>
        <time>2019-05-04T15:26:22Z</time>
      </trkpt>
      <trkpt lat="38.830000" lon="-5.805033">
        <ele>869.0</ele>
        <time>2019-05-04T15:26:23Z</time>
      </trkpt>
      <trkpt lat="38.829900" lon="-5.805050">
        <ele>868.0</ele>
        <time>2019-05-04T15:26:24Z</time>
      </trkpt>
      <trkpt lat="38.829800" lon="-5.805050">
        <ele>866.0</ele>
        <time>2019-05-04T15:26:25Z</time>
      </trkpt>
      <trkpt lat="38.829700" lon="-5.805050">
        <ele>863.0</ele>
        <time>2019-05-04T15:26:26Z</time>
      </trkpt>
      <trkpt lat="38.829583" lon="-5.805033">
        <ele>859.0</ele>
        <time>2019-05-04T15:26:27Z</time>
      </trkpt>
      <trkpt lat="38.829467" lon="-5.805033">
        <ele>856.0</ele>
        <time>2019-05-04T15:26:28Z</time>
      </trkpt>
      <trkpt lat="38.829350" lon="-5.804983">
        <ele>853.0</ele>
        <time>2019-05-04T15:26:29Z</time>
      </trkpt>
      <trkpt lat="38.829233" lon="-5.804917">
        <ele>851.0</ele>
        <time>2019-05-04T15:26:30Z</time>
      </trkpt>
      <trkpt lat="38.829117" lon="-5.804817">
        <ele>848.0</ele>
        <time>2019-05-04T15:26:31Z</time>
      </trkpt>
      <trkpt lat="38.829033" lon="-5.804700">
        <ele>847.0</ele>
        <time>2019-05-04T15:26:32Z</time>
      </trkpt>
      <trkpt lat="38.828950" lon="-5.804583">
        <ele>845.0</ele>
        <time>2019-05-04T15:26:33Z</time>
      </trkpt>
      <trkpt lat="38.828867" lon="-5.804467">
        <ele>844.0</ele>
        <time>2019-05-04T15:26:34Z</time>
      </trkpt>
      <trkpt lat="38.828783" lon="-5.804350">
        <ele>841.0</ele>
        <time>2019-05-04T15:26:35Z</time>
      </trkpt>
      <trkpt lat="38.828700" lon="-5.804217">
        <ele>838.0</ele>
        <time>2019-05-04T15:26:36Z</time>
      </trkpt>
      <trkpt lat="38.828617" lon="-5.804083">
        <ele>836.0</ele>
        <time>2019-05-04T15:26:37Z</time>
      </trkpt>
      <trkpt lat="38.828533" lon="-5.803933">
        <ele>833.0</ele>
        <time>2019-05-04T15:26:38Z</time>
      </trkpt>
      <trkpt lat="38.828450" lon="-5.803800">
        <ele>831.0</ele>
        <time>2019-05-04T15:26:39Z</time>
      </trkpt>
      <trkpt lat="38.828383" lon="-5.803650">
        <ele>828.0</ele>
        <time>2019-05-04T15:26:40Z</time>
      </trkpt>
      <trkpt lat="38.828300" lon="-5.803517">
        <ele>825.0</ele>
        <time>2019-05-04T15:26:41Z</time>
      </trkpt>
      <trkpt lat="38.828217" lon="-5.803383">
        <ele>822.0</ele>
        <time>2019-05-04T15:26:42Z</time>
      </trkpt>
      <trkpt lat="38.828133" lon="-5.803233">
        <ele>819.0</ele>
        <time>2019-05-04T15:26:43Z</time>
      </trkpt>
      <trkpt lat="38.828067" lon="-5.803083">
        <ele>814.0</ele>
        <time>2019-05-04T15:26:44Z</time>
      </trkpt>
      <trkpt lat="38.827983" lon="-5.802933">
        <ele>810.0</ele>
        <time>2019-05-04T15:26:45Z</time>
      </trkpt>
      <trkpt lat="38.827917" lon="-5.802767">
        <ele>805.0</ele>
        <time>2019-05-04T15:26:46Z</time>
      </trkpt>
      <trkpt lat="38.827850" lon="-5.802617">
        <ele>801.0</ele>
        <time>2019-05-04T15:26:47Z</time>
      </trkpt>
      <trkpt lat="38.827800" lon="-5.802467">
        <ele>797.0</ele>
        <time>2019-05-04T15:26:48Z</time>
      </trkpt>
      <trkpt lat="38.827750" lon="-5.802333">
        <ele>793.0</ele>
        <time>2019-05-04T15:26:49Z</time>
      </trkpt>
      <trkpt lat="38.827683" lon="-5.802167">
        <ele>789.0</ele>
        <time>2019-05-04T15:26:50Z</time>
      </trkpt>
      <trkpt lat="38.827633" lon="-5.802017">
        <ele>785.0</ele>
        <time>2019-05-04T15:26:51Z</time>
      </trkpt>
      <trkpt lat="38.827600" lon="-5.801850">
        <ele>782.0</ele>
        <time>2019-05-04T15:26:52Z</time>
      </trkpt>
      <trkpt lat="38.827550" lon="-5.801717">
        <ele>779.0</ele>
        <time>2019-05-04T15:26:53Z</time>
      </trkpt>
      <trkpt lat="38.827517" lon="-5.801567">
        <ele>777.0</ele>
        <time>2019-05-04T15:26:54Z</time>
      </trkpt>
      <trkpt lat="38.827467" lon="-5.801433">
        <ele>774.0</ele>
        <time>2019-05-04T15:26:55Z</time>
      </trkpt>
      <trkpt lat="38.827417" lon="-5.801283">
        <ele>772.0</ele>
        <time>2019-05-04T15:26:56Z</time>
      </trkpt>
      <trkpt lat="38.827383" lon="-5.801133">
        <ele>769.0</ele>
        <time>2019-05-04T15:26:57Z</time>
      </trkpt>
      <trkpt lat="38.827333" lon="-5.800967">
        <ele>766.0</ele>
        <time>2019-05-04T15:26:58Z</time>
      </trkpt>
      <trkpt lat="38.827300" lon="-5.800833">
        <ele>765.0</ele>
        <time>2019-05-04T15:26:59Z</time>
      </trkpt>
      <trkpt lat="38.827250" lon="-5.800700">
        <ele>764.0</ele>
        <time>2019-05-04T15:27:00Z</time>
      </trkpt>
      <trkpt lat="38.827217" lon="-5.800550">
        <ele>762.0</ele>
        <time>2019-05-04T15:27:01Z</time>
      </trkpt>
      <trkpt lat="38.827183" lon="-5.800417">
        <ele>760.0</ele>
        <time>2019-05-04T15:27:02Z</time>
      </trkpt>
      <trkpt lat="38.827150" lon="-5.800283">
        <ele>757.0</ele>
        <time>2019-05-04T15:27:03Z</time>
      </trkpt>
      <trkpt lat="38.827100" lon="-5.800133">
        <ele>753.0</ele>
        <time>2019-05-04T15:27:04Z</time>
      </trkpt>
      <trkpt lat="38.827050" lon="-5.799967">
        <ele>749.0</ele>
        <time>2019-05-04T15:27:05Z</time>
      </trkpt>
      <trkpt lat="38.827000" lon="-5.799833">
        <ele>746.0</ele>
        <time>2019-05-04T15:27:06Z</time>
      </trkpt>
      <trkpt lat="38.826950" lon="-5.799667">
        <ele>743.0</ele>
        <time>2019-05-04T15:27:07Z</time>
      </trkpt>
      <trkpt lat="38.826900" lon="-5.799517">
        <ele>740.0</ele>
        <time>2019-05-04T15:27:08Z</time>
      </trkpt>
      <trkpt lat="38.826850" lon="-5.799367">
        <ele>737.0</ele>
        <time>2019-05-04T15:27:09Z</time>
      </trkpt>
      <trkpt lat="38.826800" lon="-5.799217">
        <ele>734.0</ele>
        <time>2019-05-04T15:27:10Z</time>
      </trkpt>
      <trkpt lat="38.826733" lon="-5.799050">
        <ele>731.0</ele>
        <time>2019-05-04T15:27:11Z</time>
      </trkpt>
      <trkpt lat="38.826667" lon="-5.798900">
        <ele>728.0</ele>
        <time>2019-05-04T15:27:12Z</time>
      </trkpt>
      <trkpt lat="38.826600" lon="-5.798750">
        <ele>726.0</ele>
        <time>2019-05-04T15:27:13Z</time>
      </trkpt>
      <trkpt lat="38.826517" lon="-5.798617">
        <ele>723.0</ele>
        <time>2019-05-04T15:27:14Z</time>
      </trkpt>
      <trkpt lat="38.826467" lon="-5.798500">
        <ele>723.0</ele>
        <time>2019-05-04T15:27:15Z</time>
      </trkpt>
      <trkpt lat="38.826400" lon="-5.798400">
        <ele>724.0</ele>
        <time>2019-05-04T15:27:16Z</time>
      </trkpt>
      <trkpt lat="38.826350" lon="-5.798300">
        <ele>725.0</ele>
        <time>2019-05-04T15:27:17Z</time>
      </trkpt>
      <trkpt lat="38.826283" lon="-5.798200">
        <ele>725.0</ele>
        <time>2019-05-04T15:27:18Z</time>
      </trkpt>
      <trkpt lat="38.826217" lon="-5.798083">
        <ele>724.0</ele>
        <time>2019-05-04T15:27:19Z</time>
      </trkpt>
      <trkpt lat="38.826150" lon="-5.797950">
        <ele>725.0</ele>
        <time>2019-05-04T15:27:20Z</time>
      </trkpt>
      <trkpt lat="38.826083" lon="-5.797833">
        <ele>728.0</ele>
        <time>2019-05-04T15:27:21Z</time>
      </trkpt>
      <trkpt lat="38.826033" lon="-5.797733">
        <ele>731.0</ele>
        <time>2019-05-04T15:27:22Z</time>
      </trkpt>
      <trkpt lat="38.826000" lon="-5.797650">
        <ele>735.0</ele>
        <time>2019-05-04T15:27:23Z</time>
      </trkpt>
      <trkpt lat="38.825950" lon="-5.797533">
        <ele>737.0</ele>
        <time>2019-05-04T15:27:24Z</time>
      </trkpt>
      <trkpt lat="38.825883" lon="-5.797400">
        <ele>738.0</ele>
        <time>2019-05-04T15:27:25Z</time>
      </trkpt>
      <trkpt lat="38.825800" lon="-5.797283">
        <ele>739.0</ele>
        <time>2019-05-04T15:27:26Z</time>
      </trkpt>
      <trkpt lat="38.825700" lon="-5.797233">
        <ele>740.0</ele>
        <time>2019-05-04T15:27:27Z</time>
      </trkpt>
      <trkpt lat="38.825583" lon="-5.797217">
        <ele>742.0</ele>
        <time>2019-05-04T15:27:28Z</time>
      </trkpt>
      <trkpt lat="38.825483" lon="-5.797267">
        <ele>744.0</ele>
        <time>2019-05-04T15:27:29Z</time>
      </trkpt>
      <trkpt lat="38.825400" lon="-5.797333">
        <ele>746.0</ele>
        <time>2019-05-04T15:27:30Z</time>
      </trkpt>
      <trkpt lat="38.825333" lon="-5.797400">
        <ele>748.0</ele>
        <time>2019-05-04T15:27:31Z</time>
      </trkpt>
      <trkpt lat="38.825300" lon="-5.797483">
        <ele>750.0</ele>
        <time>2019-05-04T15:27:32Z</time>
      </trkpt>
      <trkpt lat="38.825283" lon="-5.797550">
        <ele>752.0</ele>
        <time>2019-05-04T15:27:33Z</time>
      </trkpt>
      <trkpt lat="38.825333" lon="-5.797650">
        <ele>754.0</ele>
        <time>2019-05-04T15:27:34Z</time>
      </trkpt>
      <trkpt lat="38.825383" lon="-5.797683">
        <ele>748.0</ele>
        <time>2019-05-04T15:27:35Z</time>
      </trkpt>
      <trkpt lat="38.825433" lon="-5.797683">
        <ele>749.0</ele>
        <time>2019-05-04T15:27:36Z</time>
      </trkpt>
      <trkpt lat="38.825483" lon="-5.797650">
        <ele>752.0</ele>
        <time>2019-05-04T15:27:37Z</time>
      </trkpt>
      <trkpt lat="38.825517" lon="-5.797567">
        <ele>754.0</ele>
        <time>2019-05-04T15:27:38Z</time>
      </trkpt>
      <trkpt lat="38.825517" lon="-5.797450">
        <ele>755.0</ele>
        <time>2019-05-04T15:27:39Z</time>
      </trkpt>
      <trkpt lat="38.825500" lon="-5.797333">
        <ele>757.0</ele>
        <time>2019-05-04T15:27:40Z</time>
      </trkpt>
      <trkpt lat="38.825467" lon="-5.797217">
        <ele>759.0</ele>
        <time>2019-05-04T15:27:41Z</time>
      </trkpt>
      <trkpt lat="38.825400" lon="-5.797133">
        <ele>762.0</ele>
        <time>2019-05-04T15:27:42Z</time>
      </trkpt>
      <trkpt lat="38.825300" lon="-5.797033">
        <ele>765.0</ele>
        <time>2019-05-04T15:27:43Z</time>
      </trkpt>
      <trkpt lat="38.825200" lon="-5.796983">
        <ele>767.0</ele>
        <time>2019-05-04T15:27:44Z</time>
      </trkpt>
      <trkpt lat="38.825083" lon="-5.797000">
        <ele>770.0</ele>
        <time>2019-05-04T15:27:45Z</time>
      </trkpt>
      <trkpt lat="38.824983" lon="-5.797067">
        <ele>771.0</ele>
        <time>2019-05-04T15:27:46Z</time>
      </trkpt>
      <trkpt lat="38.824933" lon="-5.797150">
        <ele>774.0</ele>
        <time>2019-05-04T15:27:47Z</time>
      </trkpt>
      <trkpt lat="38.824917" lon="-5.797250">
        <ele>776.0</ele>
        <time>2019-05-04T15:27:48Z</time>
      </trkpt>
      <trkpt lat="38.824933" lon="-5.797317">
        <ele>779.0</ele>
        <time>2019-05-04T15:27:49Z</time>
      </trkpt>
      <trkpt lat="38.824967" lon="-5.797367">
        <ele>782.0</ele>
        <time>2019-05-04T15:27:50Z</time>
      </trkpt>
      <trkpt lat="38.825017" lon="-5.797383">
        <ele>789.0</ele>
        <time>2019-05-04T15:27:51Z</time>
      </trkpt>
      <trkpt lat="38.825067" lon="-5.797367">
        <ele>783.0</ele>
        <time>2019-05-04T15:27:52Z</time>
      </trkpt>
      <trkpt lat="38.825100" lon="-5.797317">
        <ele>784.0</ele>
        <time>2019-05-04T15:27:53Z</time>
      </trkpt>
      <trkpt lat="38.825133" lon="-5.797233">
        <ele>786.0</ele>
        <time>2019-05-04T15:27:54Z</time>
      </trkpt>
      <trkpt lat="38.825133" lon="-5.797133">
        <ele>788.0</ele>
        <time>2019-05-04T15:27:55Z</time>
      </trkpt>
      <trkpt lat="38.825117" lon="-5.797017">
        <ele>790.0</ele>
        <time>2019-05-04T15:27:56Z</time>
      </trkpt>
      <trkpt lat="38.825083" lon="-5.796900">
        <ele>793.0</ele>
        <time>2019-05-04T15:27:57Z</time>
      </trkpt>
      <trkpt lat="38.825000" lon="-5.796800">
        <ele>795.0</ele>
        <time>2019-05-04T15:27:58Z</time>
      </trkpt>
      <trkpt lat="38.824917" lon="-5.796717">
        <ele>797.0</ele>
        <time>2019-05-04T15:27:59Z</time>
      </trkpt>
      <trkpt lat="38.824800" lon="-5.796667">
        <ele>799.0</ele>
        <time>2019-05-04T15:28:00Z</time>
      </trkpt>
      <trkpt lat="38.824683" lon="-5.796683">
        <ele>802.0</ele>
        <time>2019-05-04T15:28:01Z</time>
      </trkpt>
      <trkpt lat="38.824600" lon="-5.796733">
        <ele>805.0</ele>
        <time>2019-05-04T15:28:02Z</time>
      </trkpt>
      <trkpt lat="38.824533" lon="-5.796833">
        <ele>808.0</ele>
        <time>2019-05-04T15:28:03Z</time>
      </trkpt>
      <trkpt lat="38.824517" lon="-5.796917">
        <ele>811.0</ele>
        <time>2019-05-04T15:28:04Z</time>
      </trkpt>
      <trkpt lat="38.824517" lon="-5.796983">
        <ele>816.0</ele>
        <time>2019-05-04T15:28:05Z</time>
      </trkpt>
      <trkpt lat="38.824550" lon="-5.797067">
        <ele>820.0</ele>
        <time>2019-05-04T15:28:06Z</time>
      </trkpt>
      <trkpt lat="38.824583" lon="-5.797117">
        <ele>813.0</ele>
        <time>2019-05-04T15:28:07Z</time>
      </trkpt>
      <trkpt lat="38.824633" lon="-5.797150">
        <ele>813.0</ele>
        <time>2019-05-04T15:28:08Z</time>
      </trkpt>
      <trkpt lat="38.824667" lon="-5.797133">
        <ele>815.0</ele>
        <time>2019-05-04T15:28:09Z</time>
      </trkpt>
      <trkpt lat="38.824717" lon="-5.797100">
        <ele>816.0</ele>
        <time>2019-05-04T15:28:10Z</time>
      </trkpt>
      <trkpt lat="38.824750" lon="-5.797017">
        <ele>819.0</ele>
        <time>2019-05-04T15:28:11Z</time>
      </trkpt>
      <trkpt lat="38.824767" lon="-5.796917">
        <ele>823.0</ele>
        <time>2019-05-04T15:28:12Z</time>
      </trkpt>
      <trkpt lat="38.824750" lon="-5.796783">
        <ele>825.0</ele>
        <time>2019-05-04T15:28:13Z</time>
      </trkpt>
      <trkpt lat="38.824717" lon="-5.796667">
        <ele>826.0</ele>
        <time>2019-05-04T15:28:14Z</time>
      </trkpt>
      <trkpt lat="38.824650" lon="-5.796550">
        <ele>827.0</ele>
        <time>2019-05-04T15:28:15Z</time>
      </trkpt>
      <trkpt lat="38.824550" lon="-5.796483">
        <ele>828.0</ele>
        <time>2019-05-04T15:28:16Z</time>
      </trkpt>
      <trkpt lat="38.824450" lon="-5.796467">
        <ele>829.0</ele>
        <time>2019-05-04T15:28:17Z</time>
      </trkpt>
      <trkpt lat="38.824350" lon="-5.796517">
        <ele>830.0</ele>
        <time>2019-05-04T15:28:18Z</time>
      </trkpt>
      <trkpt lat="38.824283" lon="-5.796600">
        <ele>831.0</ele>
        <time>2019-05-04T15:28:19Z</time>
      </trkpt>
      <trkpt lat="38.824250" lon="-5.796700">
        <ele>832.0</ele>
        <time>2019-05-04T15:28:20Z</time>
      </trkpt>
      <trkpt lat="38.824217" lon="-5.796783">
        <ele>836.0</ele>
        <time>2019-05-04T15:28:21Z</time>
      </trkpt>
      <trkpt lat="38.824183" lon="-5.796850">
        <ele>841.0</ele>
        <time>2019-05-04T15:28:22Z</time>
      </trkpt>
      <trkpt lat="38.824150" lon="-5.796917">
        <ele>844.0</ele>
        <time>2019-05-04T15:28:23Z</time>
      </trkpt>
      <trkpt lat="38.824133" lon="-5.796983">
        <ele>847.0</ele>
        <time>2019-05-04T15:28:24Z</time>
      </trkpt>
      <trkpt lat="38.824117" lon="-5.797050">
        <ele>851.0</ele>
        <time>2019-05-04T15:28:25Z</time>
      </trkpt>
      <trkpt lat="38.824117" lon="-5.797100">
        <ele>857.0</ele>
        <time>2019-05-04T15:28:26Z</time>
      </trkpt>
      <trkpt lat="38.824117" lon="-5.797133">
        <ele>862.0</ele>
        <time>2019-05-04T15:28:27Z</time>
      </trkpt>
      <trkpt lat="38.824133" lon="-5.797167">
        <ele>864.0</ele>
        <time>2019-05-04T15:28:28Z</time>
      </trkpt>
      <trkpt lat="38.824150" lon="-5.797183">
        <ele>865.0</ele>
        <time>2019-05-04T15:28:29Z</time>
      </trkpt>
      <trkpt lat="38.824183" lon="-5.797167">
        <ele>867.0</ele>
        <time>2019-05-04T15:28:30Z</time>
      </trkpt>
      <trkpt lat="38.824217" lon="-5.797117">
        <ele>868.0</ele>
        <time>2019-05-04T15:28:31Z</time>
      </trkpt>
      <trkpt lat="38.824250" lon="-5.797017">
        <ele>868.0</ele>
        <time>2019-05-04T15:28:32Z</time>
      </trkpt>
      <trkpt lat="38.824233" lon="-5.796883">
        <ele>868.0</ele>
        <time>2019-05-04T15:28:33Z</time>
      </trkpt>
      <trkpt lat="38.824183" lon="-5.796733">
        <ele>869.0</ele>
        <time>2019-05-04T15:28:34Z</time>
      </trkpt>
      <trkpt lat="38.824117" lon="-5.796600">
        <ele>872.0</ele>
        <time>2019-05-04T15:28:35Z</time>
      </trkpt>
      <trkpt lat="38.824033" lon="-5.796517">
        <ele>875.0</ele>
        <time>2019-05-04T15:28:36Z</time>
      </trkpt>
      <trkpt lat="38.823933" lon="-5.796433">
        <ele>877.0</ele>
        <time>2019-05-04T15:28:37Z</time>
      </trkpt>
      <trkpt lat="38.823833" lon="-5.796383">
        <ele>879.0</ele>
        <time>2019-05-04T15:28:38Z</time>
      </trkpt>
      <trkpt lat="38.823733" lon="-5.796350">
        <ele>881.0</ele>
        <time>2019-05-04T15:28:39Z</time>
      </trkpt>
      <trkpt lat="38.823617" lon="-5.796367">
        <ele>883.0</ele>
        <time>2019-05-04T15:28:40Z</time>
      </trkpt>
      <trkpt lat="38.823500" lon="-5.796400">
        <ele>884.0</ele>
        <time>2019-05-04T15:28:41Z</time>
      </trkpt>
      <trkpt lat="38.823400" lon="-5.796450">
        <ele>887.0</ele>
        <time>2019-05-04T15:28:42Z</time>
      </trkpt>
      <trkpt lat="38.823300" lon="-5.796500">
        <ele>889.0</ele>
        <time>2019-05-04T15:28:43Z</time>
      </trkpt>
      <trkpt lat="38.823233" lon="-5.796550">
        <ele>893.0</ele>
        <time>2019-05-04T15:28:44Z</time>
      </trkpt>
      <trkpt lat="38.823167" lon="-5.796617">
        <ele>896.0</ele>
        <time>2019-05-04T15:28:45Z</time>
      </trkpt>
      <trkpt lat="38.823117" lon="-5.796700">
        <ele>899.0</ele>
        <time>2019-05-04T15:28:46Z</time>
      </trkpt>
      <trkpt lat="38.823083" lon="-5.796783">
        <ele>902.0</ele>
        <time>2019-05-04T15:28:47Z</time>
      </trkpt>
      <trkpt lat="38.823067" lon="-5.796867">
        <ele>904.0</ele>
        <time>2019-05-04T15:28:48Z</time>
      </trkpt>
      <trkpt lat="38.823067" lon="-5.796933">
        <ele>906.0</ele>
        <time>2019-05-04T15:28:49Z</time>
      </trkpt>
      <trkpt lat="38.823117" lon="-5.797000">
        <ele>908.0</ele>
        <time>2019-05-04T15:28:50Z</time>
      </trkpt>
      <trkpt lat="38.823183" lon="-5.796983">
        <ele>910.0</ele>
        <time>2019-05-04T15:28:51Z</time>
      </trkpt>
      <trkpt lat="38.823250" lon="-5.796933">
        <ele>911.0</ele>
        <time>2019-05-04T15:28:52Z</time>
      </trkpt>
      <trkpt lat="38.823267" lon="-5.796833">
        <ele>912.0</ele>
        <time>2019-05-04T15:28:53Z</time>
      </trkpt>
      <trkpt lat="38.823267" lon="-5.796733">
        <ele>914.0</ele>
        <time>2019-05-04T15:28:54Z</time>
      </trkpt>
      <trkpt lat="38.823250" lon="-5.796633">
        <ele>913.0</ele>
        <time>2019-05-04T15:28:55Z</time>
      </trkpt>
      <trkpt lat="38.823183" lon="-5.796550">
        <ele>912.0</ele>
        <time>2019-05-04T15:28:56Z</time>
      </trkpt>
      <trkpt lat="38.823100" lon="-5.796483">
        <ele>913.0</ele>
        <time>2019-05-04T15:28:57Z</time>
      </trkpt>
      <trkpt lat="38.823017" lon="-5.796450">
        <ele>914.0</ele>
        <time>2019-05-04T15:28:58Z</time>
      </trkpt>
      <trkpt lat="38.822900" lon="-5.796433">
        <ele>915.0</ele>
        <time>2019-05-04T15:28:59Z</time>
      </trkpt>
      <trkpt lat="38.822800" lon="-5.796483">
        <ele>916.0</ele>
        <time>2019-05-04T15:29:00Z</time>
      </trkpt>
      <trkpt lat="38.822717" lon="-5.796567">
        <ele>918.0</ele>
        <time>2019-05-04T15:29:01Z</time>
      </trkpt>
      <trkpt lat="38.822683" lon="-5.796667">
        <ele>920.0</ele>
        <time>2019-05-04T15:29:02Z</time>
      </trkpt>
      <trkpt lat="38.822683" lon="-5.796767">
        <ele>923.0</ele>
        <time>2019-05-04T15:29:03Z</time>
      </trkpt>
      <trkpt lat="38.822717" lon="-5.796817">
        <ele>925.0</ele>
        <time>2019-05-04T15:29:04Z</time>
      </trkpt>
      <trkpt lat="38.822767" lon="-5.796867">
        <ele>928.0</ele>
        <time>2019-05-04T15:29:05Z</time>
      </trkpt>
      <trkpt lat="38.822817" lon="-5.796867">
        <ele>930.0</ele>
        <time>2019-05-04T15:29:06Z</time>
      </trkpt>
      <trkpt lat="38.822867" lon="-5.796817">
        <ele>933.0</ele>
        <time>2019-05-04T15:29:07Z</time>
      </trkpt>
      <trkpt lat="38.822867" lon="-5.796717">
        <ele>935.0</ele>
        <time>2019-05-04T15:29:08Z</time>
      </trkpt>
      <trkpt lat="38.822850" lon="-5.796617">
        <ele>937.0</ele>
        <time>2019-05-04T15:29:09Z</time>
      </trkpt>
      <trkpt lat="38.822817" lon="-5.796500">
        <ele>939.0</ele>
        <time>2019-05-04T15:29:10Z</time>
      </trkpt>
      <trkpt lat="38.822750" lon="-5.796383">
        <ele>941.0</ele>
        <time>2019-05-04T15:29:11Z</time>
      </trkpt>
      <trkpt lat="38.822683" lon="-5.796300">
        <ele>944.0</ele>
        <time>2019-05-04T15:29:12Z</time>
      </trkpt>
      <trkpt lat="38.822583" lon="-5.796250">
        <ele>946.0</ele>
        <time>2019-05-04T15:29:13Z</time>
      </trkpt>
      <trkpt lat="38.822467" lon="-5.796233">
        <ele>947.0</ele>
        <time>2019-05-04T15:29:14Z</time>
      </trkpt>
      <trkpt lat="38.822367" lon="-5.796267">
        <ele>948.0</ele>
        <time>2019-05-04T15:29:15Z</time>
      </trkpt>
      <trkpt lat="38.822283" lon="-5.796350">
        <ele>950.0</ele>
        <time>2019-05-04T15:29:16Z</time>
      </trkpt>
      <trkpt lat="38.822267" lon="-5.796450">
        <ele>952.0</ele>
        <time>2019-05-04T15:29:17Z</time>
      </trkpt>
      <trkpt lat="38.822250" lon="-5.796533">
        <ele>949.0</ele>
        <time>2019-05-04T15:29:18Z</time>
      </trkpt>
      <trkpt lat="38.822250" lon="-5.796617">
        <ele>951.0</ele>
        <time>2019-05-04T15:29:19Z</time>
      </trkpt>
      <trkpt lat="38.822283" lon="-5.796683">
        <ele>953.0</ele>
        <time>2019-05-04T15:29:20Z</time>
      </trkpt>
      <trkpt lat="38.822317" lon="-5.796717">
        <ele>954.0</ele>
        <time>2019-05-04T15:29:21Z</time>
      </trkpt>
      <trkpt lat="38.822367" lon="-5.796733">
        <ele>956.0</ele>
        <time>2019-05-04T15:29:22Z</time>
      </trkpt>
      <trkpt lat="38.822400" lon="-5.796700">
        <ele>957.0</ele>
        <time>2019-05-04T15:29:23Z</time>
      </trkpt>
      <trkpt lat="38.822417" lon="-5.796600">
        <ele>959.0</ele>
        <time>2019-05-04T15:29:24Z</time>
      </trkpt>
      <trkpt lat="38.822383" lon="-5.796500">
        <ele>959.0</ele>
        <time>2019-05-04T15:29:25Z</time>
      </trkpt>
      <trkpt lat="38.822333" lon="-5.796383">
        <ele>960.0</ele>
        <time>2019-05-04T15:29:26Z</time>
      </trkpt>
      <trkpt lat="38.822250" lon="-5.796300">
        <ele>962.0</ele>
        <time>2019-05-04T15:29:27Z</time>
      </trkpt>
      <trkpt lat="38.822133" lon="-5.796250">
        <ele>962.0</ele>
        <time>2019-05-04T15:29:28Z</time>
      </trkpt>
      <trkpt lat="38.822033" lon="-5.796233">
        <ele>964.0</ele>
        <time>2019-05-04T15:29:29Z</time>
      </trkpt>
      <trkpt lat="38.821933" lon="-5.796267">
        <ele>965.0</ele>
        <time>2019-05-04T15:29:30Z</time>
      </trkpt>
      <trkpt lat="38.821850" lon="-5.796333">
        <ele>965.0</ele>
        <time>2019-05-04T15:29:31Z</time>
      </trkpt>
      <trkpt lat="38.821783" lon="-5.796417">
        <ele>967.0</ele>
        <time>2019-05-04T15:29:32Z</time>
      </trkpt>
      <trkpt lat="38.821733" lon="-5.796500">
        <ele>969.0</ele>
        <time>2019-05-04T15:29:33Z</time>
      </trkpt>
      <trkpt lat="38.821683" lon="-5.796600">
        <ele>971.0</ele>
        <time>2019-05-04T15:29:34Z</time>
      </trkpt>
      <trkpt lat="38.821667" lon="-5.796683">
        <ele>972.0</ele>
        <time>2019-05-04T15:29:35Z</time>
      </trkpt>
      <trkpt lat="38.821650" lon="-5.796767">
        <ele>973.0</ele>
        <time>2019-05-04T15:29:36Z</time>
      </trkpt>
      <trkpt lat="38.821683" lon="-5.796833">
        <ele>976.0</ele>
        <time>2019-05-04T15:29:37Z</time>
      </trkpt>
      <trkpt lat="38.821717" lon="-5.796850">
        <ele>976.0</ele>
        <time>2019-05-04T15:29:38Z</time>
      </trkpt>
      <trkpt lat="38.821767" lon="-5.796833">
        <ele>975.0</ele>
        <time>2019-05-04T15:29:39Z</time>
      </trkpt>
      <trkpt lat="38.821800" lon="-5.796783">
        <ele>976.0</ele>
        <time>2019-05-04T15:29:40Z</time>
      </trkpt>
      <trkpt lat="38.821817" lon="-5.796733">
        <ele>978.0</ele>
        <time>2019-05-04T15:29:41Z</time>
      </trkpt>
      <trkpt lat="38.821817" lon="-5.796667">
        <ele>979.0</ele>
        <time>2019-05-04T15:29:42Z</time>
      </trkpt>
      <trkpt lat="38.821800" lon="-5.796583">
        <ele>979.0</ele>
        <time>2019-05-04T15:29:43Z</time>
      </trkpt>
      <trkpt lat="38.821750" lon="-5.796483">
        <ele>980.0</ele>
        <time>2019-05-04T15:29:44Z</time>
      </trkpt>
      <trkpt lat="38.821700" lon="-5.796383">
        <ele>981.0</ele>
        <time>2019-05-04T15:29:45Z</time>
      </trkpt>
      <trkpt lat="38.821633" lon="-5.796300">
        <ele>980.0</ele>
        <time>2019-05-04T15:29:46Z</time>
      </trkpt>
      <trkpt lat="38.821517" lon="-5.796233">
        <ele>979.0</ele>
        <time>2019-05-04T15:29:47Z</time>
      </trkpt>
      <trkpt lat="38.821400" lon="-5.796233">
        <ele>979.0</ele>
        <time>2019-05-04T15:29:48Z</time>
      </trkpt>
      <trkpt lat="38.821283" lon="-5.796267">
        <ele>979.0</ele>
        <time>2019-05-04T15:29:49Z</time>
      </trkpt>
      <trkpt lat="38.821183" lon="-5.796333">
        <ele>980.0</ele>
        <time>2019-05-04T15:29:50Z</time>
      </trkpt>
      <trkpt lat="38.821100" lon="-5.796383">
        <ele>981.0</ele>
        <time>2019-05-04T15:29:51Z</time>
      </trkpt>
      <trkpt lat="38.821017" lon="-5.796450">
        <ele>983.0</ele>
        <time>2019-05-04T15:29:52Z</time>
      </trkpt>
      <trkpt lat="38.820917" lon="-5.796500">
        <ele>984.0</ele>
        <time>2019-05-04T15:29:53Z</time>
      </trkpt>
      <trkpt lat="38.820833" lon="-5.796567">
        <ele>984.0</ele>
        <time>2019-05-04T15:29:54Z</time>
      </trkpt>
      <trkpt lat="38.820767" lon="-5.796683">
        <ele>985.0</ele>
        <time>2019-05-04T15:29:55Z</time>
      </trkpt>
      <trkpt lat="38.820750" lon="-5.796800">
        <ele>985.0</ele>
        <time>2019-05-04T15:29:56Z</time>
      </trkpt>
      <trkpt lat="38.820767" lon="-5.796883">
        <ele>985.0</ele>
        <time>2019-05-04T15:29:57Z</time>
      </trkpt>
      <trkpt lat="38.820817" lon="-5.796917">
        <ele>985.0</ele>
        <time>2019-05-04T15:29:58Z</time>
      </trkpt>
      <trkpt lat="38.820867" lon="-5.796900">
        <ele>985.0</ele>
        <time>2019-05-04T15:29:59Z</time>
      </trkpt>
      <trkpt lat="38.820900" lon="-5.796850">
        <ele>984.0</ele>
        <time>2019-05-04T15:30:00Z</time>
      </trkpt>
      <trkpt lat="38.820933" lon="-5.796800">
        <ele>984.0</ele>
        <time>2019-05-04T15:30:01Z</time>
      </trkpt>
      <trkpt lat="38.820950" lon="-5.796717">
        <ele>984.0</ele>
        <time>2019-05-04T15:30:02Z</time>
      </trkpt>
      <trkpt lat="38.820950" lon="-5.796617">
        <ele>984.0</ele>
        <time>2019-05-04T15:30:03Z</time>
      </trkpt>
      <trkpt lat="38.820917" lon="-5.796500">
        <ele>984.0</ele>
        <time>2019-05-04T15:30:04Z</time>
      </trkpt>
      <trkpt lat="38.820850" lon="-5.796417">
        <ele>984.0</ele>
        <time>2019-05-04T15:30:05Z</time>
      </trkpt>
      <trkpt lat="38.820750" lon="-5.796367">
        <ele>984.0</ele>
        <time>2019-05-04T15:30:06Z</time>
      </trkpt>
      <trkpt lat="38.820633" lon="-5.796333">
        <ele>983.0</ele>
        <time>2019-05-04T15:30:07Z</time>
      </trkpt>
      <trkpt lat="38.820533" lon="-5.796333">
        <ele>983.0</ele>
        <time>2019-05-04T15:30:08Z</time>
      </trkpt>
      <trkpt lat="38.820450" lon="-5.796367">
        <ele>984.0</ele>
        <time>2019-05-04T15:30:09Z</time>
      </trkpt>
      <trkpt lat="38.820350" lon="-5.796417">
        <ele>984.0</ele>
        <time>2019-05-04T15:30:10Z</time>
      </trkpt>
      <trkpt lat="38.820283" lon="-5.796500">
        <ele>984.0</ele>
        <time>2019-05-04T15:30:11Z</time>
      </trkpt>
      <trkpt lat="38.820217" lon="-5.796617">
        <ele>984.0</ele>
        <time>2019-05-04T15:30:12Z</time>
      </trkpt>
      <trkpt lat="38.820217" lon="-5.796717">
        <ele>983.0</ele>
        <time>2019-05-04T15:30:13Z</time>
      </trkpt>
      <trkpt lat="38.820233" lon="-5.796783">
        <ele>983.0</ele>
        <time>2019-05-04T15:30:14Z</time>
      </trkpt>
      <trkpt lat="38.820267" lon="-5.796817">
        <ele>983.0</ele>
        <time>2019-05-04T15:30:15Z</time>
      </trkpt>
      <trkpt lat="38.820300" lon="-5.796833">
        <ele>984.0</ele>
        <time>2019-05-04T15:30:16Z</time>
      </trkpt>
      <trkpt lat="38.820317" lon="-5.796867">
        <ele>985.0</ele>
        <time>2019-05-04T15:30:17Z</time>
      </trkpt>
      <trkpt lat="38.820350" lon="-5.796900">
        <ele>985.0</ele>
        <time>2019-05-04T15:30:18Z</time>
      </trkpt>
      <trkpt lat="38.820383" lon="-5.796933">
        <ele>984.0</ele>
        <time>2019-05-04T15:30:19Z</time>
      </trkpt>
      <trkpt lat="38.820417" lon="-5.796967">
        <ele>984.0</ele>
        <time>2019-05-04T15:30:20Z</time>
      </trkpt>
      <trkpt lat="38.820450" lon="-5.797017">
        <ele>984.0</ele>
        <time>2019-05-04T15:30:21Z</time>
      </trkpt>
      <trkpt lat="38.820467" lon="-5.797067">
        <ele>984.0</ele>
        <time>2019-05-04T15:30:22Z</time>
      </trkpt>
      <trkpt lat="38.820483" lon="-5.797133">
        <ele>984.0</ele>
        <time>2019-05-04T15:30:23Z</time>
      </trkpt>
      <trkpt lat="38.820500" lon="-5.797200">
        <ele>983.0</ele>
        <time>2019-05-04T15:30:24Z</time>
      </trkpt>
      <trkpt lat="38.820533" lon="-5.797267">
        <ele>983.0</ele>
        <time>2019-05-04T15:30:25Z</time>
      </trkpt>
      <trkpt lat="38.820567" lon="-5.797333">
        <ele>983.0</ele>
        <time>2019-05-04T15:30:26Z</time>
      </trkpt>
      <trkpt lat="38.820600" lon="-5.797400">
        <ele>983.0</ele>
        <time>2019-05-04T15:30:27Z</time>
      </trkpt>
      <trkpt lat="38.820633" lon="-5.797450">
        <ele>982.0</ele>
        <time>2019-05-04T15:30:28Z</time>
      </trkpt>
      <trkpt lat="38.820667" lon="-5.797500">
        <ele>982.0</ele>
        <time>2019-05-04T15:30:29Z</time>
      </trkpt>
      <trkpt lat="38.820683" lon="-5.797567">
        <ele>981.0</ele>
        <time>2019-05-04T15:30:30Z</time>
      </trkpt>
      <trkpt lat="38.820700" lon="-5.797633">
        <ele>980.0</ele>
        <time>2019-05-04T15:30:31Z</time>
      </trkpt>
      <trkpt lat="38.820700" lon="-5.797700">
        <ele>978.0</ele>
        <time>2019-05-04T15:30:32Z</time>
      </trkpt>
      <trkpt lat="38.820700" lon="-5.797783">
        <ele>977.0</ele>
        <time>2019-05-04T15:30:33Z</time>
      </trkpt>
      <trkpt lat="38.820683" lon="-5.797883">
        <ele>976.0</ele>
        <time>2019-05-04T15:30:34Z</time>
      </trkpt>
      <trkpt lat="38.820617" lon="-5.797983">
        <ele>974.0</ele>
        <time>2019-05-04T15:30:35Z</time>
      </trkpt>
      <trkpt lat="38.820550" lon="-5.798083">
        <ele>972.0</ele>
        <time>2019-05-04T15:30:36Z</time>
      </trkpt>
      <trkpt lat="38.820450" lon="-5.798150">
        <ele>970.0</ele>
        <time>2019-05-04T15:30:37Z</time>
      </trkpt>
      <trkpt lat="38.820333" lon="-5.798183">
        <ele>969.0</ele>
        <time>2019-05-04T15:30:38Z</time>
      </trkpt>
      <trkpt lat="38.820233" lon="-5.798183">
        <ele>969.0</ele>
        <time>2019-05-04T15:30:39Z</time>
      </trkpt>
      <trkpt lat="38.820150" lon="-5.798167">
        <ele>970.0</ele>
        <time>2019-05-04T15:30:40Z</time>
      </trkpt>
      <trkpt lat="38.820050" lon="-5.798150">
        <ele>970.0</ele>
        <time>2019-05-04T15:30:41Z</time>
      </trkpt>
      <trkpt lat="38.819950" lon="-5.798150">
        <ele>969.0</ele>
        <time>2019-05-04T15:30:42Z</time>
      </trkpt>
      <trkpt lat="38.819850" lon="-5.798150">
        <ele>967.0</ele>
        <time>2019-05-04T15:30:43Z</time>
      </trkpt>
      <trkpt lat="38.819733" lon="-5.798150">
        <ele>967.0</ele>
        <time>2019-05-04T15:30:44Z</time>
      </trkpt>
      <trkpt lat="38.819633" lon="-5.798117">
        <ele>967.0</ele>
        <time>2019-05-04T15:30:45Z</time>
      </trkpt>
      <trkpt lat="38.819550" lon="-5.798067">
        <ele>968.0</ele>
        <time>2019-05-04T15:30:46Z</time>
      </trkpt>
      <trkpt lat="38.819467" lon="-5.798017">
        <ele>968.0</ele>
        <time>2019-05-04T15:30:47Z</time>
      </trkpt>
      <trkpt lat="38.819400" lon="-5.797967">
        <ele>967.0</ele>
        <time>2019-05-04T15:30:48Z</time>
      </trkpt>
      <trkpt lat="38.819317" lon="-5.797917">
        <ele>966.0</ele>
        <time>2019-05-04T15:30:49Z</time>
      </trkpt>
      <trkpt lat="38.819233" lon="-5.797867">
        <ele>962.0</ele>
        <time>2019-05-04T15:30:50Z</time>
      </trkpt>
      <trkpt lat="38.819133" lon="-5.797817">
        <ele>960.0</ele>
        <time>2019-05-04T15:30:51Z</time>
      </trkpt>
      <trkpt lat="38.819050" lon="-5.797767">
        <ele>959.0</ele>
        <time>2019-05-04T15:30:52Z</time>
      </trkpt>
      <trkpt lat="38.818967" lon="-5.797733">
        <ele>959.0</ele>
        <time>2019-05-04T15:30:53Z</time>
      </trkpt>
      <trkpt lat="38.818900" lon="-5.797717">
        <ele>958.0</ele>
        <time>2019-05-04T15:30:54Z</time>
      </trkpt>
      <trkpt lat="38.818817" lon="-5.797683">
        <ele>957.0</ele>
        <time>2019-05-04T15:30:55Z</time>
      </trkpt>
      <trkpt lat="38.818733" lon="-5.797667">
        <ele>955.0</ele>
        <time>2019-05-04T15:30:56Z</time>
      </trkpt>
      <trkpt lat="38.818633" lon="-5.797667">
        <ele>953.0</ele>
        <time>2019-05-04T15:30:57Z</time>
      </trkpt>
      <trkpt lat="38.818550" lon="-5.797650">
        <ele>952.0</ele>
        <time>2019-05-04T15:30:58Z</time>
      </trkpt>
      <trkpt lat="38.818450" lon="-5.797633">
        <ele>951.0</ele>
        <time>2019-05-04T15:30:59Z</time>
      </trkpt>
      <trkpt lat="38.818367" lon="-5.797617">
        <ele>949.0</ele>
        <time>2019-05-04T15:31:00Z</time>
      </trkpt>
      <trkpt lat="38.818267" lon="-5.797600">
        <ele>948.0</ele>
        <time>2019-05-04T15:31:01Z</time>
      </trkpt>
      <trkpt lat="38.818167" lon="-5.797617">
        <ele>945.0</ele>
        <time>2019-05-04T15:31:02Z</time>
      </trkpt>
      <trkpt lat="38.818050" lon="-5.797617">
        <ele>943.0</ele>
        <time>2019-05-04T15:31:03Z</time>
      </trkpt>
      <trkpt lat="38.817933" lon="-5.797600">
        <ele>942.0</ele>
        <time>2019-05-04T15:31:04Z</time>
      </trkpt>
      <trkpt lat="38.817833" lon="-5.797567">
        <ele>941.0</ele>
        <time>2019-05-04T15:31:05Z</time>
      </trkpt>
      <trkpt lat="38.817750" lon="-5.797550">
        <ele>940.0</ele>
        <time>2019-05-04T15:31:06Z</time>
      </trkpt>
      <trkpt lat="38.817667" lon="-5.797533">
        <ele>940.0</ele>
        <time>2019-05-04T15:31:07Z</time>
      </trkpt>
      <trkpt lat="38.817583" lon="-5.797517">
        <ele>939.0</ele>
        <time>2019-05-04T15:31:08Z</time>
      </trkpt>
      <trkpt lat="38.817500" lon="-5.797517">
        <ele>938.0</ele>
        <time>2019-05-04T15:31:09Z</time>
      </trkpt>
      <trkpt lat="38.817417" lon="-5.797517">
        <ele>936.0</ele>
        <time>2019-05-04T15:31:10Z</time>
      </trkpt>
      <trkpt lat="38.817300" lon="-5.797517">
        <ele>933.0</ele>
        <time>2019-05-04T15:31:11Z</time>
      </trkpt>
      <trkpt lat="38.817200" lon="-5.797533">
        <ele>930.0</ele>
        <time>2019-05-04T15:31:12Z</time>
      </trkpt>
      <trkpt lat="38.817117" lon="-5.797533">
        <ele>929.0</ele>
        <time>2019-05-04T15:31:13Z</time>
      </trkpt>
      <trkpt lat="38.817017" lon="-5.797533">
        <ele>927.0</ele>
        <time>2019-05-04T15:31:14Z</time>
      </trkpt>
      <trkpt lat="38.816917" lon="-5.797517">
        <ele>926.0</ele>
        <time>2019-05-04T15:31:15Z</time>
      </trkpt>
      <trkpt lat="38.816817" lon="-5.797517">
        <ele>925.0</ele>
        <time>2019-05-04T15:31:16Z</time>
      </trkpt>
      <trkpt lat="38.816717" lon="-5.797533">
        <ele>923.0</ele>
        <time>2019-05-04T15:31:17Z</time>
      </trkpt>
      <trkpt lat="38.816600" lon="-5.797533">
        <ele>920.0</ele>
        <time>2019-05-04T15:31:18Z</time>
      </trkpt>
      <trkpt lat="38.816500" lon="-5.797533">
        <ele>918.0</ele>
        <time>2019-05-04T15:31:19Z</time>
      </trkpt>
      <trkpt lat="38.816383" lon="-5.797533">
        <ele>917.0</ele>
        <time>2019-05-04T15:31:20Z</time>
      </trkpt>
      <trkpt lat="38.816283" lon="-5.797517">
        <ele>915.0</ele>
        <time>2019-05-04T15:31:21Z</time>
      </trkpt>
      <trkpt lat="38.816167" lon="-5.797517">
        <ele>912.0</ele>
        <time>2019-05-04T15:31:22Z</time>
      </trkpt>
      <trkpt lat="38.816050" lon="-5.797533">
        <ele>910.0</ele>
        <time>2019-05-04T15:31:23Z</time>
      </trkpt>
      <trkpt lat="38.815950" lon="-5.797550">
        <ele>907.0</ele>
        <time>2019-05-04T15:31:24Z</time>
      </trkpt>
      <trkpt lat="38.815850" lon="-5.797550">
        <ele>905.0</ele>
        <time>2019-05-04T15:31:25Z</time>
      </trkpt>
      <trkpt lat="38.815750" lon="-5.797550">
        <ele>903.0</ele>
        <time>2019-05-04T15:31:26Z</time>
      </trkpt>
      <trkpt lat="38.815650" lon="-5.797567">
        <ele>900.0</ele>
        <time>2019-05-04T15:31:27Z</time>
      </trkpt>
      <trkpt lat="38.815533" lon="-5.797567">
        <ele>897.0</ele>
        <time>2019-05-04T15:31:28Z</time>
      </trkpt>
      <trkpt lat="38.815417" lon="-5.797583">
        <ele>894.0</ele>
        <time>2019-05-04T15:31:29Z</time>
      </trkpt>
      <trkpt lat="38.815300" lon="-5.797600">
        <ele>892.0</ele>
        <time>2019-05-04T15:31:30Z</time>
      </trkpt>
      <trkpt lat="38.815183" lon="-5.797617">
        <ele>890.0</ele>
        <time>2019-05-04T15:31:31Z</time>
      </trkpt>
      <trkpt lat="38.815067" lon="-5.797600">
        <ele>889.0</ele>
        <time>2019-05-04T15:31:32Z</time>
      </trkpt>
      <trkpt lat="38.814950" lon="-5.797617">
        <ele>887.0</ele>
        <time>2019-05-04T15:31:33Z</time>
      </trkpt>
      <trkpt lat="38.814850" lon="-5.797617">
        <ele>885.0</ele>
        <time>2019-05-04T15:31:34Z</time>
      </trkpt>
      <trkpt lat="38.814733" lon="-5.797633">
        <ele>882.0</ele>
        <time>2019-05-04T15:31:35Z</time>
      </trkpt>
      <trkpt lat="38.814617" lon="-5.797667">
        <ele>879.0</ele>
        <time>2019-05-04T15:31:36Z</time>
      </trkpt>
      <trkpt lat="38.814500" lon="-5.797700">
        <ele>877.0</ele>
        <time>2019-05-04T15:31:37Z</time>
      </trkpt>
      <trkpt lat="38.814383" lon="-5.797717">
        <ele>875.0</ele>
        <time>2019-05-04T15:31:38Z</time>
      </trkpt>
      <trkpt lat="38.814283" lon="-5.797733">
        <ele>874.0</ele>
        <time>2019-05-04T15:31:39Z</time>
      </trkpt>
      <trkpt lat="38.814183" lon="-5.797767">
        <ele>872.0</ele>
        <time>2019-05-04T15:31:40Z</time>
      </trkpt>
      <trkpt lat="38.814083" lon="-5.797783">
        <ele>871.0</ele>
        <time>2019-05-04T15:31:41Z</time>
      </trkpt>
      <trkpt lat="38.813967" lon="-5.797800">
        <ele>868.0</ele>
        <time>2019-05-04T15:31:42Z</time>
      </trkpt>
      <trkpt lat="38.813867" lon="-5.797817">
        <ele>865.0</ele>
        <time>2019-05-04T15:31:43Z</time>
      </trkpt>
      <trkpt lat="38.813767" lon="-5.797833">
        <ele>862.0</ele>
        <time>2019-05-04T15:31:44Z</time>
      </trkpt>
      <trkpt lat="38.813650" lon="-5.797867">
        <ele>860.0</ele>
        <time>2019-05-04T15:31:45Z</time>
      </trkpt>
      <trkpt lat="38.813567" lon="-5.797883">
        <ele>858.0</ele>
        <time>2019-05-04T15:31:46Z</time>
      </trkpt>
      <trkpt lat="38.813467" lon="-5.797917">
        <ele>856.0</ele>
        <time>2019-05-04T15:31:47Z</time>
      </trkpt>
      <trkpt lat="38.813367" lon="-5.797950">
        <ele>854.0</ele>
        <time>2019-05-04T15:31:48Z</time>
      </trkpt>
      <trkpt lat="38.813267" lon="-5.797967">
        <ele>852.0</ele>
        <time>2019-05-04T15:31:49Z</time>
      </trkpt>
      <trkpt lat="38.813167" lon="-5.798000">
        <ele>851.0</ele>
        <time>2019-05-04T15:31:50Z</time>
      </trkpt>
      <trkpt lat="38.813083" lon="-5.798017">
        <ele>849.0</ele>
        <time>2019-05-04T15:31:51Z</time>
      </trkpt>
      <trkpt lat="38.812983" lon="-5.798050">
        <ele>847.0</ele>
        <time>2019-05-04T15:31:52Z</time>
      </trkpt>
      <trkpt lat="38.812900" lon="-5.798067">
        <ele>845.0</ele>
        <time>2019-05-04T15:31:53Z</time>
      </trkpt>
      <trkpt lat="38.812800" lon="-5.798083">
        <ele>844.0</ele>
        <time>2019-05-04T15:31:54Z</time>
      </trkpt>
      <trkpt lat="38.812683" lon="-5.798100">
        <ele>842.0</ele>
        <time>2019-05-04T15:31:55Z</time>
      </trkpt>
      <trkpt lat="38.812583" lon="-5.798100">
        <ele>840.0</ele>
        <time>2019-05-04T15:31:56Z</time>
      </trkpt>
      <trkpt lat="38.812450" lon="-5.798117">
        <ele>837.0</ele>
        <time>2019-05-04T15:31:57Z</time>
      </trkpt>
      <trkpt lat="38.812317" lon="-5.798133">
        <ele>834.0</ele>
        <time>2019-05-04T15:31:58Z</time>
      </trkpt>
      <trkpt lat="38.812183" lon="-5.798150">
        <ele>832.0</ele>
        <time>2019-05-04T15:31:59Z</time>
      </trkpt>
      <trkpt lat="38.812067" lon="-5.798167">
        <ele>831.0</ele>
        <time>2019-05-04T15:32:00Z</time>
      </trkpt>
      <trkpt lat="38.811950" lon="-5.798183">
        <ele>831.0</ele>
        <time>2019-05-04T15:32:01Z</time>
      </trkpt>
      <trkpt lat="38.811833" lon="-5.798183">
        <ele>831.0</ele>
        <time>2019-05-04T15:32:02Z</time>
      </trkpt>
      <trkpt lat="38.811733" lon="-5.798183">
        <ele>831.0</ele>
        <time>2019-05-04T15:32:03Z</time>
      </trkpt>
      <trkpt lat="38.811650" lon="-5.798200">
        <ele>830.0</ele>
        <time>2019-05-04T15:32:04Z</time>
      </trkpt>
      <trkpt lat="38.811550" lon="-5.798217">
        <ele>828.0</ele>
        <time>2019-05-04T15:32:05Z</time>
      </trkpt>
      <trkpt lat="38.811450" lon="-5.798250">
        <ele>826.0</ele>
        <time>2019-05-04T15:32:06Z</time>
      </trkpt>
      <trkpt lat="38.811350" lon="-5.798267">
        <ele>825.0</ele>
        <time>2019-05-04T15:32:07Z</time>
      </trkpt>
      <trkpt lat="38.811267" lon="-5.798300">
        <ele>824.0</ele>
        <time>2019-05-04T15:32:08Z</time>
      </trkpt>
      <trkpt lat="38.811167" lon="-5.798317">
        <ele>823.0</ele>
        <time>2019-05-04T15:32:09Z</time>
      </trkpt>
      <trkpt lat="38.811083" lon="-5.798333">
        <ele>822.0</ele>
        <time>2019-05-04T15:32:10Z</time>
      </trkpt>
      <trkpt lat="38.811000" lon="-5.798383">
        <ele>820.0</ele>
        <time>2019-05-04T15:32:11Z</time>
      </trkpt>
      <trkpt lat="38.810917" lon="-5.798433">
        <ele>817.0</ele>
        <time>2019-05-04T15:32:12Z</time>
      </trkpt>
      <trkpt lat="38.810833" lon="-5.798483">
        <ele>815.0</ele>
        <time>2019-05-04T15:32:13Z</time>
      </trkpt>
      <trkpt lat="38.810750" lon="-5.798550">
        <ele>813.0</ele>
        <time>2019-05-04T15:32:14Z</time>
      </trkpt>
      <trkpt lat="38.810667" lon="-5.798583">
        <ele>811.0</ele>
        <time>2019-05-04T15:32:15Z</time>
      </trkpt>
      <trkpt lat="38.810567" lon="-5.798617">
        <ele>809.0</ele>
        <time>2019-05-04T15:32:16Z</time>
      </trkpt>
      <trkpt lat="38.810467" lon="-5.798667">
        <ele>807.0</ele>
        <time>2019-05-04T15:32:17Z</time>
      </trkpt>
      <trkpt lat="38.810367" lon="-5.798683">
        <ele>806.0</ele>
        <time>2019-05-04T15:32:18Z</time>
      </trkpt>
      <trkpt lat="38.810283" lon="-5.798700">
        <ele>805.0</ele>
        <time>2019-05-04T15:32:19Z</time>
      </trkpt>
      <trkpt lat="38.810200" lon="-5.798717">
        <ele>804.0</ele>
        <time>2019-05-04T15:32:20Z</time>
      </trkpt>
      <trkpt lat="38.810100" lon="-5.798733">
        <ele>802.0</ele>
        <time>2019-05-04T15:32:21Z</time>
      </trkpt>
      <trkpt lat="38.810000" lon="-5.798733">
        <ele>801.0</ele>
        <time>2019-05-04T15:32:22Z</time>
      </trkpt>
      <trkpt lat="38.809900" lon="-5.798733">
        <ele>799.0</ele>
        <time>2019-05-04T15:32:23Z</time>
      </trkpt>
      <trkpt lat="38.809800" lon="-5.798733">
        <ele>799.0</ele>
        <time>2019-05-04T15:32:24Z</time>
      </trkpt>
      <trkpt lat="38.809700" lon="-5.798733">
        <ele>798.0</ele>
        <time>2019-05-04T15:32:25Z</time>
      </trkpt>
      <trkpt lat="38.809583" lon="-5.798717">
        <ele>797.0</ele>
        <time>2019-05-04T15:32:26Z</time>
      </trkpt>
      <trkpt lat="38.809467" lon="-5.798700">
        <ele>797.0</ele>
        <time>2019-05-04T15:32:27Z</time>
      </trkpt>
      <trkpt lat="38.809350" lon="-5.798667">
        <ele>797.0</ele>
        <time>2019-05-04T15:32:28Z</time>
      </trkpt>
      <trkpt lat="38.809250" lon="-5.798650">
        <ele>798.0</ele>
        <time>2019-05-04T15:32:29Z</time>
      </trkpt>
      <trkpt lat="38.809150" lon="-5.798633">
        <ele>798.0</ele>
        <time>2019-05-04T15:32:30Z</time>
      </trkpt>
      <trkpt lat="38.809050" lon="-5.798617">
        <ele>799.0</ele>
        <time>2019-05-04T15:32:31Z</time>
      </trkpt>
      <trkpt lat="38.808950" lon="-5.798583">
        <ele>800.0</ele>
        <time>2019-05-04T15:32:32Z</time>
      </trkpt>
      <trkpt lat="38.808833" lon="-5.798567">
        <ele>799.0</ele>
        <time>2019-05-04T15:32:33Z</time>
      </trkpt>
      <trkpt lat="38.808733" lon="-5.798567">
        <ele>798.0</ele>
        <time>2019-05-04T15:32:34Z</time>
      </trkpt>
      <trkpt lat="38.808617" lon="-5.798550">
        <ele>798.0</ele>
        <time>2019-05-04T15:32:35Z</time>
      </trkpt>
      <trkpt lat="38.808500" lon="-5.798533">
        <ele>798.0</ele>
        <time>2019-05-04T15:32:36Z</time>
      </trkpt>
      <trkpt lat="38.808400" lon="-5.798500">
        <ele>799.0</ele>
        <time>2019-05-04T15:32:37Z</time>
      </trkpt>
      <trkpt lat="38.808300" lon="-5.798483">
        <ele>800.0</ele>
        <time>2019-05-04T15:32:38Z</time>
      </trkpt>
      <trkpt lat="38.808183" lon="-5.798433">
        <ele>801.0</ele>
        <time>2019-05-04T15:32:39Z</time>
      </trkpt>
      <trkpt lat="38.808083" lon="-5.798383">
        <ele>803.0</ele>
        <time>2019-05-04T15:32:40Z</time>
      </trkpt>
      <trkpt lat="38.807983" lon="-5.798333">
        <ele>806.0</ele>
        <time>2019-05-04T15:32:41Z</time>
      </trkpt>
      <trkpt lat="38.807867" lon="-5.798283">
        <ele>809.0</ele>
        <time>2019-05-04T15:32:42Z</time>
      </trkpt>
      <trkpt lat="38.807750" lon="-5.798250">
        <ele>810.0</ele>
        <time>2019-05-04T15:32:43Z</time>
      </trkpt>
      <trkpt lat="38.807650" lon="-5.798267">
        <ele>811.0</ele>
        <time>2019-05-04T15:32:44Z</time>
      </trkpt>
      <trkpt lat="38.807550" lon="-5.798300">
        <ele>813.0</ele>
        <time>2019-05-04T15:32:45Z</time>
      </trkpt>
      <trkpt lat="38.807483" lon="-5.798383">
        <ele>814.0</ele>
        <time>2019-05-04T15:32:46Z</time>
      </trkpt>
      <trkpt lat="38.807450" lon="-5.798483">
        <ele>815.0</ele>
        <time>2019-05-04T15:32:47Z</time>
      </trkpt>
      <trkpt lat="38.807433" lon="-5.798583">
        <ele>817.0</ele>
        <time>2019-05-04T15:32:48Z</time>
      </trkpt>
      <trkpt lat="38.807467" lon="-5.798667">
        <ele>818.0</ele>
        <time>2019-05-04T15:32:49Z</time>
      </trkpt>
      <trkpt lat="38.807517" lon="-5.798700">
        <ele>819.0</ele>
        <time>2019-05-04T15:32:50Z</time>
      </trkpt>
      <trkpt lat="38.807567" lon="-5.798683">
        <ele>820.0</ele>
        <time>2019-05-04T15:32:51Z</time>
      </trkpt>
      <trkpt lat="38.807617" lon="-5.798617">
        <ele>820.0</ele>
        <time>2019-05-04T15:32:52Z</time>
      </trkpt>
      <trkpt lat="38.807633" lon="-5.798517">
        <ele>821.0</ele>
        <time>2019-05-04T15:32:53Z</time>
      </trkpt>
      <trkpt lat="38.807617" lon="-5.798400">
        <ele>823.0</ele>
        <time>2019-05-04T15:32:54Z</time>
      </trkpt>
      <trkpt lat="38.807550" lon="-5.798283">
        <ele>824.0</ele>
        <time>2019-05-04T15:32:55Z</time>
      </trkpt>
      <trkpt lat="38.807467" lon="-5.798200">
        <ele>826.0</ele>
        <time>2019-05-04T15:32:56Z</time>
      </trkpt>
      <trkpt lat="38.807367" lon="-5.798167">
        <ele>827.0</ele>
        <time>2019-05-04T15:32:57Z</time>
      </trkpt>
      <trkpt lat="38.807267" lon="-5.798183">
        <ele>828.0</ele>
        <time>2019-05-04T15:32:58Z</time>
      </trkpt>
      <trkpt lat="38.807167" lon="-5.798233">
        <ele>830.0</ele>
        <time>2019-05-04T15:32:59Z</time>
      </trkpt>
      <trkpt lat="38.807083" lon="-5.798317">
        <ele>831.0</ele>
        <time>2019-05-04T15:33:00Z</time>
      </trkpt>
      <trkpt lat="38.807033" lon="-5.798417">
        <ele>833.0</ele>
        <time>2019-05-04T15:33:01Z</time>
      </trkpt>
      <trkpt lat="38.807033" lon="-5.798517">
        <ele>835.0</ele>
        <time>2019-05-04T15:33:02Z</time>
      </trkpt>
      <trkpt lat="38.807050" lon="-5.798600">
        <ele>836.0</ele>
        <time>2019-05-04T15:33:03Z</time>
      </trkpt>
      <trkpt lat="38.807100" lon="-5.798667">
        <ele>838.0</ele>
        <time>2019-05-04T15:33:04Z</time>
      </trkpt>
      <trkpt lat="38.807133" lon="-5.798683">
        <ele>840.0</ele>
        <time>2019-05-04T15:33:05Z</time>
      </trkpt>
      <trkpt lat="38.807183" lon="-5.798683">
        <ele>842.0</ele>
        <time>2019-05-04T15:33:06Z</time>
      </trkpt>
      <trkpt lat="38.807217" lon="-5.798633">
        <ele>844.0</ele>
        <time>2019-05-04T15:33:07Z</time>
      </trkpt>
      <trkpt lat="38.807250" lon="-5.798567">
        <ele>845.0</ele>
        <time>2019-05-04T15:33:08Z</time>
      </trkpt>
      <trkpt lat="38.807250" lon="-5.798467">
        <ele>846.0</ele>
        <time>2019-05-04T15:33:09Z</time>
      </trkpt>
      <trkpt lat="38.807250" lon="-5.798350">
        <ele>847.0</ele>
        <time>2019-05-04T15:33:10Z</time>
      </trkpt>
      <trkpt lat="38.807200" lon="-5.798233">
        <ele>847.0</ele>
        <time>2019-05-04T15:33:11Z</time>
      </trkpt>
      <trkpt lat="38.807100" lon="-5.798167">
        <ele>849.0</ele>
        <time>2019-05-04T15:33:12Z</time>
      </trkpt>
      <trkpt lat="38.807000" lon="-5.798133">
        <ele>850.0</ele>
        <time>2019-05-04T15:33:13Z</time>
      </trkpt>
      <trkpt lat="38.806883" lon="-5.798167">
        <ele>852.0</ele>
        <time>2019-05-04T15:33:14Z</time>
      </trkpt>
      <trkpt lat="38.806800" lon="-5.798250">
        <ele>852.0</ele>
        <time>2019-05-04T15:33:15Z</time>
      </trkpt>
      <trkpt lat="38.806733" lon="-5.798333">
        <ele>854.0</ele>
        <time>2019-05-04T15:33:16Z</time>
      </trkpt>
      <trkpt lat="38.806700" lon="-5.798433">
        <ele>856.0</ele>
        <time>2019-05-04T15:33:17Z</time>
      </trkpt>
      <trkpt lat="38.806683" lon="-5.798517">
        <ele>858.0</ele>
        <time>2019-05-04T15:33:18Z</time>
      </trkpt>
      <trkpt lat="38.806700" lon="-5.798600">
        <ele>860.0</ele>
        <time>2019-05-04T15:33:19Z</time>
      </trkpt>
      <trkpt lat="38.806750" lon="-5.798650">
        <ele>862.0</ele>
        <time>2019-05-04T15:33:20Z</time>
      </trkpt>
      <trkpt lat="38.806783" lon="-5.798683">
        <ele>864.0</ele>
        <time>2019-05-04T15:33:21Z</time>
      </trkpt>
      <trkpt lat="38.806833" lon="-5.798650">
        <ele>866.0</ele>
        <time>2019-05-04T15:33:22Z</time>
      </trkpt>
      <trkpt lat="38.806850" lon="-5.798600">
        <ele>867.0</ele>
        <time>2019-05-04T15:33:23Z</time>
      </trkpt>
      <trkpt lat="38.806850" lon="-5.798500">
        <ele>868.0</ele>
        <time>2019-05-04T15:33:24Z</time>
      </trkpt>
      <trkpt lat="38.806833" lon="-5.798383">
        <ele>870.0</ele>
        <time>2019-05-04T15:33:25Z</time>
      </trkpt>
      <trkpt lat="38.806800" lon="-5.798267">
        <ele>871.0</ele>
        <time>2019-05-04T15:33:26Z</time>
      </trkpt>
      <trkpt lat="38.806733" lon="-5.798167">
        <ele>872.0</ele>
        <time>2019-05-04T15:33:27Z</time>
      </trkpt>
      <trkpt lat="38.806617" lon="-5.798100">
        <ele>872.0</ele>
        <time>2019-05-04T15:33:28Z</time>
      </trkpt>
      <trkpt lat="38.806517" lon="-5.798067">
        <ele>873.0</ele>
        <time>2019-05-04T15:33:29Z</time>
      </trkpt>
      <trkpt lat="38.806417" lon="-5.798050">
        <ele>874.0</ele>
        <time>2019-05-04T15:33:30Z</time>
      </trkpt>
      <trkpt lat="38.806317" lon="-5.798067">
        <ele>876.0</ele>
        <time>2019-05-04T15:33:31Z</time>
      </trkpt>
      <trkpt lat="38.806233" lon="-5.798083">
        <ele>878.0</ele>
        <time>2019-05-04T15:33:32Z</time>
      </trkpt>
      <trkpt lat="38.806133" lon="-5.798117">
        <ele>880.0</ele>
        <time>2019-05-04T15:33:33Z</time>
      </trkpt>
      <trkpt lat="38.806067" lon="-5.798167">
        <ele>882.0</ele>
        <time>2019-05-04T15:33:34Z</time>
      </trkpt>
      <trkpt lat="38.806000" lon="-5.798267">
        <ele>882.0</ele>
        <time>2019-05-04T15:33:35Z</time>
      </trkpt>
      <trkpt lat="38.805967" lon="-5.798383">
        <ele>883.0</ele>
        <time>2019-05-04T15:33:36Z</time>
      </trkpt>
      <trkpt lat="38.805967" lon="-5.798500">
        <ele>884.0</ele>
        <time>2019-05-04T15:33:37Z</time>
      </trkpt>
      <trkpt lat="38.806000" lon="-5.798583">
        <ele>886.0</ele>
        <time>2019-05-04T15:33:38Z</time>
      </trkpt>
      <trkpt lat="38.806033" lon="-5.798633">
        <ele>888.0</ele>
        <time>2019-05-04T15:33:39Z</time>
      </trkpt>
      <trkpt lat="38.806083" lon="-5.798633">
        <ele>890.0</ele>
        <time>2019-05-04T15:33:40Z</time>
      </trkpt>
      <trkpt lat="38.806117" lon="-5.798583">
        <ele>891.0</ele>
        <time>2019-05-04T15:33:41Z</time>
      </trkpt>
      <trkpt lat="38.806133" lon="-5.798517">
        <ele>892.0</ele>
        <time>2019-05-04T15:33:42Z</time>
      </trkpt>
      <trkpt lat="38.806150" lon="-5.798417">
        <ele>893.0</ele>
        <time>2019-05-04T15:33:43Z</time>
      </trkpt>
      <trkpt lat="38.806133" lon="-5.798317">
        <ele>889.0</ele>
        <time>2019-05-04T15:33:44Z</time>
      </trkpt>
      <trkpt lat="38.806067" lon="-5.798217">
        <ele>890.0</ele>
        <time>2019-05-04T15:33:45Z</time>
      </trkpt>
      <trkpt lat="38.805983" lon="-5.798117">
        <ele>890.0</ele>
        <time>2019-05-04T15:33:46Z</time>
      </trkpt>
      <trkpt lat="38.805883" lon="-5.798050">
        <ele>890.0</ele>
        <time>2019-05-04T15:33:47Z</time>
      </trkpt>
      <trkpt lat="38.805767" lon="-5.798017">
        <ele>891.0</ele>
        <time>2019-05-04T15:33:48Z</time>
      </trkpt>
      <trkpt lat="38.805667" lon="-5.798000">
        <ele>892.0</ele>
        <time>2019-05-04T15:33:49Z</time>
      </trkpt>
      <trkpt lat="38.805567" lon="-5.798050">
        <ele>894.0</ele>
        <time>2019-05-04T15:33:50Z</time>
      </trkpt>
      <trkpt lat="38.805467" lon="-5.798117">
        <ele>896.0</ele>
        <time>2019-05-04T15:33:51Z</time>
      </trkpt>
      <trkpt lat="38.805417" lon="-5.798200">
        <ele>898.0</ele>
        <time>2019-05-04T15:33:52Z</time>
      </trkpt>
      <trkpt lat="38.805367" lon="-5.798283">
        <ele>900.0</ele>
        <time>2019-05-04T15:33:53Z</time>
      </trkpt>
      <trkpt lat="38.805300" lon="-5.798367">
        <ele>902.0</ele>
        <time>2019-05-04T15:33:54Z</time>
      </trkpt>
      <trkpt lat="38.805250" lon="-5.798450">
        <ele>904.0</ele>
        <time>2019-05-04T15:33:55Z</time>
      </trkpt>
      <trkpt lat="38.805217" lon="-5.798550">
        <ele>907.0</ele>
        <time>2019-05-04T15:33:56Z</time>
      </trkpt>
      <trkpt lat="38.805233" lon="-5.798633">
        <ele>909.0</ele>
        <time>2019-05-04T15:33:57Z</time>
      </trkpt>
      <trkpt lat="38.805267" lon="-5.798650">
        <ele>910.0</ele>
        <time>2019-05-04T15:33:58Z</time>
      </trkpt>
      <trkpt lat="38.805333" lon="-5.798617">
        <ele>910.0</ele>
        <time>2019-05-04T15:33:59Z</time>
      </trkpt>
      <trkpt lat="38.805367" lon="-5.798517">
        <ele>908.0</ele>
        <time>2019-05-04T15:34:00Z</time>
      </trkpt>
      <trkpt lat="38.805350" lon="-5.798400">
        <ele>908.0</ele>
        <time>2019-05-04T15:34:01Z</time>
      </trkpt>
      <trkpt lat="38.805300" lon="-5.798267">
        <ele>909.0</ele>
        <time>2019-05-04T15:34:02Z</time>
      </trkpt>
      <trkpt lat="38.805200" lon="-5.798183">
        <ele>910.0</ele>
        <time>2019-05-04T15:34:03Z</time>
      </trkpt>
      <trkpt lat="38.805083" lon="-5.798133">
        <ele>911.0</ele>
        <time>2019-05-04T15:34:04Z</time>
      </trkpt>
      <trkpt lat="38.804950" lon="-5.798150">
        <ele>912.0</ele>
        <time>2019-05-04T15:34:05Z</time>
      </trkpt>
      <trkpt lat="38.804850" lon="-5.798167">
        <ele>913.0</ele>
        <time>2019-05-04T15:34:06Z</time>
      </trkpt>
      <trkpt lat="38.804750" lon="-5.798217">
        <ele>915.0</ele>
        <time>2019-05-04T15:34:07Z</time>
      </trkpt>
      <trkpt lat="38.804683" lon="-5.798267">
        <ele>919.0</ele>
        <time>2019-05-04T15:34:08Z</time>
      </trkpt>
      <trkpt lat="38.804617" lon="-5.798333">
        <ele>920.0</ele>
        <time>2019-05-04T15:34:09Z</time>
      </trkpt>
      <trkpt lat="38.804550" lon="-5.798400">
        <ele>922.0</ele>
        <time>2019-05-04T15:34:10Z</time>
      </trkpt>
      <trkpt lat="38.804517" lon="-5.798500">
        <ele>923.0</ele>
        <time>2019-05-04T15:34:11Z</time>
      </trkpt>
      <trkpt lat="38.804517" lon="-5.798567">
        <ele>924.0</ele>
        <time>2019-05-04T15:34:12Z</time>
      </trkpt>
      <trkpt lat="38.804550" lon="-5.798617">
        <ele>925.0</ele>
        <time>2019-05-04T15:34:13Z</time>
      </trkpt>
      <trkpt lat="38.804583" lon="-5.798650">
        <ele>925.0</ele>
        <time>2019-05-04T15:34:14Z</time>
      </trkpt>
      <trkpt lat="38.804633" lon="-5.798633">
        <ele>926.0</ele>
        <time>2019-05-04T15:34:15Z</time>
      </trkpt>
      <trkpt lat="38.804667" lon="-5.798600">
        <ele>928.0</ele>
        <time>2019-05-04T15:34:16Z</time>
      </trkpt>
      <trkpt lat="38.804700" lon="-5.798533">
        <ele>929.0</ele>
        <time>2019-05-04T15:34:17Z</time>
      </trkpt>
      <trkpt lat="38.804717" lon="-5.798450">
        <ele>929.0</ele>
        <time>2019-05-04T15:34:18Z</time>
      </trkpt>
      <trkpt lat="38.804717" lon="-5.798317">
        <ele>928.0</ele>
        <time>2019-05-04T15:34:19Z</time>
      </trkpt>
      <trkpt lat="38.804683" lon="-5.798183">
        <ele>928.0</ele>
        <time>2019-05-04T15:34:20Z</time>
      </trkpt>
      <trkpt lat="38.804600" lon="-5.798067">
        <ele>928.0</ele>
        <time>2019-05-04T15:34:21Z</time>
      </trkpt>
      <trkpt lat="38.804500" lon="-5.798000">
        <ele>929.0</ele>
        <time>2019-05-04T15:34:22Z</time>
      </trkpt>
      <trkpt lat="38.804383" lon="-5.797967">
        <ele>929.0</ele>
        <time>2019-05-04T15:34:23Z</time>
      </trkpt>
      <trkpt lat="38.804267" lon="-5.797967">
        <ele>929.0</ele>
        <time>2019-05-04T15:34:24Z</time>
      </trkpt>
      <trkpt lat="38.804183" lon="-5.798017">
        <ele>930.0</ele>
        <time>2019-05-04T15:34:25Z</time>
      </trkpt>
      <trkpt lat="38.804100" lon="-5.798083">
        <ele>930.0</ele>
        <time>2019-05-04T15:34:26Z</time>
      </trkpt>
      <trkpt lat="38.804067" lon="-5.798150">
        <ele>931.0</ele>
        <time>2019-05-04T15:34:27Z</time>
      </trkpt>
      <trkpt lat="38.804050" lon="-5.798233">
        <ele>932.0</ele>
        <time>2019-05-04T15:34:28Z</time>
      </trkpt>
      <trkpt lat="38.804083" lon="-5.798267">
        <ele>934.0</ele>
        <time>2019-05-04T15:34:29Z</time>
      </trkpt>
      <trkpt lat="38.804117" lon="-5.798267">
        <ele>934.0</ele>
        <time>2019-05-04T15:34:30Z</time>
      </trkpt>
      <trkpt lat="38.804167" lon="-5.798217">
        <ele>935.0</ele>
        <time>2019-05-04T15:34:31Z</time>
      </trkpt>
      <trkpt lat="38.804183" lon="-5.798133">
        <ele>935.0</ele>
        <time>2019-05-04T15:34:32Z</time>
      </trkpt>
      <trkpt lat="38.804183" lon="-5.798017">
        <ele>936.0</ele>
        <time>2019-05-04T15:34:33Z</time>
      </trkpt>
      <trkpt lat="38.804167" lon="-5.797900">
        <ele>936.0</ele>
        <time>2019-05-04T15:34:34Z</time>
      </trkpt>
      <trkpt lat="38.804117" lon="-5.797783">
        <ele>937.0</ele>
        <time>2019-05-04T15:34:35Z</time>
      </trkpt>
      <trkpt lat="38.804033" lon="-5.797683">
        <ele>938.0</ele>
        <time>2019-05-04T15:34:36Z</time>
      </trkpt>
      <trkpt lat="38.803933" lon="-5.797600">
        <ele>938.0</ele>
        <time>2019-05-04T15:34:37Z</time>
      </trkpt>
      <trkpt lat="38.803817" lon="-5.797567">
        <ele>939.0</ele>
        <time>2019-05-04T15:34:38Z</time>
      </trkpt>
      <trkpt lat="38.803700" lon="-5.797567">
        <ele>939.0</ele>
        <time>2019-05-04T15:34:39Z</time>
      </trkpt>
      <trkpt lat="38.803583" lon="-5.797600">
        <ele>939.0</ele>
        <time>2019-05-04T15:34:40Z</time>
      </trkpt>
      <trkpt lat="38.803500" lon="-5.797683">
        <ele>939.0</ele>
        <time>2019-05-04T15:34:41Z</time>
      </trkpt>
      <trkpt lat="38.803450" lon="-5.797767">
        <ele>940.0</ele>
        <time>2019-05-04T15:34:42Z</time>
      </trkpt>
      <trkpt lat="38.803433" lon="-5.797850">
        <ele>941.0</ele>
        <time>2019-05-04T15:34:43Z</time>
      </trkpt>
      <trkpt lat="38.803433" lon="-5.797900">
        <ele>942.0</ele>
        <time>2019-05-04T15:34:44Z</time>
      </trkpt>
      <trkpt lat="38.803450" lon="-5.797933">
        <ele>943.0</ele>
        <time>2019-05-04T15:34:45Z</time>
      </trkpt>
      <trkpt lat="38.803483" lon="-5.797933">
        <ele>944.0</ele>
        <time>2019-05-04T15:34:46Z</time>
      </trkpt>
      <trkpt lat="38.803533" lon="-5.797883">
        <ele>945.0</ele>
        <time>2019-05-04T15:34:47Z</time>
      </trkpt>
      <trkpt lat="38.803567" lon="-5.797817">
        <ele>946.0</ele>
        <time>2019-05-04T15:34:48Z</time>
      </trkpt>
      <trkpt lat="38.803583" lon="-5.797717">
        <ele>947.0</ele>
        <time>2019-05-04T15:34:49Z</time>
      </trkpt>
      <trkpt lat="38.803567" lon="-5.797600">
        <ele>946.0</ele>
        <time>2019-05-04T15:34:50Z</time>
      </trkpt>
      <trkpt lat="38.803533" lon="-5.797467">
        <ele>947.0</ele>
        <time>2019-05-04T15:34:51Z</time>
      </trkpt>
      <trkpt lat="38.803467" lon="-5.797367">
        <ele>947.0</ele>
        <time>2019-05-04T15:34:52Z</time>
      </trkpt>
      <trkpt lat="38.803367" lon="-5.797267">
        <ele>948.0</ele>
        <time>2019-05-04T15:34:53Z</time>
      </trkpt>
      <trkpt lat="38.803267" lon="-5.797200">
        <ele>949.0</ele>
        <time>2019-05-04T15:34:54Z</time>
      </trkpt>
      <trkpt lat="38.803150" lon="-5.797167">
        <ele>950.0</ele>
        <time>2019-05-04T15:34:55Z</time>
      </trkpt>
      <trkpt lat="38.803033" lon="-5.797167">
        <ele>951.0</ele>
        <time>2019-05-04T15:34:56Z</time>
      </trkpt>
      <trkpt lat="38.802917" lon="-5.797183">
        <ele>952.0</ele>
        <time>2019-05-04T15:34:57Z</time>
      </trkpt>
      <trkpt lat="38.802817" lon="-5.797233">
        <ele>953.0</ele>
        <time>2019-05-04T15:34:58Z</time>
      </trkpt>
      <trkpt lat="38.802750" lon="-5.797300">
        <ele>954.0</ele>
        <time>2019-05-04T15:34:59Z</time>
      </trkpt>
      <trkpt lat="38.802717" lon="-5.797383">
        <ele>955.0</ele>
        <time>2019-05-04T15:35:00Z</time>
      </trkpt>
      <trkpt lat="38.802717" lon="-5.797433">
        <ele>955.0</ele>
        <time>2019-05-04T15:35:01Z</time>
      </trkpt>
      <trkpt lat="38.802750" lon="-5.797450">
        <ele>955.0</ele>
        <time>2019-05-04T15:35:02Z</time>
      </trkpt>
      <trkpt lat="38.802783" lon="-5.797417">
        <ele>955.0</ele>
        <time>2019-05-04T15:35:03Z</time>
      </trkpt>
      <trkpt lat="38.802817" lon="-5.797317">
        <ele>954.0</ele>
        <time>2019-05-04T15:35:04Z</time>
      </trkpt>
      <trkpt lat="38.802800" lon="-5.797200">
        <ele>953.0</ele>
        <time>2019-05-04T15:35:05Z</time>
      </trkpt>
      <trkpt lat="38.802767" lon="-5.797083">
        <ele>954.0</ele>
        <time>2019-05-04T15:35:06Z</time>
      </trkpt>
      <trkpt lat="38.802700" lon="-5.796967">
        <ele>955.0</ele>
        <time>2019-05-04T15:35:07Z</time>
      </trkpt>
      <trkpt lat="38.802617" lon="-5.796883">
        <ele>956.0</ele>
        <time>2019-05-04T15:35:08Z</time>
      </trkpt>
      <trkpt lat="38.802533" lon="-5.796800">
        <ele>957.0</ele>
        <time>2019-05-04T15:35:09Z</time>
      </trkpt>
      <trkpt lat="38.802433" lon="-5.796750">
        <ele>959.0</ele>
        <time>2019-05-04T15:35:10Z</time>
      </trkpt>
      <trkpt lat="38.802333" lon="-5.796733">
        <ele>960.0</ele>
        <time>2019-05-04T15:35:11Z</time>
      </trkpt>
      <trkpt lat="38.802217" lon="-5.796717">
        <ele>962.0</ele>
        <time>2019-05-04T15:35:12Z</time>
      </trkpt>
      <trkpt lat="38.802117" lon="-5.796733">
        <ele>963.0</ele>
        <time>2019-05-04T15:35:13Z</time>
      </trkpt>
      <trkpt lat="38.802017" lon="-5.796800">
        <ele>964.0</ele>
        <time>2019-05-04T15:35:14Z</time>
      </trkpt>
      <trkpt lat="38.801933" lon="-5.796883">
        <ele>964.0</ele>
        <time>2019-05-04T15:35:15Z</time>
      </trkpt>
      <trkpt lat="38.801900" lon="-5.796983">
        <ele>965.0</ele>
        <time>2019-05-04T15:35:16Z</time>
      </trkpt>
      <trkpt lat="38.801900" lon="-5.797050">
        <ele>967.0</ele>
        <time>2019-05-04T15:35:17Z</time>
      </trkpt>
      <trkpt lat="38.801917" lon="-5.797100">
        <ele>967.0</ele>
        <time>2019-05-04T15:35:18Z</time>
      </trkpt>
      <trkpt lat="38.801967" lon="-5.797083">
        <ele>968.0</ele>
        <time>2019-05-04T15:35:19Z</time>
      </trkpt>
      <trkpt lat="38.802000" lon="-5.797050">
        <ele>968.0</ele>
        <time>2019-05-04T15:35:20Z</time>
      </trkpt>
      <trkpt lat="38.802033" lon="-5.796983">
        <ele>969.0</ele>
        <time>2019-05-04T15:35:21Z</time>
      </trkpt>
      <trkpt lat="38.802033" lon="-5.796900">
        <ele>970.0</ele>
        <time>2019-05-04T15:35:22Z</time>
      </trkpt>
      <trkpt lat="38.802017" lon="-5.796783">
        <ele>969.0</ele>
        <time>2019-05-04T15:35:23Z</time>
      </trkpt>
      <trkpt lat="38.801967" lon="-5.796650">
        <ele>969.0</ele>
        <time>2019-05-04T15:35:24Z</time>
      </trkpt>
      <trkpt lat="38.801900" lon="-5.796550">
        <ele>969.0</ele>
        <time>2019-05-04T15:35:25Z</time>
      </trkpt>
      <trkpt lat="38.801783" lon="-5.796483">
        <ele>969.0</ele>
        <time>2019-05-04T15:35:26Z</time>
      </trkpt>
      <trkpt lat="38.801683" lon="-5.796450">
        <ele>970.0</ele>
        <time>2019-05-04T15:35:27Z</time>
      </trkpt>
      <trkpt lat="38.801583" lon="-5.796467">
        <ele>971.0</ele>
        <time>2019-05-04T15:35:28Z</time>
      </trkpt>
      <trkpt lat="38.801483" lon="-5.796500">
        <ele>972.0</ele>
        <time>2019-05-04T15:35:29Z</time>
      </trkpt>
      <trkpt lat="38.801400" lon="-5.796567">
        <ele>973.0</ele>
        <time>2019-05-04T15:35:30Z</time>
      </trkpt>
      <trkpt lat="38.801350" lon="-5.796650">
        <ele>975.0</ele>
        <time>2019-05-04T15:35:31Z</time>
      </trkpt>
      <trkpt lat="38.801333" lon="-5.796717">
        <ele>977.0</ele>
        <time>2019-05-04T15:35:32Z</time>
      </trkpt>
      <trkpt lat="38.801333" lon="-5.796783">
        <ele>978.0</ele>
        <time>2019-05-04T15:35:33Z</time>
      </trkpt>
      <trkpt lat="38.801350" lon="-5.796817">
        <ele>978.0</ele>
        <time>2019-05-04T15:35:34Z</time>
      </trkpt>
      <trkpt lat="38.801383" lon="-5.796833">
        <ele>977.0</ele>
        <time>2019-05-04T15:35:35Z</time>
      </trkpt>
      <trkpt lat="38.801417" lon="-5.796783">
        <ele>977.0</ele>
        <time>2019-05-04T15:35:36Z</time>
      </trkpt>
      <trkpt lat="38.801450" lon="-5.796700">
        <ele>977.0</ele>
        <time>2019-05-04T15:35:37Z</time>
      </trkpt>
      <trkpt lat="38.801450" lon="-5.796583">
        <ele>977.0</ele>
        <time>2019-05-04T15:35:38Z</time>
      </trkpt>
      <trkpt lat="38.801417" lon="-5.796467">
        <ele>978.0</ele>
        <time>2019-05-04T15:35:39Z</time>
      </trkpt>
      <trkpt lat="38.801367" lon="-5.796350">
        <ele>979.0</ele>
        <time>2019-05-04T15:35:40Z</time>
      </trkpt>
      <trkpt lat="38.801300" lon="-5.796217">
        <ele>979.0</ele>
        <time>2019-05-04T15:35:41Z</time>
      </trkpt>
      <trkpt lat="38.801217" lon="-5.796133">
        <ele>979.0</ele>
        <time>2019-05-04T15:35:42Z</time>
      </trkpt>
      <trkpt lat="38.801100" lon="-5.796067">
        <ele>979.0</ele>
        <time>2019-05-04T15:35:43Z</time>
      </trkpt>
      <trkpt lat="38.800983" lon="-5.796050">
        <ele>979.0</ele>
        <time>2019-05-04T15:35:44Z</time>
      </trkpt>
      <trkpt lat="38.800867" lon="-5.796083">
        <ele>980.0</ele>
        <time>2019-05-04T15:35:45Z</time>
      </trkpt>
      <trkpt lat="38.800783" lon="-5.796133">
        <ele>981.0</ele>
        <time>2019-05-04T15:35:46Z</time>
      </trkpt>
      <trkpt lat="38.800700" lon="-5.796200">
        <ele>984.0</ele>
        <time>2019-05-04T15:35:47Z</time>
      </trkpt>
      <trkpt lat="38.800633" lon="-5.796267">
        <ele>988.0</ele>
        <time>2019-05-04T15:35:48Z</time>
      </trkpt>
      <trkpt lat="38.800600" lon="-5.796333">
        <ele>991.0</ele>
        <time>2019-05-04T15:35:49Z</time>
      </trkpt>
      <trkpt lat="38.800567" lon="-5.796383">
        <ele>993.0</ele>
        <time>2019-05-04T15:35:50Z</time>
      </trkpt>
      <trkpt lat="38.800550" lon="-5.796450">
        <ele>993.0</ele>
        <time>2019-05-04T15:35:51Z</time>
      </trkpt>
      <trkpt lat="38.800550" lon="-5.796483">
        <ele>992.0</ele>
        <time>2019-05-04T15:35:52Z</time>
      </trkpt>
      <trkpt lat="38.800600" lon="-5.796483">
        <ele>991.0</ele>
        <time>2019-05-04T15:35:53Z</time>
      </trkpt>
      <trkpt lat="38.800650" lon="-5.796433">
        <ele>991.0</ele>
        <time>2019-05-04T15:35:54Z</time>
      </trkpt>
      <trkpt lat="38.800667" lon="-5.796350">
        <ele>992.0</ele>
        <time>2019-05-04T15:35:55Z</time>
      </trkpt>
      <trkpt lat="38.800667" lon="-5.796233">
        <ele>991.0</ele>
        <time>2019-05-04T15:35:56Z</time>
      </trkpt>
      <trkpt lat="38.800650" lon="-5.796100">
        <ele>991.0</ele>
        <time>2019-05-04T15:35:57Z</time>
      </trkpt>
      <trkpt lat="38.800600" lon="-5.795967">
        <ele>991.0</ele>
        <time>2019-05-04T15:35:58Z</time>
      </trkpt>
      <trkpt lat="38.800533" lon="-5.795850">
        <ele>991.0</ele>
        <time>2019-05-04T15:35:59Z</time>
      </trkpt>
      <trkpt lat="38.800450" lon="-5.795733">
        <ele>994.0</ele>
        <time>2019-05-04T15:36:00Z</time>
      </trkpt>
      <trkpt lat="38.800367" lon="-5.795633">
        <ele>996.0</ele>
        <time>2019-05-04T15:36:01Z</time>
      </trkpt>
      <trkpt lat="38.800250" lon="-5.795550">
        <ele>998.0</ele>
        <time>2019-05-04T15:36:02Z</time>
      </trkpt>
      <trkpt lat="38.800133" lon="-5.795500">
        <ele>1000.0</ele>
        <time>2019-05-04T15:36:03Z</time>
      </trkpt>
      <trkpt lat="38.800017" lon="-5.795500">
        <ele>1002.0</ele>
        <time>2019-05-04T15:36:04Z</time>
      </trkpt>
      <trkpt lat="38.799900" lon="-5.795517">
        <ele>1004.0</ele>
        <time>2019-05-04T15:36:05Z</time>
      </trkpt>
      <trkpt lat="38.799783" lon="-5.795550">
        <ele>1006.0</ele>
        <time>2019-05-04T15:36:06Z</time>
      </trkpt>
      <trkpt lat="38.799717" lon="-5.795600">
        <ele>1008.0</ele>
        <time>2019-05-04T15:36:07Z</time>
      </trkpt>
      <trkpt lat="38.799650" lon="-5.795667">
        <ele>1009.0</ele>
        <time>2019-05-04T15:36:08Z</time>
      </trkpt>
      <trkpt lat="38.799633" lon="-5.795733">
        <ele>1011.0</ele>
        <time>2019-05-04T15:36:09Z</time>
      </trkpt>
      <trkpt lat="38.799633" lon="-5.795783">
        <ele>1012.0</ele>
        <time>2019-05-04T15:36:10Z</time>
      </trkpt>
      <trkpt lat="38.799667" lon="-5.795767">
        <ele>1014.0</ele>
        <time>2019-05-04T15:36:11Z</time>
      </trkpt>
      <trkpt lat="38.799717" lon="-5.795717">
        <ele>1014.0</ele>
        <time>2019-05-04T15:36:12Z</time>
      </trkpt>
      <trkpt lat="38.799733" lon="-5.795617">
        <ele>1014.0</ele>
        <time>2019-05-04T15:36:13Z</time>
      </trkpt>
      <trkpt lat="38.799717" lon="-5.795500">
        <ele>1014.0</ele>
        <time>2019-05-04T15:36:14Z</time>
      </trkpt>
      <trkpt lat="38.799683" lon="-5.795367">
        <ele>1016.0</ele>
        <time>2019-05-04T15:36:15Z</time>
      </trkpt>
      <trkpt lat="38.799617" lon="-5.795250">
        <ele>1017.0</ele>
        <time>2019-05-04T15:36:16Z</time>
      </trkpt>
      <trkpt lat="38.799533" lon="-5.795167">
        <ele>1019.0</ele>
        <time>2019-05-04T15:36:17Z</time>
      </trkpt>
      <trkpt lat="38.799433" lon="-5.795100">
        <ele>1021.0</ele>
        <time>2019-05-04T15:36:18Z</time>
      </trkpt>
      <trkpt lat="38.799317" lon="-5.795067">
        <ele>1022.0</ele>
        <time>2019-05-04T15:36:19Z</time>
      </trkpt>
      <trkpt lat="38.799200" lon="-5.795067">
        <ele>1024.0</ele>
        <time>2019-05-04T15:36:20Z</time>
      </trkpt>
      <trkpt lat="38.799083" lon="-5.795100">
        <ele>1025.0</ele>
        <time>2019-05-04T15:36:21Z</time>
      </trkpt>
      <trkpt lat="38.799000" lon="-5.795183">
        <ele>1026.0</ele>
        <time>2019-05-04T15:36:22Z</time>
      </trkpt>
      <trkpt lat="38.798967" lon="-5.795267">
        <ele>1027.0</ele>
        <time>2019-05-04T15:36:23Z</time>
      </trkpt>
      <trkpt lat="38.798967" lon="-5.795317">
        <ele>1028.0</ele>
        <time>2019-05-04T15:36:24Z</time>
      </trkpt>
      <trkpt lat="38.799000" lon="-5.795333">
        <ele>1030.0</ele>
        <time>2019-05-04T15:36:25Z</time>
      </trkpt>
      <trkpt lat="38.799033" lon="-5.795300">
        <ele>1031.0</ele>
        <time>2019-05-04T15:36:26Z</time>
      </trkpt>
      <trkpt lat="38.799050" lon="-5.795217">
        <ele>1033.0</ele>
        <time>2019-05-04T15:36:27Z</time>
      </trkpt>
      <trkpt lat="38.799050" lon="-5.795100">
        <ele>1033.0</ele>
        <time>2019-05-04T15:36:28Z</time>
      </trkpt>
      <trkpt lat="38.798983" lon="-5.794983">
        <ele>1034.0</ele>
        <time>2019-05-04T15:36:29Z</time>
      </trkpt>
      <trkpt lat="38.798883" lon="-5.794867">
        <ele>1036.0</ele>
        <time>2019-05-04T15:36:30Z</time>
      </trkpt>
      <trkpt lat="38.798750" lon="-5.794817">
        <ele>1037.0</ele>
        <time>2019-05-04T15:36:31Z</time>
      </trkpt>
      <trkpt lat="38.798617" lon="-5.794833">
        <ele>1039.0</ele>
        <time>2019-05-04T15:36:32Z</time>
      </trkpt>
      <trkpt lat="38.798517" lon="-5.794883">
        <ele>1040.0</ele>
        <time>2019-05-04T15:36:33Z</time>
      </trkpt>
      <trkpt lat="38.798467" lon="-5.794983">
        <ele>1041.0</ele>
        <time>2019-05-04T15:36:34Z</time>
      </trkpt>
      <trkpt lat="38.798450" lon="-5.795050">
        <ele>1042.0</ele>
        <time>2019-05-04T15:36:35Z</time>
      </trkpt>
      <trkpt lat="38.798450" lon="-5.795083">
        <ele>1044.0</ele>
        <time>2019-05-04T15:36:36Z</time>
      </trkpt>
      <trkpt lat="38.798483" lon="-5.795083">
        <ele>1046.0</ele>
        <time>2019-05-04T15:36:37Z</time>
      </trkpt>
      <trkpt lat="38.798517" lon="-5.795017">
        <ele>1047.0</ele>
        <time>2019-05-04T15:36:38Z</time>
      </trkpt>
      <trkpt lat="38.798517" lon="-5.794917">
        <ele>1049.0</ele>
        <time>2019-05-04T15:36:39Z</time>
      </trkpt>
      <trkpt lat="38.798500" lon="-5.794800">
        <ele>1050.0</ele>
        <time>2019-05-04T15:36:40Z</time>
      </trkpt>
      <trkpt lat="38.798450" lon="-5.794683">
        <ele>1051.0</ele>
        <time>2019-05-04T15:36:41Z</time>
      </trkpt>
      <trkpt lat="38.798367" lon="-5.794550">
        <ele>1052.0</ele>
        <time>2019-05-04T15:36:42Z</time>
      </trkpt>
      <trkpt lat="38.798267" lon="-5.794450">
        <ele>1054.0</ele>
        <time>2019-05-04T15:36:43Z</time>
      </trkpt>
      <trkpt lat="38.798133" lon="-5.794383">
        <ele>1056.0</ele>
        <time>2019-05-04T15:36:44Z</time>
      </trkpt>
      <trkpt lat="38.798000" lon="-5.794367">
        <ele>1058.0</ele>
        <time>2019-05-04T15:36:45Z</time>
      </trkpt>
      <trkpt lat="38.797883" lon="-5.794383">
        <ele>1059.0</ele>
        <time>2019-05-04T15:36:46Z</time>
      </trkpt>
      <trkpt lat="38.797800" lon="-5.794433">
        <ele>1060.0</ele>
        <time>2019-05-04T15:36:47Z</time>
      </trkpt>
      <trkpt lat="38.797750" lon="-5.794500">
        <ele>1062.0</ele>
        <time>2019-05-04T15:36:48Z</time>
      </trkpt>
      <trkpt lat="38.797733" lon="-5.794567">
        <ele>1063.0</ele>
        <time>2019-05-04T15:36:49Z</time>
      </trkpt>
      <trkpt lat="38.797750" lon="-5.794583">
        <ele>1064.0</ele>
        <time>2019-05-04T15:36:50Z</time>
      </trkpt>
      <trkpt lat="38.797783" lon="-5.794550">
        <ele>1065.0</ele>
        <time>2019-05-04T15:36:51Z</time>
      </trkpt>
      <trkpt lat="38.797817" lon="-5.794450">
        <ele>1064.0</ele>
        <time>2019-05-04T15:36:52Z</time>
      </trkpt>
      <trkpt lat="38.797800" lon="-5.794300">
        <ele>1063.0</ele>
        <time>2019-05-04T15:36:53Z</time>
      </trkpt>
      <trkpt lat="38.797733" lon="-5.794133">
        <ele>1064.0</ele>
        <time>2019-05-04T15:36:54Z</time>
      </trkpt>
      <trkpt lat="38.797650" lon="-5.794000">
        <ele>1064.0</ele>
        <time>2019-05-04T15:36:55Z</time>
      </trkpt>
      <trkpt lat="38.797533" lon="-5.793933">
        <ele>1065.0</ele>
        <time>2019-05-04T15:36:56Z</time>
      </trkpt>
      <trkpt lat="38.797417" lon="-5.793900">
        <ele>1067.0</ele>
        <time>2019-05-04T15:36:57Z</time>
      </trkpt>
      <trkpt lat="38.797317" lon="-5.793933">
        <ele>1067.0</ele>
        <time>2019-05-04T15:36:58Z</time>
      </trkpt>
      <trkpt lat="38.797250" lon="-5.793983">
        <ele>1068.0</ele>
        <time>2019-05-04T15:36:59Z</time>
      </trkpt>
      <trkpt lat="38.797217" lon="-5.794033">
        <ele>1069.0</ele>
        <time>2019-05-04T15:37:00Z</time>
      </trkpt>
      <trkpt lat="38.797217" lon="-5.794083">
        <ele>1070.0</ele>
        <time>2019-05-04T15:37:01Z</time>
      </trkpt>
      <trkpt lat="38.797250" lon="-5.794100">
        <ele>1070.0</ele>
        <time>2019-05-04T15:37:02Z</time>
      </trkpt>
      <trkpt lat="38.797300" lon="-5.794067">
        <ele>1072.0</ele>
        <time>2019-05-04T15:37:03Z</time>
      </trkpt>
      <trkpt lat="38.797317" lon="-5.793983">
        <ele>1072.0</ele>
        <time>2019-05-04T15:37:04Z</time>
      </trkpt>
      <trkpt lat="38.797333" lon="-5.793850">
        <ele>1073.0</ele>
        <time>2019-05-04T15:37:05Z</time>
      </trkpt>
      <trkpt lat="38.797333" lon="-5.793717">
        <ele>1073.0</ele>
        <time>2019-05-04T15:37:06Z</time>
      </trkpt>
      <trkpt lat="38.797317" lon="-5.793567">
        <ele>1074.0</ele>
        <time>2019-05-04T15:37:07Z</time>
      </trkpt>
      <trkpt lat="38.797267" lon="-5.793433">
        <ele>1076.0</ele>
        <time>2019-05-04T15:37:08Z</time>
      </trkpt>
      <trkpt lat="38.797183" lon="-5.793333">
        <ele>1076.0</ele>
        <time>2019-05-04T15:37:09Z</time>
      </trkpt>
      <trkpt lat="38.797100" lon="-5.793233">
        <ele>1076.0</ele>
        <time>2019-05-04T15:37:10Z</time>
      </trkpt>
      <trkpt lat="38.797000" lon="-5.793183">
        <ele>1076.0</ele>
        <time>2019-05-04T15:37:11Z</time>
      </trkpt>
      <trkpt lat="38.796900" lon="-5.793150">
        <ele>1076.0</ele>
        <time>2019-05-04T15:37:12Z</time>
      </trkpt>
      <trkpt lat="38.796817" lon="-5.793133">
        <ele>1076.0</ele>
        <time>2019-05-04T15:37:13Z</time>
      </trkpt>
      <trkpt lat="38.796750" lon="-5.793133">
        <ele>1079.0</ele>
        <time>2019-05-04T15:37:14Z</time>
      </trkpt>
      <trkpt lat="38.796667" lon="-5.793150">
        <ele>1081.0</ele>
        <time>2019-05-04T15:37:15Z</time>
      </trkpt>
      <trkpt lat="38.796583" lon="-5.793167">
        <ele>1084.0</ele>
        <time>2019-05-04T15:37:16Z</time>
      </trkpt>
      <trkpt lat="38.796500" lon="-5.793167">
        <ele>1086.0</ele>
        <time>2019-05-04T15:37:17Z</time>
      </trkpt>
      <trkpt lat="38.796417" lon="-5.793183">
        <ele>1088.0</ele>
        <time>2019-05-04T15:37:18Z</time>
      </trkpt>
      <trkpt lat="38.796350" lon="-5.793233">
        <ele>1089.0</ele>
        <time>2019-05-04T15:37:19Z</time>
      </trkpt>
      <trkpt lat="38.796300" lon="-5.793283">
        <ele>1089.0</ele>
        <time>2019-05-04T15:37:20Z</time>
      </trkpt>
      <trkpt lat="38.796317" lon="-5.793333">
        <ele>1089.0</ele>
        <time>2019-05-04T15:37:21Z</time>
      </trkpt>
      <trkpt lat="38.796350" lon="-5.793367">
        <ele>1088.0</ele>
        <time>2019-05-04T15:37:22Z</time>
      </trkpt>
      <trkpt lat="38.796417" lon="-5.793333">
        <ele>1089.0</ele>
        <time>2019-05-04T15:37:23Z</time>
      </trkpt>
      <trkpt lat="38.796467" lon="-5.793250">
        <ele>1091.0</ele>
        <time>2019-05-04T15:37:24Z</time>
      </trkpt>
      <trkpt lat="38.796483" lon="-5.793150">
        <ele>1095.0</ele>
        <time>2019-05-04T15:37:25Z</time>
      </trkpt>
      <trkpt lat="38.796483" lon="-5.793017">
        <ele>1099.0</ele>
        <time>2019-05-04T15:37:26Z</time>
      </trkpt>
      <trkpt lat="38.796467" lon="-5.792883">
        <ele>1102.0</ele>
        <time>2019-05-04T15:37:27Z</time>
      </trkpt>
      <trkpt lat="38.796450" lon="-5.792733">
        <ele>1103.0</ele>
        <time>2019-05-04T15:37:28Z</time>
      </trkpt>
      <trkpt lat="38.796417" lon="-5.792567">
        <ele>1104.0</ele>
        <time>2019-05-04T15:37:29Z</time>
      </trkpt>
      <trkpt lat="38.796350" lon="-5.792433">
        <ele>1105.0</ele>
        <time>2019-05-04T15:37:30Z</time>
      </trkpt>
      <trkpt lat="38.796267" lon="-5.792350">
        <ele>1106.0</ele>
        <time>2019-05-04T15:37:31Z</time>
      </trkpt>
      <trkpt lat="38.796183" lon="-5.792300">
        <ele>1107.0</ele>
        <time>2019-05-04T15:37:32Z</time>
      </trkpt>
      <trkpt lat="38.796117" lon="-5.792317">
        <ele>1108.0</ele>
        <time>2019-05-04T15:37:33Z</time>
      </trkpt>
      <trkpt lat="38.796083" lon="-5.792350">
        <ele>1109.0</ele>
        <time>2019-05-04T15:37:34Z</time>
      </trkpt>
      <trkpt lat="38.796067" lon="-5.792383">
        <ele>1111.0</ele>
        <time>2019-05-04T15:37:35Z</time>
      </trkpt>
      <trkpt lat="38.796083" lon="-5.792433">
        <ele>1112.0</ele>
        <time>2019-05-04T15:37:36Z</time>
      </trkpt>
      <trkpt lat="38.796083" lon="-5.792467">
        <ele>1113.0</ele>
        <time>2019-05-04T15:37:37Z</time>
      </trkpt>
      <trkpt lat="38.796100" lon="-5.792500">
        <ele>1114.0</ele>
        <time>2019-05-04T15:37:38Z</time>
      </trkpt>
      <trkpt lat="38.796150" lon="-5.792533">
        <ele>1116.0</ele>
        <time>2019-05-04T15:37:39Z</time>
      </trkpt>
      <trkpt lat="38.796183" lon="-5.792500">
        <ele>1119.0</ele>
        <time>2019-05-04T15:37:40Z</time>
      </trkpt>
      <trkpt lat="38.796233" lon="-5.792417">
        <ele>1122.0</ele>
        <time>2019-05-04T15:37:41Z</time>
      </trkpt>
      <trkpt lat="38.796250" lon="-5.792283">
        <ele>1124.0</ele>
        <time>2019-05-04T15:37:42Z</time>
      </trkpt>
      <trkpt lat="38.796250" lon="-5.792117">
        <ele>1125.0</ele>
        <time>2019-05-04T15:37:43Z</time>
      </trkpt>
      <trkpt lat="38.796217" lon="-5.791950">
        <ele>1129.0</ele>
        <time>2019-05-04T15:37:44Z</time>
      </trkpt>
      <trkpt lat="38.796167" lon="-5.791800">
        <ele>1134.0</ele>
        <time>2019-05-04T15:37:45Z</time>
      </trkpt>
      <trkpt lat="38.796100" lon="-5.791683">
        <ele>1137.0</ele>
        <time>2019-05-04T15:37:46Z</time>
      </trkpt>
      <trkpt lat="38.796000" lon="-5.791600">
        <ele>1139.0</ele>
        <time>2019-05-04T15:37:47Z</time>
      </trkpt>
      <trkpt lat="38.795917" lon="-5.791567">
        <ele>1142.0</ele>
        <time>2019-05-04T15:37:48Z</time>
      </trkpt>
      <trkpt lat="38.795867" lon="-5.791550">
        <ele>1144.0</ele>
        <time>2019-05-04T15:37:49Z</time>
      </trkpt>
      <trkpt lat="38.795833" lon="-5.791550">
        <ele>1141.0</ele>
        <time>2019-05-04T15:37:50Z</time>
      </trkpt>
      <trkpt lat="38.795783" lon="-5.791583">
        <ele>1142.0</ele>
        <time>2019-05-04T15:37:51Z</time>
      </trkpt>
      <trkpt lat="38.795783" lon="-5.791633">
        <ele>1144.0</ele>
        <time>2019-05-04T15:37:52Z</time>
      </trkpt>
      <trkpt lat="38.795800" lon="-5.791667">
        <ele>1145.0</ele>
        <time>2019-05-04T15:37:53Z</time>
      </trkpt>
      <trkpt lat="38.795833" lon="-5.791700">
        <ele>1146.0</ele>
        <time>2019-05-04T15:37:54Z</time>
      </trkpt>
      <trkpt lat="38.795900" lon="-5.791683">
        <ele>1148.0</ele>
        <time>2019-05-04T15:37:55Z</time>
      </trkpt>
      <trkpt lat="38.795933" lon="-5.791633">
        <ele>1153.0</ele>
        <time>2019-05-04T15:37:56Z</time>
      </trkpt>
      <trkpt lat="38.795967" lon="-5.791533">
        <ele>1160.0</ele>
        <time>2019-05-04T15:37:57Z</time>
      </trkpt>
      <trkpt lat="38.795983" lon="-5.791400">
        <ele>1163.0</ele>
        <time>2019-05-04T15:37:58Z</time>
      </trkpt>
      <trkpt lat="38.796000" lon="-5.791250">
        <ele>1166.0</ele>
        <time>2019-05-04T15:37:59Z</time>
      </trkpt>
      <trkpt lat="38.796000" lon="-5.791083">
        <ele>1170.0</ele>
        <time>2019-05-04T15:38:00Z</time>
      </trkpt>
      <trkpt lat="38.795967" lon="-5.790950">
        <ele>1173.0</ele>
        <time>2019-05-04T15:38:01Z</time>
      </trkpt>
      <trkpt lat="38.795900" lon="-5.790850">
        <ele>1176.0</ele>
        <time>2019-05-04T15:38:02Z</time>
      </trkpt>
      <trkpt lat="38.795800" lon="-5.790783">
        <ele>1177.0</ele>
        <time>2019-05-04T15:38:03Z</time>
      </trkpt>
      <trkpt lat="38.795700" lon="-5.790783">
        <ele>1180.0</ele>
        <time>2019-05-04T15:38:04Z</time>
      </trkpt>
      <trkpt lat="38.795650" lon="-5.790833">
        <ele>1183.0</ele>
        <time>2019-05-04T15:38:05Z</time>
      </trkpt>
      <trkpt lat="38.795633" lon="-5.790883">
        <ele>1186.0</ele>
        <time>2019-05-04T15:38:06Z</time>
      </trkpt>
      <trkpt lat="38.795650" lon="-5.790933">
        <ele>1188.0</ele>
        <time>2019-05-04T15:38:07Z</time>
      </trkpt>
      <trkpt lat="38.795700" lon="-5.790967">
        <ele>1190.0</ele>
        <time>2019-05-04T15:38:08Z</time>
      </trkpt>
      <trkpt lat="38.795750" lon="-5.790983">
        <ele>1193.0</ele>
        <time>2019-05-04T15:38:09Z</time>
      </trkpt>
      <trkpt lat="38.795817" lon="-5.790967">
        <ele>1199.0</ele>
        <time>2019-05-04T15:38:10Z</time>
      </trkpt>
      <trkpt lat="38.795867" lon="-5.790900">
        <ele>1202.0</ele>
        <time>2019-05-04T15:38:11Z</time>
      </trkpt>
      <trkpt lat="38.795933" lon="-5.790783">
        <ele>1203.0</ele>
        <time>2019-05-04T15:38:12Z</time>
      </trkpt>
      <trkpt lat="38.795983" lon="-5.790667">
        <ele>1203.0</ele>
        <time>2019-05-04T15:38:13Z</time>
      </trkpt>
      <trkpt lat="38.796033" lon="-5.790533">
        <ele>1205.0</ele>
        <time>2019-05-04T15:38:14Z</time>
      </trkpt>
      <trkpt lat="38.796050" lon="-5.790400">
        <ele>1208.0</ele>
        <time>2019-05-04T15:38:15Z</time>
      </trkpt>
      <trkpt lat="38.796033" lon="-5.790283">
        <ele>1210.0</ele>
        <time>2019-05-04T15:38:16Z</time>
      </trkpt>
      <trkpt lat="38.795950" lon="-5.790167">
        <ele>1211.0</ele>
        <time>2019-05-04T15:38:17Z</time>
      </trkpt>
      <trkpt lat="38.795850" lon="-5.790117">
        <ele>1213.0</ele>
        <time>2019-05-04T15:38:18Z</time>
      </trkpt>
      <trkpt lat="38.795767" lon="-5.790117">
        <ele>1215.0</ele>
        <time>2019-05-04T15:38:19Z</time>
      </trkpt>
      <trkpt lat="38.795717" lon="-5.790167">
        <ele>1217.0</ele>
        <time>2019-05-04T15:38:20Z</time>
      </trkpt>
      <trkpt lat="38.795717" lon="-5.790233">
        <ele>1219.0</ele>
        <time>2019-05-04T15:38:21Z</time>
      </trkpt>
      <trkpt lat="38.795783" lon="-5.790250">
        <ele>1222.0</ele>
        <time>2019-05-04T15:38:22Z</time>
      </trkpt>
      <trkpt lat="38.795850" lon="-5.790217">
        <ele>1223.0</ele>
        <time>2019-05-04T15:38:23Z</time>
      </trkpt>
      <trkpt lat="38.795917" lon="-5.790117">
        <ele>1225.0</ele>
        <time>2019-05-04T15:38:24Z</time>
      </trkpt>
      <trkpt lat="38.795950" lon="-5.790000">
        <ele>1227.0</ele>
        <time>2019-05-04T15:38:25Z</time>
      </trkpt>
      <trkpt lat="38.795983" lon="-5.789867">
        <ele>1231.0</ele>
        <time>2019-05-04T15:38:26Z</time>
      </trkpt>
      <trkpt lat="38.795983" lon="-5.789733">
        <ele>1235.0</ele>
        <time>2019-05-04T15:38:27Z</time>
      </trkpt>
      <trkpt lat="38.795967" lon="-5.789600">
        <ele>1238.0</ele>
        <time>2019-05-04T15:38:28Z</time>
      </trkpt>
      <trkpt lat="38.795917" lon="-5.789483">
        <ele>1241.0</ele>
        <time>2019-05-04T15:38:29Z</time>
      </trkpt>
      <trkpt lat="38.795833" lon="-5.789400">
        <ele>1244.0</ele>
        <time>2019-05-04T15:38:30Z</time>
      </trkpt>
      <trkpt lat="38.795750" lon="-5.789367">
        <ele>1247.0</ele>
        <time>2019-05-04T15:38:31Z</time>
      </trkpt>
      <trkpt lat="38.795667" lon="-5.789383">
        <ele>1249.0</ele>
        <time>2019-05-04T15:38:32Z</time>
      </trkpt>
      <trkpt lat="38.795633" lon="-5.789450">
        <ele>1252.0</ele>
        <time>2019-05-04T15:38:33Z</time>
      </trkpt>
      <trkpt lat="38.795650" lon="-5.789533">
        <ele>1255.0</ele>
        <time>2019-05-04T15:38:34Z</time>
      </trkpt>
      <trkpt lat="38.795683" lon="-5.789567">
        <ele>1260.0</ele>
        <time>2019-05-04T15:38:35Z</time>
      </trkpt>
      <trkpt lat="38.795750" lon="-5.789567">
        <ele>1263.0</ele>
        <time>2019-05-04T15:38:36Z</time>
      </trkpt>
      <trkpt lat="38.795817" lon="-5.789517">
        <ele>1266.0</ele>
        <time>2019-05-04T15:38:37Z</time>
      </trkpt>
      <trkpt lat="38.795883" lon="-5.789433">
        <ele>1269.0</ele>
        <time>2019-05-04T15:38:38Z</time>
      </trkpt>
      <trkpt lat="38.795917" lon="-5.789317">
        <ele>1271.0</ele>
        <time>2019-05-04T15:38:39Z</time>
      </trkpt>
      <trkpt lat="38.795933" lon="-5.789183">
        <ele>1274.0</ele>
        <time>2019-05-04T15:38:40Z</time>
      </trkpt>
      <trkpt lat="38.795917" lon="-5.789033">
        <ele>1276.0</ele>
        <time>2019-05-04T15:38:41Z</time>
      </trkpt>
      <trkpt lat="38.795850" lon="-5.788900">
        <ele>1279.0</ele>
        <time>2019-05-04T15:38:42Z</time>
      </trkpt>
      <trkpt lat="38.795767" lon="-5.788800">
        <ele>1281.0</ele>
        <time>2019-05-04T15:38:43Z</time>
      </trkpt>
      <trkpt lat="38.795683" lon="-5.788733">
        <ele>1285.0</ele>
        <time>2019-05-04T15:38:44Z</time>
      </trkpt>
      <trkpt lat="38.795600" lon="-5.788700">
        <ele>1288.0</ele>
        <time>2019-05-04T15:38:45Z</time>
      </trkpt>
      <trkpt lat="38.795517" lon="-5.788700">
        <ele>1291.0</ele>
        <time>2019-05-04T15:38:46Z</time>
      </trkpt>
      <trkpt lat="38.795467" lon="-5.788733">
        <ele>1295.0</ele>
        <time>2019-05-04T15:38:47Z</time>
      </trkpt>
      <trkpt lat="38.795433" lon="-5.788800">
        <ele>1297.0</ele>
        <time>2019-05-04T15:38:48Z</time>
      </trkpt>
      <trkpt lat="38.795433" lon="-5.788850">
        <ele>1300.0</ele>
        <time>2019-05-04T15:38:49Z</time>
      </trkpt>
      <trkpt lat="38.795467" lon="-5.788900">
        <ele>1303.0</ele>
        <time>2019-05-04T15:38:50Z</time>
      </trkpt>
      <trkpt lat="38.795517" lon="-5.788917">
        <ele>1306.0</ele>
        <time>2019-05-04T15:38:51Z</time>
      </trkpt>
      <trkpt lat="38.795600" lon="-5.788867">
        <ele>1309.0</ele>
        <time>2019-05-04T15:38:52Z</time>
      </trkpt>
      <trkpt lat="38.795667" lon="-5.788783">
        <ele>1312.0</ele>
        <time>2019-05-04T15:38:53Z</time>
      </trkpt>
      <trkpt lat="38.795733" lon="-5.788667">
        <ele>1314.0</ele>
        <time>2019-05-04T15:38:54Z</time>
      </trkpt>
      <trkpt lat="38.795750" lon="-5.788517">
        <ele>1318.0</ele>
        <time>2019-05-04T15:38:55Z</time>
      </trkpt>
      <trkpt lat="38.795733" lon="-5.788383">
        <ele>1321.0</ele>
        <time>2019-05-04T15:38:56Z</time>
      </trkpt>
      <trkpt lat="38.795700" lon="-5.788250">
        <ele>1324.0</ele>
        <time>2019-05-04T15:38:57Z</time>
      </trkpt>
      <trkpt lat="38.795617" lon="-5.788133">
        <ele>1326.0</ele>
        <time>2019-05-04T15:38:58Z</time>
      </trkpt>
      <trkpt lat="38.795550" lon="-5.788067">
        <ele>1329.0</ele>
        <time>2019-05-04T15:38:59Z</time>
      </trkpt>
      <trkpt lat="38.795467" lon="-5.788050">
        <ele>1332.0</ele>
        <time>2019-05-04T15:39:00Z</time>
      </trkpt>
      <trkpt lat="38.795417" lon="-5.788067">
        <ele>1330.0</ele>
        <time>2019-05-04T15:39:01Z</time>
      </trkpt>
      <trkpt lat="38.795400" lon="-5.788133">
        <ele>1330.0</ele>
        <time>2019-05-04T15:39:02Z</time>
      </trkpt>
      <trkpt lat="38.795417" lon="-5.788183">
        <ele>1330.0</ele>
        <time>2019-05-04T15:39:03Z</time>
      </trkpt>
      <trkpt lat="38.795467" lon="-5.788233">
        <ele>1331.0</ele>
        <time>2019-05-04T15:39:04Z</time>
      </trkpt>
      <trkpt lat="38.795550" lon="-5.788217">
        <ele>1333.0</ele>
        <time>2019-05-04T15:39:05Z</time>
      </trkpt>
      <trkpt lat="38.795617" lon="-5.788167">
        <ele>1336.0</ele>
        <time>2019-05-04T15:39:06Z</time>
      </trkpt>
      <trkpt lat="38.795667" lon="-5.788067">
        <ele>1339.0</ele>
        <time>2019-05-04T15:39:07Z</time>
      </trkpt>
      <trkpt lat="38.795700" lon="-5.787950">
        <ele>1342.0</ele>
        <time>2019-05-04T15:39:08Z</time>
      </trkpt>
      <trkpt lat="38.795700" lon="-5.787817">
        <ele>1345.0</ele>
        <time>2019-05-04T15:39:09Z</time>
      </trkpt>
      <trkpt lat="38.795683" lon="-5.787667">
        <ele>1347.0</ele>
        <time>2019-05-04T15:39:10Z</time>
      </trkpt>
      <trkpt lat="38.795650" lon="-5.787533">
        <ele>1350.0</ele>
        <time>2019-05-04T15:39:11Z</time>
      </trkpt>
      <trkpt lat="38.795600" lon="-5.787417">
        <ele>1352.0</ele>
        <time>2019-05-04T15:39:12Z</time>
      </trkpt>
      <trkpt lat="38.795517" lon="-5.787333">
        <ele>1355.0</ele>
        <time>2019-05-04T15:39:13Z</time>
      </trkpt>
      <trkpt lat="38.795417" lon="-5.787283">
        <ele>1358.0</ele>
        <time>2019-05-04T15:39:14Z</time>
      </trkpt>
      <trkpt lat="38.795317" lon="-5.787250">
        <ele>1360.0</ele>
        <time>2019-05-04T15:39:15Z</time>
      </trkpt>
      <trkpt lat="38.795233" lon="-5.787267">
        <ele>1362.0</ele>
        <time>2019-05-04T15:39:16Z</time>
      </trkpt>
      <trkpt lat="38.795183" lon="-5.787317">
        <ele>1366.0</ele>
        <time>2019-05-04T15:39:17Z</time>
      </trkpt>
      <trkpt lat="38.795183" lon="-5.787367">
        <ele>1369.0</ele>
        <time>2019-05-04T15:39:18Z</time>
      </trkpt>
      <trkpt lat="38.795200" lon="-5.787417">
        <ele>1371.0</ele>
        <time>2019-05-04T15:39:19Z</time>
      </trkpt>
      <trkpt lat="38.795250" lon="-5.787433">
        <ele>1373.0</ele>
        <time>2019-05-04T15:39:20Z</time>
      </trkpt>
      <trkpt lat="38.795317" lon="-5.787417">
        <ele>1375.0</ele>
        <time>2019-05-04T15:39:21Z</time>
      </trkpt>
      <trkpt lat="38.795383" lon="-5.787367">
        <ele>1378.0</ele>
        <time>2019-05-04T15:39:22Z</time>
      </trkpt>
      <trkpt lat="38.795433" lon="-5.787267">
        <ele>1380.0</ele>
        <time>2019-05-04T15:39:23Z</time>
      </trkpt>
      <trkpt lat="38.795467" lon="-5.787150">
        <ele>1381.0</ele>
        <time>2019-05-04T15:39:24Z</time>
      </trkpt>
      <trkpt lat="38.795467" lon="-5.787000">
        <ele>1382.0</ele>
        <time>2019-05-04T15:39:25Z</time>
      </trkpt>
      <trkpt lat="38.795433" lon="-5.786867">
        <ele>1384.0</ele>
        <time>2019-05-04T15:39:26Z</time>
      </trkpt>
      <trkpt lat="38.795383" lon="-5.786733">
        <ele>1386.0</ele>
        <time>2019-05-04T15:39:27Z</time>
      </trkpt>
      <trkpt lat="38.795317" lon="-5.786633">
        <ele>1388.0</ele>
        <time>2019-05-04T15:39:28Z</time>
      </trkpt>
      <trkpt lat="38.795217" lon="-5.786550">
        <ele>1390.0</ele>
        <time>2019-05-04T15:39:29Z</time>
      </trkpt>
      <trkpt lat="38.795133" lon="-5.786533">
        <ele>1391.0</ele>
        <time>2019-05-04T15:39:30Z</time>
      </trkpt>
      <trkpt lat="38.795067" lon="-5.786567">
        <ele>1392.0</ele>
        <time>2019-05-04T15:39:31Z</time>
      </trkpt>
      <trkpt lat="38.795033" lon="-5.786633">
        <ele>1393.0</ele>
        <time>2019-05-04T15:39:32Z</time>
      </trkpt>
      <trkpt lat="38.795033" lon="-5.786700">
        <ele>1394.0</ele>
        <time>2019-05-04T15:39:33Z</time>
      </trkpt>
      <trkpt lat="38.795050" lon="-5.786750">
        <ele>1396.0</ele>
        <time>2019-05-04T15:39:34Z</time>
      </trkpt>
      <trkpt lat="38.795083" lon="-5.786783">
        <ele>1397.0</ele>
        <time>2019-05-04T15:39:35Z</time>
      </trkpt>
      <trkpt lat="38.795150" lon="-5.786783">
        <ele>1399.0</ele>
        <time>2019-05-04T15:39:36Z</time>
      </trkpt>
      <trkpt lat="38.795200" lon="-5.786767">
        <ele>1402.0</ele>
        <time>2019-05-04T15:39:37Z</time>
      </trkpt>
      <trkpt lat="38.795233" lon="-5.786700">
        <ele>1404.0</ele>
        <time>2019-05-04T15:39:38Z</time>
      </trkpt>
      <trkpt lat="38.795250" lon="-5.786583">
        <ele>1406.0</ele>
        <time>2019-05-04T15:39:39Z</time>
      </trkpt>
      <trkpt lat="38.795267" lon="-5.786467">
        <ele>1408.0</ele>
        <time>2019-05-04T15:39:40Z</time>
      </trkpt>
      <trkpt lat="38.795233" lon="-5.786350">
        <ele>1410.0</ele>
        <time>2019-05-04T15:39:41Z</time>
      </trkpt>
      <trkpt lat="38.795183" lon="-5.786250">
        <ele>1412.0</ele>
        <time>2019-05-04T15:39:42Z</time>
      </trkpt>
      <trkpt lat="38.795117" lon="-5.786150">
        <ele>1414.0</ele>
        <time>2019-05-04T15:39:43Z</time>
      </trkpt>
      <trkpt lat="38.795017" lon="-5.786083">
        <ele>1415.0</ele>
        <time>2019-05-04T15:39:44Z</time>
      </trkpt>
      <trkpt lat="38.794900" lon="-5.786033">
        <ele>1416.0</ele>
        <time>2019-05-04T15:39:45Z</time>
      </trkpt>
      <trkpt lat="38.794800" lon="-5.786000">
        <ele>1418.0</ele>
        <time>2019-05-04T15:39:46Z</time>
      </trkpt>
      <trkpt lat="38.794717" lon="-5.785983">
        <ele>1420.0</ele>
        <time>2019-05-04T15:39:47Z</time>
      </trkpt>
      <trkpt lat="38.794650" lon="-5.786000">
        <ele>1423.0</ele>
        <time>2019-05-04T15:39:48Z</time>
      </trkpt>
      <trkpt lat="38.794583" lon="-5.786033">
        <ele>1424.0</ele>
        <time>2019-05-04T15:39:49Z</time>
      </trkpt>
      <trkpt lat="38.794533" lon="-5.786117">
        <ele>1424.0</ele>
        <time>2019-05-04T15:39:50Z</time>
      </trkpt>
      <trkpt lat="38.794517" lon="-5.786183">
        <ele>1424.0</ele>
        <time>2019-05-04T15:39:51Z</time>
      </trkpt>
      <trkpt lat="38.794533" lon="-5.786250">
        <ele>1426.0</ele>
        <time>2019-05-04T15:39:52Z</time>
      </trkpt>
      <trkpt lat="38.794567" lon="-5.786267">
        <ele>1427.0</ele>
        <time>2019-05-04T15:39:53Z</time>
      </trkpt>
      <trkpt lat="38.794617" lon="-5.786233">
        <ele>1428.0</ele>
        <time>2019-05-04T15:39:54Z</time>
      </trkpt>
      <trkpt lat="38.794667" lon="-5.786183">
        <ele>1429.0</ele>
        <time>2019-05-04T15:39:55Z</time>
      </trkpt>
      <trkpt lat="38.794717" lon="-5.786100">
        <ele>1430.0</ele>
        <time>2019-05-04T15:39:56Z</time>
      </trkpt>
      <trkpt lat="38.794733" lon="-5.786000">
        <ele>1431.0</ele>
        <time>2019-05-04T15:39:57Z</time>
      </trkpt>
      <trkpt lat="38.794733" lon="-5.785883">
        <ele>1430.0</ele>
        <time>2019-05-04T15:39:58Z</time>
      </trkpt>
      <trkpt lat="38.794700" lon="-5.785767">
        <ele>1430.0</ele>
        <time>2019-05-04T15:39:59Z</time>
      </trkpt>
      <trkpt lat="38.794633" lon="-5.785667">
        <ele>1431.0</ele>
        <time>2019-05-04T15:40:00Z</time>
      </trkpt>
      <trkpt lat="38.794550" lon="-5.785567">
        <ele>1432.0</ele>
        <time>2019-05-04T15:40:01Z</time>
      </trkpt>
      <trkpt lat="38.794450" lon="-5.785500">
        <ele>1434.0</ele>
        <time>2019-05-04T15:40:02Z</time>
      </trkpt>
      <trkpt lat="38.794333" lon="-5.785467">
        <ele>1435.0</ele>
        <time>2019-05-04T15:40:03Z</time>
      </trkpt>
      <trkpt lat="38.794233" lon="-5.785467">
        <ele>1437.0</ele>
        <time>2019-05-04T15:40:04Z</time>
      </trkpt>
      <trkpt lat="38.794133" lon="-5.785517">
        <ele>1438.0</ele>
        <time>2019-05-04T15:40:05Z</time>
      </trkpt>
      <trkpt lat="38.794083" lon="-5.785583">
        <ele>1441.0</ele>
        <time>2019-05-04T15:40:06Z</time>
      </trkpt>
      <trkpt lat="38.794050" lon="-5.785683">
        <ele>1443.0</ele>
        <time>2019-05-04T15:40:07Z</time>
      </trkpt>
      <trkpt lat="38.794033" lon="-5.785767">
        <ele>1445.0</ele>
        <time>2019-05-04T15:40:08Z</time>
      </trkpt>
      <trkpt lat="38.794017" lon="-5.785850">
        <ele>1447.0</ele>
        <time>2019-05-04T15:40:09Z</time>
      </trkpt>
      <trkpt lat="38.794000" lon="-5.785917">
        <ele>1450.0</ele>
        <time>2019-05-04T15:40:10Z</time>
      </trkpt>
      <trkpt lat="38.794000" lon="-5.786000">
        <ele>1453.0</ele>
        <time>2019-05-04T15:40:11Z</time>
      </trkpt>
      <trkpt lat="38.794017" lon="-5.786067">
        <ele>1456.0</ele>
        <time>2019-05-04T15:40:12Z</time>
      </trkpt>
      <trkpt lat="38.794050" lon="-5.786133">
        <ele>1460.0</ele>
        <time>2019-05-04T15:40:13Z</time>
      </trkpt>
      <trkpt lat="38.794117" lon="-5.786150">
        <ele>1463.0</ele>
        <time>2019-05-04T15:40:14Z</time>
      </trkpt>
      <trkpt lat="38.794183" lon="-5.786100">
        <ele>1466.0</ele>
        <time>2019-05-04T15:40:15Z</time>
      </trkpt>
      <trkpt lat="38.794217" lon="-5.786017">
        <ele>1470.0</ele>
        <time>2019-05-04T15:40:16Z</time>
      </trkpt>
      <trkpt lat="38.794233" lon="-5.785900">
        <ele>1473.0</ele>
        <time>2019-05-04T15:40:17Z</time>
      </trkpt>
      <trkpt lat="38.794200" lon="-5.785783">
        <ele>1477.0</ele>
        <time>2019-05-04T15:40:18Z</time>
      </trkpt>
      <trkpt lat="38.794133" lon="-5.785683">
        <ele>1480.0</ele>
        <time>2019-05-04T15:40:19Z</time>
      </trkpt>
      <trkpt lat="38.794067" lon="-5.785617">
        <ele>1483.0</ele>
        <time>2019-05-04T15:40:20Z</time>
      </trkpt>
      <trkpt lat="38.793967" lon="-5.785583">
        <ele>1486.0</ele>
        <time>2019-05-04T15:40:21Z</time>
      </trkpt>
      <trkpt lat="38.793850" lon="-5.785567">
        <ele>1488.0</ele>
        <time>2019-05-04T15:40:22Z</time>
      </trkpt>
      <trkpt lat="38.793733" lon="-5.785583">
        <ele>1490.0</ele>
        <time>2019-05-04T15:40:23Z</time>
      </trkpt>
      <trkpt lat="38.793617" lon="-5.785633">
        <ele>1493.0</ele>
        <time>2019-05-04T15:40:24Z</time>
      </trkpt>
      <trkpt lat="38.793550" lon="-5.785733">
        <ele>1498.0</ele>
        <time>2019-05-04T15:40:25Z</time>
      </trkpt>
      <trkpt lat="38.793533" lon="-5.785833">
        <ele>1502.0</ele>
        <time>2019-05-04T15:40:26Z</time>
      </trkpt>
      <trkpt lat="38.793550" lon="-5.785917">
        <ele>1505.0</ele>
        <time>2019-05-04T15:40:27Z</time>
      </trkpt>
      <trkpt lat="38.793600" lon="-5.785967">
        <ele>1508.0</ele>
        <time>2019-05-04T15:40:28Z</time>
      </trkpt>
      <trkpt lat="38.793667" lon="-5.785967">
        <ele>1511.0</ele>
        <time>2019-05-04T15:40:29Z</time>
      </trkpt>
      <trkpt lat="38.793733" lon="-5.785933">
        <ele>1515.0</ele>
        <time>2019-05-04T15:40:30Z</time>
      </trkpt>
      <trkpt lat="38.793783" lon="-5.785867">
        <ele>1518.0</ele>
        <time>2019-05-04T15:40:31Z</time>
      </trkpt>
      <trkpt lat="38.793800" lon="-5.785783">
        <ele>1521.0</ele>
        <time>2019-05-04T15:40:32Z</time>
      </trkpt>
      <trkpt lat="38.793800" lon="-5.785667">
        <ele>1525.0</ele>
        <time>2019-05-04T15:40:33Z</time>
      </trkpt>
      <trkpt lat="38.793750" lon="-5.785550">
        <ele>1528.0</ele>
        <time>2019-05-04T15:40:34Z</time>
      </trkpt>
      <trkpt lat="38.793683" lon="-5.785467">
        <ele>1532.0</ele>
        <time>2019-05-04T15:40:35Z</time>
      </trkpt>
      <trkpt lat="38.793583" lon="-5.785400">
        <ele>1535.0</ele>
        <time>2019-05-04T15:40:36Z</time>
      </trkpt>
      <trkpt lat="38.793467" lon="-5.785367">
        <ele>1538.0</ele>
        <time>2019-05-04T15:40:37Z</time>
      </trkpt>
      <trkpt lat="38.793367" lon="-5.785383">
        <ele>1541.0</ele>
        <time>2019-05-04T15:40:38Z</time>
      </trkpt>
      <trkpt lat="38.793283" lon="-5.785433">
        <ele>1544.0</ele>
        <time>2019-05-04T15:40:39Z</time>
      </trkpt>
      <trkpt lat="38.793233" lon="-5.785533">
        <ele>1547.0</ele>
        <time>2019-05-04T15:40:40Z</time>
      </trkpt>
      <trkpt lat="38.793233" lon="-5.785617">
        <ele>1550.0</ele>
        <time>2019-05-04T15:40:41Z</time>
      </trkpt>
      <trkpt lat="38.793267" lon="-5.785700">
        <ele>1553.0</ele>
        <time>2019-05-04T15:40:42Z</time>
      </trkpt>
      <trkpt lat="38.793317" lon="-5.785717">
        <ele>1556.0</ele>
        <time>2019-05-04T15:40:43Z</time>
      </trkpt>
      <trkpt lat="38.793383" lon="-5.785717">
        <ele>1560.0</ele>
        <time>2019-05-04T15:40:44Z</time>
      </trkpt>
      <trkpt lat="38.793433" lon="-5.785683">
        <ele>1562.0</ele>
        <time>2019-05-04T15:40:45Z</time>
      </trkpt>
      <trkpt lat="38.793483" lon="-5.785617">
        <ele>1566.0</ele>
        <time>2019-05-04T15:40:46Z</time>
      </trkpt>
      <trkpt lat="38.793500" lon="-5.785533">
        <ele>1569.0</ele>
        <time>2019-05-04T15:40:47Z</time>
      </trkpt>
      <trkpt lat="38.793500" lon="-5.785417">
        <ele>1572.0</ele>
        <time>2019-05-04T15:40:48Z</time>
      </trkpt>
      <trkpt lat="38.793467" lon="-5.785300">
        <ele>1575.0</ele>
        <time>2019-05-04T15:40:49Z</time>
      </trkpt>
      <trkpt lat="38.793400" lon="-5.785200">
        <ele>1578.0</ele>
        <time>2019-05-04T15:40:50Z</time>
      </trkpt>
      <trkpt lat="38.793317" lon="-5.785133">
        <ele>1581.0</ele>
        <time>2019-05-04T15:40:51Z</time>
      </trkpt>
      <trkpt lat="38.793200" lon="-5.785083">
        <ele>1584.0</ele>
        <time>2019-05-04T15:40:52Z</time>
      </trkpt>
      <trkpt lat="38.793100" lon="-5.785083">
        <ele>1586.0</ele>
        <time>2019-05-04T15:40:53Z</time>
      </trkpt>
      <trkpt lat="38.793017" lon="-5.785117">
        <ele>1589.0</ele>
        <time>2019-05-04T15:40:54Z</time>
      </trkpt>
      <trkpt lat="38.792950" lon="-5.785183">
        <ele>1592.0</ele>
        <time>2019-05-04T15:40:55Z</time>
      </trkpt>
      <trkpt lat="38.792900" lon="-5.785267">
        <ele>1595.0</ele>
        <time>2019-05-04T15:40:56Z</time>
      </trkpt>
      <trkpt lat="38.792900" lon="-5.785350">
        <ele>1598.0</ele>
        <time>2019-05-04T15:40:57Z</time>
      </trkpt>
      <trkpt lat="38.792917" lon="-5.785417">
        <ele>1601.0</ele>
        <time>2019-05-04T15:40:58Z</time>
      </trkpt>
      <trkpt lat="38.792950" lon="-5.785467">
        <ele>1604.0</ele>
        <time>2019-05-04T15:40:59Z</time>
      </trkpt>
      <trkpt lat="38.793000" lon="-5.785483">
        <ele>1607.0</ele>
        <time>2019-05-04T15:41:00Z</time>
      </trkpt>
      <trkpt lat="38.793067" lon="-5.785450">
        <ele>1612.0</ele>
        <time>2019-05-04T15:41:01Z</time>
      </trkpt>
      <trkpt lat="38.793117" lon="-5.785383">
        <ele>1615.0</ele>
        <time>2019-05-04T15:41:02Z</time>
      </trkpt>
      <trkpt lat="38.793133" lon="-5.785300">
        <ele>1618.0</ele>
        <time>2019-05-04T15:41:03Z</time>
      </trkpt>
      <trkpt lat="38.793133" lon="-5.785200">
        <ele>1620.0</ele>
        <time>2019-05-04T15:41:04Z</time>
      </trkpt>
      <trkpt lat="38.793117" lon="-5.785067">
        <ele>1621.0</ele>
        <time>2019-05-04T15:41:05Z</time>
      </trkpt>
      <trkpt lat="38.793067" lon="-5.784967">
        <ele>1624.0</ele>
        <time>2019-05-04T15:41:06Z</time>
      </trkpt>
      <trkpt lat="38.792983" lon="-5.784867">
        <ele>1627.0</ele>
        <time>2019-05-04T15:41:07Z</time>
      </trkpt>
      <trkpt lat="38.792900" lon="-5.784817">
        <ele>1630.0</ele>
        <time>2019-05-04T15:41:08Z</time>
      </trkpt>
      <trkpt lat="38.792783" lon="-5.784800">
        <ele>1633.0</ele>
        <time>2019-05-04T15:41:09Z</time>
      </trkpt>
      <trkpt lat="38.792683" lon="-5.784833">
        <ele>1635.0</ele>
        <time>2019-05-04T15:41:10Z</time>
      </trkpt>
      <trkpt lat="38.792600" lon="-5.784883">
        <ele>1637.0</ele>
        <time>2019-05-04T15:41:11Z</time>
      </trkpt>
      <trkpt lat="38.792517" lon="-5.784967">
        <ele>1639.0</ele>
        <time>2019-05-04T15:41:12Z</time>
      </trkpt>
      <trkpt lat="38.792483" lon="-5.785050">
        <ele>1641.0</ele>
        <time>2019-05-04T15:41:13Z</time>
      </trkpt>
      <trkpt lat="38.792467" lon="-5.785150">
        <ele>1644.0</ele>
        <time>2019-05-04T15:41:14Z</time>
      </trkpt>
      <trkpt lat="38.792483" lon="-5.785217">
        <ele>1647.0</ele>
        <time>2019-05-04T15:41:15Z</time>
      </trkpt>
      <trkpt lat="38.792500" lon="-5.785283">
        <ele>1651.0</ele>
        <time>2019-05-04T15:41:16Z</time>
      </trkpt>
      <trkpt lat="38.792517" lon="-5.785350">
        <ele>1654.0</ele>
        <time>2019-05-04T15:41:17Z</time>
      </trkpt>
      <trkpt lat="38.792533" lon="-5.785417">
        <ele>1656.0</ele>
        <time>2019-05-04T15:41:18Z</time>
      </trkpt>
      <trkpt lat="38.792567" lon="-5.785450">
        <ele>1658.0</ele>
        <time>2019-05-04T15:41:19Z</time>
      </trkpt>
      <trkpt lat="38.792633" lon="-5.785450">
        <ele>1660.0</ele>
        <time>2019-05-04T15:41:20Z</time>
      </trkpt>
      <trkpt lat="38.792683" lon="-5.785417">
        <ele>1662.0</ele>
        <time>2019-05-04T15:41:21Z</time>
      </trkpt>
      <trkpt lat="38.792750" lon="-5.785350">
        <ele>1664.0</ele>
        <time>2019-05-04T15:41:22Z</time>
      </trkpt>
      <trkpt lat="38.792767" lon="-5.785250">
        <ele>1666.0</ele>
        <time>2019-05-04T15:41:23Z</time>
      </trkpt>
      <trkpt lat="38.792767" lon="-5.785133">
        <ele>1667.0</ele>
        <time>2019-05-04T15:41:24Z</time>
      </trkpt>
      <trkpt lat="38.792733" lon="-5.785017">
        <ele>1669.0</ele>
        <time>2019-05-04T15:41:25Z</time>
      </trkpt>
      <trkpt lat="38.792667" lon="-5.784900">
        <ele>1671.0</ele>
        <time>2019-05-04T15:41:26Z</time>
      </trkpt>
      <trkpt lat="38.792583" lon="-5.784817">
        <ele>1674.0</ele>
        <time>2019-05-04T15:41:27Z</time>
      </trkpt>
      <trkpt lat="38.792483" lon="-5.784767">
        <ele>1676.0</ele>
        <time>2019-05-04T15:41:28Z</time>
      </trkpt>
      <trkpt lat="38.792367" lon="-5.784767">
        <ele>1678.0</ele>
        <time>2019-05-04T15:41:29Z</time>
      </trkpt>
      <trkpt lat="38.792283" lon="-5.784817">
        <ele>1680.0</ele>
        <time>2019-05-04T15:41:30Z</time>
      </trkpt>
      <trkpt lat="38.792200" lon="-5.784867">
        <ele>1682.0</ele>
        <time>2019-05-04T15:41:31Z</time>
      </trkpt>
      <trkpt lat="38.792133" lon="-5.784950">
        <ele>1684.0</ele>
        <time>2019-05-04T15:41:32Z</time>
      </trkpt>
      <trkpt lat="38.792100" lon="-5.785033">
        <ele>1686.0</ele>
        <time>2019-05-04T15:41:33Z</time>
      </trkpt>
      <trkpt lat="38.792100" lon="-5.785117">
        <ele>1688.0</ele>
        <time>2019-05-04T15:41:34Z</time>
      </trkpt>
      <trkpt lat="38.792117" lon="-5.785183">
        <ele>1691.0</ele>
        <time>2019-05-04T15:41:35Z</time>
      </trkpt>
      <trkpt lat="38.792167" lon="-5.785233">
        <ele>1692.0</ele>
        <time>2019-05-04T15:41:36Z</time>
      </trkpt>
      <trkpt lat="38.792217" lon="-5.785267">
        <ele>1696.0</ele>
        <time>2019-05-04T15:41:37Z</time>
      </trkpt>
      <trkpt lat="38.792267" lon="-5.785250">
        <ele>1699.0</ele>
        <time>2019-05-04T15:41:38Z</time>
      </trkpt>
      <trkpt lat="38.792317" lon="-5.785217">
        <ele>1701.0</ele>
        <time>2019-05-04T15:41:39Z</time>
      </trkpt>
      <trkpt lat="38.792367" lon="-5.785133">
        <ele>1703.0</ele>
        <time>2019-05-04T15:41:40Z</time>
      </trkpt>
      <trkpt lat="38.792400" lon="-5.785050">
        <ele>1704.0</ele>
        <time>2019-05-04T15:41:41Z</time>
      </trkpt>
      <trkpt lat="38.792417" lon="-5.784917">
        <ele>1706.0</ele>
        <time>2019-05-04T15:41:42Z</time>
      </trkpt>
      <trkpt lat="38.792417" lon="-5.784783">
        <ele>1708.0</ele>
        <time>2019-05-04T15:41:43Z</time>
      </trkpt>
      <trkpt lat="38.792367" lon="-5.784650">
        <ele>1710.0</ele>
        <time>2019-05-04T15:41:44Z</time>
      </trkpt>
      <trkpt lat="38.792267" lon="-5.784533">
        <ele>1711.0</ele>
        <time>2019-05-04T15:41:45Z</time>
      </trkpt>
      <trkpt lat="38.792167" lon="-5.784450">
        <ele>1712.0</ele>
        <time>2019-05-04T15:41:46Z</time>
      </trkpt>
      <trkpt lat="38.792033" lon="-5.784400">
        <ele>1714.0</ele>
        <time>2019-05-04T15:41:47Z</time>
      </trkpt>
      <trkpt lat="38.791933" lon="-5.784417">
        <ele>1717.0</ele>
        <time>2019-05-04T15:41:48Z</time>
      </trkpt>
      <trkpt lat="38.791850" lon="-5.784467">
        <ele>1719.0</ele>
        <time>2019-05-04T15:41:49Z</time>
      </trkpt>
      <trkpt lat="38.791767" lon="-5.784533">
        <ele>1721.0</ele>
        <time>2019-05-04T15:41:50Z</time>
      </trkpt>
      <trkpt lat="38.791700" lon="-5.784617">
        <ele>1723.0</ele>
        <time>2019-05-04T15:41:51Z</time>
      </trkpt>
      <trkpt lat="38.791650" lon="-5.784700">
        <ele>1725.0</ele>
        <time>2019-05-04T15:41:52Z</time>
      </trkpt>
      <trkpt lat="38.791633" lon="-5.784800">
        <ele>1727.0</ele>
        <time>2019-05-04T15:41:53Z</time>
      </trkpt>
      <trkpt lat="38.791650" lon="-5.784867">
        <ele>1729.0</ele>
        <time>2019-05-04T15:41:54Z</time>
      </trkpt>
      <trkpt lat="38.791717" lon="-5.784900">
        <ele>1730.0</ele>
        <time>2019-05-04T15:41:55Z</time>
      </trkpt>
      <trkpt lat="38.791767" lon="-5.784900">
        <ele>1732.0</ele>
        <time>2019-05-04T15:41:56Z</time>
      </trkpt>
      <trkpt lat="38.791833" lon="-5.784833">
        <ele>1735.0</ele>
        <time>2019-05-04T15:41:57Z</time>
      </trkpt>
      <trkpt lat="38.791867" lon="-5.784750">
        <ele>1738.0</ele>
        <time>2019-05-04T15:41:58Z</time>
      </trkpt>
      <trkpt lat="38.791883" lon="-5.784633">
        <ele>1740.0</ele>
        <time>2019-05-04T15:41:59Z</time>
      </trkpt>
      <trkpt lat="38.791883" lon="-5.784500">
        <ele>1742.0</ele>
        <time>2019-05-04T15:42:00Z</time>
      </trkpt>
      <trkpt lat="38.791850" lon="-5.784367">
        <ele>1744.0</ele>
        <time>2019-05-04T15:42:01Z</time>
      </trkpt>
      <trkpt lat="38.791783" lon="-5.784233">
        <ele>1746.0</ele>
        <time>2019-05-04T15:42:02Z</time>
      </trkpt>
      <trkpt lat="38.791700" lon="-5.784133">
        <ele>1748.0</ele>
        <time>2019-05-04T15:42:03Z</time>
      </trkpt>
      <trkpt lat="38.791600" lon="-5.784050">
        <ele>1750.0</ele>
        <time>2019-05-04T15:42:04Z</time>
      </trkpt>
      <trkpt lat="38.791483" lon="-5.784017">
        <ele>1751.0</ele>
        <time>2019-05-04T15:42:05Z</time>
      </trkpt>
      <trkpt lat="38.791383" lon="-5.784017">
        <ele>1753.0</ele>
        <time>2019-05-04T15:42:06Z</time>
      </trkpt>
      <trkpt lat="38.791267" lon="-5.784067">
        <ele>1754.0</ele>
        <time>2019-05-04T15:42:07Z</time>
      </trkpt>
      <trkpt lat="38.791183" lon="-5.784133">
        <ele>1755.0</ele>
        <time>2019-05-04T15:42:08Z</time>
      </trkpt>
      <trkpt lat="38.791133" lon="-5.784217">
        <ele>1756.0</ele>
        <time>2019-05-04T15:42:09Z</time>
      </trkpt>
      <trkpt lat="38.791117" lon="-5.784300">
        <ele>1757.0</ele>
        <time>2019-05-04T15:42:10Z</time>
      </trkpt>
      <trkpt lat="38.791117" lon="-5.784383">
        <ele>1758.0</ele>
        <time>2019-05-04T15:42:11Z</time>
      </trkpt>
      <trkpt lat="38.791117" lon="-5.784450">
        <ele>1761.0</ele>
        <time>2019-05-04T15:42:12Z</time>
      </trkpt>
      <trkpt lat="38.791100" lon="-5.784517">
        <ele>1764.0</ele>
        <time>2019-05-04T15:42:13Z</time>
      </trkpt>
      <trkpt lat="38.791100" lon="-5.784583">
        <ele>1767.0</ele>
        <time>2019-05-04T15:42:14Z</time>
      </trkpt>
      <trkpt lat="38.791083" lon="-5.784667">
        <ele>1768.0</ele>
        <time>2019-05-04T15:42:15Z</time>
      </trkpt>
      <trkpt lat="38.791100" lon="-5.784733">
        <ele>1770.0</ele>
        <time>2019-05-04T15:42:16Z</time>
      </trkpt>
      <trkpt lat="38.791150" lon="-5.784783">
        <ele>1772.0</ele>
        <time>2019-05-04T15:42:17Z</time>
      </trkpt>
      <trkpt lat="38.791217" lon="-5.784767">
        <ele>1774.0</ele>
        <time>2019-05-04T15:42:18Z</time>
      </trkpt>
      <trkpt lat="38.791267" lon="-5.784733">
        <ele>1776.0</ele>
        <time>2019-05-04T15:42:19Z</time>
      </trkpt>
      <trkpt lat="38.791317" lon="-5.784667">
        <ele>1778.0</ele>
        <time>2019-05-04T15:42:20Z</time>
      </trkpt>
      <trkpt lat="38.791350" lon="-5.784583">
        <ele>1780.0</ele>
        <time>2019-05-04T15:42:21Z</time>
      </trkpt>
      <trkpt lat="38.791367" lon="-5.784483">
        <ele>1781.0</ele>
        <time>2019-05-04T15:42:22Z</time>
      </trkpt>
      <trkpt lat="38.791367" lon="-5.784350">
        <ele>1780.0</ele>
        <time>2019-05-04T15:42:23Z</time>
      </trkpt>
      <trkpt lat="38.791350" lon="-5.784217">
        <ele>1781.0</ele>
        <time>2019-05-04T15:42:24Z</time>
      </trkpt>
      <trkpt lat="38.791300" lon="-5.784100">
        <ele>1782.0</ele>
        <time>2019-05-04T15:42:25Z</time>
      </trkpt>
      <trkpt lat="38.791217" lon="-5.783983">
        <ele>1783.0</ele>
        <time>2019-05-04T15:42:26Z</time>
      </trkpt>
      <trkpt lat="38.791100" lon="-5.783917">
        <ele>1784.0</ele>
        <time>2019-05-04T15:42:27Z</time>
      </trkpt>
      <trkpt lat="38.790983" lon="-5.783867">
        <ele>1786.0</ele>
        <time>2019-05-04T15:42:28Z</time>
      </trkpt>
      <trkpt lat="38.790883" lon="-5.783867">
        <ele>1788.0</ele>
        <time>2019-05-04T15:42:29Z</time>
      </trkpt>
      <trkpt lat="38.790783" lon="-5.783883">
        <ele>1790.0</ele>
        <time>2019-05-04T15:42:30Z</time>
      </trkpt>
      <trkpt lat="38.790700" lon="-5.783917">
        <ele>1792.0</ele>
        <time>2019-05-04T15:42:31Z</time>
      </trkpt>
      <trkpt lat="38.790617" lon="-5.783983">
        <ele>1793.0</ele>
        <time>2019-05-04T15:42:32Z</time>
      </trkpt>
      <trkpt lat="38.790550" lon="-5.784050">
        <ele>1794.0</ele>
        <time>2019-05-04T15:42:33Z</time>
      </trkpt>
      <trkpt lat="38.790500" lon="-5.784133">
        <ele>1796.0</ele>
        <time>2019-05-04T15:42:34Z</time>
      </trkpt>
      <trkpt lat="38.790483" lon="-5.784233">
        <ele>1797.0</ele>
        <time>2019-05-04T15:42:35Z</time>
      </trkpt>
      <trkpt lat="38.790483" lon="-5.784317">
        <ele>1800.0</ele>
        <time>2019-05-04T15:42:36Z</time>
      </trkpt>
      <trkpt lat="38.790517" lon="-5.784383">
        <ele>1803.0</ele>
        <time>2019-05-04T15:42:37Z</time>
      </trkpt>
      <trkpt lat="38.790550" lon="-5.784417">
        <ele>1806.0</ele>
        <time>2019-05-04T15:42:38Z</time>
      </trkpt>
      <trkpt lat="38.790617" lon="-5.784433">
        <ele>1808.0</ele>
        <time>2019-05-04T15:42:39Z</time>
      </trkpt>
      <trkpt lat="38.790683" lon="-5.784417">
        <ele>1809.0</ele>
        <time>2019-05-04T15:42:40Z</time>
      </trkpt>
      <trkpt lat="38.790750" lon="-5.784350">
        <ele>1811.0</ele>
        <time>2019-05-04T15:42:41Z</time>
      </trkpt>
      <trkpt lat="38.790800" lon="-5.784267">
        <ele>1813.0</ele>
        <time>2019-05-04T15:42:42Z</time>
      </trkpt>
      <trkpt lat="38.790817" lon="-5.784150">
        <ele>1816.0</ele>
        <time>2019-05-04T15:42:43Z</time>
      </trkpt>
      <trkpt lat="38.790783" lon="-5.784033">
        <ele>1819.0</ele>
        <time>2019-05-04T15:42:44Z</time>
      </trkpt>
      <trkpt lat="38.790733" lon="-5.783917">
        <ele>1821.0</ele>
        <time>2019-05-04T15:42:45Z</time>
      </trkpt>
      <trkpt lat="38.790683" lon="-5.783800">
        <ele>1823.0</ele>
        <time>2019-05-04T15:42:46Z</time>
      </trkpt>
      <trkpt lat="38.790600" lon="-5.783700">
        <ele>1825.0</ele>
        <time>2019-05-04T15:42:47Z</time>
      </trkpt>
      <trkpt lat="38.790500" lon="-5.783617">
        <ele>1827.0</ele>
        <time>2019-05-04T15:42:48Z</time>
      </trkpt>
      <trkpt lat="38.790400" lon="-5.783583">
        <ele>1829.0</ele>
        <time>2019-05-04T15:42:49Z</time>
      </trkpt>
      <trkpt lat="38.790283" lon="-5.783583">
        <ele>1831.0</ele>
        <time>2019-05-04T15:42:50Z</time>
      </trkpt>
      <trkpt lat="38.790183" lon="-5.783633">
        <ele>1832.0</ele>
        <time>2019-05-04T15:42:51Z</time>
      </trkpt>
      <trkpt lat="38.790100" lon="-5.783683">
        <ele>1834.0</ele>
        <time>2019-05-04T15:42:52Z</time>
      </trkpt>
      <trkpt lat="38.790050" lon="-5.783767">
        <ele>1836.0</ele>
        <time>2019-05-04T15:42:53Z</time>
      </trkpt>
      <trkpt lat="38.790017" lon="-5.783850">
        <ele>1837.0</ele>
        <time>2019-05-04T15:42:54Z</time>
      </trkpt>
      <trkpt lat="38.790000" lon="-5.783917">
        <ele>1839.0</ele>
        <time>2019-05-04T15:42:55Z</time>
      </trkpt>
      <trkpt lat="38.790017" lon="-5.783983">
        <ele>1841.0</ele>
        <time>2019-05-04T15:42:56Z</time>
      </trkpt>
      <trkpt lat="38.790033" lon="-5.784050">
        <ele>1844.0</ele>
        <time>2019-05-04T15:42:57Z</time>
      </trkpt>
      <trkpt lat="38.790067" lon="-5.784100">
        <ele>1845.0</ele>
        <time>2019-05-04T15:42:58Z</time>
      </trkpt>
      <trkpt lat="38.790117" lon="-5.784133">
        <ele>1847.0</ele>
        <time>2019-05-04T15:42:59Z</time>
      </trkpt>
      <trkpt lat="38.790167" lon="-5.784133">
        <ele>1849.0</ele>
        <time>2019-05-04T15:43:00Z</time>
      </trkpt>
      <trkpt lat="38.790233" lon="-5.784100">
        <ele>1851.0</ele>
        <time>2019-05-04T15:43:01Z</time>
      </trkpt>
      <trkpt lat="38.790283" lon="-5.784033">
        <ele>1852.0</ele>
        <time>2019-05-04T15:43:02Z</time>
      </trkpt>
      <trkpt lat="38.790333" lon="-5.783933">
        <ele>1853.0</ele>
        <time>2019-05-04T15:43:03Z</time>
      </trkpt>
      <trkpt lat="38.790350" lon="-5.783817">
        <ele>1855.0</ele>
        <time>2019-05-04T15:43:04Z</time>
      </trkpt>
      <trkpt lat="38.790350" lon="-5.783700">
        <ele>1857.0</ele>
        <time>2019-05-04T15:43:05Z</time>
      </trkpt>
      <trkpt lat="38.790300" lon="-5.783583">
        <ele>1858.0</ele>
        <time>2019-05-04T15:43:06Z</time>
      </trkpt>
      <trkpt lat="38.790233" lon="-5.783483">
        <ele>1860.0</ele>
        <time>2019-05-04T15:43:07Z</time>
      </trkpt>
      <trkpt lat="38.790167" lon="-5.783400">
        <ele>1862.0</ele>
        <time>2019-05-04T15:43:08Z</time>
      </trkpt>
      <trkpt lat="38.790067" lon="-5.783317">
        <ele>1863.0</ele>
        <time>2019-05-04T15:43:09Z</time>
      </trkpt>
      <trkpt lat="38.789950" lon="-5.783283">
        <ele>1865.0</ele>
        <time>2019-05-04T15:43:10Z</time>
      </trkpt>
      <trkpt lat="38.789850" lon="-5.783283">
        <ele>1866.0</ele>
        <time>2019-05-04T15:43:11Z</time>
      </trkpt>
      <trkpt lat="38.789767" lon="-5.783333">
        <ele>1867.0</ele>
        <time>2019-05-04T15:43:12Z</time>
      </trkpt>
      <trkpt lat="38.789717" lon="-5.783400">
        <ele>1869.0</ele>
        <time>2019-05-04T15:43:13Z</time>
      </trkpt>
      <trkpt lat="38.789700" lon="-5.783467">
        <ele>1870.0</ele>
        <time>2019-05-04T15:43:14Z</time>
      </trkpt>
      <trkpt lat="38.789700" lon="-5.783550">
        <ele>1872.0</ele>
        <time>2019-05-04T15:43:15Z</time>
      </trkpt>
      <trkpt lat="38.789717" lon="-5.783617">
        <ele>1873.0</ele>
        <time>2019-05-04T15:43:16Z</time>
      </trkpt>
      <trkpt lat="38.789767" lon="-5.783667">
        <ele>1875.0</ele>
        <time>2019-05-04T15:43:17Z</time>
      </trkpt>
      <trkpt lat="38.789817" lon="-5.783683">
        <ele>1878.0</ele>
        <time>2019-05-04T15:43:18Z</time>
      </trkpt>
      <trkpt lat="38.789867" lon="-5.783683">
        <ele>1880.0</ele>
        <time>2019-05-04T15:43:19Z</time>
      </trkpt>
      <trkpt lat="38.789933" lon="-5.783650">
        <ele>1881.0</ele>
        <time>2019-05-04T15:43:20Z</time>
      </trkpt>
      <trkpt lat="38.790000" lon="-5.783600">
        <ele>1882.0</ele>
        <time>2019-05-04T15:43:21Z</time>
      </trkpt>
      <trkpt lat="38.790033" lon="-5.783500">
        <ele>1884.0</ele>
        <time>2019-05-04T15:43:22Z</time>
      </trkpt>
      <trkpt lat="38.790050" lon="-5.783400">
        <ele>1885.0</ele>
        <time>2019-05-04T15:43:23Z</time>
      </trkpt>
      <trkpt lat="38.790050" lon="-5.783267">
        <ele>1887.0</ele>
        <time>2019-05-04T15:43:24Z</time>
      </trkpt>
      <trkpt lat="38.790033" lon="-5.783117">
        <ele>1888.0</ele>
        <time>2019-05-04T15:43:25Z</time>
      </trkpt>
      <trkpt lat="38.790000" lon="-5.783000">
        <ele>1890.0</ele>
        <time>2019-05-04T15:43:26Z</time>
      </trkpt>
      <trkpt lat="38.789967" lon="-5.782883">
        <ele>1893.0</ele>
        <time>2019-05-04T15:43:27Z</time>
      </trkpt>
      <trkpt lat="38.789900" lon="-5.782783">
        <ele>1895.0</ele>
        <time>2019-05-04T15:43:28Z</time>
      </trkpt>
      <trkpt lat="38.789800" lon="-5.782700">
        <ele>1896.0</ele>
        <time>2019-05-04T15:43:29Z</time>
      </trkpt>
      <trkpt lat="38.789700" lon="-5.782667">
        <ele>1898.0</ele>
        <time>2019-05-04T15:43:30Z</time>
      </trkpt>
      <trkpt lat="38.789583" lon="-5.782667">
        <ele>1899.0</ele>
        <time>2019-05-04T15:43:31Z</time>
      </trkpt>
      <trkpt lat="38.789500" lon="-5.782700">
        <ele>1900.0</ele>
        <time>2019-05-04T15:43:32Z</time>
      </trkpt>
      <trkpt lat="38.789417" lon="-5.782767">
        <ele>1901.0</ele>
        <time>2019-05-04T15:43:33Z</time>
      </trkpt>
      <trkpt lat="38.789383" lon="-5.782850">
        <ele>1902.0</ele>
        <time>2019-05-04T15:43:34Z</time>
      </trkpt>
      <trkpt lat="38.789367" lon="-5.782933">
        <ele>1904.0</ele>
        <time>2019-05-04T15:43:35Z</time>
      </trkpt>
      <trkpt lat="38.789367" lon="-5.783017">
        <ele>1905.0</ele>
        <time>2019-05-04T15:43:36Z</time>
      </trkpt>
      <trkpt lat="38.789400" lon="-5.783067">
        <ele>1906.0</ele>
        <time>2019-05-04T15:43:37Z</time>
      </trkpt>
      <trkpt lat="38.789450" lon="-5.783100">
        <ele>1907.0</ele>
        <time>2019-05-04T15:43:38Z</time>
      </trkpt>
      <trkpt lat="38.789517" lon="-5.783100">
        <ele>1908.0</ele>
        <time>2019-05-04T15:43:39Z</time>
      </trkpt>
      <trkpt lat="38.789583" lon="-5.783067">
        <ele>1909.0</ele>
        <time>2019-05-04T15:43:40Z</time>
      </trkpt>
      <trkpt lat="38.789633" lon="-5.783000">
        <ele>1910.0</ele>
        <time>2019-05-04T15:43:41Z</time>
      </trkpt>
      <trkpt lat="38.789667" lon="-5.782883">
        <ele>1911.0</ele>
        <time>2019-05-04T15:43:42Z</time>
      </trkpt>
      <trkpt lat="38.789700" lon="-5.782767">
        <ele>1912.0</ele>
        <time>2019-05-04T15:43:43Z</time>
      </trkpt>
      <trkpt lat="38.789700" lon="-5.782650">
        <ele>1914.0</ele>
        <time>2019-05-04T15:43:44Z</time>
      </trkpt>
      <trkpt lat="38.789683" lon="-5.782533">
        <ele>1916.0</ele>
        <time>2019-05-04T15:43:45Z</time>
      </trkpt>
      <trkpt lat="38.789650" lon="-5.782400">
        <ele>1917.0</ele>
        <time>2019-05-04T15:43:46Z</time>
      </trkpt>
      <trkpt lat="38.789600" lon="-5.782267">
        <ele>1918.0</ele>
        <time>2019-05-04T15:43:47Z</time>
      </trkpt>
      <trkpt lat="38.789550" lon="-5.782150">
        <ele>1919.0</ele>
        <time>2019-05-04T15:43:48Z</time>
      </trkpt>
      <trkpt lat="38.789450" lon="-5.782050">
        <ele>1919.0</ele>
        <time>2019-05-04T15:43:49Z</time>
      </trkpt>
      <trkpt lat="38.789350" lon="-5.782000">
        <ele>1920.0</ele>
        <time>2019-05-04T15:43:50Z</time>
      </trkpt>
      <trkpt lat="38.789233" lon="-5.781983">
        <ele>1921.0</ele>
        <time>2019-05-04T15:43:51Z</time>
      </trkpt>
      <trkpt lat="38.789133" lon="-5.782000">
        <ele>1922.0</ele>
        <time>2019-05-04T15:43:52Z</time>
      </trkpt>
      <trkpt lat="38.789067" lon="-5.782050">
        <ele>1923.0</ele>
        <time>2019-05-04T15:43:53Z</time>
      </trkpt>
      <trkpt lat="38.789017" lon="-5.782117">
        <ele>1924.0</ele>
        <time>2019-05-04T15:43:54Z</time>
      </trkpt>
      <trkpt lat="38.788983" lon="-5.782200">
        <ele>1925.0</ele>
        <time>2019-05-04T15:43:55Z</time>
      </trkpt>
      <trkpt lat="38.788983" lon="-5.782283">
        <ele>1926.0</ele>
        <time>2019-05-04T15:43:56Z</time>
      </trkpt>
      <trkpt lat="38.789000" lon="-5.782350">
        <ele>1927.0</ele>
        <time>2019-05-04T15:43:57Z</time>
      </trkpt>
      <trkpt lat="38.789050" lon="-5.782383">
        <ele>1929.0</ele>
        <time>2019-05-04T15:43:58Z</time>
      </trkpt>
      <trkpt lat="38.789117" lon="-5.782383">
        <ele>1929.0</ele>
        <time>2019-05-04T15:43:59Z</time>
      </trkpt>
      <trkpt lat="38.789183" lon="-5.782333">
        <ele>1931.0</ele>
        <time>2019-05-04T15:44:00Z</time>
      </trkpt>
      <trkpt lat="38.789233" lon="-5.782267">
        <ele>1933.0</ele>
        <time>2019-05-04T15:44:01Z</time>
      </trkpt>
      <trkpt lat="38.789267" lon="-5.782167">
        <ele>1934.0</ele>
        <time>2019-05-04T15:44:02Z</time>
      </trkpt>
      <trkpt lat="38.789283" lon="-5.782033">
        <ele>1935.0</ele>
        <time>2019-05-04T15:44:03Z</time>
      </trkpt>
      <trkpt lat="38.789267" lon="-5.781933">
        <ele>1934.0</ele>
        <time>2019-05-04T15:44:04Z</time>
      </trkpt>
      <trkpt lat="38.789233" lon="-5.781800">
        <ele>1935.0</ele>
        <time>2019-05-04T15:44:05Z</time>
      </trkpt>
      <trkpt lat="38.789167" lon="-5.781683">
        <ele>1936.0</ele>
        <time>2019-05-04T15:44:06Z</time>
      </trkpt>
      <trkpt lat="38.789100" lon="-5.781583">
        <ele>1937.0</ele>
        <time>2019-05-04T15:44:07Z</time>
      </trkpt>
      <trkpt lat="38.789000" lon="-5.781500">
        <ele>1938.0</ele>
        <time>2019-05-04T15:44:08Z</time>
      </trkpt>
      <trkpt lat="38.788883" lon="-5.781450">
        <ele>1939.0</ele>
        <time>2019-05-04T15:44:09Z</time>
      </trkpt>
      <trkpt lat="38.788767" lon="-5.781450">
        <ele>1940.0</ele>
        <time>2019-05-04T15:44:10Z</time>
      </trkpt>
      <trkpt lat="38.788667" lon="-5.781500">
        <ele>1941.0</ele>
        <time>2019-05-04T15:44:11Z</time>
      </trkpt>
      <trkpt lat="38.788600" lon="-5.781550">
        <ele>1942.0</ele>
        <time>2019-05-04T15:44:12Z</time>
      </trkpt>
      <trkpt lat="38.788550" lon="-5.781633">
        <ele>1944.0</ele>
        <time>2019-05-04T15:44:13Z</time>
      </trkpt>
      <trkpt lat="38.788533" lon="-5.781717">
        <ele>1946.0</ele>
        <time>2019-05-04T15:44:14Z</time>
      </trkpt>
      <trkpt lat="38.788533" lon="-5.781800">
        <ele>1947.0</ele>
        <time>2019-05-04T15:44:15Z</time>
      </trkpt>
      <trkpt lat="38.788550" lon="-5.781850">
        <ele>1949.0</ele>
        <time>2019-05-04T15:44:16Z</time>
      </trkpt>
      <trkpt lat="38.788583" lon="-5.781900">
        <ele>1951.0</ele>
        <time>2019-05-04T15:44:17Z</time>
      </trkpt>
      <trkpt lat="38.788633" lon="-5.781917">
        <ele>1953.0</ele>
        <time>2019-05-04T15:44:18Z</time>
      </trkpt>
      <trkpt lat="38.788700" lon="-5.781900">
        <ele>1954.0</ele>
        <time>2019-05-04T15:44:19Z</time>
      </trkpt>
      <trkpt lat="38.788750" lon="-5.781850">
        <ele>1955.0</ele>
        <time>2019-05-04T15:44:20Z</time>
      </trkpt>
      <trkpt lat="38.788817" lon="-5.781783">
        <ele>1957.0</ele>
        <time>2019-05-04T15:44:21Z</time>
      </trkpt>
      <trkpt lat="38.788850" lon="-5.781683">
        <ele>1958.0</ele>
        <time>2019-05-04T15:44:22Z</time>
      </trkpt>
      <trkpt lat="38.788867" lon="-5.781567">
        <ele>1959.0</ele>
        <time>2019-05-04T15:44:23Z</time>
      </trkpt>
      <trkpt lat="38.788850" lon="-5.781433">
        <ele>1958.0</ele>
        <time>2019-05-04T15:44:24Z</time>
      </trkpt>
      <trkpt lat="38.788817" lon="-5.781300">
        <ele>1959.0</ele>
        <time>2019-05-04T15:44:25Z</time>
      </trkpt>
      <trkpt lat="38.788767" lon="-5.781167">
        <ele>1959.0</ele>
        <time>2019-05-04T15:44:26Z</time>
      </trkpt>
      <trkpt lat="38.788683" lon="-5.781067">
        <ele>1959.0</ele>
        <time>2019-05-04T15:44:27Z</time>
      </trkpt>
      <trkpt lat="38.788567" lon="-5.780983">
        <ele>1960.0</ele>
        <time>2019-05-04T15:44:28Z</time>
      </trkpt>
      <trkpt lat="38.788450" lon="-5.780950">
        <ele>1960.0</ele>
        <time>2019-05-04T15:44:29Z</time>
      </trkpt>
      <trkpt lat="38.788333" lon="-5.780967">
        <ele>1961.0</ele>
        <time>2019-05-04T15:44:30Z</time>
      </trkpt>
      <trkpt lat="38.788233" lon="-5.781000">
        <ele>1961.0</ele>
        <time>2019-05-04T15:44:31Z</time>
      </trkpt>
      <trkpt lat="38.788167" lon="-5.781083">
        <ele>1962.0</ele>
        <time>2019-05-04T15:44:32Z</time>
      </trkpt>
      <trkpt lat="38.788133" lon="-5.781167">
        <ele>1963.0</ele>
        <time>2019-05-04T15:44:33Z</time>
      </trkpt>
      <trkpt lat="38.788133" lon="-5.781250">
        <ele>1963.0</ele>
        <time>2019-05-04T15:44:34Z</time>
      </trkpt>
      <trkpt lat="38.788133" lon="-5.781317">
        <ele>1964.0</ele>
        <time>2019-05-04T15:44:35Z</time>
      </trkpt>
      <trkpt lat="38.788117" lon="-5.781367">
        <ele>1966.0</ele>
        <time>2019-05-04T15:44:36Z</time>
      </trkpt>
      <trkpt lat="38.788117" lon="-5.781433">
        <ele>1966.0</ele>
        <time>2019-05-04T15:44:37Z</time>
      </trkpt>
      <trkpt lat="38.788117" lon="-5.781500">
        <ele>1967.0</ele>
        <time>2019-05-04T15:44:38Z</time>
      </trkpt>
      <trkpt lat="38.788150" lon="-5.781567">
        <ele>1967.0</ele>
        <time>2019-05-04T15:44:39Z</time>
      </trkpt>
      <trkpt lat="38.788200" lon="-5.781583">
        <ele>1968.0</ele>
        <time>2019-05-04T15:44:40Z</time>
      </trkpt>
      <trkpt lat="38.788250" lon="-5.781600">
        <ele>1969.0</ele>
        <time>2019-05-04T15:44:41Z</time>
      </trkpt>
      <trkpt lat="38.788300" lon="-5.781567">
        <ele>1971.0</ele>
        <time>2019-05-04T15:44:42Z</time>
      </trkpt>
      <trkpt lat="38.788350" lon="-5.781517">
        <ele>1973.0</ele>
        <time>2019-05-04T15:44:43Z</time>
      </trkpt>
      <trkpt lat="38.788383" lon="-5.781433">
        <ele>1974.0</ele>
        <time>2019-05-04T15:44:44Z</time>
      </trkpt>
      <trkpt lat="38.788433" lon="-5.781333">
        <ele>1974.0</ele>
        <time>2019-05-04T15:44:45Z</time>
      </trkpt>
      <trkpt lat="38.788450" lon="-5.781200">
        <ele>1974.0</ele>
        <time>2019-05-04T15:44:46Z</time>
      </trkpt>
      <trkpt lat="38.788450" lon="-5.781050">
        <ele>1975.0</ele>
        <time>2019-05-04T15:44:47Z</time>
      </trkpt>
      <trkpt lat="38.788417" lon="-5.780900">
        <ele>1977.0</ele>
        <time>2019-05-04T15:44:48Z</time>
      </trkpt>
      <trkpt lat="38.788350" lon="-5.780767">
        <ele>1979.0</ele>
        <time>2019-05-04T15:44:49Z</time>
      </trkpt>
      <trkpt lat="38.788283" lon="-5.780667">
        <ele>1981.0</ele>
        <time>2019-05-04T15:44:50Z</time>
      </trkpt>
      <trkpt lat="38.788217" lon="-5.780567">
        <ele>1983.0</ele>
        <time>2019-05-04T15:44:51Z</time>
      </trkpt>
      <trkpt lat="38.788150" lon="-5.780483">
        <ele>1984.0</ele>
        <time>2019-05-04T15:44:52Z</time>
      </trkpt>
      <trkpt lat="38.788067" lon="-5.780383">
        <ele>1983.0</ele>
        <time>2019-05-04T15:44:53Z</time>
      </trkpt>
      <trkpt lat="38.787967" lon="-5.780317">
        <ele>1982.0</ele>
        <time>2019-05-04T15:44:54Z</time>
      </trkpt>
      <trkpt lat="38.787850" lon="-5.780300">
        <ele>1981.0</ele>
        <time>2019-05-04T15:44:55Z</time>
      </trkpt>
      <trkpt lat="38.787733" lon="-5.780317">
        <ele>1980.0</ele>
        <time>2019-05-04T15:44:56Z</time>
      </trkpt>
      <trkpt lat="38.787650" lon="-5.780383">
        <ele>1979.0</ele>
        <time>2019-05-04T15:44:57Z</time>
      </trkpt>
      <trkpt lat="38.787600" lon="-5.780483">
        <ele>1978.0</ele>
        <time>2019-05-04T15:44:58Z</time>
      </trkpt>
      <trkpt lat="38.787600" lon="-5.780567">
        <ele>1977.0</ele>
        <time>2019-05-04T15:44:59Z</time>
      </trkpt>
      <trkpt lat="38.787633" lon="-5.780633">
        <ele>1977.0</ele>
        <time>2019-05-04T15:45:00Z</time>
      </trkpt>
      <trkpt lat="38.787683" lon="-5.780683">
        <ele>1976.0</ele>
        <time>2019-05-04T15:45:01Z</time>
      </trkpt>
      <trkpt lat="38.787733" lon="-5.780683">
        <ele>1976.0</ele>
        <time>2019-05-04T15:45:02Z</time>
      </trkpt>
      <trkpt lat="38.787800" lon="-5.780633">
        <ele>1977.0</ele>
        <time>2019-05-04T15:45:03Z</time>
      </trkpt>
      <trkpt lat="38.787850" lon="-5.780550">
        <ele>1978.0</ele>
        <time>2019-05-04T15:45:04Z</time>
      </trkpt>
      <trkpt lat="38.787883" lon="-5.780417">
        <ele>1978.0</ele>
        <time>2019-05-04T15:45:05Z</time>
      </trkpt>
      <trkpt lat="38.787883" lon="-5.780267">
        <ele>1978.0</ele>
        <time>2019-05-04T15:45:06Z</time>
      </trkpt>
      <trkpt lat="38.787883" lon="-5.780133">
        <ele>1978.0</ele>
        <time>2019-05-04T15:45:07Z</time>
      </trkpt>
      <trkpt lat="38.787867" lon="-5.780000">
        <ele>1980.0</ele>
        <time>2019-05-04T15:45:08Z</time>
      </trkpt>
      <trkpt lat="38.787867" lon="-5.779867">
        <ele>1981.0</ele>
        <time>2019-05-04T15:45:09Z</time>
      </trkpt>
      <trkpt lat="38.787850" lon="-5.779717">
        <ele>1982.0</ele>
        <time>2019-05-04T15:45:10Z</time>
      </trkpt>
      <trkpt lat="38.787850" lon="-5.779567">
        <ele>1982.0</ele>
        <time>2019-05-04T15:45:11Z</time>
      </trkpt>
      <trkpt lat="38.787833" lon="-5.779417">
        <ele>1983.0</ele>
        <time>2019-05-04T15:45:12Z</time>
      </trkpt>
      <trkpt lat="38.787800" lon="-5.779283">
        <ele>1985.0</ele>
        <time>2019-05-04T15:45:13Z</time>
      </trkpt>
      <trkpt lat="38.787767" lon="-5.779150">
        <ele>1987.0</ele>
        <time>2019-05-04T15:45:14Z</time>
      </trkpt>
      <trkpt lat="38.787733" lon="-5.779050">
        <ele>1989.0</ele>
        <time>2019-05-04T15:45:15Z</time>
      </trkpt>
      <trkpt lat="38.787700" lon="-5.778933">
        <ele>1989.0</ele>
        <time>2019-05-04T15:45:16Z</time>
      </trkpt>
      <trkpt lat="38.787650" lon="-5.778817">
        <ele>1990.0</ele>
        <time>2019-05-04T15:45:17Z</time>
      </trkpt>
      <trkpt lat="38.787617" lon="-5.778700">
        <ele>1990.0</ele>
        <time>2019-05-04T15:45:18Z</time>
      </trkpt>
      <trkpt lat="38.787567" lon="-5.778567">
        <ele>1990.0</ele>
        <time>2019-05-04T15:45:19Z</time>
      </trkpt>
      <trkpt lat="38.787517" lon="-5.778450">
        <ele>1990.0</ele>
        <time>2019-05-04T15:45:20Z</time>
      </trkpt>
      <trkpt lat="38.787467" lon="-5.778333">
        <ele>1989.0</ele>
        <time>2019-05-04T15:45:21Z</time>
      </trkpt>
      <trkpt lat="38.787417" lon="-5.778200">
        <ele>1988.0</ele>
        <time>2019-05-04T15:45:22Z</time>
      </trkpt>
      <trkpt lat="38.787350" lon="-5.778067">
        <ele>1987.0</ele>
        <time>2019-05-04T15:45:23Z</time>
      </trkpt>
      <trkpt lat="38.787300" lon="-5.777917">
        <ele>1986.0</ele>
        <time>2019-05-04T15:45:24Z</time>
      </trkpt>
      <trkpt lat="38.787250" lon="-5.777783">
        <ele>1985.0</ele>
        <time>2019-05-04T15:45:25Z</time>
      </trkpt>
      <trkpt lat="38.787200" lon="-5.777667">
        <ele>1985.0</ele>
        <time>2019-05-04T15:45:26Z</time>
      </trkpt>
      <trkpt lat="38.787150" lon="-5.777533">
        <ele>1984.0</ele>
        <time>2019-05-04T15:45:27Z</time>
      </trkpt>
      <trkpt lat="38.787083" lon="-5.777400">
        <ele>1982.0</ele>
        <time>2019-05-04T15:45:28Z</time>
      </trkpt>
      <trkpt lat="38.787017" lon="-5.777267">
        <ele>1980.0</ele>
        <time>2019-05-04T15:45:29Z</time>
      </trkpt>
      <trkpt lat="38.786950" lon="-5.777133">
        <ele>1978.0</ele>
        <time>2019-05-04T15:45:30Z</time>
      </trkpt>
      <trkpt lat="38.786900" lon="-5.777000">
        <ele>1976.0</ele>
        <time>2019-05-04T15:45:31Z</time>
      </trkpt>
      <trkpt lat="38.786867" lon="-5.776867">
        <ele>1974.0</ele>
        <time>2019-05-04T15:45:32Z</time>
      </trkpt>
      <trkpt lat="38.786817" lon="-5.776733">
        <ele>1973.0</ele>
        <time>2019-05-04T15:45:33Z</time>
      </trkpt>
      <trkpt lat="38.786767" lon="-5.776583">
        <ele>1972.0</ele>
        <time>2019-05-04T15:45:34Z</time>
      </trkpt>
      <trkpt lat="38.786733" lon="-5.776450">
        <ele>1971.0</ele>
        <time>2019-05-04T15:45:35Z</time>
      </trkpt>
      <trkpt lat="38.786683" lon="-5.776317">
        <ele>1969.0</ele>
        <time>2019-05-04T15:45:36Z</time>
      </trkpt>
      <trkpt lat="38.786633" lon="-5.776167">
        <ele>1967.0</ele>
        <time>2019-05-04T15:45:37Z</time>
      </trkpt>
      <trkpt lat="38.786583" lon="-5.776017">
        <ele>1966.0</ele>
        <time>2019-05-04T15:45:38Z</time>
      </trkpt>
      <trkpt lat="38.786550" lon="-5.775883">
        <ele>1964.0</ele>
        <time>2019-05-04T15:45:39Z</time>
      </trkpt>
      <trkpt lat="38.786500" lon="-5.775733">
        <ele>1962.0</ele>
        <time>2019-05-04T15:45:40Z</time>
      </trkpt>
      <trkpt lat="38.786450" lon="-5.775600">
        <ele>1961.0</ele>
        <time>2019-05-04T15:45:41Z</time>
      </trkpt>
      <trkpt lat="38.786417" lon="-5.775417">
        <ele>1960.0</ele>
        <time>2019-05-04T15:45:42Z</time>
      </trkpt>
      <trkpt lat="38.786350" lon="-5.775267">
        <ele>1964.0</ele>
        <time>2019-05-04T15:45:43Z</time>
      </trkpt>
      <trkpt lat="38.786300" lon="-5.775133">
        <ele>1968.0</ele>
        <time>2019-05-04T15:45:44Z</time>
      </trkpt>
      <trkpt lat="38.786267" lon="-5.775017">
        <ele>1969.0</ele>
        <time>2019-05-04T15:45:45Z</time>
      </trkpt>
      <trkpt lat="38.786233" lon="-5.774900">
        <ele>1969.0</ele>
        <time>2019-05-04T15:45:46Z</time>
      </trkpt>
      <trkpt lat="38.786200" lon="-5.774750">
        <ele>1970.0</ele>
        <time>2019-05-04T15:45:47Z</time>
      </trkpt>
      <trkpt lat="38.786150" lon="-5.774600">
        <ele>1969.0</ele>
        <time>2019-05-04T15:45:48Z</time>
      </trkpt>
      <trkpt lat="38.786083" lon="-5.774467">
        <ele>1969.0</ele>
        <time>2019-05-04T15:45:49Z</time>
      </trkpt>
      <trkpt lat="38.786033" lon="-5.774317">
        <ele>1970.0</ele>
        <time>2019-05-04T15:45:50Z</time>
      </trkpt>
      <trkpt lat="38.785983" lon="-5.774200">
        <ele>1971.0</ele>
        <time>2019-05-04T15:45:51Z</time>
      </trkpt>
      <trkpt lat="38.785950" lon="-5.774083">
        <ele>1972.0</ele>
        <time>2019-05-04T15:45:52Z</time>
      </trkpt>
      <trkpt lat="38.785917" lon="-5.773950">
        <ele>1971.0</ele>
        <time>2019-05-04T15:45:53Z</time>
      </trkpt>
      <trkpt lat="38.785883" lon="-5.773817">
        <ele>1970.0</ele>
        <time>2019-05-04T15:45:54Z</time>
      </trkpt>
      <trkpt lat="38.785833" lon="-5.773667">
        <ele>1969.0</ele>
        <time>2019-05-04T15:45:55Z</time>
      </trkpt>
      <trkpt lat="38.785783" lon="-5.773517">
        <ele>1969.0</ele>
        <time>2019-05-04T15:45:56Z</time>
      </trkpt>
      <trkpt lat="38.785733" lon="-5.773367">
        <ele>1971.0</ele>
        <time>2019-05-04T15:45:57Z</time>
      </trkpt>
      <trkpt lat="38.785717" lon="-5.773233">
        <ele>1974.0</ele>
        <time>2019-05-04T15:45:58Z</time>
      </trkpt>
      <trkpt lat="38.785700" lon="-5.773100">
        <ele>1977.0</ele>
        <time>2019-05-04T15:45:59Z</time>
      </trkpt>
      <trkpt lat="38.785700" lon="-5.772967">
        <ele>1978.0</ele>
        <time>2019-05-04T15:46:00Z</time>
      </trkpt>
      <trkpt lat="38.785667" lon="-5.772867">
        <ele>1979.0</ele>
        <time>2019-05-04T15:46:01Z</time>
      </trkpt>
      <trkpt lat="38.785633" lon="-5.772750">
        <ele>1980.0</ele>
        <time>2019-05-04T15:46:02Z</time>
      </trkpt>
      <trkpt lat="38.785583" lon="-5.772633">
        <ele>1979.0</ele>
        <time>2019-05-04T15:46:03Z</time>
      </trkpt>
      <trkpt lat="38.785517" lon="-5.772533">
        <ele>1977.0</ele>
        <time>2019-05-04T15:46:04Z</time>
      </trkpt>
      <trkpt lat="38.785450" lon="-5.772450">
        <ele>1975.0</ele>
        <time>2019-05-04T15:46:05Z</time>
      </trkpt>
      <trkpt lat="38.785383" lon="-5.772350">
        <ele>1973.0</ele>
        <time>2019-05-04T15:46:06Z</time>
      </trkpt>
      <trkpt lat="38.785317" lon="-5.772250">
        <ele>1971.0</ele>
        <time>2019-05-04T15:46:07Z</time>
      </trkpt>
      <trkpt lat="38.785267" lon="-5.772117">
        <ele>1968.0</ele>
        <time>2019-05-04T15:46:08Z</time>
      </trkpt>
      <trkpt lat="38.785217" lon="-5.771983">
        <ele>1965.0</ele>
        <time>2019-05-04T15:46:09Z</time>
      </trkpt>
      <trkpt lat="38.785167" lon="-5.771833">
        <ele>1962.0</ele>
        <time>2019-05-04T15:46:10Z</time>
      </trkpt>
      <trkpt lat="38.785117" lon="-5.771683">
        <ele>1960.0</ele>
        <time>2019-05-04T15:46:11Z</time>
      </trkpt>
      <trkpt lat="38.785100" lon="-5.771533">
        <ele>1959.0</ele>
        <time>2019-05-04T15:46:12Z</time>
      </trkpt>
      <trkpt lat="38.785083" lon="-5.771383">
        <ele>1959.0</ele>
        <time>2019-05-04T15:46:13Z</time>
      </trkpt>
      <trkpt lat="38.785067" lon="-5.771217">
        <ele>1957.0</ele>
        <time>2019-05-04T15:46:14Z</time>
      </trkpt>
      <trkpt lat="38.785050" lon="-5.771050">
        <ele>1956.0</ele>
        <time>2019-05-04T15:46:15Z</time>
      </trkpt>
      <trkpt lat="38.785017" lon="-5.770900">
        <ele>1954.0</ele>
        <time>2019-05-04T15:46:16Z</time>
      </trkpt>
      <trkpt lat="38.784983" lon="-5.770750">
        <ele>1954.0</ele>
        <time>2019-05-04T15:46:17Z</time>
      </trkpt>
      <trkpt lat="38.784967" lon="-5.770617">
        <ele>1954.0</ele>
        <time>2019-05-04T15:46:18Z</time>
      </trkpt>
      <trkpt lat="38.784967" lon="-5.770483">
        <ele>1953.0</ele>
        <time>2019-05-04T15:46:19Z</time>
      </trkpt>
      <trkpt lat="38.784967" lon="-5.770350">
        <ele>1952.0</ele>
        <time>2019-05-04T15:46:20Z</time>
      </trkpt>
      <trkpt lat="38.784950" lon="-5.770233">
        <ele>1950.0</ele>
        <time>2019-05-04T15:46:21Z</time>
      </trkpt>
      <trkpt lat="38.784917" lon="-5.770100">
        <ele>1948.0</ele>
        <time>2019-05-04T15:46:22Z</time>
      </trkpt>
      <trkpt lat="38.784900" lon="-5.769967">
        <ele>1946.0</ele>
        <time>2019-05-04T15:46:23Z</time>
      </trkpt>
      <trkpt lat="38.784883" lon="-5.769833">
        <ele>1945.0</ele>
        <time>2019-05-04T15:46:24Z</time>
      </trkpt>
      <trkpt lat="38.784867" lon="-5.769717">
        <ele>1943.0</ele>
        <time>2019-05-04T15:46:25Z</time>
      </trkpt>
      <trkpt lat="38.784850" lon="-5.769583">
        <ele>1942.0</ele>
        <time>2019-05-04T15:46:26Z</time>
      </trkpt>
      <trkpt lat="38.784817" lon="-5.769467">
        <ele>1940.0</ele>
        <time>2019-05-04T15:46:27Z</time>
      </trkpt>
      <trkpt lat="38.784783" lon="-5.769350">
        <ele>1938.0</ele>
        <time>2019-05-04T15:46:28Z</time>
      </trkpt>
      <trkpt lat="38.784783" lon="-5.769233">
        <ele>1935.0</ele>
        <time>2019-05-04T15:46:29Z</time>
      </trkpt>
      <trkpt lat="38.784767" lon="-5.769117">
        <ele>1932.0</ele>
        <time>2019-05-04T15:46:30Z</time>
      </trkpt>
      <trkpt lat="38.784750" lon="-5.768983">
        <ele>1928.0</ele>
        <time>2019-05-04T15:46:31Z</time>
      </trkpt>
      <trkpt lat="38.784717" lon="-5.768850">
        <ele>1923.0</ele>
        <time>2019-05-04T15:46:32Z</time>
      </trkpt>
      <trkpt lat="38.784683" lon="-5.768700">
        <ele>1918.0</ele>
        <time>2019-05-04T15:46:33Z</time>
      </trkpt>
      <trkpt lat="38.784650" lon="-5.768567">
        <ele>1915.0</ele>
        <time>2019-05-04T15:46:34Z</time>
      </trkpt>
      <trkpt lat="38.784617" lon="-5.768417">
        <ele>1912.0</ele>
        <time>2019-05-04T15:46:35Z</time>
      </trkpt>
      <trkpt lat="38.784600" lon="-5.768300">
        <ele>1910.0</ele>
        <time>2019-05-04T15:46:36Z</time>
      </trkpt>
      <trkpt lat="38.784550" lon="-5.768167">
        <ele>1908.0</ele>
        <time>2019-05-04T15:46:37Z</time>
      </trkpt>
      <trkpt lat="38.784517" lon="-5.768033">
        <ele>1905.0</ele>
        <time>2019-05-04T15:46:38Z</time>
      </trkpt>
      <trkpt lat="38.784467" lon="-5.767900">
        <ele>1902.0</ele>
        <time>2019-05-04T15:46:39Z</time>
      </trkpt>
      <trkpt lat="38.784433" lon="-5.767767">
        <ele>1900.0</ele>
        <time>2019-05-04T15:46:40Z</time>
      </trkpt>
      <trkpt lat="38.784417" lon="-5.767633">
        <ele>1897.0</ele>
        <time>2019-05-04T15:46:41Z</time>
      </trkpt>
      <trkpt lat="38.784383" lon="-5.767500">
        <ele>1895.0</ele>
        <time>2019-05-04T15:46:42Z</time>
      </trkpt>
      <trkpt lat="38.784350" lon="-5.767383">
        <ele>1893.0</ele>
        <time>2019-05-04T15:46:43Z</time>
      </trkpt>
      <trkpt lat="38.784317" lon="-5.767267">
        <ele>1891.0</ele>
        <time>2019-05-04T15:46:44Z</time>
      </trkpt>
      <trkpt lat="38.784283" lon="-5.767150">
        <ele>1889.0</ele>
        <time>2019-05-04T15:46:45Z</time>
      </trkpt>
      <trkpt lat="38.784250" lon="-5.767017">
        <ele>1887.0</ele>
        <time>2019-05-04T15:46:46Z</time>
      </trkpt>
      <trkpt lat="38.784250" lon="-5.766867">
        <ele>1886.0</ele>
        <time>2019-05-04T15:46:47Z</time>
      </trkpt>
      <trkpt lat="38.784233" lon="-5.766733">
        <ele>1884.0</ele>
        <time>2019-05-04T15:46:48Z</time>
      </trkpt>
      <trkpt lat="38.784217" lon="-5.766600">
        <ele>1883.0</ele>
        <time>2019-05-04T15:46:49Z</time>
      </trkpt>
      <trkpt lat="38.784183" lon="-5.766483">
        <ele>1882.0</ele>
        <time>2019-05-04T15:46:50Z</time>
      </trkpt>
      <trkpt lat="38.784167" lon="-5.766367">
        <ele>1881.0</ele>
        <time>2019-05-04T15:46:51Z</time>
      </trkpt>
      <trkpt lat="38.784150" lon="-5.766217">
        <ele>1879.0</ele>
        <time>2019-05-04T15:46:52Z</time>
      </trkpt>
      <trkpt lat="38.784133" lon="-5.766083">
        <ele>1877.0</ele>
        <time>2019-05-04T15:46:53Z</time>
      </trkpt>
      <trkpt lat="38.784117" lon="-5.765950">
        <ele>1875.0</ele>
        <time>2019-05-04T15:46:54Z</time>
      </trkpt>
      <trkpt lat="38.784100" lon="-5.765817">
        <ele>1874.0</ele>
        <time>2019-05-04T15:46:55Z</time>
      </trkpt>
      <trkpt lat="38.784083" lon="-5.765683">
        <ele>1872.0</ele>
        <time>2019-05-04T15:46:56Z</time>
      </trkpt>
      <trkpt lat="38.784050" lon="-5.765550">
        <ele>1871.0</ele>
        <time>2019-05-04T15:46:57Z</time>
      </trkpt>
      <trkpt lat="38.784033" lon="-5.765400">
        <ele>1870.0</ele>
        <time>2019-05-04T15:46:58Z</time>
      </trkpt>
      <trkpt lat="38.784000" lon="-5.765267">
        <ele>1869.0</ele>
        <time>2019-05-04T15:46:59Z</time>
      </trkpt>
      <trkpt lat="38.783967" lon="-5.765133">
        <ele>1868.0</ele>
        <time>2019-05-04T15:47:00Z</time>
      </trkpt>
      <trkpt lat="38.783933" lon="-5.765000">
        <ele>1868.0</ele>
        <time>2019-05-04T15:47:01Z</time>
      </trkpt>
      <trkpt lat="38.783900" lon="-5.764867">
        <ele>1867.0</ele>
        <time>2019-05-04T15:47:02Z</time>
      </trkpt>
      <trkpt lat="38.783867" lon="-5.764733">
        <ele>1868.0</ele>
        <time>2019-05-04T15:47:03Z</time>
      </trkpt>
      <trkpt lat="38.783833" lon="-5.764617">
        <ele>1869.0</ele>
        <time>2019-05-04T15:47:04Z</time>
      </trkpt>
      <trkpt lat="38.783800" lon="-5.764483">
        <ele>1869.0</ele>
        <time>2019-05-04T15:47:05Z</time>
      </trkpt>
      <trkpt lat="38.783750" lon="-5.764367">
        <ele>1870.0</ele>
        <time>2019-05-04T15:47:06Z</time>
      </trkpt>
      <trkpt lat="38.783717" lon="-5.764233">
        <ele>1870.0</ele>
        <time>2019-05-04T15:47:07Z</time>
      </trkpt>
      <trkpt lat="38.783683" lon="-5.764100">
        <ele>1871.0</ele>
        <time>2019-05-04T15:47:08Z</time>
      </trkpt>
      <trkpt lat="38.783650" lon="-5.763950">
        <ele>1871.0</ele>
        <time>2019-05-04T15:47:09Z</time>
      </trkpt>
      <trkpt lat="38.783617" lon="-5.763817">
        <ele>1871.0</ele>
        <time>2019-05-04T15:47:10Z</time>
      </trkpt>
      <trkpt lat="38.783583" lon="-5.763683">
        <ele>1871.0</ele>
        <time>2019-05-04T15:47:11Z</time>
      </trkpt>
      <trkpt lat="38.783533" lon="-5.763550">
        <ele>1872.0</ele>
        <time>2019-05-04T15:47:12Z</time>
      </trkpt>
      <trkpt lat="38.783500" lon="-5.763433">
        <ele>1872.0</ele>
        <time>2019-05-04T15:47:13Z</time>
      </trkpt>
      <trkpt lat="38.783450" lon="-5.763300">
        <ele>1873.0</ele>
        <time>2019-05-04T15:47:14Z</time>
      </trkpt>
      <trkpt lat="38.783400" lon="-5.763183">
        <ele>1874.0</ele>
        <time>2019-05-04T15:47:15Z</time>
      </trkpt>
      <trkpt lat="38.783350" lon="-5.763067">
        <ele>1876.0</ele>
        <time>2019-05-04T15:47:16Z</time>
      </trkpt>
      <trkpt lat="38.783300" lon="-5.762967">
        <ele>1877.0</ele>
        <time>2019-05-04T15:47:17Z</time>
      </trkpt>
      <trkpt lat="38.783250" lon="-5.762867">
        <ele>1878.0</ele>
        <time>2019-05-04T15:47:18Z</time>
      </trkpt>
      <trkpt lat="38.783200" lon="-5.762767">
        <ele>1879.0</ele>
        <time>2019-05-04T15:47:19Z</time>
      </trkpt>
      <trkpt lat="38.783150" lon="-5.762650">
        <ele>1881.0</ele>
        <time>2019-05-04T15:47:20Z</time>
      </trkpt>
      <trkpt lat="38.783117" lon="-5.762550">
        <ele>1882.0</ele>
        <time>2019-05-04T15:47:21Z</time>
      </trkpt>
      <trkpt lat="38.783083" lon="-5.762450">
        <ele>1884.0</ele>
        <time>2019-05-04T15:47:22Z</time>
      </trkpt>
      <trkpt lat="38.783033" lon="-5.762350">
        <ele>1886.0</ele>
        <time>2019-05-04T15:47:23Z</time>
      </trkpt>
      <trkpt lat="38.782967" lon="-5.762233">
        <ele>1886.0</ele>
        <time>2019-05-04T15:47:24Z</time>
      </trkpt>
      <trkpt lat="38.782917" lon="-5.762117">
        <ele>1887.0</ele>
        <time>2019-05-04T15:47:25Z</time>
      </trkpt>
      <trkpt lat="38.782867" lon="-5.761983">
        <ele>1887.0</ele>
        <time>2019-05-04T15:47:26Z</time>
      </trkpt>
      <trkpt lat="38.782817" lon="-5.761850">
        <ele>1887.0</ele>
        <time>2019-05-04T15:47:27Z</time>
      </trkpt>
      <trkpt lat="38.782767" lon="-5.761733">
        <ele>1887.0</ele>
        <time>2019-05-04T15:47:28Z</time>
      </trkpt>
      <trkpt lat="38.782700" lon="-5.761600">
        <ele>1888.0</ele>
        <time>2019-05-04T15:47:29Z</time>
      </trkpt>
      <trkpt lat="38.782650" lon="-5.761467">
        <ele>1888.0</ele>
        <time>2019-05-04T15:47:30Z</time>
      </trkpt>
      <trkpt lat="38.782600" lon="-5.761350">
        <ele>1888.0</ele>
        <time>2019-05-04T15:47:31Z</time>
      </trkpt>
      <trkpt lat="38.782550" lon="-5.761217">
        <ele>1888.0</ele>
        <time>2019-05-04T15:47:32Z</time>
      </trkpt>
      <trkpt lat="38.782483" lon="-5.761083">
        <ele>1888.0</ele>
        <time>2019-05-04T15:47:33Z</time>
      </trkpt>
      <trkpt lat="38.782433" lon="-5.760933">
        <ele>1888.0</ele>
        <time>2019-05-04T15:47:34Z</time>
      </trkpt>
      <trkpt lat="38.782383" lon="-5.760800">
        <ele>1888.0</ele>
        <time>2019-05-04T15:47:35Z</time>
      </trkpt>
      <trkpt lat="38.782333" lon="-5.760683">
        <ele>1889.0</ele>
        <time>2019-05-04T15:47:36Z</time>
      </trkpt>
      <trkpt lat="38.782283" lon="-5.760550">
        <ele>1888.0</ele>
        <time>2019-05-04T15:47:37Z</time>
      </trkpt>
      <trkpt lat="38.782217" lon="-5.760400">
        <ele>1887.0</ele>
        <time>2019-05-04T15:47:38Z</time>
      </trkpt>
      <trkpt lat="38.782150" lon="-5.760267">
        <ele>1886.0</ele>
        <time>2019-05-04T15:47:39Z</time>
      </trkpt>
      <trkpt lat="38.782083" lon="-5.760133">
        <ele>1886.0</ele>
        <time>2019-05-04T15:47:40Z</time>
      </trkpt>
      <trkpt lat="38.782033" lon="-5.760000">
        <ele>1887.0</ele>
        <time>2019-05-04T15:47:41Z</time>
      </trkpt>
      <trkpt lat="38.781983" lon="-5.759883">
        <ele>1888.0</ele>
        <time>2019-05-04T15:47:42Z</time>
      </trkpt>
      <trkpt lat="38.781933" lon="-5.759767">
        <ele>1889.0</ele>
        <time>2019-05-04T15:47:43Z</time>
      </trkpt>
      <trkpt lat="38.781867" lon="-5.759633">
        <ele>1889.0</ele>
        <time>2019-05-04T15:47:44Z</time>
      </trkpt>
      <trkpt lat="38.781800" lon="-5.759517">
        <ele>1890.0</ele>
        <time>2019-05-04T15:47:45Z</time>
      </trkpt>
      <trkpt lat="38.781750" lon="-5.759383">
        <ele>1891.0</ele>
        <time>2019-05-04T15:47:46Z</time>
      </trkpt>
      <trkpt lat="38.781717" lon="-5.759267">
        <ele>1893.0</ele>
        <time>2019-05-04T15:47:47Z</time>
      </trkpt>
      <trkpt lat="38.781650" lon="-5.759133">
        <ele>1894.0</ele>
        <time>2019-05-04T15:47:48Z</time>
      </trkpt>
      <trkpt lat="38.781600" lon="-5.759000">
        <ele>1895.0</ele>
        <time>2019-05-04T15:47:49Z</time>
      </trkpt>
      <trkpt lat="38.781533" lon="-5.758867">
        <ele>1897.0</ele>
        <time>2019-05-04T15:47:50Z</time>
      </trkpt>
      <trkpt lat="38.781483" lon="-5.758733">
        <ele>1899.0</ele>
        <time>2019-05-04T15:47:51Z</time>
      </trkpt>
      <trkpt lat="38.781433" lon="-5.758617">
        <ele>1902.0</ele>
        <time>2019-05-04T15:47:52Z</time>
      </trkpt>
      <trkpt lat="38.781383" lon="-5.758500">
        <ele>1904.0</ele>
        <time>2019-05-04T15:47:53Z</time>
      </trkpt>
      <trkpt lat="38.781333" lon="-5.758383">
        <ele>1906.0</ele>
        <time>2019-05-04T15:47:54Z</time>
      </trkpt>
      <trkpt lat="38.781250" lon="-5.758267">
        <ele>1907.0</ele>
        <time>2019-05-04T15:47:55Z</time>
      </trkpt>
      <trkpt lat="38.781167" lon="-5.758183">
        <ele>1909.0</ele>
        <time>2019-05-04T15:47:56Z</time>
      </trkpt>
      <trkpt lat="38.781083" lon="-5.758150">
        <ele>1910.0</ele>
        <time>2019-05-04T15:47:57Z</time>
      </trkpt>
      <trkpt lat="38.780983" lon="-5.758150">
        <ele>1910.0</ele>
        <time>2019-05-04T15:47:58Z</time>
      </trkpt>
      <trkpt lat="38.780917" lon="-5.758200">
        <ele>1910.0</ele>
        <time>2019-05-04T15:47:59Z</time>
      </trkpt>
      <trkpt lat="38.780883" lon="-5.758267">
        <ele>1912.0</ele>
        <time>2019-05-04T15:48:00Z</time>
      </trkpt>
      <trkpt lat="38.780883" lon="-5.758350">
        <ele>1913.0</ele>
        <time>2019-05-04T15:48:01Z</time>
      </trkpt>
      <trkpt lat="38.780900" lon="-5.758400">
        <ele>1914.0</ele>
        <time>2019-05-04T15:48:02Z</time>
      </trkpt>
      <trkpt lat="38.780967" lon="-5.758417">
        <ele>1915.0</ele>
        <time>2019-05-04T15:48:03Z</time>
      </trkpt>
      <trkpt lat="38.781050" lon="-5.758400">
        <ele>1916.0</ele>
        <time>2019-05-04T15:48:04Z</time>
      </trkpt>
      <trkpt lat="38.781117" lon="-5.758333">
        <ele>1917.0</ele>
        <time>2019-05-04T15:48:05Z</time>
      </trkpt>
      <trkpt lat="38.781167" lon="-5.758233">
        <ele>1919.0</ele>
        <time>2019-05-04T15:48:06Z</time>
      </trkpt>
      <trkpt lat="38.781200" lon="-5.758100">
        <ele>1920.0</ele>
        <time>2019-05-04T15:48:07Z</time>
      </trkpt>
      <trkpt lat="38.781183" lon="-5.757950">
        <ele>1921.0</ele>
        <time>2019-05-04T15:48:08Z</time>
      </trkpt>
      <trkpt lat="38.781150" lon="-5.757817">
        <ele>1923.0</ele>
        <time>2019-05-04T15:48:09Z</time>
      </trkpt>
      <trkpt lat="38.781083" lon="-5.757700">
        <ele>1924.0</ele>
        <time>2019-05-04T15:48:10Z</time>
      </trkpt>
      <trkpt lat="38.780983" lon="-5.757600">
        <ele>1927.0</ele>
        <time>2019-05-04T15:48:11Z</time>
      </trkpt>
      <trkpt lat="38.780900" lon="-5.757567">
        <ele>1929.0</ele>
        <time>2019-05-04T15:48:12Z</time>
      </trkpt>
      <trkpt lat="38.780817" lon="-5.757583">
        <ele>1931.0</ele>
        <time>2019-05-04T15:48:13Z</time>
      </trkpt>
      <trkpt lat="38.780750" lon="-5.757617">
        <ele>1933.0</ele>
        <time>2019-05-04T15:48:14Z</time>
      </trkpt>
      <trkpt lat="38.780717" lon="-5.757683">
        <ele>1935.0</ele>
        <time>2019-05-04T15:48:15Z</time>
      </trkpt>
      <trkpt lat="38.780700" lon="-5.757750">
        <ele>1937.0</ele>
        <time>2019-05-04T15:48:16Z</time>
      </trkpt>
      <trkpt lat="38.780733" lon="-5.757800">
        <ele>1939.0</ele>
        <time>2019-05-04T15:48:17Z</time>
      </trkpt>
      <trkpt lat="38.780783" lon="-5.757833">
        <ele>1940.0</ele>
        <time>2019-05-04T15:48:18Z</time>
      </trkpt>
      <trkpt lat="38.780850" lon="-5.757833">
        <ele>1942.0</ele>
        <time>2019-05-04T15:48:19Z</time>
      </trkpt>
      <trkpt lat="38.780933" lon="-5.757800">
        <ele>1944.0</ele>
        <time>2019-05-04T15:48:20Z</time>
      </trkpt>
      <trkpt lat="38.781000" lon="-5.757700">
        <ele>1947.0</ele>
        <time>2019-05-04T15:48:21Z</time>
      </trkpt>
      <trkpt lat="38.781050" lon="-5.757583">
        <ele>1949.0</ele>
        <time>2019-05-04T15:48:22Z</time>
      </trkpt>
      <trkpt lat="38.781050" lon="-5.757433">
        <ele>1951.0</ele>
        <time>2019-05-04T15:48:23Z</time>
      </trkpt>
      <trkpt lat="38.781017" lon="-5.757283">
        <ele>1952.0</ele>
        <time>2019-05-04T15:48:24Z</time>
      </trkpt>
      <trkpt lat="38.780933" lon="-5.757167">
        <ele>1954.0</ele>
        <time>2019-05-04T15:48:25Z</time>
      </trkpt>
      <trkpt lat="38.780850" lon="-5.757083">
        <ele>1957.0</ele>
        <time>2019-05-04T15:48:26Z</time>
      </trkpt>
      <trkpt lat="38.780767" lon="-5.757033">
        <ele>1960.0</ele>
        <time>2019-05-04T15:48:27Z</time>
      </trkpt>
      <trkpt lat="38.780667" lon="-5.757050">
        <ele>1962.0</ele>
        <time>2019-05-04T15:48:28Z</time>
      </trkpt>
      <trkpt lat="38.780600" lon="-5.757083">
        <ele>1964.0</ele>
        <time>2019-05-04T15:48:29Z</time>
      </trkpt>
      <trkpt lat="38.780567" lon="-5.757133">
        <ele>1966.0</ele>
        <time>2019-05-04T15:48:30Z</time>
      </trkpt>
      <trkpt lat="38.780550" lon="-5.757200">
        <ele>1967.0</ele>
        <time>2019-05-04T15:48:31Z</time>
      </trkpt>
      <trkpt lat="38.780567" lon="-5.757267">
        <ele>1969.0</ele>
        <time>2019-05-04T15:48:32Z</time>
      </trkpt>
      <trkpt lat="38.780617" lon="-5.757300">
        <ele>1971.0</ele>
        <time>2019-05-04T15:48:33Z</time>
      </trkpt>
      <trkpt lat="38.780667" lon="-5.757317">
        <ele>1974.0</ele>
        <time>2019-05-04T15:48:34Z</time>
      </trkpt>
      <trkpt lat="38.780733" lon="-5.757283">
        <ele>1976.0</ele>
        <time>2019-05-04T15:48:35Z</time>
      </trkpt>
      <trkpt lat="38.780783" lon="-5.757217">
        <ele>1978.0</ele>
        <time>2019-05-04T15:48:36Z</time>
      </trkpt>
      <trkpt lat="38.780850" lon="-5.757117">
        <ele>1980.0</ele>
        <time>2019-05-04T15:48:37Z</time>
      </trkpt>
      <trkpt lat="38.780900" lon="-5.757017">
        <ele>1981.0</ele>
        <time>2019-05-04T15:48:38Z</time>
      </trkpt>
      <trkpt lat="38.780950" lon="-5.756867">
        <ele>1983.0</ele>
        <time>2019-05-04T15:48:39Z</time>
      </trkpt>
      <trkpt lat="38.780950" lon="-5.756717">
        <ele>1985.0</ele>
        <time>2019-05-04T15:48:40Z</time>
      </trkpt>
      <trkpt lat="38.780900" lon="-5.756567">
        <ele>1987.0</ele>
        <time>2019-05-04T15:48:41Z</time>
      </trkpt>
      <trkpt lat="38.780833" lon="-5.756433">
        <ele>1989.0</ele>
        <time>2019-05-04T15:48:42Z</time>
      </trkpt>
      <trkpt lat="38.780733" lon="-5.756350">
        <ele>1992.0</ele>
        <time>2019-05-04T15:48:43Z</time>
      </trkpt>
      <trkpt lat="38.780650" lon="-5.756317">
        <ele>1994.0</ele>
        <time>2019-05-04T15:48:44Z</time>
      </trkpt>
      <trkpt lat="38.780567" lon="-5.756300">
        <ele>1996.0</ele>
        <time>2019-05-04T15:48:45Z</time>
      </trkpt>
      <trkpt lat="38.780517" lon="-5.756317">
        <ele>1998.0</ele>
        <time>2019-05-04T15:48:46Z</time>
      </trkpt>
      <trkpt lat="38.780467" lon="-5.756367">
        <ele>2000.0</ele>
        <time>2019-05-04T15:48:47Z</time>
      </trkpt>
      <trkpt lat="38.780467" lon="-5.756417">
        <ele>2002.0</ele>
        <time>2019-05-04T15:48:48Z</time>
      </trkpt>
      <trkpt lat="38.780500" lon="-5.756467">
        <ele>2003.0</ele>
        <time>2019-05-04T15:48:49Z</time>
      </trkpt>
      <trkpt lat="38.780567" lon="-5.756483">
        <ele>2004.0</ele>
        <time>2019-05-04T15:48:50Z</time>
      </trkpt>
      <trkpt lat="38.780650" lon="-5.756467">
        <ele>2006.0</ele>
        <time>2019-05-04T15:48:51Z</time>
      </trkpt>
      <trkpt lat="38.780733" lon="-5.756400">
        <ele>2007.0</ele>
        <time>2019-05-04T15:48:52Z</time>
      </trkpt>
      <trkpt lat="38.780783" lon="-5.756300">
        <ele>2009.0</ele>
        <time>2019-05-04T15:48:53Z</time>
      </trkpt>
      <trkpt lat="38.780833" lon="-5.756167">
        <ele>2011.0</ele>
        <time>2019-05-04T15:48:54Z</time>
      </trkpt>
      <trkpt lat="38.780850" lon="-5.756017">
        <ele>2013.0</ele>
        <time>2019-05-04T15:48:55Z</time>
      </trkpt>
      <trkpt lat="38.780833" lon="-5.755867">
        <ele>2014.0</ele>
        <time>2019-05-04T15:48:56Z</time>
      </trkpt>
      <trkpt lat="38.780783" lon="-5.755733">
        <ele>2016.0</ele>
        <time>2019-05-04T15:48:57Z</time>
      </trkpt>
      <trkpt lat="38.780717" lon="-5.755600">
        <ele>2017.0</ele>
        <time>2019-05-04T15:48:58Z</time>
      </trkpt>
      <trkpt lat="38.780633" lon="-5.755517">
        <ele>2019.0</ele>
        <time>2019-05-04T15:48:59Z</time>
      </trkpt>
      <trkpt lat="38.780533" lon="-5.755483">
        <ele>2021.0</ele>
        <time>2019-05-04T15:49:00Z</time>
      </trkpt>
      <trkpt lat="38.780450" lon="-5.755483">
        <ele>2022.0</ele>
        <time>2019-05-04T15:49:01Z</time>
      </trkpt>
      <trkpt lat="38.780383" lon="-5.755517">
        <ele>2023.0</ele>
        <time>2019-05-04T15:49:02Z</time>
      </trkpt>
      <trkpt lat="38.780333" lon="-5.755567">
        <ele>2024.0</ele>
        <time>2019-05-04T15:49:03Z</time>
      </trkpt>
      <trkpt lat="38.780317" lon="-5.755633">
        <ele>2025.0</ele>
        <time>2019-05-04T15:49:04Z</time>
      </trkpt>
      <trkpt lat="38.780333" lon="-5.755700">
        <ele>2026.0</ele>
        <time>2019-05-04T15:49:05Z</time>
      </trkpt>
      <trkpt lat="38.780383" lon="-5.755750">
        <ele>2028.0</ele>
        <time>2019-05-04T15:49:06Z</time>
      </trkpt>
      <trkpt lat="38.780450" lon="-5.755783">
        <ele>2029.0</ele>
        <time>2019-05-04T15:49:07Z</time>
      </trkpt>
      <trkpt lat="38.780517" lon="-5.755767">
        <ele>2031.0</ele>
        <time>2019-05-04T15:49:08Z</time>
      </trkpt>
      <trkpt lat="38.780583" lon="-5.755683">
        <ele>2033.0</ele>
        <time>2019-05-04T15:49:09Z</time>
      </trkpt>
      <trkpt lat="38.780633" lon="-5.755583">
        <ele>2034.0</ele>
        <time>2019-05-04T15:49:10Z</time>
      </trkpt>
      <trkpt lat="38.780667" lon="-5.755450">
        <ele>2036.0</ele>
        <time>2019-05-04T15:49:11Z</time>
      </trkpt>
      <trkpt lat="38.780683" lon="-5.755283">
        <ele>2037.0</ele>
        <time>2019-05-04T15:49:12Z</time>
      </trkpt>
      <trkpt lat="38.780650" lon="-5.755133">
        <ele>2039.0</ele>
        <time>2019-05-04T15:49:13Z</time>
      </trkpt>
      <trkpt lat="38.780600" lon="-5.755000">
        <ele>2042.0</ele>
        <time>2019-05-04T15:49:14Z</time>
      </trkpt>
      <trkpt lat="38.780517" lon="-5.754900">
        <ele>2043.0</ele>
        <time>2019-05-04T15:49:15Z</time>
      </trkpt>
      <trkpt lat="38.780417" lon="-5.754833">
        <ele>2045.0</ele>
        <time>2019-05-04T15:49:16Z</time>
      </trkpt>
      <trkpt lat="38.780333" lon="-5.754800">
        <ele>2047.0</ele>
        <time>2019-05-04T15:49:17Z</time>
      </trkpt>
      <trkpt lat="38.780250" lon="-5.754817">
        <ele>2049.0</ele>
        <time>2019-05-04T15:49:18Z</time>
      </trkpt>
      <trkpt lat="38.780217" lon="-5.754850">
        <ele>2051.0</ele>
        <time>2019-05-04T15:49:19Z</time>
      </trkpt>
      <trkpt lat="38.780200" lon="-5.754917">
        <ele>2051.0</ele>
        <time>2019-05-04T15:49:20Z</time>
      </trkpt>
      <trkpt lat="38.780217" lon="-5.754967">
        <ele>2052.0</ele>
        <time>2019-05-04T15:49:21Z</time>
      </trkpt>
      <trkpt lat="38.780250" lon="-5.755017">
        <ele>2053.0</ele>
        <time>2019-05-04T15:49:22Z</time>
      </trkpt>
      <trkpt lat="38.780317" lon="-5.755017">
        <ele>2054.0</ele>
        <time>2019-05-04T15:49:23Z</time>
      </trkpt>
      <trkpt lat="38.780383" lon="-5.754983">
        <ele>2055.0</ele>
        <time>2019-05-04T15:49:24Z</time>
      </trkpt>
      <trkpt lat="38.780450" lon="-5.754933">
        <ele>2057.0</ele>
        <time>2019-05-04T15:49:25Z</time>
      </trkpt>
      <trkpt lat="38.780517" lon="-5.754833">
        <ele>2058.0</ele>
        <time>2019-05-04T15:49:26Z</time>
      </trkpt>
      <trkpt lat="38.780567" lon="-5.754700">
        <ele>2059.0</ele>
        <time>2019-05-04T15:49:27Z</time>
      </trkpt>
      <trkpt lat="38.780567" lon="-5.754550">
        <ele>2060.0</ele>
        <time>2019-05-04T15:49:28Z</time>
      </trkpt>
      <trkpt lat="38.780550" lon="-5.754383">
        <ele>2061.0</ele>
        <time>2019-05-04T15:49:29Z</time>
      </trkpt>
      <trkpt lat="38.780500" lon="-5.754250">
        <ele>2063.0</ele>
        <time>2019-05-04T15:49:30Z</time>
      </trkpt>
      <trkpt lat="38.780433" lon="-5.754133">
        <ele>2065.0</ele>
        <time>2019-05-04T15:49:31Z</time>
      </trkpt>
      <trkpt lat="38.780350" lon="-5.754033">
        <ele>2067.0</ele>
        <time>2019-05-04T15:49:32Z</time>
      </trkpt>
      <trkpt lat="38.780267" lon="-5.753983">
        <ele>2068.0</ele>
        <time>2019-05-04T15:49:33Z</time>
      </trkpt>
      <trkpt lat="38.780167" lon="-5.753983">
        <ele>2069.0</ele>
        <time>2019-05-04T15:49:34Z</time>
      </trkpt>
      <trkpt lat="38.780100" lon="-5.754017">
        <ele>2071.0</ele>
        <time>2019-05-04T15:49:35Z</time>
      </trkpt>
      <trkpt lat="38.780050" lon="-5.754067">
        <ele>2074.0</ele>
        <time>2019-05-04T15:49:36Z</time>
      </trkpt>
      <trkpt lat="38.780050" lon="-5.754133">
        <ele>2077.0</ele>
        <time>2019-05-04T15:49:37Z</time>
      </trkpt>
      <trkpt lat="38.780067" lon="-5.754183">
        <ele>2079.0</ele>
        <time>2019-05-04T15:49:38Z</time>
      </trkpt>
      <trkpt lat="38.780100" lon="-5.754200">
        <ele>2081.0</ele>
        <time>2019-05-04T15:49:39Z</time>
      </trkpt>
      <trkpt lat="38.780150" lon="-5.754217">
        <ele>2083.0</ele>
        <time>2019-05-04T15:49:40Z</time>
      </trkpt>
      <trkpt lat="38.780217" lon="-5.754183">
        <ele>2084.0</ele>
        <time>2019-05-04T15:49:41Z</time>
      </trkpt>
      <trkpt lat="38.780300" lon="-5.754117">
        <ele>2086.0</ele>
        <time>2019-05-04T15:49:42Z</time>
      </trkpt>
      <trkpt lat="38.780350" lon="-5.754000">
        <ele>2087.0</ele>
        <time>2019-05-04T15:49:43Z</time>
      </trkpt>
      <trkpt lat="38.780383" lon="-5.753867">
        <ele>2089.0</ele>
        <time>2019-05-04T15:49:44Z</time>
      </trkpt>
      <trkpt lat="38.780383" lon="-5.753700">
        <ele>2091.0</ele>
        <time>2019-05-04T15:49:45Z</time>
      </trkpt>
      <trkpt lat="38.780367" lon="-5.753550">
        <ele>2092.0</ele>
        <time>2019-05-04T15:49:46Z</time>
      </trkpt>
      <trkpt lat="38.780317" lon="-5.753417">
        <ele>2095.0</ele>
        <time>2019-05-04T15:49:47Z</time>
      </trkpt>
      <trkpt lat="38.780250" lon="-5.753300">
        <ele>2097.0</ele>
        <time>2019-05-04T15:49:48Z</time>
      </trkpt>
      <trkpt lat="38.780167" lon="-5.753200">
        <ele>2099.0</ele>
        <time>2019-05-04T15:49:49Z</time>
      </trkpt>
      <trkpt lat="38.780083" lon="-5.753117">
        <ele>2100.0</ele>
        <time>2019-05-04T15:49:50Z</time>
      </trkpt>
      <trkpt lat="38.779983" lon="-5.753083">
        <ele>2102.0</ele>
        <time>2019-05-04T15:49:51Z</time>
      </trkpt>
      <trkpt lat="38.779900" lon="-5.753083">
        <ele>2103.0</ele>
        <time>2019-05-04T15:49:52Z</time>
      </trkpt>
      <trkpt lat="38.779833" lon="-5.753117">
        <ele>2104.0</ele>
        <time>2019-05-04T15:49:53Z</time>
      </trkpt>
      <trkpt lat="38.779817" lon="-5.753167">
        <ele>2106.0</ele>
        <time>2019-05-04T15:49:54Z</time>
      </trkpt>
      <trkpt lat="38.779817" lon="-5.753217">
        <ele>2107.0</ele>
        <time>2019-05-04T15:49:55Z</time>
      </trkpt>
      <trkpt lat="38.779850" lon="-5.753250">
        <ele>2109.0</ele>
        <time>2019-05-04T15:49:56Z</time>
      </trkpt>
      <trkpt lat="38.779900" lon="-5.753233">
        <ele>2111.0</ele>
        <time>2019-05-04T15:49:57Z</time>
      </trkpt>
      <trkpt lat="38.779967" lon="-5.753200">
        <ele>2112.0</ele>
        <time>2019-05-04T15:49:58Z</time>
      </trkpt>
      <trkpt lat="38.780033" lon="-5.753150">
        <ele>2113.0</ele>
        <time>2019-05-04T15:49:59Z</time>
      </trkpt>
      <trkpt lat="38.780100" lon="-5.753083">
        <ele>2114.0</ele>
        <time>2019-05-04T15:50:00Z</time>
      </trkpt>
      <trkpt lat="38.780167" lon="-5.752967">
        <ele>2116.0</ele>
        <time>2019-05-04T15:50:01Z</time>
      </trkpt>
      <trkpt lat="38.780183" lon="-5.752817">
        <ele>2118.0</ele>
        <time>2019-05-04T15:50:02Z</time>
      </trkpt>
      <trkpt lat="38.780183" lon="-5.752650">
        <ele>2119.0</ele>
        <time>2019-05-04T15:50:03Z</time>
      </trkpt>
      <trkpt lat="38.780133" lon="-5.752500">
        <ele>2119.0</ele>
        <time>2019-05-04T15:50:04Z</time>
      </trkpt>
      <trkpt lat="38.780050" lon="-5.752367">
        <ele>2120.0</ele>
        <time>2019-05-04T15:50:05Z</time>
      </trkpt>
      <trkpt lat="38.779967" lon="-5.752283">
        <ele>2121.0</ele>
        <time>2019-05-04T15:50:06Z</time>
      </trkpt>
      <trkpt lat="38.779867" lon="-5.752250">
        <ele>2122.0</ele>
        <time>2019-05-04T15:50:07Z</time>
      </trkpt>
      <trkpt lat="38.779767" lon="-5.752267">
        <ele>2122.0</ele>
        <time>2019-05-04T15:50:08Z</time>
      </trkpt>
      <trkpt lat="38.779700" lon="-5.752317">
        <ele>2125.0</ele>
        <time>2019-05-04T15:50:09Z</time>
      </trkpt>
      <trkpt lat="38.779650" lon="-5.752350">
        <ele>2129.0</ele>
        <time>2019-05-04T15:50:10Z</time>
      </trkpt>
      <trkpt lat="38.779617" lon="-5.752400">
        <ele>2132.0</ele>
        <time>2019-05-04T15:50:11Z</time>
      </trkpt>
      <trkpt lat="38.779583" lon="-5.752433">
        <ele>2133.0</ele>
        <time>2019-05-04T15:50:12Z</time>
      </trkpt>
      <trkpt lat="38.779567" lon="-5.752467">
        <ele>2135.0</ele>
        <time>2019-05-04T15:50:13Z</time>
      </trkpt>
      <trkpt lat="38.779567" lon="-5.752517">
        <ele>2137.0</ele>
        <time>2019-05-04T15:50:14Z</time>
      </trkpt>
      <trkpt lat="38.779600" lon="-5.752533">
        <ele>2138.0</ele>
        <time>2019-05-04T15:50:15Z</time>
      </trkpt>
      <trkpt lat="38.779683" lon="-5.752533">
        <ele>2139.0</ele>
        <time>2019-05-04T15:50:16Z</time>
      </trkpt>
      <trkpt lat="38.779767" lon="-5.752483">
        <ele>2139.0</ele>
        <time>2019-05-04T15:50:17Z</time>
      </trkpt>
      <trkpt lat="38.779833" lon="-5.752383">
        <ele>2140.0</ele>
        <time>2019-05-04T15:50:18Z</time>
      </trkpt>
      <trkpt lat="38.779900" lon="-5.752250">
        <ele>2140.0</ele>
        <time>2019-05-04T15:50:19Z</time>
      </trkpt>
      <trkpt lat="38.779933" lon="-5.752083">
        <ele>2141.0</ele>
        <time>2019-05-04T15:50:20Z</time>
      </trkpt>
      <trkpt lat="38.779933" lon="-5.751917">
        <ele>2141.0</ele>
        <time>2019-05-04T15:50:21Z</time>
      </trkpt>
      <trkpt lat="38.779900" lon="-5.751767">
        <ele>2143.0</ele>
        <time>2019-05-04T15:50:22Z</time>
      </trkpt>
      <trkpt lat="38.779833" lon="-5.751617">
        <ele>2144.0</ele>
        <time>2019-05-04T15:50:23Z</time>
      </trkpt>
      <trkpt lat="38.779767" lon="-5.751500">
        <ele>2146.0</ele>
        <time>2019-05-04T15:50:24Z</time>
      </trkpt>
      <trkpt lat="38.779683" lon="-5.751417">
        <ele>2147.0</ele>
        <time>2019-05-04T15:50:25Z</time>
      </trkpt>
      <trkpt lat="38.779583" lon="-5.751383">
        <ele>2148.0</ele>
        <time>2019-05-04T15:50:26Z</time>
      </trkpt>
      <trkpt lat="38.779500" lon="-5.751367">
        <ele>2149.0</ele>
        <time>2019-05-04T15:50:27Z</time>
      </trkpt>
      <trkpt lat="38.779433" lon="-5.751383">
        <ele>2151.0</ele>
        <time>2019-05-04T15:50:28Z</time>
      </trkpt>
      <trkpt lat="38.779400" lon="-5.751417">
        <ele>2152.0</ele>
        <time>2019-05-04T15:50:29Z</time>
      </trkpt>
      <trkpt lat="38.779417" lon="-5.751467">
        <ele>2152.0</ele>
        <time>2019-05-04T15:50:30Z</time>
      </trkpt>
      <trkpt lat="38.779450" lon="-5.751500">
        <ele>2153.0</ele>
        <time>2019-05-04T15:50:31Z</time>
      </trkpt>
      <trkpt lat="38.779500" lon="-5.751500">
        <ele>2155.0</ele>
        <time>2019-05-04T15:50:32Z</time>
      </trkpt>
      <trkpt lat="38.779567" lon="-5.751467">
        <ele>2156.0</ele>
        <time>2019-05-04T15:50:33Z</time>
      </trkpt>
      <trkpt lat="38.779633" lon="-5.751417">
        <ele>2157.0</ele>
        <time>2019-05-04T15:50:34Z</time>
      </trkpt>
      <trkpt lat="38.779700" lon="-5.751350">
        <ele>2159.0</ele>
        <time>2019-05-04T15:50:35Z</time>
      </trkpt>
      <trkpt lat="38.779783" lon="-5.751233">
        <ele>2160.0</ele>
        <time>2019-05-04T15:50:36Z</time>
      </trkpt>
      <trkpt lat="38.779850" lon="-5.751100">
        <ele>2161.0</ele>
        <time>2019-05-04T15:50:37Z</time>
      </trkpt>
      <trkpt lat="38.779883" lon="-5.750933">
        <ele>2163.0</ele>
        <time>2019-05-04T15:50:38Z</time>
      </trkpt>
      <trkpt lat="38.779867" lon="-5.750767">
        <ele>2165.0</ele>
        <time>2019-05-04T15:50:39Z</time>
      </trkpt>
      <trkpt lat="38.779833" lon="-5.750617">
        <ele>2166.0</ele>
        <time>2019-05-04T15:50:40Z</time>
      </trkpt>
      <trkpt lat="38.779767" lon="-5.750467">
        <ele>2167.0</ele>
        <time>2019-05-04T15:50:41Z</time>
      </trkpt>
      <trkpt lat="38.779700" lon="-5.750333">
        <ele>2167.0</ele>
        <time>2019-05-04T15:50:42Z</time>
      </trkpt>
      <trkpt lat="38.779617" lon="-5.750233">
        <ele>2168.0</ele>
        <time>2019-05-04T15:50:43Z</time>
      </trkpt>
      <trkpt lat="38.779533" lon="-5.750167">
        <ele>2168.0</ele>
        <time>2019-05-04T15:50:44Z</time>
      </trkpt>
      <trkpt lat="38.779433" lon="-5.750133">
        <ele>2168.0</ele>
        <time>2019-05-04T15:50:45Z</time>
      </trkpt>
      <trkpt lat="38.779350" lon="-5.750150">
        <ele>2167.0</ele>
        <time>2019-05-04T15:50:46Z</time>
      </trkpt>
      <trkpt lat="38.779267" lon="-5.750183">
        <ele>2167.0</ele>
        <time>2019-05-04T15:50:47Z</time>
      </trkpt>
      <trkpt lat="38.779233" lon="-5.750217">
        <ele>2170.0</ele>
        <time>2019-05-04T15:50:48Z</time>
      </trkpt>
      <trkpt lat="38.779217" lon="-5.750267">
        <ele>2171.0</ele>
        <time>2019-05-04T15:50:49Z</time>
      </trkpt>
      <trkpt lat="38.779200" lon="-5.750300">
        <ele>2173.0</ele>
        <time>2019-05-04T15:50:50Z</time>
      </trkpt>
      <trkpt lat="38.779200" lon="-5.750317">
        <ele>2175.0</ele>
        <time>2019-05-04T15:50:51Z</time>
      </trkpt>
      <trkpt lat="38.779183" lon="-5.750350">
        <ele>2176.0</ele>
        <time>2019-05-04T15:50:52Z</time>
      </trkpt>
      <trkpt lat="38.779183" lon="-5.750400">
        <ele>2177.0</ele>
        <time>2019-05-04T15:50:53Z</time>
      </trkpt>
      <trkpt lat="38.779217" lon="-5.750417">
        <ele>2178.0</ele>
        <time>2019-05-04T15:50:54Z</time>
      </trkpt>
      <trkpt lat="38.779283" lon="-5.750417">
        <ele>2179.0</ele>
        <time>2019-05-04T15:50:55Z</time>
      </trkpt>
      <trkpt lat="38.779333" lon="-5.750400">
        <ele>2180.0</ele>
        <time>2019-05-04T15:50:56Z</time>
      </trkpt>
      <trkpt lat="38.779417" lon="-5.750350">
        <ele>2181.0</ele>
        <time>2019-05-04T15:50:57Z</time>
      </trkpt>
      <trkpt lat="38.779500" lon="-5.750283">
        <ele>2181.0</ele>
        <time>2019-05-04T15:50:58Z</time>
      </trkpt>
      <trkpt lat="38.779567" lon="-5.750167">
        <ele>2182.0</ele>
        <time>2019-05-04T15:50:59Z</time>
      </trkpt>
      <trkpt lat="38.779633" lon="-5.750033">
        <ele>2182.0</ele>
        <time>2019-05-04T15:51:00Z</time>
      </trkpt>
      <trkpt lat="38.779667" lon="-5.749867">
        <ele>2183.0</ele>
        <time>2019-05-04T15:51:01Z</time>
      </trkpt>
      <trkpt lat="38.779667" lon="-5.749683">
        <ele>2184.0</ele>
        <time>2019-05-04T15:51:02Z</time>
      </trkpt>
      <trkpt lat="38.779633" lon="-5.749533">
        <ele>2186.0</ele>
        <time>2019-05-04T15:51:03Z</time>
      </trkpt>
      <trkpt lat="38.779567" lon="-5.749383">
        <ele>2188.0</ele>
        <time>2019-05-04T15:51:04Z</time>
      </trkpt>
      <trkpt lat="38.779483" lon="-5.749267">
        <ele>2190.0</ele>
        <time>2019-05-04T15:51:05Z</time>
      </trkpt>
      <trkpt lat="38.779383" lon="-5.749200">
        <ele>2190.0</ele>
        <time>2019-05-04T15:51:06Z</time>
      </trkpt>
      <trkpt lat="38.779283" lon="-5.749167">
        <ele>2191.0</ele>
        <time>2019-05-04T15:51:07Z</time>
      </trkpt>
      <trkpt lat="38.779200" lon="-5.749167">
        <ele>2192.0</ele>
        <time>2019-05-04T15:51:08Z</time>
      </trkpt>
      <trkpt lat="38.779150" lon="-5.749217">
        <ele>2194.0</ele>
        <time>2019-05-04T15:51:09Z</time>
      </trkpt>
      <trkpt lat="38.779133" lon="-5.749267">
        <ele>2195.0</ele>
        <time>2019-05-04T15:51:10Z</time>
      </trkpt>
      <trkpt lat="38.779167" lon="-5.749333">
        <ele>2196.0</ele>
        <time>2019-05-04T15:51:11Z</time>
      </trkpt>
      <trkpt lat="38.779217" lon="-5.749350">
        <ele>2197.0</ele>
        <time>2019-05-04T15:51:12Z</time>
      </trkpt>
      <trkpt lat="38.779283" lon="-5.749333">
        <ele>2199.0</ele>
        <time>2019-05-04T15:51:13Z</time>
      </trkpt>
      <trkpt lat="38.779333" lon="-5.749300">
        <ele>2196.0</ele>
        <time>2019-05-04T15:51:14Z</time>
      </trkpt>
      <trkpt lat="38.779400" lon="-5.749267">
        <ele>2196.0</ele>
        <time>2019-05-04T15:51:15Z</time>
      </trkpt>
      <trkpt lat="38.779467" lon="-5.749217">
        <ele>2197.0</ele>
        <time>2019-05-04T15:51:16Z</time>
      </trkpt>
      <trkpt lat="38.779550" lon="-5.749117">
        <ele>2197.0</ele>
        <time>2019-05-04T15:51:17Z</time>
      </trkpt>
      <trkpt lat="38.779617" lon="-5.748983">
        <ele>2197.0</ele>
        <time>2019-05-04T15:51:18Z</time>
      </trkpt>
      <trkpt lat="38.779667" lon="-5.748817">
        <ele>2198.0</ele>
        <time>2019-05-04T15:51:19Z</time>
      </trkpt>
      <trkpt lat="38.779667" lon="-5.748650">
        <ele>2199.0</ele>
        <time>2019-05-04T15:51:20Z</time>
      </trkpt>
      <trkpt lat="38.779617" lon="-5.748483">
        <ele>2201.0</ele>
        <time>2019-05-04T15:51:21Z</time>
      </trkpt>
      <trkpt lat="38.779550" lon="-5.748367">
        <ele>2203.0</ele>
        <time>2019-05-04T15:51:22Z</time>
      </trkpt>
      <trkpt lat="38.779467" lon="-5.748267">
        <ele>2203.0</ele>
        <time>2019-05-04T15:51:23Z</time>
      </trkpt>
      <trkpt lat="38.779367" lon="-5.748183">
        <ele>2204.0</ele>
        <time>2019-05-04T15:51:24Z</time>
      </trkpt>
      <trkpt lat="38.779283" lon="-5.748150">
        <ele>2206.0</ele>
        <time>2019-05-04T15:51:25Z</time>
      </trkpt>
      <trkpt lat="38.779217" lon="-5.748150">
        <ele>2207.0</ele>
        <time>2019-05-04T15:51:26Z</time>
      </trkpt>
      <trkpt lat="38.779167" lon="-5.748183">
        <ele>2208.0</ele>
        <time>2019-05-04T15:51:27Z</time>
      </trkpt>
      <trkpt lat="38.779150" lon="-5.748233">
        <ele>2209.0</ele>
        <time>2019-05-04T15:51:28Z</time>
      </trkpt>
      <trkpt lat="38.779183" lon="-5.748267">
        <ele>2207.0</ele>
        <time>2019-05-04T15:51:29Z</time>
      </trkpt>
      <trkpt lat="38.779233" lon="-5.748283">
        <ele>2208.0</ele>
        <time>2019-05-04T15:51:30Z</time>
      </trkpt>
      <trkpt lat="38.779283" lon="-5.748267">
        <ele>2209.0</ele>
        <time>2019-05-04T15:51:31Z</time>
      </trkpt>
      <trkpt lat="38.779350" lon="-5.748233">
        <ele>2210.0</ele>
        <time>2019-05-04T15:51:32Z</time>
      </trkpt>
      <trkpt lat="38.779417" lon="-5.748167">
        <ele>2212.0</ele>
        <time>2019-05-04T15:51:33Z</time>
      </trkpt>
      <trkpt lat="38.779483" lon="-5.748083">
        <ele>2213.0</ele>
        <time>2019-05-04T15:51:34Z</time>
      </trkpt>
      <trkpt lat="38.779533" lon="-5.747967">
        <ele>2214.0</ele>
        <time>2019-05-04T15:51:35Z</time>
      </trkpt>
      <trkpt lat="38.779583" lon="-5.747833">
        <ele>2215.0</ele>
        <time>2019-05-04T15:51:36Z</time>
      </trkpt>
      <trkpt lat="38.779583" lon="-5.747667">
        <ele>2216.0</ele>
        <time>2019-05-04T15:51:37Z</time>
      </trkpt>
      <trkpt lat="38.779550" lon="-5.747500">
        <ele>2216.0</ele>
        <time>2019-05-04T15:51:38Z</time>
      </trkpt>
      <trkpt lat="38.779483" lon="-5.747350">
        <ele>2217.0</ele>
        <time>2019-05-04T15:51:39Z</time>
      </trkpt>
      <trkpt lat="38.779400" lon="-5.747217">
        <ele>2216.0</ele>
        <time>2019-05-04T15:51:40Z</time>
      </trkpt>
      <trkpt lat="38.779317" lon="-5.747083">
        <ele>2217.0</ele>
        <time>2019-05-04T15:51:41Z</time>
      </trkpt>
      <trkpt lat="38.779267" lon="-5.746950">
        <ele>2218.0</ele>
        <time>2019-05-04T15:51:42Z</time>
      </trkpt>
      <trkpt lat="38.779217" lon="-5.746800">
        <ele>2219.0</ele>
        <time>2019-05-04T15:51:43Z</time>
      </trkpt>
      <trkpt lat="38.779167" lon="-5.746650">
        <ele>2220.0</ele>
        <time>2019-05-04T15:51:44Z</time>
      </trkpt>
      <trkpt lat="38.779100" lon="-5.746483">
        <ele>2220.0</ele>
        <time>2019-05-04T15:51:45Z</time>
      </trkpt>
      <trkpt lat="38.779033" lon="-5.746333">
        <ele>2219.0</ele>
        <time>2019-05-04T15:51:46Z</time>
      </trkpt>
      <trkpt lat="38.778983" lon="-5.746183">
        <ele>2219.0</ele>
        <time>2019-05-04T15:51:47Z</time>
      </trkpt>
      <trkpt lat="38.778933" lon="-5.746033">
        <ele>2219.0</ele>
        <time>2019-05-04T15:51:48Z</time>
      </trkpt>
      <trkpt lat="38.778883" lon="-5.745867">
        <ele>2219.0</ele>
        <time>2019-05-04T15:51:49Z</time>
      </trkpt>
      <trkpt lat="38.778833" lon="-5.745700">
        <ele>2219.0</ele>
        <time>2019-05-04T15:51:50Z</time>
      </trkpt>
      <trkpt lat="38.778800" lon="-5.745533">
        <ele>2218.0</ele>
        <time>2019-05-04T15:51:51Z</time>
      </trkpt>
      <trkpt lat="38.778767" lon="-5.745383">
        <ele>2218.0</ele>
        <time>2019-05-04T15:51:52Z</time>
      </trkpt>
      <trkpt lat="38.778733" lon="-5.745217">
        <ele>2217.0</ele>
        <time>2019-05-04T15:51:53Z</time>
      </trkpt>
      <trkpt lat="38.778700" lon="-5.745050">
        <ele>2216.0</ele>
        <time>2019-05-04T15:51:54Z</time>
      </trkpt>
      <trkpt lat="38.778667" lon="-5.744883">
        <ele>2214.0</ele>
        <time>2019-05-04T15:51:55Z</time>
      </trkpt>
      <trkpt lat="38.778650" lon="-5.744733">
        <ele>2212.0</ele>
        <time>2019-05-04T15:51:56Z</time>
      </trkpt>
      <trkpt lat="38.778633" lon="-5.744567">
        <ele>2211.0</ele>
        <time>2019-05-04T15:51:57Z</time>
      </trkpt>
      <trkpt lat="38.778600" lon="-5.744400">
        <ele>2209.0</ele>
        <time>2019-05-04T15:51:58Z</time>
      </trkpt>
      <trkpt lat="38.778567" lon="-5.744250">
        <ele>2207.0</ele>
        <time>2019-05-04T15:51:59Z</time>
      </trkpt>
      <trkpt lat="38.778533" lon="-5.744083">
        <ele>2205.0</ele>
        <time>2019-05-04T15:52:00Z</time>
      </trkpt>
      <trkpt lat="38.778500" lon="-5.743933">
        <ele>2203.0</ele>
        <time>2019-05-04T15:52:01Z</time>
      </trkpt>
      <trkpt lat="38.778467" lon="-5.743783">
        <ele>2202.0</ele>
        <time>2019-05-04T15:52:02Z</time>
      </trkpt>
      <trkpt lat="38.778450" lon="-5.743650">
        <ele>2200.0</ele>
        <time>2019-05-04T15:52:03Z</time>
      </trkpt>
      <trkpt lat="38.778433" lon="-5.743500">
        <ele>2198.0</ele>
        <time>2019-05-04T15:52:04Z</time>
      </trkpt>
      <trkpt lat="38.778400" lon="-5.743350">
        <ele>2195.0</ele>
        <time>2019-05-04T15:52:05Z</time>
      </trkpt>
      <trkpt lat="38.778350" lon="-5.743183">
        <ele>2193.0</ele>
        <time>2019-05-04T15:52:06Z</time>
      </trkpt>
      <trkpt lat="38.778317" lon="-5.743033">
        <ele>2191.0</ele>
        <time>2019-05-04T15:52:07Z</time>
      </trkpt>
      <trkpt lat="38.778283" lon="-5.742900">
        <ele>2190.0</ele>
        <time>2019-05-04T15:52:08Z</time>
      </trkpt>
      <trkpt lat="38.778267" lon="-5.742767">
        <ele>2188.0</ele>
        <time>2019-05-04T15:52:09Z</time>
      </trkpt>
      <trkpt lat="38.778250" lon="-5.742633">
        <ele>2186.0</ele>
        <time>2019-05-04T15:52:10Z</time>
      </trkpt>
      <trkpt lat="38.778217" lon="-5.742483">
        <ele>2184.0</ele>
        <time>2019-05-04T15:52:11Z</time>
      </trkpt>
      <trkpt lat="38.778183" lon="-5.742350">
        <ele>2182.0</ele>
        <time>2019-05-04T15:52:12Z</time>
      </trkpt>
      <trkpt lat="38.778133" lon="-5.742200">
        <ele>2179.0</ele>
        <time>2019-05-04T15:52:13Z</time>
      </trkpt>
      <trkpt lat="38.778083" lon="-5.742050">
        <ele>2177.0</ele>
        <time>2019-05-04T15:52:14Z</time>
      </trkpt>
      <trkpt lat="38.778067" lon="-5.741917">
        <ele>2176.0</ele>
        <time>2019-05-04T15:52:15Z</time>
      </trkpt>
      <trkpt lat="38.778033" lon="-5.741783">
        <ele>2175.0</ele>
        <time>2019-05-04T15:52:16Z</time>
      </trkpt>
      <trkpt lat="38.778000" lon="-5.741650">
        <ele>2173.0</ele>
        <time>2019-05-04T15:52:17Z</time>
      </trkpt>
      <trkpt lat="38.777967" lon="-5.741517">
        <ele>2171.0</ele>
        <time>2019-05-04T15:52:18Z</time>
      </trkpt>
      <trkpt lat="38.777917" lon="-5.741383">
        <ele>2169.0</ele>
        <time>2019-05-04T15:52:19Z</time>
      </trkpt>
      <trkpt lat="38.777850" lon="-5.741233">
        <ele>2166.0</ele>
        <time>2019-05-04T15:52:20Z</time>
      </trkpt>
      <trkpt lat="38.777800" lon="-5.741083">
        <ele>2163.0</ele>
        <time>2019-05-04T15:52:21Z</time>
      </trkpt>
      <trkpt lat="38.777767" lon="-5.740950">
        <ele>2161.0</ele>
        <time>2019-05-04T15:52:22Z</time>
      </trkpt>
      <trkpt lat="38.777733" lon="-5.740800">
        <ele>2158.0</ele>
        <time>2019-05-04T15:52:23Z</time>
      </trkpt>
      <trkpt lat="38.777717" lon="-5.740650">
        <ele>2156.0</ele>
        <time>2019-05-04T15:52:24Z</time>
      </trkpt>
      <trkpt lat="38.777667" lon="-5.740500">
        <ele>2153.0</ele>
        <time>2019-05-04T15:52:25Z</time>
      </trkpt>
      <trkpt lat="38.777617" lon="-5.740350">
        <ele>2150.0</ele>
        <time>2019-05-04T15:52:26Z</time>
      </trkpt>
      <trkpt lat="38.777567" lon="-5.740200">
        <ele>2148.0</ele>
        <time>2019-05-04T15:52:27Z</time>
      </trkpt>
      <trkpt lat="38.777517" lon="-5.740050">
        <ele>2146.0</ele>
        <time>2019-05-04T15:52:28Z</time>
      </trkpt>
      <trkpt lat="38.777483" lon="-5.739933">
        <ele>2146.0</ele>
        <time>2019-05-04T15:52:29Z</time>
      </trkpt>
      <trkpt lat="38.777450" lon="-5.739800">
        <ele>2144.0</ele>
        <time>2019-05-04T15:52:30Z</time>
      </trkpt>
      <trkpt lat="38.777400" lon="-5.739667">
        <ele>2141.0</ele>
        <time>2019-05-04T15:52:31Z</time>
      </trkpt>
      <trkpt lat="38.777350" lon="-5.739533">
        <ele>2139.0</ele>
        <time>2019-05-04T15:52:32Z</time>
      </trkpt>
      <trkpt lat="38.777300" lon="-5.739367">
        <ele>2136.0</ele>
        <time>2019-05-04T15:52:33Z</time>
      </trkpt>
      <trkpt lat="38.777250" lon="-5.739217">
        <ele>2133.0</ele>
        <time>2019-05-04T15:52:34Z</time>
      </trkpt>
      <trkpt lat="38.777200" lon="-5.739083">
        <ele>2131.0</ele>
        <time>2019-05-04T15:52:35Z</time>
      </trkpt>
      <trkpt lat="38.777167" lon="-5.738967">
        <ele>2128.0</ele>
        <time>2019-05-04T15:52:36Z</time>
      </trkpt>
      <trkpt lat="38.777133" lon="-5.738833">
        <ele>2126.0</ele>
        <time>2019-05-04T15:52:37Z</time>
      </trkpt>
      <trkpt lat="38.777100" lon="-5.738700">
        <ele>2123.0</ele>
        <time>2019-05-04T15:52:38Z</time>
      </trkpt>
      <trkpt lat="38.777050" lon="-5.738550">
        <ele>2120.0</ele>
        <time>2019-05-04T15:52:39Z</time>
      </trkpt>
      <trkpt lat="38.777017" lon="-5.738400">
        <ele>2117.0</ele>
        <time>2019-05-04T15:52:40Z</time>
      </trkpt>
      <trkpt lat="38.776967" lon="-5.738233">
        <ele>2114.0</ele>
        <time>2019-05-04T15:52:41Z</time>
      </trkpt>
      <trkpt lat="38.776933" lon="-5.738083">
        <ele>2112.0</ele>
        <time>2019-05-04T15:52:42Z</time>
      </trkpt>
      <trkpt lat="38.776883" lon="-5.737967">
        <ele>2111.0</ele>
        <time>2019-05-04T15:52:43Z</time>
      </trkpt>
      <trkpt lat="38.776850" lon="-5.737850">
        <ele>2109.0</ele>
        <time>2019-05-04T15:52:44Z</time>
      </trkpt>
      <trkpt lat="38.776800" lon="-5.737733">
        <ele>2107.0</ele>
        <time>2019-05-04T15:52:45Z</time>
      </trkpt>
      <trkpt lat="38.776767" lon="-5.737583">
        <ele>2104.0</ele>
        <time>2019-05-04T15:52:46Z</time>
      </trkpt>
      <trkpt lat="38.776717" lon="-5.737433">
        <ele>2101.0</ele>
        <time>2019-05-04T15:52:47Z</time>
      </trkpt>
      <trkpt lat="38.776650" lon="-5.737300">
        <ele>2097.0</ele>
        <time>2019-05-04T15:52:48Z</time>
      </trkpt>
      <trkpt lat="38.776600" lon="-5.737167">
        <ele>2094.0</ele>
        <time>2019-05-04T15:52:49Z</time>
      </trkpt>
      <trkpt lat="38.776550" lon="-5.737033">
        <ele>2092.0</ele>
        <time>2019-05-04T15:52:50Z</time>
      </trkpt>
      <trkpt lat="38.776517" lon="-5.736900">
        <ele>2090.0</ele>
        <time>2019-05-04T15:52:51Z</time>
      </trkpt>
      <trkpt lat="38.776467" lon="-5.736767">
        <ele>2088.0</ele>
        <time>2019-05-04T15:52:52Z</time>
      </trkpt>
      <trkpt lat="38.776417" lon="-5.736633">
        <ele>2085.0</ele>
        <time>2019-05-04T15:52:53Z</time>
      </trkpt>
      <trkpt lat="38.776367" lon="-5.736483">
        <ele>2082.0</ele>
        <time>2019-05-04T15:52:54Z</time>
      </trkpt>
      <trkpt lat="38.776317" lon="-5.736333">
        <ele>2080.0</ele>
        <time>2019-05-04T15:52:55Z</time>
      </trkpt>
      <trkpt lat="38.776283" lon="-5.736200">
        <ele>2078.0</ele>
        <time>2019-05-04T15:52:56Z</time>
      </trkpt>
      <trkpt lat="38.776233" lon="-5.736067">
        <ele>2075.0</ele>
        <time>2019-05-04T15:52:57Z</time>
      </trkpt>
      <trkpt lat="38.776183" lon="-5.735933">
        <ele>2073.0</ele>
        <time>2019-05-04T15:52:58Z</time>
      </trkpt>
      <trkpt lat="38.776133" lon="-5.735800">
        <ele>2072.0</ele>
        <time>2019-05-04T15:52:59Z</time>
      </trkpt>
      <trkpt lat="38.776100" lon="-5.735667">
        <ele>2071.0</ele>
        <time>2019-05-04T15:53:00Z</time>
      </trkpt>
      <trkpt lat="38.776050" lon="-5.735533">
        <ele>2069.0</ele>
        <time>2019-05-04T15:53:01Z</time>
      </trkpt>
      <trkpt lat="38.776000" lon="-5.735400">
        <ele>2066.0</ele>
        <time>2019-05-04T15:53:02Z</time>
      </trkpt>
      <trkpt lat="38.775950" lon="-5.735267">
        <ele>2065.0</ele>
        <time>2019-05-04T15:53:03Z</time>
      </trkpt>
      <trkpt lat="38.775883" lon="-5.735133">
        <ele>2063.0</ele>
        <time>2019-05-04T15:53:04Z</time>
      </trkpt>
      <trkpt lat="38.775817" lon="-5.735017">
        <ele>2062.0</ele>
        <time>2019-05-04T15:53:05Z</time>
      </trkpt>
      <trkpt lat="38.775783" lon="-5.734900">
        <ele>2061.0</ele>
        <time>2019-05-04T15:53:06Z</time>
      </trkpt>
      <trkpt lat="38.775733" lon="-5.734767">
        <ele>2060.0</ele>
        <time>2019-05-04T15:53:07Z</time>
      </trkpt>
      <trkpt lat="38.775700" lon="-5.734633">
        <ele>2058.0</ele>
        <time>2019-05-04T15:53:08Z</time>
      </trkpt>
      <trkpt lat="38.775650" lon="-5.734483">
        <ele>2056.0</ele>
        <time>2019-05-04T15:53:09Z</time>
      </trkpt>
      <trkpt lat="38.775600" lon="-5.734350">
        <ele>2054.0</ele>
        <time>2019-05-04T15:53:10Z</time>
      </trkpt>
      <trkpt lat="38.775533" lon="-5.734217">
        <ele>2052.0</ele>
        <time>2019-05-04T15:53:11Z</time>
      </trkpt>
      <trkpt lat="38.775483" lon="-5.734083">
        <ele>2051.0</ele>
        <time>2019-05-04T15:53:12Z</time>
      </trkpt>
      <trkpt lat="38.775433" lon="-5.733967">
        <ele>2049.0</ele>
        <time>2019-05-04T15:53:13Z</time>
      </trkpt>
      <trkpt lat="38.775400" lon="-5.733817">
        <ele>2048.0</ele>
        <time>2019-05-04T15:53:14Z</time>
      </trkpt>
      <trkpt lat="38.775350" lon="-5.733683">
        <ele>2046.0</ele>
        <time>2019-05-04T15:53:15Z</time>
      </trkpt>
      <trkpt lat="38.775300" lon="-5.733567">
        <ele>2045.0</ele>
        <time>2019-05-04T15:53:16Z</time>
      </trkpt>
      <trkpt lat="38.775233" lon="-5.733433">
        <ele>2044.0</ele>
        <time>2019-05-04T15:53:17Z</time>
      </trkpt>
      <trkpt lat="38.775200" lon="-5.733317">
        <ele>2043.0</ele>
        <time>2019-05-04T15:53:18Z</time>
      </trkpt>
      <trkpt lat="38.775150" lon="-5.733183">
        <ele>2042.0</ele>
        <time>2019-05-04T15:53:19Z</time>
      </trkpt>
      <trkpt lat="38.775100" lon="-5.733050">
        <ele>2041.0</ele>
        <time>2019-05-04T15:53:20Z</time>
      </trkpt>
      <trkpt lat="38.775033" lon="-5.732933">
        <ele>2040.0</ele>
        <time>2019-05-04T15:53:21Z</time>
      </trkpt>
      <trkpt lat="38.774967" lon="-5.732817">
        <ele>2039.0</ele>
        <time>2019-05-04T15:53:22Z</time>
      </trkpt>
      <trkpt lat="38.774900" lon="-5.732700">
        <ele>2037.0</ele>
        <time>2019-05-04T15:53:23Z</time>
      </trkpt>
      <trkpt lat="38.774833" lon="-5.732583">
        <ele>2035.0</ele>
        <time>2019-05-04T15:53:24Z</time>
      </trkpt>
      <trkpt lat="38.774767" lon="-5.732467">
        <ele>2034.0</ele>
        <time>2019-05-04T15:53:25Z</time>
      </trkpt>
      <trkpt lat="38.774717" lon="-5.732333">
        <ele>2032.0</ele>
        <time>2019-05-04T15:53:26Z</time>
      </trkpt>
      <trkpt lat="38.774650" lon="-5.732217">
        <ele>2030.0</ele>
        <time>2019-05-04T15:53:27Z</time>
      </trkpt>
      <trkpt lat="38.774583" lon="-5.732100">
        <ele>2028.0</ele>
        <time>2019-05-04T15:53:28Z</time>
      </trkpt>
      <trkpt lat="38.774517" lon="-5.731983">
        <ele>2027.0</ele>
        <time>2019-05-04T15:53:29Z</time>
      </trkpt>
      <trkpt lat="38.774450" lon="-5.731867">
        <ele>2025.0</ele>
        <time>2019-05-04T15:53:30Z</time>
      </trkpt>
      <trkpt lat="38.774383" lon="-5.731733">
        <ele>2022.0</ele>
        <time>2019-05-04T15:53:31Z</time>
      </trkpt>
      <trkpt lat="38.774333" lon="-5.731600">
        <ele>2021.0</ele>
        <time>2019-05-04T15:53:32Z</time>
      </trkpt>
      <trkpt lat="38.774267" lon="-5.731483">
        <ele>2018.0</ele>
        <time>2019-05-04T15:53:33Z</time>
      </trkpt>
      <trkpt lat="38.774200" lon="-5.731367">
        <ele>2016.0</ele>
        <time>2019-05-04T15:53:34Z</time>
      </trkpt>
      <trkpt lat="38.774133" lon="-5.731250">
        <ele>2013.0</ele>
        <time>2019-05-04T15:53:35Z</time>
      </trkpt>
      <trkpt lat="38.774050" lon="-5.731117">
        <ele>2010.0</ele>
        <time>2019-05-04T15:53:36Z</time>
      </trkpt>
      <trkpt lat="38.773967" lon="-5.730983">
        <ele>2008.0</ele>
        <time>2019-05-04T15:53:37Z</time>
      </trkpt>
      <trkpt lat="38.773883" lon="-5.730867">
        <ele>2006.0</ele>
        <time>2019-05-04T15:53:38Z</time>
      </trkpt>
      <trkpt lat="38.773817" lon="-5.730750">
        <ele>2005.0</ele>
        <time>2019-05-04T15:53:39Z</time>
      </trkpt>
      <trkpt lat="38.773750" lon="-5.730633">
        <ele>2003.0</ele>
        <time>2019-05-04T15:53:40Z</time>
      </trkpt>
      <trkpt lat="38.773667" lon="-5.730517">
        <ele>2002.0</ele>
        <time>2019-05-04T15:53:41Z</time>
      </trkpt>
      <trkpt lat="38.773583" lon="-5.730383">
        <ele>2000.0</ele>
        <time>2019-05-04T15:53:42Z</time>
      </trkpt>
      <trkpt lat="38.773517" lon="-5.730267">
        <ele>1998.0</ele>
        <time>2019-05-04T15:53:43Z</time>
      </trkpt>
      <trkpt lat="38.773433" lon="-5.730133">
        <ele>1996.0</ele>
        <time>2019-05-04T15:53:44Z</time>
      </trkpt>
      <trkpt lat="38.773350" lon="-5.730017">
        <ele>1993.0</ele>
        <time>2019-05-04T15:53:45Z</time>
      </trkpt>
      <trkpt lat="38.773283" lon="-5.729900">
        <ele>1992.0</ele>
        <time>2019-05-04T15:53:46Z</time>
      </trkpt>
      <trkpt lat="38.773217" lon="-5.729783">
        <ele>1990.0</ele>
        <time>2019-05-04T15:53:47Z</time>
      </trkpt>
      <trkpt lat="38.773133" lon="-5.729667">
        <ele>1987.0</ele>
        <time>2019-05-04T15:53:48Z</time>
      </trkpt>
      <trkpt lat="38.773067" lon="-5.729533">
        <ele>1985.0</ele>
        <time>2019-05-04T15:53:49Z</time>
      </trkpt>
      <trkpt lat="38.772983" lon="-5.729400">
        <ele>1982.0</ele>
        <time>2019-05-04T15:53:50Z</time>
      </trkpt>
      <trkpt lat="38.772917" lon="-5.729267">
        <ele>1980.0</ele>
        <time>2019-05-04T15:53:51Z</time>
      </trkpt>
      <trkpt lat="38.772850" lon="-5.729150">
        <ele>1978.0</ele>
        <time>2019-05-04T15:53:52Z</time>
      </trkpt>
      <trkpt lat="38.772783" lon="-5.729017">
        <ele>1977.0</ele>
        <time>2019-05-04T15:53:53Z</time>
      </trkpt>
      <trkpt lat="38.772717" lon="-5.728917">
        <ele>1975.0</ele>
        <time>2019-05-04T15:53:54Z</time>
      </trkpt>
      <trkpt lat="38.772650" lon="-5.728783">
        <ele>1973.0</ele>
        <time>2019-05-04T15:53:55Z</time>
      </trkpt>
      <trkpt lat="38.772583" lon="-5.728667">
        <ele>1970.0</ele>
        <time>2019-05-04T15:53:56Z</time>
      </trkpt>
      <trkpt lat="38.772500" lon="-5.728533">
        <ele>1967.0</ele>
        <time>2019-05-04T15:53:57Z</time>
      </trkpt>
      <trkpt lat="38.772417" lon="-5.728400">
        <ele>1964.0</ele>
        <time>2019-05-04T15:53:58Z</time>
      </trkpt>
      <trkpt lat="38.772333" lon="-5.728283">
        <ele>1962.0</ele>
        <time>2019-05-04T15:53:59Z</time>
      </trkpt>
      <trkpt lat="38.772267" lon="-5.728167">
        <ele>1961.0</ele>
        <time>2019-05-04T15:54:00Z</time>
      </trkpt>
      <trkpt lat="38.772183" lon="-5.728050">
        <ele>1959.0</ele>
        <time>2019-05-04T15:54:01Z</time>
      </trkpt>
      <trkpt lat="38.772117" lon="-5.727900">
        <ele>1957.0</ele>
        <time>2019-05-04T15:54:02Z</time>
      </trkpt>
      <trkpt lat="38.772033" lon="-5.727767">
        <ele>1954.0</ele>
        <time>2019-05-04T15:54:03Z</time>
      </trkpt>
      <trkpt lat="38.771967" lon="-5.727650">
        <ele>1953.0</ele>
        <time>2019-05-04T15:54:04Z</time>
      </trkpt>
      <trkpt lat="38.771900" lon="-5.727533">
        <ele>1953.0</ele>
        <time>2019-05-04T15:54:05Z</time>
      </trkpt>
      <trkpt lat="38.771833" lon="-5.727417">
        <ele>1951.0</ele>
        <time>2019-05-04T15:54:06Z</time>
      </trkpt>
      <trkpt lat="38.771767" lon="-5.727283">
        <ele>1950.0</ele>
        <time>2019-05-04T15:54:07Z</time>
      </trkpt>
      <trkpt lat="38.771700" lon="-5.727150">
        <ele>1948.0</ele>
        <time>2019-05-04T15:54:08Z</time>
      </trkpt>
      <trkpt lat="38.771650" lon="-5.727017">
        <ele>1946.0</ele>
        <time>2019-05-04T15:54:09Z</time>
      </trkpt>
      <trkpt lat="38.771583" lon="-5.726883">
        <ele>1944.0</ele>
        <time>2019-05-04T15:54:10Z</time>
      </trkpt>
      <trkpt lat="38.771517" lon="-5.726750">
        <ele>1942.0</ele>
        <time>2019-05-04T15:54:11Z</time>
      </trkpt>
      <trkpt lat="38.771467" lon="-5.726600">
        <ele>1938.0</ele>
        <time>2019-05-04T15:54:12Z</time>
      </trkpt>
      <trkpt lat="38.771400" lon="-5.726450">
        <ele>1935.0</ele>
        <time>2019-05-04T15:54:13Z</time>
      </trkpt>
      <trkpt lat="38.771333" lon="-5.726300">
        <ele>1933.0</ele>
        <time>2019-05-04T15:54:14Z</time>
      </trkpt>
      <trkpt lat="38.771283" lon="-5.726150">
        <ele>1934.0</ele>
        <time>2019-05-04T15:54:15Z</time>
      </trkpt>
      <trkpt lat="38.771233" lon="-5.726033">
        <ele>1933.0</ele>
        <time>2019-05-04T15:54:16Z</time>
      </trkpt>
      <trkpt lat="38.771167" lon="-5.725900">
        <ele>1931.0</ele>
        <time>2019-05-04T15:54:17Z</time>
      </trkpt>
      <trkpt lat="38.771100" lon="-5.725783">
        <ele>1930.0</ele>
        <time>2019-05-04T15:54:18Z</time>
      </trkpt>
      <trkpt lat="38.771033" lon="-5.725667">
        <ele>1928.0</ele>
        <time>2019-05-04T15:54:19Z</time>
      </trkpt>
      <trkpt lat="38.770967" lon="-5.725550">
        <ele>1927.0</ele>
        <time>2019-05-04T15:54:20Z</time>
      </trkpt>
      <trkpt lat="38.770900" lon="-5.725433">
        <ele>1926.0</ele>
        <time>2019-05-04T15:54:21Z</time>
      </trkpt>
      <trkpt lat="38.770850" lon="-5.725317">
        <ele>1926.0</ele>
        <time>2019-05-04T15:54:22Z</time>
      </trkpt>
      <trkpt lat="38.770783" lon="-5.725217">
        <ele>1926.0</ele>
        <time>2019-05-04T15:54:23Z</time>
      </trkpt>
      <trkpt lat="38.770700" lon="-5.725100">
        <ele>1925.0</ele>
        <time>2019-05-04T15:54:24Z</time>
      </trkpt>
      <trkpt lat="38.770633" lon="-5.724983">
        <ele>1923.0</ele>
        <time>2019-05-04T15:54:25Z</time>
      </trkpt>
      <trkpt lat="38.770550" lon="-5.724883">
        <ele>1922.0</ele>
        <time>2019-05-04T15:54:26Z</time>
      </trkpt>
      <trkpt lat="38.770483" lon="-5.724767">
        <ele>1921.0</ele>
        <time>2019-05-04T15:54:27Z</time>
      </trkpt>
      <trkpt lat="38.770400" lon="-5.724667">
        <ele>1919.0</ele>
        <time>2019-05-04T15:54:28Z</time>
      </trkpt>
      <trkpt lat="38.770333" lon="-5.724567">
        <ele>1918.0</ele>
        <time>2019-05-04T15:54:29Z</time>
      </trkpt>
      <trkpt lat="38.770250" lon="-5.724467">
        <ele>1917.0</ele>
        <time>2019-05-04T15:54:30Z</time>
      </trkpt>
      <trkpt lat="38.770167" lon="-5.724367">
        <ele>1915.0</ele>
        <time>2019-05-04T15:54:31Z</time>
      </trkpt>
      <trkpt lat="38.770083" lon="-5.724267">
        <ele>1913.0</ele>
        <time>2019-05-04T15:54:32Z</time>
      </trkpt>
      <trkpt lat="38.770000" lon="-5.724150">
        <ele>1913.0</ele>
        <time>2019-05-04T15:54:33Z</time>
      </trkpt>
      <trkpt lat="38.769933" lon="-5.724050">
        <ele>1911.0</ele>
        <time>2019-05-04T15:54:34Z</time>
      </trkpt>
      <trkpt lat="38.769867" lon="-5.723933">
        <ele>1910.0</ele>
        <time>2019-05-04T15:54:35Z</time>
      </trkpt>
      <trkpt lat="38.769800" lon="-5.723817">
        <ele>1908.0</ele>
        <time>2019-05-04T15:54:36Z</time>
      </trkpt>
      <trkpt lat="38.769733" lon="-5.723683">
        <ele>1906.0</ele>
        <time>2019-05-04T15:54:37Z</time>
      </trkpt>
      <trkpt lat="38.769650" lon="-5.723567">
        <ele>1903.0</ele>
        <time>2019-05-04T15:54:38Z</time>
      </trkpt>
      <trkpt lat="38.769583" lon="-5.723450">
        <ele>1901.0</ele>
        <time>2019-05-04T15:54:39Z</time>
      </trkpt>
      <trkpt lat="38.769517" lon="-5.723333">
        <ele>1899.0</ele>
        <time>2019-05-04T15:54:40Z</time>
      </trkpt>
      <trkpt lat="38.769450" lon="-5.723217">
        <ele>1898.0</ele>
        <time>2019-05-04T15:54:41Z</time>
      </trkpt>
      <trkpt lat="38.769383" lon="-5.723100">
        <ele>1896.0</ele>
        <time>2019-05-04T15:54:42Z</time>
      </trkpt>
      <trkpt lat="38.769317" lon="-5.722983">
        <ele>1894.0</ele>
        <time>2019-05-04T15:54:43Z</time>
      </trkpt>
      <trkpt lat="38.769250" lon="-5.722850">
        <ele>1892.0</ele>
        <time>2019-05-04T15:54:44Z</time>
      </trkpt>
      <trkpt lat="38.769183" lon="-5.722733">
        <ele>1889.0</ele>
        <time>2019-05-04T15:54:45Z</time>
      </trkpt>
      <trkpt lat="38.769100" lon="-5.722617">
        <ele>1886.0</ele>
        <time>2019-05-04T15:54:46Z</time>
      </trkpt>
      <trkpt lat="38.769033" lon="-5.722500">
        <ele>1884.0</ele>
        <time>2019-05-04T15:54:47Z</time>
      </trkpt>
      <trkpt lat="38.768950" lon="-5.722383">
        <ele>1881.0</ele>
        <time>2019-05-04T15:54:48Z</time>
      </trkpt>
      <trkpt lat="38.768867" lon="-5.722283">
        <ele>1879.0</ele>
        <time>2019-05-04T15:54:49Z</time>
      </trkpt>
      <trkpt lat="38.768783" lon="-5.722167">
        <ele>1876.0</ele>
        <time>2019-05-04T15:54:50Z</time>
      </trkpt>
      <trkpt lat="38.768700" lon="-5.722033">
        <ele>1873.0</ele>
        <time>2019-05-04T15:54:51Z</time>
      </trkpt>
      <trkpt lat="38.768617" lon="-5.721900">
        <ele>1870.0</ele>
        <time>2019-05-04T15:54:52Z</time>
      </trkpt>
      <trkpt lat="38.768533" lon="-5.721783">
        <ele>1867.0</ele>
        <time>2019-05-04T15:54:53Z</time>
      </trkpt>
      <trkpt lat="38.768450" lon="-5.721650">
        <ele>1865.0</ele>
        <time>2019-05-04T15:54:54Z</time>
      </trkpt>
      <trkpt lat="38.768367" lon="-5.721533">
        <ele>1863.0</ele>
        <time>2019-05-04T15:54:55Z</time>
      </trkpt>
      <trkpt lat="38.768283" lon="-5.721417">
        <ele>1861.0</ele>
        <time>2019-05-04T15:54:56Z</time>
      </trkpt>
      <trkpt lat="38.768200" lon="-5.721317">
        <ele>1858.0</ele>
        <time>2019-05-04T15:54:57Z</time>
      </trkpt>
      <trkpt lat="38.768100" lon="-5.721200">
        <ele>1856.0</ele>
        <time>2019-05-04T15:54:58Z</time>
      </trkpt>
      <trkpt lat="38.768017" lon="-5.721100">
        <ele>1854.0</ele>
        <time>2019-05-04T15:54:59Z</time>
      </trkpt>
      <trkpt lat="38.767933" lon="-5.720983">
        <ele>1851.0</ele>
        <time>2019-05-04T15:55:00Z</time>
      </trkpt>
      <trkpt lat="38.767850" lon="-5.720883">
        <ele>1849.0</ele>
        <time>2019-05-04T15:55:01Z</time>
      </trkpt>
      <trkpt lat="38.767767" lon="-5.720767">
        <ele>1845.0</ele>
        <time>2019-05-04T15:55:02Z</time>
      </trkpt>
      <trkpt lat="38.767667" lon="-5.720650">
        <ele>1841.0</ele>
        <time>2019-05-04T15:55:03Z</time>
      </trkpt>
      <trkpt lat="38.767583" lon="-5.720550">
        <ele>1838.0</ele>
        <time>2019-05-04T15:55:04Z</time>
      </trkpt>
      <trkpt lat="38.767500" lon="-5.720467">
        <ele>1837.0</ele>
        <time>2019-05-04T15:55:05Z</time>
      </trkpt>
      <trkpt lat="38.767433" lon="-5.720367">
        <ele>1835.0</ele>
        <time>2019-05-04T15:55:06Z</time>
      </trkpt>
      <trkpt lat="38.767350" lon="-5.720283">
        <ele>1832.0</ele>
        <time>2019-05-04T15:55:07Z</time>
      </trkpt>
      <trkpt lat="38.767267" lon="-5.720183">
        <ele>1830.0</ele>
        <time>2019-05-04T15:55:08Z</time>
      </trkpt>
      <trkpt lat="38.767183" lon="-5.720067">
        <ele>1826.0</ele>
        <time>2019-05-04T15:55:09Z</time>
      </trkpt>
      <trkpt lat="38.767083" lon="-5.719950">
        <ele>1823.0</ele>
        <time>2019-05-04T15:55:10Z</time>
      </trkpt>
      <trkpt lat="38.767000" lon="-5.719833">
        <ele>1820.0</ele>
        <time>2019-05-04T15:55:11Z</time>
      </trkpt>
      <trkpt lat="38.766917" lon="-5.719717">
        <ele>1819.0</ele>
        <time>2019-05-04T15:55:12Z</time>
      </trkpt>
      <trkpt lat="38.766867" lon="-5.719600">
        <ele>1819.0</ele>
        <time>2019-05-04T15:55:13Z</time>
      </trkpt>
      <trkpt lat="38.766800" lon="-5.719500">
        <ele>1818.0</ele>
        <time>2019-05-04T15:55:14Z</time>
      </trkpt>
      <trkpt lat="38.766733" lon="-5.719417">
        <ele>1817.0</ele>
        <time>2019-05-04T15:55:15Z</time>
      </trkpt>
      <trkpt lat="38.766667" lon="-5.719333">
        <ele>1816.0</ele>
        <time>2019-05-04T15:55:16Z</time>
      </trkpt>
      <trkpt lat="38.766583" lon="-5.719267">
        <ele>1814.0</ele>
        <time>2019-05-04T15:55:17Z</time>
      </trkpt>
      <trkpt lat="38.766500" lon="-5.719167">
        <ele>1812.0</ele>
        <time>2019-05-04T15:55:18Z</time>
      </trkpt>
      <trkpt lat="38.766433" lon="-5.719083">
        <ele>1810.0</ele>
        <time>2019-05-04T15:55:19Z</time>
      </trkpt>
      <trkpt lat="38.766350" lon="-5.718983">
        <ele>1809.0</ele>
        <time>2019-05-04T15:55:20Z</time>
      </trkpt>
      <trkpt lat="38.766300" lon="-5.718900">
        <ele>1807.0</ele>
        <time>2019-05-04T15:55:21Z</time>
      </trkpt>
      <trkpt lat="38.766233" lon="-5.718817">
        <ele>1805.0</ele>
        <time>2019-05-04T15:55:22Z</time>
      </trkpt>
      <trkpt lat="38.766150" lon="-5.718733">
        <ele>1802.0</ele>
        <time>2019-05-04T15:55:23Z</time>
      </trkpt>
      <trkpt lat="38.766067" lon="-5.718650">
        <ele>1799.0</ele>
        <time>2019-05-04T15:55:24Z</time>
      </trkpt>
      <trkpt lat="38.765983" lon="-5.718550">
        <ele>1796.0</ele>
        <time>2019-05-04T15:55:25Z</time>
      </trkpt>
      <trkpt lat="38.765900" lon="-5.718450">
        <ele>1794.0</ele>
        <time>2019-05-04T15:55:26Z</time>
      </trkpt>
      <trkpt lat="38.765833" lon="-5.718367">
        <ele>1792.0</ele>
        <time>2019-05-04T15:55:27Z</time>
      </trkpt>
      <trkpt lat="38.765750" lon="-5.718267">
        <ele>1790.0</ele>
        <time>2019-05-04T15:55:28Z</time>
      </trkpt>
      <trkpt lat="38.765683" lon="-5.718167">
        <ele>1788.0</ele>
        <time>2019-05-04T15:55:29Z</time>
      </trkpt>
      <trkpt lat="38.765617" lon="-5.718067">
        <ele>1786.0</ele>
        <time>2019-05-04T15:55:30Z</time>
      </trkpt>
      <trkpt lat="38.765533" lon="-5.717967">
        <ele>1783.0</ele>
        <time>2019-05-04T15:55:31Z</time>
      </trkpt>
      <trkpt lat="38.765450" lon="-5.717867">
        <ele>1781.0</ele>
        <time>2019-05-04T15:55:32Z</time>
      </trkpt>
      <trkpt lat="38.765383" lon="-5.717767">
        <ele>1779.0</ele>
        <time>2019-05-04T15:55:33Z</time>
      </trkpt>
      <trkpt lat="38.765300" lon="-5.717667">
        <ele>1777.0</ele>
        <time>2019-05-04T15:55:34Z</time>
      </trkpt>
      <trkpt lat="38.765233" lon="-5.717567">
        <ele>1775.0</ele>
        <time>2019-05-04T15:55:35Z</time>
      </trkpt>
      <trkpt lat="38.765150" lon="-5.717483">
        <ele>1773.0</ele>
        <time>2019-05-04T15:55:36Z</time>
      </trkpt>
      <trkpt lat="38.765083" lon="-5.717400">
        <ele>1771.0</ele>
        <time>2019-05-04T15:55:37Z</time>
      </trkpt>
      <trkpt lat="38.765017" lon="-5.717300">
        <ele>1769.0</ele>
        <time>2019-05-04T15:55:38Z</time>
      </trkpt>
      <trkpt lat="38.764933" lon="-5.717217">
        <ele>1767.0</ele>
        <time>2019-05-04T15:55:39Z</time>
      </trkpt>
      <trkpt lat="38.764867" lon="-5.717117">
        <ele>1764.0</ele>
        <time>2019-05-04T15:55:40Z</time>
      </trkpt>
      <trkpt lat="38.764800" lon="-5.717033">
        <ele>1762.0</ele>
        <time>2019-05-04T15:55:41Z</time>
      </trkpt>
      <trkpt lat="38.764717" lon="-5.716950">
        <ele>1761.0</ele>
        <time>2019-05-04T15:55:42Z</time>
      </trkpt>
      <trkpt lat="38.764650" lon="-5.716867">
        <ele>1759.0</ele>
        <time>2019-05-04T15:55:43Z</time>
      </trkpt>
      <trkpt lat="38.764583" lon="-5.716783">
        <ele>1757.0</ele>
        <time>2019-05-04T15:55:44Z</time>
      </trkpt>
      <trkpt lat="38.764500" lon="-5.716700">
        <ele>1755.0</ele>
        <time>2019-05-04T15:55:45Z</time>
      </trkpt>
      <trkpt lat="38.764433" lon="-5.716617">
        <ele>1753.0</ele>
        <time>2019-05-04T15:55:46Z</time>
      </trkpt>
      <trkpt lat="38.764350" lon="-5.716533">
        <ele>1752.0</ele>
        <time>2019-05-04T15:55:47Z</time>
      </trkpt>
      <trkpt lat="38.764283" lon="-5.716450">
        <ele>1750.0</ele>
        <time>2019-05-04T15:55:48Z</time>
      </trkpt>
      <trkpt lat="38.764217" lon="-5.716367">
        <ele>1749.0</ele>
        <time>2019-05-04T15:55:49Z</time>
      </trkpt>
      <trkpt lat="38.764133" lon="-5.716267">
        <ele>1747.0</ele>
        <time>2019-05-04T15:55:50Z</time>
      </trkpt>
      <trkpt lat="38.764050" lon="-5.716183">
        <ele>1744.0</ele>
        <time>2019-05-04T15:55:51Z</time>
      </trkpt>
      <trkpt lat="38.763967" lon="-5.716100">
        <ele>1742.0</ele>
        <time>2019-05-04T15:55:52Z</time>
      </trkpt>
      <trkpt lat="38.763900" lon="-5.716017">
        <ele>1741.0</ele>
        <time>2019-05-04T15:55:53Z</time>
      </trkpt>
      <trkpt lat="38.763817" lon="-5.715950">
        <ele>1739.0</ele>
        <time>2019-05-04T15:55:54Z</time>
      </trkpt>
      <trkpt lat="38.763750" lon="-5.715867">
        <ele>1738.0</ele>
        <time>2019-05-04T15:55:55Z</time>
      </trkpt>
      <trkpt lat="38.763667" lon="-5.715767">
        <ele>1736.0</ele>
        <time>2019-05-04T15:55:56Z</time>
      </trkpt>
      <trkpt lat="38.763600" lon="-5.715683">
        <ele>1734.0</ele>
        <time>2019-05-04T15:55:57Z</time>
      </trkpt>
      <trkpt lat="38.763517" lon="-5.715600">
        <ele>1733.0</ele>
        <time>2019-05-04T15:55:58Z</time>
      </trkpt>
      <trkpt lat="38.763433" lon="-5.715517">
        <ele>1731.0</ele>
        <time>2019-05-04T15:55:59Z</time>
      </trkpt>
      <trkpt lat="38.763350" lon="-5.715450">
        <ele>1730.0</ele>
        <time>2019-05-04T15:56:00Z</time>
      </trkpt>
      <trkpt lat="38.763283" lon="-5.715367">
        <ele>1729.0</ele>
        <time>2019-05-04T15:56:01Z</time>
      </trkpt>
      <trkpt lat="38.763217" lon="-5.715283">
        <ele>1728.0</ele>
        <time>2019-05-04T15:56:02Z</time>
      </trkpt>
      <trkpt lat="38.763133" lon="-5.715217">
        <ele>1726.0</ele>
        <time>2019-05-04T15:56:03Z</time>
      </trkpt>
      <trkpt lat="38.763050" lon="-5.715133">
        <ele>1725.0</ele>
        <time>2019-05-04T15:56:04Z</time>
      </trkpt>
      <trkpt lat="38.762967" lon="-5.715067">
        <ele>1723.0</ele>
        <time>2019-05-04T15:56:05Z</time>
      </trkpt>
      <trkpt lat="38.762883" lon="-5.715000">
        <ele>1721.0</ele>
        <time>2019-05-04T15:56:06Z</time>
      </trkpt>
      <trkpt lat="38.762800" lon="-5.714917">
        <ele>1719.0</ele>
        <time>2019-05-04T15:56:07Z</time>
      </trkpt>
      <trkpt lat="38.762717" lon="-5.714833">
        <ele>1718.0</ele>
        <time>2019-05-04T15:56:08Z</time>
      </trkpt>
      <trkpt lat="38.762650" lon="-5.714767">
        <ele>1718.0</ele>
        <time>2019-05-04T15:56:09Z</time>
      </trkpt>
      <trkpt lat="38.762583" lon="-5.714683">
        <ele>1717.0</ele>
        <time>2019-05-04T15:56:10Z</time>
      </trkpt>
      <trkpt lat="38.762500" lon="-5.714617">
        <ele>1716.0</ele>
        <time>2019-05-04T15:56:11Z</time>
      </trkpt>
      <trkpt lat="38.762417" lon="-5.714550">
        <ele>1714.0</ele>
        <time>2019-05-04T15:56:12Z</time>
      </trkpt>
      <trkpt lat="38.762350" lon="-5.714467">
        <ele>1712.0</ele>
        <time>2019-05-04T15:56:13Z</time>
      </trkpt>
      <trkpt lat="38.762267" lon="-5.714400">
        <ele>1710.0</ele>
        <time>2019-05-04T15:56:14Z</time>
      </trkpt>
      <trkpt lat="38.762183" lon="-5.714317">
        <ele>1708.0</ele>
        <time>2019-05-04T15:56:15Z</time>
      </trkpt>
      <trkpt lat="38.762100" lon="-5.714250">
        <ele>1707.0</ele>
        <time>2019-05-04T15:56:16Z</time>
      </trkpt>
      <trkpt lat="38.762033" lon="-5.714167">
        <ele>1706.0</ele>
        <time>2019-05-04T15:56:17Z</time>
      </trkpt>
      <trkpt lat="38.761950" lon="-5.714083">
        <ele>1705.0</ele>
        <time>2019-05-04T15:56:18Z</time>
      </trkpt>
      <trkpt lat="38.761883" lon="-5.714017">
        <ele>1703.0</ele>
        <time>2019-05-04T15:56:19Z</time>
      </trkpt>
      <trkpt lat="38.761800" lon="-5.713933">
        <ele>1701.0</ele>
        <time>2019-05-04T15:56:20Z</time>
      </trkpt>
      <trkpt lat="38.761717" lon="-5.713850">
        <ele>1699.0</ele>
        <time>2019-05-04T15:56:21Z</time>
      </trkpt>
      <trkpt lat="38.761650" lon="-5.713767">
        <ele>1698.0</ele>
        <time>2019-05-04T15:56:22Z</time>
      </trkpt>
      <trkpt lat="38.761567" lon="-5.713683">
        <ele>1696.0</ele>
        <time>2019-05-04T15:56:23Z</time>
      </trkpt>
      <trkpt lat="38.761500" lon="-5.713600">
        <ele>1695.0</ele>
        <time>2019-05-04T15:56:24Z</time>
      </trkpt>
      <trkpt lat="38.761417" lon="-5.713533">
        <ele>1693.0</ele>
        <time>2019-05-04T15:56:25Z</time>
      </trkpt>
      <trkpt lat="38.761350" lon="-5.713450">
        <ele>1691.0</ele>
        <time>2019-05-04T15:56:26Z</time>
      </trkpt>
      <trkpt lat="38.761267" lon="-5.713367">
        <ele>1689.0</ele>
        <time>2019-05-04T15:56:27Z</time>
      </trkpt>
      <trkpt lat="38.761183" lon="-5.713283">
        <ele>1687.0</ele>
        <time>2019-05-04T15:56:28Z</time>
      </trkpt>
      <trkpt lat="38.761100" lon="-5.713200">
        <ele>1685.0</ele>
        <time>2019-05-04T15:56:29Z</time>
      </trkpt>
      <trkpt lat="38.761017" lon="-5.713117">
        <ele>1683.0</ele>
        <time>2019-05-04T15:56:30Z</time>
      </trkpt>
      <trkpt lat="38.760950" lon="-5.713033">
        <ele>1681.0</ele>
        <time>2019-05-04T15:56:31Z</time>
      </trkpt>
      <trkpt lat="38.760867" lon="-5.712950">
        <ele>1680.0</ele>
        <time>2019-05-04T15:56:32Z</time>
      </trkpt>
      <trkpt lat="38.760800" lon="-5.712867">
        <ele>1679.0</ele>
        <time>2019-05-04T15:56:33Z</time>
      </trkpt>
      <trkpt lat="38.760717" lon="-5.712800">
        <ele>1678.0</ele>
        <time>2019-05-04T15:56:34Z</time>
      </trkpt>
      <trkpt lat="38.760650" lon="-5.712717">
        <ele>1676.0</ele>
        <time>2019-05-04T15:56:35Z</time>
      </trkpt>
      <trkpt lat="38.760567" lon="-5.712650">
        <ele>1674.0</ele>
        <time>2019-05-04T15:56:36Z</time>
      </trkpt>
      <trkpt lat="38.760483" lon="-5.712583">
        <ele>1672.0</ele>
        <time>2019-05-04T15:56:37Z</time>
      </trkpt>
      <trkpt lat="38.760400" lon="-5.712517">
        <ele>1671.0</ele>
        <time>2019-05-04T15:56:38Z</time>
      </trkpt>
      <trkpt lat="38.760333" lon="-5.712450">
        <ele>1669.0</ele>
        <time>2019-05-04T15:56:39Z</time>
      </trkpt>
      <trkpt lat="38.760250" lon="-5.712383">
        <ele>1668.0</ele>
        <time>2019-05-04T15:56:40Z</time>
      </trkpt>
      <trkpt lat="38.760167" lon="-5.712317">
        <ele>1666.0</ele>
        <time>2019-05-04T15:56:41Z</time>
      </trkpt>
      <trkpt lat="38.760083" lon="-5.712250">
        <ele>1664.0</ele>
        <time>2019-05-04T15:56:42Z</time>
      </trkpt>
      <trkpt lat="38.760017" lon="-5.712183">
        <ele>1663.0</ele>
        <time>2019-05-04T15:56:43Z</time>
      </trkpt>
      <trkpt lat="38.759933" lon="-5.712117">
        <ele>1662.0</ele>
        <time>2019-05-04T15:56:44Z</time>
      </trkpt>
      <trkpt lat="38.759850" lon="-5.712050">
        <ele>1660.0</ele>
        <time>2019-05-04T15:56:45Z</time>
      </trkpt>
      <trkpt lat="38.759783" lon="-5.711983">
        <ele>1659.0</ele>
        <time>2019-05-04T15:56:46Z</time>
      </trkpt>
      <trkpt lat="38.759700" lon="-5.711900">
        <ele>1657.0</ele>
        <time>2019-05-04T15:56:47Z</time>
      </trkpt>
      <trkpt lat="38.759633" lon="-5.711800">
        <ele>1656.0</ele>
        <time>2019-05-04T15:56:48Z</time>
      </trkpt>
      <trkpt lat="38.759550" lon="-5.711700">
        <ele>1654.0</ele>
        <time>2019-05-04T15:56:49Z</time>
      </trkpt>
      <trkpt lat="38.759483" lon="-5.711600">
        <ele>1654.0</ele>
        <time>2019-05-04T15:56:50Z</time>
      </trkpt>
      <trkpt lat="38.759417" lon="-5.711483">
        <ele>1652.0</ele>
        <time>2019-05-04T15:56:51Z</time>
      </trkpt>
      <trkpt lat="38.759350" lon="-5.711383">
        <ele>1651.0</ele>
        <time>2019-05-04T15:56:52Z</time>
      </trkpt>
      <trkpt lat="38.759283" lon="-5.711283">
        <ele>1649.0</ele>
        <time>2019-05-04T15:56:53Z</time>
      </trkpt>
      <trkpt lat="38.759217" lon="-5.711183">
        <ele>1647.0</ele>
        <time>2019-05-04T15:56:54Z</time>
      </trkpt>
      <trkpt lat="38.759150" lon="-5.711083">
        <ele>1646.0</ele>
        <time>2019-05-04T15:56:55Z</time>
      </trkpt>
      <trkpt lat="38.759083" lon="-5.710983">
        <ele>1646.0</ele>
        <time>2019-05-04T15:56:56Z</time>
      </trkpt>
      <trkpt lat="38.759017" lon="-5.710900">
        <ele>1647.0</ele>
        <time>2019-05-04T15:56:57Z</time>
      </trkpt>
      <trkpt lat="38.758950" lon="-5.710817">
        <ele>1646.0</ele>
        <time>2019-05-04T15:56:58Z</time>
      </trkpt>
      <trkpt lat="38.758883" lon="-5.710717">
        <ele>1645.0</ele>
        <time>2019-05-04T15:56:59Z</time>
      </trkpt>
      <trkpt lat="38.758800" lon="-5.710633">
        <ele>1644.0</ele>
        <time>2019-05-04T15:57:00Z</time>
      </trkpt>
      <trkpt lat="38.758717" lon="-5.710550">
        <ele>1642.0</ele>
        <time>2019-05-04T15:57:01Z</time>
      </trkpt>
      <trkpt lat="38.758650" lon="-5.710450">
        <ele>1643.0</ele>
        <time>2019-05-04T15:57:02Z</time>
      </trkpt>
      <trkpt lat="38.758583" lon="-5.710367">
        <ele>1643.0</ele>
        <time>2019-05-04T15:57:03Z</time>
      </trkpt>
      <trkpt lat="38.758517" lon="-5.710283">
        <ele>1643.0</ele>
        <time>2019-05-04T15:57:04Z</time>
      </trkpt>
      <trkpt lat="38.758450" lon="-5.710217">
        <ele>1642.0</ele>
        <time>2019-05-04T15:57:05Z</time>
      </trkpt>
      <trkpt lat="38.758367" lon="-5.710133">
        <ele>1640.0</ele>
        <time>2019-05-04T15:57:06Z</time>
      </trkpt>
      <trkpt lat="38.758283" lon="-5.710050">
        <ele>1639.0</ele>
        <time>2019-05-04T15:57:07Z</time>
      </trkpt>
      <trkpt lat="38.758200" lon="-5.709967">
        <ele>1638.0</ele>
        <time>2019-05-04T15:57:08Z</time>
      </trkpt>
      <trkpt lat="38.758117" lon="-5.709883">
        <ele>1637.0</ele>
        <time>2019-05-04T15:57:09Z</time>
      </trkpt>
      <trkpt lat="38.758033" lon="-5.709817">
        <ele>1638.0</ele>
        <time>2019-05-04T15:57:10Z</time>
      </trkpt>
      <trkpt lat="38.757967" lon="-5.709733">
        <ele>1637.0</ele>
        <time>2019-05-04T15:57:11Z</time>
      </trkpt>
      <trkpt lat="38.757883" lon="-5.709667">
        <ele>1637.0</ele>
        <time>2019-05-04T15:57:12Z</time>
      </trkpt>
      <trkpt lat="38.757800" lon="-5.709600">
        <ele>1636.0</ele>
        <time>2019-05-04T15:57:13Z</time>
      </trkpt>
      <trkpt lat="38.757717" lon="-5.709533">
        <ele>1635.0</ele>
        <time>2019-05-04T15:57:14Z</time>
      </trkpt>
      <trkpt lat="38.757633" lon="-5.709450">
        <ele>1634.0</ele>
        <time>2019-05-04T15:57:15Z</time>
      </trkpt>
      <trkpt lat="38.757550" lon="-5.709367">
        <ele>1634.0</ele>
        <time>2019-05-04T15:57:16Z</time>
      </trkpt>
      <trkpt lat="38.757467" lon="-5.709300">
        <ele>1633.0</ele>
        <time>2019-05-04T15:57:17Z</time>
      </trkpt>
      <trkpt lat="38.757383" lon="-5.709233">
        <ele>1632.0</ele>
        <time>2019-05-04T15:57:18Z</time>
      </trkpt>
      <trkpt lat="38.757300" lon="-5.709150">
        <ele>1631.0</ele>
        <time>2019-05-04T15:57:19Z</time>
      </trkpt>
      <trkpt lat="38.757217" lon="-5.709083">
        <ele>1630.0</ele>
        <time>2019-05-04T15:57:20Z</time>
      </trkpt>
      <trkpt lat="38.757117" lon="-5.709017">
        <ele>1628.0</ele>
        <time>2019-05-04T15:57:21Z</time>
      </trkpt>
      <trkpt lat="38.757033" lon="-5.708933">
        <ele>1627.0</ele>
        <time>2019-05-04T15:57:22Z</time>
      </trkpt>
      <trkpt lat="38.756950" lon="-5.708867">
        <ele>1625.0</ele>
        <time>2019-05-04T15:57:23Z</time>
      </trkpt>
      <trkpt lat="38.756867" lon="-5.708800">
        <ele>1624.0</ele>
        <time>2019-05-04T15:57:24Z</time>
      </trkpt>
      <trkpt lat="38.756767" lon="-5.708733">
        <ele>1622.0</ele>
        <time>2019-05-04T15:57:25Z</time>
      </trkpt>
      <trkpt lat="38.756683" lon="-5.708650">
        <ele>1620.0</ele>
        <time>2019-05-04T15:57:26Z</time>
      </trkpt>
      <trkpt lat="38.756583" lon="-5.708583">
        <ele>1619.0</ele>
        <time>2019-05-04T15:57:27Z</time>
      </trkpt>
      <trkpt lat="38.756500" lon="-5.708500">
        <ele>1617.0</ele>
        <time>2019-05-04T15:57:28Z</time>
      </trkpt>
      <trkpt lat="38.756417" lon="-5.708417">
        <ele>1616.0</ele>
        <time>2019-05-04T15:57:29Z</time>
      </trkpt>
      <trkpt lat="38.756333" lon="-5.708333">
        <ele>1614.0</ele>
        <time>2019-05-04T15:57:30Z</time>
      </trkpt>
      <trkpt lat="38.756250" lon="-5.708233">
        <ele>1612.0</ele>
        <time>2019-05-04T15:57:31Z</time>
      </trkpt>
      <trkpt lat="38.756150" lon="-5.708150">
        <ele>1610.0</ele>
        <time>2019-05-04T15:57:32Z</time>
      </trkpt>
      <trkpt lat="38.756067" lon="-5.708067">
        <ele>1609.0</ele>
        <time>2019-05-04T15:57:33Z</time>
      </trkpt>
      <trkpt lat="38.755983" lon="-5.707983">
        <ele>1607.0</ele>
        <time>2019-05-04T15:57:34Z</time>
      </trkpt>
      <trkpt lat="38.755900" lon="-5.707900">
        <ele>1606.0</ele>
        <time>2019-05-04T15:57:35Z</time>
      </trkpt>
      <trkpt lat="38.755800" lon="-5.707817">
        <ele>1604.0</ele>
        <time>2019-05-04T15:57:36Z</time>
      </trkpt>
      <trkpt lat="38.755717" lon="-5.707750">
        <ele>1602.0</ele>
        <time>2019-05-04T15:57:37Z</time>
      </trkpt>
      <trkpt lat="38.755617" lon="-5.707683">
        <ele>1600.0</ele>
        <time>2019-05-04T15:57:38Z</time>
      </trkpt>
      <trkpt lat="38.755517" lon="-5.707600">
        <ele>1597.0</ele>
        <time>2019-05-04T15:57:39Z</time>
      </trkpt>
      <trkpt lat="38.755417" lon="-5.707517">
        <ele>1596.0</ele>
        <time>2019-05-04T15:57:40Z</time>
      </trkpt>
      <trkpt lat="38.755333" lon="-5.707433">
        <ele>1594.0</ele>
        <time>2019-05-04T15:57:41Z</time>
      </trkpt>
      <trkpt lat="38.755233" lon="-5.707350">
        <ele>1592.0</ele>
        <time>2019-05-04T15:57:42Z</time>
      </trkpt>
      <trkpt lat="38.755150" lon="-5.707250">
        <ele>1590.0</ele>
        <time>2019-05-04T15:57:43Z</time>
      </trkpt>
      <trkpt lat="38.755050" lon="-5.707150">
        <ele>1588.0</ele>
        <time>2019-05-04T15:57:44Z</time>
      </trkpt>
      <trkpt lat="38.754967" lon="-5.707067">
        <ele>1586.0</ele>
        <time>2019-05-04T15:57:45Z</time>
      </trkpt>
      <trkpt lat="38.754883" lon="-5.706967">
        <ele>1584.0</ele>
        <time>2019-05-04T15:57:46Z</time>
      </trkpt>
      <trkpt lat="38.754783" lon="-5.706883">
        <ele>1582.0</ele>
        <time>2019-05-04T15:57:47Z</time>
      </trkpt>
      <trkpt lat="38.754717" lon="-5.706783">
        <ele>1580.0</ele>
        <time>2019-05-04T15:57:48Z</time>
      </trkpt>
      <trkpt lat="38.754617" lon="-5.706700">
        <ele>1578.0</ele>
        <time>2019-05-04T15:57:49Z</time>
      </trkpt>
      <trkpt lat="38.754533" lon="-5.706600">
        <ele>1575.0</ele>
        <time>2019-05-04T15:57:50Z</time>
      </trkpt>
      <trkpt lat="38.754450" lon="-5.706517">
        <ele>1572.0</ele>
        <time>2019-05-04T15:57:51Z</time>
      </trkpt>
      <trkpt lat="38.754350" lon="-5.706417">
        <ele>1570.0</ele>
        <time>2019-05-04T15:57:52Z</time>
      </trkpt>
      <trkpt lat="38.754267" lon="-5.706317">
        <ele>1568.0</ele>
        <time>2019-05-04T15:57:53Z</time>
      </trkpt>
      <trkpt lat="38.754200" lon="-5.706217">
        <ele>1565.0</ele>
        <time>2019-05-04T15:57:54Z</time>
      </trkpt>
      <trkpt lat="38.754117" lon="-5.706117">
        <ele>1563.0</ele>
        <time>2019-05-04T15:57:55Z</time>
      </trkpt>
      <trkpt lat="38.754017" lon="-5.706017">
        <ele>1560.0</ele>
        <time>2019-05-04T15:57:56Z</time>
      </trkpt>
      <trkpt lat="38.753933" lon="-5.705917">
        <ele>1557.0</ele>
        <time>2019-05-04T15:57:57Z</time>
      </trkpt>
      <trkpt lat="38.753850" lon="-5.705800">
        <ele>1554.0</ele>
        <time>2019-05-04T15:57:58Z</time>
      </trkpt>
      <trkpt lat="38.753767" lon="-5.705667">
        <ele>1552.0</ele>
        <time>2019-05-04T15:57:59Z</time>
      </trkpt>
      <trkpt lat="38.753683" lon="-5.705567">
        <ele>1551.0</ele>
        <time>2019-05-04T15:58:00Z</time>
      </trkpt>
      <trkpt lat="38.753600" lon="-5.705467">
        <ele>1549.0</ele>
        <time>2019-05-04T15:58:01Z</time>
      </trkpt>
      <trkpt lat="38.753517" lon="-5.705367">
        <ele>1548.0</ele>
        <time>2019-05-04T15:58:02Z</time>
      </trkpt>
      <trkpt lat="38.753433" lon="-5.705283">
        <ele>1547.0</ele>
        <time>2019-05-04T15:58:03Z</time>
      </trkpt>
      <trkpt lat="38.753350" lon="-5.705183">
        <ele>1545.0</ele>
        <time>2019-05-04T15:58:04Z</time>
      </trkpt>
      <trkpt lat="38.753250" lon="-5.705067">
        <ele>1543.0</ele>
        <time>2019-05-04T15:58:05Z</time>
      </trkpt>
      <trkpt lat="38.753167" lon="-5.704950">
        <ele>1542.0</ele>
        <time>2019-05-04T15:58:06Z</time>
      </trkpt>
      <trkpt lat="38.753067" lon="-5.704850">
        <ele>1541.0</ele>
        <time>2019-05-04T15:58:07Z</time>
      </trkpt>
      <trkpt lat="38.752983" lon="-5.704767">
        <ele>1541.0</ele>
        <time>2019-05-04T15:58:08Z</time>
      </trkpt>
      <trkpt lat="38.752900" lon="-5.704683">
        <ele>1541.0</ele>
        <time>2019-05-04T15:58:09Z</time>
      </trkpt>
      <trkpt lat="38.752817" lon="-5.704583">
        <ele>1540.0</ele>
        <time>2019-05-04T15:58:10Z</time>
      </trkpt>
      <trkpt lat="38.752733" lon="-5.704483">
        <ele>1538.0</ele>
        <time>2019-05-04T15:58:11Z</time>
      </trkpt>
      <trkpt lat="38.752633" lon="-5.704367">
        <ele>1537.0</ele>
        <time>2019-05-04T15:58:12Z</time>
      </trkpt>
      <trkpt lat="38.752533" lon="-5.704267">
        <ele>1537.0</ele>
        <time>2019-05-04T15:58:13Z</time>
      </trkpt>
      <trkpt lat="38.752450" lon="-5.704150">
        <ele>1536.0</ele>
        <time>2019-05-04T15:58:14Z</time>
      </trkpt>
      <trkpt lat="38.752350" lon="-5.704050">
        <ele>1534.0</ele>
        <time>2019-05-04T15:58:15Z</time>
      </trkpt>
      <trkpt lat="38.752250" lon="-5.703933">
        <ele>1532.0</ele>
        <time>2019-05-04T15:58:16Z</time>
      </trkpt>
      <trkpt lat="38.752150" lon="-5.703817">
        <ele>1530.0</ele>
        <time>2019-05-04T15:58:17Z</time>
      </trkpt>
      <trkpt lat="38.752033" lon="-5.703700">
        <ele>1527.0</ele>
        <time>2019-05-04T15:58:18Z</time>
      </trkpt>
      <trkpt lat="38.751917" lon="-5.703583">
        <ele>1524.0</ele>
        <time>2019-05-04T15:58:19Z</time>
      </trkpt>
      <trkpt lat="38.751817" lon="-5.703467">
        <ele>1523.0</ele>
        <time>2019-05-04T15:58:20Z</time>
      </trkpt>
      <trkpt lat="38.751733" lon="-5.703383">
        <ele>1522.0</ele>
        <time>2019-05-04T15:58:21Z</time>
      </trkpt>
      <trkpt lat="38.751633" lon="-5.703283">
        <ele>1522.0</ele>
        <time>2019-05-04T15:58:22Z</time>
      </trkpt>
      <trkpt lat="38.751550" lon="-5.703200">
        <ele>1521.0</ele>
        <time>2019-05-04T15:58:23Z</time>
      </trkpt>
      <trkpt lat="38.751450" lon="-5.703117">
        <ele>1519.0</ele>
        <time>2019-05-04T15:58:24Z</time>
      </trkpt>
      <trkpt lat="38.751350" lon="-5.703050">
        <ele>1517.0</ele>
        <time>2019-05-04T15:58:25Z</time>
      </trkpt>
      <trkpt lat="38.751250" lon="-5.702967">
        <ele>1515.0</ele>
        <time>2019-05-04T15:58:26Z</time>
      </trkpt>
      <trkpt lat="38.751133" lon="-5.702900">
        <ele>1513.0</ele>
        <time>2019-05-04T15:58:27Z</time>
      </trkpt>
      <trkpt lat="38.751033" lon="-5.702850">
        <ele>1512.0</ele>
        <time>2019-05-04T15:58:28Z</time>
      </trkpt>
      <trkpt lat="38.750933" lon="-5.702783">
        <ele>1510.0</ele>
        <time>2019-05-04T15:58:29Z</time>
      </trkpt>
      <trkpt lat="38.750850" lon="-5.702733">
        <ele>1508.0</ele>
        <time>2019-05-04T15:58:30Z</time>
      </trkpt>
      <trkpt lat="38.750733" lon="-5.702683">
        <ele>1507.0</ele>
        <time>2019-05-04T15:58:31Z</time>
      </trkpt>
      <trkpt lat="38.750617" lon="-5.702617">
        <ele>1504.0</ele>
        <time>2019-05-04T15:58:32Z</time>
      </trkpt>
      <trkpt lat="38.750517" lon="-5.702550">
        <ele>1502.0</ele>
        <time>2019-05-04T15:58:33Z</time>
      </trkpt>
      <trkpt lat="38.750400" lon="-5.702500">
        <ele>1500.0</ele>
        <time>2019-05-04T15:58:34Z</time>
      </trkpt>
      <trkpt lat="38.750300" lon="-5.702450">
        <ele>1498.0</ele>
        <time>2019-05-04T15:58:35Z</time>
      </trkpt>
      <trkpt lat="38.750200" lon="-5.702417">
        <ele>1496.0</ele>
        <time>2019-05-04T15:58:36Z</time>
      </trkpt>
      <trkpt lat="38.750100" lon="-5.702367">
        <ele>1494.0</ele>
        <time>2019-05-04T15:58:37Z</time>
      </trkpt>
      <trkpt lat="38.750000" lon="-5.702317">
        <ele>1492.0</ele>
        <time>2019-05-04T15:58:38Z</time>
      </trkpt>
      <trkpt lat="38.749883" lon="-5.702250">
        <ele>1489.0</ele>
        <time>2019-05-04T15:58:39Z</time>
      </trkpt>
      <trkpt lat="38.749783" lon="-5.702183">
        <ele>1486.0</ele>
        <time>2019-05-04T15:58:40Z</time>
      </trkpt>
      <trkpt lat="38.749667" lon="-5.702117">
        <ele>1483.0</ele>
        <time>2019-05-04T15:58:41Z</time>
      </trkpt>
      <trkpt lat="38.749550" lon="-5.702050">
        <ele>1481.0</ele>
        <time>2019-05-04T15:58:42Z</time>
      </trkpt>
      <trkpt lat="38.749450" lon="-5.701983">
        <ele>1479.0</ele>
        <time>2019-05-04T15:58:43Z</time>
      </trkpt>
      <trkpt lat="38.749350" lon="-5.701917">
        <ele>1477.0</ele>
        <time>2019-05-04T15:58:44Z</time>
      </trkpt>
      <trkpt lat="38.749233" lon="-5.701850">
        <ele>1475.0</ele>
        <time>2019-05-04T15:58:45Z</time>
      </trkpt>
      <trkpt lat="38.749117" lon="-5.701767">
        <ele>1472.0</ele>
        <time>2019-05-04T15:58:46Z</time>
      </trkpt>
      <trkpt lat="38.749000" lon="-5.701717">
        <ele>1470.0</ele>
        <time>2019-05-04T15:58:47Z</time>
      </trkpt>
      <trkpt lat="38.748900" lon="-5.701650">
        <ele>1468.0</ele>
        <time>2019-05-04T15:58:48Z</time>
      </trkpt>
      <trkpt lat="38.748783" lon="-5.701600">
        <ele>1466.0</ele>
        <time>2019-05-04T15:58:49Z</time>
      </trkpt>
      <trkpt lat="38.748683" lon="-5.701533">
        <ele>1464.0</ele>
        <time>2019-05-04T15:58:50Z</time>
      </trkpt>
      <trkpt lat="38.748583" lon="-5.701467">
        <ele>1460.0</ele>
        <time>2019-05-04T15:58:51Z</time>
      </trkpt>
      <trkpt lat="38.748467" lon="-5.701400">
        <ele>1456.0</ele>
        <time>2019-05-04T15:58:52Z</time>
      </trkpt>
      <trkpt lat="38.748367" lon="-5.701350">
        <ele>1453.0</ele>
        <time>2019-05-04T15:58:53Z</time>
      </trkpt>
      <trkpt lat="38.748267" lon="-5.701283">
        <ele>1451.0</ele>
        <time>2019-05-04T15:58:54Z</time>
      </trkpt>
      <trkpt lat="38.748150" lon="-5.701217">
        <ele>1448.0</ele>
        <time>2019-05-04T15:58:55Z</time>
      </trkpt>
      <trkpt lat="38.748050" lon="-5.701133">
        <ele>1445.0</ele>
        <time>2019-05-04T15:58:56Z</time>
      </trkpt>
      <trkpt lat="38.747933" lon="-5.701050">
        <ele>1442.0</ele>
        <time>2019-05-04T15:58:57Z</time>
      </trkpt>
      <trkpt lat="38.747817" lon="-5.700983">
        <ele>1438.0</ele>
        <time>2019-05-04T15:58:58Z</time>
      </trkpt>
      <trkpt lat="38.747717" lon="-5.700883">
        <ele>1435.0</ele>
        <time>2019-05-04T15:58:59Z</time>
      </trkpt>
      <trkpt lat="38.747617" lon="-5.700783">
        <ele>1432.0</ele>
        <time>2019-05-04T15:59:00Z</time>
      </trkpt>
      <trkpt lat="38.747517" lon="-5.700683">
        <ele>1429.0</ele>
        <time>2019-05-04T15:59:01Z</time>
      </trkpt>
      <trkpt lat="38.747433" lon="-5.700567">
        <ele>1426.0</ele>
        <time>2019-05-04T15:59:02Z</time>
      </trkpt>
      <trkpt lat="38.747350" lon="-5.700450">
        <ele>1423.0</ele>
        <time>2019-05-04T15:59:03Z</time>
      </trkpt>
      <trkpt lat="38.747267" lon="-5.700333">
        <ele>1420.0</ele>
        <time>2019-05-04T15:59:04Z</time>
      </trkpt>
      <trkpt lat="38.747200" lon="-5.700217">
        <ele>1417.0</ele>
        <time>2019-05-04T15:59:05Z</time>
      </trkpt>
      <trkpt lat="38.747117" lon="-5.700100">
        <ele>1414.0</ele>
        <time>2019-05-04T15:59:06Z</time>
      </trkpt>
      <trkpt lat="38.747067" lon="-5.699983">
        <ele>1411.0</ele>
        <time>2019-05-04T15:59:07Z</time>
      </trkpt>
      <trkpt lat="38.746983" lon="-5.699850">
        <ele>1408.0</ele>
        <time>2019-05-04T15:59:08Z</time>
      </trkpt>
      <trkpt lat="38.746917" lon="-5.699717">
        <ele>1405.0</ele>
        <time>2019-05-04T15:59:09Z</time>
      </trkpt>
      <trkpt lat="38.746833" lon="-5.699583">
        <ele>1402.0</ele>
        <time>2019-05-04T15:59:10Z</time>
      </trkpt>
      <trkpt lat="38.746767" lon="-5.699450">
        <ele>1400.0</ele>
        <time>2019-05-04T15:59:11Z</time>
      </trkpt>
      <trkpt lat="38.746717" lon="-5.699333">
        <ele>1398.0</ele>
        <time>2019-05-04T15:59:12Z</time>
      </trkpt>
      <trkpt lat="38.746667" lon="-5.699217">
        <ele>1398.0</ele>
        <time>2019-05-04T15:59:13Z</time>
      </trkpt>
      <trkpt lat="38.746600" lon="-5.699100">
        <ele>1397.0</ele>
        <time>2019-05-04T15:59:14Z</time>
      </trkpt>
      <trkpt lat="38.746550" lon="-5.698967">
        <ele>1396.0</ele>
        <time>2019-05-04T15:59:15Z</time>
      </trkpt>
      <trkpt lat="38.746467" lon="-5.698867">
        <ele>1396.0</ele>
        <time>2019-05-04T15:59:16Z</time>
      </trkpt>
      <trkpt lat="38.746400" lon="-5.698750">
        <ele>1396.0</ele>
        <time>2019-05-04T15:59:17Z</time>
      </trkpt>
      <trkpt lat="38.746317" lon="-5.698650">
        <ele>1397.0</ele>
        <time>2019-05-04T15:59:18Z</time>
      </trkpt>
      <trkpt lat="38.746233" lon="-5.698550">
        <ele>1398.0</ele>
        <time>2019-05-04T15:59:19Z</time>
      </trkpt>
      <trkpt lat="38.746150" lon="-5.698467">
        <ele>1398.0</ele>
        <time>2019-05-04T15:59:20Z</time>
      </trkpt>
      <trkpt lat="38.746050" lon="-5.698383">
        <ele>1397.0</ele>
        <time>2019-05-04T15:59:21Z</time>
      </trkpt>
      <trkpt lat="38.745950" lon="-5.698300">
        <ele>1397.0</ele>
        <time>2019-05-04T15:59:22Z</time>
      </trkpt>
      <trkpt lat="38.745867" lon="-5.698217">
        <ele>1398.0</ele>
        <time>2019-05-04T15:59:23Z</time>
      </trkpt>
      <trkpt lat="38.745783" lon="-5.698117">
        <ele>1399.0</ele>
        <time>2019-05-04T15:59:24Z</time>
      </trkpt>
      <trkpt lat="38.745683" lon="-5.698017">
        <ele>1399.0</ele>
        <time>2019-05-04T15:59:25Z</time>
      </trkpt>
      <trkpt lat="38.745583" lon="-5.697933">
        <ele>1399.0</ele>
        <time>2019-05-04T15:59:26Z</time>
      </trkpt>
      <trkpt lat="38.745500" lon="-5.697833">
        <ele>1400.0</ele>
        <time>2019-05-04T15:59:27Z</time>
      </trkpt>
      <trkpt lat="38.745400" lon="-5.697733">
        <ele>1401.0</ele>
        <time>2019-05-04T15:59:28Z</time>
      </trkpt>
      <trkpt lat="38.745317" lon="-5.697633">
        <ele>1402.0</ele>
        <time>2019-05-04T15:59:29Z</time>
      </trkpt>
      <trkpt lat="38.745233" lon="-5.697533">
        <ele>1403.0</ele>
        <time>2019-05-04T15:59:30Z</time>
      </trkpt>
      <trkpt lat="38.745133" lon="-5.697433">
        <ele>1404.0</ele>
        <time>2019-05-04T15:59:31Z</time>
      </trkpt>
      <trkpt lat="38.745050" lon="-5.697333">
        <ele>1404.0</ele>
        <time>2019-05-04T15:59:32Z</time>
      </trkpt>
      <trkpt lat="38.744950" lon="-5.697233">
        <ele>1405.0</ele>
        <time>2019-05-04T15:59:33Z</time>
      </trkpt>
      <trkpt lat="38.744867" lon="-5.697133">
        <ele>1405.0</ele>
        <time>2019-05-04T15:59:34Z</time>
      </trkpt>
      <trkpt lat="38.744800" lon="-5.697033">
        <ele>1405.0</ele>
        <time>2019-05-04T15:59:35Z</time>
      </trkpt>
      <trkpt lat="38.744717" lon="-5.696933">
        <ele>1404.0</ele>
        <time>2019-05-04T15:59:36Z</time>
      </trkpt>
      <trkpt lat="38.744633" lon="-5.696833">
        <ele>1403.0</ele>
        <time>2019-05-04T15:59:37Z</time>
      </trkpt>
      <trkpt lat="38.744550" lon="-5.696733">
        <ele>1402.0</ele>
        <time>2019-05-04T15:59:38Z</time>
      </trkpt>
      <trkpt lat="38.744467" lon="-5.696633">
        <ele>1401.0</ele>
        <time>2019-05-04T15:59:39Z</time>
      </trkpt>
      <trkpt lat="38.744383" lon="-5.696550">
        <ele>1400.0</ele>
        <time>2019-05-04T15:59:40Z</time>
      </trkpt>
      <trkpt lat="38.744300" lon="-5.696467">
        <ele>1398.0</ele>
        <time>2019-05-04T15:59:41Z</time>
      </trkpt>
      <trkpt lat="38.744217" lon="-5.696350">
        <ele>1395.0</ele>
        <time>2019-05-04T15:59:42Z</time>
      </trkpt>
      <trkpt lat="38.744133" lon="-5.696217">
        <ele>1392.0</ele>
        <time>2019-05-04T15:59:43Z</time>
      </trkpt>
      <trkpt lat="38.744067" lon="-5.696083">
        <ele>1390.0</ele>
        <time>2019-05-04T15:59:44Z</time>
      </trkpt>
      <trkpt lat="38.743983" lon="-5.695967">
        <ele>1389.0</ele>
        <time>2019-05-04T15:59:45Z</time>
      </trkpt>
      <trkpt lat="38.743917" lon="-5.695850">
        <ele>1388.0</ele>
        <time>2019-05-04T15:59:46Z</time>
      </trkpt>
      <trkpt lat="38.743850" lon="-5.695733">
        <ele>1387.0</ele>
        <time>2019-05-04T15:59:47Z</time>
      </trkpt>
      <trkpt lat="38.743783" lon="-5.695600">
        <ele>1386.0</ele>
        <time>2019-05-04T15:59:48Z</time>
      </trkpt>
      <trkpt lat="38.743700" lon="-5.695467">
        <ele>1384.0</ele>
        <time>2019-05-04T15:59:49Z</time>
      </trkpt>
      <trkpt lat="38.743617" lon="-5.695333">
        <ele>1382.0</ele>
        <time>2019-05-04T15:59:50Z</time>
      </trkpt>
      <trkpt lat="38.743533" lon="-5.695200">
        <ele>1384.0</ele>
        <time>2019-05-04T15:59:51Z</time>
      </trkpt>
      <trkpt lat="38.743467" lon="-5.695100">
        <ele>1384.0</ele>
        <time>2019-05-04T15:59:52Z</time>
      </trkpt>
      <trkpt lat="38.743400" lon="-5.695000">
        <ele>1384.0</ele>
        <time>2019-05-04T15:59:53Z</time>
      </trkpt>
      <trkpt lat="38.743333" lon="-5.694883">
        <ele>1383.0</ele>
        <time>2019-05-04T15:59:54Z</time>
      </trkpt>
      <trkpt lat="38.743250" lon="-5.694767">
        <ele>1382.0</ele>
        <time>2019-05-04T15:59:55Z</time>
      </trkpt>
      <trkpt lat="38.743167" lon="-5.694633">
        <ele>1381.0</ele>
        <time>2019-05-04T15:59:56Z</time>
      </trkpt>
      <trkpt lat="38.743100" lon="-5.694500">
        <ele>1379.0</ele>
        <time>2019-05-04T15:59:57Z</time>
      </trkpt>
      <trkpt lat="38.743033" lon="-5.694383">
        <ele>1378.0</ele>
        <time>2019-05-04T15:59:58Z</time>
      </trkpt>
      <trkpt lat="38.742967" lon="-5.694250">
        <ele>1377.0</ele>
        <time>2019-05-04T15:59:59Z</time>
      </trkpt>
      <trkpt lat="38.742900" lon="-5.694133">
        <ele>1376.0</ele>
        <time>2019-05-04T16:00:00Z</time>
      </trkpt>
      <trkpt lat="38.742833" lon="-5.694000">
        <ele>1374.0</ele>
        <time>2019-05-04T16:00:01Z</time>
      </trkpt>
      <trkpt lat="38.742767" lon="-5.693883">
        <ele>1372.0</ele>
        <time>2019-05-04T16:00:02Z</time>
      </trkpt>
      <trkpt lat="38.742683" lon="-5.693750">
        <ele>1370.0</ele>
        <time>2019-05-04T16:00:03Z</time>
      </trkpt>
      <trkpt lat="38.742617" lon="-5.693633">
        <ele>1368.0</ele>
        <time>2019-05-04T16:00:04Z</time>
      </trkpt>
      <trkpt lat="38.742550" lon="-5.693500">
        <ele>1366.0</ele>
        <time>2019-05-04T16:00:05Z</time>
      </trkpt>
      <trkpt lat="38.742483" lon="-5.693383">
        <ele>1364.0</ele>
        <time>2019-05-04T16:00:06Z</time>
      </trkpt>
      <trkpt lat="38.742400" lon="-5.693250">
        <ele>1363.0</ele>
        <time>2019-05-04T16:00:07Z</time>
      </trkpt>
      <trkpt lat="38.742350" lon="-5.693133">
        <ele>1361.0</ele>
        <time>2019-05-04T16:00:08Z</time>
      </trkpt>
      <trkpt lat="38.742283" lon="-5.693017">
        <ele>1358.0</ele>
        <time>2019-05-04T16:00:09Z</time>
      </trkpt>
      <trkpt lat="38.742217" lon="-5.692917">
        <ele>1357.0</ele>
        <time>2019-05-04T16:00:10Z</time>
      </trkpt>
      <trkpt lat="38.742150" lon="-5.692800">
        <ele>1355.0</ele>
        <time>2019-05-04T16:00:11Z</time>
      </trkpt>
      <trkpt lat="38.742067" lon="-5.692683">
        <ele>1353.0</ele>
        <time>2019-05-04T16:00:12Z</time>
      </trkpt>
      <trkpt lat="38.742000" lon="-5.692567">
        <ele>1351.0</ele>
        <time>2019-05-04T16:00:13Z</time>
      </trkpt>
      <trkpt lat="38.741933" lon="-5.692433">
        <ele>1350.0</ele>
        <time>2019-05-04T16:00:14Z</time>
      </trkpt>
      <trkpt lat="38.741867" lon="-5.692300">
        <ele>1348.0</ele>
        <time>2019-05-04T16:00:15Z</time>
      </trkpt>
      <trkpt lat="38.741800" lon="-5.692167">
        <ele>1347.0</ele>
        <time>2019-05-04T16:00:16Z</time>
      </trkpt>
      <trkpt lat="38.741733" lon="-5.692033">
        <ele>1346.0</ele>
        <time>2019-05-04T16:00:17Z</time>
      </trkpt>
      <trkpt lat="38.741667" lon="-5.691900">
        <ele>1345.0</ele>
        <time>2019-05-04T16:00:18Z</time>
      </trkpt>
      <trkpt lat="38.741600" lon="-5.691767">
        <ele>1346.0</ele>
        <time>2019-05-04T16:00:19Z</time>
      </trkpt>
      <trkpt lat="38.741533" lon="-5.691650">
        <ele>1346.0</ele>
        <time>2019-05-04T16:00:20Z</time>
      </trkpt>
      <trkpt lat="38.741483" lon="-5.691533">
        <ele>1346.0</ele>
        <time>2019-05-04T16:00:21Z</time>
      </trkpt>
      <trkpt lat="38.741400" lon="-5.691417">
        <ele>1345.0</ele>
        <time>2019-05-04T16:00:22Z</time>
      </trkpt>
      <trkpt lat="38.741317" lon="-5.691300">
        <ele>1344.0</ele>
        <time>2019-05-04T16:00:23Z</time>
      </trkpt>
      <trkpt lat="38.741233" lon="-5.691167">
        <ele>1344.0</ele>
        <time>2019-05-04T16:00:24Z</time>
      </trkpt>
      <trkpt lat="38.741167" lon="-5.691050">
        <ele>1343.0</ele>
        <time>2019-05-04T16:00:25Z</time>
      </trkpt>
      <trkpt lat="38.741100" lon="-5.690933">
        <ele>1343.0</ele>
        <time>2019-05-04T16:00:26Z</time>
      </trkpt>
      <trkpt lat="38.741033" lon="-5.690817">
        <ele>1343.0</ele>
        <time>2019-05-04T16:00:27Z</time>
      </trkpt>
      <trkpt lat="38.740983" lon="-5.690717">
        <ele>1343.0</ele>
        <time>2019-05-04T16:00:28Z</time>
      </trkpt>
      <trkpt lat="38.740917" lon="-5.690633">
        <ele>1343.0</ele>
        <time>2019-05-04T16:00:29Z</time>
      </trkpt>
      <trkpt lat="38.740850" lon="-5.690517">
        <ele>1342.0</ele>
        <time>2019-05-04T16:00:30Z</time>
      </trkpt>
      <trkpt lat="38.740767" lon="-5.690417">
        <ele>1340.0</ele>
        <time>2019-05-04T16:00:31Z</time>
      </trkpt>
      <trkpt lat="38.740700" lon="-5.690317">
        <ele>1339.0</ele>
        <time>2019-05-04T16:00:32Z</time>
      </trkpt>
      <trkpt lat="38.740633" lon="-5.690217">
        <ele>1337.0</ele>
        <time>2019-05-04T16:00:33Z</time>
      </trkpt>
      <trkpt lat="38.740583" lon="-5.690083">
        <ele>1335.0</ele>
        <time>2019-05-04T16:00:34Z</time>
      </trkpt>
      <trkpt lat="38.740517" lon="-5.689950">
        <ele>1331.0</ele>
        <time>2019-05-04T16:00:35Z</time>
      </trkpt>
      <trkpt lat="38.740467" lon="-5.689800">
        <ele>1329.0</ele>
        <time>2019-05-04T16:00:36Z</time>
      </trkpt>
      <trkpt lat="38.740417" lon="-5.689650">
        <ele>1328.0</ele>
        <time>2019-05-04T16:00:37Z</time>
      </trkpt>
      <trkpt lat="38.740367" lon="-5.689533">
        <ele>1327.0</ele>
        <time>2019-05-04T16:00:38Z</time>
      </trkpt>
      <trkpt lat="38.740317" lon="-5.689417">
        <ele>1325.0</ele>
        <time>2019-05-04T16:00:39Z</time>
      </trkpt>
      <trkpt lat="38.740267" lon="-5.689300">
        <ele>1324.0</ele>
        <time>2019-05-04T16:00:40Z</time>
      </trkpt>
      <trkpt lat="38.740217" lon="-5.689167">
        <ele>1323.0</ele>
        <time>2019-05-04T16:00:41Z</time>
      </trkpt>
      <trkpt lat="38.740167" lon="-5.689017">
        <ele>1321.0</ele>
        <time>2019-05-04T16:00:42Z</time>
      </trkpt>
      <trkpt lat="38.740133" lon="-5.688883">
        <ele>1320.0</ele>
        <time>2019-05-04T16:00:43Z</time>
      </trkpt>
      <trkpt lat="38.740083" lon="-5.688750">
        <ele>1318.0</ele>
        <time>2019-05-04T16:00:44Z</time>
      </trkpt>
      <trkpt lat="38.740033" lon="-5.688617">
        <ele>1318.0</ele>
        <time>2019-05-04T16:00:45Z</time>
      </trkpt>
      <trkpt lat="38.740000" lon="-5.688500">
        <ele>1317.0</ele>
        <time>2019-05-04T16:00:46Z</time>
      </trkpt>
      <trkpt lat="38.739950" lon="-5.688367">
        <ele>1316.0</ele>
        <time>2019-05-04T16:00:47Z</time>
      </trkpt>
      <trkpt lat="38.739900" lon="-5.688233">
        <ele>1314.0</ele>
        <time>2019-05-04T16:00:48Z</time>
      </trkpt>
      <trkpt lat="38.739850" lon="-5.688100">
        <ele>1313.0</ele>
        <time>2019-05-04T16:00:49Z</time>
      </trkpt>
      <trkpt lat="38.739800" lon="-5.687967">
        <ele>1312.0</ele>
        <time>2019-05-04T16:00:50Z</time>
      </trkpt>
      <trkpt lat="38.739767" lon="-5.687833">
        <ele>1311.0</ele>
        <time>2019-05-04T16:00:51Z</time>
      </trkpt>
      <trkpt lat="38.739717" lon="-5.687700">
        <ele>1309.0</ele>
        <time>2019-05-04T16:00:52Z</time>
      </trkpt>
      <trkpt lat="38.739683" lon="-5.687567">
        <ele>1308.0</ele>
        <time>2019-05-04T16:00:53Z</time>
      </trkpt>
      <trkpt lat="38.739650" lon="-5.687450">
        <ele>1306.0</ele>
        <time>2019-05-04T16:00:54Z</time>
      </trkpt>
      <trkpt lat="38.739617" lon="-5.687300">
        <ele>1303.0</ele>
        <time>2019-05-04T16:00:55Z</time>
      </trkpt>
      <trkpt lat="38.739583" lon="-5.687150">
        <ele>1301.0</ele>
        <time>2019-05-04T16:00:56Z</time>
      </trkpt>
      <trkpt lat="38.739550" lon="-5.687017">
        <ele>1301.0</ele>
        <time>2019-05-04T16:00:57Z</time>
      </trkpt>
      <trkpt lat="38.739533" lon="-5.686917">
        <ele>1302.0</ele>
        <time>2019-05-04T16:00:58Z</time>
      </trkpt>
      <trkpt lat="38.739517" lon="-5.686800">
        <ele>1302.0</ele>
        <time>2019-05-04T16:00:59Z</time>
      </trkpt>
      <trkpt lat="38.739500" lon="-5.686700">
        <ele>1301.0</ele>
        <time>2019-05-04T16:01:00Z</time>
      </trkpt>
      <trkpt lat="38.739467" lon="-5.686567">
        <ele>1300.0</ele>
        <time>2019-05-04T16:01:01Z</time>
      </trkpt>
      <trkpt lat="38.739450" lon="-5.686450">
        <ele>1299.0</ele>
        <time>2019-05-04T16:01:02Z</time>
      </trkpt>
      <trkpt lat="38.739450" lon="-5.686333">
        <ele>1298.0</ele>
        <time>2019-05-04T16:01:03Z</time>
      </trkpt>
      <trkpt lat="38.739450" lon="-5.686233">
        <ele>1298.0</ele>
        <time>2019-05-04T16:01:04Z</time>
      </trkpt>
      <trkpt lat="38.739433" lon="-5.686117">
        <ele>1296.0</ele>
        <time>2019-05-04T16:01:05Z</time>
      </trkpt>
      <trkpt lat="38.739433" lon="-5.686000">
        <ele>1295.0</ele>
        <time>2019-05-04T16:01:06Z</time>
      </trkpt>
      <trkpt lat="38.739417" lon="-5.685867">
        <ele>1293.0</ele>
        <time>2019-05-04T16:01:07Z</time>
      </trkpt>
      <trkpt lat="38.739400" lon="-5.685733">
        <ele>1291.0</ele>
        <time>2019-05-04T16:01:08Z</time>
      </trkpt>
      <trkpt lat="38.739383" lon="-5.685617">
        <ele>1291.0</ele>
        <time>2019-05-04T16:01:09Z</time>
      </trkpt>
      <trkpt lat="38.739367" lon="-5.685483">
        <ele>1291.0</ele>
        <time>2019-05-04T16:01:10Z</time>
      </trkpt>
      <trkpt lat="38.739333" lon="-5.685367">
        <ele>1291.0</ele>
        <time>2019-05-04T16:01:11Z</time>
      </trkpt>
      <trkpt lat="38.739317" lon="-5.685250">
        <ele>1291.0</ele>
        <time>2019-05-04T16:01:12Z</time>
      </trkpt>
      <trkpt lat="38.739300" lon="-5.685133">
        <ele>1291.0</ele>
        <time>2019-05-04T16:01:13Z</time>
      </trkpt>
      <trkpt lat="38.739283" lon="-5.685033">
        <ele>1291.0</ele>
        <time>2019-05-04T16:01:14Z</time>
      </trkpt>
      <trkpt lat="38.739267" lon="-5.684917">
        <ele>1291.0</ele>
        <time>2019-05-04T16:01:15Z</time>
      </trkpt>
      <trkpt lat="38.739267" lon="-5.684817">
        <ele>1291.0</ele>
        <time>2019-05-04T16:01:16Z</time>
      </trkpt>
      <trkpt lat="38.739267" lon="-5.684717">
        <ele>1292.0</ele>
        <time>2019-05-04T16:01:17Z</time>
      </trkpt>
      <trkpt lat="38.739250" lon="-5.684600">
        <ele>1293.0</ele>
        <time>2019-05-04T16:01:18Z</time>
      </trkpt>
      <trkpt lat="38.739250" lon="-5.684500">
        <ele>1293.0</ele>
        <time>2019-05-04T16:01:19Z</time>
      </trkpt>
      <trkpt lat="38.739250" lon="-5.684383">
        <ele>1293.0</ele>
        <time>2019-05-04T16:01:20Z</time>
      </trkpt>
      <trkpt lat="38.739250" lon="-5.684283">
        <ele>1294.0</ele>
        <time>2019-05-04T16:01:21Z</time>
      </trkpt>
      <trkpt lat="38.739233" lon="-5.684167">
        <ele>1294.0</ele>
        <time>2019-05-04T16:01:22Z</time>
      </trkpt>
      <trkpt lat="38.739233" lon="-5.684067">
        <ele>1295.0</ele>
        <time>2019-05-04T16:01:23Z</time>
      </trkpt>
      <trkpt lat="38.739217" lon="-5.683950">
        <ele>1295.0</ele>
        <time>2019-05-04T16:01:24Z</time>
      </trkpt>
      <trkpt lat="38.739217" lon="-5.683850">
        <ele>1295.0</ele>
        <time>2019-05-04T16:01:25Z</time>
      </trkpt>
      <trkpt lat="38.739200" lon="-5.683733">
        <ele>1296.0</ele>
        <time>2019-05-04T16:01:26Z</time>
      </trkpt>
      <trkpt lat="38.739200" lon="-5.683617">
        <ele>1296.0</ele>
        <time>2019-05-04T16:01:27Z</time>
      </trkpt>
      <trkpt lat="38.739183" lon="-5.683500">
        <ele>1296.0</ele>
        <time>2019-05-04T16:01:28Z</time>
      </trkpt>
      <trkpt lat="38.739167" lon="-5.683383">
        <ele>1297.0</ele>
        <time>2019-05-04T16:01:29Z</time>
      </trkpt>
      <trkpt lat="38.739167" lon="-5.683267">
        <ele>1298.0</ele>
        <time>2019-05-04T16:01:30Z</time>
      </trkpt>
      <trkpt lat="38.739150" lon="-5.683150">
        <ele>1298.0</ele>
        <time>2019-05-04T16:01:31Z</time>
      </trkpt>
      <trkpt lat="38.739133" lon="-5.683033">
        <ele>1299.0</ele>
        <time>2019-05-04T16:01:32Z</time>
      </trkpt>
      <trkpt lat="38.739117" lon="-5.682917">
        <ele>1301.0</ele>
        <time>2019-05-04T16:01:33Z</time>
      </trkpt>
      <trkpt lat="38.739100" lon="-5.682800">
        <ele>1302.0</ele>
        <time>2019-05-04T16:01:34Z</time>
      </trkpt>
      <trkpt lat="38.739067" lon="-5.682700">
        <ele>1303.0</ele>
        <time>2019-05-04T16:01:35Z</time>
      </trkpt>
      <trkpt lat="38.739050" lon="-5.682600">
        <ele>1305.0</ele>
        <time>2019-05-04T16:01:36Z</time>
      </trkpt>
      <trkpt lat="38.739017" lon="-5.682483">
        <ele>1308.0</ele>
        <time>2019-05-04T16:01:37Z</time>
      </trkpt>
      <trkpt lat="38.738983" lon="-5.682367">
        <ele>1310.0</ele>
        <time>2019-05-04T16:01:38Z</time>
      </trkpt>
      <trkpt lat="38.738967" lon="-5.682233">
        <ele>1312.0</ele>
        <time>2019-05-04T16:01:39Z</time>
      </trkpt>
      <trkpt lat="38.738950" lon="-5.682100">
        <ele>1314.0</ele>
        <time>2019-05-04T16:01:40Z</time>
      </trkpt>
      <trkpt lat="38.738933" lon="-5.681983">
        <ele>1318.0</ele>
        <time>2019-05-04T16:01:41Z</time>
      </trkpt>
      <trkpt lat="38.738933" lon="-5.681867">
        <ele>1322.0</ele>
        <time>2019-05-04T16:01:42Z</time>
      </trkpt>
      <trkpt lat="38.738933" lon="-5.681767">
        <ele>1327.0</ele>
        <time>2019-05-04T16:01:43Z</time>
      </trkpt>
      <trkpt lat="38.738933" lon="-5.681667">
        <ele>1330.0</ele>
        <time>2019-05-04T16:01:44Z</time>
      </trkpt>
      <trkpt lat="38.738933" lon="-5.681567">
        <ele>1332.0</ele>
        <time>2019-05-04T16:01:45Z</time>
      </trkpt>
      <trkpt lat="38.738950" lon="-5.681467">
        <ele>1335.0</ele>
        <time>2019-05-04T16:01:46Z</time>
      </trkpt>
      <trkpt lat="38.739000" lon="-5.681400">
        <ele>1337.0</ele>
        <time>2019-05-04T16:01:47Z</time>
      </trkpt>
      <trkpt lat="38.739067" lon="-5.681350">
        <ele>1338.0</ele>
        <time>2019-05-04T16:01:48Z</time>
      </trkpt>
      <trkpt lat="38.739133" lon="-5.681333">
        <ele>1341.0</ele>
        <time>2019-05-04T16:01:49Z</time>
      </trkpt>
      <trkpt lat="38.739200" lon="-5.681350">
        <ele>1343.0</ele>
        <time>2019-05-04T16:01:50Z</time>
      </trkpt>
      <trkpt lat="38.739233" lon="-5.681400">
        <ele>1345.0</ele>
        <time>2019-05-04T16:01:51Z</time>
      </trkpt>
      <trkpt lat="38.739267" lon="-5.681467">
        <ele>1346.0</ele>
        <time>2019-05-04T16:01:52Z</time>
      </trkpt>
      <trkpt lat="38.739283" lon="-5.681550">
        <ele>1348.0</ele>
        <time>2019-05-04T16:01:53Z</time>
      </trkpt>
      <trkpt lat="38.739267" lon="-5.681650">
        <ele>1350.0</ele>
        <time>2019-05-04T16:01:54Z</time>
      </trkpt>
      <trkpt lat="38.739233" lon="-5.681750">
        <ele>1352.0</ele>
        <time>2019-05-04T16:01:55Z</time>
      </trkpt>
      <trkpt lat="38.739167" lon="-5.681850">
        <ele>1354.0</ele>
        <time>2019-05-04T16:01:56Z</time>
      </trkpt>
      <trkpt lat="38.739083" lon="-5.681900">
        <ele>1357.0</ele>
        <time>2019-05-04T16:01:57Z</time>
      </trkpt>
      <trkpt lat="38.738967" lon="-5.681900">
        <ele>1360.0</ele>
        <time>2019-05-04T16:01:58Z</time>
      </trkpt>
      <trkpt lat="38.738850" lon="-5.681883">
        <ele>1362.0</ele>
        <time>2019-05-04T16:01:59Z</time>
      </trkpt>
      <trkpt lat="38.738750" lon="-5.681817">
        <ele>1365.0</ele>
        <time>2019-05-04T16:02:00Z</time>
      </trkpt>
      <trkpt lat="38.738667" lon="-5.681733">
        <ele>1368.0</ele>
        <time>2019-05-04T16:02:01Z</time>
      </trkpt>
      <trkpt lat="38.738583" lon="-5.681650">
        <ele>1371.0</ele>
        <time>2019-05-04T16:02:02Z</time>
      </trkpt>
      <trkpt lat="38.738517" lon="-5.681533">
        <ele>1374.0</ele>
        <time>2019-05-04T16:02:03Z</time>
      </trkpt>
      <trkpt lat="38.738467" lon="-5.681417">
        <ele>1376.0</ele>
        <time>2019-05-04T16:02:04Z</time>
      </trkpt>
      <trkpt lat="38.738433" lon="-5.681300">
        <ele>1379.0</ele>
        <time>2019-05-04T16:02:05Z</time>
      </trkpt>
      <trkpt lat="38.738417" lon="-5.681183">
        <ele>1381.0</ele>
        <time>2019-05-04T16:02:06Z</time>
      </trkpt>
      <trkpt lat="38.738433" lon="-5.681067">
        <ele>1384.0</ele>
        <time>2019-05-04T16:02:07Z</time>
      </trkpt>
      <trkpt lat="38.738450" lon="-5.680967">
        <ele>1386.0</ele>
        <time>2019-05-04T16:02:08Z</time>
      </trkpt>
      <trkpt lat="38.738483" lon="-5.680883">
        <ele>1389.0</ele>
        <time>2019-05-04T16:02:09Z</time>
      </trkpt>
      <trkpt lat="38.738517" lon="-5.680833">
        <ele>1391.0</ele>
        <time>2019-05-04T16:02:10Z</time>
      </trkpt>
      <trkpt lat="38.738583" lon="-5.680800">
        <ele>1393.0</ele>
        <time>2019-05-04T16:02:11Z</time>
      </trkpt>
      <trkpt lat="38.738633" lon="-5.680800">
        <ele>1395.0</ele>
        <time>2019-05-04T16:02:12Z</time>
      </trkpt>
      <trkpt lat="38.738683" lon="-5.680833">
        <ele>1395.0</ele>
        <time>2019-05-04T16:02:13Z</time>
      </trkpt>
      <trkpt lat="38.738733" lon="-5.680883">
        <ele>1398.0</ele>
        <time>2019-05-04T16:02:14Z</time>
      </trkpt>
      <trkpt lat="38.738733" lon="-5.680967">
        <ele>1400.0</ele>
        <time>2019-05-04T16:02:15Z</time>
      </trkpt>
      <trkpt lat="38.738733" lon="-5.681050">
        <ele>1403.0</ele>
        <time>2019-05-04T16:02:16Z</time>
      </trkpt>
      <trkpt lat="38.738700" lon="-5.681133">
        <ele>1406.0</ele>
        <time>2019-05-04T16:02:17Z</time>
      </trkpt>
      <trkpt lat="38.738667" lon="-5.681217">
        <ele>1409.0</ele>
        <time>2019-05-04T16:02:18Z</time>
      </trkpt>
      <trkpt lat="38.738600" lon="-5.681300">
        <ele>1411.0</ele>
        <time>2019-05-04T16:02:19Z</time>
      </trkpt>
      <trkpt lat="38.738533" lon="-5.681383">
        <ele>1414.0</ele>
        <time>2019-05-04T16:02:20Z</time>
      </trkpt>
      <trkpt lat="38.738450" lon="-5.681433">
        <ele>1416.0</ele>
        <time>2019-05-04T16:02:21Z</time>
      </trkpt>
      <trkpt lat="38.738350" lon="-5.681483">
        <ele>1420.0</ele>
        <time>2019-05-04T16:02:22Z</time>
      </trkpt>
      <trkpt lat="38.738267" lon="-5.681500">
        <ele>1422.0</ele>
        <time>2019-05-04T16:02:23Z</time>
      </trkpt>
      <trkpt lat="38.738150" lon="-5.681500">
        <ele>1425.0</ele>
        <time>2019-05-04T16:02:24Z</time>
      </trkpt>
      <trkpt lat="38.738033" lon="-5.681450">
        <ele>1427.0</ele>
        <time>2019-05-04T16:02:25Z</time>
      </trkpt>
      <trkpt lat="38.737933" lon="-5.681383">
        <ele>1429.0</ele>
        <time>2019-05-04T16:02:26Z</time>
      </trkpt>
      <trkpt lat="38.737867" lon="-5.681283">
        <ele>1430.0</ele>
        <time>2019-05-04T16:02:27Z</time>
      </trkpt>
      <trkpt lat="38.737800" lon="-5.681167">
        <ele>1432.0</ele>
        <time>2019-05-04T16:02:28Z</time>
      </trkpt>
      <trkpt lat="38.737783" lon="-5.681067">
        <ele>1434.0</ele>
        <time>2019-05-04T16:02:29Z</time>
      </trkpt>
      <trkpt lat="38.737767" lon="-5.680950">
        <ele>1437.0</ele>
        <time>2019-05-04T16:02:30Z</time>
      </trkpt>
      <trkpt lat="38.737767" lon="-5.680850">
        <ele>1439.0</ele>
        <time>2019-05-04T16:02:31Z</time>
      </trkpt>
      <trkpt lat="38.737800" lon="-5.680750">
        <ele>1441.0</ele>
        <time>2019-05-04T16:02:32Z</time>
      </trkpt>
      <trkpt lat="38.737833" lon="-5.680667">
        <ele>1443.0</ele>
        <time>2019-05-04T16:02:33Z</time>
      </trkpt>
      <trkpt lat="38.737883" lon="-5.680617">
        <ele>1444.0</ele>
        <time>2019-05-04T16:02:34Z</time>
      </trkpt>
      <trkpt lat="38.737933" lon="-5.680583">
        <ele>1446.0</ele>
        <time>2019-05-04T16:02:35Z</time>
      </trkpt>
      <trkpt lat="38.737983" lon="-5.680567">
        <ele>1448.0</ele>
        <time>2019-05-04T16:02:36Z</time>
      </trkpt>
      <trkpt lat="38.738033" lon="-5.680583">
        <ele>1449.0</ele>
        <time>2019-05-04T16:02:37Z</time>
      </trkpt>
      <trkpt lat="38.738067" lon="-5.680600">
        <ele>1451.0</ele>
        <time>2019-05-04T16:02:38Z</time>
      </trkpt>
      <trkpt lat="38.738117" lon="-5.680633">
        <ele>1453.0</ele>
        <time>2019-05-04T16:02:39Z</time>
      </trkpt>
      <trkpt lat="38.738150" lon="-5.680683">
        <ele>1455.0</ele>
        <time>2019-05-04T16:02:40Z</time>
      </trkpt>
      <trkpt lat="38.738167" lon="-5.680750">
        <ele>1458.0</ele>
        <time>2019-05-04T16:02:41Z</time>
      </trkpt>
      <trkpt lat="38.738183" lon="-5.680817">
        <ele>1461.0</ele>
        <time>2019-05-04T16:02:42Z</time>
      </trkpt>
      <trkpt lat="38.738183" lon="-5.680900">
        <ele>1463.0</ele>
        <time>2019-05-04T16:02:43Z</time>
      </trkpt>
      <trkpt lat="38.738183" lon="-5.681000">
        <ele>1465.0</ele>
        <time>2019-05-04T16:02:44Z</time>
      </trkpt>
      <trkpt lat="38.738167" lon="-5.681083">
        <ele>1467.0</ele>
        <time>2019-05-04T16:02:45Z</time>
      </trkpt>
      <trkpt lat="38.738117" lon="-5.681167">
        <ele>1470.0</ele>
        <time>2019-05-04T16:02:46Z</time>
      </trkpt>
      <trkpt lat="38.738050" lon="-5.681250">
        <ele>1473.0</ele>
        <time>2019-05-04T16:02:47Z</time>
      </trkpt>
      <trkpt lat="38.737983" lon="-5.681317">
        <ele>1475.0</ele>
        <time>2019-05-04T16:02:48Z</time>
      </trkpt>
      <trkpt lat="38.737883" lon="-5.681383">
        <ele>1477.0</ele>
        <time>2019-05-04T16:02:49Z</time>
      </trkpt>
      <trkpt lat="38.737800" lon="-5.681417">
        <ele>1479.0</ele>
        <time>2019-05-04T16:02:50Z</time>
      </trkpt>
      <trkpt lat="38.737700" lon="-5.681433">
        <ele>1481.0</ele>
        <time>2019-05-04T16:02:51Z</time>
      </trkpt>
      <trkpt lat="38.737583" lon="-5.681400">
        <ele>1482.0</ele>
        <time>2019-05-04T16:02:52Z</time>
      </trkpt>
      <trkpt lat="38.737467" lon="-5.681333">
        <ele>1483.0</ele>
        <time>2019-05-04T16:02:53Z</time>
      </trkpt>
      <trkpt lat="38.737383" lon="-5.681250">
        <ele>1484.0</ele>
        <time>2019-05-04T16:02:54Z</time>
      </trkpt>
      <trkpt lat="38.737300" lon="-5.681117">
        <ele>1486.0</ele>
        <time>2019-05-04T16:02:55Z</time>
      </trkpt>
      <trkpt lat="38.737267" lon="-5.681017">
        <ele>1489.0</ele>
        <time>2019-05-04T16:02:56Z</time>
      </trkpt>
      <trkpt lat="38.737233" lon="-5.680900">
        <ele>1492.0</ele>
        <time>2019-05-04T16:02:57Z</time>
      </trkpt>
      <trkpt lat="38.737217" lon="-5.680800">
        <ele>1495.0</ele>
        <time>2019-05-04T16:02:58Z</time>
      </trkpt>
      <trkpt lat="38.737200" lon="-5.680700">
        <ele>1497.0</ele>
        <time>2019-05-04T16:02:59Z</time>
      </trkpt>
      <trkpt lat="38.737167" lon="-5.680583">
        <ele>1498.0</ele>
        <time>2019-05-04T16:03:00Z</time>
      </trkpt>
      <trkpt lat="38.737167" lon="-5.680467">
        <ele>1499.0</ele>
        <time>2019-05-04T16:03:01Z</time>
      </trkpt>
      <trkpt lat="38.737183" lon="-5.680350">
        <ele>1500.0</ele>
        <time>2019-05-04T16:03:02Z</time>
      </trkpt>
      <trkpt lat="38.737217" lon="-5.680283">
        <ele>1501.0</ele>
        <time>2019-05-04T16:03:03Z</time>
      </trkpt>
      <trkpt lat="38.737267" lon="-5.680217">
        <ele>1503.0</ele>
        <time>2019-05-04T16:03:04Z</time>
      </trkpt>
      <trkpt lat="38.737300" lon="-5.680167">
        <ele>1504.0</ele>
        <time>2019-05-04T16:03:05Z</time>
      </trkpt>
      <trkpt lat="38.737333" lon="-5.680117">
        <ele>1506.0</ele>
        <time>2019-05-04T16:03:06Z</time>
      </trkpt>
      <trkpt lat="38.737367" lon="-5.680083">
        <ele>1507.0</ele>
        <time>2019-05-04T16:03:07Z</time>
      </trkpt>
      <trkpt lat="38.737417" lon="-5.680067">
        <ele>1508.0</ele>
        <time>2019-05-04T16:03:08Z</time>
      </trkpt>
      <trkpt lat="38.737467" lon="-5.680083">
        <ele>1508.0</ele>
        <time>2019-05-04T16:03:09Z</time>
      </trkpt>
      <trkpt lat="38.737500" lon="-5.680117">
        <ele>1507.0</ele>
        <time>2019-05-04T16:03:10Z</time>
      </trkpt>
      <trkpt lat="38.737533" lon="-5.680183">
        <ele>1508.0</ele>
        <time>2019-05-04T16:03:11Z</time>
      </trkpt>
      <trkpt lat="38.737533" lon="-5.680267">
        <ele>1509.0</ele>
        <time>2019-05-04T16:03:12Z</time>
      </trkpt>
      <trkpt lat="38.737517" lon="-5.680383">
        <ele>1510.0</ele>
        <time>2019-05-04T16:03:13Z</time>
      </trkpt>
      <trkpt lat="38.737467" lon="-5.680483">
        <ele>1510.0</ele>
        <time>2019-05-04T16:03:14Z</time>
      </trkpt>
      <trkpt lat="38.737417" lon="-5.680583">
        <ele>1511.0</ele>
        <time>2019-05-04T16:03:15Z</time>
      </trkpt>
      <trkpt lat="38.737333" lon="-5.680667">
        <ele>1513.0</ele>
        <time>2019-05-04T16:03:16Z</time>
      </trkpt>
      <trkpt lat="38.737267" lon="-5.680750">
        <ele>1515.0</ele>
        <time>2019-05-04T16:03:17Z</time>
      </trkpt>
      <trkpt lat="38.737183" lon="-5.680800">
        <ele>1516.0</ele>
        <time>2019-05-04T16:03:18Z</time>
      </trkpt>
      <trkpt lat="38.737083" lon="-5.680833">
        <ele>1518.0</ele>
        <time>2019-05-04T16:03:19Z</time>
      </trkpt>
      <trkpt lat="38.736983" lon="-5.680867">
        <ele>1520.0</ele>
        <time>2019-05-04T16:03:20Z</time>
      </trkpt>
      <trkpt lat="38.736883" lon="-5.680900">
        <ele>1521.0</ele>
        <time>2019-05-04T16:03:21Z</time>
      </trkpt>
      <trkpt lat="38.736783" lon="-5.680900">
        <ele>1522.0</ele>
        <time>2019-05-04T16:03:22Z</time>
      </trkpt>
      <trkpt lat="38.736667" lon="-5.680867">
        <ele>1523.0</ele>
        <time>2019-05-04T16:03:23Z</time>
      </trkpt>
      <trkpt lat="38.736567" lon="-5.680817">
        <ele>1524.0</ele>
        <time>2019-05-04T16:03:24Z</time>
      </trkpt>
      <trkpt lat="38.736483" lon="-5.680750">
        <ele>1525.0</ele>
        <time>2019-05-04T16:03:25Z</time>
      </trkpt>
      <trkpt lat="38.736417" lon="-5.680667">
        <ele>1526.0</ele>
        <time>2019-05-04T16:03:26Z</time>
      </trkpt>
      <trkpt lat="38.736367" lon="-5.680567">
        <ele>1527.0</ele>
        <time>2019-05-04T16:03:27Z</time>
      </trkpt>
      <trkpt lat="38.736333" lon="-5.680467">
        <ele>1528.0</ele>
        <time>2019-05-04T16:03:28Z</time>
      </trkpt>
      <trkpt lat="38.736300" lon="-5.680367">
        <ele>1529.0</ele>
        <time>2019-05-04T16:03:29Z</time>
      </trkpt>
      <trkpt lat="38.736300" lon="-5.680267">
        <ele>1529.0</ele>
        <time>2019-05-04T16:03:30Z</time>
      </trkpt>
      <trkpt lat="38.736333" lon="-5.680183">
        <ele>1530.0</ele>
        <time>2019-05-04T16:03:31Z</time>
      </trkpt>
      <trkpt lat="38.736383" lon="-5.680117">
        <ele>1530.0</ele>
        <time>2019-05-04T16:03:32Z</time>
      </trkpt>
      <trkpt lat="38.736433" lon="-5.680083">
        <ele>1530.0</ele>
        <time>2019-05-04T16:03:33Z</time>
      </trkpt>
      <trkpt lat="38.736483" lon="-5.680083">
        <ele>1532.0</ele>
        <time>2019-05-04T16:03:34Z</time>
      </trkpt>
      <trkpt lat="38.736517" lon="-5.680083">
        <ele>1534.0</ele>
        <time>2019-05-04T16:03:35Z</time>
      </trkpt>
      <trkpt lat="38.736550" lon="-5.680100">
        <ele>1535.0</ele>
        <time>2019-05-04T16:03:36Z</time>
      </trkpt>
      <trkpt lat="38.736583" lon="-5.680133">
        <ele>1536.0</ele>
        <time>2019-05-04T16:03:37Z</time>
      </trkpt>
      <trkpt lat="38.736617" lon="-5.680167">
        <ele>1536.0</ele>
        <time>2019-05-04T16:03:38Z</time>
      </trkpt>
      <trkpt lat="38.736667" lon="-5.680217">
        <ele>1536.0</ele>
        <time>2019-05-04T16:03:39Z</time>
      </trkpt>
      <trkpt lat="38.736700" lon="-5.680283">
        <ele>1537.0</ele>
        <time>2019-05-04T16:03:40Z</time>
      </trkpt>
      <trkpt lat="38.736717" lon="-5.680367">
        <ele>1538.0</ele>
        <time>2019-05-04T16:03:41Z</time>
      </trkpt>
      <trkpt lat="38.736700" lon="-5.680467">
        <ele>1538.0</ele>
        <time>2019-05-04T16:03:42Z</time>
      </trkpt>
      <trkpt lat="38.736683" lon="-5.680567">
        <ele>1539.0</ele>
        <time>2019-05-04T16:03:43Z</time>
      </trkpt>
      <trkpt lat="38.736650" lon="-5.680667">
        <ele>1540.0</ele>
        <time>2019-05-04T16:03:44Z</time>
      </trkpt>
      <trkpt lat="38.736600" lon="-5.680767">
        <ele>1541.0</ele>
        <time>2019-05-04T16:03:45Z</time>
      </trkpt>
      <trkpt lat="38.736533" lon="-5.680850">
        <ele>1542.0</ele>
        <time>2019-05-04T16:03:46Z</time>
      </trkpt>
      <trkpt lat="38.736450" lon="-5.680933">
        <ele>1543.0</ele>
        <time>2019-05-04T16:03:47Z</time>
      </trkpt>
      <trkpt lat="38.736350" lon="-5.680983">
        <ele>1544.0</ele>
        <time>2019-05-04T16:03:48Z</time>
      </trkpt>
      <trkpt lat="38.736250" lon="-5.681017">
        <ele>1545.0</ele>
        <time>2019-05-04T16:03:49Z</time>
      </trkpt>
      <trkpt lat="38.736133" lon="-5.681017">
        <ele>1546.0</ele>
        <time>2019-05-04T16:03:50Z</time>
      </trkpt>
      <trkpt lat="38.736033" lon="-5.680983">
        <ele>1547.0</ele>
        <time>2019-05-04T16:03:51Z</time>
      </trkpt>
      <trkpt lat="38.735950" lon="-5.680933">
        <ele>1548.0</ele>
        <time>2019-05-04T16:03:52Z</time>
      </trkpt>
      <trkpt lat="38.735867" lon="-5.680867">
        <ele>1549.0</ele>
        <time>2019-05-04T16:03:53Z</time>
      </trkpt>
      <trkpt lat="38.735800" lon="-5.680800">
        <ele>1550.0</ele>
        <time>2019-05-04T16:03:54Z</time>
      </trkpt>
      <trkpt lat="38.735750" lon="-5.680733">
        <ele>1551.0</ele>
        <time>2019-05-04T16:03:55Z</time>
      </trkpt>
      <trkpt lat="38.735700" lon="-5.680633">
        <ele>1551.0</ele>
        <time>2019-05-04T16:03:56Z</time>
      </trkpt>
      <trkpt lat="38.735650" lon="-5.680533">
        <ele>1551.0</ele>
        <time>2019-05-04T16:03:57Z</time>
      </trkpt>
      <trkpt lat="38.735650" lon="-5.680433">
        <ele>1552.0</ele>
        <time>2019-05-04T16:03:58Z</time>
      </trkpt>
      <trkpt lat="38.735650" lon="-5.680333">
        <ele>1552.0</ele>
        <time>2019-05-04T16:03:59Z</time>
      </trkpt>
      <trkpt lat="38.735667" lon="-5.680233">
        <ele>1552.0</ele>
        <time>2019-05-04T16:04:00Z</time>
      </trkpt>
      <trkpt lat="38.735667" lon="-5.680150">
        <ele>1553.0</ele>
        <time>2019-05-04T16:04:01Z</time>
      </trkpt>
      <trkpt lat="38.735683" lon="-5.680067">
        <ele>1554.0</ele>
        <time>2019-05-04T16:04:02Z</time>
      </trkpt>
      <trkpt lat="38.735700" lon="-5.679983">
        <ele>1555.0</ele>
        <time>2019-05-04T16:04:03Z</time>
      </trkpt>
      <trkpt lat="38.735733" lon="-5.679917">
        <ele>1555.0</ele>
        <time>2019-05-04T16:04:04Z</time>
      </trkpt>
      <trkpt lat="38.735767" lon="-5.679833">
        <ele>1556.0</ele>
        <time>2019-05-04T16:04:05Z</time>
      </trkpt>
      <trkpt lat="38.735800" lon="-5.679783">
        <ele>1556.0</ele>
        <time>2019-05-04T16:04:06Z</time>
      </trkpt>
      <trkpt lat="38.735817" lon="-5.679717">
        <ele>1557.0</ele>
        <time>2019-05-04T16:04:07Z</time>
      </trkpt>
      <trkpt lat="38.735833" lon="-5.679650">
        <ele>1558.0</ele>
        <time>2019-05-04T16:04:08Z</time>
      </trkpt>
      <trkpt lat="38.735867" lon="-5.679583">
        <ele>1558.0</ele>
        <time>2019-05-04T16:04:09Z</time>
      </trkpt>
      <trkpt lat="38.735900" lon="-5.679500">
        <ele>1556.0</ele>
        <time>2019-05-04T16:04:10Z</time>
      </trkpt>
      <trkpt lat="38.735967" lon="-5.679417">
        <ele>1555.0</ele>
        <time>2019-05-04T16:04:11Z</time>
      </trkpt>
      <trkpt lat="38.736033" lon="-5.679350">
        <ele>1555.0</ele>
        <time>2019-05-04T16:04:12Z</time>
      </trkpt>
      <trkpt lat="38.736083" lon="-5.679267">
        <ele>1556.0</ele>
        <time>2019-05-04T16:04:13Z</time>
      </trkpt>
      <trkpt lat="38.736133" lon="-5.679200">
        <ele>1558.0</ele>
        <time>2019-05-04T16:04:14Z</time>
      </trkpt>
      <trkpt lat="38.736150" lon="-5.679117">
        <ele>1560.0</ele>
        <time>2019-05-04T16:04:15Z</time>
      </trkpt>
      <trkpt lat="38.736200" lon="-5.679050">
        <ele>1562.0</ele>
        <time>2019-05-04T16:04:16Z</time>
      </trkpt>
      <trkpt lat="38.736233" lon="-5.679000">
        <ele>1564.0</ele>
        <time>2019-05-04T16:04:17Z</time>
      </trkpt>
      <trkpt lat="38.736283" lon="-5.678950">
        <ele>1565.0</ele>
        <time>2019-05-04T16:04:18Z</time>
      </trkpt>
      <trkpt lat="38.736350" lon="-5.678917">
        <ele>1566.0</ele>
        <time>2019-05-04T16:04:19Z</time>
      </trkpt>
      <trkpt lat="38.736417" lon="-5.678933">
        <ele>1567.0</ele>
        <time>2019-05-04T16:04:20Z</time>
      </trkpt>
      <trkpt lat="38.736483" lon="-5.678983">
        <ele>1567.0</ele>
        <time>2019-05-04T16:04:21Z</time>
      </trkpt>
      <trkpt lat="38.736550" lon="-5.679050">
        <ele>1568.0</ele>
        <time>2019-05-04T16:04:22Z</time>
      </trkpt>
      <trkpt lat="38.736583" lon="-5.679150">
        <ele>1570.0</ele>
        <time>2019-05-04T16:04:23Z</time>
      </trkpt>
      <trkpt lat="38.736567" lon="-5.679250">
        <ele>1573.0</ele>
        <time>2019-05-04T16:04:24Z</time>
      </trkpt>
      <trkpt lat="38.736550" lon="-5.679367">
        <ele>1575.0</ele>
        <time>2019-05-04T16:04:25Z</time>
      </trkpt>
      <trkpt lat="38.736500" lon="-5.679467">
        <ele>1577.0</ele>
        <time>2019-05-04T16:04:26Z</time>
      </trkpt>
      <trkpt lat="38.736433" lon="-5.679550">
        <ele>1579.0</ele>
        <time>2019-05-04T16:04:27Z</time>
      </trkpt>
      <trkpt lat="38.736350" lon="-5.679633">
        <ele>1581.0</ele>
        <time>2019-05-04T16:04:28Z</time>
      </trkpt>
      <trkpt lat="38.736250" lon="-5.679700">
        <ele>1583.0</ele>
        <time>2019-05-04T16:04:29Z</time>
      </trkpt>
      <trkpt lat="38.736133" lon="-5.679750">
        <ele>1584.0</ele>
        <time>2019-05-04T16:04:30Z</time>
      </trkpt>
      <trkpt lat="38.736033" lon="-5.679750">
        <ele>1586.0</ele>
        <time>2019-05-04T16:04:31Z</time>
      </trkpt>
      <trkpt lat="38.735917" lon="-5.679733">
        <ele>1588.0</ele>
        <time>2019-05-04T16:04:32Z</time>
      </trkpt>
      <trkpt lat="38.735833" lon="-5.679683">
        <ele>1591.0</ele>
        <time>2019-05-04T16:04:33Z</time>
      </trkpt>
      <trkpt lat="38.735733" lon="-5.679633">
        <ele>1594.0</ele>
        <time>2019-05-04T16:04:34Z</time>
      </trkpt>
      <trkpt lat="38.735650" lon="-5.679583">
        <ele>1596.0</ele>
        <time>2019-05-04T16:04:35Z</time>
      </trkpt>
      <trkpt lat="38.735567" lon="-5.679533">
        <ele>1597.0</ele>
        <time>2019-05-04T16:04:36Z</time>
      </trkpt>
      <trkpt lat="38.735483" lon="-5.679467">
        <ele>1599.0</ele>
        <time>2019-05-04T16:04:37Z</time>
      </trkpt>
      <trkpt lat="38.735400" lon="-5.679383">
        <ele>1600.0</ele>
        <time>2019-05-04T16:04:38Z</time>
      </trkpt>
      <trkpt lat="38.735350" lon="-5.679267">
        <ele>1601.0</ele>
        <time>2019-05-04T16:04:39Z</time>
      </trkpt>
      <trkpt lat="38.735333" lon="-5.679150">
        <ele>1602.0</ele>
        <time>2019-05-04T16:04:40Z</time>
      </trkpt>
      <trkpt lat="38.735350" lon="-5.679050">
        <ele>1602.0</ele>
        <time>2019-05-04T16:04:41Z</time>
      </trkpt>
      <trkpt lat="38.735383" lon="-5.678967">
        <ele>1604.0</ele>
        <time>2019-05-04T16:04:42Z</time>
      </trkpt>
      <trkpt lat="38.735417" lon="-5.678900">
        <ele>1606.0</ele>
        <time>2019-05-04T16:04:43Z</time>
      </trkpt>
      <trkpt lat="38.735450" lon="-5.678850">
        <ele>1607.0</ele>
        <time>2019-05-04T16:04:44Z</time>
      </trkpt>
      <trkpt lat="38.735517" lon="-5.678800">
        <ele>1608.0</ele>
        <time>2019-05-04T16:04:45Z</time>
      </trkpt>
      <trkpt lat="38.735567" lon="-5.678783">
        <ele>1608.0</ele>
        <time>2019-05-04T16:04:46Z</time>
      </trkpt>
      <trkpt lat="38.735650" lon="-5.678783">
        <ele>1609.0</ele>
        <time>2019-05-04T16:04:47Z</time>
      </trkpt>
      <trkpt lat="38.735717" lon="-5.678817">
        <ele>1610.0</ele>
        <time>2019-05-04T16:04:48Z</time>
      </trkpt>
      <trkpt lat="38.735750" lon="-5.678900">
        <ele>1611.0</ele>
        <time>2019-05-04T16:04:49Z</time>
      </trkpt>
      <trkpt lat="38.735767" lon="-5.678983">
        <ele>1613.0</ele>
        <time>2019-05-04T16:04:50Z</time>
      </trkpt>
      <trkpt lat="38.735767" lon="-5.679067">
        <ele>1616.0</ele>
        <time>2019-05-04T16:04:51Z</time>
      </trkpt>
      <trkpt lat="38.735733" lon="-5.679167">
        <ele>1618.0</ele>
        <time>2019-05-04T16:04:52Z</time>
      </trkpt>
      <trkpt lat="38.735683" lon="-5.679283">
        <ele>1619.0</ele>
        <time>2019-05-04T16:04:53Z</time>
      </trkpt>
      <trkpt lat="38.735617" lon="-5.679383">
        <ele>1620.0</ele>
        <time>2019-05-04T16:04:54Z</time>
      </trkpt>
      <trkpt lat="38.735533" lon="-5.679467">
        <ele>1621.0</ele>
        <time>2019-05-04T16:04:55Z</time>
      </trkpt>
      <trkpt lat="38.735417" lon="-5.679500">
        <ele>1622.0</ele>
        <time>2019-05-04T16:04:56Z</time>
      </trkpt>
      <trkpt lat="38.735317" lon="-5.679517">
        <ele>1623.0</ele>
        <time>2019-05-04T16:04:57Z</time>
      </trkpt>
      <trkpt lat="38.735217" lon="-5.679483">
        <ele>1624.0</ele>
        <time>2019-05-04T16:04:58Z</time>
      </trkpt>
      <trkpt lat="38.735133" lon="-5.679433">
        <ele>1626.0</ele>
        <time>2019-05-04T16:04:59Z</time>
      </trkpt>
      <trkpt lat="38.735067" lon="-5.679350">
        <ele>1627.0</ele>
        <time>2019-05-04T16:05:00Z</time>
      </trkpt>
      <trkpt lat="38.735033" lon="-5.679250">
        <ele>1628.0</ele>
        <time>2019-05-04T16:05:01Z</time>
      </trkpt>
      <trkpt lat="38.735000" lon="-5.679167">
        <ele>1629.0</ele>
        <time>2019-05-04T16:05:02Z</time>
      </trkpt>
      <trkpt lat="38.735000" lon="-5.679067">
        <ele>1630.0</ele>
        <time>2019-05-04T16:05:03Z</time>
      </trkpt>
      <trkpt lat="38.735017" lon="-5.678983">
        <ele>1631.0</ele>
        <time>2019-05-04T16:05:04Z</time>
      </trkpt>
      <trkpt lat="38.735033" lon="-5.678917">
        <ele>1632.0</ele>
        <time>2019-05-04T16:05:05Z</time>
      </trkpt>
      <trkpt lat="38.735050" lon="-5.678850">
        <ele>1632.0</ele>
        <time>2019-05-04T16:05:06Z</time>
      </trkpt>
      <trkpt lat="38.735100" lon="-5.678767">
        <ele>1632.0</ele>
        <time>2019-05-04T16:05:07Z</time>
      </trkpt>
      <trkpt lat="38.735167" lon="-5.678717">
        <ele>1633.0</ele>
        <time>2019-05-04T16:05:08Z</time>
      </trkpt>
      <trkpt lat="38.735233" lon="-5.678683">
        <ele>1633.0</ele>
        <time>2019-05-04T16:05:09Z</time>
      </trkpt>
      <trkpt lat="38.735300" lon="-5.678667">
        <ele>1634.0</ele>
        <time>2019-05-04T16:05:10Z</time>
      </trkpt>
      <trkpt lat="38.735367" lon="-5.678667">
        <ele>1636.0</ele>
        <time>2019-05-04T16:05:11Z</time>
      </trkpt>
      <trkpt lat="38.735417" lon="-5.678650">
        <ele>1638.0</ele>
        <time>2019-05-04T16:05:12Z</time>
      </trkpt>
      <trkpt lat="38.735467" lon="-5.678633">
        <ele>1640.0</ele>
        <time>2019-05-04T16:05:13Z</time>
      </trkpt>
      <trkpt lat="38.735517" lon="-5.678617">
        <ele>1641.0</ele>
        <time>2019-05-04T16:05:14Z</time>
      </trkpt>
      <trkpt lat="38.735583" lon="-5.678633">
        <ele>1641.0</ele>
        <time>2019-05-04T16:05:15Z</time>
      </trkpt>
      <trkpt lat="38.735633" lon="-5.678683">
        <ele>1642.0</ele>
        <time>2019-05-04T16:05:16Z</time>
      </trkpt>
      <trkpt lat="38.735683" lon="-5.678733">
        <ele>1644.0</ele>
        <time>2019-05-04T16:05:17Z</time>
      </trkpt>
      <trkpt lat="38.735717" lon="-5.678817">
        <ele>1645.0</ele>
        <time>2019-05-04T16:05:18Z</time>
      </trkpt>
      <trkpt lat="38.735733" lon="-5.678883">
        <ele>1648.0</ele>
        <time>2019-05-04T16:05:19Z</time>
      </trkpt>
      <trkpt lat="38.735733" lon="-5.678983">
        <ele>1650.0</ele>
        <time>2019-05-04T16:05:20Z</time>
      </trkpt>
      <trkpt lat="38.735733" lon="-5.679067">
        <ele>1652.0</ele>
        <time>2019-05-04T16:05:21Z</time>
      </trkpt>
      <trkpt lat="38.735700" lon="-5.679167">
        <ele>1655.0</ele>
        <time>2019-05-04T16:05:22Z</time>
      </trkpt>
      <trkpt lat="38.735650" lon="-5.679267">
        <ele>1657.0</ele>
        <time>2019-05-04T16:05:23Z</time>
      </trkpt>
      <trkpt lat="38.735583" lon="-5.679350">
        <ele>1659.0</ele>
        <time>2019-05-04T16:05:24Z</time>
      </trkpt>
      <trkpt lat="38.735500" lon="-5.679400">
        <ele>1661.0</ele>
        <time>2019-05-04T16:05:25Z</time>
      </trkpt>
      <trkpt lat="38.735417" lon="-5.679433">
        <ele>1663.0</ele>
        <time>2019-05-04T16:05:26Z</time>
      </trkpt>
      <trkpt lat="38.735333" lon="-5.679433">
        <ele>1665.0</ele>
        <time>2019-05-04T16:05:27Z</time>
      </trkpt>
      <trkpt lat="38.735233" lon="-5.679433">
        <ele>1666.0</ele>
        <time>2019-05-04T16:05:28Z</time>
      </trkpt>
      <trkpt lat="38.735133" lon="-5.679400">
        <ele>1667.0</ele>
        <time>2019-05-04T16:05:29Z</time>
      </trkpt>
      <trkpt lat="38.735050" lon="-5.679333">
        <ele>1668.0</ele>
        <time>2019-05-04T16:05:30Z</time>
      </trkpt>
      <trkpt lat="38.734967" lon="-5.679250">
        <ele>1669.0</ele>
        <time>2019-05-04T16:05:31Z</time>
      </trkpt>
      <trkpt lat="38.734917" lon="-5.679167">
        <ele>1671.0</ele>
        <time>2019-05-04T16:05:32Z</time>
      </trkpt>
      <trkpt lat="38.734867" lon="-5.679067">
        <ele>1673.0</ele>
        <time>2019-05-04T16:05:33Z</time>
      </trkpt>
      <trkpt lat="38.734833" lon="-5.678967">
        <ele>1675.0</ele>
        <time>2019-05-04T16:05:34Z</time>
      </trkpt>
      <trkpt lat="38.734783" lon="-5.678850">
        <ele>1677.0</ele>
        <time>2019-05-04T16:05:35Z</time>
      </trkpt>
      <trkpt lat="38.734750" lon="-5.678750">
        <ele>1678.0</ele>
        <time>2019-05-04T16:05:36Z</time>
      </trkpt>
      <trkpt lat="38.734717" lon="-5.678617">
        <ele>1681.0</ele>
        <time>2019-05-04T16:05:37Z</time>
      </trkpt>
      <trkpt lat="38.734700" lon="-5.678517">
        <ele>1683.0</ele>
        <time>2019-05-04T16:05:38Z</time>
      </trkpt>
      <trkpt lat="38.734700" lon="-5.678417">
        <ele>1686.0</ele>
        <time>2019-05-04T16:05:39Z</time>
      </trkpt>
      <trkpt lat="38.734683" lon="-5.678317">
        <ele>1688.0</ele>
        <time>2019-05-04T16:05:40Z</time>
      </trkpt>
      <trkpt lat="38.734683" lon="-5.678217">
        <ele>1689.0</ele>
        <time>2019-05-04T16:05:41Z</time>
      </trkpt>
      <trkpt lat="38.734700" lon="-5.678117">
        <ele>1689.0</ele>
        <time>2019-05-04T16:05:42Z</time>
      </trkpt>
      <trkpt lat="38.734717" lon="-5.678017">
        <ele>1690.0</ele>
        <time>2019-05-04T16:05:43Z</time>
      </trkpt>
      <trkpt lat="38.734767" lon="-5.677933">
        <ele>1691.0</ele>
        <time>2019-05-04T16:05:44Z</time>
      </trkpt>
      <trkpt lat="38.734833" lon="-5.677867">
        <ele>1692.0</ele>
        <time>2019-05-04T16:05:45Z</time>
      </trkpt>
      <trkpt lat="38.734883" lon="-5.677817">
        <ele>1694.0</ele>
        <time>2019-05-04T16:05:46Z</time>
      </trkpt>
      <trkpt lat="38.734950" lon="-5.677783">
        <ele>1695.0</ele>
        <time>2019-05-04T16:05:47Z</time>
      </trkpt>
      <trkpt lat="38.735017" lon="-5.677767">
        <ele>1697.0</ele>
        <time>2019-05-04T16:05:48Z</time>
      </trkpt>
      <trkpt lat="38.735083" lon="-5.677767">
        <ele>1698.0</ele>
        <time>2019-05-04T16:05:49Z</time>
      </trkpt>
      <trkpt lat="38.735150" lon="-5.677800">
        <ele>1699.0</ele>
        <time>2019-05-04T16:05:50Z</time>
      </trkpt>
      <trkpt lat="38.735200" lon="-5.677850">
        <ele>1702.0</ele>
        <time>2019-05-04T16:05:51Z</time>
      </trkpt>
      <trkpt lat="38.735233" lon="-5.677917">
        <ele>1704.0</ele>
        <time>2019-05-04T16:05:52Z</time>
      </trkpt>
      <trkpt lat="38.735250" lon="-5.678000">
        <ele>1706.0</ele>
        <time>2019-05-04T16:05:53Z</time>
      </trkpt>
      <trkpt lat="38.735250" lon="-5.678083">
        <ele>1708.0</ele>
        <time>2019-05-04T16:05:54Z</time>
      </trkpt>
      <trkpt lat="38.735217" lon="-5.678167">
        <ele>1709.0</ele>
        <time>2019-05-04T16:05:55Z</time>
      </trkpt>
      <trkpt lat="38.735183" lon="-5.678250">
        <ele>1709.0</ele>
        <time>2019-05-04T16:05:56Z</time>
      </trkpt>
      <trkpt lat="38.735133" lon="-5.678333">
        <ele>1708.0</ele>
        <time>2019-05-04T16:05:57Z</time>
      </trkpt>
      <trkpt lat="38.735067" lon="-5.678417">
        <ele>1707.0</ele>
        <time>2019-05-04T16:05:58Z</time>
      </trkpt>
      <trkpt lat="38.734983" lon="-5.678500">
        <ele>1707.0</ele>
        <time>2019-05-04T16:05:59Z</time>
      </trkpt>
      <trkpt lat="38.734867" lon="-5.678567">
        <ele>1707.0</ele>
        <time>2019-05-04T16:06:00Z</time>
      </trkpt>
      <trkpt lat="38.734750" lon="-5.678567">
        <ele>1708.0</ele>
        <time>2019-05-04T16:06:01Z</time>
      </trkpt>
      <trkpt lat="38.734667" lon="-5.678533">
        <ele>1711.0</ele>
        <time>2019-05-04T16:06:02Z</time>
      </trkpt>
      <trkpt lat="38.734567" lon="-5.678500">
        <ele>1714.0</ele>
        <time>2019-05-04T16:06:03Z</time>
      </trkpt>
      <trkpt lat="38.734483" lon="-5.678450">
        <ele>1717.0</ele>
        <time>2019-05-04T16:06:04Z</time>
      </trkpt>
      <trkpt lat="38.734400" lon="-5.678417">
        <ele>1718.0</ele>
        <time>2019-05-04T16:06:05Z</time>
      </trkpt>
      <trkpt lat="38.734300" lon="-5.678350">
        <ele>1719.0</ele>
        <time>2019-05-04T16:06:06Z</time>
      </trkpt>
      <trkpt lat="38.734233" lon="-5.678250">
        <ele>1721.0</ele>
        <time>2019-05-04T16:06:07Z</time>
      </trkpt>
      <trkpt lat="38.734183" lon="-5.678133">
        <ele>1722.0</ele>
        <time>2019-05-04T16:06:08Z</time>
      </trkpt>
      <trkpt lat="38.734167" lon="-5.678017">
        <ele>1724.0</ele>
        <time>2019-05-04T16:06:09Z</time>
      </trkpt>
      <trkpt lat="38.734150" lon="-5.677883">
        <ele>1725.0</ele>
        <time>2019-05-04T16:06:10Z</time>
      </trkpt>
      <trkpt lat="38.734150" lon="-5.677783">
        <ele>1727.0</ele>
        <time>2019-05-04T16:06:11Z</time>
      </trkpt>
      <trkpt lat="38.734167" lon="-5.677683">
        <ele>1728.0</ele>
        <time>2019-05-04T16:06:12Z</time>
      </trkpt>
      <trkpt lat="38.734200" lon="-5.677600">
        <ele>1729.0</ele>
        <time>2019-05-04T16:06:13Z</time>
      </trkpt>
      <trkpt lat="38.734250" lon="-5.677517">
        <ele>1730.0</ele>
        <time>2019-05-04T16:06:14Z</time>
      </trkpt>
      <trkpt lat="38.734300" lon="-5.677433">
        <ele>1730.0</ele>
        <time>2019-05-04T16:06:15Z</time>
      </trkpt>
      <trkpt lat="38.734367" lon="-5.677383">
        <ele>1731.0</ele>
        <time>2019-05-04T16:06:16Z</time>
      </trkpt>
      <trkpt lat="38.734417" lon="-5.677367">
        <ele>1734.0</ele>
        <time>2019-05-04T16:06:17Z</time>
      </trkpt>
      <trkpt lat="38.734483" lon="-5.677383">
        <ele>1737.0</ele>
        <time>2019-05-04T16:06:18Z</time>
      </trkpt>
      <trkpt lat="38.734533" lon="-5.677433">
        <ele>1739.0</ele>
        <time>2019-05-04T16:06:19Z</time>
      </trkpt>
      <trkpt lat="38.734567" lon="-5.677483">
        <ele>1740.0</ele>
        <time>2019-05-04T16:06:20Z</time>
      </trkpt>
      <trkpt lat="38.734600" lon="-5.677550">
        <ele>1742.0</ele>
        <time>2019-05-04T16:06:21Z</time>
      </trkpt>
      <trkpt lat="38.734617" lon="-5.677633">
        <ele>1744.0</ele>
        <time>2019-05-04T16:06:22Z</time>
      </trkpt>
      <trkpt lat="38.734617" lon="-5.677733">
        <ele>1746.0</ele>
        <time>2019-05-04T16:06:23Z</time>
      </trkpt>
      <trkpt lat="38.734600" lon="-5.677817">
        <ele>1748.0</ele>
        <time>2019-05-04T16:06:24Z</time>
      </trkpt>
      <trkpt lat="38.734567" lon="-5.677917">
        <ele>1750.0</ele>
        <time>2019-05-04T16:06:25Z</time>
      </trkpt>
      <trkpt lat="38.734517" lon="-5.678000">
        <ele>1751.0</ele>
        <time>2019-05-04T16:06:26Z</time>
      </trkpt>
      <trkpt lat="38.734450" lon="-5.678067">
        <ele>1751.0</ele>
        <time>2019-05-04T16:06:27Z</time>
      </trkpt>
      <trkpt lat="38.734367" lon="-5.678150">
        <ele>1752.0</ele>
        <time>2019-05-04T16:06:28Z</time>
      </trkpt>
      <trkpt lat="38.734283" lon="-5.678217">
        <ele>1752.0</ele>
        <time>2019-05-04T16:06:29Z</time>
      </trkpt>
      <trkpt lat="38.734183" lon="-5.678233">
        <ele>1753.0</ele>
        <time>2019-05-04T16:06:30Z</time>
      </trkpt>
      <trkpt lat="38.734067" lon="-5.678233">
        <ele>1754.0</ele>
        <time>2019-05-04T16:06:31Z</time>
      </trkpt>
      <trkpt lat="38.733983" lon="-5.678183">
        <ele>1755.0</ele>
        <time>2019-05-04T16:06:32Z</time>
      </trkpt>
      <trkpt lat="38.733883" lon="-5.678117">
        <ele>1756.0</ele>
        <time>2019-05-04T16:06:33Z</time>
      </trkpt>
      <trkpt lat="38.733817" lon="-5.678033">
        <ele>1758.0</ele>
        <time>2019-05-04T16:06:34Z</time>
      </trkpt>
      <trkpt lat="38.733750" lon="-5.677950">
        <ele>1759.0</ele>
        <time>2019-05-04T16:06:35Z</time>
      </trkpt>
      <trkpt lat="38.733700" lon="-5.677867">
        <ele>1761.0</ele>
        <time>2019-05-04T16:06:36Z</time>
      </trkpt>
      <trkpt lat="38.733667" lon="-5.677767">
        <ele>1762.0</ele>
        <time>2019-05-04T16:06:37Z</time>
      </trkpt>
      <trkpt lat="38.733633" lon="-5.677650">
        <ele>1763.0</ele>
        <time>2019-05-04T16:06:38Z</time>
      </trkpt>
      <trkpt lat="38.733633" lon="-5.677550">
        <ele>1765.0</ele>
        <time>2019-05-04T16:06:39Z</time>
      </trkpt>
      <trkpt lat="38.733650" lon="-5.677450">
        <ele>1765.0</ele>
        <time>2019-05-04T16:06:40Z</time>
      </trkpt>
      <trkpt lat="38.733667" lon="-5.677350">
        <ele>1764.0</ele>
        <time>2019-05-04T16:06:41Z</time>
      </trkpt>
      <trkpt lat="38.733700" lon="-5.677250">
        <ele>1764.0</ele>
        <time>2019-05-04T16:06:42Z</time>
      </trkpt>
      <trkpt lat="38.733750" lon="-5.677150">
        <ele>1764.0</ele>
        <time>2019-05-04T16:06:43Z</time>
      </trkpt>
      <trkpt lat="38.733783" lon="-5.677067">
        <ele>1765.0</ele>
        <time>2019-05-04T16:06:44Z</time>
      </trkpt>
      <trkpt lat="38.733817" lon="-5.676983">
        <ele>1767.0</ele>
        <time>2019-05-04T16:06:45Z</time>
      </trkpt>
      <trkpt lat="38.733833" lon="-5.676917">
        <ele>1771.0</ele>
        <time>2019-05-04T16:06:46Z</time>
      </trkpt>
      <trkpt lat="38.733850" lon="-5.676850">
        <ele>1773.0</ele>
        <time>2019-05-04T16:06:47Z</time>
      </trkpt>
      <trkpt lat="38.733883" lon="-5.676800">
        <ele>1774.0</ele>
        <time>2019-05-04T16:06:48Z</time>
      </trkpt>
      <trkpt lat="38.733917" lon="-5.676733">
        <ele>1773.0</ele>
        <time>2019-05-04T16:06:49Z</time>
      </trkpt>
      <trkpt lat="38.733967" lon="-5.676683">
        <ele>1772.0</ele>
        <time>2019-05-04T16:06:50Z</time>
      </trkpt>
      <trkpt lat="38.734033" lon="-5.676683">
        <ele>1770.0</ele>
        <time>2019-05-04T16:06:51Z</time>
      </trkpt>
      <trkpt lat="38.734100" lon="-5.676700">
        <ele>1769.0</ele>
        <time>2019-05-04T16:06:52Z</time>
      </trkpt>
      <trkpt lat="38.734150" lon="-5.676767">
        <ele>1768.0</ele>
        <time>2019-05-04T16:06:53Z</time>
      </trkpt>
      <trkpt lat="38.734167" lon="-5.676850">
        <ele>1768.0</ele>
        <time>2019-05-04T16:06:54Z</time>
      </trkpt>
      <trkpt lat="38.734150" lon="-5.676967">
        <ele>1768.0</ele>
        <time>2019-05-04T16:06:55Z</time>
      </trkpt>
      <trkpt lat="38.734117" lon="-5.677067">
        <ele>1768.0</ele>
        <time>2019-05-04T16:06:56Z</time>
      </trkpt>
      <trkpt lat="38.734083" lon="-5.677183">
        <ele>1768.0</ele>
        <time>2019-05-04T16:06:57Z</time>
      </trkpt>
      <trkpt lat="38.734033" lon="-5.677283">
        <ele>1769.0</ele>
        <time>2019-05-04T16:06:58Z</time>
      </trkpt>
      <trkpt lat="38.733950" lon="-5.677367">
        <ele>1769.0</ele>
        <time>2019-05-04T16:06:59Z</time>
      </trkpt>
      <trkpt lat="38.733850" lon="-5.677433">
        <ele>1768.0</ele>
        <time>2019-05-04T16:07:00Z</time>
      </trkpt>
      <trkpt lat="38.733733" lon="-5.677500">
        <ele>1768.0</ele>
        <time>2019-05-04T16:07:01Z</time>
      </trkpt>
      <trkpt lat="38.733617" lon="-5.677533">
        <ele>1768.0</ele>
        <time>2019-05-04T16:07:02Z</time>
      </trkpt>
      <trkpt lat="38.733517" lon="-5.677533">
        <ele>1769.0</ele>
        <time>2019-05-04T16:07:03Z</time>
      </trkpt>
      <trkpt lat="38.733417" lon="-5.677517">
        <ele>1771.0</ele>
        <time>2019-05-04T16:07:04Z</time>
      </trkpt>
      <trkpt lat="38.733317" lon="-5.677467">
        <ele>1772.0</ele>
        <time>2019-05-04T16:07:05Z</time>
      </trkpt>
      <trkpt lat="38.733233" lon="-5.677417">
        <ele>1772.0</ele>
        <time>2019-05-04T16:07:06Z</time>
      </trkpt>
      <trkpt lat="38.733150" lon="-5.677350">
        <ele>1772.0</ele>
        <time>2019-05-04T16:07:07Z</time>
      </trkpt>
      <trkpt lat="38.733083" lon="-5.677267">
        <ele>1772.0</ele>
        <time>2019-05-04T16:07:08Z</time>
      </trkpt>
      <trkpt lat="38.733017" lon="-5.677167">
        <ele>1771.0</ele>
        <time>2019-05-04T16:07:09Z</time>
      </trkpt>
      <trkpt lat="38.732967" lon="-5.677067">
        <ele>1772.0</ele>
        <time>2019-05-04T16:07:10Z</time>
      </trkpt>
      <trkpt lat="38.732917" lon="-5.676967">
        <ele>1773.0</ele>
        <time>2019-05-04T16:07:11Z</time>
      </trkpt>
      <trkpt lat="38.732883" lon="-5.676867">
        <ele>1774.0</ele>
        <time>2019-05-04T16:07:12Z</time>
      </trkpt>
      <trkpt lat="38.732850" lon="-5.676767">
        <ele>1775.0</ele>
        <time>2019-05-04T16:07:13Z</time>
      </trkpt>
      <trkpt lat="38.732850" lon="-5.676667">
        <ele>1776.0</ele>
        <time>2019-05-04T16:07:14Z</time>
      </trkpt>
      <trkpt lat="38.732833" lon="-5.676550">
        <ele>1777.0</ele>
        <time>2019-05-04T16:07:15Z</time>
      </trkpt>
      <trkpt lat="38.732833" lon="-5.676450">
        <ele>1777.0</ele>
        <time>2019-05-04T16:07:16Z</time>
      </trkpt>
      <trkpt lat="38.732850" lon="-5.676350">
        <ele>1778.0</ele>
        <time>2019-05-04T16:07:17Z</time>
      </trkpt>
      <trkpt lat="38.732867" lon="-5.676283">
        <ele>1780.0</ele>
        <time>2019-05-04T16:07:18Z</time>
      </trkpt>
      <trkpt lat="38.732883" lon="-5.676217">
        <ele>1780.0</ele>
        <time>2019-05-04T16:07:19Z</time>
      </trkpt>
      <trkpt lat="38.732917" lon="-5.676167">
        <ele>1781.0</ele>
        <time>2019-05-04T16:07:20Z</time>
      </trkpt>
      <trkpt lat="38.732967" lon="-5.676117">
        <ele>1781.0</ele>
        <time>2019-05-04T16:07:21Z</time>
      </trkpt>
      <trkpt lat="38.733017" lon="-5.676067">
        <ele>1781.0</ele>
        <time>2019-05-04T16:07:22Z</time>
      </trkpt>
      <trkpt lat="38.733083" lon="-5.676050">
        <ele>1781.0</ele>
        <time>2019-05-04T16:07:23Z</time>
      </trkpt>
      <trkpt lat="38.733133" lon="-5.676067">
        <ele>1782.0</ele>
        <time>2019-05-04T16:07:24Z</time>
      </trkpt>
      <trkpt lat="38.733183" lon="-5.676100">
        <ele>1783.0</ele>
        <time>2019-05-04T16:07:25Z</time>
      </trkpt>
      <trkpt lat="38.733233" lon="-5.676133">
        <ele>1784.0</ele>
        <time>2019-05-04T16:07:26Z</time>
      </trkpt>
      <trkpt lat="38.733267" lon="-5.676183">
        <ele>1784.0</ele>
        <time>2019-05-04T16:07:27Z</time>
      </trkpt>
      <trkpt lat="38.733300" lon="-5.676250">
        <ele>1784.0</ele>
        <time>2019-05-04T16:07:28Z</time>
      </trkpt>
      <trkpt lat="38.733317" lon="-5.676333">
        <ele>1785.0</ele>
        <time>2019-05-04T16:07:29Z</time>
      </trkpt>
      <trkpt lat="38.733333" lon="-5.676433">
        <ele>1785.0</ele>
        <time>2019-05-04T16:07:30Z</time>
      </trkpt>
      <trkpt lat="38.733333" lon="-5.676533">
        <ele>1785.0</ele>
        <time>2019-05-04T16:07:31Z</time>
      </trkpt>
      <trkpt lat="38.733317" lon="-5.676633">
        <ele>1786.0</ele>
        <time>2019-05-04T16:07:32Z</time>
      </trkpt>
      <trkpt lat="38.733300" lon="-5.676750">
        <ele>1787.0</ele>
        <time>2019-05-04T16:07:33Z</time>
      </trkpt>
      <trkpt lat="38.733267" lon="-5.676850">
        <ele>1788.0</ele>
        <time>2019-05-04T16:07:34Z</time>
      </trkpt>
      <trkpt lat="38.733217" lon="-5.676933">
        <ele>1789.0</ele>
        <time>2019-05-04T16:07:35Z</time>
      </trkpt>
      <trkpt lat="38.733150" lon="-5.677033">
        <ele>1789.0</ele>
        <time>2019-05-04T16:07:36Z</time>
      </trkpt>
      <trkpt lat="38.733067" lon="-5.677133">
        <ele>1789.0</ele>
        <time>2019-05-04T16:07:37Z</time>
      </trkpt>
      <trkpt lat="38.732983" lon="-5.677217">
        <ele>1789.0</ele>
        <time>2019-05-04T16:07:38Z</time>
      </trkpt>
      <trkpt lat="38.732883" lon="-5.677267">
        <ele>1788.0</ele>
        <time>2019-05-04T16:07:39Z</time>
      </trkpt>
      <trkpt lat="38.732783" lon="-5.677283">
        <ele>1788.0</ele>
        <time>2019-05-04T16:07:40Z</time>
      </trkpt>
      <trkpt lat="38.732683" lon="-5.677283">
        <ele>1788.0</ele>
        <time>2019-05-04T16:07:41Z</time>
      </trkpt>
      <trkpt lat="38.732567" lon="-5.677250">
        <ele>1787.0</ele>
        <time>2019-05-04T16:07:42Z</time>
      </trkpt>
      <trkpt lat="38.732483" lon="-5.677200">
        <ele>1786.0</ele>
        <time>2019-05-04T16:07:43Z</time>
      </trkpt>
      <trkpt lat="38.732400" lon="-5.677133">
        <ele>1786.0</ele>
        <time>2019-05-04T16:07:44Z</time>
      </trkpt>
      <trkpt lat="38.732333" lon="-5.677050">
        <ele>1785.0</ele>
        <time>2019-05-04T16:07:45Z</time>
      </trkpt>
      <trkpt lat="38.732283" lon="-5.676950">
        <ele>1784.0</ele>
        <time>2019-05-04T16:07:46Z</time>
      </trkpt>
      <trkpt lat="38.732250" lon="-5.676850">
        <ele>1783.0</ele>
        <time>2019-05-04T16:07:47Z</time>
      </trkpt>
      <trkpt lat="38.732250" lon="-5.676717">
        <ele>1782.0</ele>
        <time>2019-05-04T16:07:48Z</time>
      </trkpt>
      <trkpt lat="38.732250" lon="-5.676600">
        <ele>1781.0</ele>
        <time>2019-05-04T16:07:49Z</time>
      </trkpt>
      <trkpt lat="38.732250" lon="-5.676483">
        <ele>1780.0</ele>
        <time>2019-05-04T16:07:50Z</time>
      </trkpt>
      <trkpt lat="38.732267" lon="-5.676350">
        <ele>1780.0</ele>
        <time>2019-05-04T16:07:51Z</time>
      </trkpt>
      <trkpt lat="38.732300" lon="-5.676250">
        <ele>1780.0</ele>
        <time>2019-05-04T16:07:52Z</time>
      </trkpt>
      <trkpt lat="38.732317" lon="-5.676150">
        <ele>1780.0</ele>
        <time>2019-05-04T16:07:53Z</time>
      </trkpt>
      <trkpt lat="38.732333" lon="-5.676033">
        <ele>1780.0</ele>
        <time>2019-05-04T16:07:54Z</time>
      </trkpt>
      <trkpt lat="38.732367" lon="-5.675933">
        <ele>1780.0</ele>
        <time>2019-05-04T16:07:55Z</time>
      </trkpt>
      <trkpt lat="38.732400" lon="-5.675833">
        <ele>1780.0</ele>
        <time>2019-05-04T16:07:56Z</time>
      </trkpt>
      <trkpt lat="38.732433" lon="-5.675733">
        <ele>1780.0</ele>
        <time>2019-05-04T16:07:57Z</time>
      </trkpt>
      <trkpt lat="38.732467" lon="-5.675633">
        <ele>1781.0</ele>
        <time>2019-05-04T16:07:58Z</time>
      </trkpt>
      <trkpt lat="38.732500" lon="-5.675533">
        <ele>1781.0</ele>
        <time>2019-05-04T16:07:59Z</time>
      </trkpt>
      <trkpt lat="38.732517" lon="-5.675450">
        <ele>1782.0</ele>
        <time>2019-05-04T16:08:00Z</time>
      </trkpt>
      <trkpt lat="38.732550" lon="-5.675350">
        <ele>1783.0</ele>
        <time>2019-05-04T16:08:01Z</time>
      </trkpt>
      <trkpt lat="38.732583" lon="-5.675267">
        <ele>1783.0</ele>
        <time>2019-05-04T16:08:02Z</time>
      </trkpt>
      <trkpt lat="38.732617" lon="-5.675167">
        <ele>1783.0</ele>
        <time>2019-05-04T16:08:03Z</time>
      </trkpt>
      <trkpt lat="38.732650" lon="-5.675067">
        <ele>1784.0</ele>
        <time>2019-05-04T16:08:04Z</time>
      </trkpt>
      <trkpt lat="38.732700" lon="-5.674983">
        <ele>1784.0</ele>
        <time>2019-05-04T16:08:05Z</time>
      </trkpt>
      <trkpt lat="38.732733" lon="-5.674917">
        <ele>1784.0</ele>
        <time>2019-05-04T16:08:06Z</time>
      </trkpt>
      <trkpt lat="38.732783" lon="-5.674817">
        <ele>1784.0</ele>
        <time>2019-05-04T16:08:07Z</time>
      </trkpt>
      <trkpt lat="38.732833" lon="-5.674717">
        <ele>1785.0</ele>
        <time>2019-05-04T16:08:08Z</time>
      </trkpt>
      <trkpt lat="38.732883" lon="-5.674600">
        <ele>1785.0</ele>
        <time>2019-05-04T16:08:09Z</time>
      </trkpt>
      <trkpt lat="38.732933" lon="-5.674517">
        <ele>1785.0</ele>
        <time>2019-05-04T16:08:10Z</time>
      </trkpt>
      <trkpt lat="38.732983" lon="-5.674433">
        <ele>1787.0</ele>
        <time>2019-05-04T16:08:11Z</time>
      </trkpt>
      <trkpt lat="38.733017" lon="-5.674350">
        <ele>1788.0</ele>
        <time>2019-05-04T16:08:12Z</time>
      </trkpt>
      <trkpt lat="38.733050" lon="-5.674267">
        <ele>1788.0</ele>
        <time>2019-05-04T16:08:13Z</time>
      </trkpt>
      <trkpt lat="38.733100" lon="-5.674167">
        <ele>1787.0</ele>
        <time>2019-05-04T16:08:14Z</time>
      </trkpt>
      <trkpt lat="38.733133" lon="-5.674050">
        <ele>1787.0</ele>
        <time>2019-05-04T16:08:15Z</time>
      </trkpt>
      <trkpt lat="38.733183" lon="-5.673933">
        <ele>1787.0</ele>
        <time>2019-05-04T16:08:16Z</time>
      </trkpt>
      <trkpt lat="38.733217" lon="-5.673833">
        <ele>1787.0</ele>
        <time>2019-05-04T16:08:17Z</time>
      </trkpt>
      <trkpt lat="38.733267" lon="-5.673750">
        <ele>1787.0</ele>
        <time>2019-05-04T16:08:18Z</time>
      </trkpt>
      <trkpt lat="38.733317" lon="-5.673650">
        <ele>1788.0</ele>
        <time>2019-05-04T16:08:19Z</time>
      </trkpt>
      <trkpt lat="38.733367" lon="-5.673567">
        <ele>1788.0</ele>
        <time>2019-05-04T16:08:20Z</time>
      </trkpt>
      <trkpt lat="38.733417" lon="-5.673467">
        <ele>1789.0</ele>
        <time>2019-05-04T16:08:21Z</time>
      </trkpt>
      <trkpt lat="38.733450" lon="-5.673383">
        <ele>1790.0</ele>
        <time>2019-05-04T16:08:22Z</time>
      </trkpt>
      <trkpt lat="38.733500" lon="-5.673267">
        <ele>1790.0</ele>
        <time>2019-05-04T16:08:23Z</time>
      </trkpt>
      <trkpt lat="38.733533" lon="-5.673167">
        <ele>1790.0</ele>
        <time>2019-05-04T16:08:24Z</time>
      </trkpt>
      <trkpt lat="38.733583" lon="-5.673050">
        <ele>1790.0</ele>
        <time>2019-05-04T16:08:25Z</time>
      </trkpt>
      <trkpt lat="38.733633" lon="-5.672950">
        <ele>1791.0</ele>
        <time>2019-05-04T16:08:26Z</time>
      </trkpt>
      <trkpt lat="38.733683" lon="-5.672850">
        <ele>1793.0</ele>
        <time>2019-05-04T16:08:27Z</time>
      </trkpt>
      <trkpt lat="38.733733" lon="-5.672767">
        <ele>1794.0</ele>
        <time>2019-05-04T16:08:28Z</time>
      </trkpt>
      <trkpt lat="38.733783" lon="-5.672667">
        <ele>1795.0</ele>
        <time>2019-05-04T16:08:29Z</time>
      </trkpt>
      <trkpt lat="38.733850" lon="-5.672583">
        <ele>1796.0</ele>
        <time>2019-05-04T16:08:30Z</time>
      </trkpt>
      <trkpt lat="38.733900" lon="-5.672517">
        <ele>1797.0</ele>
        <time>2019-05-04T16:08:31Z</time>
      </trkpt>
      <trkpt lat="38.733950" lon="-5.672450">
        <ele>1797.0</ele>
        <time>2019-05-04T16:08:32Z</time>
      </trkpt>
      <trkpt lat="38.734000" lon="-5.672400">
        <ele>1798.0</ele>
        <time>2019-05-04T16:08:33Z</time>
      </trkpt>
      <trkpt lat="38.734067" lon="-5.672350">
        <ele>1798.0</ele>
        <time>2019-05-04T16:08:34Z</time>
      </trkpt>
      <trkpt lat="38.734117" lon="-5.672317">
        <ele>1797.0</ele>
        <time>2019-05-04T16:08:35Z</time>
      </trkpt>
      <trkpt lat="38.734183" lon="-5.672267">
        <ele>1795.0</ele>
        <time>2019-05-04T16:08:36Z</time>
      </trkpt>
      <trkpt lat="38.734267" lon="-5.672233">
        <ele>1793.0</ele>
        <time>2019-05-04T16:08:37Z</time>
      </trkpt>
      <trkpt lat="38.734350" lon="-5.672233">
        <ele>1793.0</ele>
        <time>2019-05-04T16:08:38Z</time>
      </trkpt>
      <trkpt lat="38.734417" lon="-5.672250">
        <ele>1793.0</ele>
        <time>2019-05-04T16:08:39Z</time>
      </trkpt>
      <trkpt lat="38.734483" lon="-5.672267">
        <ele>1793.0</ele>
        <time>2019-05-04T16:08:40Z</time>
      </trkpt>
      <trkpt lat="38.734550" lon="-5.672317">
        <ele>1792.0</ele>
        <time>2019-05-04T16:08:41Z</time>
      </trkpt>
      <trkpt lat="38.734617" lon="-5.672367">
        <ele>1792.0</ele>
        <time>2019-05-04T16:08:42Z</time>
      </trkpt>
      <trkpt lat="38.734667" lon="-5.672433">
        <ele>1791.0</ele>
        <time>2019-05-04T16:08:43Z</time>
      </trkpt>
      <trkpt lat="38.734717" lon="-5.672500">
        <ele>1790.0</ele>
        <time>2019-05-04T16:08:44Z</time>
      </trkpt>
      <trkpt lat="38.734750" lon="-5.672583">
        <ele>1790.0</ele>
        <time>2019-05-04T16:08:45Z</time>
      </trkpt>
      <trkpt lat="38.734767" lon="-5.672667">
        <ele>1790.0</ele>
        <time>2019-05-04T16:08:46Z</time>
      </trkpt>
      <trkpt lat="38.734767" lon="-5.672767">
        <ele>1792.0</ele>
        <time>2019-05-04T16:08:47Z</time>
      </trkpt>
      <trkpt lat="38.734767" lon="-5.672867">
        <ele>1793.0</ele>
        <time>2019-05-04T16:08:48Z</time>
      </trkpt>
      <trkpt lat="38.734750" lon="-5.672967">
        <ele>1794.0</ele>
        <time>2019-05-04T16:08:49Z</time>
      </trkpt>
      <trkpt lat="38.734733" lon="-5.673067">
        <ele>1796.0</ele>
        <time>2019-05-04T16:08:50Z</time>
      </trkpt>
      <trkpt lat="38.734700" lon="-5.673183">
        <ele>1797.0</ele>
        <time>2019-05-04T16:08:51Z</time>
      </trkpt>
      <trkpt lat="38.734667" lon="-5.673283">
        <ele>1798.0</ele>
        <time>2019-05-04T16:08:52Z</time>
      </trkpt>
      <trkpt lat="38.734633" lon="-5.673367">
        <ele>1800.0</ele>
        <time>2019-05-04T16:08:53Z</time>
      </trkpt>
      <trkpt lat="38.734583" lon="-5.673450">
        <ele>1801.0</ele>
        <time>2019-05-04T16:08:54Z</time>
      </trkpt>
      <trkpt lat="38.734550" lon="-5.673550">
        <ele>1802.0</ele>
        <time>2019-05-04T16:08:55Z</time>
      </trkpt>
      <trkpt lat="38.734500" lon="-5.673633">
        <ele>1803.0</ele>
        <time>2019-05-04T16:08:56Z</time>
      </trkpt>
      <trkpt lat="38.734467" lon="-5.673733">
        <ele>1804.0</ele>
        <time>2019-05-04T16:08:57Z</time>
      </trkpt>
      <trkpt lat="38.734433" lon="-5.673833">
        <ele>1805.0</ele>
        <time>2019-05-04T16:08:58Z</time>
      </trkpt>
      <trkpt lat="38.734383" lon="-5.673917">
        <ele>1806.0</ele>
        <time>2019-05-04T16:08:59Z</time>
      </trkpt>
      <trkpt lat="38.734317" lon="-5.673983">
        <ele>1808.0</ele>
        <time>2019-05-04T16:09:00Z</time>
      </trkpt>
      <trkpt lat="38.734267" lon="-5.674067">
        <ele>1809.0</ele>
        <time>2019-05-04T16:09:01Z</time>
      </trkpt>
      <trkpt lat="38.734217" lon="-5.674150">
        <ele>1811.0</ele>
        <time>2019-05-04T16:09:02Z</time>
      </trkpt>
      <trkpt lat="38.734150" lon="-5.674233">
        <ele>1812.0</ele>
        <time>2019-05-04T16:09:03Z</time>
      </trkpt>
      <trkpt lat="38.734083" lon="-5.674300">
        <ele>1813.0</ele>
        <time>2019-05-04T16:09:04Z</time>
      </trkpt>
      <trkpt lat="38.734017" lon="-5.674383">
        <ele>1815.0</ele>
        <time>2019-05-04T16:09:05Z</time>
      </trkpt>
      <trkpt lat="38.733933" lon="-5.674450">
        <ele>1817.0</ele>
        <time>2019-05-04T16:09:06Z</time>
      </trkpt>
      <trkpt lat="38.733833" lon="-5.674483">
        <ele>1819.0</ele>
        <time>2019-05-04T16:09:07Z</time>
      </trkpt>
      <trkpt lat="38.733733" lon="-5.674483">
        <ele>1820.0</ele>
        <time>2019-05-04T16:09:08Z</time>
      </trkpt>
      <trkpt lat="38.733633" lon="-5.674450">
        <ele>1821.0</ele>
        <time>2019-05-04T16:09:09Z</time>
      </trkpt>
      <trkpt lat="38.733517" lon="-5.674417">
        <ele>1822.0</ele>
        <time>2019-05-04T16:09:10Z</time>
      </trkpt>
      <trkpt lat="38.733417" lon="-5.674350">
        <ele>1823.0</ele>
        <time>2019-05-04T16:09:11Z</time>
      </trkpt>
      <trkpt lat="38.733350" lon="-5.674267">
        <ele>1826.0</ele>
        <time>2019-05-04T16:09:12Z</time>
      </trkpt>
      <trkpt lat="38.733283" lon="-5.674183">
        <ele>1828.0</ele>
        <time>2019-05-04T16:09:13Z</time>
      </trkpt>
      <trkpt lat="38.733267" lon="-5.674083">
        <ele>1829.0</ele>
        <time>2019-05-04T16:09:14Z</time>
      </trkpt>
      <trkpt lat="38.733250" lon="-5.673967">
        <ele>1831.0</ele>
        <time>2019-05-04T16:09:15Z</time>
      </trkpt>
      <trkpt lat="38.733267" lon="-5.673867">
        <ele>1831.0</ele>
        <time>2019-05-04T16:09:16Z</time>
      </trkpt>
      <trkpt lat="38.733300" lon="-5.673750">
        <ele>1832.0</ele>
        <time>2019-05-04T16:09:17Z</time>
      </trkpt>
      <trkpt lat="38.733350" lon="-5.673667">
        <ele>1833.0</ele>
        <time>2019-05-04T16:09:18Z</time>
      </trkpt>
      <trkpt lat="38.733400" lon="-5.673600">
        <ele>1834.0</ele>
        <time>2019-05-04T16:09:19Z</time>
      </trkpt>
      <trkpt lat="38.733467" lon="-5.673583">
        <ele>1835.0</ele>
        <time>2019-05-04T16:09:20Z</time>
      </trkpt>
      <trkpt lat="38.733517" lon="-5.673567">
        <ele>1836.0</ele>
        <time>2019-05-04T16:09:21Z</time>
      </trkpt>
      <trkpt lat="38.733583" lon="-5.673600">
        <ele>1838.0</ele>
        <time>2019-05-04T16:09:22Z</time>
      </trkpt>
      <trkpt lat="38.733633" lon="-5.673650">
        <ele>1838.0</ele>
        <time>2019-05-04T16:09:23Z</time>
      </trkpt>
      <trkpt lat="38.733683" lon="-5.673717">
        <ele>1839.0</ele>
        <time>2019-05-04T16:09:24Z</time>
      </trkpt>
      <trkpt lat="38.733717" lon="-5.673800">
        <ele>1839.0</ele>
        <time>2019-05-04T16:09:25Z</time>
      </trkpt>
      <trkpt lat="38.733733" lon="-5.673917">
        <ele>1840.0</ele>
        <time>2019-05-04T16:09:26Z</time>
      </trkpt>
      <trkpt lat="38.733717" lon="-5.674033">
        <ele>1843.0</ele>
        <time>2019-05-04T16:09:27Z</time>
      </trkpt>
      <trkpt lat="38.733683" lon="-5.674133">
        <ele>1845.0</ele>
        <time>2019-05-04T16:09:28Z</time>
      </trkpt>
      <trkpt lat="38.733617" lon="-5.674200">
        <ele>1847.0</ele>
        <time>2019-05-04T16:09:29Z</time>
      </trkpt>
      <trkpt lat="38.733550" lon="-5.674267">
        <ele>1849.0</ele>
        <time>2019-05-04T16:09:30Z</time>
      </trkpt>
      <trkpt lat="38.733483" lon="-5.674317">
        <ele>1850.0</ele>
        <time>2019-05-04T16:09:31Z</time>
      </trkpt>
      <trkpt lat="38.733383" lon="-5.674367">
        <ele>1851.0</ele>
        <time>2019-05-04T16:09:32Z</time>
      </trkpt>
      <trkpt lat="38.733283" lon="-5.674383">
        <ele>1852.0</ele>
        <time>2019-05-04T16:09:33Z</time>
      </trkpt>
      <trkpt lat="38.733183" lon="-5.674367">
        <ele>1853.0</ele>
        <time>2019-05-04T16:09:34Z</time>
      </trkpt>
      <trkpt lat="38.733067" lon="-5.674317">
        <ele>1854.0</ele>
        <time>2019-05-04T16:09:35Z</time>
      </trkpt>
      <trkpt lat="38.732983" lon="-5.674250">
        <ele>1854.0</ele>
        <time>2019-05-04T16:09:36Z</time>
      </trkpt>
      <trkpt lat="38.732900" lon="-5.674167">
        <ele>1855.0</ele>
        <time>2019-05-04T16:09:37Z</time>
      </trkpt>
      <trkpt lat="38.732833" lon="-5.674067">
        <ele>1856.0</ele>
        <time>2019-05-04T16:09:38Z</time>
      </trkpt>
      <trkpt lat="38.732800" lon="-5.673967">
        <ele>1858.0</ele>
        <time>2019-05-04T16:09:39Z</time>
      </trkpt>
      <trkpt lat="38.732783" lon="-5.673867">
        <ele>1859.0</ele>
        <time>2019-05-04T16:09:40Z</time>
      </trkpt>
      <trkpt lat="38.732783" lon="-5.673767">
        <ele>1860.0</ele>
        <time>2019-05-04T16:09:41Z</time>
      </trkpt>
      <trkpt lat="38.732800" lon="-5.673667">
        <ele>1861.0</ele>
        <time>2019-05-04T16:09:42Z</time>
      </trkpt>
      <trkpt lat="38.732833" lon="-5.673583">
        <ele>1863.0</ele>
        <time>2019-05-04T16:09:43Z</time>
      </trkpt>
      <trkpt lat="38.732867" lon="-5.673517">
        <ele>1865.0</ele>
        <time>2019-05-04T16:09:44Z</time>
      </trkpt>
      <trkpt lat="38.732917" lon="-5.673483">
        <ele>1866.0</ele>
        <time>2019-05-04T16:09:45Z</time>
      </trkpt>
      <trkpt lat="38.732967" lon="-5.673467">
        <ele>1866.0</ele>
        <time>2019-05-04T16:09:46Z</time>
      </trkpt>
      <trkpt lat="38.733033" lon="-5.673467">
        <ele>1866.0</ele>
        <time>2019-05-04T16:09:47Z</time>
      </trkpt>
      <trkpt lat="38.733117" lon="-5.673500">
        <ele>1866.0</ele>
        <time>2019-05-04T16:09:48Z</time>
      </trkpt>
      <trkpt lat="38.733167" lon="-5.673550">
        <ele>1866.0</ele>
        <time>2019-05-04T16:09:49Z</time>
      </trkpt>
      <trkpt lat="38.733217" lon="-5.673633">
        <ele>1867.0</ele>
        <time>2019-05-04T16:09:50Z</time>
      </trkpt>
      <trkpt lat="38.733250" lon="-5.673717">
        <ele>1869.0</ele>
        <time>2019-05-04T16:09:51Z</time>
      </trkpt>
      <trkpt lat="38.733267" lon="-5.673817">
        <ele>1870.0</ele>
        <time>2019-05-04T16:09:52Z</time>
      </trkpt>
      <trkpt lat="38.733267" lon="-5.673917">
        <ele>1871.0</ele>
        <time>2019-05-04T16:09:53Z</time>
      </trkpt>
      <trkpt lat="38.733267" lon="-5.674033">
        <ele>1871.0</ele>
        <time>2019-05-04T16:09:54Z</time>
      </trkpt>
      <trkpt lat="38.733250" lon="-5.674133">
        <ele>1872.0</ele>
        <time>2019-05-04T16:09:55Z</time>
      </trkpt>
      <trkpt lat="38.733217" lon="-5.674217">
        <ele>1873.0</ele>
        <time>2019-05-04T16:09:56Z</time>
      </trkpt>
      <trkpt lat="38.733167" lon="-5.674300">
        <ele>1874.0</ele>
        <time>2019-05-04T16:09:57Z</time>
      </trkpt>
      <trkpt lat="38.733083" lon="-5.674367">
        <ele>1874.0</ele>
        <time>2019-05-04T16:09:58Z</time>
      </trkpt>
      <trkpt lat="38.733000" lon="-5.674417">
        <ele>1874.0</ele>
        <time>2019-05-04T16:09:59Z</time>
      </trkpt>
      <trkpt lat="38.732917" lon="-5.674433">
        <ele>1874.0</ele>
        <time>2019-05-04T16:10:00Z</time>
      </trkpt>
      <trkpt lat="38.732817" lon="-5.674433">
        <ele>1874.0</ele>
        <time>2019-05-04T16:10:01Z</time>
      </trkpt>
      <trkpt lat="38.732733" lon="-5.674400">
        <ele>1875.0</ele>
        <time>2019-05-04T16:10:02Z</time>
      </trkpt>
      <trkpt lat="38.732650" lon="-5.674350">
        <ele>1875.0</ele>
        <time>2019-05-04T16:10:03Z</time>
      </trkpt>
      <trkpt lat="38.732583" lon="-5.674283">
        <ele>1875.0</ele>
        <time>2019-05-04T16:10:04Z</time>
      </trkpt>
      <trkpt lat="38.732517" lon="-5.674183">
        <ele>1874.0</ele>
        <time>2019-05-04T16:10:05Z</time>
      </trkpt>
      <trkpt lat="38.732467" lon="-5.674083">
        <ele>1873.0</ele>
        <time>2019-05-04T16:10:06Z</time>
      </trkpt>
      <trkpt lat="38.732433" lon="-5.673983">
        <ele>1872.0</ele>
        <time>2019-05-04T16:10:07Z</time>
      </trkpt>
      <trkpt lat="38.732400" lon="-5.673867">
        <ele>1872.0</ele>
        <time>2019-05-04T16:10:08Z</time>
      </trkpt>
      <trkpt lat="38.732383" lon="-5.673767">
        <ele>1872.0</ele>
        <time>2019-05-04T16:10:09Z</time>
      </trkpt>
      <trkpt lat="38.732383" lon="-5.673683">
        <ele>1873.0</ele>
        <time>2019-05-04T16:10:10Z</time>
      </trkpt>
      <trkpt lat="38.732367" lon="-5.673600">
        <ele>1873.0</ele>
        <time>2019-05-04T16:10:11Z</time>
      </trkpt>
      <trkpt lat="38.732367" lon="-5.673500">
        <ele>1872.0</ele>
        <time>2019-05-04T16:10:12Z</time>
      </trkpt>
      <trkpt lat="38.732400" lon="-5.673400">
        <ele>1871.0</ele>
        <time>2019-05-04T16:10:13Z</time>
      </trkpt>
      <trkpt lat="38.732417" lon="-5.673300">
        <ele>1871.0</ele>
        <time>2019-05-04T16:10:14Z</time>
      </trkpt>
      <trkpt lat="38.732467" lon="-5.673217">
        <ele>1874.0</ele>
        <time>2019-05-04T16:10:15Z</time>
      </trkpt>
      <trkpt lat="38.732483" lon="-5.673150">
        <ele>1877.0</ele>
        <time>2019-05-04T16:10:16Z</time>
      </trkpt>
      <trkpt lat="38.732517" lon="-5.673100">
        <ele>1879.0</ele>
        <time>2019-05-04T16:10:17Z</time>
      </trkpt>
      <trkpt lat="38.732533" lon="-5.673033">
        <ele>1880.0</ele>
        <time>2019-05-04T16:10:18Z</time>
      </trkpt>
      <trkpt lat="38.732583" lon="-5.672967">
        <ele>1880.0</ele>
        <time>2019-05-04T16:10:19Z</time>
      </trkpt>
      <trkpt lat="38.732633" lon="-5.672900">
        <ele>1879.0</ele>
        <time>2019-05-04T16:10:20Z</time>
      </trkpt>
      <trkpt lat="38.732700" lon="-5.672883">
        <ele>1879.0</ele>
        <time>2019-05-04T16:10:21Z</time>
      </trkpt>
      <trkpt lat="38.732783" lon="-5.672900">
        <ele>1880.0</ele>
        <time>2019-05-04T16:10:22Z</time>
      </trkpt>
      <trkpt lat="38.732833" lon="-5.672933">
        <ele>1880.0</ele>
        <time>2019-05-04T16:10:23Z</time>
      </trkpt>
      <trkpt lat="38.732900" lon="-5.673000">
        <ele>1881.0</ele>
        <time>2019-05-04T16:10:24Z</time>
      </trkpt>
      <trkpt lat="38.732933" lon="-5.673083">
        <ele>1880.0</ele>
        <time>2019-05-04T16:10:25Z</time>
      </trkpt>
      <trkpt lat="38.732967" lon="-5.673183">
        <ele>1880.0</ele>
        <time>2019-05-04T16:10:26Z</time>
      </trkpt>
      <trkpt lat="38.732967" lon="-5.673300">
        <ele>1880.0</ele>
        <time>2019-05-04T16:10:27Z</time>
      </trkpt>
      <trkpt lat="38.732933" lon="-5.673417">
        <ele>1880.0</ele>
        <time>2019-05-04T16:10:28Z</time>
      </trkpt>
      <trkpt lat="38.732883" lon="-5.673517">
        <ele>1880.0</ele>
        <time>2019-05-04T16:10:29Z</time>
      </trkpt>
      <trkpt lat="38.732817" lon="-5.673600">
        <ele>1880.0</ele>
        <time>2019-05-04T16:10:30Z</time>
      </trkpt>
      <trkpt lat="38.732750" lon="-5.673650">
        <ele>1879.0</ele>
        <time>2019-05-04T16:10:31Z</time>
      </trkpt>
      <trkpt lat="38.732667" lon="-5.673700">
        <ele>1878.0</ele>
        <time>2019-05-04T16:10:32Z</time>
      </trkpt>
      <trkpt lat="38.732583" lon="-5.673733">
        <ele>1876.0</ele>
        <time>2019-05-04T16:10:33Z</time>
      </trkpt>
      <trkpt lat="38.732467" lon="-5.673733">
        <ele>1874.0</ele>
        <time>2019-05-04T16:10:34Z</time>
      </trkpt>
      <trkpt lat="38.732367" lon="-5.673683">
        <ele>1873.0</ele>
        <time>2019-05-04T16:10:35Z</time>
      </trkpt>
      <trkpt lat="38.732283" lon="-5.673617">
        <ele>1871.0</ele>
        <time>2019-05-04T16:10:36Z</time>
      </trkpt>
      <trkpt lat="38.732217" lon="-5.673533">
        <ele>1869.0</ele>
        <time>2019-05-04T16:10:37Z</time>
      </trkpt>
      <trkpt lat="38.732150" lon="-5.673433">
        <ele>1868.0</ele>
        <time>2019-05-04T16:10:38Z</time>
      </trkpt>
      <trkpt lat="38.732117" lon="-5.673317">
        <ele>1867.0</ele>
        <time>2019-05-04T16:10:39Z</time>
      </trkpt>
      <trkpt lat="38.732083" lon="-5.673200">
        <ele>1866.0</ele>
        <time>2019-05-04T16:10:40Z</time>
      </trkpt>
      <trkpt lat="38.732083" lon="-5.673100">
        <ele>1866.0</ele>
        <time>2019-05-04T16:10:41Z</time>
      </trkpt>
      <trkpt lat="38.732067" lon="-5.673000">
        <ele>1865.0</ele>
        <time>2019-05-04T16:10:42Z</time>
      </trkpt>
      <trkpt lat="38.732083" lon="-5.672900">
        <ele>1865.0</ele>
        <time>2019-05-04T16:10:43Z</time>
      </trkpt>
      <trkpt lat="38.732067" lon="-5.672800">
        <ele>1865.0</ele>
        <time>2019-05-04T16:10:44Z</time>
      </trkpt>
      <trkpt lat="38.732083" lon="-5.672700">
        <ele>1865.0</ele>
        <time>2019-05-04T16:10:45Z</time>
      </trkpt>
      <trkpt lat="38.732100" lon="-5.672617">
        <ele>1865.0</ele>
        <time>2019-05-04T16:10:46Z</time>
      </trkpt>
      <trkpt lat="38.732117" lon="-5.672517">
        <ele>1865.0</ele>
        <time>2019-05-04T16:10:47Z</time>
      </trkpt>
      <trkpt lat="38.732133" lon="-5.672433">
        <ele>1865.0</ele>
        <time>2019-05-04T16:10:48Z</time>
      </trkpt>
      <trkpt lat="38.732150" lon="-5.672350">
        <ele>1865.0</ele>
        <time>2019-05-04T16:10:49Z</time>
      </trkpt>
      <trkpt lat="38.732167" lon="-5.672267">
        <ele>1865.0</ele>
        <time>2019-05-04T16:10:50Z</time>
      </trkpt>
      <trkpt lat="38.732183" lon="-5.672183">
        <ele>1864.0</ele>
        <time>2019-05-04T16:10:51Z</time>
      </trkpt>
      <trkpt lat="38.732217" lon="-5.672083">
        <ele>1863.0</ele>
        <time>2019-05-04T16:10:52Z</time>
      </trkpt>
      <trkpt lat="38.732250" lon="-5.672000">
        <ele>1862.0</ele>
        <time>2019-05-04T16:10:53Z</time>
      </trkpt>
      <trkpt lat="38.732283" lon="-5.671917">
        <ele>1862.0</ele>
        <time>2019-05-04T16:10:54Z</time>
      </trkpt>
      <trkpt lat="38.732350" lon="-5.671833">
        <ele>1862.0</ele>
        <time>2019-05-04T16:10:55Z</time>
      </trkpt>
      <trkpt lat="38.732417" lon="-5.671767">
        <ele>1862.0</ele>
        <time>2019-05-04T16:10:56Z</time>
      </trkpt>
      <trkpt lat="38.732483" lon="-5.671700">
        <ele>1863.0</ele>
        <time>2019-05-04T16:10:57Z</time>
      </trkpt>
      <trkpt lat="38.732550" lon="-5.671650">
        <ele>1865.0</ele>
        <time>2019-05-04T16:10:58Z</time>
      </trkpt>
      <trkpt lat="38.732617" lon="-5.671617">
        <ele>1866.0</ele>
        <time>2019-05-04T16:10:59Z</time>
      </trkpt>
      <trkpt lat="38.732683" lon="-5.671583">
        <ele>1867.0</ele>
        <time>2019-05-04T16:11:00Z</time>
      </trkpt>
      <trkpt lat="38.732733" lon="-5.671533">
        <ele>1868.0</ele>
        <time>2019-05-04T16:11:01Z</time>
      </trkpt>
      <trkpt lat="38.732800" lon="-5.671483">
        <ele>1868.0</ele>
        <time>2019-05-04T16:11:02Z</time>
      </trkpt>
      <trkpt lat="38.732867" lon="-5.671433">
        <ele>1869.0</ele>
        <time>2019-05-04T16:11:03Z</time>
      </trkpt>
      <trkpt lat="38.732917" lon="-5.671367">
        <ele>1869.0</ele>
        <time>2019-05-04T16:11:04Z</time>
      </trkpt>
      <trkpt lat="38.732983" lon="-5.671317">
        <ele>1870.0</ele>
        <time>2019-05-04T16:11:05Z</time>
      </trkpt>
      <trkpt lat="38.733050" lon="-5.671250">
        <ele>1871.0</ele>
        <time>2019-05-04T16:11:06Z</time>
      </trkpt>
      <trkpt lat="38.733117" lon="-5.671217">
        <ele>1870.0</ele>
        <time>2019-05-04T16:11:07Z</time>
      </trkpt>
      <trkpt lat="38.733183" lon="-5.671167">
        <ele>1870.0</ele>
        <time>2019-05-04T16:11:08Z</time>
      </trkpt>
      <trkpt lat="38.733250" lon="-5.671117">
        <ele>1870.0</ele>
        <time>2019-05-04T16:11:09Z</time>
      </trkpt>
      <trkpt lat="38.733317" lon="-5.671083">
        <ele>1870.0</ele>
        <time>2019-05-04T16:11:10Z</time>
      </trkpt>
      <trkpt lat="38.733367" lon="-5.671050">
        <ele>1871.0</ele>
        <time>2019-05-04T16:11:11Z</time>
      </trkpt>
      <trkpt lat="38.733417" lon="-5.671017">
        <ele>1872.0</ele>
        <time>2019-05-04T16:11:12Z</time>
      </trkpt>
      <trkpt lat="38.733467" lon="-5.670983">
        <ele>1872.0</ele>
        <time>2019-05-04T16:11:13Z</time>
      </trkpt>
      <trkpt lat="38.733533" lon="-5.670950">
        <ele>1871.0</ele>
        <time>2019-05-04T16:11:14Z</time>
      </trkpt>
      <trkpt lat="38.733583" lon="-5.670933">
        <ele>1871.0</ele>
        <time>2019-05-04T16:11:15Z</time>
      </trkpt>
      <trkpt lat="38.733633" lon="-5.670900">
        <ele>1871.0</ele>
        <time>2019-05-04T16:11:16Z</time>
      </trkpt>
      <trkpt lat="38.733700" lon="-5.670900">
        <ele>1871.0</ele>
        <time>2019-05-04T16:11:17Z</time>
      </trkpt>
      <trkpt lat="38.733750" lon="-5.670900">
        <ele>1870.0</ele>
        <time>2019-05-04T16:11:18Z</time>
      </trkpt>
      <trkpt lat="38.733783" lon="-5.670900">
        <ele>1870.0</ele>
        <time>2019-05-04T16:11:19Z</time>
      </trkpt>
      <trkpt lat="38.733833" lon="-5.670933">
        <ele>1869.0</ele>
        <time>2019-05-04T16:11:20Z</time>
      </trkpt>
      <trkpt lat="38.733883" lon="-5.670967">
        <ele>1869.0</ele>
        <time>2019-05-04T16:11:21Z</time>
      </trkpt>
      <trkpt lat="38.733900" lon="-5.671033">
        <ele>1868.0</ele>
        <time>2019-05-04T16:11:22Z</time>
      </trkpt>
      <trkpt lat="38.733917" lon="-5.671100">
        <ele>1867.0</ele>
        <time>2019-05-04T16:11:23Z</time>
      </trkpt>
      <trkpt lat="38.733917" lon="-5.671200">
        <ele>1867.0</ele>
        <time>2019-05-04T16:11:24Z</time>
      </trkpt>
      <trkpt lat="38.733900" lon="-5.671283">
        <ele>1867.0</ele>
        <time>2019-05-04T16:11:25Z</time>
      </trkpt>
      <trkpt lat="38.733900" lon="-5.671367">
        <ele>1866.0</ele>
        <time>2019-05-04T16:11:26Z</time>
      </trkpt>
      <trkpt lat="38.733883" lon="-5.671433">
        <ele>1865.0</ele>
        <time>2019-05-04T16:11:27Z</time>
      </trkpt>
      <trkpt lat="38.733850" lon="-5.671500">
        <ele>1863.0</ele>
        <time>2019-05-04T16:11:28Z</time>
      </trkpt>
      <trkpt lat="38.733817" lon="-5.671583">
        <ele>1861.0</ele>
        <time>2019-05-04T16:11:29Z</time>
      </trkpt>
      <trkpt lat="38.733750" lon="-5.671650">
        <ele>1858.0</ele>
        <time>2019-05-04T16:11:30Z</time>
      </trkpt>
      <trkpt lat="38.733667" lon="-5.671717">
        <ele>1856.0</ele>
        <time>2019-05-04T16:11:31Z</time>
      </trkpt>
      <trkpt lat="38.733583" lon="-5.671733">
        <ele>1855.0</ele>
        <time>2019-05-04T16:11:32Z</time>
      </trkpt>
      <trkpt lat="38.733500" lon="-5.671733">
        <ele>1855.0</ele>
        <time>2019-05-04T16:11:33Z</time>
      </trkpt>
      <trkpt lat="38.733417" lon="-5.671700">
        <ele>1854.0</ele>
        <time>2019-05-04T16:11:34Z</time>
      </trkpt>
      <trkpt lat="38.733350" lon="-5.671667">
        <ele>1854.0</ele>
        <time>2019-05-04T16:11:35Z</time>
      </trkpt>
      <trkpt lat="38.733267" lon="-5.671617">
        <ele>1852.0</ele>
        <time>2019-05-04T16:11:36Z</time>
      </trkpt>
      <trkpt lat="38.733167" lon="-5.671567">
        <ele>1851.0</ele>
        <time>2019-05-04T16:11:37Z</time>
      </trkpt>
      <trkpt lat="38.733067" lon="-5.671517">
        <ele>1849.0</ele>
        <time>2019-05-04T16:11:38Z</time>
      </trkpt>
      <trkpt lat="38.732967" lon="-5.671433">
        <ele>1848.0</ele>
        <time>2019-05-04T16:11:39Z</time>
      </trkpt>
      <trkpt lat="38.732883" lon="-5.671350">
        <ele>1847.0</ele>
        <time>2019-05-04T16:11:40Z</time>
      </trkpt>
      <trkpt lat="38.732800" lon="-5.671250">
        <ele>1846.0</ele>
        <time>2019-05-04T16:11:41Z</time>
      </trkpt>
      <trkpt lat="38.732717" lon="-5.671167">
        <ele>1845.0</ele>
        <time>2019-05-04T16:11:42Z</time>
      </trkpt>
      <trkpt lat="38.732633" lon="-5.671083">
        <ele>1844.0</ele>
        <time>2019-05-04T16:11:43Z</time>
      </trkpt>
      <trkpt lat="38.732550" lon="-5.670983">
        <ele>1842.0</ele>
        <time>2019-05-04T16:11:44Z</time>
      </trkpt>
      <trkpt lat="38.732467" lon="-5.670883">
        <ele>1841.0</ele>
        <time>2019-05-04T16:11:45Z</time>
      </trkpt>
      <trkpt lat="38.732383" lon="-5.670767">
        <ele>1840.0</ele>
        <time>2019-05-04T16:11:46Z</time>
      </trkpt>
      <trkpt lat="38.732317" lon="-5.670683">
        <ele>1841.0</ele>
        <time>2019-05-04T16:11:47Z</time>
      </trkpt>
      <trkpt lat="38.732250" lon="-5.670600">
        <ele>1841.0</ele>
        <time>2019-05-04T16:11:48Z</time>
      </trkpt>
      <trkpt lat="38.732183" lon="-5.670500">
        <ele>1840.0</ele>
        <time>2019-05-04T16:11:49Z</time>
      </trkpt>
      <trkpt lat="38.732100" lon="-5.670400">
        <ele>1840.0</ele>
        <time>2019-05-04T16:11:50Z</time>
      </trkpt>
      <trkpt lat="38.732000" lon="-5.670333">
        <ele>1839.0</ele>
        <time>2019-05-04T16:11:51Z</time>
      </trkpt>
      <trkpt lat="38.731900" lon="-5.670300">
        <ele>1841.0</ele>
        <time>2019-05-04T16:11:52Z</time>
      </trkpt>
      <trkpt lat="38.731800" lon="-5.670300">
        <ele>1841.0</ele>
        <time>2019-05-04T16:11:53Z</time>
      </trkpt>
      <trkpt lat="38.731717" lon="-5.670333">
        <ele>1842.0</ele>
        <time>2019-05-04T16:11:54Z</time>
      </trkpt>
      <trkpt lat="38.731633" lon="-5.670367">
        <ele>1842.0</ele>
        <time>2019-05-04T16:11:55Z</time>
      </trkpt>
      <trkpt lat="38.731567" lon="-5.670433">
        <ele>1843.0</ele>
        <time>2019-05-04T16:11:56Z</time>
      </trkpt>
      <trkpt lat="38.731533" lon="-5.670500">
        <ele>1843.0</ele>
        <time>2019-05-04T16:11:57Z</time>
      </trkpt>
      <trkpt lat="38.731517" lon="-5.670583">
        <ele>1844.0</ele>
        <time>2019-05-04T16:11:58Z</time>
      </trkpt>
      <trkpt lat="38.731517" lon="-5.670667">
        <ele>1844.0</ele>
        <time>2019-05-04T16:11:59Z</time>
      </trkpt>
      <trkpt lat="38.731550" lon="-5.670750">
        <ele>1844.0</ele>
        <time>2019-05-04T16:12:00Z</time>
      </trkpt>
      <trkpt lat="38.731617" lon="-5.670783">
        <ele>1844.0</ele>
        <time>2019-05-04T16:12:01Z</time>
      </trkpt>
      <trkpt lat="38.731700" lon="-5.670800">
        <ele>1845.0</ele>
        <time>2019-05-04T16:12:02Z</time>
      </trkpt>
      <trkpt lat="38.731767" lon="-5.670800">
        <ele>1845.0</ele>
        <time>2019-05-04T16:12:03Z</time>
      </trkpt>
      <trkpt lat="38.731833" lon="-5.670750">
        <ele>1845.0</ele>
        <time>2019-05-04T16:12:04Z</time>
      </trkpt>
      <trkpt lat="38.731900" lon="-5.670683">
        <ele>1846.0</ele>
        <time>2019-05-04T16:12:05Z</time>
      </trkpt>
      <trkpt lat="38.731950" lon="-5.670600">
        <ele>1846.0</ele>
        <time>2019-05-04T16:12:06Z</time>
      </trkpt>
      <trkpt lat="38.731983" lon="-5.670517">
        <ele>1845.0</ele>
        <time>2019-05-04T16:12:07Z</time>
      </trkpt>
      <trkpt lat="38.732000" lon="-5.670400">
        <ele>1845.0</ele>
        <time>2019-05-04T16:12:08Z</time>
      </trkpt>
      <trkpt lat="38.732000" lon="-5.670300">
        <ele>1844.0</ele>
        <time>2019-05-04T16:12:09Z</time>
      </trkpt>
      <trkpt lat="38.731983" lon="-5.670183">
        <ele>1844.0</ele>
        <time>2019-05-04T16:12:10Z</time>
      </trkpt>
      <trkpt lat="38.731950" lon="-5.670050">
        <ele>1842.0</ele>
        <time>2019-05-04T16:12:11Z</time>
      </trkpt>
      <trkpt lat="38.731917" lon="-5.669933">
        <ele>1841.0</ele>
        <time>2019-05-04T16:12:12Z</time>
      </trkpt>
      <trkpt lat="38.731883" lon="-5.669800">
        <ele>1839.0</ele>
        <time>2019-05-04T16:12:13Z</time>
      </trkpt>
      <trkpt lat="38.731867" lon="-5.669650">
        <ele>1838.0</ele>
        <time>2019-05-04T16:12:14Z</time>
      </trkpt>
      <trkpt lat="38.731833" lon="-5.669517">
        <ele>1839.0</ele>
        <time>2019-05-04T16:12:15Z</time>
      </trkpt>
      <trkpt lat="38.731800" lon="-5.669383">
        <ele>1840.0</ele>
        <time>2019-05-04T16:12:16Z</time>
      </trkpt>
      <trkpt lat="38.731767" lon="-5.669267">
        <ele>1841.0</ele>
        <time>2019-05-04T16:12:17Z</time>
      </trkpt>
      <trkpt lat="38.731750" lon="-5.669150">
        <ele>1841.0</ele>
        <time>2019-05-04T16:12:18Z</time>
      </trkpt>
      <trkpt lat="38.731733" lon="-5.669017">
        <ele>1841.0</ele>
        <time>2019-05-04T16:12:19Z</time>
      </trkpt>
      <trkpt lat="38.731733" lon="-5.668883">
        <ele>1841.0</ele>
        <time>2019-05-04T16:12:20Z</time>
      </trkpt>
      <trkpt lat="38.731733" lon="-5.668733">
        <ele>1841.0</ele>
        <time>2019-05-04T16:12:21Z</time>
      </trkpt>
      <trkpt lat="38.731717" lon="-5.668583">
        <ele>1841.0</ele>
        <time>2019-05-04T16:12:22Z</time>
      </trkpt>
      <trkpt lat="38.731700" lon="-5.668450">
        <ele>1842.0</ele>
        <time>2019-05-04T16:12:23Z</time>
      </trkpt>
      <trkpt lat="38.731683" lon="-5.668317">
        <ele>1842.0</ele>
        <time>2019-05-04T16:12:24Z</time>
      </trkpt>
      <trkpt lat="38.731683" lon="-5.668183">
        <ele>1843.0</ele>
        <time>2019-05-04T16:12:25Z</time>
      </trkpt>
      <trkpt lat="38.731683" lon="-5.668050">
        <ele>1842.0</ele>
        <time>2019-05-04T16:12:26Z</time>
      </trkpt>
      <trkpt lat="38.731683" lon="-5.667900">
        <ele>1841.0</ele>
        <time>2019-05-04T16:12:27Z</time>
      </trkpt>
      <trkpt lat="38.731683" lon="-5.667750">
        <ele>1841.0</ele>
        <time>2019-05-04T16:12:28Z</time>
      </trkpt>
      <trkpt lat="38.731683" lon="-5.667617">
        <ele>1842.0</ele>
        <time>2019-05-04T16:12:29Z</time>
      </trkpt>
      <trkpt lat="38.731667" lon="-5.667467">
        <ele>1842.0</ele>
        <time>2019-05-04T16:12:30Z</time>
      </trkpt>
      <trkpt lat="38.731667" lon="-5.667333">
        <ele>1842.0</ele>
        <time>2019-05-04T16:12:31Z</time>
      </trkpt>
      <trkpt lat="38.731683" lon="-5.667183">
        <ele>1842.0</ele>
        <time>2019-05-04T16:12:32Z</time>
      </trkpt>
      <trkpt lat="38.731667" lon="-5.667050">
        <ele>1842.0</ele>
        <time>2019-05-04T16:12:33Z</time>
      </trkpt>
      <trkpt lat="38.731667" lon="-5.666900">
        <ele>1842.0</ele>
        <time>2019-05-04T16:12:34Z</time>
      </trkpt>
      <trkpt lat="38.731667" lon="-5.666750">
        <ele>1841.0</ele>
        <time>2019-05-04T16:12:35Z</time>
      </trkpt>
      <trkpt lat="38.731667" lon="-5.666600">
        <ele>1842.0</ele>
        <time>2019-05-04T16:12:36Z</time>
      </trkpt>
      <trkpt lat="38.731667" lon="-5.666450">
        <ele>1842.0</ele>
        <time>2019-05-04T16:12:37Z</time>
      </trkpt>
      <trkpt lat="38.731650" lon="-5.666317">
        <ele>1842.0</ele>
        <time>2019-05-04T16:12:38Z</time>
      </trkpt>
      <trkpt lat="38.731633" lon="-5.666167">
        <ele>1844.0</ele>
        <time>2019-05-04T16:12:39Z</time>
      </trkpt>
      <trkpt lat="38.731633" lon="-5.666033">
        <ele>1844.0</ele>
        <time>2019-05-04T16:12:40Z</time>
      </trkpt>
      <trkpt lat="38.731617" lon="-5.665883">
        <ele>1845.0</ele>
        <time>2019-05-04T16:12:41Z</time>
      </trkpt>
      <trkpt lat="38.731617" lon="-5.665733">
        <ele>1846.0</ele>
        <time>2019-05-04T16:12:42Z</time>
      </trkpt>
      <trkpt lat="38.731600" lon="-5.665583">
        <ele>1848.0</ele>
        <time>2019-05-04T16:12:43Z</time>
      </trkpt>
      <trkpt lat="38.731583" lon="-5.665467">
        <ele>1850.0</ele>
        <time>2019-05-04T16:12:44Z</time>
      </trkpt>
      <trkpt lat="38.731550" lon="-5.665333">
        <ele>1851.0</ele>
        <time>2019-05-04T16:12:45Z</time>
      </trkpt>
      <trkpt lat="38.731533" lon="-5.665200">
        <ele>1851.0</ele>
        <time>2019-05-04T16:12:46Z</time>
      </trkpt>
      <trkpt lat="38.731533" lon="-5.665050">
        <ele>1852.0</ele>
        <time>2019-05-04T16:12:47Z</time>
      </trkpt>
      <trkpt lat="38.731517" lon="-5.664883">
        <ele>1852.0</ele>
        <time>2019-05-04T16:12:48Z</time>
      </trkpt>
      <trkpt lat="38.731517" lon="-5.664733">
        <ele>1852.0</ele>
        <time>2019-05-04T16:12:49Z</time>
      </trkpt>
      <trkpt lat="38.731517" lon="-5.664583">
        <ele>1853.0</ele>
        <time>2019-05-04T16:12:50Z</time>
      </trkpt>
      <trkpt lat="38.731500" lon="-5.664467">
        <ele>1855.0</ele>
        <time>2019-05-04T16:12:51Z</time>
      </trkpt>
      <trkpt lat="38.731500" lon="-5.664350">
        <ele>1856.0</ele>
        <time>2019-05-04T16:12:52Z</time>
      </trkpt>
      <trkpt lat="38.731483" lon="-5.664250">
        <ele>1857.0</ele>
        <time>2019-05-04T16:12:53Z</time>
      </trkpt>
      <trkpt lat="38.731467" lon="-5.664133">
        <ele>1858.0</ele>
        <time>2019-05-04T16:12:54Z</time>
      </trkpt>
      <trkpt lat="38.731450" lon="-5.664000">
        <ele>1858.0</ele>
        <time>2019-05-04T16:12:55Z</time>
      </trkpt>
      <trkpt lat="38.731450" lon="-5.663867">
        <ele>1858.0</ele>
        <time>2019-05-04T16:12:56Z</time>
      </trkpt>
      <trkpt lat="38.731433" lon="-5.663733">
        <ele>1858.0</ele>
        <time>2019-05-04T16:12:57Z</time>
      </trkpt>
      <trkpt lat="38.731433" lon="-5.663583">
        <ele>1857.0</ele>
        <time>2019-05-04T16:12:58Z</time>
      </trkpt>
      <trkpt lat="38.731433" lon="-5.663433">
        <ele>1857.0</ele>
        <time>2019-05-04T16:12:59Z</time>
      </trkpt>
      <trkpt lat="38.731417" lon="-5.663300">
        <ele>1857.0</ele>
        <time>2019-05-04T16:13:00Z</time>
      </trkpt>
      <trkpt lat="38.731417" lon="-5.663150">
        <ele>1855.0</ele>
        <time>2019-05-04T16:13:01Z</time>
      </trkpt>
      <trkpt lat="38.731417" lon="-5.663033">
        <ele>1852.0</ele>
        <time>2019-05-04T16:13:02Z</time>
      </trkpt>
      <trkpt lat="38.731417" lon="-5.662917">
        <ele>1850.0</ele>
        <time>2019-05-04T16:13:03Z</time>
      </trkpt>
      <trkpt lat="38.731417" lon="-5.662817">
        <ele>1849.0</ele>
        <time>2019-05-04T16:13:04Z</time>
      </trkpt>
      <trkpt lat="38.731417" lon="-5.662683">
        <ele>1848.0</ele>
        <time>2019-05-04T16:13:05Z</time>
      </trkpt>
      <trkpt lat="38.731417" lon="-5.662567">
        <ele>1846.0</ele>
        <time>2019-05-04T16:13:06Z</time>
      </trkpt>
      <trkpt lat="38.731433" lon="-5.662417">
        <ele>1844.0</ele>
        <time>2019-05-04T16:13:07Z</time>
      </trkpt>
      <trkpt lat="38.731433" lon="-5.662283">
        <ele>1841.0</ele>
        <time>2019-05-04T16:13:08Z</time>
      </trkpt>
      <trkpt lat="38.731433" lon="-5.662150">
        <ele>1839.0</ele>
        <time>2019-05-04T16:13:09Z</time>
      </trkpt>
      <trkpt lat="38.731433" lon="-5.662033">
        <ele>1836.0</ele>
        <time>2019-05-04T16:13:10Z</time>
      </trkpt>
      <trkpt lat="38.731433" lon="-5.661917">
        <ele>1835.0</ele>
        <time>2019-05-04T16:13:11Z</time>
      </trkpt>
      <trkpt lat="38.731417" lon="-5.661783">
        <ele>1832.0</ele>
        <time>2019-05-04T16:13:12Z</time>
      </trkpt>
      <trkpt lat="38.731400" lon="-5.661633">
        <ele>1830.0</ele>
        <time>2019-05-04T16:13:13Z</time>
      </trkpt>
      <trkpt lat="38.731400" lon="-5.661467">
        <ele>1827.0</ele>
        <time>2019-05-04T16:13:14Z</time>
      </trkpt>
      <trkpt lat="38.731400" lon="-5.661317">
        <ele>1825.0</ele>
        <time>2019-05-04T16:13:15Z</time>
      </trkpt>
      <trkpt lat="38.731400" lon="-5.661167">
        <ele>1823.0</ele>
        <time>2019-05-04T16:13:16Z</time>
      </trkpt>
      <trkpt lat="38.731383" lon="-5.661017">
        <ele>1821.0</ele>
        <time>2019-05-04T16:13:17Z</time>
      </trkpt>
      <trkpt lat="38.731383" lon="-5.660900">
        <ele>1821.0</ele>
        <time>2019-05-04T16:13:18Z</time>
      </trkpt>
      <trkpt lat="38.731383" lon="-5.660783">
        <ele>1821.0</ele>
        <time>2019-05-04T16:13:19Z</time>
      </trkpt>
      <trkpt lat="38.731367" lon="-5.660650">
        <ele>1820.0</ele>
        <time>2019-05-04T16:13:20Z</time>
      </trkpt>
      <trkpt lat="38.731367" lon="-5.660533">
        <ele>1818.0</ele>
        <time>2019-05-04T16:13:21Z</time>
      </trkpt>
      <trkpt lat="38.731367" lon="-5.660400">
        <ele>1817.0</ele>
        <time>2019-05-04T16:13:22Z</time>
      </trkpt>
      <trkpt lat="38.731350" lon="-5.660267">
        <ele>1815.0</ele>
        <time>2019-05-04T16:13:23Z</time>
      </trkpt>
      <trkpt lat="38.731350" lon="-5.660150">
        <ele>1813.0</ele>
        <time>2019-05-04T16:13:24Z</time>
      </trkpt>
      <trkpt lat="38.731333" lon="-5.660033">
        <ele>1811.0</ele>
        <time>2019-05-04T16:13:25Z</time>
      </trkpt>
      <trkpt lat="38.731333" lon="-5.659917">
        <ele>1809.0</ele>
        <time>2019-05-04T16:13:26Z</time>
      </trkpt>
      <trkpt lat="38.731317" lon="-5.659800">
        <ele>1806.0</ele>
        <time>2019-05-04T16:13:27Z</time>
      </trkpt>
      <trkpt lat="38.731283" lon="-5.659683">
        <ele>1804.0</ele>
        <time>2019-05-04T16:13:28Z</time>
      </trkpt>
      <trkpt lat="38.731250" lon="-5.659550">
        <ele>1801.0</ele>
        <time>2019-05-04T16:13:29Z</time>
      </trkpt>
      <trkpt lat="38.731217" lon="-5.659417">
        <ele>1799.0</ele>
        <time>2019-05-04T16:13:30Z</time>
      </trkpt>
      <trkpt lat="38.731183" lon="-5.659367">
        <ele>1797.0</ele>
        <time>2019-05-04T16:13:31Z</time>
      </trkpt>
      <trkpt lat="38.731117" lon="-5.658833">
        <ele>0.0</ele>
        <time>2019-05-04T16:13:35Z</time>
      </trkpt>
      <trkpt lat="38.731117" lon="-5.658700">
        <ele>1796.0</ele>
        <time>2019-05-04T16:13:36Z</time>
      </trkpt>
      <trkpt lat="38.731117" lon="-5.658583">
        <ele>1792.0</ele>
        <time>2019-05-04T16:13:37Z</time>
      </trkpt>
      <trkpt lat="38.731117" lon="-5.658467">
        <ele>1789.0</ele>
        <time>2019-05-04T16:13:38Z</time>
      </trkpt>
      <trkpt lat="38.731117" lon="-5.658233">
        <ele>0.0</ele>
        <time>2019-05-04T16:13:40Z</time>
      </trkpt>
      <trkpt lat="38.731133" lon="-5.658067">
        <ele>1785.0</ele>
        <time>2019-05-04T16:13:41Z</time>
      </trkpt>
      <trkpt lat="38.731133" lon="-5.657933">
        <ele>1782.0</ele>
        <time>2019-05-04T16:13:42Z</time>
      </trkpt>
      <trkpt lat="38.731150" lon="-5.657800">
        <ele>1780.0</ele>
        <time>2019-05-04T16:13:43Z</time>
      </trkpt>
      <trkpt lat="38.731167" lon="-5.657633">
        <ele>1776.0</ele>
        <time>2019-05-04T16:13:44Z</time>
      </trkpt>
      <trkpt lat="38.731183" lon="-5.657500">
        <ele>1769.0</ele>
        <time>2019-05-04T16:13:45Z</time>
      </trkpt>
      <trkpt lat="38.731183" lon="-5.657350">
        <ele>1765.0</ele>
        <time>2019-05-04T16:13:46Z</time>
      </trkpt>
      <trkpt lat="38.731183" lon="-5.657217">
        <ele>1760.0</ele>
        <time>2019-05-04T16:13:47Z</time>
      </trkpt>
      <trkpt lat="38.731200" lon="-5.657083">
        <ele>1755.0</ele>
        <time>2019-05-04T16:13:48Z</time>
      </trkpt>
      <trkpt lat="38.731150" lon="-5.656817">
        <ele>0.0</ele>
        <time>2019-05-04T16:13:50Z</time>
      </trkpt>
      <trkpt lat="38.731117" lon="-5.656683">
        <ele>1748.0</ele>
        <time>2019-05-04T16:13:51Z</time>
      </trkpt>
      <trkpt lat="38.731100" lon="-5.656550">
        <ele>1745.0</ele>
        <time>2019-05-04T16:13:52Z</time>
      </trkpt>
      <trkpt lat="38.731083" lon="-5.656417">
        <ele>1741.0</ele>
        <time>2019-05-04T16:13:53Z</time>
      </trkpt>
      <trkpt lat="38.731067" lon="-5.656283">
        <ele>1738.0</ele>
        <time>2019-05-04T16:13:54Z</time>
      </trkpt>
      <trkpt lat="38.731033" lon="-5.656150">
        <ele>1734.0</ele>
        <time>2019-05-04T16:13:55Z</time>
      </trkpt>
      <trkpt lat="38.731017" lon="-5.656000">
        <ele>1731.0</ele>
        <time>2019-05-04T16:13:56Z</time>
      </trkpt>
      <trkpt lat="38.730983" lon="-5.655867">
        <ele>1728.0</ele>
        <time>2019-05-04T16:13:57Z</time>
      </trkpt>
      <trkpt lat="38.730950" lon="-5.655733">
        <ele>1725.0</ele>
        <time>2019-05-04T16:13:58Z</time>
      </trkpt>
      <trkpt lat="38.730917" lon="-5.655600">
        <ele>1723.0</ele>
        <time>2019-05-04T16:13:59Z</time>
      </trkpt>
      <trkpt lat="38.730867" lon="-5.655483">
        <ele>1720.0</ele>
        <time>2019-05-04T16:14:00Z</time>
      </trkpt>
      <trkpt lat="38.730833" lon="-5.655350">
        <ele>1718.0</ele>
        <time>2019-05-04T16:14:01Z</time>
      </trkpt>
      <trkpt lat="38.730783" lon="-5.655217">
        <ele>1715.0</ele>
        <time>2019-05-04T16:14:02Z</time>
      </trkpt>
      <trkpt lat="38.730733" lon="-5.655083">
        <ele>1712.0</ele>
        <time>2019-05-04T16:14:03Z</time>
      </trkpt>
      <trkpt lat="38.730683" lon="-5.654967">
        <ele>1710.0</ele>
        <time>2019-05-04T16:14:04Z</time>
      </trkpt>
      <trkpt lat="38.730633" lon="-5.654850">
        <ele>1707.0</ele>
        <time>2019-05-04T16:14:05Z</time>
      </trkpt>
      <trkpt lat="38.730567" lon="-5.654733">
        <ele>1704.0</ele>
        <time>2019-05-04T16:14:06Z</time>
      </trkpt>
      <trkpt lat="38.730500" lon="-5.654617">
        <ele>1701.0</ele>
        <time>2019-05-04T16:14:07Z</time>
      </trkpt>
      <trkpt lat="38.730433" lon="-5.654500">
        <ele>1699.0</ele>
        <time>2019-05-04T16:14:08Z</time>
      </trkpt>
      <trkpt lat="38.730367" lon="-5.654400">
        <ele>1696.0</ele>
        <time>2019-05-04T16:14:09Z</time>
      </trkpt>
      <trkpt lat="38.730300" lon="-5.654283">
        <ele>1694.0</ele>
        <time>2019-05-04T16:14:10Z</time>
      </trkpt>
      <trkpt lat="38.730233" lon="-5.654167">
        <ele>1691.0</ele>
        <time>2019-05-04T16:14:11Z</time>
      </trkpt>
      <trkpt lat="38.730183" lon="-5.654050">
        <ele>1688.0</ele>
        <time>2019-05-04T16:14:12Z</time>
      </trkpt>
      <trkpt lat="38.730117" lon="-5.653933">
        <ele>1685.0</ele>
        <time>2019-05-04T16:14:13Z</time>
      </trkpt>
      <trkpt lat="38.730067" lon="-5.653817">
        <ele>1681.0</ele>
        <time>2019-05-04T16:14:14Z</time>
      </trkpt>
      <trkpt lat="38.730017" lon="-5.653683">
        <ele>1678.0</ele>
        <time>2019-05-04T16:14:15Z</time>
      </trkpt>
      <trkpt lat="38.729967" lon="-5.653567">
        <ele>1675.0</ele>
        <time>2019-05-04T16:14:16Z</time>
      </trkpt>
      <trkpt lat="38.729933" lon="-5.653433">
        <ele>1671.0</ele>
        <time>2019-05-04T16:14:17Z</time>
      </trkpt>
      <trkpt lat="38.729900" lon="-5.653300">
        <ele>1668.0</ele>
        <time>2019-05-04T16:14:18Z</time>
      </trkpt>
      <trkpt lat="38.729867" lon="-5.653167">
        <ele>1665.0</ele>
        <time>2019-05-04T16:14:19Z</time>
      </trkpt>
      <trkpt lat="38.729833" lon="-5.653033">
        <ele>1661.0</ele>
        <time>2019-05-04T16:14:20Z</time>
      </trkpt>
      <trkpt lat="38.729817" lon="-5.652900">
        <ele>1658.0</ele>
        <time>2019-05-04T16:14:21Z</time>
      </trkpt>
      <trkpt lat="38.729800" lon="-5.652767">
        <ele>1655.0</ele>
        <time>2019-05-04T16:14:22Z</time>
      </trkpt>
      <trkpt lat="38.729783" lon="-5.652633">
        <ele>1651.0</ele>
        <time>2019-05-04T16:14:23Z</time>
      </trkpt>
      <trkpt lat="38.729767" lon="-5.652500">
        <ele>1648.0</ele>
        <time>2019-05-04T16:14:24Z</time>
      </trkpt>
      <trkpt lat="38.729750" lon="-5.652350">
        <ele>1644.0</ele>
        <time>2019-05-04T16:14:25Z</time>
      </trkpt>
      <trkpt lat="38.729733" lon="-5.652217">
        <ele>1641.0</ele>
        <time>2019-05-04T16:14:26Z</time>
      </trkpt>
      <trkpt lat="38.729733" lon="-5.652083">
        <ele>1637.0</ele>
        <time>2019-05-04T16:14:27Z</time>
      </trkpt>
      <trkpt lat="38.729700" lon="-5.651950">
        <ele>1634.0</ele>
        <time>2019-05-04T16:14:28Z</time>
      </trkpt>
      <trkpt lat="38.729683" lon="-5.651817">
        <ele>1632.0</ele>
        <time>2019-05-04T16:14:29Z</time>
      </trkpt>
      <trkpt lat="38.729667" lon="-5.651683">
        <ele>1629.0</ele>
        <time>2019-05-04T16:14:30Z</time>
      </trkpt>
      <trkpt lat="38.729650" lon="-5.651533">
        <ele>1626.0</ele>
        <time>2019-05-04T16:14:31Z</time>
      </trkpt>
      <trkpt lat="38.729633" lon="-5.651400">
        <ele>1622.0</ele>
        <time>2019-05-04T16:14:32Z</time>
      </trkpt>
      <trkpt lat="38.729617" lon="-5.651267">
        <ele>1620.0</ele>
        <time>2019-05-04T16:14:33Z</time>
      </trkpt>
      <trkpt lat="38.729583" lon="-5.651133">
        <ele>1617.0</ele>
        <time>2019-05-04T16:14:34Z</time>
      </trkpt>
      <trkpt lat="38.729567" lon="-5.651000">
        <ele>1614.0</ele>
        <time>2019-05-04T16:14:35Z</time>
      </trkpt>
      <trkpt lat="38.729550" lon="-5.650867">
        <ele>1611.0</ele>
        <time>2019-05-04T16:14:36Z</time>
      </trkpt>
      <trkpt lat="38.729517" lon="-5.650733">
        <ele>1607.0</ele>
        <time>2019-05-04T16:14:37Z</time>
      </trkpt>
      <trkpt lat="38.729500" lon="-5.650600">
        <ele>1604.0</ele>
        <time>2019-05-04T16:14:38Z</time>
      </trkpt>
      <trkpt lat="38.729483" lon="-5.650467">
        <ele>1601.0</ele>
        <time>2019-05-04T16:14:39Z</time>
      </trkpt>
      <trkpt lat="38.729467" lon="-5.650333">
        <ele>1598.0</ele>
        <time>2019-05-04T16:14:40Z</time>
      </trkpt>
      <trkpt lat="38.729450" lon="-5.650200">
        <ele>1595.0</ele>
        <time>2019-05-04T16:14:41Z</time>
      </trkpt>
      <trkpt lat="38.729433" lon="-5.650067">
        <ele>1593.0</ele>
        <time>2019-05-04T16:14:42Z</time>
      </trkpt>
      <trkpt lat="38.729417" lon="-5.649950">
        <ele>1590.0</ele>
        <time>2019-05-04T16:14:43Z</time>
      </trkpt>
      <trkpt lat="38.729400" lon="-5.649817">
        <ele>1587.0</ele>
        <time>2019-05-04T16:14:44Z</time>
      </trkpt>
      <trkpt lat="38.729383" lon="-5.649683">
        <ele>1585.0</ele>
        <time>2019-05-04T16:14:45Z</time>
      </trkpt>
      <trkpt lat="38.729367" lon="-5.649550">
        <ele>1581.0</ele>
        <time>2019-05-04T16:14:46Z</time>
      </trkpt>
      <trkpt lat="38.729333" lon="-5.649417">
        <ele>1578.0</ele>
        <time>2019-05-04T16:14:47Z</time>
      </trkpt>
      <trkpt lat="38.729317" lon="-5.649283">
        <ele>1575.0</ele>
        <time>2019-05-04T16:14:48Z</time>
      </trkpt>
      <trkpt lat="38.729317" lon="-5.649150">
        <ele>1573.0</ele>
        <time>2019-05-04T16:14:49Z</time>
      </trkpt>
      <trkpt lat="38.729300" lon="-5.649017">
        <ele>1570.0</ele>
        <time>2019-05-04T16:14:50Z</time>
      </trkpt>
      <trkpt lat="38.729283" lon="-5.648900">
        <ele>1567.0</ele>
        <time>2019-05-04T16:14:51Z</time>
      </trkpt>
      <trkpt lat="38.729267" lon="-5.648767">
        <ele>1565.0</ele>
        <time>2019-05-04T16:14:52Z</time>
      </trkpt>
      <trkpt lat="38.729233" lon="-5.648617">
        <ele>1562.0</ele>
        <time>2019-05-04T16:14:53Z</time>
      </trkpt>
      <trkpt lat="38.729217" lon="-5.648483">
        <ele>1560.0</ele>
        <time>2019-05-04T16:14:54Z</time>
      </trkpt>
      <trkpt lat="38.729200" lon="-5.648350">
        <ele>1557.0</ele>
        <time>2019-05-04T16:14:55Z</time>
      </trkpt>
      <trkpt lat="38.729183" lon="-5.648200">
        <ele>1555.0</ele>
        <time>2019-05-04T16:14:56Z</time>
      </trkpt>
      <trkpt lat="38.729167" lon="-5.648067">
        <ele>1553.0</ele>
        <time>2019-05-04T16:14:57Z</time>
      </trkpt>
      <trkpt lat="38.729150" lon="-5.647917">
        <ele>1551.0</ele>
        <time>2019-05-04T16:14:58Z</time>
      </trkpt>
      <trkpt lat="38.729117" lon="-5.647767">
        <ele>1550.0</ele>
        <time>2019-05-04T16:14:59Z</time>
      </trkpt>
      <trkpt lat="38.729100" lon="-5.647633">
        <ele>1548.0</ele>
        <time>2019-05-04T16:15:00Z</time>
      </trkpt>
      <trkpt lat="38.729100" lon="-5.647483">
        <ele>1546.0</ele>
        <time>2019-05-04T16:15:01Z</time>
      </trkpt>
      <trkpt lat="38.729067" lon="-5.647333">
        <ele>1545.0</ele>
        <time>2019-05-04T16:15:02Z</time>
      </trkpt>
      <trkpt lat="38.729050" lon="-5.647183">
        <ele>1543.0</ele>
        <time>2019-05-04T16:15:03Z</time>
      </trkpt>
      <trkpt lat="38.729000" lon="-5.647050">
        <ele>1542.0</ele>
        <time>2019-05-04T16:15:04Z</time>
      </trkpt>
      <trkpt lat="38.728983" lon="-5.646900">
        <ele>1543.0</ele>
        <time>2019-05-04T16:15:05Z</time>
      </trkpt>
      <trkpt lat="38.728950" lon="-5.646750">
        <ele>1543.0</ele>
        <time>2019-05-04T16:15:06Z</time>
      </trkpt>
      <trkpt lat="38.728950" lon="-5.646600">
        <ele>1541.0</ele>
        <time>2019-05-04T16:15:07Z</time>
      </trkpt>
      <trkpt lat="38.728917" lon="-5.646450">
        <ele>1540.0</ele>
        <time>2019-05-04T16:15:08Z</time>
      </trkpt>
      <trkpt lat="38.728900" lon="-5.646317">
        <ele>1540.0</ele>
        <time>2019-05-04T16:15:09Z</time>
      </trkpt>
      <trkpt lat="38.728867" lon="-5.646033">
        <ele>0.0</ele>
        <time>2019-05-04T16:15:11Z</time>
      </trkpt>
      <trkpt lat="38.728850" lon="-5.645900">
        <ele>1538.0</ele>
        <time>2019-05-04T16:15:12Z</time>
      </trkpt>
      <trkpt lat="38.728833" lon="-5.645783">
        <ele>1537.0</ele>
        <time>2019-05-04T16:15:13Z</time>
      </trkpt>
      <trkpt lat="38.728800" lon="-5.645667">
        <ele>1539.0</ele>
        <time>2019-05-04T16:15:14Z</time>
      </trkpt>
      <trkpt lat="38.728783" lon="-5.645533">
        <ele>1541.0</ele>
        <time>2019-05-04T16:15:15Z</time>
      </trkpt>
      <trkpt lat="38.728767" lon="-5.645400">
        <ele>1541.0</ele>
        <time>2019-05-04T16:15:16Z</time>
      </trkpt>
      <trkpt lat="38.728750" lon="-5.645250">
        <ele>1542.0</ele>
        <time>2019-05-04T16:15:17Z</time>
      </trkpt>
      <trkpt lat="38.728717" lon="-5.644983">
        <ele>0.0</ele>
        <time>2019-05-04T16:15:19Z</time>
      </trkpt>
      <trkpt lat="38.728733" lon="-5.644683">
        <ele>1542.0</ele>
        <time>2019-05-04T16:15:20Z</time>
      </trkpt>
      <trkpt lat="38.728700" lon="-5.644633">
        <ele>1534.0</ele>
        <time>2019-05-04T16:15:21Z</time>
      </trkpt>
      <trkpt lat="38.728683" lon="-5.644533">
        <ele>1539.0</ele>
        <time>2019-05-04T16:15:22Z</time>
      </trkpt>
      <trkpt lat="38.728667" lon="-5.644417">
        <ele>1540.0</ele>
        <time>2019-05-04T16:15:23Z</time>
      </trkpt>
      <trkpt lat="38.728650" lon="-5.644283">
        <ele>1540.0</ele>
        <time>2019-05-04T16:15:24Z</time>
      </trkpt>
      <trkpt lat="38.728650" lon="-5.644133">
        <ele>1540.0</ele>
        <time>2019-05-04T16:15:25Z</time>
      </trkpt>
      <trkpt lat="38.728633" lon="-5.644000">
        <ele>1541.0</ele>
        <time>2019-05-04T16:15:26Z</time>
      </trkpt>
      <trkpt lat="38.728600" lon="-5.643867">
        <ele>1543.0</ele>
        <time>2019-05-04T16:15:27Z</time>
      </trkpt>
      <trkpt lat="38.728583" lon="-5.643733">
        <ele>1544.0</ele>
        <time>2019-05-04T16:15:28Z</time>
      </trkpt>
      <trkpt lat="38.728567" lon="-5.643600">
        <ele>1544.0</ele>
        <time>2019-05-04T16:15:29Z</time>
      </trkpt>
      <trkpt lat="38.728567" lon="-5.643450">
        <ele>1544.0</ele>
        <time>2019-05-04T16:15:30Z</time>
      </trkpt>
      <trkpt lat="38.728567" lon="-5.643300">
        <ele>1544.0</ele>
        <time>2019-05-04T16:15:31Z</time>
      </trkpt>
      <trkpt lat="38.728550" lon="-5.643133">
        <ele>1543.0</ele>
        <time>2019-05-04T16:15:32Z</time>
      </trkpt>
      <trkpt lat="38.728533" lon="-5.642983">
        <ele>1542.0</ele>
        <time>2019-05-04T16:15:33Z</time>
      </trkpt>
      <trkpt lat="38.728533" lon="-5.642833">
        <ele>1543.0</ele>
        <time>2019-05-04T16:15:34Z</time>
      </trkpt>
      <trkpt lat="38.728517" lon="-5.642683">
        <ele>1545.0</ele>
        <time>2019-05-04T16:15:35Z</time>
      </trkpt>
      <trkpt lat="38.728533" lon="-5.642550">
        <ele>1546.0</ele>
        <time>2019-05-04T16:15:36Z</time>
      </trkpt>
      <trkpt lat="38.728500" lon="-5.642067">
        <ele>0.0</ele>
        <time>2019-05-04T16:15:39Z</time>
      </trkpt>
      <trkpt lat="38.728467" lon="-5.641917">
        <ele>1546.0</ele>
        <time>2019-05-04T16:15:40Z</time>
      </trkpt>
      <trkpt lat="38.728450" lon="-5.641783">
        <ele>1546.0</ele>
        <time>2019-05-04T16:15:41Z</time>
      </trkpt>
      <trkpt lat="38.728417" lon="-5.641667">
        <ele>1547.0</ele>
        <time>2019-05-04T16:15:42Z</time>
      </trkpt>
      <trkpt lat="38.728383" lon="-5.641517">
        <ele>1548.0</ele>
        <time>2019-05-04T16:15:43Z</time>
      </trkpt>
      <trkpt lat="38.728350" lon="-5.641383">
        <ele>1548.0</ele>
        <time>2019-05-04T16:15:44Z</time>
      </trkpt>
      <trkpt lat="38.728317" lon="-5.641217">
        <ele>1548.0</ele>
        <time>2019-05-04T16:15:45Z</time>
      </trkpt>
      <trkpt lat="38.728300" lon="-5.641067">
        <ele>1548.0</ele>
        <time>2019-05-04T16:15:46Z</time>
      </trkpt>
      <trkpt lat="38.728267" lon="-5.640933">
        <ele>1548.0</ele>
        <time>2019-05-04T16:15:47Z</time>
      </trkpt>
      <trkpt lat="38.728183" lon="-5.640367">
        <ele>0.0</ele>
        <time>2019-05-04T16:15:51Z</time>
      </trkpt>
      <trkpt lat="38.728167" lon="-5.640233">
        <ele>1548.0</ele>
        <time>2019-05-04T16:15:52Z</time>
      </trkpt>
      <trkpt lat="38.728150" lon="-5.640100">
        <ele>1547.0</ele>
        <time>2019-05-04T16:15:53Z</time>
      </trkpt>
      <trkpt lat="38.728133" lon="-5.639967">
        <ele>1546.0</ele>
        <time>2019-05-04T16:15:54Z</time>
      </trkpt>
      <trkpt lat="38.728117" lon="-5.639833">
        <ele>1546.0</ele>
        <time>2019-05-04T16:15:55Z</time>
      </trkpt>
      <trkpt lat="38.728100" lon="-5.639700">
        <ele>1546.0</ele>
        <time>2019-05-04T16:15:56Z</time>
      </trkpt>
      <trkpt lat="38.728067" lon="-5.639550">
        <ele>1545.0</ele>
        <time>2019-05-04T16:15:57Z</time>
      </trkpt>
      <trkpt lat="38.728067" lon="-5.639417">
        <ele>1545.0</ele>
        <time>2019-05-04T16:15:58Z</time>
      </trkpt>
      <trkpt lat="38.728050" lon="-5.639283">
        <ele>1545.0</ele>
        <time>2019-05-04T16:15:59Z</time>
      </trkpt>
      <trkpt lat="38.728033" lon="-5.639133">
        <ele>1544.0</ele>
        <time>2019-05-04T16:16:00Z</time>
      </trkpt>
      <trkpt lat="38.728033" lon="-5.638983">
        <ele>1544.0</ele>
        <time>2019-05-04T16:16:01Z</time>
      </trkpt>
      <trkpt lat="38.728033" lon="-5.638850">
        <ele>1544.0</ele>
        <time>2019-05-04T16:16:02Z</time>
      </trkpt>
      <trkpt lat="38.728017" lon="-5.638717">
        <ele>1543.0</ele>
        <time>2019-05-04T16:16:03Z</time>
      </trkpt>
      <trkpt lat="38.728017" lon="-5.638583">
        <ele>1543.0</ele>
        <time>2019-05-04T16:16:04Z</time>
      </trkpt>
      <trkpt lat="38.728000" lon="-5.638450">
        <ele>1543.0</ele>
        <time>2019-05-04T16:16:05Z</time>
      </trkpt>
      <trkpt lat="38.728000" lon="-5.638317">
        <ele>1543.0</ele>
        <time>2019-05-04T16:16:06Z</time>
      </trkpt>
      <trkpt lat="38.727983" lon="-5.638183">
        <ele>1543.0</ele>
        <time>2019-05-04T16:16:07Z</time>
      </trkpt>
      <trkpt lat="38.727983" lon="-5.638050">
        <ele>1543.0</ele>
        <time>2019-05-04T16:16:08Z</time>
      </trkpt>
      <trkpt lat="38.727983" lon="-5.637917">
        <ele>1543.0</ele>
        <time>2019-05-04T16:16:09Z</time>
      </trkpt>
      <trkpt lat="38.727967" lon="-5.637767">
        <ele>1544.0</ele>
        <time>2019-05-04T16:16:10Z</time>
      </trkpt>
      <trkpt lat="38.727950" lon="-5.637517">
        <ele>0.0</ele>
        <time>2019-05-04T16:16:12Z</time>
      </trkpt>
      <trkpt lat="38.727950" lon="-5.637383">
        <ele>1544.0</ele>
        <time>2019-05-04T16:16:13Z</time>
      </trkpt>
      <trkpt lat="38.727950" lon="-5.637267">
        <ele>1544.0</ele>
        <time>2019-05-04T16:16:14Z</time>
      </trkpt>
      <trkpt lat="38.727950" lon="-5.637133">
        <ele>1543.0</ele>
        <time>2019-05-04T16:16:15Z</time>
      </trkpt>
      <trkpt lat="38.727933" lon="-5.637000">
        <ele>1543.0</ele>
        <time>2019-05-04T16:16:16Z</time>
      </trkpt>
      <trkpt lat="38.727933" lon="-5.636850">
        <ele>1543.0</ele>
        <time>2019-05-04T16:16:17Z</time>
      </trkpt>
      <trkpt lat="38.727917" lon="-5.636717">
        <ele>1543.0</ele>
        <time>2019-05-04T16:16:18Z</time>
      </trkpt>
      <trkpt lat="38.727917" lon="-5.636583">
        <ele>1542.0</ele>
        <time>2019-05-04T16:16:19Z</time>
      </trkpt>
      <trkpt lat="38.727933" lon="-5.636450">
        <ele>1542.0</ele>
        <time>2019-05-04T16:16:20Z</time>
      </trkpt>
      <trkpt lat="38.727917" lon="-5.636317">
        <ele>1542.0</ele>
        <time>2019-05-04T16:16:21Z</time>
      </trkpt>
      <trkpt lat="38.727917" lon="-5.636183">
        <ele>1542.0</ele>
        <time>2019-05-04T16:16:22Z</time>
      </trkpt>
      <trkpt lat="38.727900" lon="-5.636050">
        <ele>1542.0</ele>
        <time>2019-05-04T16:16:23Z</time>
      </trkpt>
      <trkpt lat="38.727900" lon="-5.635900">
        <ele>1542.0</ele>
        <time>2019-05-04T16:16:24Z</time>
      </trkpt>
      <trkpt lat="38.727883" lon="-5.635750">
        <ele>1542.0</ele>
        <time>2019-05-04T16:16:25Z</time>
      </trkpt>
      <trkpt lat="38.727883" lon="-5.635617">
        <ele>1542.0</ele>
        <time>2019-05-04T16:16:26Z</time>
      </trkpt>
      <trkpt lat="38.727867" lon="-5.635467">
        <ele>1542.0</ele>
        <time>2019-05-04T16:16:27Z</time>
      </trkpt>
      <trkpt lat="38.727850" lon="-5.635317">
        <ele>1542.0</ele>
        <time>2019-05-04T16:16:28Z</time>
      </trkpt>
      <trkpt lat="38.727833" lon="-5.635183">
        <ele>1542.0</ele>
        <time>2019-05-04T16:16:29Z</time>
      </trkpt>
      <trkpt lat="38.727817" lon="-5.635033">
        <ele>1542.0</ele>
        <time>2019-05-04T16:16:30Z</time>
      </trkpt>
      <trkpt lat="38.727817" lon="-5.634883">
        <ele>1541.0</ele>
        <time>2019-05-04T16:16:31Z</time>
      </trkpt>
      <trkpt lat="38.727800" lon="-5.634717">
        <ele>1542.0</ele>
        <time>2019-05-04T16:16:32Z</time>
      </trkpt>
      <trkpt lat="38.727783" lon="-5.634583">
        <ele>1542.0</ele>
        <time>2019-05-04T16:16:33Z</time>
      </trkpt>
      <trkpt lat="38.727767" lon="-5.634433">
        <ele>1544.0</ele>
        <time>2019-05-04T16:16:34Z</time>
      </trkpt>
      <trkpt lat="38.727750" lon="-5.634300">
        <ele>1544.0</ele>
        <time>2019-05-04T16:16:35Z</time>
      </trkpt>
      <trkpt lat="38.727750" lon="-5.634167">
        <ele>1544.0</ele>
        <time>2019-05-04T16:16:36Z</time>
      </trkpt>
      <trkpt lat="38.727750" lon="-5.634000">
        <ele>1544.0</ele>
        <time>2019-05-04T16:16:37Z</time>
      </trkpt>
      <trkpt lat="38.727733" lon="-5.633833">
        <ele>1543.0</ele>
        <time>2019-05-04T16:16:38Z</time>
      </trkpt>
      <trkpt lat="38.727717" lon="-5.633683">
        <ele>1543.0</ele>
        <time>2019-05-04T16:16:39Z</time>
      </trkpt>
      <trkpt lat="38.727683" lon="-5.633517">
        <ele>1542.0</ele>
        <time>2019-05-04T16:16:40Z</time>
      </trkpt>
      <trkpt lat="38.727683" lon="-5.633350">
        <ele>1541.0</ele>
        <time>2019-05-04T16:16:41Z</time>
      </trkpt>
      <trkpt lat="38.727667" lon="-5.633183">
        <ele>1540.0</ele>
        <time>2019-05-04T16:16:42Z</time>
      </trkpt>
      <trkpt lat="38.727650" lon="-5.633033">
        <ele>1540.0</ele>
        <time>2019-05-04T16:16:43Z</time>
      </trkpt>
      <trkpt lat="38.727633" lon="-5.632900">
        <ele>1539.0</ele>
        <time>2019-05-04T16:16:44Z</time>
      </trkpt>
      <trkpt lat="38.727617" lon="-5.632750">
        <ele>1538.0</ele>
        <time>2019-05-04T16:16:45Z</time>
      </trkpt>
      <trkpt lat="38.727617" lon="-5.632617">
        <ele>1538.0</ele>
        <time>2019-05-04T16:16:46Z</time>
      </trkpt>
      <trkpt lat="38.727600" lon="-5.632467">
        <ele>1537.0</ele>
        <time>2019-05-04T16:16:47Z</time>
      </trkpt>
      <trkpt lat="38.727600" lon="-5.632317">
        <ele>1537.0</ele>
        <time>2019-05-04T16:16:48Z</time>
      </trkpt>
      <trkpt lat="38.727600" lon="-5.632150">
        <ele>1535.0</ele>
        <time>2019-05-04T16:16:49Z</time>
      </trkpt>
      <trkpt lat="38.727583" lon="-5.632000">
        <ele>1532.0</ele>
        <time>2019-05-04T16:16:50Z</time>
      </trkpt>
      <trkpt lat="38.727567" lon="-5.631850">
        <ele>1530.0</ele>
        <time>2019-05-04T16:16:51Z</time>
      </trkpt>
      <trkpt lat="38.727550" lon="-5.631717">
        <ele>1527.0</ele>
        <time>2019-05-04T16:16:52Z</time>
      </trkpt>
      <trkpt lat="38.727550" lon="-5.631550">
        <ele>1525.0</ele>
        <time>2019-05-04T16:16:53Z</time>
      </trkpt>
      <trkpt lat="38.727533" lon="-5.631400">
        <ele>1524.0</ele>
        <time>2019-05-04T16:16:54Z</time>
      </trkpt>
      <trkpt lat="38.727533" lon="-5.631250">
        <ele>1521.0</ele>
        <time>2019-05-04T16:16:55Z</time>
      </trkpt>
      <trkpt lat="38.727517" lon="-5.631100">
        <ele>1519.0</ele>
        <time>2019-05-04T16:16:56Z</time>
      </trkpt>
      <trkpt lat="38.727517" lon="-5.630967">
        <ele>1517.0</ele>
        <time>2019-05-04T16:16:57Z</time>
      </trkpt>
      <trkpt lat="38.727500" lon="-5.630817">
        <ele>1515.0</ele>
        <time>2019-05-04T16:16:58Z</time>
      </trkpt>
      <trkpt lat="38.727483" lon="-5.630650">
        <ele>1512.0</ele>
        <time>2019-05-04T16:16:59Z</time>
      </trkpt>
      <trkpt lat="38.727467" lon="-5.630500">
        <ele>1509.0</ele>
        <time>2019-05-04T16:17:00Z</time>
      </trkpt>
      <trkpt lat="38.727450" lon="-5.630350">
        <ele>1507.0</ele>
        <time>2019-05-04T16:17:01Z</time>
      </trkpt>
      <trkpt lat="38.727433" lon="-5.630200">
        <ele>1505.0</ele>
        <time>2019-05-04T16:17:02Z</time>
      </trkpt>
      <trkpt lat="38.727433" lon="-5.630050">
        <ele>1503.0</ele>
        <time>2019-05-04T16:17:03Z</time>
      </trkpt>
      <trkpt lat="38.727417" lon="-5.629917">
        <ele>1501.0</ele>
        <time>2019-05-04T16:17:04Z</time>
      </trkpt>
      <trkpt lat="38.727400" lon="-5.629767">
        <ele>1499.0</ele>
        <time>2019-05-04T16:17:05Z</time>
      </trkpt>
      <trkpt lat="38.727383" lon="-5.629600">
        <ele>1496.0</ele>
        <time>2019-05-04T16:17:06Z</time>
      </trkpt>
      <trkpt lat="38.727367" lon="-5.629433">
        <ele>1493.0</ele>
        <time>2019-05-04T16:17:07Z</time>
      </trkpt>
      <trkpt lat="38.727350" lon="-5.629283">
        <ele>1490.0</ele>
        <time>2019-05-04T16:17:08Z</time>
      </trkpt>
      <trkpt lat="38.727333" lon="-5.629133">
        <ele>1488.0</ele>
        <time>2019-05-04T16:17:09Z</time>
      </trkpt>
      <trkpt lat="38.727333" lon="-5.628983">
        <ele>1485.0</ele>
        <time>2019-05-04T16:17:10Z</time>
      </trkpt>
      <trkpt lat="38.727317" lon="-5.628817">
        <ele>1483.0</ele>
        <time>2019-05-04T16:17:11Z</time>
      </trkpt>
      <trkpt lat="38.727300" lon="-5.628667">
        <ele>1480.0</ele>
        <time>2019-05-04T16:17:12Z</time>
      </trkpt>
      <trkpt lat="38.727283" lon="-5.628500">
        <ele>1478.0</ele>
        <time>2019-05-04T16:17:13Z</time>
      </trkpt>
      <trkpt lat="38.727267" lon="-5.628350">
        <ele>1476.0</ele>
        <time>2019-05-04T16:17:14Z</time>
      </trkpt>
      <trkpt lat="38.727250" lon="-5.628200">
        <ele>1474.0</ele>
        <time>2019-05-04T16:17:15Z</time>
      </trkpt>
      <trkpt lat="38.727250" lon="-5.628033">
        <ele>1472.0</ele>
        <time>2019-05-04T16:17:16Z</time>
      </trkpt>
      <trkpt lat="38.727233" lon="-5.627883">
        <ele>1470.0</ele>
        <time>2019-05-04T16:17:17Z</time>
      </trkpt>
      <trkpt lat="38.727217" lon="-5.627733">
        <ele>1467.0</ele>
        <time>2019-05-04T16:17:18Z</time>
      </trkpt>
      <trkpt lat="38.727217" lon="-5.627583">
        <ele>1465.0</ele>
        <time>2019-05-04T16:17:19Z</time>
      </trkpt>
      <trkpt lat="38.727200" lon="-5.627433">
        <ele>1463.0</ele>
        <time>2019-05-04T16:17:20Z</time>
      </trkpt>
      <trkpt lat="38.727183" lon="-5.627267">
        <ele>1461.0</ele>
        <time>2019-05-04T16:17:21Z</time>
      </trkpt>
      <trkpt lat="38.727167" lon="-5.627117">
        <ele>1459.0</ele>
        <time>2019-05-04T16:17:22Z</time>
      </trkpt>
      <trkpt lat="38.727150" lon="-5.626967">
        <ele>1456.0</ele>
        <time>2019-05-04T16:17:23Z</time>
      </trkpt>
      <trkpt lat="38.727133" lon="-5.626817">
        <ele>1454.0</ele>
        <time>2019-05-04T16:17:24Z</time>
      </trkpt>
      <trkpt lat="38.727133" lon="-5.626650">
        <ele>1451.0</ele>
        <time>2019-05-04T16:17:25Z</time>
      </trkpt>
      <trkpt lat="38.727117" lon="-5.626500">
        <ele>1449.0</ele>
        <time>2019-05-04T16:17:26Z</time>
      </trkpt>
      <trkpt lat="38.727117" lon="-5.626333">
        <ele>1446.0</ele>
        <time>2019-05-04T16:17:27Z</time>
      </trkpt>
      <trkpt lat="38.727117" lon="-5.626200">
        <ele>1443.0</ele>
        <time>2019-05-04T16:17:28Z</time>
      </trkpt>
      <trkpt lat="38.727117" lon="-5.626067">
        <ele>1441.0</ele>
        <time>2019-05-04T16:17:29Z</time>
      </trkpt>
      <trkpt lat="38.727100" lon="-5.625933">
        <ele>1437.0</ele>
        <time>2019-05-04T16:17:30Z</time>
      </trkpt>
      <trkpt lat="38.727083" lon="-5.625783">
        <ele>1434.0</ele>
        <time>2019-05-04T16:17:31Z</time>
      </trkpt>
      <trkpt lat="38.727067" lon="-5.625633">
        <ele>1431.0</ele>
        <time>2019-05-04T16:17:32Z</time>
      </trkpt>
      <trkpt lat="38.727033" lon="-5.625467">
        <ele>1427.0</ele>
        <time>2019-05-04T16:17:33Z</time>
      </trkpt>
      <trkpt lat="38.727033" lon="-5.625317">
        <ele>1427.0</ele>
        <time>2019-05-04T16:17:34Z</time>
      </trkpt>
      <trkpt lat="38.727033" lon="-5.625183">
        <ele>1425.0</ele>
        <time>2019-05-04T16:17:35Z</time>
      </trkpt>
      <trkpt lat="38.727033" lon="-5.625067">
        <ele>1423.0</ele>
        <time>2019-05-04T16:17:36Z</time>
      </trkpt>
      <trkpt lat="38.727017" lon="-5.624950">
        <ele>1420.0</ele>
        <time>2019-05-04T16:17:37Z</time>
      </trkpt>
      <trkpt lat="38.727017" lon="-5.624833">
        <ele>1418.0</ele>
        <time>2019-05-04T16:17:38Z</time>
      </trkpt>
      <trkpt lat="38.727000" lon="-5.624683">
        <ele>1415.0</ele>
        <time>2019-05-04T16:17:39Z</time>
      </trkpt>
      <trkpt lat="38.727000" lon="-5.624517">
        <ele>1411.0</ele>
        <time>2019-05-04T16:17:40Z</time>
      </trkpt>
      <trkpt lat="38.727000" lon="-5.624350">
        <ele>1408.0</ele>
        <time>2019-05-04T16:17:41Z</time>
      </trkpt>
      <trkpt lat="38.726983" lon="-5.624200">
        <ele>1405.0</ele>
        <time>2019-05-04T16:17:42Z</time>
      </trkpt>
      <trkpt lat="38.726983" lon="-5.624083">
        <ele>1404.0</ele>
        <time>2019-05-04T16:17:43Z</time>
      </trkpt>
      <trkpt lat="38.726983" lon="-5.623967">
        <ele>1402.0</ele>
        <time>2019-05-04T16:17:44Z</time>
      </trkpt>
      <trkpt lat="38.726983" lon="-5.623833">
        <ele>1400.0</ele>
        <time>2019-05-04T16:17:45Z</time>
      </trkpt>
      <trkpt lat="38.726967" lon="-5.623683">
        <ele>1398.0</ele>
        <time>2019-05-04T16:17:46Z</time>
      </trkpt>
      <trkpt lat="38.726967" lon="-5.623533">
        <ele>1395.0</ele>
        <time>2019-05-04T16:17:47Z</time>
      </trkpt>
      <trkpt lat="38.726967" lon="-5.623383">
        <ele>1393.0</ele>
        <time>2019-05-04T16:17:48Z</time>
      </trkpt>
      <trkpt lat="38.726967" lon="-5.623233">
        <ele>1390.0</ele>
        <time>2019-05-04T16:17:49Z</time>
      </trkpt>
      <trkpt lat="38.726950" lon="-5.623100">
        <ele>1387.0</ele>
        <time>2019-05-04T16:17:50Z</time>
      </trkpt>
      <trkpt lat="38.726950" lon="-5.622967">
        <ele>1384.0</ele>
        <time>2019-05-04T16:17:51Z</time>
      </trkpt>
      <trkpt lat="38.726933" lon="-5.622817">
        <ele>1381.0</ele>
        <time>2019-05-04T16:17:52Z</time>
      </trkpt>
      <trkpt lat="38.726917" lon="-5.622667">
        <ele>1378.0</ele>
        <time>2019-05-04T16:17:53Z</time>
      </trkpt>
      <trkpt lat="38.726883" lon="-5.622500">
        <ele>1374.0</ele>
        <time>2019-05-04T16:17:54Z</time>
      </trkpt>
      <trkpt lat="38.726883" lon="-5.622350">
        <ele>1371.0</ele>
        <time>2019-05-04T16:17:55Z</time>
      </trkpt>
      <trkpt lat="38.726867" lon="-5.622183">
        <ele>1368.0</ele>
        <time>2019-05-04T16:17:56Z</time>
      </trkpt>
      <trkpt lat="38.726850" lon="-5.622033">
        <ele>1365.0</ele>
        <time>2019-05-04T16:17:57Z</time>
      </trkpt>
      <trkpt lat="38.726850" lon="-5.621883">
        <ele>1362.0</ele>
        <time>2019-05-04T16:17:58Z</time>
      </trkpt>
      <trkpt lat="38.726833" lon="-5.621750">
        <ele>1359.0</ele>
        <time>2019-05-04T16:17:59Z</time>
      </trkpt>
      <trkpt lat="38.726817" lon="-5.621600">
        <ele>1355.0</ele>
        <time>2019-05-04T16:18:00Z</time>
      </trkpt>
      <trkpt lat="38.726800" lon="-5.621433">
        <ele>1352.0</ele>
        <time>2019-05-04T16:18:01Z</time>
      </trkpt>
      <trkpt lat="38.726800" lon="-5.621267">
        <ele>1347.0</ele>
        <time>2019-05-04T16:18:02Z</time>
      </trkpt>
      <trkpt lat="38.726800" lon="-5.621117">
        <ele>1343.0</ele>
        <time>2019-05-04T16:18:03Z</time>
      </trkpt>
      <trkpt lat="38.726783" lon="-5.620983">
        <ele>1339.0</ele>
        <time>2019-05-04T16:18:04Z</time>
      </trkpt>
      <trkpt lat="38.726783" lon="-5.620850">
        <ele>1335.0</ele>
        <time>2019-05-04T16:18:05Z</time>
      </trkpt>
      <trkpt lat="38.726783" lon="-5.620700">
        <ele>1331.0</ele>
        <time>2019-05-04T16:18:06Z</time>
      </trkpt>
      <trkpt lat="38.726783" lon="-5.620550">
        <ele>1327.0</ele>
        <time>2019-05-04T16:18:07Z</time>
      </trkpt>
      <trkpt lat="38.726783" lon="-5.620400">
        <ele>1323.0</ele>
        <time>2019-05-04T16:18:08Z</time>
      </trkpt>
      <trkpt lat="38.726800" lon="-5.620250">
        <ele>1320.0</ele>
        <time>2019-05-04T16:18:09Z</time>
      </trkpt>
      <trkpt lat="38.726800" lon="-5.620117">
        <ele>1317.0</ele>
        <time>2019-05-04T16:18:10Z</time>
      </trkpt>
      <trkpt lat="38.726800" lon="-5.619983">
        <ele>1313.0</ele>
        <time>2019-05-04T16:18:11Z</time>
      </trkpt>
      <trkpt lat="38.726817" lon="-5.619833">
        <ele>1310.0</ele>
        <time>2019-05-04T16:18:12Z</time>
      </trkpt>
      <trkpt lat="38.726817" lon="-5.619700">
        <ele>1306.0</ele>
        <time>2019-05-04T16:18:13Z</time>
      </trkpt>
      <trkpt lat="38.726817" lon="-5.619533">
        <ele>1302.0</ele>
        <time>2019-05-04T16:18:14Z</time>
      </trkpt>
      <trkpt lat="38.726833" lon="-5.619383">
        <ele>1298.0</ele>
        <time>2019-05-04T16:18:15Z</time>
      </trkpt>
      <trkpt lat="38.726850" lon="-5.619233">
        <ele>1294.0</ele>
        <time>2019-05-04T16:18:16Z</time>
      </trkpt>
      <trkpt lat="38.726867" lon="-5.619083">
        <ele>1290.0</ele>
        <time>2019-05-04T16:18:17Z</time>
      </trkpt>
      <trkpt lat="38.726883" lon="-5.618933">
        <ele>1287.0</ele>
        <time>2019-05-04T16:18:18Z</time>
      </trkpt>
      <trkpt lat="38.726883" lon="-5.618783">
        <ele>1283.0</ele>
        <time>2019-05-04T16:18:19Z</time>
      </trkpt>
      <trkpt lat="38.726900" lon="-5.618617">
        <ele>1279.0</ele>
        <time>2019-05-04T16:18:20Z</time>
      </trkpt>
      <trkpt lat="38.726900" lon="-5.618467">
        <ele>1276.0</ele>
        <time>2019-05-04T16:18:21Z</time>
      </trkpt>
      <trkpt lat="38.726917" lon="-5.618300">
        <ele>1272.0</ele>
        <time>2019-05-04T16:18:22Z</time>
      </trkpt>
      <trkpt lat="38.726933" lon="-5.618133">
        <ele>1269.0</ele>
        <time>2019-05-04T16:18:23Z</time>
      </trkpt>
      <trkpt lat="38.726950" lon="-5.617967">
        <ele>1265.0</ele>
        <time>2019-05-04T16:18:24Z</time>
      </trkpt>
      <trkpt lat="38.726967" lon="-5.617817">
        <ele>1262.0</ele>
        <time>2019-05-04T16:18:25Z</time>
      </trkpt>
      <trkpt lat="38.726983" lon="-5.617650">
        <ele>1261.0</ele>
        <time>2019-05-04T16:18:26Z</time>
      </trkpt>
      <trkpt lat="38.727000" lon="-5.617500">
        <ele>1258.0</ele>
        <time>2019-05-04T16:18:27Z</time>
      </trkpt>
      <trkpt lat="38.727000" lon="-5.617333">
        <ele>1255.0</ele>
        <time>2019-05-04T16:18:28Z</time>
      </trkpt>
      <trkpt lat="38.727017" lon="-5.617183">
        <ele>1252.0</ele>
        <time>2019-05-04T16:18:29Z</time>
      </trkpt>
      <trkpt lat="38.727033" lon="-5.617017">
        <ele>1250.0</ele>
        <time>2019-05-04T16:18:30Z</time>
      </trkpt>
      <trkpt lat="38.727050" lon="-5.616883">
        <ele>1250.0</ele>
        <time>2019-05-04T16:18:31Z</time>
      </trkpt>
      <trkpt lat="38.727050" lon="-5.616750">
        <ele>1250.0</ele>
        <time>2019-05-04T16:18:32Z</time>
      </trkpt>
      <trkpt lat="38.727050" lon="-5.616617">
        <ele>1250.0</ele>
        <time>2019-05-04T16:18:33Z</time>
      </trkpt>
      <trkpt lat="38.727050" lon="-5.616483">
        <ele>1250.0</ele>
        <time>2019-05-04T16:18:34Z</time>
      </trkpt>
      <trkpt lat="38.727050" lon="-5.616350">
        <ele>1249.0</ele>
        <time>2019-05-04T16:18:35Z</time>
      </trkpt>
      <trkpt lat="38.727050" lon="-5.616200">
        <ele>1247.0</ele>
        <time>2019-05-04T16:18:36Z</time>
      </trkpt>
      <trkpt lat="38.727050" lon="-5.616067">
        <ele>1246.0</ele>
        <time>2019-05-04T16:18:37Z</time>
      </trkpt>
      <trkpt lat="38.727050" lon="-5.615933">
        <ele>1245.0</ele>
        <time>2019-05-04T16:18:38Z</time>
      </trkpt>
      <trkpt lat="38.727050" lon="-5.615833">
        <ele>1245.0</ele>
        <time>2019-05-04T16:18:39Z</time>
      </trkpt>
      <trkpt lat="38.727050" lon="-5.615717">
        <ele>1245.0</ele>
        <time>2019-05-04T16:18:40Z</time>
      </trkpt>
      <trkpt lat="38.727050" lon="-5.615583">
        <ele>1243.0</ele>
        <time>2019-05-04T16:18:41Z</time>
      </trkpt>
      <trkpt lat="38.727050" lon="-5.615450">
        <ele>1242.0</ele>
        <time>2019-05-04T16:18:42Z</time>
      </trkpt>
      <trkpt lat="38.727033" lon="-5.615317">
        <ele>1240.0</ele>
        <time>2019-05-04T16:18:43Z</time>
      </trkpt>
      <trkpt lat="38.727033" lon="-5.615200">
        <ele>1239.0</ele>
        <time>2019-05-04T16:18:44Z</time>
      </trkpt>
      <trkpt lat="38.727050" lon="-5.615100">
        <ele>1239.0</ele>
        <time>2019-05-04T16:18:45Z</time>
      </trkpt>
      <trkpt lat="38.727050" lon="-5.615017">
        <ele>1239.0</ele>
        <time>2019-05-04T16:18:46Z</time>
      </trkpt>
      <trkpt lat="38.727050" lon="-5.614933">
        <ele>1241.0</ele>
        <time>2019-05-04T16:18:47Z</time>
      </trkpt>
      <trkpt lat="38.727050" lon="-5.614833">
        <ele>1242.0</ele>
        <time>2019-05-04T16:18:48Z</time>
      </trkpt>
      <trkpt lat="38.727033" lon="-5.614733">
        <ele>1242.0</ele>
        <time>2019-05-04T16:18:49Z</time>
      </trkpt>
      <trkpt lat="38.727033" lon="-5.614650">
        <ele>1242.0</ele>
        <time>2019-05-04T16:18:50Z</time>
      </trkpt>
      <trkpt lat="38.727050" lon="-5.614567">
        <ele>1243.0</ele>
        <time>2019-05-04T16:18:51Z</time>
      </trkpt>
      <trkpt lat="38.727050" lon="-5.614467">
        <ele>1243.0</ele>
        <time>2019-05-04T16:18:52Z</time>
      </trkpt>
      <trkpt lat="38.727050" lon="-5.614367">
        <ele>1242.0</ele>
        <time>2019-05-04T16:18:53Z</time>
      </trkpt>
      <trkpt lat="38.727067" lon="-5.614250">
        <ele>1242.0</ele>
        <time>2019-05-04T16:18:54Z</time>
      </trkpt>
      <trkpt lat="38.727067" lon="-5.614150">
        <ele>1241.0</ele>
        <time>2019-05-04T16:18:55Z</time>
      </trkpt>
      <trkpt lat="38.727050" lon="-5.614050">
        <ele>1241.0</ele>
        <time>2019-05-04T16:18:56Z</time>
      </trkpt>
      <trkpt lat="38.727050" lon="-5.613933">
        <ele>1240.0</ele>
        <time>2019-05-04T16:18:57Z</time>
      </trkpt>
      <trkpt lat="38.727050" lon="-5.613833">
        <ele>1239.0</ele>
        <time>2019-05-04T16:18:58Z</time>
      </trkpt>
      <trkpt lat="38.727050" lon="-5.613733">
        <ele>1238.0</ele>
        <time>2019-05-04T16:18:59Z</time>
      </trkpt>
      <trkpt lat="38.727033" lon="-5.613617">
        <ele>1237.0</ele>
        <time>2019-05-04T16:19:00Z</time>
      </trkpt>
      <trkpt lat="38.727033" lon="-5.613483">
        <ele>1235.0</ele>
        <time>2019-05-04T16:19:01Z</time>
      </trkpt>
      <trkpt lat="38.727017" lon="-5.613367">
        <ele>1233.0</ele>
        <time>2019-05-04T16:19:02Z</time>
      </trkpt>
      <trkpt lat="38.727017" lon="-5.613233">
        <ele>1231.0</ele>
        <time>2019-05-04T16:19:03Z</time>
      </trkpt>
      <trkpt lat="38.727000" lon="-5.613100">
        <ele>1228.0</ele>
        <time>2019-05-04T16:19:04Z</time>
      </trkpt>
      <trkpt lat="38.726983" lon="-5.612983">
        <ele>1226.0</ele>
        <time>2019-05-04T16:19:05Z</time>
      </trkpt>
      <trkpt lat="38.726967" lon="-5.612850">
        <ele>1224.0</ele>
        <time>2019-05-04T16:19:06Z</time>
      </trkpt>
      <trkpt lat="38.726950" lon="-5.612733">
        <ele>1220.0</ele>
        <time>2019-05-04T16:19:07Z</time>
      </trkpt>
      <trkpt lat="38.726933" lon="-5.612617">
        <ele>1217.0</ele>
        <time>2019-05-04T16:19:08Z</time>
      </trkpt>
      <trkpt lat="38.726900" lon="-5.612517">
        <ele>1215.0</ele>
        <time>2019-05-04T16:19:09Z</time>
      </trkpt>
      <trkpt lat="38.726883" lon="-5.612400">
        <ele>1213.0</ele>
        <time>2019-05-04T16:19:10Z</time>
      </trkpt>
      <trkpt lat="38.726867" lon="-5.612300">
        <ele>1211.0</ele>
        <time>2019-05-04T16:19:11Z</time>
      </trkpt>
      <trkpt lat="38.726867" lon="-5.612183">
        <ele>1209.0</ele>
        <time>2019-05-04T16:19:12Z</time>
      </trkpt>
      <trkpt lat="38.726850" lon="-5.612067">
        <ele>1207.0</ele>
        <time>2019-05-04T16:19:13Z</time>
      </trkpt>
      <trkpt lat="38.726850" lon="-5.611967">
        <ele>1207.0</ele>
        <time>2019-05-04T16:19:14Z</time>
      </trkpt>
      <trkpt lat="38.726833" lon="-5.611850">
        <ele>1207.0</ele>
        <time>2019-05-04T16:19:15Z</time>
      </trkpt>
      <trkpt lat="38.726833" lon="-5.611750">
        <ele>1206.0</ele>
        <time>2019-05-04T16:19:16Z</time>
      </trkpt>
      <trkpt lat="38.726817" lon="-5.611633">
        <ele>1205.0</ele>
        <time>2019-05-04T16:19:17Z</time>
      </trkpt>
      <trkpt lat="38.726817" lon="-5.611517">
        <ele>1203.0</ele>
        <time>2019-05-04T16:19:18Z</time>
      </trkpt>
      <trkpt lat="38.726817" lon="-5.611417">
        <ele>1203.0</ele>
        <time>2019-05-04T16:19:19Z</time>
      </trkpt>
      <trkpt lat="38.726833" lon="-5.611300">
        <ele>1202.0</ele>
        <time>2019-05-04T16:19:20Z</time>
      </trkpt>
      <trkpt lat="38.726833" lon="-5.611183">
        <ele>1201.0</ele>
        <time>2019-05-04T16:19:21Z</time>
      </trkpt>
      <trkpt lat="38.726833" lon="-5.611050">
        <ele>1200.0</ele>
        <time>2019-05-04T16:19:22Z</time>
      </trkpt>
      <trkpt lat="38.726833" lon="-5.610933">
        <ele>1200.0</ele>
        <time>2019-05-04T16:19:23Z</time>
      </trkpt>
      <trkpt lat="38.726833" lon="-5.610833">
        <ele>1201.0</ele>
        <time>2019-05-04T16:19:24Z</time>
      </trkpt>
      <trkpt lat="38.726833" lon="-5.610750">
        <ele>1204.0</ele>
        <time>2019-05-04T16:19:25Z</time>
      </trkpt>
      <trkpt lat="38.726850" lon="-5.610650">
        <ele>1208.0</ele>
        <time>2019-05-04T16:19:26Z</time>
      </trkpt>
      <trkpt lat="38.726850" lon="-5.610583">
        <ele>1209.0</ele>
        <time>2019-05-04T16:19:27Z</time>
      </trkpt>
      <trkpt lat="38.726833" lon="-5.610500">
        <ele>1210.0</ele>
        <time>2019-05-04T16:19:28Z</time>
      </trkpt>
      <trkpt lat="38.726833" lon="-5.610417">
        <ele>1210.0</ele>
        <time>2019-05-04T16:19:29Z</time>
      </trkpt>
      <trkpt lat="38.726817" lon="-5.610317">
        <ele>1210.0</ele>
        <time>2019-05-04T16:19:30Z</time>
      </trkpt>
      <trkpt lat="38.726817" lon="-5.610233">
        <ele>1211.0</ele>
        <time>2019-05-04T16:19:31Z</time>
      </trkpt>
      <trkpt lat="38.726800" lon="-5.610117">
        <ele>1211.0</ele>
        <time>2019-05-04T16:19:32Z</time>
      </trkpt>
      <trkpt lat="38.726800" lon="-5.610017">
        <ele>1210.0</ele>
        <time>2019-05-04T16:19:33Z</time>
      </trkpt>
      <trkpt lat="38.726800" lon="-5.609917">
        <ele>1210.0</ele>
        <time>2019-05-04T16:19:34Z</time>
      </trkpt>
      <trkpt lat="38.726783" lon="-5.609817">
        <ele>1210.0</ele>
        <time>2019-05-04T16:19:35Z</time>
      </trkpt>
      <trkpt lat="38.726783" lon="-5.609700">
        <ele>1209.0</ele>
        <time>2019-05-04T16:19:36Z</time>
      </trkpt>
      <trkpt lat="38.726783" lon="-5.609583">
        <ele>1209.0</ele>
        <time>2019-05-04T16:19:37Z</time>
      </trkpt>
      <trkpt lat="38.726767" lon="-5.609450">
        <ele>1209.0</ele>
        <time>2019-05-04T16:19:38Z</time>
      </trkpt>
      <trkpt lat="38.726750" lon="-5.609333">
        <ele>1210.0</ele>
        <time>2019-05-04T16:19:39Z</time>
      </trkpt>
      <trkpt lat="38.726733" lon="-5.609200">
        <ele>1210.0</ele>
        <time>2019-05-04T16:19:40Z</time>
      </trkpt>
      <trkpt lat="38.726717" lon="-5.609083">
        <ele>1210.0</ele>
        <time>2019-05-04T16:19:41Z</time>
      </trkpt>
      <trkpt lat="38.726683" lon="-5.608950">
        <ele>1212.0</ele>
        <time>2019-05-04T16:19:42Z</time>
      </trkpt>
      <trkpt lat="38.726667" lon="-5.608833">
        <ele>1212.0</ele>
        <time>2019-05-04T16:19:43Z</time>
      </trkpt>
      <trkpt lat="38.726650" lon="-5.608700">
        <ele>1213.0</ele>
        <time>2019-05-04T16:19:44Z</time>
      </trkpt>
      <trkpt lat="38.726650" lon="-5.608567">
        <ele>1214.0</ele>
        <time>2019-05-04T16:19:45Z</time>
      </trkpt>
      <trkpt lat="38.726633" lon="-5.608450">
        <ele>1214.0</ele>
        <time>2019-05-04T16:19:46Z</time>
      </trkpt>
      <trkpt lat="38.726617" lon="-5.608333">
        <ele>1215.0</ele>
        <time>2019-05-04T16:19:47Z</time>
      </trkpt>
      <trkpt lat="38.726617" lon="-5.608217">
        <ele>1218.0</ele>
        <time>2019-05-04T16:19:48Z</time>
      </trkpt>
      <trkpt lat="38.726600" lon="-5.608100">
        <ele>1220.0</ele>
        <time>2019-05-04T16:19:49Z</time>
      </trkpt>
      <trkpt lat="38.726583" lon="-5.608000">
        <ele>1222.0</ele>
        <time>2019-05-04T16:19:50Z</time>
      </trkpt>
      <trkpt lat="38.726550" lon="-5.607900">
        <ele>1224.0</ele>
        <time>2019-05-04T16:19:51Z</time>
      </trkpt>
      <trkpt lat="38.726500" lon="-5.607800">
        <ele>1226.0</ele>
        <time>2019-05-04T16:19:52Z</time>
      </trkpt>
      <trkpt lat="38.726433" lon="-5.607733">
        <ele>1225.0</ele>
        <time>2019-05-04T16:19:53Z</time>
      </trkpt>
      <trkpt lat="38.726350" lon="-5.607667">
        <ele>1224.0</ele>
        <time>2019-05-04T16:19:54Z</time>
      </trkpt>
      <trkpt lat="38.726233" lon="-5.607650">
        <ele>1224.0</ele>
        <time>2019-05-04T16:19:55Z</time>
      </trkpt>
      <trkpt lat="38.726133" lon="-5.607683">
        <ele>1223.0</ele>
        <time>2019-05-04T16:19:56Z</time>
      </trkpt>
      <trkpt lat="38.726050" lon="-5.607767">
        <ele>1222.0</ele>
        <time>2019-05-04T16:19:57Z</time>
      </trkpt>
      <trkpt lat="38.726000" lon="-5.607850">
        <ele>1221.0</ele>
        <time>2019-05-04T16:19:58Z</time>
      </trkpt>
      <trkpt lat="38.725967" lon="-5.607950">
        <ele>1222.0</ele>
        <time>2019-05-04T16:19:59Z</time>
      </trkpt>
      <trkpt lat="38.725933" lon="-5.608033">
        <ele>1224.0</ele>
        <time>2019-05-04T16:20:00Z</time>
      </trkpt>
      <trkpt lat="38.725917" lon="-5.608117">
        <ele>1226.0</ele>
        <time>2019-05-04T16:20:01Z</time>
      </trkpt>
      <trkpt lat="38.725917" lon="-5.608200">
        <ele>1227.0</ele>
        <time>2019-05-04T16:20:02Z</time>
      </trkpt>
      <trkpt lat="38.725950" lon="-5.608300">
        <ele>1227.0</ele>
        <time>2019-05-04T16:20:03Z</time>
      </trkpt>
      <trkpt lat="38.725983" lon="-5.608367">
        <ele>1228.0</ele>
        <time>2019-05-04T16:20:04Z</time>
      </trkpt>
      <trkpt lat="38.726033" lon="-5.608417">
        <ele>1229.0</ele>
        <time>2019-05-04T16:20:05Z</time>
      </trkpt>
      <trkpt lat="38.726083" lon="-5.608450">
        <ele>1231.0</ele>
        <time>2019-05-04T16:20:06Z</time>
      </trkpt>
      <trkpt lat="38.726133" lon="-5.608483">
        <ele>1233.0</ele>
        <time>2019-05-04T16:20:07Z</time>
      </trkpt>
      <trkpt lat="38.726183" lon="-5.608500">
        <ele>1236.0</ele>
        <time>2019-05-04T16:20:08Z</time>
      </trkpt>
      <trkpt lat="38.726217" lon="-5.608500">
        <ele>1237.0</ele>
        <time>2019-05-04T16:20:09Z</time>
      </trkpt>
      <trkpt lat="38.726267" lon="-5.608483">
        <ele>1238.0</ele>
        <time>2019-05-04T16:20:10Z</time>
      </trkpt>
      <trkpt lat="38.726333" lon="-5.608433">
        <ele>1237.0</ele>
        <time>2019-05-04T16:20:11Z</time>
      </trkpt>
      <trkpt lat="38.726383" lon="-5.608367">
        <ele>1237.0</ele>
        <time>2019-05-04T16:20:12Z</time>
      </trkpt>
      <trkpt lat="38.726400" lon="-5.608267">
        <ele>1237.0</ele>
        <time>2019-05-04T16:20:13Z</time>
      </trkpt>
      <trkpt lat="38.726400" lon="-5.608133">
        <ele>1237.0</ele>
        <time>2019-05-04T16:20:14Z</time>
      </trkpt>
      <trkpt lat="38.726367" lon="-5.608033">
        <ele>1238.0</ele>
        <time>2019-05-04T16:20:15Z</time>
      </trkpt>
      <trkpt lat="38.726300" lon="-5.607950">
        <ele>1239.0</ele>
        <time>2019-05-04T16:20:16Z</time>
      </trkpt>
      <trkpt lat="38.726217" lon="-5.607900">
        <ele>1241.0</ele>
        <time>2019-05-04T16:20:17Z</time>
      </trkpt>
      <trkpt lat="38.726133" lon="-5.607883">
        <ele>1241.0</ele>
        <time>2019-05-04T16:20:18Z</time>
      </trkpt>
      <trkpt lat="38.726033" lon="-5.607883">
        <ele>1242.0</ele>
        <time>2019-05-04T16:20:19Z</time>
      </trkpt>
      <trkpt lat="38.725933" lon="-5.607900">
        <ele>1242.0</ele>
        <time>2019-05-04T16:20:20Z</time>
      </trkpt>
      <trkpt lat="38.725833" lon="-5.607950">
        <ele>1243.0</ele>
        <time>2019-05-04T16:20:21Z</time>
      </trkpt>
      <trkpt lat="38.725767" lon="-5.608033">
        <ele>1244.0</ele>
        <time>2019-05-04T16:20:22Z</time>
      </trkpt>
      <trkpt lat="38.725733" lon="-5.608133">
        <ele>1246.0</ele>
        <time>2019-05-04T16:20:23Z</time>
      </trkpt>
      <trkpt lat="38.725733" lon="-5.608233">
        <ele>1246.0</ele>
        <time>2019-05-04T16:20:24Z</time>
      </trkpt>
      <trkpt lat="38.725750" lon="-5.608317">
        <ele>1248.0</ele>
        <time>2019-05-04T16:20:25Z</time>
      </trkpt>
      <trkpt lat="38.725783" lon="-5.608383">
        <ele>1250.0</ele>
        <time>2019-05-04T16:20:26Z</time>
      </trkpt>
      <trkpt lat="38.725833" lon="-5.608400">
        <ele>1252.0</ele>
        <time>2019-05-04T16:20:27Z</time>
      </trkpt>
      <trkpt lat="38.725867" lon="-5.608400">
        <ele>1253.0</ele>
        <time>2019-05-04T16:20:28Z</time>
      </trkpt>
      <trkpt lat="38.725917" lon="-5.608367">
        <ele>1254.0</ele>
        <time>2019-05-04T16:20:29Z</time>
      </trkpt>
      <trkpt lat="38.725967" lon="-5.608300">
        <ele>1253.0</ele>
        <time>2019-05-04T16:20:30Z</time>
      </trkpt>
      <trkpt lat="38.726000" lon="-5.608200">
        <ele>1253.0</ele>
        <time>2019-05-04T16:20:31Z</time>
      </trkpt>
      <trkpt lat="38.726017" lon="-5.608100">
        <ele>1253.0</ele>
        <time>2019-05-04T16:20:32Z</time>
      </trkpt>
      <trkpt lat="38.725983" lon="-5.607983">
        <ele>1253.0</ele>
        <time>2019-05-04T16:20:33Z</time>
      </trkpt>
      <trkpt lat="38.725917" lon="-5.607867">
        <ele>1253.0</ele>
        <time>2019-05-04T16:20:34Z</time>
      </trkpt>
      <trkpt lat="38.725833" lon="-5.607800">
        <ele>1253.0</ele>
        <time>2019-05-04T16:20:35Z</time>
      </trkpt>
      <trkpt lat="38.725750" lon="-5.607733">
        <ele>1254.0</ele>
        <time>2019-05-04T16:20:36Z</time>
      </trkpt>
      <trkpt lat="38.725650" lon="-5.607683">
        <ele>1255.0</ele>
        <time>2019-05-04T16:20:37Z</time>
      </trkpt>
      <trkpt lat="38.725550" lon="-5.607683">
        <ele>1255.0</ele>
        <time>2019-05-04T16:20:38Z</time>
      </trkpt>
      <trkpt lat="38.725433" lon="-5.607683">
        <ele>1256.0</ele>
        <time>2019-05-04T16:20:39Z</time>
      </trkpt>
      <trkpt lat="38.725350" lon="-5.607717">
        <ele>1257.0</ele>
        <time>2019-05-04T16:20:40Z</time>
      </trkpt>
      <trkpt lat="38.725250" lon="-5.607733">
        <ele>1259.0</ele>
        <time>2019-05-04T16:20:41Z</time>
      </trkpt>
      <trkpt lat="38.725167" lon="-5.607767">
        <ele>1262.0</ele>
        <time>2019-05-04T16:20:42Z</time>
      </trkpt>
      <trkpt lat="38.725100" lon="-5.607817">
        <ele>1263.0</ele>
        <time>2019-05-04T16:20:43Z</time>
      </trkpt>
      <trkpt lat="38.725033" lon="-5.607867">
        <ele>1264.0</ele>
        <time>2019-05-04T16:20:44Z</time>
      </trkpt>
      <trkpt lat="38.724983" lon="-5.607950">
        <ele>1265.0</ele>
        <time>2019-05-04T16:20:45Z</time>
      </trkpt>
      <trkpt lat="38.724983" lon="-5.608050">
        <ele>1265.0</ele>
        <time>2019-05-04T16:20:46Z</time>
      </trkpt>
      <trkpt lat="38.725000" lon="-5.608133">
        <ele>1266.0</ele>
        <time>2019-05-04T16:20:47Z</time>
      </trkpt>
      <trkpt lat="38.725050" lon="-5.608183">
        <ele>1266.0</ele>
        <time>2019-05-04T16:20:48Z</time>
      </trkpt>
      <trkpt lat="38.725133" lon="-5.608183">
        <ele>1267.0</ele>
        <time>2019-05-04T16:20:49Z</time>
      </trkpt>
      <trkpt lat="38.725183" lon="-5.608150">
        <ele>1268.0</ele>
        <time>2019-05-04T16:20:50Z</time>
      </trkpt>
      <trkpt lat="38.725233" lon="-5.608067">
        <ele>1269.0</ele>
        <time>2019-05-04T16:20:51Z</time>
      </trkpt>
      <trkpt lat="38.725250" lon="-5.607983">
        <ele>1270.0</ele>
        <time>2019-05-04T16:20:52Z</time>
      </trkpt>
      <trkpt lat="38.725233" lon="-5.607883">
        <ele>1272.0</ele>
        <time>2019-05-04T16:20:53Z</time>
      </trkpt>
      <trkpt lat="38.725183" lon="-5.607767">
        <ele>1272.0</ele>
        <time>2019-05-04T16:20:54Z</time>
      </trkpt>
      <trkpt lat="38.725117" lon="-5.607683">
        <ele>1273.0</ele>
        <time>2019-05-04T16:20:55Z</time>
      </trkpt>
      <trkpt lat="38.725017" lon="-5.607617">
        <ele>1272.0</ele>
        <time>2019-05-04T16:20:56Z</time>
      </trkpt>
      <trkpt lat="38.724917" lon="-5.607583">
        <ele>1273.0</ele>
        <time>2019-05-04T16:20:57Z</time>
      </trkpt>
      <trkpt lat="38.724817" lon="-5.607617">
        <ele>1275.0</ele>
        <time>2019-05-04T16:20:58Z</time>
      </trkpt>
      <trkpt lat="38.724750" lon="-5.607700">
        <ele>1275.0</ele>
        <time>2019-05-04T16:20:59Z</time>
      </trkpt>
      <trkpt lat="38.724733" lon="-5.607783">
        <ele>1276.0</ele>
        <time>2019-05-04T16:21:00Z</time>
      </trkpt>
      <trkpt lat="38.724733" lon="-5.607850">
        <ele>1277.0</ele>
        <time>2019-05-04T16:21:01Z</time>
      </trkpt>
      <trkpt lat="38.724750" lon="-5.607933">
        <ele>1278.0</ele>
        <time>2019-05-04T16:21:02Z</time>
      </trkpt>
      <trkpt lat="38.724783" lon="-5.608000">
        <ele>1278.0</ele>
        <time>2019-05-04T16:21:03Z</time>
      </trkpt>
      <trkpt lat="38.724833" lon="-5.608033">
        <ele>1278.0</ele>
        <time>2019-05-04T16:21:04Z</time>
      </trkpt>
      <trkpt lat="38.724900" lon="-5.608050">
        <ele>1279.0</ele>
        <time>2019-05-04T16:21:05Z</time>
      </trkpt>
      <trkpt lat="38.724983" lon="-5.608017">
        <ele>1279.0</ele>
        <time>2019-05-04T16:21:06Z</time>
      </trkpt>
      <trkpt lat="38.725033" lon="-5.607950">
        <ele>1279.0</ele>
        <time>2019-05-04T16:21:07Z</time>
      </trkpt>
      <trkpt lat="38.725067" lon="-5.607850">
        <ele>1279.0</ele>
        <time>2019-05-04T16:21:08Z</time>
      </trkpt>
      <trkpt lat="38.725050" lon="-5.607750">
        <ele>1279.0</ele>
        <time>2019-05-04T16:21:09Z</time>
      </trkpt>
      <trkpt lat="38.725017" lon="-5.607633">
        <ele>1279.0</ele>
        <time>2019-05-04T16:21:10Z</time>
      </trkpt>
      <trkpt lat="38.724967" lon="-5.607533">
        <ele>1279.0</ele>
        <time>2019-05-04T16:21:11Z</time>
      </trkpt>
      <trkpt lat="38.724883" lon="-5.607450">
        <ele>1279.0</ele>
        <time>2019-05-04T16:21:12Z</time>
      </trkpt>
      <trkpt lat="38.724783" lon="-5.607400">
        <ele>1279.0</ele>
        <time>2019-05-04T16:21:13Z</time>
      </trkpt>
      <trkpt lat="38.724683" lon="-5.607400">
        <ele>1280.0</ele>
        <time>2019-05-04T16:21:14Z</time>
      </trkpt>
      <trkpt lat="38.724617" lon="-5.607433">
        <ele>1280.0</ele>
        <time>2019-05-04T16:21:15Z</time>
      </trkpt>
      <trkpt lat="38.724567" lon="-5.607517">
        <ele>1279.0</ele>
        <time>2019-05-04T16:21:16Z</time>
      </trkpt>
      <trkpt lat="38.724533" lon="-5.607617">
        <ele>1278.0</ele>
        <time>2019-05-04T16:21:17Z</time>
      </trkpt>
      <trkpt lat="38.724533" lon="-5.607700">
        <ele>1279.0</ele>
        <time>2019-05-04T16:21:18Z</time>
      </trkpt>
      <trkpt lat="38.724567" lon="-5.607767">
        <ele>1279.0</ele>
        <time>2019-05-04T16:21:19Z</time>
      </trkpt>
      <trkpt lat="38.724617" lon="-5.607800">
        <ele>1279.0</ele>
        <time>2019-05-04T16:21:20Z</time>
      </trkpt>
      <trkpt lat="38.724683" lon="-5.607800">
        <ele>1279.0</ele>
        <time>2019-05-04T16:21:21Z</time>
      </trkpt>
      <trkpt lat="38.724750" lon="-5.607783">
        <ele>1280.0</ele>
        <time>2019-05-04T16:21:22Z</time>
      </trkpt>
      <trkpt lat="38.724800" lon="-5.607733">
        <ele>1279.0</ele>
        <time>2019-05-04T16:21:23Z</time>
      </trkpt>
      <trkpt lat="38.724833" lon="-5.607667">
        <ele>1279.0</ele>
        <time>2019-05-04T16:21:24Z</time>
      </trkpt>
      <trkpt lat="38.724850" lon="-5.607567">
        <ele>1278.0</ele>
        <time>2019-05-04T16:21:25Z</time>
      </trkpt>
      <trkpt lat="38.724850" lon="-5.607467">
        <ele>1277.0</ele>
        <time>2019-05-04T16:21:26Z</time>
      </trkpt>
      <trkpt lat="38.724833" lon="-5.607350">
        <ele>1276.0</ele>
        <time>2019-05-04T16:21:27Z</time>
      </trkpt>
      <trkpt lat="38.724817" lon="-5.607217">
        <ele>1276.0</ele>
        <time>2019-05-04T16:21:28Z</time>
      </trkpt>
      <trkpt lat="38.724783" lon="-5.607100">
        <ele>1275.0</ele>
        <time>2019-05-04T16:21:29Z</time>
      </trkpt>
      <trkpt lat="38.724750" lon="-5.606967">
        <ele>1275.0</ele>
        <time>2019-05-04T16:21:30Z</time>
      </trkpt>
      <trkpt lat="38.724717" lon="-5.606850">
        <ele>1276.0</ele>
        <time>2019-05-04T16:21:31Z</time>
      </trkpt>
      <trkpt lat="38.724683" lon="-5.606733">
        <ele>1277.0</ele>
        <time>2019-05-04T16:21:32Z</time>
      </trkpt>
      <trkpt lat="38.724650" lon="-5.606617">
        <ele>1277.0</ele>
        <time>2019-05-04T16:21:33Z</time>
      </trkpt>
      <trkpt lat="38.724633" lon="-5.606500">
        <ele>1278.0</ele>
        <time>2019-05-04T16:21:34Z</time>
      </trkpt>
      <trkpt lat="38.724617" lon="-5.606383">
        <ele>1278.0</ele>
        <time>2019-05-04T16:21:35Z</time>
      </trkpt>
      <trkpt lat="38.724583" lon="-5.606267">
        <ele>1278.0</ele>
        <time>2019-05-04T16:21:36Z</time>
      </trkpt>
      <trkpt lat="38.724533" lon="-5.606150">
        <ele>1278.0</ele>
        <time>2019-05-04T16:21:37Z</time>
      </trkpt>
      <trkpt lat="38.724500" lon="-5.606017">
        <ele>1278.0</ele>
        <time>2019-05-04T16:21:38Z</time>
      </trkpt>
      <trkpt lat="38.724467" lon="-5.605900">
        <ele>1278.0</ele>
        <time>2019-05-04T16:21:39Z</time>
      </trkpt>
      <trkpt lat="38.724433" lon="-5.605783">
        <ele>1278.0</ele>
        <time>2019-05-04T16:21:40Z</time>
      </trkpt>
      <trkpt lat="38.724417" lon="-5.605667">
        <ele>1278.0</ele>
        <time>2019-05-04T16:21:41Z</time>
      </trkpt>
      <trkpt lat="38.724400" lon="-5.605550">
        <ele>1278.0</ele>
        <time>2019-05-04T16:21:42Z</time>
      </trkpt>
      <trkpt lat="38.724383" lon="-5.605417">
        <ele>1278.0</ele>
        <time>2019-05-04T16:21:43Z</time>
      </trkpt>
      <trkpt lat="38.724367" lon="-5.605283">
        <ele>1276.0</ele>
        <time>2019-05-04T16:21:44Z</time>
      </trkpt>
      <trkpt lat="38.724350" lon="-5.605150">
        <ele>1274.0</ele>
        <time>2019-05-04T16:21:45Z</time>
      </trkpt>
      <trkpt lat="38.724333" lon="-5.605033">
        <ele>1270.0</ele>
        <time>2019-05-04T16:21:46Z</time>
      </trkpt>
      <trkpt lat="38.724317" lon="-5.604917">
        <ele>1267.0</ele>
        <time>2019-05-04T16:21:47Z</time>
      </trkpt>
      <trkpt lat="38.724300" lon="-5.604800">
        <ele>1266.0</ele>
        <time>2019-05-04T16:21:48Z</time>
      </trkpt>
      <trkpt lat="38.724283" lon="-5.604667">
        <ele>1264.0</ele>
        <time>2019-05-04T16:21:49Z</time>
      </trkpt>
      <trkpt lat="38.724267" lon="-5.604533">
        <ele>1263.0</ele>
        <time>2019-05-04T16:21:50Z</time>
      </trkpt>
      <trkpt lat="38.724267" lon="-5.604417">
        <ele>1261.0</ele>
        <time>2019-05-04T16:21:51Z</time>
      </trkpt>
      <trkpt lat="38.724250" lon="-5.604283">
        <ele>1260.0</ele>
        <time>2019-05-04T16:21:52Z</time>
      </trkpt>
      <trkpt lat="38.724250" lon="-5.604183">
        <ele>1259.0</ele>
        <time>2019-05-04T16:21:53Z</time>
      </trkpt>
      <trkpt lat="38.724233" lon="-5.604067">
        <ele>1258.0</ele>
        <time>2019-05-04T16:21:54Z</time>
      </trkpt>
      <trkpt lat="38.724217" lon="-5.603967">
        <ele>1256.0</ele>
        <time>2019-05-04T16:21:55Z</time>
      </trkpt>
      <trkpt lat="38.724200" lon="-5.603833">
        <ele>1255.0</ele>
        <time>2019-05-04T16:21:56Z</time>
      </trkpt>
      <trkpt lat="38.724200" lon="-5.603700">
        <ele>1253.0</ele>
        <time>2019-05-04T16:21:57Z</time>
      </trkpt>
      <trkpt lat="38.724183" lon="-5.603567">
        <ele>1252.0</ele>
        <time>2019-05-04T16:21:58Z</time>
      </trkpt>
      <trkpt lat="38.724167" lon="-5.603433">
        <ele>1250.0</ele>
        <time>2019-05-04T16:21:59Z</time>
      </trkpt>
      <trkpt lat="38.724150" lon="-5.603317">
        <ele>1249.0</ele>
        <time>2019-05-04T16:22:00Z</time>
      </trkpt>
      <trkpt lat="38.724117" lon="-5.603200">
        <ele>1247.0</ele>
        <time>2019-05-04T16:22:01Z</time>
      </trkpt>
      <trkpt lat="38.724083" lon="-5.603067">
        <ele>1245.0</ele>
        <time>2019-05-04T16:22:02Z</time>
      </trkpt>
      <trkpt lat="38.724067" lon="-5.602933">
        <ele>1242.0</ele>
        <time>2019-05-04T16:22:03Z</time>
      </trkpt>
      <trkpt lat="38.724033" lon="-5.602783">
        <ele>1240.0</ele>
        <time>2019-05-04T16:22:04Z</time>
      </trkpt>
      <trkpt lat="38.724000" lon="-5.602650">
        <ele>1238.0</ele>
        <time>2019-05-04T16:22:05Z</time>
      </trkpt>
      <trkpt lat="38.723967" lon="-5.602517">
        <ele>1236.0</ele>
        <time>2019-05-04T16:22:06Z</time>
      </trkpt>
      <trkpt lat="38.723917" lon="-5.602383">
        <ele>1232.0</ele>
        <time>2019-05-04T16:22:07Z</time>
      </trkpt>
      <trkpt lat="38.723883" lon="-5.602250">
        <ele>1229.0</ele>
        <time>2019-05-04T16:22:08Z</time>
      </trkpt>
      <trkpt lat="38.723850" lon="-5.602117">
        <ele>1226.0</ele>
        <time>2019-05-04T16:22:09Z</time>
      </trkpt>
      <trkpt lat="38.723800" lon="-5.601967">
        <ele>1221.0</ele>
        <time>2019-05-04T16:22:10Z</time>
      </trkpt>
      <trkpt lat="38.723750" lon="-5.601817">
        <ele>1218.0</ele>
        <time>2019-05-04T16:22:11Z</time>
      </trkpt>
      <trkpt lat="38.723700" lon="-5.601683">
        <ele>1215.0</ele>
        <time>2019-05-04T16:22:12Z</time>
      </trkpt>
      <trkpt lat="38.723650" lon="-5.601550">
        <ele>1213.0</ele>
        <time>2019-05-04T16:22:13Z</time>
      </trkpt>
      <trkpt lat="38.723617" lon="-5.601417">
        <ele>1211.0</ele>
        <time>2019-05-04T16:22:14Z</time>
      </trkpt>
      <trkpt lat="38.723583" lon="-5.601283">
        <ele>1209.0</ele>
        <time>2019-05-04T16:22:15Z</time>
      </trkpt>
      <trkpt lat="38.723550" lon="-5.601133">
        <ele>1207.0</ele>
        <time>2019-05-04T16:22:16Z</time>
      </trkpt>
      <trkpt lat="38.723517" lon="-5.601000">
        <ele>1205.0</ele>
        <time>2019-05-04T16:22:17Z</time>
      </trkpt>
      <trkpt lat="38.723467" lon="-5.600867">
        <ele>1204.0</ele>
        <time>2019-05-04T16:22:18Z</time>
      </trkpt>
      <trkpt lat="38.723417" lon="-5.600750">
        <ele>1203.0</ele>
        <time>2019-05-04T16:22:19Z</time>
      </trkpt>
      <trkpt lat="38.723367" lon="-5.600617">
        <ele>1203.0</ele>
        <time>2019-05-04T16:22:20Z</time>
      </trkpt>
      <trkpt lat="38.723333" lon="-5.600483">
        <ele>1201.0</ele>
        <time>2019-05-04T16:22:21Z</time>
      </trkpt>
      <trkpt lat="38.723300" lon="-5.600350">
        <ele>1200.0</ele>
        <time>2019-05-04T16:22:22Z</time>
      </trkpt>
      <trkpt lat="38.723267" lon="-5.600200">
        <ele>1198.0</ele>
        <time>2019-05-04T16:22:23Z</time>
      </trkpt>
      <trkpt lat="38.723233" lon="-5.600050">
        <ele>1196.0</ele>
        <time>2019-05-04T16:22:24Z</time>
      </trkpt>
      <trkpt lat="38.723183" lon="-5.599917">
        <ele>1194.0</ele>
        <time>2019-05-04T16:22:25Z</time>
      </trkpt>
      <trkpt lat="38.723150" lon="-5.599767">
        <ele>1193.0</ele>
        <time>2019-05-04T16:22:26Z</time>
      </trkpt>
      <trkpt lat="38.723133" lon="-5.599617">
        <ele>1191.0</ele>
        <time>2019-05-04T16:22:27Z</time>
      </trkpt>
      <trkpt lat="38.723100" lon="-5.599483">
        <ele>1190.0</ele>
        <time>2019-05-04T16:22:28Z</time>
      </trkpt>
      <trkpt lat="38.723083" lon="-5.599333">
        <ele>1188.0</ele>
        <time>2019-05-04T16:22:29Z</time>
      </trkpt>
      <trkpt lat="38.723050" lon="-5.599200">
        <ele>1186.0</ele>
        <time>2019-05-04T16:22:30Z</time>
      </trkpt>
      <trkpt lat="38.723017" lon="-5.599050">
        <ele>1184.0</ele>
        <time>2019-05-04T16:22:31Z</time>
      </trkpt>
      <trkpt lat="38.722983" lon="-5.598917">
        <ele>1182.0</ele>
        <time>2019-05-04T16:22:32Z</time>
      </trkpt>
      <trkpt lat="38.722950" lon="-5.598783">
        <ele>1180.0</ele>
        <time>2019-05-04T16:22:33Z</time>
      </trkpt>
      <trkpt lat="38.722933" lon="-5.598650">
        <ele>1178.0</ele>
        <time>2019-05-04T16:22:34Z</time>
      </trkpt>
      <trkpt lat="38.722917" lon="-5.598500">
        <ele>1176.0</ele>
        <time>2019-05-04T16:22:35Z</time>
      </trkpt>
      <trkpt lat="38.722883" lon="-5.598367">
        <ele>1174.0</ele>
        <time>2019-05-04T16:22:36Z</time>
      </trkpt>
      <trkpt lat="38.722867" lon="-5.598217">
        <ele>1171.0</ele>
        <time>2019-05-04T16:22:37Z</time>
      </trkpt>
      <trkpt lat="38.722850" lon="-5.598083">
        <ele>1169.0</ele>
        <time>2019-05-04T16:22:38Z</time>
      </trkpt>
      <trkpt lat="38.722817" lon="-5.597950">
        <ele>1168.0</ele>
        <time>2019-05-04T16:22:39Z</time>
      </trkpt>
      <trkpt lat="38.722800" lon="-5.597817">
        <ele>1166.0</ele>
        <time>2019-05-04T16:22:40Z</time>
      </trkpt>
      <trkpt lat="38.722783" lon="-5.597683">
        <ele>1164.0</ele>
        <time>2019-05-04T16:22:41Z</time>
      </trkpt>
      <trkpt lat="38.722767" lon="-5.597550">
        <ele>1162.0</ele>
        <time>2019-05-04T16:22:42Z</time>
      </trkpt>
      <trkpt lat="38.722733" lon="-5.597433">
        <ele>1160.0</ele>
        <time>2019-05-04T16:22:43Z</time>
      </trkpt>
      <trkpt lat="38.722717" lon="-5.597300">
        <ele>1157.0</ele>
        <time>2019-05-04T16:22:44Z</time>
      </trkpt>
      <trkpt lat="38.722700" lon="-5.597167">
        <ele>1155.0</ele>
        <time>2019-05-04T16:22:45Z</time>
      </trkpt>
      <trkpt lat="38.722683" lon="-5.597033">
        <ele>1152.0</ele>
        <time>2019-05-04T16:22:46Z</time>
      </trkpt>
      <trkpt lat="38.722683" lon="-5.596900">
        <ele>1149.0</ele>
        <time>2019-05-04T16:22:47Z</time>
      </trkpt>
      <trkpt lat="38.722667" lon="-5.596767">
        <ele>1147.0</ele>
        <time>2019-05-04T16:22:48Z</time>
      </trkpt>
      <trkpt lat="38.722667" lon="-5.596650">
        <ele>1144.0</ele>
        <time>2019-05-04T16:22:49Z</time>
      </trkpt>
      <trkpt lat="38.722650" lon="-5.596533">
        <ele>1142.0</ele>
        <time>2019-05-04T16:22:50Z</time>
      </trkpt>
      <trkpt lat="38.722650" lon="-5.596400">
        <ele>1139.0</ele>
        <time>2019-05-04T16:22:51Z</time>
      </trkpt>
      <trkpt lat="38.722650" lon="-5.596267">
        <ele>1137.0</ele>
        <time>2019-05-04T16:22:52Z</time>
      </trkpt>
      <trkpt lat="38.722650" lon="-5.596150">
        <ele>1134.0</ele>
        <time>2019-05-04T16:22:53Z</time>
      </trkpt>
      <trkpt lat="38.722650" lon="-5.596017">
        <ele>1132.0</ele>
        <time>2019-05-04T16:22:54Z</time>
      </trkpt>
      <trkpt lat="38.722650" lon="-5.595900">
        <ele>1130.0</ele>
        <time>2019-05-04T16:22:55Z</time>
      </trkpt>
      <trkpt lat="38.722650" lon="-5.595783">
        <ele>1128.0</ele>
        <time>2019-05-04T16:22:56Z</time>
      </trkpt>
      <trkpt lat="38.722633" lon="-5.595667">
        <ele>1125.0</ele>
        <time>2019-05-04T16:22:57Z</time>
      </trkpt>
      <trkpt lat="38.722650" lon="-5.595533">
        <ele>1123.0</ele>
        <time>2019-05-04T16:22:58Z</time>
      </trkpt>
      <trkpt lat="38.722650" lon="-5.595400">
        <ele>1120.0</ele>
        <time>2019-05-04T16:22:59Z</time>
      </trkpt>
      <trkpt lat="38.722650" lon="-5.595283">
        <ele>1118.0</ele>
        <time>2019-05-04T16:23:00Z</time>
      </trkpt>
      <trkpt lat="38.722667" lon="-5.595150">
        <ele>1115.0</ele>
        <time>2019-05-04T16:23:01Z</time>
      </trkpt>
      <trkpt lat="38.722667" lon="-5.595033">
        <ele>1113.0</ele>
        <time>2019-05-04T16:23:02Z</time>
      </trkpt>
      <trkpt lat="38.722667" lon="-5.594900">
        <ele>1110.0</ele>
        <time>2019-05-04T16:23:03Z</time>
      </trkpt>
      <trkpt lat="38.722650" lon="-5.594783">
        <ele>1107.0</ele>
        <time>2019-05-04T16:23:04Z</time>
      </trkpt>
      <trkpt lat="38.722650" lon="-5.594650">
        <ele>1104.0</ele>
        <time>2019-05-04T16:23:05Z</time>
      </trkpt>
      <trkpt lat="38.722667" lon="-5.594533">
        <ele>1102.0</ele>
        <time>2019-05-04T16:23:06Z</time>
      </trkpt>
      <trkpt lat="38.722667" lon="-5.594417">
        <ele>1099.0</ele>
        <time>2019-05-04T16:23:07Z</time>
      </trkpt>
      <trkpt lat="38.722667" lon="-5.594283">
        <ele>1096.0</ele>
        <time>2019-05-04T16:23:08Z</time>
      </trkpt>
      <trkpt lat="38.722667" lon="-5.594167">
        <ele>1092.0</ele>
        <time>2019-05-04T16:23:09Z</time>
      </trkpt>
      <trkpt lat="38.722683" lon="-5.594033">
        <ele>1089.0</ele>
        <time>2019-05-04T16:23:10Z</time>
      </trkpt>
      <trkpt lat="38.722700" lon="-5.593933">
        <ele>1086.0</ele>
        <time>2019-05-04T16:23:11Z</time>
      </trkpt>
      <trkpt lat="38.722700" lon="-5.593817">
        <ele>1083.0</ele>
        <time>2019-05-04T16:23:12Z</time>
      </trkpt>
      <trkpt lat="38.722700" lon="-5.593700">
        <ele>1080.0</ele>
        <time>2019-05-04T16:23:13Z</time>
      </trkpt>
      <trkpt lat="38.722717" lon="-5.593567">
        <ele>1077.0</ele>
        <time>2019-05-04T16:23:14Z</time>
      </trkpt>
      <trkpt lat="38.722717" lon="-5.593433">
        <ele>1073.0</ele>
        <time>2019-05-04T16:23:15Z</time>
      </trkpt>
      <trkpt lat="38.722717" lon="-5.593300">
        <ele>1069.0</ele>
        <time>2019-05-04T16:23:16Z</time>
      </trkpt>
      <trkpt lat="38.722733" lon="-5.593183">
        <ele>1066.0</ele>
        <time>2019-05-04T16:23:17Z</time>
      </trkpt>
      <trkpt lat="38.722733" lon="-5.593050">
        <ele>1063.0</ele>
        <time>2019-05-04T16:23:18Z</time>
      </trkpt>
      <trkpt lat="38.722733" lon="-5.592933">
        <ele>1060.0</ele>
        <time>2019-05-04T16:23:19Z</time>
      </trkpt>
      <trkpt lat="38.722750" lon="-5.592800">
        <ele>1057.0</ele>
        <time>2019-05-04T16:23:20Z</time>
      </trkpt>
      <trkpt lat="38.722750" lon="-5.592683">
        <ele>1054.0</ele>
        <time>2019-05-04T16:23:21Z</time>
      </trkpt>
      <trkpt lat="38.722767" lon="-5.592550">
        <ele>1051.0</ele>
        <time>2019-05-04T16:23:22Z</time>
      </trkpt>
      <trkpt lat="38.722767" lon="-5.592450">
        <ele>1048.0</ele>
        <time>2019-05-04T16:23:23Z</time>
      </trkpt>
      <trkpt lat="38.722767" lon="-5.592350">
        <ele>1046.0</ele>
        <time>2019-05-04T16:23:24Z</time>
      </trkpt>
      <trkpt lat="38.722767" lon="-5.592233">
        <ele>1043.0</ele>
        <time>2019-05-04T16:23:25Z</time>
      </trkpt>
      <trkpt lat="38.722767" lon="-5.592117">
        <ele>1040.0</ele>
        <time>2019-05-04T16:23:26Z</time>
      </trkpt>
      <trkpt lat="38.722767" lon="-5.591983">
        <ele>1037.0</ele>
        <time>2019-05-04T16:23:27Z</time>
      </trkpt>
      <trkpt lat="38.722767" lon="-5.591867">
        <ele>1034.0</ele>
        <time>2019-05-04T16:23:28Z</time>
      </trkpt>
      <trkpt lat="38.722767" lon="-5.591767">
        <ele>1030.0</ele>
        <time>2019-05-04T16:23:29Z</time>
      </trkpt>
      <trkpt lat="38.722783" lon="-5.591650">
        <ele>1027.0</ele>
        <time>2019-05-04T16:23:30Z</time>
      </trkpt>
      <trkpt lat="38.722800" lon="-5.591533">
        <ele>1023.0</ele>
        <time>2019-05-04T16:23:31Z</time>
      </trkpt>
      <trkpt lat="38.722817" lon="-5.591400">
        <ele>1020.0</ele>
        <time>2019-05-04T16:23:32Z</time>
      </trkpt>
      <trkpt lat="38.722817" lon="-5.591250">
        <ele>1016.0</ele>
        <time>2019-05-04T16:23:33Z</time>
      </trkpt>
      <trkpt lat="38.722833" lon="-5.591117">
        <ele>1012.0</ele>
        <time>2019-05-04T16:23:34Z</time>
      </trkpt>
      <trkpt lat="38.722850" lon="-5.590983">
        <ele>1009.0</ele>
        <time>2019-05-04T16:23:35Z</time>
      </trkpt>
      <trkpt lat="38.722867" lon="-5.590867">
        <ele>1007.0</ele>
        <time>2019-05-04T16:23:36Z</time>
      </trkpt>
      <trkpt lat="38.722867" lon="-5.590750">
        <ele>1004.0</ele>
        <time>2019-05-04T16:23:37Z</time>
      </trkpt>
      <trkpt lat="38.722883" lon="-5.590617">
        <ele>1001.0</ele>
        <time>2019-05-04T16:23:38Z</time>
      </trkpt>
      <trkpt lat="38.722900" lon="-5.590483">
        <ele>998.0</ele>
        <time>2019-05-04T16:23:39Z</time>
      </trkpt>
      <trkpt lat="38.722917" lon="-5.590350">
        <ele>995.0</ele>
        <time>2019-05-04T16:23:40Z</time>
      </trkpt>
      <trkpt lat="38.722933" lon="-5.590217">
        <ele>992.0</ele>
        <time>2019-05-04T16:23:41Z</time>
      </trkpt>
      <trkpt lat="38.722950" lon="-5.590100">
        <ele>990.0</ele>
        <time>2019-05-04T16:23:42Z</time>
      </trkpt>
      <trkpt lat="38.722950" lon="-5.589983">
        <ele>987.0</ele>
        <time>2019-05-04T16:23:43Z</time>
      </trkpt>
      <trkpt lat="38.722967" lon="-5.589867">
        <ele>985.0</ele>
        <time>2019-05-04T16:23:44Z</time>
      </trkpt>
      <trkpt lat="38.722983" lon="-5.589733">
        <ele>982.0</ele>
        <time>2019-05-04T16:23:45Z</time>
      </trkpt>
      <trkpt lat="38.722983" lon="-5.589600">
        <ele>978.0</ele>
        <time>2019-05-04T16:23:46Z</time>
      </trkpt>
      <trkpt lat="38.723000" lon="-5.589467">
        <ele>974.0</ele>
        <time>2019-05-04T16:23:47Z</time>
      </trkpt>
      <trkpt lat="38.723000" lon="-5.589350">
        <ele>971.0</ele>
        <time>2019-05-04T16:23:48Z</time>
      </trkpt>
      <trkpt lat="38.723017" lon="-5.589217">
        <ele>968.0</ele>
        <time>2019-05-04T16:23:49Z</time>
      </trkpt>
      <trkpt lat="38.723017" lon="-5.589100">
        <ele>965.0</ele>
        <time>2019-05-04T16:23:50Z</time>
      </trkpt>
      <trkpt lat="38.723017" lon="-5.588983">
        <ele>961.0</ele>
        <time>2019-05-04T16:23:51Z</time>
      </trkpt>
      <trkpt lat="38.723033" lon="-5.588850">
        <ele>958.0</ele>
        <time>2019-05-04T16:23:52Z</time>
      </trkpt>
      <trkpt lat="38.723033" lon="-5.588717">
        <ele>954.0</ele>
        <time>2019-05-04T16:23:53Z</time>
      </trkpt>
      <trkpt lat="38.723033" lon="-5.588567">
        <ele>951.0</ele>
        <time>2019-05-04T16:23:54Z</time>
      </trkpt>
      <trkpt lat="38.723050" lon="-5.588417">
        <ele>947.0</ele>
        <time>2019-05-04T16:23:55Z</time>
      </trkpt>
      <trkpt lat="38.723067" lon="-5.588300">
        <ele>943.0</ele>
        <time>2019-05-04T16:23:56Z</time>
      </trkpt>
      <trkpt lat="38.723083" lon="-5.588167">
        <ele>940.0</ele>
        <time>2019-05-04T16:23:57Z</time>
      </trkpt>
      <trkpt lat="38.723083" lon="-5.588050">
        <ele>937.0</ele>
        <time>2019-05-04T16:23:58Z</time>
      </trkpt>
      <trkpt lat="38.723100" lon="-5.587917">
        <ele>933.0</ele>
        <time>2019-05-04T16:23:59Z</time>
      </trkpt>
      <trkpt lat="38.723100" lon="-5.587800">
        <ele>930.0</ele>
        <time>2019-05-04T16:24:00Z</time>
      </trkpt>
      <trkpt lat="38.723117" lon="-5.587667">
        <ele>926.0</ele>
        <time>2019-05-04T16:24:01Z</time>
      </trkpt>
      <trkpt lat="38.723133" lon="-5.587533">
        <ele>922.0</ele>
        <time>2019-05-04T16:24:02Z</time>
      </trkpt>
      <trkpt lat="38.723150" lon="-5.587400">
        <ele>918.0</ele>
        <time>2019-05-04T16:24:03Z</time>
      </trkpt>
      <trkpt lat="38.723183" lon="-5.587250">
        <ele>914.0</ele>
        <time>2019-05-04T16:24:04Z</time>
      </trkpt>
      <trkpt lat="38.723200" lon="-5.587100">
        <ele>911.0</ele>
        <time>2019-05-04T16:24:05Z</time>
      </trkpt>
      <trkpt lat="38.723217" lon="-5.586967">
        <ele>907.0</ele>
        <time>2019-05-04T16:24:06Z</time>
      </trkpt>
      <trkpt lat="38.723217" lon="-5.586833">
        <ele>903.0</ele>
        <time>2019-05-04T16:24:07Z</time>
      </trkpt>
      <trkpt lat="38.723233" lon="-5.586683">
        <ele>898.0</ele>
        <time>2019-05-04T16:24:08Z</time>
      </trkpt>
      <trkpt lat="38.723250" lon="-5.586550">
        <ele>894.0</ele>
        <time>2019-05-04T16:24:09Z</time>
      </trkpt>
      <trkpt lat="38.723250" lon="-5.586417">
        <ele>891.0</ele>
        <time>2019-05-04T16:24:10Z</time>
      </trkpt>
      <trkpt lat="38.723267" lon="-5.586283">
        <ele>887.0</ele>
        <time>2019-05-04T16:24:11Z</time>
      </trkpt>
      <trkpt lat="38.723267" lon="-5.586133">
        <ele>883.0</ele>
        <time>2019-05-04T16:24:12Z</time>
      </trkpt>
      <trkpt lat="38.723283" lon="-5.586000">
        <ele>879.0</ele>
        <time>2019-05-04T16:24:13Z</time>
      </trkpt>
      <trkpt lat="38.723283" lon="-5.585867">
        <ele>875.0</ele>
        <time>2019-05-04T16:24:14Z</time>
      </trkpt>
      <trkpt lat="38.723300" lon="-5.585717">
        <ele>871.0</ele>
        <time>2019-05-04T16:24:15Z</time>
      </trkpt>
      <trkpt lat="38.723317" lon="-5.585583">
        <ele>867.0</ele>
        <time>2019-05-04T16:24:16Z</time>
      </trkpt>
      <trkpt lat="38.723333" lon="-5.585450">
        <ele>862.0</ele>
        <time>2019-05-04T16:24:17Z</time>
      </trkpt>
      <trkpt lat="38.723350" lon="-5.585300">
        <ele>857.0</ele>
        <time>2019-05-04T16:24:18Z</time>
      </trkpt>
      <trkpt lat="38.723367" lon="-5.585167">
        <ele>853.0</ele>
        <time>2019-05-04T16:24:19Z</time>
      </trkpt>
      <trkpt lat="38.723383" lon="-5.585033">
        <ele>849.0</ele>
        <time>2019-05-04T16:24:20Z</time>
      </trkpt>
      <trkpt lat="38.723400" lon="-5.584900">
        <ele>846.0</ele>
        <time>2019-05-04T16:24:21Z</time>
      </trkpt>
      <trkpt lat="38.723433" lon="-5.584767">
        <ele>843.0</ele>
        <time>2019-05-04T16:24:22Z</time>
      </trkpt>
      <trkpt lat="38.723450" lon="-5.584650">
        <ele>839.0</ele>
        <time>2019-05-04T16:24:23Z</time>
      </trkpt>
      <trkpt lat="38.723467" lon="-5.584517">
        <ele>835.0</ele>
        <time>2019-05-04T16:24:24Z</time>
      </trkpt>
      <trkpt lat="38.723483" lon="-5.584367">
        <ele>832.0</ele>
        <time>2019-05-04T16:24:25Z</time>
      </trkpt>
      <trkpt lat="38.723500" lon="-5.584233">
        <ele>828.0</ele>
        <time>2019-05-04T16:24:26Z</time>
      </trkpt>
      <trkpt lat="38.723533" lon="-5.584083">
        <ele>824.0</ele>
        <time>2019-05-04T16:24:27Z</time>
      </trkpt>
      <trkpt lat="38.723550" lon="-5.583933">
        <ele>820.0</ele>
        <time>2019-05-04T16:24:28Z</time>
      </trkpt>
      <trkpt lat="38.723567" lon="-5.583800">
        <ele>817.0</ele>
        <time>2019-05-04T16:24:29Z</time>
      </trkpt>
      <trkpt lat="38.723583" lon="-5.583650">
        <ele>814.0</ele>
        <time>2019-05-04T16:24:30Z</time>
      </trkpt>
      <trkpt lat="38.723600" lon="-5.583517">
        <ele>811.0</ele>
        <time>2019-05-04T16:24:31Z</time>
      </trkpt>
      <trkpt lat="38.723633" lon="-5.583383">
        <ele>809.0</ele>
        <time>2019-05-04T16:24:32Z</time>
      </trkpt>
      <trkpt lat="38.723650" lon="-5.583267">
        <ele>807.0</ele>
        <time>2019-05-04T16:24:33Z</time>
      </trkpt>
      <trkpt lat="38.723667" lon="-5.583150">
        <ele>805.0</ele>
        <time>2019-05-04T16:24:34Z</time>
      </trkpt>
      <trkpt lat="38.723667" lon="-5.583033">
        <ele>803.0</ele>
        <time>2019-05-04T16:24:35Z</time>
      </trkpt>
      <trkpt lat="38.723700" lon="-5.582917">
        <ele>801.0</ele>
        <time>2019-05-04T16:24:36Z</time>
      </trkpt>
      <trkpt lat="38.723733" lon="-5.582783">
        <ele>798.0</ele>
        <time>2019-05-04T16:24:37Z</time>
      </trkpt>
      <trkpt lat="38.723767" lon="-5.582650">
        <ele>797.0</ele>
        <time>2019-05-04T16:24:38Z</time>
      </trkpt>
      <trkpt lat="38.723767" lon="-5.582517">
        <ele>796.0</ele>
        <time>2019-05-04T16:24:39Z</time>
      </trkpt>
      <trkpt lat="38.723767" lon="-5.582400">
        <ele>797.0</ele>
        <time>2019-05-04T16:24:40Z</time>
      </trkpt>
      <trkpt lat="38.723767" lon="-5.582300">
        <ele>799.0</ele>
        <time>2019-05-04T16:24:41Z</time>
      </trkpt>
      <trkpt lat="38.723783" lon="-5.582200">
        <ele>798.0</ele>
        <time>2019-05-04T16:24:42Z</time>
      </trkpt>
      <trkpt lat="38.723783" lon="-5.582083">
        <ele>798.0</ele>
        <time>2019-05-04T16:24:43Z</time>
      </trkpt>
      <trkpt lat="38.723800" lon="-5.581967">
        <ele>797.0</ele>
        <time>2019-05-04T16:24:44Z</time>
      </trkpt>
      <trkpt lat="38.723800" lon="-5.581833">
        <ele>796.0</ele>
        <time>2019-05-04T16:24:45Z</time>
      </trkpt>
      <trkpt lat="38.723783" lon="-5.581717">
        <ele>795.0</ele>
        <time>2019-05-04T16:24:46Z</time>
      </trkpt>
      <trkpt lat="38.723783" lon="-5.581583">
        <ele>794.0</ele>
        <time>2019-05-04T16:24:47Z</time>
      </trkpt>
      <trkpt lat="38.723783" lon="-5.581467">
        <ele>795.0</ele>
        <time>2019-05-04T16:24:48Z</time>
      </trkpt>
      <trkpt lat="38.723783" lon="-5.581350">
        <ele>796.0</ele>
        <time>2019-05-04T16:24:49Z</time>
      </trkpt>
      <trkpt lat="38.723767" lon="-5.581250">
        <ele>796.0</ele>
        <time>2019-05-04T16:24:50Z</time>
      </trkpt>
      <trkpt lat="38.723750" lon="-5.581133">
        <ele>796.0</ele>
        <time>2019-05-04T16:24:51Z</time>
      </trkpt>
      <trkpt lat="38.723717" lon="-5.581033">
        <ele>796.0</ele>
        <time>2019-05-04T16:24:52Z</time>
      </trkpt>
      <trkpt lat="38.723717" lon="-5.580917">
        <ele>795.0</ele>
        <time>2019-05-04T16:24:53Z</time>
      </trkpt>
      <trkpt lat="38.723700" lon="-5.580800">
        <ele>794.0</ele>
        <time>2019-05-04T16:24:54Z</time>
      </trkpt>
      <trkpt lat="38.723683" lon="-5.580683">
        <ele>793.0</ele>
        <time>2019-05-04T16:24:55Z</time>
      </trkpt>
      <trkpt lat="38.723683" lon="-5.580550">
        <ele>792.0</ele>
        <time>2019-05-04T16:24:56Z</time>
      </trkpt>
      <trkpt lat="38.723667" lon="-5.580417">
        <ele>791.0</ele>
        <time>2019-05-04T16:24:57Z</time>
      </trkpt>
      <trkpt lat="38.723667" lon="-5.580283">
        <ele>790.0</ele>
        <time>2019-05-04T16:24:58Z</time>
      </trkpt>
      <trkpt lat="38.723650" lon="-5.580150">
        <ele>789.0</ele>
        <time>2019-05-04T16:24:59Z</time>
      </trkpt>
      <trkpt lat="38.723633" lon="-5.580017">
        <ele>788.0</ele>
        <time>2019-05-04T16:25:00Z</time>
      </trkpt>
      <trkpt lat="38.723633" lon="-5.579867">
        <ele>787.0</ele>
        <time>2019-05-04T16:25:01Z</time>
      </trkpt>
      <trkpt lat="38.723633" lon="-5.579750">
        <ele>785.0</ele>
        <time>2019-05-04T16:25:02Z</time>
      </trkpt>
      <trkpt lat="38.723617" lon="-5.579600">
        <ele>784.0</ele>
        <time>2019-05-04T16:25:03Z</time>
      </trkpt>
      <trkpt lat="38.723617" lon="-5.579450">
        <ele>782.0</ele>
        <time>2019-05-04T16:25:04Z</time>
      </trkpt>
      <trkpt lat="38.723617" lon="-5.579317">
        <ele>782.0</ele>
        <time>2019-05-04T16:25:05Z</time>
      </trkpt>
      <trkpt lat="38.723600" lon="-5.579200">
        <ele>781.0</ele>
        <time>2019-05-04T16:25:06Z</time>
      </trkpt>
      <trkpt lat="38.723600" lon="-5.579100">
        <ele>780.0</ele>
        <time>2019-05-04T16:25:07Z</time>
      </trkpt>
      <trkpt lat="38.723583" lon="-5.578967">
        <ele>779.0</ele>
        <time>2019-05-04T16:25:08Z</time>
      </trkpt>
      <trkpt lat="38.723567" lon="-5.578817">
        <ele>776.0</ele>
        <time>2019-05-04T16:25:09Z</time>
      </trkpt>
      <trkpt lat="38.723567" lon="-5.578667">
        <ele>774.0</ele>
        <time>2019-05-04T16:25:10Z</time>
      </trkpt>
      <trkpt lat="38.723567" lon="-5.578533">
        <ele>773.0</ele>
        <time>2019-05-04T16:25:11Z</time>
      </trkpt>
      <trkpt lat="38.723567" lon="-5.578400">
        <ele>771.0</ele>
        <time>2019-05-04T16:25:12Z</time>
      </trkpt>
      <trkpt lat="38.723567" lon="-5.578283">
        <ele>770.0</ele>
        <time>2019-05-04T16:25:13Z</time>
      </trkpt>
      <trkpt lat="38.723550" lon="-5.578150">
        <ele>768.0</ele>
        <time>2019-05-04T16:25:14Z</time>
      </trkpt>
      <trkpt lat="38.723550" lon="-5.578000">
        <ele>767.0</ele>
        <time>2019-05-04T16:25:15Z</time>
      </trkpt>
      <trkpt lat="38.723567" lon="-5.577867">
        <ele>764.0</ele>
        <time>2019-05-04T16:25:16Z</time>
      </trkpt>
      <trkpt lat="38.723567" lon="-5.577717">
        <ele>762.0</ele>
        <time>2019-05-04T16:25:17Z</time>
      </trkpt>
      <trkpt lat="38.723583" lon="-5.577583">
        <ele>761.0</ele>
        <time>2019-05-04T16:25:18Z</time>
      </trkpt>
      <trkpt lat="38.723600" lon="-5.577467">
        <ele>759.0</ele>
        <time>2019-05-04T16:25:19Z</time>
      </trkpt>
      <trkpt lat="38.723600" lon="-5.577333">
        <ele>757.0</ele>
        <time>2019-05-04T16:25:20Z</time>
      </trkpt>
      <trkpt lat="38.723617" lon="-5.577183">
        <ele>755.0</ele>
        <time>2019-05-04T16:25:21Z</time>
      </trkpt>
      <trkpt lat="38.723617" lon="-5.577050">
        <ele>752.0</ele>
        <time>2019-05-04T16:25:22Z</time>
      </trkpt>
      <trkpt lat="38.723617" lon="-5.576917">
        <ele>749.0</ele>
        <time>2019-05-04T16:25:23Z</time>
      </trkpt>
      <trkpt lat="38.723633" lon="-5.576783">
        <ele>748.0</ele>
        <time>2019-05-04T16:25:24Z</time>
      </trkpt>
      <trkpt lat="38.723650" lon="-5.576667">
        <ele>746.0</ele>
        <time>2019-05-04T16:25:25Z</time>
      </trkpt>
      <trkpt lat="38.723667" lon="-5.576533">
        <ele>744.0</ele>
        <time>2019-05-04T16:25:26Z</time>
      </trkpt>
      <trkpt lat="38.723667" lon="-5.576400">
        <ele>742.0</ele>
        <time>2019-05-04T16:25:27Z</time>
      </trkpt>
      <trkpt lat="38.723683" lon="-5.576250">
        <ele>740.0</ele>
        <time>2019-05-04T16:25:28Z</time>
      </trkpt>
      <trkpt lat="38.723700" lon="-5.576117">
        <ele>737.0</ele>
        <time>2019-05-04T16:25:29Z</time>
      </trkpt>
      <trkpt lat="38.723717" lon="-5.575983">
        <ele>735.0</ele>
        <time>2019-05-04T16:25:30Z</time>
      </trkpt>
      <trkpt lat="38.723733" lon="-5.575850">
        <ele>733.0</ele>
        <time>2019-05-04T16:25:31Z</time>
      </trkpt>
      <trkpt lat="38.723750" lon="-5.575717">
        <ele>731.0</ele>
        <time>2019-05-04T16:25:32Z</time>
      </trkpt>
      <trkpt lat="38.723750" lon="-5.575567">
        <ele>729.0</ele>
        <time>2019-05-04T16:25:33Z</time>
      </trkpt>
      <trkpt lat="38.723750" lon="-5.575417">
        <ele>727.0</ele>
        <time>2019-05-04T16:25:34Z</time>
      </trkpt>
      <trkpt lat="38.723767" lon="-5.575267">
        <ele>725.0</ele>
        <time>2019-05-04T16:25:35Z</time>
      </trkpt>
      <trkpt lat="38.723767" lon="-5.575117">
        <ele>723.0</ele>
        <time>2019-05-04T16:25:36Z</time>
      </trkpt>
      <trkpt lat="38.723783" lon="-5.574967">
        <ele>721.0</ele>
        <time>2019-05-04T16:25:37Z</time>
      </trkpt>
      <trkpt lat="38.723783" lon="-5.574833">
        <ele>720.0</ele>
        <time>2019-05-04T16:25:38Z</time>
      </trkpt>
      <trkpt lat="38.723800" lon="-5.574700">
        <ele>719.0</ele>
        <time>2019-05-04T16:25:39Z</time>
      </trkpt>
      <trkpt lat="38.723817" lon="-5.574567">
        <ele>717.0</ele>
        <time>2019-05-04T16:25:40Z</time>
      </trkpt>
      <trkpt lat="38.723817" lon="-5.574417">
        <ele>716.0</ele>
        <time>2019-05-04T16:25:41Z</time>
      </trkpt>
      <trkpt lat="38.723817" lon="-5.574267">
        <ele>715.0</ele>
        <time>2019-05-04T16:25:42Z</time>
      </trkpt>
      <trkpt lat="38.723817" lon="-5.574100">
        <ele>713.0</ele>
        <time>2019-05-04T16:25:43Z</time>
      </trkpt>
      <trkpt lat="38.723817" lon="-5.573950">
        <ele>712.0</ele>
        <time>2019-05-04T16:25:44Z</time>
      </trkpt>
      <trkpt lat="38.723833" lon="-5.573800">
        <ele>711.0</ele>
        <time>2019-05-04T16:25:45Z</time>
      </trkpt>
      <trkpt lat="38.723833" lon="-5.573667">
        <ele>710.0</ele>
        <time>2019-05-04T16:25:46Z</time>
      </trkpt>
      <trkpt lat="38.723833" lon="-5.573517">
        <ele>710.0</ele>
        <time>2019-05-04T16:25:47Z</time>
      </trkpt>
      <trkpt lat="38.723850" lon="-5.573367">
        <ele>711.0</ele>
        <time>2019-05-04T16:25:48Z</time>
      </trkpt>
      <trkpt lat="38.723850" lon="-5.573250">
        <ele>712.0</ele>
        <time>2019-05-04T16:25:49Z</time>
      </trkpt>
      <trkpt lat="38.723833" lon="-5.573150">
        <ele>716.0</ele>
        <time>2019-05-04T16:25:50Z</time>
      </trkpt>
      <trkpt lat="38.723817" lon="-5.573017">
        <ele>724.0</ele>
        <time>2019-05-04T16:25:51Z</time>
      </trkpt>
      <trkpt lat="38.723817" lon="-5.572900">
        <ele>724.0</ele>
        <time>2019-05-04T16:25:52Z</time>
      </trkpt>
      <trkpt lat="38.723850" lon="-5.572767">
        <ele>725.0</ele>
        <time>2019-05-04T16:25:53Z</time>
      </trkpt>
      <trkpt lat="38.723900" lon="-5.572633">
        <ele>725.0</ele>
        <time>2019-05-04T16:25:54Z</time>
      </trkpt>
      <trkpt lat="38.723983" lon="-5.572533">
        <ele>725.0</ele>
        <time>2019-05-04T16:25:55Z</time>
      </trkpt>
      <trkpt lat="38.724067" lon="-5.572467">
        <ele>727.0</ele>
        <time>2019-05-04T16:25:56Z</time>
      </trkpt>
      <trkpt lat="38.724133" lon="-5.572450">
        <ele>730.0</ele>
        <time>2019-05-04T16:25:57Z</time>
      </trkpt>
      <trkpt lat="38.724183" lon="-5.572467">
        <ele>731.0</ele>
        <time>2019-05-04T16:25:58Z</time>
      </trkpt>
      <trkpt lat="38.724233" lon="-5.572500">
        <ele>733.0</ele>
        <time>2019-05-04T16:25:59Z</time>
      </trkpt>
      <trkpt lat="38.724250" lon="-5.572550">
        <ele>735.0</ele>
        <time>2019-05-04T16:26:00Z</time>
      </trkpt>
      <trkpt lat="38.724267" lon="-5.572600">
        <ele>737.0</ele>
        <time>2019-05-04T16:26:01Z</time>
      </trkpt>
      <trkpt lat="38.724267" lon="-5.572650">
        <ele>738.0</ele>
        <time>2019-05-04T16:26:02Z</time>
      </trkpt>
      <trkpt lat="38.724233" lon="-5.572700">
        <ele>739.0</ele>
        <time>2019-05-04T16:26:03Z</time>
      </trkpt>
      <trkpt lat="38.724183" lon="-5.572750">
        <ele>739.0</ele>
        <time>2019-05-04T16:26:04Z</time>
      </trkpt>
      <trkpt lat="38.724117" lon="-5.572800">
        <ele>740.0</ele>
        <time>2019-05-04T16:26:05Z</time>
      </trkpt>
      <trkpt lat="38.724017" lon="-5.572817">
        <ele>740.0</ele>
        <time>2019-05-04T16:26:06Z</time>
      </trkpt>
      <trkpt lat="38.723933" lon="-5.572800">
        <ele>742.0</ele>
        <time>2019-05-04T16:26:07Z</time>
      </trkpt>
      <trkpt lat="38.723833" lon="-5.572750">
        <ele>743.0</ele>
        <time>2019-05-04T16:26:08Z</time>
      </trkpt>
      <trkpt lat="38.723733" lon="-5.572683">
        <ele>744.0</ele>
        <time>2019-05-04T16:26:09Z</time>
      </trkpt>
      <trkpt lat="38.723667" lon="-5.572583">
        <ele>746.0</ele>
        <time>2019-05-04T16:26:10Z</time>
      </trkpt>
      <trkpt lat="38.723617" lon="-5.572483">
        <ele>749.0</ele>
        <time>2019-05-04T16:26:11Z</time>
      </trkpt>
      <trkpt lat="38.723600" lon="-5.572367">
        <ele>752.0</ele>
        <time>2019-05-04T16:26:12Z</time>
      </trkpt>
      <trkpt lat="38.723600" lon="-5.572233">
        <ele>754.0</ele>
        <time>2019-05-04T16:26:13Z</time>
      </trkpt>
      <trkpt lat="38.723600" lon="-5.572100">
        <ele>756.0</ele>
        <time>2019-05-04T16:26:14Z</time>
      </trkpt>
      <trkpt lat="38.723617" lon="-5.571967">
        <ele>757.0</ele>
        <time>2019-05-04T16:26:15Z</time>
      </trkpt>
      <trkpt lat="38.723650" lon="-5.571833">
        <ele>759.0</ele>
        <time>2019-05-04T16:26:16Z</time>
      </trkpt>
      <trkpt lat="38.723700" lon="-5.571733">
        <ele>761.0</ele>
        <time>2019-05-04T16:26:17Z</time>
      </trkpt>
      <trkpt lat="38.723767" lon="-5.571650">
        <ele>762.0</ele>
        <time>2019-05-04T16:26:18Z</time>
      </trkpt>
      <trkpt lat="38.723833" lon="-5.571617">
        <ele>763.0</ele>
        <time>2019-05-04T16:26:19Z</time>
      </trkpt>
      <trkpt lat="38.723900" lon="-5.571583">
        <ele>765.0</ele>
        <time>2019-05-04T16:26:20Z</time>
      </trkpt>
      <trkpt lat="38.723950" lon="-5.571600">
        <ele>767.0</ele>
        <time>2019-05-04T16:26:21Z</time>
      </trkpt>
      <trkpt lat="38.723967" lon="-5.571633">
        <ele>769.0</ele>
        <time>2019-05-04T16:26:22Z</time>
      </trkpt>
      <trkpt lat="38.723983" lon="-5.571667">
        <ele>770.0</ele>
        <time>2019-05-04T16:26:23Z</time>
      </trkpt>
      <trkpt lat="38.723983" lon="-5.571733">
        <ele>771.0</ele>
        <time>2019-05-04T16:26:24Z</time>
      </trkpt>
      <trkpt lat="38.723950" lon="-5.571783">
        <ele>771.0</ele>
        <time>2019-05-04T16:26:25Z</time>
      </trkpt>
      <trkpt lat="38.723900" lon="-5.571817">
        <ele>772.0</ele>
        <time>2019-05-04T16:26:26Z</time>
      </trkpt>
      <trkpt lat="38.723833" lon="-5.571833">
        <ele>773.0</ele>
        <time>2019-05-04T16:26:27Z</time>
      </trkpt>
      <trkpt lat="38.723750" lon="-5.571800">
        <ele>774.0</ele>
        <time>2019-05-04T16:26:28Z</time>
      </trkpt>
      <trkpt lat="38.723667" lon="-5.571733">
        <ele>774.0</ele>
        <time>2019-05-04T16:26:29Z</time>
      </trkpt>
      <trkpt lat="38.723600" lon="-5.571650">
        <ele>776.0</ele>
        <time>2019-05-04T16:26:30Z</time>
      </trkpt>
      <trkpt lat="38.723533" lon="-5.571533">
        <ele>779.0</ele>
        <time>2019-05-04T16:26:31Z</time>
      </trkpt>
      <trkpt lat="38.723500" lon="-5.571417">
        <ele>782.0</ele>
        <time>2019-05-04T16:26:32Z</time>
      </trkpt>
      <trkpt lat="38.723467" lon="-5.571300">
        <ele>784.0</ele>
        <time>2019-05-04T16:26:33Z</time>
      </trkpt>
      <trkpt lat="38.723467" lon="-5.571150">
        <ele>786.0</ele>
        <time>2019-05-04T16:26:34Z</time>
      </trkpt>
      <trkpt lat="38.723467" lon="-5.571000">
        <ele>788.0</ele>
        <time>2019-05-04T16:26:35Z</time>
      </trkpt>
      <trkpt lat="38.723500" lon="-5.570867">
        <ele>789.0</ele>
        <time>2019-05-04T16:26:36Z</time>
      </trkpt>
      <trkpt lat="38.723567" lon="-5.570767">
        <ele>791.0</ele>
        <time>2019-05-04T16:26:37Z</time>
      </trkpt>
      <trkpt lat="38.723633" lon="-5.570700">
        <ele>792.0</ele>
        <time>2019-05-04T16:26:38Z</time>
      </trkpt>
      <trkpt lat="38.723700" lon="-5.570667">
        <ele>793.0</ele>
        <time>2019-05-04T16:26:39Z</time>
      </trkpt>
      <trkpt lat="38.723750" lon="-5.570667">
        <ele>794.0</ele>
        <time>2019-05-04T16:26:40Z</time>
      </trkpt>
      <trkpt lat="38.723783" lon="-5.570717">
        <ele>795.0</ele>
        <time>2019-05-04T16:26:41Z</time>
      </trkpt>
      <trkpt lat="38.723767" lon="-5.570783">
        <ele>796.0</ele>
        <time>2019-05-04T16:26:42Z</time>
      </trkpt>
      <trkpt lat="38.723733" lon="-5.570833">
        <ele>796.0</ele>
        <time>2019-05-04T16:26:43Z</time>
      </trkpt>
      <trkpt lat="38.723650" lon="-5.570850">
        <ele>798.0</ele>
        <time>2019-05-04T16:26:44Z</time>
      </trkpt>
      <trkpt lat="38.723567" lon="-5.570833">
        <ele>799.0</ele>
        <time>2019-05-04T16:26:45Z</time>
      </trkpt>
      <trkpt lat="38.723483" lon="-5.570783">
        <ele>801.0</ele>
        <time>2019-05-04T16:26:46Z</time>
      </trkpt>
      <trkpt lat="38.723383" lon="-5.570683">
        <ele>803.0</ele>
        <time>2019-05-04T16:26:47Z</time>
      </trkpt>
      <trkpt lat="38.723333" lon="-5.570550">
        <ele>806.0</ele>
        <time>2019-05-04T16:26:48Z</time>
      </trkpt>
      <trkpt lat="38.723317" lon="-5.570417">
        <ele>809.0</ele>
        <time>2019-05-04T16:26:49Z</time>
      </trkpt>
      <trkpt lat="38.723333" lon="-5.570267">
        <ele>811.0</ele>
        <time>2019-05-04T16:26:50Z</time>
      </trkpt>
      <trkpt lat="38.723350" lon="-5.570133">
        <ele>813.0</ele>
        <time>2019-05-04T16:26:51Z</time>
      </trkpt>
      <trkpt lat="38.723400" lon="-5.570033">
        <ele>815.0</ele>
        <time>2019-05-04T16:26:52Z</time>
      </trkpt>
      <trkpt lat="38.723450" lon="-5.569950">
        <ele>818.0</ele>
        <time>2019-05-04T16:26:53Z</time>
      </trkpt>
      <trkpt lat="38.723500" lon="-5.569900">
        <ele>819.0</ele>
        <time>2019-05-04T16:26:54Z</time>
      </trkpt>
      <trkpt lat="38.723550" lon="-5.569883">
        <ele>819.0</ele>
        <time>2019-05-04T16:26:55Z</time>
      </trkpt>
      <trkpt lat="38.723600" lon="-5.569883">
        <ele>818.0</ele>
        <time>2019-05-04T16:26:56Z</time>
      </trkpt>
      <trkpt lat="38.723633" lon="-5.569917">
        <ele>817.0</ele>
        <time>2019-05-04T16:26:57Z</time>
      </trkpt>
      <trkpt lat="38.723650" lon="-5.569967">
        <ele>817.0</ele>
        <time>2019-05-04T16:26:58Z</time>
      </trkpt>
      <trkpt lat="38.723633" lon="-5.570017">
        <ele>816.0</ele>
        <time>2019-05-04T16:26:59Z</time>
      </trkpt>
      <trkpt lat="38.723583" lon="-5.570067">
        <ele>815.0</ele>
        <time>2019-05-04T16:27:00Z</time>
      </trkpt>
      <trkpt lat="38.723517" lon="-5.570083">
        <ele>816.0</ele>
        <time>2019-05-04T16:27:01Z</time>
      </trkpt>
      <trkpt lat="38.723450" lon="-5.570100">
        <ele>818.0</ele>
        <time>2019-05-04T16:27:02Z</time>
      </trkpt>
      <trkpt lat="38.723400" lon="-5.570100">
        <ele>821.0</ele>
        <time>2019-05-04T16:27:03Z</time>
      </trkpt>
      <trkpt lat="38.723333" lon="-5.570100">
        <ele>822.0</ele>
        <time>2019-05-04T16:27:04Z</time>
      </trkpt>
      <trkpt lat="38.723267" lon="-5.570100">
        <ele>823.0</ele>
        <time>2019-05-04T16:27:05Z</time>
      </trkpt>
      <trkpt lat="38.723183" lon="-5.570067">
        <ele>824.0</ele>
        <time>2019-05-04T16:27:06Z</time>
      </trkpt>
      <trkpt lat="38.723100" lon="-5.570017">
        <ele>826.0</ele>
        <time>2019-05-04T16:27:07Z</time>
      </trkpt>
      <trkpt lat="38.723033" lon="-5.569917">
        <ele>827.0</ele>
        <time>2019-05-04T16:27:08Z</time>
      </trkpt>
      <trkpt lat="38.722967" lon="-5.569800">
        <ele>828.0</ele>
        <time>2019-05-04T16:27:09Z</time>
      </trkpt>
      <trkpt lat="38.722917" lon="-5.569667">
        <ele>830.0</ele>
        <time>2019-05-04T16:27:10Z</time>
      </trkpt>
      <trkpt lat="38.722883" lon="-5.569500">
        <ele>830.0</ele>
        <time>2019-05-04T16:27:11Z</time>
      </trkpt>
      <trkpt lat="38.722883" lon="-5.569350">
        <ele>830.0</ele>
        <time>2019-05-04T16:27:12Z</time>
      </trkpt>
      <trkpt lat="38.722933" lon="-5.569200">
        <ele>830.0</ele>
        <time>2019-05-04T16:27:13Z</time>
      </trkpt>
      <trkpt lat="38.723000" lon="-5.569083">
        <ele>830.0</ele>
        <time>2019-05-04T16:27:14Z</time>
      </trkpt>
      <trkpt lat="38.723067" lon="-5.569050">
        <ele>830.0</ele>
        <time>2019-05-04T16:27:15Z</time>
      </trkpt>
      <trkpt lat="38.723133" lon="-5.569033">
        <ele>831.0</ele>
        <time>2019-05-04T16:27:16Z</time>
      </trkpt>
      <trkpt lat="38.723167" lon="-5.569017">
        <ele>833.0</ele>
        <time>2019-05-04T16:27:17Z</time>
      </trkpt>
      <trkpt lat="38.723200" lon="-5.569017">
        <ele>833.0</ele>
        <time>2019-05-04T16:27:18Z</time>
      </trkpt>
      <trkpt lat="38.723250" lon="-5.569033">
        <ele>833.0</ele>
        <time>2019-05-04T16:27:19Z</time>
      </trkpt>
      <trkpt lat="38.723283" lon="-5.569067">
        <ele>833.0</ele>
        <time>2019-05-04T16:27:20Z</time>
      </trkpt>
      <trkpt lat="38.723300" lon="-5.569133">
        <ele>832.0</ele>
        <time>2019-05-04T16:27:21Z</time>
      </trkpt>
      <trkpt lat="38.723267" lon="-5.569183">
        <ele>831.0</ele>
        <time>2019-05-04T16:27:22Z</time>
      </trkpt>
      <trkpt lat="38.723200" lon="-5.569217">
        <ele>831.0</ele>
        <time>2019-05-04T16:27:23Z</time>
      </trkpt>
      <trkpt lat="38.723100" lon="-5.569200">
        <ele>830.0</ele>
        <time>2019-05-04T16:27:24Z</time>
      </trkpt>
      <trkpt lat="38.722983" lon="-5.569150">
        <ele>830.0</ele>
        <time>2019-05-04T16:27:25Z</time>
      </trkpt>
      <trkpt lat="38.722900" lon="-5.569083">
        <ele>831.0</ele>
        <time>2019-05-04T16:27:26Z</time>
      </trkpt>
      <trkpt lat="38.722817" lon="-5.568983">
        <ele>832.0</ele>
        <time>2019-05-04T16:27:27Z</time>
      </trkpt>
      <trkpt lat="38.722750" lon="-5.568867">
        <ele>832.0</ele>
        <time>2019-05-04T16:27:28Z</time>
      </trkpt>
      <trkpt lat="38.722700" lon="-5.568733">
        <ele>832.0</ele>
        <time>2019-05-04T16:27:29Z</time>
      </trkpt>
      <trkpt lat="38.722667" lon="-5.568583">
        <ele>832.0</ele>
        <time>2019-05-04T16:27:30Z</time>
      </trkpt>
      <trkpt lat="38.722633" lon="-5.568433">
        <ele>832.0</ele>
        <time>2019-05-04T16:27:31Z</time>
      </trkpt>
      <trkpt lat="38.722633" lon="-5.568283">
        <ele>832.0</ele>
        <time>2019-05-04T16:27:32Z</time>
      </trkpt>
      <trkpt lat="38.722633" lon="-5.568133">
        <ele>833.0</ele>
        <time>2019-05-04T16:27:33Z</time>
      </trkpt>
      <trkpt lat="38.722650" lon="-5.568000">
        <ele>833.0</ele>
        <time>2019-05-04T16:27:34Z</time>
      </trkpt>
      <trkpt lat="38.722667" lon="-5.567883">
        <ele>833.0</ele>
        <time>2019-05-04T16:27:35Z</time>
      </trkpt>
      <trkpt lat="38.722683" lon="-5.567767">
        <ele>833.0</ele>
        <time>2019-05-04T16:27:36Z</time>
      </trkpt>
      <trkpt lat="38.722700" lon="-5.567667">
        <ele>831.0</ele>
        <time>2019-05-04T16:27:37Z</time>
      </trkpt>
      <trkpt lat="38.722733" lon="-5.567550">
        <ele>829.0</ele>
        <time>2019-05-04T16:27:38Z</time>
      </trkpt>
      <trkpt lat="38.722767" lon="-5.567417">
        <ele>827.0</ele>
        <time>2019-05-04T16:27:39Z</time>
      </trkpt>
      <trkpt lat="38.722800" lon="-5.567283">
        <ele>825.0</ele>
        <time>2019-05-04T16:27:40Z</time>
      </trkpt>
      <trkpt lat="38.722800" lon="-5.567133">
        <ele>824.0</ele>
        <time>2019-05-04T16:27:41Z</time>
      </trkpt>
      <trkpt lat="38.722800" lon="-5.567000">
        <ele>823.0</ele>
        <time>2019-05-04T16:27:42Z</time>
      </trkpt>
      <trkpt lat="38.722817" lon="-5.566867">
        <ele>822.0</ele>
        <time>2019-05-04T16:27:43Z</time>
      </trkpt>
      <trkpt lat="38.722817" lon="-5.566733">
        <ele>822.0</ele>
        <time>2019-05-04T16:27:44Z</time>
      </trkpt>
      <trkpt lat="38.722833" lon="-5.566600">
        <ele>822.0</ele>
        <time>2019-05-04T16:27:45Z</time>
      </trkpt>
      <trkpt lat="38.722833" lon="-5.566483">
        <ele>822.0</ele>
        <time>2019-05-04T16:27:46Z</time>
      </trkpt>
      <trkpt lat="38.722850" lon="-5.566367">
        <ele>824.0</ele>
        <time>2019-05-04T16:27:47Z</time>
      </trkpt>
      <trkpt lat="38.722850" lon="-5.566250">
        <ele>827.0</ele>
        <time>2019-05-04T16:27:48Z</time>
      </trkpt>
      <trkpt lat="38.722867" lon="-5.566133">
        <ele>828.0</ele>
        <time>2019-05-04T16:27:49Z</time>
      </trkpt>
      <trkpt lat="38.722883" lon="-5.566017">
        <ele>829.0</ele>
        <time>2019-05-04T16:27:50Z</time>
      </trkpt>
      <trkpt lat="38.722917" lon="-5.565917">
        <ele>829.0</ele>
        <time>2019-05-04T16:27:51Z</time>
      </trkpt>
      <trkpt lat="38.722983" lon="-5.565817">
        <ele>830.0</ele>
        <time>2019-05-04T16:27:52Z</time>
      </trkpt>
      <trkpt lat="38.723050" lon="-5.565767">
        <ele>831.0</ele>
        <time>2019-05-04T16:27:53Z</time>
      </trkpt>
      <trkpt lat="38.723133" lon="-5.565767">
        <ele>831.0</ele>
        <time>2019-05-04T16:27:54Z</time>
      </trkpt>
      <trkpt lat="38.723200" lon="-5.565800">
        <ele>831.0</ele>
        <time>2019-05-04T16:27:55Z</time>
      </trkpt>
      <trkpt lat="38.723250" lon="-5.565867">
        <ele>832.0</ele>
        <time>2019-05-04T16:27:56Z</time>
      </trkpt>
      <trkpt lat="38.723267" lon="-5.565933">
        <ele>833.0</ele>
        <time>2019-05-04T16:27:57Z</time>
      </trkpt>
      <trkpt lat="38.723250" lon="-5.566017">
        <ele>834.0</ele>
        <time>2019-05-04T16:27:58Z</time>
      </trkpt>
      <trkpt lat="38.723200" lon="-5.566100">
        <ele>834.0</ele>
        <time>2019-05-04T16:27:59Z</time>
      </trkpt>
      <trkpt lat="38.723133" lon="-5.566133">
        <ele>835.0</ele>
        <time>2019-05-04T16:28:00Z</time>
      </trkpt>
      <trkpt lat="38.723033" lon="-5.566150">
        <ele>836.0</ele>
        <time>2019-05-04T16:28:01Z</time>
      </trkpt>
      <trkpt lat="38.722950" lon="-5.566117">
        <ele>837.0</ele>
        <time>2019-05-04T16:28:02Z</time>
      </trkpt>
      <trkpt lat="38.722867" lon="-5.566033">
        <ele>837.0</ele>
        <time>2019-05-04T16:28:03Z</time>
      </trkpt>
      <trkpt lat="38.722817" lon="-5.565950">
        <ele>838.0</ele>
        <time>2019-05-04T16:28:04Z</time>
      </trkpt>
      <trkpt lat="38.722767" lon="-5.565850">
        <ele>840.0</ele>
        <time>2019-05-04T16:28:05Z</time>
      </trkpt>
      <trkpt lat="38.722717" lon="-5.565750">
        <ele>842.0</ele>
        <time>2019-05-04T16:28:06Z</time>
      </trkpt>
      <trkpt lat="38.722683" lon="-5.565667">
        <ele>844.0</ele>
        <time>2019-05-04T16:28:07Z</time>
      </trkpt>
      <trkpt lat="38.722633" lon="-5.565567">
        <ele>845.0</ele>
        <time>2019-05-04T16:28:08Z</time>
      </trkpt>
      <trkpt lat="38.722617" lon="-5.565467">
        <ele>845.0</ele>
        <time>2019-05-04T16:28:09Z</time>
      </trkpt>
      <trkpt lat="38.722600" lon="-5.565350">
        <ele>844.0</ele>
        <time>2019-05-04T16:28:10Z</time>
      </trkpt>
      <trkpt lat="38.722617" lon="-5.565217">
        <ele>842.0</ele>
        <time>2019-05-04T16:28:11Z</time>
      </trkpt>
      <trkpt lat="38.722667" lon="-5.565117">
        <ele>841.0</ele>
        <time>2019-05-04T16:28:12Z</time>
      </trkpt>
      <trkpt lat="38.722717" lon="-5.565017">
        <ele>841.0</ele>
        <time>2019-05-04T16:28:13Z</time>
      </trkpt>
      <trkpt lat="38.722783" lon="-5.564950">
        <ele>841.0</ele>
        <time>2019-05-04T16:28:14Z</time>
      </trkpt>
      <trkpt lat="38.722850" lon="-5.564917">
        <ele>842.0</ele>
        <time>2019-05-04T16:28:15Z</time>
      </trkpt>
      <trkpt lat="38.722917" lon="-5.564917">
        <ele>842.0</ele>
        <time>2019-05-04T16:28:16Z</time>
      </trkpt>
      <trkpt lat="38.722983" lon="-5.564917">
        <ele>842.0</ele>
        <time>2019-05-04T16:28:17Z</time>
      </trkpt>
      <trkpt lat="38.723067" lon="-5.564917">
        <ele>843.0</ele>
        <time>2019-05-04T16:28:18Z</time>
      </trkpt>
      <trkpt lat="38.723133" lon="-5.564933">
        <ele>844.0</ele>
        <time>2019-05-04T16:28:19Z</time>
      </trkpt>
      <trkpt lat="38.723200" lon="-5.564967">
        <ele>846.0</ele>
        <time>2019-05-04T16:28:20Z</time>
      </trkpt>
      <trkpt lat="38.723250" lon="-5.564983">
        <ele>848.0</ele>
        <time>2019-05-04T16:28:21Z</time>
      </trkpt>
      <trkpt lat="38.723300" lon="-5.565017">
        <ele>849.0</ele>
        <time>2019-05-04T16:28:22Z</time>
      </trkpt>
      <trkpt lat="38.723350" lon="-5.565067">
        <ele>850.0</ele>
        <time>2019-05-04T16:28:23Z</time>
      </trkpt>
      <trkpt lat="38.723383" lon="-5.565117">
        <ele>851.0</ele>
        <time>2019-05-04T16:28:24Z</time>
      </trkpt>
      <trkpt lat="38.723400" lon="-5.565167">
        <ele>852.0</ele>
        <time>2019-05-04T16:28:25Z</time>
      </trkpt>
      <trkpt lat="38.723417" lon="-5.565250">
        <ele>852.0</ele>
        <time>2019-05-04T16:28:26Z</time>
      </trkpt>
      <trkpt lat="38.723383" lon="-5.565333">
        <ele>851.0</ele>
        <time>2019-05-04T16:28:27Z</time>
      </trkpt>
      <trkpt lat="38.723333" lon="-5.565400">
        <ele>851.0</ele>
        <time>2019-05-04T16:28:28Z</time>
      </trkpt>
      <trkpt lat="38.723267" lon="-5.565450">
        <ele>852.0</ele>
        <time>2019-05-04T16:28:29Z</time>
      </trkpt>
      <trkpt lat="38.723200" lon="-5.565483">
        <ele>852.0</ele>
        <time>2019-05-04T16:28:30Z</time>
      </trkpt>
      <trkpt lat="38.723117" lon="-5.565467">
        <ele>853.0</ele>
        <time>2019-05-04T16:28:31Z</time>
      </trkpt>
      <trkpt lat="38.723033" lon="-5.565417">
        <ele>853.0</ele>
        <time>2019-05-04T16:28:32Z</time>
      </trkpt>
      <trkpt lat="38.722950" lon="-5.565350">
        <ele>852.0</ele>
        <time>2019-05-04T16:28:33Z</time>
      </trkpt>
      <trkpt lat="38.722900" lon="-5.565267">
        <ele>852.0</ele>
        <time>2019-05-04T16:28:34Z</time>
      </trkpt>
      <trkpt lat="38.722850" lon="-5.565150">
        <ele>851.0</ele>
        <time>2019-05-04T16:28:35Z</time>
      </trkpt>
      <trkpt lat="38.722833" lon="-5.565017">
        <ele>851.0</ele>
        <time>2019-05-04T16:28:36Z</time>
      </trkpt>
      <trkpt lat="38.722833" lon="-5.564883">
        <ele>851.0</ele>
        <time>2019-05-04T16:28:37Z</time>
      </trkpt>
      <trkpt lat="38.722850" lon="-5.564750">
        <ele>851.0</ele>
        <time>2019-05-04T16:28:38Z</time>
      </trkpt>
      <trkpt lat="38.722867" lon="-5.564633">
        <ele>854.0</ele>
        <time>2019-05-04T16:28:39Z</time>
      </trkpt>
      <trkpt lat="38.722883" lon="-5.564517">
        <ele>856.0</ele>
        <time>2019-05-04T16:28:40Z</time>
      </trkpt>
      <trkpt lat="38.722917" lon="-5.564400">
        <ele>857.0</ele>
        <time>2019-05-04T16:28:41Z</time>
      </trkpt>
      <trkpt lat="38.722950" lon="-5.564267">
        <ele>857.0</ele>
        <time>2019-05-04T16:28:42Z</time>
      </trkpt>
      <trkpt lat="38.723017" lon="-5.564150">
        <ele>858.0</ele>
        <time>2019-05-04T16:28:43Z</time>
      </trkpt>
      <trkpt lat="38.723067" lon="-5.564067">
        <ele>860.0</ele>
        <time>2019-05-04T16:28:44Z</time>
      </trkpt>
      <trkpt lat="38.723133" lon="-5.564017">
        <ele>862.0</ele>
        <time>2019-05-04T16:28:45Z</time>
      </trkpt>
      <trkpt lat="38.723183" lon="-5.563967">
        <ele>864.0</ele>
        <time>2019-05-04T16:28:46Z</time>
      </trkpt>
      <trkpt lat="38.723250" lon="-5.563900">
        <ele>864.0</ele>
        <time>2019-05-04T16:28:47Z</time>
      </trkpt>
      <trkpt lat="38.723317" lon="-5.563817">
        <ele>863.0</ele>
        <time>2019-05-04T16:28:48Z</time>
      </trkpt>
      <trkpt lat="38.723400" lon="-5.563767">
        <ele>863.0</ele>
        <time>2019-05-04T16:28:49Z</time>
      </trkpt>
      <trkpt lat="38.723483" lon="-5.563750">
        <ele>863.0</ele>
        <time>2019-05-04T16:28:50Z</time>
      </trkpt>
      <trkpt lat="38.723550" lon="-5.563783">
        <ele>863.0</ele>
        <time>2019-05-04T16:28:51Z</time>
      </trkpt>
      <trkpt lat="38.723583" lon="-5.563867">
        <ele>863.0</ele>
        <time>2019-05-04T16:28:52Z</time>
      </trkpt>
      <trkpt lat="38.723583" lon="-5.563933">
        <ele>864.0</ele>
        <time>2019-05-04T16:28:53Z</time>
      </trkpt>
      <trkpt lat="38.723550" lon="-5.564000">
        <ele>865.0</ele>
        <time>2019-05-04T16:28:54Z</time>
      </trkpt>
      <trkpt lat="38.723500" lon="-5.564033">
        <ele>865.0</ele>
        <time>2019-05-04T16:28:55Z</time>
      </trkpt>
      <trkpt lat="38.723433" lon="-5.564050">
        <ele>866.0</ele>
        <time>2019-05-04T16:28:56Z</time>
      </trkpt>
      <trkpt lat="38.723350" lon="-5.564050">
        <ele>867.0</ele>
        <time>2019-05-04T16:28:57Z</time>
      </trkpt>
      <trkpt lat="38.723267" lon="-5.564017">
        <ele>867.0</ele>
        <time>2019-05-04T16:28:58Z</time>
      </trkpt>
      <trkpt lat="38.723200" lon="-5.563933">
        <ele>868.0</ele>
        <time>2019-05-04T16:28:59Z</time>
      </trkpt>
      <trkpt lat="38.723150" lon="-5.563833">
        <ele>869.0</ele>
        <time>2019-05-04T16:29:00Z</time>
      </trkpt>
      <trkpt lat="38.723117" lon="-5.563717">
        <ele>869.0</ele>
        <time>2019-05-04T16:29:01Z</time>
      </trkpt>
      <trkpt lat="38.723117" lon="-5.563583">
        <ele>870.0</ele>
        <time>2019-05-04T16:29:02Z</time>
      </trkpt>
      <trkpt lat="38.723133" lon="-5.563467">
        <ele>871.0</ele>
        <time>2019-05-04T16:29:03Z</time>
      </trkpt>
      <trkpt lat="38.723200" lon="-5.563367">
        <ele>872.0</ele>
        <time>2019-05-04T16:29:04Z</time>
      </trkpt>
      <trkpt lat="38.723267" lon="-5.563317">
        <ele>872.0</ele>
        <time>2019-05-04T16:29:05Z</time>
      </trkpt>
      <trkpt lat="38.723350" lon="-5.563300">
        <ele>871.0</ele>
        <time>2019-05-04T16:29:06Z</time>
      </trkpt>
      <trkpt lat="38.723417" lon="-5.563300">
        <ele>873.0</ele>
        <time>2019-05-04T16:29:07Z</time>
      </trkpt>
      <trkpt lat="38.723467" lon="-5.563333">
        <ele>875.0</ele>
        <time>2019-05-04T16:29:08Z</time>
      </trkpt>
      <trkpt lat="38.723483" lon="-5.563350">
        <ele>877.0</ele>
        <time>2019-05-04T16:29:09Z</time>
      </trkpt>
      <trkpt lat="38.723483" lon="-5.563400">
        <ele>877.0</ele>
        <time>2019-05-04T16:29:10Z</time>
      </trkpt>
      <trkpt lat="38.723483" lon="-5.563450">
        <ele>878.0</ele>
        <time>2019-05-04T16:29:11Z</time>
      </trkpt>
      <trkpt lat="38.723467" lon="-5.563517">
        <ele>877.0</ele>
        <time>2019-05-04T16:29:12Z</time>
      </trkpt>
      <trkpt lat="38.723417" lon="-5.563567">
        <ele>878.0</ele>
        <time>2019-05-04T16:29:13Z</time>
      </trkpt>
      <trkpt lat="38.723333" lon="-5.563600">
        <ele>879.0</ele>
        <time>2019-05-04T16:29:14Z</time>
      </trkpt>
      <trkpt lat="38.723250" lon="-5.563600">
        <ele>879.0</ele>
        <time>2019-05-04T16:29:15Z</time>
      </trkpt>
      <trkpt lat="38.723150" lon="-5.563567">
        <ele>880.0</ele>
        <time>2019-05-04T16:29:16Z</time>
      </trkpt>
      <trkpt lat="38.723067" lon="-5.563500">
        <ele>880.0</ele>
        <time>2019-05-04T16:29:17Z</time>
      </trkpt>
      <trkpt lat="38.722983" lon="-5.563417">
        <ele>882.0</ele>
        <time>2019-05-04T16:29:18Z</time>
      </trkpt>
      <trkpt lat="38.722917" lon="-5.563317">
        <ele>882.0</ele>
        <time>2019-05-04T16:29:19Z</time>
      </trkpt>
      <trkpt lat="38.722867" lon="-5.563200">
        <ele>883.0</ele>
        <time>2019-05-04T16:29:20Z</time>
      </trkpt>
      <trkpt lat="38.722817" lon="-5.563100">
        <ele>885.0</ele>
        <time>2019-05-04T16:29:21Z</time>
      </trkpt>
      <trkpt lat="38.722817" lon="-5.562983">
        <ele>886.0</ele>
        <time>2019-05-04T16:29:22Z</time>
      </trkpt>
      <trkpt lat="38.722817" lon="-5.562867">
        <ele>886.0</ele>
        <time>2019-05-04T16:29:23Z</time>
      </trkpt>
      <trkpt lat="38.722817" lon="-5.562733">
        <ele>886.0</ele>
        <time>2019-05-04T16:29:24Z</time>
      </trkpt>
      <trkpt lat="38.722850" lon="-5.562617">
        <ele>886.0</ele>
        <time>2019-05-04T16:29:25Z</time>
      </trkpt>
      <trkpt lat="38.722900" lon="-5.562517">
        <ele>886.0</ele>
        <time>2019-05-04T16:29:26Z</time>
      </trkpt>
      <trkpt lat="38.722967" lon="-5.562450">
        <ele>886.0</ele>
        <time>2019-05-04T16:29:27Z</time>
      </trkpt>
      <trkpt lat="38.723033" lon="-5.562417">
        <ele>885.0</ele>
        <time>2019-05-04T16:29:28Z</time>
      </trkpt>
      <trkpt lat="38.723100" lon="-5.562450">
        <ele>884.0</ele>
        <time>2019-05-04T16:29:29Z</time>
      </trkpt>
      <trkpt lat="38.723133" lon="-5.562483">
        <ele>885.0</ele>
        <time>2019-05-04T16:29:30Z</time>
      </trkpt>
      <trkpt lat="38.723133" lon="-5.562550">
        <ele>885.0</ele>
        <time>2019-05-04T16:29:31Z</time>
      </trkpt>
      <trkpt lat="38.723117" lon="-5.562600">
        <ele>885.0</ele>
        <time>2019-05-04T16:29:32Z</time>
      </trkpt>
      <trkpt lat="38.723083" lon="-5.562650">
        <ele>885.0</ele>
        <time>2019-05-04T16:29:33Z</time>
      </trkpt>
      <trkpt lat="38.723017" lon="-5.562700">
        <ele>885.0</ele>
        <time>2019-05-04T16:29:34Z</time>
      </trkpt>
      <trkpt lat="38.722967" lon="-5.562733">
        <ele>885.0</ele>
        <time>2019-05-04T16:29:35Z</time>
      </trkpt>
      <trkpt lat="38.722883" lon="-5.562750">
        <ele>885.0</ele>
        <time>2019-05-04T16:29:36Z</time>
      </trkpt>
      <trkpt lat="38.722817" lon="-5.562750">
        <ele>886.0</ele>
        <time>2019-05-04T16:29:37Z</time>
      </trkpt>
      <trkpt lat="38.722733" lon="-5.562717">
        <ele>886.0</ele>
        <time>2019-05-04T16:29:38Z</time>
      </trkpt>
      <trkpt lat="38.722667" lon="-5.562683">
        <ele>886.0</ele>
        <time>2019-05-04T16:29:39Z</time>
      </trkpt>
      <trkpt lat="38.722583" lon="-5.562633">
        <ele>886.0</ele>
        <time>2019-05-04T16:29:40Z</time>
      </trkpt>
      <trkpt lat="38.722500" lon="-5.562550">
        <ele>886.0</ele>
        <time>2019-05-04T16:29:41Z</time>
      </trkpt>
      <trkpt lat="38.722433" lon="-5.562450">
        <ele>885.0</ele>
        <time>2019-05-04T16:29:42Z</time>
      </trkpt>
      <trkpt lat="38.722400" lon="-5.562333">
        <ele>886.0</ele>
        <time>2019-05-04T16:29:43Z</time>
      </trkpt>
      <trkpt lat="38.722400" lon="-5.562217">
        <ele>886.0</ele>
        <time>2019-05-04T16:29:44Z</time>
      </trkpt>
      <trkpt lat="38.722400" lon="-5.562100">
        <ele>886.0</ele>
        <time>2019-05-04T16:29:45Z</time>
      </trkpt>
      <trkpt lat="38.722400" lon="-5.561983">
        <ele>886.0</ele>
        <time>2019-05-04T16:29:46Z</time>
      </trkpt>
      <trkpt lat="38.722400" lon="-5.561850">
        <ele>886.0</ele>
        <time>2019-05-04T16:29:47Z</time>
      </trkpt>
      <trkpt lat="38.722400" lon="-5.561717">
        <ele>886.0</ele>
        <time>2019-05-04T16:29:48Z</time>
      </trkpt>
      <trkpt lat="38.722400" lon="-5.561583">
        <ele>886.0</ele>
        <time>2019-05-04T16:29:49Z</time>
      </trkpt>
      <trkpt lat="38.722400" lon="-5.561450">
        <ele>885.0</ele>
        <time>2019-05-04T16:29:50Z</time>
      </trkpt>
      <trkpt lat="38.722400" lon="-5.561317">
        <ele>885.0</ele>
        <time>2019-05-04T16:29:51Z</time>
      </trkpt>
      <trkpt lat="38.722400" lon="-5.561183">
        <ele>885.0</ele>
        <time>2019-05-04T16:29:52Z</time>
      </trkpt>
      <trkpt lat="38.722400" lon="-5.561067">
        <ele>884.0</ele>
        <time>2019-05-04T16:29:53Z</time>
      </trkpt>
      <trkpt lat="38.722400" lon="-5.560917">
        <ele>883.0</ele>
        <time>2019-05-04T16:29:54Z</time>
      </trkpt>
      <trkpt lat="38.722400" lon="-5.560783">
        <ele>881.0</ele>
        <time>2019-05-04T16:29:55Z</time>
      </trkpt>
      <trkpt lat="38.722417" lon="-5.560650">
        <ele>879.0</ele>
        <time>2019-05-04T16:29:56Z</time>
      </trkpt>
      <trkpt lat="38.722417" lon="-5.560517">
        <ele>877.0</ele>
        <time>2019-05-04T16:29:57Z</time>
      </trkpt>
      <trkpt lat="38.722417" lon="-5.560383">
        <ele>874.0</ele>
        <time>2019-05-04T16:29:58Z</time>
      </trkpt>
      <trkpt lat="38.722400" lon="-5.560233">
        <ele>872.0</ele>
        <time>2019-05-04T16:29:59Z</time>
      </trkpt>
      <trkpt lat="38.722400" lon="-5.560083">
        <ele>868.0</ele>
        <time>2019-05-04T16:30:00Z</time>
      </trkpt>
      <trkpt lat="38.722400" lon="-5.559950">
        <ele>866.0</ele>
        <time>2019-05-04T16:30:01Z</time>
      </trkpt>
      <trkpt lat="38.722383" lon="-5.559817">
        <ele>866.0</ele>
        <time>2019-05-04T16:30:02Z</time>
      </trkpt>
      <trkpt lat="38.722383" lon="-5.559700">
        <ele>865.0</ele>
        <time>2019-05-04T16:30:03Z</time>
      </trkpt>
      <trkpt lat="38.722367" lon="-5.559583">
        <ele>863.0</ele>
        <time>2019-05-04T16:30:04Z</time>
      </trkpt>
      <trkpt lat="38.722367" lon="-5.559467">
        <ele>861.0</ele>
        <time>2019-05-04T16:30:05Z</time>
      </trkpt>
      <trkpt lat="38.722367" lon="-5.559333">
        <ele>859.0</ele>
        <time>2019-05-04T16:30:06Z</time>
      </trkpt>
      <trkpt lat="38.722367" lon="-5.559183">
        <ele>857.0</ele>
        <time>2019-05-04T16:30:07Z</time>
      </trkpt>
      <trkpt lat="38.722367" lon="-5.559050">
        <ele>855.0</ele>
        <time>2019-05-04T16:30:08Z</time>
      </trkpt>
      <trkpt lat="38.722350" lon="-5.558917">
        <ele>854.0</ele>
        <time>2019-05-04T16:30:09Z</time>
      </trkpt>
      <trkpt lat="38.722333" lon="-5.558783">
        <ele>853.0</ele>
        <time>2019-05-04T16:30:10Z</time>
      </trkpt>
      <trkpt lat="38.722300" lon="-5.558650">
        <ele>851.0</ele>
        <time>2019-05-04T16:30:11Z</time>
      </trkpt>
      <trkpt lat="38.722283" lon="-5.558500">
        <ele>849.0</ele>
        <time>2019-05-04T16:30:12Z</time>
      </trkpt>
      <trkpt lat="38.722267" lon="-5.558367">
        <ele>847.0</ele>
        <time>2019-05-04T16:30:13Z</time>
      </trkpt>
      <trkpt lat="38.722267" lon="-5.558217">
        <ele>845.0</ele>
        <time>2019-05-04T16:30:14Z</time>
      </trkpt>
      <trkpt lat="38.722250" lon="-5.558083">
        <ele>843.0</ele>
        <time>2019-05-04T16:30:15Z</time>
      </trkpt>
      <trkpt lat="38.722250" lon="-5.557950">
        <ele>842.0</ele>
        <time>2019-05-04T16:30:16Z</time>
      </trkpt>
      <trkpt lat="38.722233" lon="-5.557817">
        <ele>840.0</ele>
        <time>2019-05-04T16:30:17Z</time>
      </trkpt>
      <trkpt lat="38.722233" lon="-5.557700">
        <ele>839.0</ele>
        <time>2019-05-04T16:30:18Z</time>
      </trkpt>
      <trkpt lat="38.722233" lon="-5.557567">
        <ele>838.0</ele>
        <time>2019-05-04T16:30:19Z</time>
      </trkpt>
      <trkpt lat="38.722217" lon="-5.557433">
        <ele>837.0</ele>
        <time>2019-05-04T16:30:20Z</time>
      </trkpt>
      <trkpt lat="38.722200" lon="-5.557317">
        <ele>836.0</ele>
        <time>2019-05-04T16:30:21Z</time>
      </trkpt>
      <trkpt lat="38.722183" lon="-5.557200">
        <ele>835.0</ele>
        <time>2019-05-04T16:30:22Z</time>
      </trkpt>
      <trkpt lat="38.722167" lon="-5.557083">
        <ele>833.0</ele>
        <time>2019-05-04T16:30:23Z</time>
      </trkpt>
      <trkpt lat="38.722150" lon="-5.556950">
        <ele>831.0</ele>
        <time>2019-05-04T16:30:24Z</time>
      </trkpt>
      <trkpt lat="38.722133" lon="-5.556800">
        <ele>830.0</ele>
        <time>2019-05-04T16:30:25Z</time>
      </trkpt>
      <trkpt lat="38.722100" lon="-5.556650">
        <ele>828.0</ele>
        <time>2019-05-04T16:30:26Z</time>
      </trkpt>
      <trkpt lat="38.722083" lon="-5.556517">
        <ele>827.0</ele>
        <time>2019-05-04T16:30:27Z</time>
      </trkpt>
      <trkpt lat="38.722050" lon="-5.556383">
        <ele>825.0</ele>
        <time>2019-05-04T16:30:28Z</time>
      </trkpt>
      <trkpt lat="38.722033" lon="-5.556233">
        <ele>824.0</ele>
        <time>2019-05-04T16:30:29Z</time>
      </trkpt>
      <trkpt lat="38.722017" lon="-5.556100">
        <ele>822.0</ele>
        <time>2019-05-04T16:30:30Z</time>
      </trkpt>
      <trkpt lat="38.721983" lon="-5.555950">
        <ele>819.0</ele>
        <time>2019-05-04T16:30:31Z</time>
      </trkpt>
      <trkpt lat="38.721950" lon="-5.555800">
        <ele>818.0</ele>
        <time>2019-05-04T16:30:32Z</time>
      </trkpt>
      <trkpt lat="38.721933" lon="-5.555650">
        <ele>815.0</ele>
        <time>2019-05-04T16:30:33Z</time>
      </trkpt>
      <trkpt lat="38.721900" lon="-5.555500">
        <ele>813.0</ele>
        <time>2019-05-04T16:30:34Z</time>
      </trkpt>
      <trkpt lat="38.721900" lon="-5.555367">
        <ele>810.0</ele>
        <time>2019-05-04T16:30:35Z</time>
      </trkpt>
      <trkpt lat="38.721883" lon="-5.555200">
        <ele>807.0</ele>
        <time>2019-05-04T16:30:36Z</time>
      </trkpt>
      <trkpt lat="38.721867" lon="-5.555050">
        <ele>804.0</ele>
        <time>2019-05-04T16:30:37Z</time>
      </trkpt>
      <trkpt lat="38.721833" lon="-5.554883">
        <ele>802.0</ele>
        <time>2019-05-04T16:30:38Z</time>
      </trkpt>
      <trkpt lat="38.721817" lon="-5.554733">
        <ele>800.0</ele>
        <time>2019-05-04T16:30:39Z</time>
      </trkpt>
      <trkpt lat="38.721783" lon="-5.554567">
        <ele>799.0</ele>
        <time>2019-05-04T16:30:40Z</time>
      </trkpt>
      <trkpt lat="38.721750" lon="-5.554417">
        <ele>799.0</ele>
        <time>2019-05-04T16:30:41Z</time>
      </trkpt>
      <trkpt lat="38.721717" lon="-5.554267">
        <ele>798.0</ele>
        <time>2019-05-04T16:30:42Z</time>
      </trkpt>
      <trkpt lat="38.721683" lon="-5.554100">
        <ele>797.0</ele>
        <time>2019-05-04T16:30:43Z</time>
      </trkpt>
      <trkpt lat="38.721650" lon="-5.553950">
        <ele>796.0</ele>
        <time>2019-05-04T16:30:44Z</time>
      </trkpt>
      <trkpt lat="38.721617" lon="-5.553800">
        <ele>796.0</ele>
        <time>2019-05-04T16:30:45Z</time>
      </trkpt>
      <trkpt lat="38.721583" lon="-5.553667">
        <ele>795.0</ele>
        <time>2019-05-04T16:30:46Z</time>
      </trkpt>
      <trkpt lat="38.721550" lon="-5.553550">
        <ele>793.0</ele>
        <time>2019-05-04T16:30:47Z</time>
      </trkpt>
      <trkpt lat="38.721517" lon="-5.553417">
        <ele>791.0</ele>
        <time>2019-05-04T16:30:48Z</time>
      </trkpt>
      <trkpt lat="38.721483" lon="-5.553283">
        <ele>790.0</ele>
        <time>2019-05-04T16:30:49Z</time>
      </trkpt>
      <trkpt lat="38.721450" lon="-5.553117">
        <ele>788.0</ele>
        <time>2019-05-04T16:30:50Z</time>
      </trkpt>
      <trkpt lat="38.721417" lon="-5.552967">
        <ele>787.0</ele>
        <time>2019-05-04T16:30:51Z</time>
      </trkpt>
      <trkpt lat="38.721383" lon="-5.552833">
        <ele>787.0</ele>
        <time>2019-05-04T16:30:52Z</time>
      </trkpt>
      <trkpt lat="38.721367" lon="-5.552700">
        <ele>786.0</ele>
        <time>2019-05-04T16:30:53Z</time>
      </trkpt>
      <trkpt lat="38.721350" lon="-5.552567">
        <ele>784.0</ele>
        <time>2019-05-04T16:30:54Z</time>
      </trkpt>
      <trkpt lat="38.721333" lon="-5.552450">
        <ele>783.0</ele>
        <time>2019-05-04T16:30:55Z</time>
      </trkpt>
      <trkpt lat="38.721317" lon="-5.552333">
        <ele>781.0</ele>
        <time>2019-05-04T16:30:56Z</time>
      </trkpt>
      <trkpt lat="38.721300" lon="-5.552200">
        <ele>778.0</ele>
        <time>2019-05-04T16:30:57Z</time>
      </trkpt>
      <trkpt lat="38.721267" lon="-5.552067">
        <ele>775.0</ele>
        <time>2019-05-04T16:30:58Z</time>
      </trkpt>
      <trkpt lat="38.721250" lon="-5.551933">
        <ele>773.0</ele>
        <time>2019-05-04T16:30:59Z</time>
      </trkpt>
      <trkpt lat="38.721217" lon="-5.551783">
        <ele>770.0</ele>
        <time>2019-05-04T16:31:00Z</time>
      </trkpt>
      <trkpt lat="38.721183" lon="-5.551633">
        <ele>767.0</ele>
        <time>2019-05-04T16:31:01Z</time>
      </trkpt>
      <trkpt lat="38.721150" lon="-5.551483">
        <ele>762.0</ele>
        <time>2019-05-04T16:31:02Z</time>
      </trkpt>
      <trkpt lat="38.721133" lon="-5.551350">
        <ele>759.0</ele>
        <time>2019-05-04T16:31:03Z</time>
      </trkpt>
      <trkpt lat="38.721100" lon="-5.551200">
        <ele>756.0</ele>
        <time>2019-05-04T16:31:04Z</time>
      </trkpt>
      <trkpt lat="38.721067" lon="-5.551050">
        <ele>753.0</ele>
        <time>2019-05-04T16:31:05Z</time>
      </trkpt>
      <trkpt lat="38.721050" lon="-5.550883">
        <ele>750.0</ele>
        <time>2019-05-04T16:31:06Z</time>
      </trkpt>
      <trkpt lat="38.721017" lon="-5.550733">
        <ele>747.0</ele>
        <time>2019-05-04T16:31:07Z</time>
      </trkpt>
      <trkpt lat="38.721000" lon="-5.550583">
        <ele>744.0</ele>
        <time>2019-05-04T16:31:08Z</time>
      </trkpt>
      <trkpt lat="38.720967" lon="-5.550450">
        <ele>742.0</ele>
        <time>2019-05-04T16:31:09Z</time>
      </trkpt>
      <trkpt lat="38.720933" lon="-5.550300">
        <ele>739.0</ele>
        <time>2019-05-04T16:31:10Z</time>
      </trkpt>
      <trkpt lat="38.720917" lon="-5.550167">
        <ele>736.0</ele>
        <time>2019-05-04T16:31:11Z</time>
      </trkpt>
      <trkpt lat="38.720883" lon="-5.550017">
        <ele>733.0</ele>
        <time>2019-05-04T16:31:12Z</time>
      </trkpt>
      <trkpt lat="38.720867" lon="-5.549867">
        <ele>730.0</ele>
        <time>2019-05-04T16:31:13Z</time>
      </trkpt>
      <trkpt lat="38.720850" lon="-5.549733">
        <ele>728.0</ele>
        <time>2019-05-04T16:31:14Z</time>
      </trkpt>
      <trkpt lat="38.720833" lon="-5.549583">
        <ele>726.0</ele>
        <time>2019-05-04T16:31:15Z</time>
      </trkpt>
      <trkpt lat="38.720817" lon="-5.549450">
        <ele>723.0</ele>
        <time>2019-05-04T16:31:16Z</time>
      </trkpt>
      <trkpt lat="38.720800" lon="-5.549300">
        <ele>721.0</ele>
        <time>2019-05-04T16:31:17Z</time>
      </trkpt>
      <trkpt lat="38.720800" lon="-5.549150">
        <ele>718.0</ele>
        <time>2019-05-04T16:31:18Z</time>
      </trkpt>
      <trkpt lat="38.720783" lon="-5.549017">
        <ele>716.0</ele>
        <time>2019-05-04T16:31:19Z</time>
      </trkpt>
      <trkpt lat="38.720783" lon="-5.548883">
        <ele>715.0</ele>
        <time>2019-05-04T16:31:20Z</time>
      </trkpt>
      <trkpt lat="38.720783" lon="-5.548750">
        <ele>713.0</ele>
        <time>2019-05-04T16:31:21Z</time>
      </trkpt>
      <trkpt lat="38.720767" lon="-5.548617">
        <ele>711.0</ele>
        <time>2019-05-04T16:31:22Z</time>
      </trkpt>
      <trkpt lat="38.720767" lon="-5.548483">
        <ele>709.0</ele>
        <time>2019-05-04T16:31:23Z</time>
      </trkpt>
      <trkpt lat="38.720767" lon="-5.548333">
        <ele>707.0</ele>
        <time>2019-05-04T16:31:24Z</time>
      </trkpt>
      <trkpt lat="38.720767" lon="-5.548183">
        <ele>705.0</ele>
        <time>2019-05-04T16:31:25Z</time>
      </trkpt>
      <trkpt lat="38.720750" lon="-5.548033">
        <ele>703.0</ele>
        <time>2019-05-04T16:31:26Z</time>
      </trkpt>
      <trkpt lat="38.720733" lon="-5.547900">
        <ele>703.0</ele>
        <time>2019-05-04T16:31:27Z</time>
      </trkpt>
      <trkpt lat="38.720750" lon="-5.547767">
        <ele>702.0</ele>
        <time>2019-05-04T16:31:28Z</time>
      </trkpt>
      <trkpt lat="38.720733" lon="-5.547633">
        <ele>701.0</ele>
        <time>2019-05-04T16:31:29Z</time>
      </trkpt>
      <trkpt lat="38.720733" lon="-5.547500">
        <ele>699.0</ele>
        <time>2019-05-04T16:31:30Z</time>
      </trkpt>
      <trkpt lat="38.720717" lon="-5.547367">
        <ele>697.0</ele>
        <time>2019-05-04T16:31:31Z</time>
      </trkpt>
      <trkpt lat="38.720717" lon="-5.547217">
        <ele>695.0</ele>
        <time>2019-05-04T16:31:32Z</time>
      </trkpt>
      <trkpt lat="38.720700" lon="-5.547067">
        <ele>693.0</ele>
        <time>2019-05-04T16:31:33Z</time>
      </trkpt>
      <trkpt lat="38.720683" lon="-5.546917">
        <ele>692.0</ele>
        <time>2019-05-04T16:31:34Z</time>
      </trkpt>
      <trkpt lat="38.720683" lon="-5.546783">
        <ele>690.0</ele>
        <time>2019-05-04T16:31:35Z</time>
      </trkpt>
      <trkpt lat="38.720683" lon="-5.546633">
        <ele>689.0</ele>
        <time>2019-05-04T16:31:36Z</time>
      </trkpt>
      <trkpt lat="38.720667" lon="-5.546483">
        <ele>687.0</ele>
        <time>2019-05-04T16:31:37Z</time>
      </trkpt>
      <trkpt lat="38.720667" lon="-5.546350">
        <ele>685.0</ele>
        <time>2019-05-04T16:31:38Z</time>
      </trkpt>
      <trkpt lat="38.720667" lon="-5.546200">
        <ele>683.0</ele>
        <time>2019-05-04T16:31:39Z</time>
      </trkpt>
      <trkpt lat="38.720667" lon="-5.546083">
        <ele>681.0</ele>
        <time>2019-05-04T16:31:40Z</time>
      </trkpt>
      <trkpt lat="38.720650" lon="-5.545933">
        <ele>679.0</ele>
        <time>2019-05-04T16:31:41Z</time>
      </trkpt>
      <trkpt lat="38.720650" lon="-5.545783">
        <ele>676.0</ele>
        <time>2019-05-04T16:31:42Z</time>
      </trkpt>
      <trkpt lat="38.720650" lon="-5.545650">
        <ele>674.0</ele>
        <time>2019-05-04T16:31:43Z</time>
      </trkpt>
      <trkpt lat="38.720650" lon="-5.545517">
        <ele>671.0</ele>
        <time>2019-05-04T16:31:44Z</time>
      </trkpt>
      <trkpt lat="38.720633" lon="-5.545367">
        <ele>669.0</ele>
        <time>2019-05-04T16:31:45Z</time>
      </trkpt>
      <trkpt lat="38.720633" lon="-5.545217">
        <ele>666.0</ele>
        <time>2019-05-04T16:31:46Z</time>
      </trkpt>
      <trkpt lat="38.720633" lon="-5.545083">
        <ele>665.0</ele>
        <time>2019-05-04T16:31:47Z</time>
      </trkpt>
      <trkpt lat="38.720633" lon="-5.544950">
        <ele>663.0</ele>
        <time>2019-05-04T16:31:48Z</time>
      </trkpt>
      <trkpt lat="38.720650" lon="-5.544833">
        <ele>661.0</ele>
        <time>2019-05-04T16:31:49Z</time>
      </trkpt>
      <trkpt lat="38.720650" lon="-5.544683">
        <ele>658.0</ele>
        <time>2019-05-04T16:31:50Z</time>
      </trkpt>
      <trkpt lat="38.720667" lon="-5.544550">
        <ele>656.0</ele>
        <time>2019-05-04T16:31:51Z</time>
      </trkpt>
      <trkpt lat="38.720667" lon="-5.544417">
        <ele>656.0</ele>
        <time>2019-05-04T16:31:52Z</time>
      </trkpt>
      <trkpt lat="38.720667" lon="-5.544300">
        <ele>657.0</ele>
        <time>2019-05-04T16:31:53Z</time>
      </trkpt>
      <trkpt lat="38.720667" lon="-5.544183">
        <ele>657.0</ele>
        <time>2019-05-04T16:31:54Z</time>
      </trkpt>
      <trkpt lat="38.720650" lon="-5.544067">
        <ele>657.0</ele>
        <time>2019-05-04T16:31:55Z</time>
      </trkpt>
      <trkpt lat="38.720667" lon="-5.543950">
        <ele>656.0</ele>
        <time>2019-05-04T16:31:56Z</time>
      </trkpt>
      <trkpt lat="38.720667" lon="-5.543817">
        <ele>657.0</ele>
        <time>2019-05-04T16:31:57Z</time>
      </trkpt>
      <trkpt lat="38.720683" lon="-5.543683">
        <ele>658.0</ele>
        <time>2019-05-04T16:31:58Z</time>
      </trkpt>
      <trkpt lat="38.720683" lon="-5.543583">
        <ele>659.0</ele>
        <time>2019-05-04T16:31:59Z</time>
      </trkpt>
      <trkpt lat="38.720683" lon="-5.543467">
        <ele>660.0</ele>
        <time>2019-05-04T16:32:00Z</time>
      </trkpt>
      <trkpt lat="38.720683" lon="-5.543350">
        <ele>661.0</ele>
        <time>2019-05-04T16:32:01Z</time>
      </trkpt>
      <trkpt lat="38.720683" lon="-5.543217">
        <ele>661.0</ele>
        <time>2019-05-04T16:32:02Z</time>
      </trkpt>
      <trkpt lat="38.720667" lon="-5.543100">
        <ele>661.0</ele>
        <time>2019-05-04T16:32:03Z</time>
      </trkpt>
      <trkpt lat="38.720617" lon="-5.543000">
        <ele>664.0</ele>
        <time>2019-05-04T16:32:04Z</time>
      </trkpt>
      <trkpt lat="38.720550" lon="-5.542917">
        <ele>665.0</ele>
        <time>2019-05-04T16:32:05Z</time>
      </trkpt>
      <trkpt lat="38.720467" lon="-5.542867">
        <ele>666.0</ele>
        <time>2019-05-04T16:32:06Z</time>
      </trkpt>
      <trkpt lat="38.720383" lon="-5.542833">
        <ele>667.0</ele>
        <time>2019-05-04T16:32:07Z</time>
      </trkpt>
      <trkpt lat="38.720283" lon="-5.542833">
        <ele>667.0</ele>
        <time>2019-05-04T16:32:08Z</time>
      </trkpt>
      <trkpt lat="38.720183" lon="-5.542867">
        <ele>668.0</ele>
        <time>2019-05-04T16:32:09Z</time>
      </trkpt>
      <trkpt lat="38.720117" lon="-5.542950">
        <ele>668.0</ele>
        <time>2019-05-04T16:32:10Z</time>
      </trkpt>
      <trkpt lat="38.720083" lon="-5.543050">
        <ele>669.0</ele>
        <time>2019-05-04T16:32:11Z</time>
      </trkpt>
      <trkpt lat="38.720083" lon="-5.543150">
        <ele>669.0</ele>
        <time>2019-05-04T16:32:12Z</time>
      </trkpt>
      <trkpt lat="38.720100" lon="-5.543233">
        <ele>670.0</ele>
        <time>2019-05-04T16:32:13Z</time>
      </trkpt>
      <trkpt lat="38.720167" lon="-5.543283">
        <ele>672.0</ele>
        <time>2019-05-04T16:32:14Z</time>
      </trkpt>
      <trkpt lat="38.720217" lon="-5.543300">
        <ele>673.0</ele>
        <time>2019-05-04T16:32:15Z</time>
      </trkpt>
      <trkpt lat="38.720283" lon="-5.543283">
        <ele>674.0</ele>
        <time>2019-05-04T16:32:16Z</time>
      </trkpt>
      <trkpt lat="38.720350" lon="-5.543250">
        <ele>674.0</ele>
        <time>2019-05-04T16:32:17Z</time>
      </trkpt>
      <trkpt lat="38.720417" lon="-5.543167">
        <ele>674.0</ele>
        <time>2019-05-04T16:32:18Z</time>
      </trkpt>
      <trkpt lat="38.720467" lon="-5.543050">
        <ele>674.0</ele>
        <time>2019-05-04T16:32:19Z</time>
      </trkpt>
      <trkpt lat="38.720483" lon="-5.542917">
        <ele>674.0</ele>
        <time>2019-05-04T16:32:20Z</time>
      </trkpt>
      <trkpt lat="38.720450" lon="-5.542783">
        <ele>675.0</ele>
        <time>2019-05-04T16:32:21Z</time>
      </trkpt>
      <trkpt lat="38.720383" lon="-5.542700">
        <ele>677.0</ele>
        <time>2019-05-04T16:32:22Z</time>
      </trkpt>
      <trkpt lat="38.720300" lon="-5.542633">
        <ele>679.0</ele>
        <time>2019-05-04T16:32:23Z</time>
      </trkpt>
      <trkpt lat="38.720183" lon="-5.542617">
        <ele>680.0</ele>
        <time>2019-05-04T16:32:24Z</time>
      </trkpt>
      <trkpt lat="38.720083" lon="-5.542650">
        <ele>680.0</ele>
        <time>2019-05-04T16:32:25Z</time>
      </trkpt>
      <trkpt lat="38.720017" lon="-5.542700">
        <ele>682.0</ele>
        <time>2019-05-04T16:32:26Z</time>
      </trkpt>
      <trkpt lat="38.719967" lon="-5.542767">
        <ele>683.0</ele>
        <time>2019-05-04T16:32:27Z</time>
      </trkpt>
      <trkpt lat="38.719933" lon="-5.542850">
        <ele>684.0</ele>
        <time>2019-05-04T16:32:28Z</time>
      </trkpt>
      <trkpt lat="38.719933" lon="-5.542950">
        <ele>685.0</ele>
        <time>2019-05-04T16:32:29Z</time>
      </trkpt>
      <trkpt lat="38.719983" lon="-5.543017">
        <ele>686.0</ele>
        <time>2019-05-04T16:32:30Z</time>
      </trkpt>
      <trkpt lat="38.720050" lon="-5.543067">
        <ele>686.0</ele>
        <time>2019-05-04T16:32:31Z</time>
      </trkpt>
      <trkpt lat="38.720117" lon="-5.543067">
        <ele>687.0</ele>
        <time>2019-05-04T16:32:32Z</time>
      </trkpt>
      <trkpt lat="38.720200" lon="-5.543017">
        <ele>688.0</ele>
        <time>2019-05-04T16:32:33Z</time>
      </trkpt>
      <trkpt lat="38.720233" lon="-5.542950">
        <ele>689.0</ele>
        <time>2019-05-04T16:32:34Z</time>
      </trkpt>
      <trkpt lat="38.720267" lon="-5.542850">
        <ele>689.0</ele>
        <time>2019-05-04T16:32:35Z</time>
      </trkpt>
      <trkpt lat="38.720267" lon="-5.542733">
        <ele>689.0</ele>
        <time>2019-05-04T16:32:36Z</time>
      </trkpt>
      <trkpt lat="38.720217" lon="-5.542617">
        <ele>689.0</ele>
        <time>2019-05-04T16:32:37Z</time>
      </trkpt>
      <trkpt lat="38.720167" lon="-5.542533">
        <ele>689.0</ele>
        <time>2019-05-04T16:32:38Z</time>
      </trkpt>
      <trkpt lat="38.720083" lon="-5.542467">
        <ele>689.0</ele>
        <time>2019-05-04T16:32:39Z</time>
      </trkpt>
      <trkpt lat="38.720000" lon="-5.542433">
        <ele>689.0</ele>
        <time>2019-05-04T16:32:40Z</time>
      </trkpt>
      <trkpt lat="38.719917" lon="-5.542450">
        <ele>689.0</ele>
        <time>2019-05-04T16:32:41Z</time>
      </trkpt>
      <trkpt lat="38.719833" lon="-5.542500">
        <ele>690.0</ele>
        <time>2019-05-04T16:32:42Z</time>
      </trkpt>
      <trkpt lat="38.719783" lon="-5.542567">
        <ele>689.0</ele>
        <time>2019-05-04T16:32:43Z</time>
      </trkpt>
      <trkpt lat="38.719767" lon="-5.542667">
        <ele>689.0</ele>
        <time>2019-05-04T16:32:44Z</time>
      </trkpt>
      <trkpt lat="38.719767" lon="-5.542767">
        <ele>689.0</ele>
        <time>2019-05-04T16:32:45Z</time>
      </trkpt>
      <trkpt lat="38.719800" lon="-5.542850">
        <ele>689.0</ele>
        <time>2019-05-04T16:32:46Z</time>
      </trkpt>
      <trkpt lat="38.719867" lon="-5.542900">
        <ele>689.0</ele>
        <time>2019-05-04T16:32:47Z</time>
      </trkpt>
      <trkpt lat="38.719950" lon="-5.542917">
        <ele>689.0</ele>
        <time>2019-05-04T16:32:48Z</time>
      </trkpt>
      <trkpt lat="38.720017" lon="-5.542900">
        <ele>689.0</ele>
        <time>2019-05-04T16:32:49Z</time>
      </trkpt>
      <trkpt lat="38.720067" lon="-5.542850">
        <ele>688.0</ele>
        <time>2019-05-04T16:32:50Z</time>
      </trkpt>
      <trkpt lat="38.720117" lon="-5.542767">
        <ele>688.0</ele>
        <time>2019-05-04T16:32:51Z</time>
      </trkpt>
      <trkpt lat="38.720167" lon="-5.542683">
        <ele>687.0</ele>
        <time>2019-05-04T16:32:52Z</time>
      </trkpt>
      <trkpt lat="38.720217" lon="-5.542567">
        <ele>686.0</ele>
        <time>2019-05-04T16:32:53Z</time>
      </trkpt>
      <trkpt lat="38.720233" lon="-5.542450">
        <ele>685.0</ele>
        <time>2019-05-04T16:32:54Z</time>
      </trkpt>
      <trkpt lat="38.720250" lon="-5.542317">
        <ele>685.0</ele>
        <time>2019-05-04T16:32:55Z</time>
      </trkpt>
      <trkpt lat="38.720267" lon="-5.542200">
        <ele>685.0</ele>
        <time>2019-05-04T16:32:56Z</time>
      </trkpt>
      <trkpt lat="38.720283" lon="-5.542083">
        <ele>686.0</ele>
        <time>2019-05-04T16:32:57Z</time>
      </trkpt>
      <trkpt lat="38.720300" lon="-5.541950">
        <ele>687.0</ele>
        <time>2019-05-04T16:32:58Z</time>
      </trkpt>
      <trkpt lat="38.720317" lon="-5.541783">
        <ele>688.0</ele>
        <time>2019-05-04T16:32:59Z</time>
      </trkpt>
      <trkpt lat="38.720317" lon="-5.541617">
        <ele>690.0</ele>
        <time>2019-05-04T16:33:00Z</time>
      </trkpt>
      <trkpt lat="38.720333" lon="-5.541450">
        <ele>693.0</ele>
        <time>2019-05-04T16:33:01Z</time>
      </trkpt>
      <trkpt lat="38.720350" lon="-5.541317">
        <ele>698.0</ele>
        <time>2019-05-04T16:33:02Z</time>
      </trkpt>
      <trkpt lat="38.720333" lon="-5.541167">
        <ele>704.0</ele>
        <time>2019-05-04T16:33:03Z</time>
      </trkpt>
      <trkpt lat="38.720317" lon="-5.541033">
        <ele>711.0</ele>
        <time>2019-05-04T16:33:04Z</time>
      </trkpt>
      <trkpt lat="38.720233" lon="-5.540917">
        <ele>714.0</ele>
        <time>2019-05-04T16:33:05Z</time>
      </trkpt>
      <trkpt lat="38.720117" lon="-5.540833">
        <ele>714.0</ele>
        <time>2019-05-04T16:33:06Z</time>
      </trkpt>
      <trkpt lat="38.720033" lon="-5.540767">
        <ele>714.0</ele>
        <time>2019-05-04T16:33:07Z</time>
      </trkpt>
      <trkpt lat="38.719950" lon="-5.540667">
        <ele>714.0</ele>
        <time>2019-05-04T16:33:08Z</time>
      </trkpt>
      <trkpt lat="38.719883" lon="-5.540550">
        <ele>713.0</ele>
        <time>2019-05-04T16:33:09Z</time>
      </trkpt>
      <trkpt lat="38.719833" lon="-5.540450">
        <ele>713.0</ele>
        <time>2019-05-04T16:33:10Z</time>
      </trkpt>
      <trkpt lat="38.719783" lon="-5.540367">
        <ele>714.0</ele>
        <time>2019-05-04T16:33:11Z</time>
      </trkpt>
      <trkpt lat="38.719717" lon="-5.540283">
        <ele>714.0</ele>
        <time>2019-05-04T16:33:12Z</time>
      </trkpt>
      <trkpt lat="38.719633" lon="-5.540200">
        <ele>714.0</ele>
        <time>2019-05-04T16:33:13Z</time>
      </trkpt>
      <trkpt lat="38.719517" lon="-5.540133">
        <ele>714.0</ele>
        <time>2019-05-04T16:33:14Z</time>
      </trkpt>
      <trkpt lat="38.719383" lon="-5.540083">
        <ele>713.0</ele>
        <time>2019-05-04T16:33:15Z</time>
      </trkpt>
      <trkpt lat="38.719233" lon="-5.540067">
        <ele>714.0</ele>
        <time>2019-05-04T16:33:16Z</time>
      </trkpt>
      <trkpt lat="38.719117" lon="-5.540083">
        <ele>716.0</ele>
        <time>2019-05-04T16:33:17Z</time>
      </trkpt>
      <trkpt lat="38.719000" lon="-5.540133">
        <ele>718.0</ele>
        <time>2019-05-04T16:33:18Z</time>
      </trkpt>
      <trkpt lat="38.718917" lon="-5.540217">
        <ele>720.0</ele>
        <time>2019-05-04T16:33:19Z</time>
      </trkpt>
      <trkpt lat="38.718850" lon="-5.540317">
        <ele>720.0</ele>
        <time>2019-05-04T16:33:20Z</time>
      </trkpt>
      <trkpt lat="38.718817" lon="-5.540417">
        <ele>720.0</ele>
        <time>2019-05-04T16:33:21Z</time>
      </trkpt>
      <trkpt lat="38.718817" lon="-5.540517">
        <ele>720.0</ele>
        <time>2019-05-04T16:33:22Z</time>
      </trkpt>
      <trkpt lat="38.718833" lon="-5.540583">
        <ele>717.0</ele>
        <time>2019-05-04T16:33:23Z</time>
      </trkpt>
      <trkpt lat="38.718867" lon="-5.540633">
        <ele>716.0</ele>
        <time>2019-05-04T16:33:24Z</time>
      </trkpt>
      <trkpt lat="38.718900" lon="-5.540650">
        <ele>714.0</ele>
        <time>2019-05-04T16:33:25Z</time>
      </trkpt>
      <trkpt lat="38.718917" lon="-5.540600">
        <ele>712.0</ele>
        <time>2019-05-04T16:33:26Z</time>
      </trkpt>
      <trkpt lat="38.718917" lon="-5.540517">
        <ele>710.0</ele>
        <time>2019-05-04T16:33:27Z</time>
      </trkpt>
      <trkpt lat="38.718900" lon="-5.540400">
        <ele>709.0</ele>
        <time>2019-05-04T16:33:28Z</time>
      </trkpt>
      <trkpt lat="38.718833" lon="-5.540300">
        <ele>708.0</ele>
        <time>2019-05-04T16:33:29Z</time>
      </trkpt>
      <trkpt lat="38.718733" lon="-5.540217">
        <ele>708.0</ele>
        <time>2019-05-04T16:33:30Z</time>
      </trkpt>
      <trkpt lat="38.718633" lon="-5.540133">
        <ele>708.0</ele>
        <time>2019-05-04T16:33:31Z</time>
      </trkpt>
      <trkpt lat="38.718517" lon="-5.540100">
        <ele>707.0</ele>
        <time>2019-05-04T16:33:32Z</time>
      </trkpt>
      <trkpt lat="38.718383" lon="-5.540083">
        <ele>706.0</ele>
        <time>2019-05-04T16:33:33Z</time>
      </trkpt>
      <trkpt lat="38.718267" lon="-5.540133">
        <ele>705.0</ele>
        <time>2019-05-04T16:33:34Z</time>
      </trkpt>
      <trkpt lat="38.718167" lon="-5.540217">
        <ele>704.0</ele>
        <time>2019-05-04T16:33:35Z</time>
      </trkpt>
      <trkpt lat="38.718117" lon="-5.540317">
        <ele>703.0</ele>
        <time>2019-05-04T16:33:36Z</time>
      </trkpt>
      <trkpt lat="38.718100" lon="-5.540433">
        <ele>703.0</ele>
        <time>2019-05-04T16:33:37Z</time>
      </trkpt>
      <trkpt lat="38.718083" lon="-5.540533">
        <ele>704.0</ele>
        <time>2019-05-04T16:33:38Z</time>
      </trkpt>
      <trkpt lat="38.718050" lon="-5.540633">
        <ele>704.0</ele>
        <time>2019-05-04T16:33:39Z</time>
      </trkpt>
      <trkpt lat="38.718033" lon="-5.540733">
        <ele>704.0</ele>
        <time>2019-05-04T16:33:40Z</time>
      </trkpt>
      <trkpt lat="38.718033" lon="-5.540833">
        <ele>703.0</ele>
        <time>2019-05-04T16:33:41Z</time>
      </trkpt>
      <trkpt lat="38.718083" lon="-5.540917">
        <ele>701.0</ele>
        <time>2019-05-04T16:33:42Z</time>
      </trkpt>
      <trkpt lat="38.718133" lon="-5.540983">
        <ele>697.0</ele>
        <time>2019-05-04T16:33:43Z</time>
      </trkpt>
      <trkpt lat="38.718183" lon="-5.541017">
        <ele>696.0</ele>
        <time>2019-05-04T16:33:44Z</time>
      </trkpt>
      <trkpt lat="38.718250" lon="-5.541017">
        <ele>694.0</ele>
        <time>2019-05-04T16:33:45Z</time>
      </trkpt>
      <trkpt lat="38.718317" lon="-5.541033">
        <ele>692.0</ele>
        <time>2019-05-04T16:33:46Z</time>
      </trkpt>
      <trkpt lat="38.718383" lon="-5.541033">
        <ele>691.0</ele>
        <time>2019-05-04T16:33:47Z</time>
      </trkpt>
      <trkpt lat="38.718483" lon="-5.541000">
        <ele>690.0</ele>
        <time>2019-05-04T16:33:48Z</time>
      </trkpt>
      <trkpt lat="38.718567" lon="-5.540983">
        <ele>689.0</ele>
        <time>2019-05-04T16:33:49Z</time>
      </trkpt>
      <trkpt lat="38.718633" lon="-5.541000">
        <ele>689.0</ele>
        <time>2019-05-04T16:33:50Z</time>
      </trkpt>
      <trkpt lat="38.718700" lon="-5.541033">
        <ele>691.0</ele>
        <time>2019-05-04T16:33:51Z</time>
      </trkpt>
      <trkpt lat="38.718767" lon="-5.541067">
        <ele>694.0</ele>
        <time>2019-05-04T16:33:52Z</time>
      </trkpt>
      <trkpt lat="38.718817" lon="-5.541083">
        <ele>696.0</ele>
        <time>2019-05-04T16:33:53Z</time>
      </trkpt>
      <trkpt lat="38.718867" lon="-5.541083">
        <ele>698.0</ele>
        <time>2019-05-04T16:33:54Z</time>
      </trkpt>
      <trkpt lat="38.718917" lon="-5.541083">
        <ele>700.0</ele>
        <time>2019-05-04T16:33:55Z</time>
      </trkpt>
      <trkpt lat="38.718967" lon="-5.541100">
        <ele>702.0</ele>
        <time>2019-05-04T16:33:56Z</time>
      </trkpt>
      <trkpt lat="38.718983" lon="-5.541100">
        <ele>703.0</ele>
        <time>2019-05-04T16:33:57Z</time>
      </trkpt>
      <trkpt lat="38.719017" lon="-5.541117">
        <ele>703.0</ele>
        <time>2019-05-04T16:33:58Z</time>
      </trkpt>
      <trkpt lat="38.719067" lon="-5.541150">
        <ele>703.0</ele>
        <time>2019-05-04T16:33:59Z</time>
      </trkpt>
      <trkpt lat="38.719117" lon="-5.541167">
        <ele>703.0</ele>
        <time>2019-05-04T16:34:00Z</time>
      </trkpt>
      <trkpt lat="38.719167" lon="-5.541167">
        <ele>703.0</ele>
        <time>2019-05-04T16:34:01Z</time>
      </trkpt>
      <trkpt lat="38.719233" lon="-5.541150">
        <ele>703.0</ele>
        <time>2019-05-04T16:34:02Z</time>
      </trkpt>
      <trkpt lat="38.719300" lon="-5.541133">
        <ele>703.0</ele>
        <time>2019-05-04T16:34:03Z</time>
      </trkpt>
      <trkpt lat="38.719350" lon="-5.541117">
        <ele>702.0</ele>
        <time>2019-05-04T16:34:04Z</time>
      </trkpt>
      <trkpt lat="38.719417" lon="-5.541100">
        <ele>701.0</ele>
        <time>2019-05-04T16:34:05Z</time>
      </trkpt>
      <trkpt lat="38.719467" lon="-5.541067">
        <ele>700.0</ele>
        <time>2019-05-04T16:34:06Z</time>
      </trkpt>
      <trkpt lat="38.719517" lon="-5.541033">
        <ele>699.0</ele>
        <time>2019-05-04T16:34:07Z</time>
      </trkpt>
      <trkpt lat="38.719583" lon="-5.541017">
        <ele>698.0</ele>
        <time>2019-05-04T16:34:08Z</time>
      </trkpt>
      <trkpt lat="38.719667" lon="-5.541000">
        <ele>698.0</ele>
        <time>2019-05-04T16:34:09Z</time>
      </trkpt>
      <trkpt lat="38.719717" lon="-5.541017">
        <ele>698.0</ele>
        <time>2019-05-04T16:34:10Z</time>
      </trkpt>
      <trkpt lat="38.719767" lon="-5.541050">
        <ele>700.0</ele>
        <time>2019-05-04T16:34:11Z</time>
      </trkpt>
      <trkpt lat="38.719800" lon="-5.541100">
        <ele>701.0</ele>
        <time>2019-05-04T16:34:12Z</time>
      </trkpt>
      <trkpt lat="38.719833" lon="-5.541167">
        <ele>701.0</ele>
        <time>2019-05-04T16:34:13Z</time>
      </trkpt>
      <trkpt lat="38.719850" lon="-5.541250">
        <ele>699.0</ele>
        <time>2019-05-04T16:34:14Z</time>
      </trkpt>
      <trkpt lat="38.719867" lon="-5.541333">
        <ele>698.0</ele>
        <time>2019-05-04T16:34:15Z</time>
      </trkpt>
      <trkpt lat="38.719900" lon="-5.541400">
        <ele>697.0</ele>
        <time>2019-05-04T16:34:16Z</time>
      </trkpt>
      <trkpt lat="38.719933" lon="-5.541450">
        <ele>697.0</ele>
        <time>2019-05-04T16:34:17Z</time>
      </trkpt>
      <trkpt lat="38.719967" lon="-5.541450">
        <ele>697.0</ele>
        <time>2019-05-04T16:34:18Z</time>
      </trkpt>
      <trkpt lat="38.720000" lon="-5.541450">
        <ele>696.0</ele>
        <time>2019-05-04T16:34:19Z</time>
      </trkpt>
      <trkpt lat="38.720050" lon="-5.541433">
        <ele>695.0</ele>
        <time>2019-05-04T16:34:20Z</time>
      </trkpt>
      <trkpt lat="38.720083" lon="-5.541417">
        <ele>694.0</ele>
        <time>2019-05-04T16:34:21Z</time>
      </trkpt>
      <trkpt lat="38.720117" lon="-5.541400">
        <ele>693.0</ele>
        <time>2019-05-04T16:34:22Z</time>
      </trkpt>
      <trkpt lat="38.720167" lon="-5.541400">
        <ele>694.0</ele>
        <time>2019-05-04T16:34:23Z</time>
      </trkpt>
      <trkpt lat="38.720200" lon="-5.541417">
        <ele>694.0</ele>
        <time>2019-05-04T16:34:24Z</time>
      </trkpt>
      <trkpt lat="38.720217" lon="-5.541433">
        <ele>694.0</ele>
        <time>2019-05-04T16:34:25Z</time>
      </trkpt>
      <trkpt lat="38.720250" lon="-5.541433">
        <ele>693.0</ele>
        <time>2019-05-04T16:34:26Z</time>
      </trkpt>
      <trkpt lat="38.720300" lon="-5.541417">
        <ele>691.0</ele>
        <time>2019-05-04T16:34:27Z</time>
      </trkpt>
      <trkpt lat="38.720333" lon="-5.541400">
        <ele>690.0</ele>
        <time>2019-05-04T16:34:28Z</time>
      </trkpt>
      <trkpt lat="38.720383" lon="-5.541400">
        <ele>690.0</ele>
        <time>2019-05-04T16:34:29Z</time>
      </trkpt>
      <trkpt lat="38.720433" lon="-5.541400">
        <ele>690.0</ele>
        <time>2019-05-04T16:34:30Z</time>
      </trkpt>
      <trkpt lat="38.720467" lon="-5.541400">
        <ele>691.0</ele>
        <time>2019-05-04T16:34:31Z</time>
      </trkpt>
      <trkpt lat="38.720500" lon="-5.541417">
        <ele>691.0</ele>
        <time>2019-05-04T16:34:32Z</time>
      </trkpt>
      <trkpt lat="38.720533" lon="-5.541417">
        <ele>691.0</ele>
        <time>2019-05-04T16:34:33Z</time>
      </trkpt>
      <trkpt lat="38.720567" lon="-5.541400">
        <ele>691.0</ele>
        <time>2019-05-04T16:34:34Z</time>
      </trkpt>
      <trkpt lat="38.720583" lon="-5.541400">
        <ele>690.0</ele>
        <time>2019-05-04T16:34:35Z</time>
      </trkpt>
      <trkpt lat="38.720617" lon="-5.541383">
        <ele>691.0</ele>
        <time>2019-05-04T16:34:36Z</time>
      </trkpt>
      <trkpt lat="38.720633" lon="-5.541367">
        <ele>691.0</ele>
        <time>2019-05-04T16:34:37Z</time>
      </trkpt>
      <trkpt lat="38.720667" lon="-5.541333">
        <ele>691.0</ele>
        <time>2019-05-04T16:34:38Z</time>
      </trkpt>
      <trkpt lat="38.720683" lon="-5.541317">
        <ele>690.0</ele>
        <time>2019-05-04T16:34:39Z</time>
      </trkpt>
      <trkpt lat="38.720717" lon="-5.541300">
        <ele>690.0</ele>
        <time>2019-05-04T16:34:40Z</time>
      </trkpt>
      <trkpt lat="38.720750" lon="-5.541283">
        <ele>690.0</ele>
        <time>2019-05-04T16:34:41Z</time>
      </trkpt>
      <trkpt lat="38.720767" lon="-5.541283">
        <ele>690.0</ele>
        <time>2019-05-04T16:34:42Z</time>
      </trkpt>
      <trkpt lat="38.720800" lon="-5.541267">
        <ele>689.0</ele>
        <time>2019-05-04T16:34:43Z</time>
      </trkpt>
      <trkpt lat="38.720833" lon="-5.541267">
        <ele>688.0</ele>
        <time>2019-05-04T16:34:44Z</time>
      </trkpt>
      <trkpt lat="38.720850" lon="-5.541250">
        <ele>687.0</ele>
        <time>2019-05-04T16:34:45Z</time>
      </trkpt>
      <trkpt lat="38.720883" lon="-5.541233">
        <ele>687.0</ele>
        <time>2019-05-04T16:34:46Z</time>
      </trkpt>
      <trkpt lat="38.720900" lon="-5.541217">
        <ele>688.0</ele>
        <time>2019-05-04T16:34:47Z</time>
      </trkpt>
      <trkpt lat="38.720917" lon="-5.541200">
        <ele>688.0</ele>
        <time>2019-05-04T16:34:48Z</time>
      </trkpt>
      <trkpt lat="38.720933" lon="-5.541183">
        <ele>688.0</ele>
        <time>2019-05-04T16:34:49Z</time>
      </trkpt>
      <trkpt lat="38.720983" lon="-5.541167">
        <ele>687.0</ele>
        <time>2019-05-04T16:34:50Z</time>
      </trkpt>
      <trkpt lat="38.721033" lon="-5.541150">
        <ele>687.0</ele>
        <time>2019-05-04T16:34:51Z</time>
      </trkpt>
      <trkpt lat="38.721067" lon="-5.541133">
        <ele>687.0</ele>
        <time>2019-05-04T16:34:52Z</time>
      </trkpt>
      <trkpt lat="38.721083" lon="-5.541117">
        <ele>689.0</ele>
        <time>2019-05-04T16:34:53Z</time>
      </trkpt>
      <trkpt lat="38.721117" lon="-5.541117">
        <ele>690.0</ele>
        <time>2019-05-04T16:34:54Z</time>
      </trkpt>
      <trkpt lat="38.721150" lon="-5.541117">
        <ele>690.0</ele>
        <time>2019-05-04T16:34:55Z</time>
      </trkpt>
      <trkpt lat="38.721200" lon="-5.541100">
        <ele>691.0</ele>
        <time>2019-05-04T16:34:56Z</time>
      </trkpt>
      <trkpt lat="38.721217" lon="-5.541100">
        <ele>691.0</ele>
        <time>2019-05-04T16:34:57Z</time>
      </trkpt>
      <trkpt lat="38.721250" lon="-5.541083">
        <ele>691.0</ele>
        <time>2019-05-04T16:34:58Z</time>
      </trkpt>
      <trkpt lat="38.721267" lon="-5.541067">
        <ele>691.0</ele>
        <time>2019-05-04T16:34:59Z</time>
      </trkpt>
      <trkpt lat="38.721283" lon="-5.541050">
        <ele>691.0</ele>
        <time>2019-05-04T16:35:00Z</time>
      </trkpt>
      <trkpt lat="38.721317" lon="-5.541017">
        <ele>691.0</ele>
        <time>2019-05-04T16:35:01Z</time>
      </trkpt>
      <trkpt lat="38.721367" lon="-5.541000">
        <ele>690.0</ele>
        <time>2019-05-04T16:35:02Z</time>
      </trkpt>
      <trkpt lat="38.721400" lon="-5.541000">
        <ele>688.0</ele>
        <time>2019-05-04T16:35:03Z</time>
      </trkpt>
      <trkpt lat="38.721433" lon="-5.540983">
        <ele>689.0</ele>
        <time>2019-05-04T16:35:04Z</time>
      </trkpt>
      <trkpt lat="38.721467" lon="-5.540983">
        <ele>689.0</ele>
        <time>2019-05-04T16:35:05Z</time>
      </trkpt>
      <trkpt lat="38.721500" lon="-5.540967">
        <ele>688.0</ele>
        <time>2019-05-04T16:35:06Z</time>
      </trkpt>
      <trkpt lat="38.721533" lon="-5.540967">
        <ele>688.0</ele>
        <time>2019-05-04T16:35:07Z</time>
      </trkpt>
      <trkpt lat="38.721567" lon="-5.540950">
        <ele>687.0</ele>
        <time>2019-05-04T16:35:08Z</time>
      </trkpt>
      <trkpt lat="38.721600" lon="-5.540917">
        <ele>685.0</ele>
        <time>2019-05-04T16:35:09Z</time>
      </trkpt>
      <trkpt lat="38.721617" lon="-5.540883">
        <ele>684.0</ele>
        <time>2019-05-04T16:35:10Z</time>
      </trkpt>
      <trkpt lat="38.721650" lon="-5.540850">
        <ele>682.0</ele>
        <time>2019-05-04T16:35:11Z</time>
      </trkpt>
      <trkpt lat="38.721683" lon="-5.540817">
        <ele>680.0</ele>
        <time>2019-05-04T16:35:12Z</time>
      </trkpt>
      <trkpt lat="38.721717" lon="-5.540783">
        <ele>678.0</ele>
        <time>2019-05-04T16:35:13Z</time>
      </trkpt>
      <trkpt lat="38.721750" lon="-5.540767">
        <ele>675.0</ele>
        <time>2019-05-04T16:35:14Z</time>
      </trkpt>
      <trkpt lat="38.721800" lon="-5.540767">
        <ele>673.0</ele>
        <time>2019-05-04T16:35:15Z</time>
      </trkpt>
      <trkpt lat="38.721850" lon="-5.540767">
        <ele>671.0</ele>
        <time>2019-05-04T16:35:16Z</time>
      </trkpt>
      <trkpt lat="38.721900" lon="-5.540783">
        <ele>668.0</ele>
        <time>2019-05-04T16:35:17Z</time>
      </trkpt>
      <trkpt lat="38.721933" lon="-5.540800">
        <ele>667.0</ele>
        <time>2019-05-04T16:35:18Z</time>
      </trkpt>
      <trkpt lat="38.721967" lon="-5.540817">
        <ele>665.0</ele>
        <time>2019-05-04T16:35:19Z</time>
      </trkpt>
      <trkpt lat="38.722017" lon="-5.540833">
        <ele>663.0</ele>
        <time>2019-05-04T16:35:20Z</time>
      </trkpt>
      <trkpt lat="38.722050" lon="-5.540833">
        <ele>660.0</ele>
        <time>2019-05-04T16:35:21Z</time>
      </trkpt>
      <trkpt lat="38.722100" lon="-5.540850">
        <ele>658.0</ele>
        <time>2019-05-04T16:35:22Z</time>
      </trkpt>
      <trkpt lat="38.722150" lon="-5.540850">
        <ele>655.0</ele>
        <time>2019-05-04T16:35:23Z</time>
      </trkpt>
      <trkpt lat="38.722217" lon="-5.540850">
        <ele>653.0</ele>
        <time>2019-05-04T16:35:24Z</time>
      </trkpt>
      <trkpt lat="38.722267" lon="-5.540850">
        <ele>651.0</ele>
        <time>2019-05-04T16:35:25Z</time>
      </trkpt>
      <trkpt lat="38.722317" lon="-5.540867">
        <ele>650.0</ele>
        <time>2019-05-04T16:35:26Z</time>
      </trkpt>
      <trkpt lat="38.722367" lon="-5.540883">
        <ele>648.0</ele>
        <time>2019-05-04T16:35:27Z</time>
      </trkpt>
      <trkpt lat="38.722417" lon="-5.540900">
        <ele>646.0</ele>
        <time>2019-05-04T16:35:28Z</time>
      </trkpt>
      <trkpt lat="38.722467" lon="-5.540917">
        <ele>643.0</ele>
        <time>2019-05-04T16:35:29Z</time>
      </trkpt>
      <trkpt lat="38.722517" lon="-5.540917">
        <ele>640.0</ele>
        <time>2019-05-04T16:35:30Z</time>
      </trkpt>
      <trkpt lat="38.722583" lon="-5.540933">
        <ele>638.0</ele>
        <time>2019-05-04T16:35:31Z</time>
      </trkpt>
      <trkpt lat="38.722633" lon="-5.540933">
        <ele>637.0</ele>
        <time>2019-05-04T16:35:32Z</time>
      </trkpt>
      <trkpt lat="38.722667" lon="-5.540950">
        <ele>636.0</ele>
        <time>2019-05-04T16:35:33Z</time>
      </trkpt>
      <trkpt lat="38.722717" lon="-5.540933">
        <ele>634.0</ele>
        <time>2019-05-04T16:35:34Z</time>
      </trkpt>
      <trkpt lat="38.722767" lon="-5.540933">
        <ele>633.0</ele>
        <time>2019-05-04T16:35:35Z</time>
      </trkpt>
      <trkpt lat="38.722833" lon="-5.540950">
        <ele>630.0</ele>
        <time>2019-05-04T16:35:36Z</time>
      </trkpt>
      <trkpt lat="38.722883" lon="-5.540950">
        <ele>627.0</ele>
        <time>2019-05-04T16:35:37Z</time>
      </trkpt>
      <trkpt lat="38.722933" lon="-5.540967">
        <ele>624.0</ele>
        <time>2019-05-04T16:35:38Z</time>
      </trkpt>
      <trkpt lat="38.722967" lon="-5.540983">
        <ele>623.0</ele>
        <time>2019-05-04T16:35:39Z</time>
      </trkpt>
      <trkpt lat="38.723017" lon="-5.540983">
        <ele>621.0</ele>
        <time>2019-05-04T16:35:40Z</time>
      </trkpt>
      <trkpt lat="38.723050" lon="-5.540983">
        <ele>620.0</ele>
        <time>2019-05-04T16:35:41Z</time>
      </trkpt>
      <trkpt lat="38.723083" lon="-5.540983">
        <ele>619.0</ele>
        <time>2019-05-04T16:35:42Z</time>
      </trkpt>
      <trkpt lat="38.723133" lon="-5.540983">
        <ele>617.0</ele>
        <time>2019-05-04T16:35:43Z</time>
      </trkpt>
      <trkpt lat="38.723183" lon="-5.540983">
        <ele>616.0</ele>
        <time>2019-05-04T16:35:44Z</time>
      </trkpt>
      <trkpt lat="38.723217" lon="-5.540983">
        <ele>615.0</ele>
        <time>2019-05-04T16:35:45Z</time>
      </trkpt>
      <trkpt lat="38.723250" lon="-5.540983">
        <ele>613.0</ele>
        <time>2019-05-04T16:35:46Z</time>
      </trkpt>
      <trkpt lat="38.723283" lon="-5.541000">
        <ele>612.0</ele>
        <time>2019-05-04T16:35:47Z</time>
      </trkpt>
      <trkpt lat="38.723333" lon="-5.541017">
        <ele>610.0</ele>
        <time>2019-05-04T16:35:48Z</time>
      </trkpt>
      <trkpt lat="38.723367" lon="-5.541033">
        <ele>608.0</ele>
        <time>2019-05-04T16:35:49Z</time>
      </trkpt>
      <trkpt lat="38.723400" lon="-5.541050">
        <ele>606.0</ele>
        <time>2019-05-04T16:35:50Z</time>
      </trkpt>
      <trkpt lat="38.723433" lon="-5.541050">
        <ele>604.0</ele>
        <time>2019-05-04T16:35:51Z</time>
      </trkpt>
      <trkpt lat="38.723467" lon="-5.541067">
        <ele>602.0</ele>
        <time>2019-05-04T16:35:52Z</time>
      </trkpt>
      <trkpt lat="38.723500" lon="-5.541083">
        <ele>600.0</ele>
        <time>2019-05-04T16:35:53Z</time>
      </trkpt>
      <trkpt lat="38.723550" lon="-5.541100">
        <ele>597.0</ele>
        <time>2019-05-04T16:35:54Z</time>
      </trkpt>
      <trkpt lat="38.723600" lon="-5.541117">
        <ele>596.0</ele>
        <time>2019-05-04T16:35:55Z</time>
      </trkpt>
      <trkpt lat="38.723650" lon="-5.541133">
        <ele>594.0</ele>
        <time>2019-05-04T16:35:56Z</time>
      </trkpt>
      <trkpt lat="38.723683" lon="-5.541150">
        <ele>595.0</ele>
        <time>2019-05-04T16:35:57Z</time>
      </trkpt>
      <trkpt lat="38.723700" lon="-5.541167">
        <ele>594.0</ele>
        <time>2019-05-04T16:35:58Z</time>
      </trkpt>
      <trkpt lat="38.723733" lon="-5.541183">
        <ele>593.0</ele>
        <time>2019-05-04T16:35:59Z</time>
      </trkpt>
      <trkpt lat="38.723767" lon="-5.541183">
        <ele>591.0</ele>
        <time>2019-05-04T16:36:00Z</time>
      </trkpt>
      <trkpt lat="38.723817" lon="-5.541200">
        <ele>588.0</ele>
        <time>2019-05-04T16:36:01Z</time>
      </trkpt>
      <trkpt lat="38.723850" lon="-5.541217">
        <ele>586.0</ele>
        <time>2019-05-04T16:36:02Z</time>
      </trkpt>
      <trkpt lat="38.723900" lon="-5.541233">
        <ele>584.0</ele>
        <time>2019-05-04T16:36:03Z</time>
      </trkpt>
      <trkpt lat="38.723933" lon="-5.541233">
        <ele>582.0</ele>
        <time>2019-05-04T16:36:04Z</time>
      </trkpt>
      <trkpt lat="38.723983" lon="-5.541267">
        <ele>580.0</ele>
        <time>2019-05-04T16:36:05Z</time>
      </trkpt>
      <trkpt lat="38.724033" lon="-5.541283">
        <ele>578.0</ele>
        <time>2019-05-04T16:36:06Z</time>
      </trkpt>
      <trkpt lat="38.724100" lon="-5.541283">
        <ele>575.0</ele>
        <time>2019-05-04T16:36:07Z</time>
      </trkpt>
      <trkpt lat="38.724167" lon="-5.541317">
        <ele>573.0</ele>
        <time>2019-05-04T16:36:08Z</time>
      </trkpt>
      <trkpt lat="38.724233" lon="-5.541350">
        <ele>576.0</ele>
        <time>2019-05-04T16:36:09Z</time>
      </trkpt>
      <trkpt lat="38.724300" lon="-5.541383">
        <ele>575.0</ele>
        <time>2019-05-04T16:36:10Z</time>
      </trkpt>
      <trkpt lat="38.724367" lon="-5.541383">
        <ele>574.0</ele>
        <time>2019-05-04T16:36:11Z</time>
      </trkpt>
      <trkpt lat="38.724400" lon="-5.541367">
        <ele>572.0</ele>
        <time>2019-05-04T16:36:12Z</time>
      </trkpt>
      <trkpt lat="38.724433" lon="-5.541333">
        <ele>570.0</ele>
        <time>2019-05-04T16:36:13Z</time>
      </trkpt>
      <trkpt lat="38.724467" lon="-5.541317">
        <ele>568.0</ele>
        <time>2019-05-04T16:36:14Z</time>
      </trkpt>
      <trkpt lat="38.724500" lon="-5.541267">
        <ele>566.0</ele>
        <time>2019-05-04T16:36:15Z</time>
      </trkpt>
      <trkpt lat="38.724550" lon="-5.541233">
        <ele>563.0</ele>
        <time>2019-05-04T16:36:16Z</time>
      </trkpt>
      <trkpt lat="38.724600" lon="-5.541233">
        <ele>561.0</ele>
        <time>2019-05-04T16:36:17Z</time>
      </trkpt>
      <trkpt lat="38.724650" lon="-5.541267">
        <ele>561.0</ele>
        <time>2019-05-04T16:36:18Z</time>
      </trkpt>
      <trkpt lat="38.724700" lon="-5.541317">
        <ele>559.0</ele>
        <time>2019-05-04T16:36:19Z</time>
      </trkpt>
      <trkpt lat="38.724750" lon="-5.541367">
        <ele>557.0</ele>
        <time>2019-05-04T16:36:20Z</time>
      </trkpt>
      <trkpt lat="38.724783" lon="-5.541450">
        <ele>556.0</ele>
        <time>2019-05-04T16:36:21Z</time>
      </trkpt>
      <trkpt lat="38.724833" lon="-5.541517">
        <ele>554.0</ele>
        <time>2019-05-04T16:36:22Z</time>
      </trkpt>
      <trkpt lat="38.724867" lon="-5.541583">
        <ele>553.0</ele>
        <time>2019-05-04T16:36:23Z</time>
      </trkpt>
      <trkpt lat="38.724900" lon="-5.541650">
        <ele>552.0</ele>
        <time>2019-05-04T16:36:24Z</time>
      </trkpt>
      <trkpt lat="38.724950" lon="-5.541667">
        <ele>551.0</ele>
        <time>2019-05-04T16:36:25Z</time>
      </trkpt>
      <trkpt lat="38.725000" lon="-5.541633">
        <ele>549.0</ele>
        <time>2019-05-04T16:36:26Z</time>
      </trkpt>
      <trkpt lat="38.725033" lon="-5.541567">
        <ele>547.0</ele>
        <time>2019-05-04T16:36:27Z</time>
      </trkpt>
      <trkpt lat="38.725033" lon="-5.541467">
        <ele>546.0</ele>
        <time>2019-05-04T16:36:28Z</time>
      </trkpt>
      <trkpt lat="38.725000" lon="-5.541383">
        <ele>545.0</ele>
        <time>2019-05-04T16:36:29Z</time>
      </trkpt>
      <trkpt lat="38.724967" lon="-5.541317">
        <ele>545.0</ele>
        <time>2019-05-04T16:36:30Z</time>
      </trkpt>
      <trkpt lat="38.724950" lon="-5.541250">
        <ele>545.0</ele>
        <time>2019-05-04T16:36:31Z</time>
      </trkpt>
      <trkpt lat="38.724983" lon="-5.541217">
        <ele>544.0</ele>
        <time>2019-05-04T16:36:32Z</time>
      </trkpt>
      <trkpt lat="38.725033" lon="-5.541183">
        <ele>541.0</ele>
        <time>2019-05-04T16:36:33Z</time>
      </trkpt>
      <trkpt lat="38.725083" lon="-5.541200">
        <ele>539.0</ele>
        <time>2019-05-04T16:36:34Z</time>
      </trkpt>
      <trkpt lat="38.725133" lon="-5.541250">
        <ele>537.0</ele>
        <time>2019-05-04T16:36:35Z</time>
      </trkpt>
      <trkpt lat="38.725183" lon="-5.541333">
        <ele>536.0</ele>
        <time>2019-05-04T16:36:36Z</time>
      </trkpt>
      <trkpt lat="38.725200" lon="-5.541433">
        <ele>534.0</ele>
        <time>2019-05-04T16:36:37Z</time>
      </trkpt>
      <trkpt lat="38.725233" lon="-5.541533">
        <ele>533.0</ele>
        <time>2019-05-04T16:36:38Z</time>
      </trkpt>
      <trkpt lat="38.725267" lon="-5.541583">
        <ele>532.0</ele>
        <time>2019-05-04T16:36:39Z</time>
      </trkpt>
      <trkpt lat="38.725317" lon="-5.541600">
        <ele>529.0</ele>
        <time>2019-05-04T16:36:40Z</time>
      </trkpt>
      <trkpt lat="38.725333" lon="-5.541567">
        <ele>526.0</ele>
        <time>2019-05-04T16:36:41Z</time>
      </trkpt>
      <trkpt lat="38.725350" lon="-5.541500">
        <ele>523.0</ele>
        <time>2019-05-04T16:36:42Z</time>
      </trkpt>
      <trkpt lat="38.725317" lon="-5.541433">
        <ele>521.0</ele>
        <time>2019-05-04T16:36:43Z</time>
      </trkpt>
      <trkpt lat="38.725283" lon="-5.541383">
        <ele>520.0</ele>
        <time>2019-05-04T16:36:44Z</time>
      </trkpt>
      <trkpt lat="38.725283" lon="-5.541350">
        <ele>518.0</ele>
        <time>2019-05-04T16:36:45Z</time>
      </trkpt>
      <trkpt lat="38.725317" lon="-5.541333">
        <ele>517.0</ele>
        <time>2019-05-04T16:36:46Z</time>
      </trkpt>
      <trkpt lat="38.725367" lon="-5.541317">
        <ele>514.0</ele>
        <time>2019-05-04T16:36:47Z</time>
      </trkpt>
      <trkpt lat="38.725433" lon="-5.541283">
        <ele>512.0</ele>
        <time>2019-05-04T16:36:48Z</time>
      </trkpt>
      <trkpt lat="38.725483" lon="-5.541267">
        <ele>510.0</ele>
        <time>2019-05-04T16:36:49Z</time>
      </trkpt>
      <trkpt lat="38.725500" lon="-5.541233">
        <ele>512.0</ele>
        <time>2019-05-04T16:36:50Z</time>
      </trkpt>
      <trkpt lat="38.725517" lon="-5.541217">
        <ele>512.0</ele>
        <time>2019-05-04T16:36:51Z</time>
      </trkpt>
      <trkpt lat="38.725533" lon="-5.541200">
        <ele>511.0</ele>
        <time>2019-05-04T16:36:52Z</time>
      </trkpt>
      <trkpt lat="38.725550" lon="-5.541183">
        <ele>510.0</ele>
        <time>2019-05-04T16:36:53Z</time>
      </trkpt>
      <trkpt lat="38.725583" lon="-5.541183">
        <ele>508.0</ele>
        <time>2019-05-04T16:36:54Z</time>
      </trkpt>
      <trkpt lat="38.725617" lon="-5.541167">
        <ele>507.0</ele>
        <time>2019-05-04T16:36:55Z</time>
      </trkpt>
      <trkpt lat="38.725633" lon="-5.541167">
        <ele>505.0</ele>
        <time>2019-05-04T16:36:56Z</time>
      </trkpt>
      <trkpt lat="38.725667" lon="-5.541150">
        <ele>505.0</ele>
        <time>2019-05-04T16:36:57Z</time>
      </trkpt>
      <trkpt lat="38.725683" lon="-5.541133">
        <ele>504.0</ele>
        <time>2019-05-04T16:36:58Z</time>
      </trkpt>
      <trkpt lat="38.725700" lon="-5.541133">
        <ele>503.0</ele>
        <time>2019-05-04T16:36:59Z</time>
      </trkpt>
      <trkpt lat="38.725700" lon="-5.541133">
        <ele>503.0</ele>
        <time>2019-05-04T16:37:00Z</time>
      </trkpt>
      <trkpt lat="38.725700" lon="-5.541150">
        <ele>503.0</ele>
        <time>2019-05-04T16:37:01Z</time>
      </trkpt>
      <trkpt lat="38.725700" lon="-5.541150">
        <ele>504.0</ele>
        <time>2019-05-04T16:37:02Z</time>
      </trkpt>
      <trkpt lat="38.725700" lon="-5.541150">
        <ele>504.0</ele>
        <time>2019-05-04T16:37:03Z</time>
      </trkpt>
      <trkpt lat="38.725700" lon="-5.541150">
        <ele>503.0</ele>
        <time>2019-05-04T16:37:04Z</time>
      </trkpt>
      <trkpt lat="38.725700" lon="-5.541150">
        <ele>503.0</ele>
        <time>2019-05-04T16:37:05Z</time>
      </trkpt>
      <trkpt lat="38.725700" lon="-5.541150">
        <ele>504.0</ele>
        <time>2019-05-04T16:37:06Z</time>
      </trkpt>
      <trkpt lat="38.725700" lon="-5.541150">
        <ele>504.0</ele>
        <time>2019-05-04T16:37:07Z</time>
      </trkpt>
      <trkpt lat="38.725700" lon="-5.541150">
        <ele>504.0</ele>
        <time>2019-05-04T16:37:08Z</time>
      </trkpt>
      <trkpt lat="38.725700" lon="-5.541150">
        <ele>504.0</ele>
        <time>2019-05-04T16:37:09Z</time>
      </trkpt>
      <trkpt lat="38.725700" lon="-5.541150">
        <ele>504.0</ele>
        <time>2019-05-04T16:37:10Z</time>
      </trkpt>
      <trkpt lat="38.725700" lon="-5.541150">
        <ele>504.0</ele>
        <time>2019-05-04T16:37:11Z</time>
      </trkpt>
      <trkpt lat="38.725700" lon="-5.541150">
        <ele>504.0</ele>
        <time>2019-05-04T16:37:12Z</time>
      </trkpt>
      <trkpt lat="38.725700" lon="-5.541167">
        <ele>503.0</ele>
        <time>2019-05-04T16:37:13Z</time>
      </trkpt>
      <trkpt lat="38.725683" lon="-5.541167">
        <ele>503.0</ele>
        <time>2019-05-04T16:37:14Z</time>
      </trkpt>
      <trkpt lat="38.725683" lon="-5.541150">
        <ele>503.0</ele>
        <time>2019-05-04T16:37:15Z</time>
      </trkpt>
      <trkpt lat="38.725683" lon="-5.541150">
        <ele>503.0</ele>
        <time>2019-05-04T16:37:16Z</time>
      </trkpt>
      <trkpt lat="38.725683" lon="-5.541133">
        <ele>503.0</ele>
        <time>2019-05-04T16:37:17Z</time>
      </trkpt>
      <trkpt lat="38.725667" lon="-5.541133">
        <ele>503.0</ele>
        <time>2019-05-04T16:37:18Z</time>
      </trkpt>
      <trkpt lat="38.725667" lon="-5.541133">
        <ele>503.0</ele>
        <time>2019-05-04T16:37:19Z</time>
      </trkpt>
      <trkpt lat="38.725667" lon="-5.541133">
        <ele>503.0</ele>
        <time>2019-05-04T16:37:20Z</time>
      </trkpt>
      <trkpt lat="38.725667" lon="-5.541150">
        <ele>503.0</ele>
        <time>2019-05-04T16:37:21Z</time>
      </trkpt>
      <trkpt lat="38.725667" lon="-5.541150">
        <ele>503.0</ele>
        <time>2019-05-04T16:37:22Z</time>
      </trkpt>
      <trkpt lat="38.725667" lon="-5.541150">
        <ele>503.0</ele>
        <time>2019-05-04T16:37:23Z</time>
      </trkpt>
      <trkpt lat="38.725667" lon="-5.541150">
        <ele>504.0</ele>
        <time>2019-05-04T16:37:32Z</time>
      </trkpt>
      <trkpt lat="38.725667" lon="-5.541150">
        <ele>504.0</ele>
        <time>2019-05-04T16:37:33Z</time>
      </trkpt>
      <trkpt lat="38.725667" lon="-5.541150">
        <ele>504.0</ele>
        <time>2019-05-04T16:37:34Z</time>
      </trkpt>
      <trkpt lat="38.725667" lon="-5.541150">
        <ele>504.0</ele>
        <time>2019-05-04T16:37:35Z</time>
      </trkpt>
      <trkpt lat="38.725667" lon="-5.541150">
        <ele>504.0</ele>
        <time>2019-05-04T16:37:36Z</time>
      </trkpt>
      <trkpt lat="38.725667" lon="-5.541150">
        <ele>505.0</ele>
        <time>2019-05-04T16:37:37Z</time>
      </trkpt>
    </trkseg>
  </trk>
</gpx>
